<?xml version='1.0' encoding='UTF-8'?><gpx version="1.1" creator="JPX - https://github.com/jenetics/jpx" xmlns="http://www.topografix.com/GPX/1/1"><trk><trkseg><trkpt lat="39.2658661" lon="16.7085519"><ele>986.3333333333334</ele><time>2026-03-28T11:16:59.607Z</time></trkpt><trkpt lat="39.265857" lon="16.7086362"><ele>986.6666666666667</ele><time>2026-03-28T11:17:11.609Z</time></trkpt><trkpt lat="39.2658859" lon="16.7087099"><ele>987.0</ele><time>2026-03-28T11:17:15.605Z</time></trkpt><trkpt lat="39.2659433" lon="16.7088247"><ele>987.3333333333333</ele><time>2026-03-28T11:17:20.625Z</time></trkpt><trkpt lat="39.2659154" lon="16.7089519"><ele>987.6666666666666</ele><time>2026-03-28T11:17:22.619Z</time></trkpt><trkpt lat="39.2658891" lon="16.7090397"><ele>988.0</ele><time>2026-03-28T11:17:23.618Z</time></trkpt><trkpt lat="39.2658791" lon="16.7091756"><ele>988.0</ele><time>2026-03-28T11:17:24.613Z</time></trkpt><trkpt lat="39.2658567" lon="16.7093311"><ele>988.0</ele><time>2026-03-28T11:17:25.617Z</time></trkpt><trkpt lat="39.2658072" lon="16.7094714"><ele>988.0</ele><time>2026-03-28T11:17:26.622Z</time></trkpt><trkpt lat="39.2657546" lon="16.7096089"><ele>988.0</ele><time>2026-03-28T11:17:27.607Z</time></trkpt><trkpt lat="39.2656633" lon="16.7096938"><ele>985.5999999999999</ele><time>2026-03-28T11:17:28.618Z</time></trkpt><trkpt lat="39.2655838" lon="16.709764"><ele>983.1999999999999</ele><time>2026-03-28T11:17:29.601Z</time></trkpt><trkpt lat="39.2655143" lon="16.7098458"><ele>980.8</ele><time>2026-03-28T11:17:30.6Z</time></trkpt><trkpt lat="39.2654526" lon="16.7099393"><ele>978.4</ele><time>2026-03-28T11:17:31.61Z</time></trkpt><trkpt lat="39.2654038" lon="16.7100455"><ele>976.0</ele><time>2026-03-28T11:17:32.606Z</time></trkpt><trkpt lat="39.2653678" lon="16.7101466"><ele>976.3333333333333</ele><time>2026-03-28T11:17:33.608Z</time></trkpt><trkpt lat="39.2653398" lon="16.7102452"><ele>976.6666666666666</ele><time>2026-03-28T11:17:34.607Z</time></trkpt><trkpt lat="39.2653245" lon="16.7103504"><ele>977.0</ele><time>2026-03-28T11:17:35.609Z</time></trkpt><trkpt lat="39.2653328" lon="16.710457"><ele>977.3333333333333</ele><time>2026-03-28T11:17:36.609Z</time></trkpt><trkpt lat="39.2653599" lon="16.7105569"><ele>977.6666666666666</ele><time>2026-03-28T11:17:37.608Z</time></trkpt><trkpt lat="39.2653836" lon="16.7106498"><ele>978.0</ele><time>2026-03-28T11:17:38.612Z</time></trkpt><trkpt lat="39.2653977" lon="16.7107426"><ele>978.0</ele><time>2026-03-28T11:17:39.618Z</time></trkpt><trkpt lat="39.2653983" lon="16.7108436"><ele>978.0</ele><time>2026-03-28T11:17:40.605Z</time></trkpt><trkpt lat="39.2653827" lon="16.7109448"><ele>978.0</ele><time>2026-03-28T11:17:41.612Z</time></trkpt><trkpt lat="39.2653536" lon="16.7110457"><ele>978.0</ele><time>2026-03-28T11:17:42.611Z</time></trkpt><trkpt lat="39.2653123" lon="16.7111425"><ele>978.0</ele><time>2026-03-28T11:17:43.606Z</time></trkpt><trkpt lat="39.2652591" lon="16.7112359"><ele>978.0</ele><time>2026-03-28T11:17:44.612Z</time></trkpt><trkpt lat="39.2652021" lon="16.7113255"><ele>978.0</ele><time>2026-03-28T11:17:45.613Z</time></trkpt><trkpt lat="39.2651514" lon="16.7114155"><ele>978.0</ele><time>2026-03-28T11:17:46.604Z</time></trkpt><trkpt lat="39.2651143" lon="16.7115189"><ele>978.0</ele><time>2026-03-28T11:17:47.608Z</time></trkpt><trkpt lat="39.2650979" lon="16.7116315"><ele>978.0</ele><time>2026-03-28T11:17:48.616Z</time></trkpt><trkpt lat="39.265106" lon="16.7117468"><ele>978.0</ele><time>2026-03-28T11:17:49.614Z</time></trkpt><trkpt lat="39.2651374" lon="16.7118654"><ele>976.5999999999999</ele><time>2026-03-28T11:17:50.607Z</time></trkpt><trkpt lat="39.2651711" lon="16.7119915"><ele>975.1999999999999</ele><time>2026-03-28T11:17:51.617Z</time></trkpt><trkpt lat="39.2652422" lon="16.7121045"><ele>973.8</ele><time>2026-03-28T11:17:52.609Z</time></trkpt><trkpt lat="39.2653059" lon="16.71221"><ele>972.4</ele><time>2026-03-28T11:17:53.603Z</time></trkpt><trkpt lat="39.2653393" lon="16.7123305"><ele>971.0</ele><time>2026-03-28T11:17:54.616Z</time></trkpt><trkpt lat="39.2653378" lon="16.7124542"><ele>971.0</ele><time>2026-03-28T11:17:55.613Z</time></trkpt><trkpt lat="39.2653039" lon="16.7125799"><ele>970.9999999999999</ele><time>2026-03-28T11:17:56.604Z</time></trkpt><trkpt lat="39.2652553" lon="16.712707"><ele>970.9999999999999</ele><time>2026-03-28T11:17:57.611Z</time></trkpt><trkpt lat="39.2652044" lon="16.7128306"><ele>971.0</ele><time>2026-03-28T11:17:58.602Z</time></trkpt><trkpt lat="39.265155" lon="16.7129417"><ele>971.0</ele><time>2026-03-28T11:17:59.604Z</time></trkpt><trkpt lat="39.265106" lon="16.7130561"><ele>971.5999999999999</ele><time>2026-03-28T11:18:00.619Z</time></trkpt><trkpt lat="39.265055" lon="16.7131728"><ele>972.1999999999999</ele><time>2026-03-28T11:18:01.608Z</time></trkpt><trkpt lat="39.2650071" lon="16.7132798"><ele>972.8000000000001</ele><time>2026-03-28T11:18:02.606Z</time></trkpt><trkpt lat="39.2649633" lon="16.7133852"><ele>973.4000000000001</ele><time>2026-03-28T11:18:03.608Z</time></trkpt><trkpt lat="39.2649161" lon="16.7134941"><ele>974.0</ele><time>2026-03-28T11:18:04.612Z</time></trkpt><trkpt lat="39.2648686" lon="16.7136027"><ele>972.8000000000001</ele><time>2026-03-28T11:18:05.613Z</time></trkpt><trkpt lat="39.264823" lon="16.7137112"><ele>971.6000000000001</ele><time>2026-03-28T11:18:06.607Z</time></trkpt><trkpt lat="39.2647731" lon="16.7138266"><ele>970.4</ele><time>2026-03-28T11:18:07.627Z</time></trkpt><trkpt lat="39.26472" lon="16.7139507"><ele>969.2</ele><time>2026-03-28T11:18:08.618Z</time></trkpt><trkpt lat="39.264664" lon="16.71408"><ele>968.0</ele><time>2026-03-28T11:18:09.61Z</time></trkpt><trkpt lat="39.2645983" lon="16.7142353"><ele>970.6666666666667</ele><time>2026-03-28T11:18:10.619Z</time></trkpt><trkpt lat="39.2645273" lon="16.7144054"><ele>973.3333333333333</ele><time>2026-03-28T11:18:11.611Z</time></trkpt><trkpt lat="39.2644543" lon="16.714579"><ele>976.0</ele><time>2026-03-28T11:18:12.604Z</time></trkpt><trkpt lat="39.2643804" lon="16.7147525"><ele>976.0</ele><time>2026-03-28T11:18:13.608Z</time></trkpt><trkpt lat="39.2643038" lon="16.7149297"><ele>976.0</ele><time>2026-03-28T11:18:14.609Z</time></trkpt><trkpt lat="39.2642306" lon="16.7150994"><ele>976.0</ele><time>2026-03-28T11:18:15.604Z</time></trkpt><trkpt lat="39.2641572" lon="16.7152731"><ele>976.0</ele><time>2026-03-28T11:18:16.617Z</time></trkpt><trkpt lat="39.2640817" lon="16.7154553"><ele>976.0</ele><time>2026-03-28T11:18:17.618Z</time></trkpt><trkpt lat="39.2640025" lon="16.7156437"><ele>976.0</ele><time>2026-03-28T11:18:18.604Z</time></trkpt><trkpt lat="39.2639208" lon="16.7158378"><ele>976.0</ele><time>2026-03-28T11:18:19.607Z</time></trkpt><trkpt lat="39.2638386" lon="16.7160392"><ele>976.0</ele><time>2026-03-28T11:18:20.627Z</time></trkpt><trkpt lat="39.2637523" lon="16.7162559"><ele>976.0</ele><time>2026-03-28T11:18:21.618Z</time></trkpt><trkpt lat="39.2636705" lon="16.7164623"><ele>976.0</ele><time>2026-03-28T11:18:22.604Z</time></trkpt><trkpt lat="39.2635955" lon="16.7166556"><ele>976.0</ele><time>2026-03-28T11:18:23.613Z</time></trkpt><trkpt lat="39.2635229" lon="16.7168384"><ele>976.0</ele><time>2026-03-28T11:18:24.611Z</time></trkpt><trkpt lat="39.2634419" lon="16.7170116"><ele>975.5</ele><time>2026-03-28T11:18:25.615Z</time></trkpt><trkpt lat="39.2633538" lon="16.7171607"><ele>975.0</ele><time>2026-03-28T11:18:26.602Z</time></trkpt><trkpt lat="39.2632585" lon="16.7172805"><ele>974.5</ele><time>2026-03-28T11:18:27.614Z</time></trkpt><trkpt lat="39.2631538" lon="16.7173772"><ele>974.0</ele><time>2026-03-28T11:18:28.616Z</time></trkpt><trkpt lat="39.2630491" lon="16.7174529"><ele>973.75</ele><time>2026-03-28T11:18:29.609Z</time></trkpt><trkpt lat="39.2629409" lon="16.7175172"><ele>973.5</ele><time>2026-03-28T11:18:30.603Z</time></trkpt><trkpt lat="39.2628347" lon="16.7175697"><ele>973.25</ele><time>2026-03-28T11:18:31.608Z</time></trkpt><trkpt lat="39.2627361" lon="16.7176234"><ele>973.0</ele><time>2026-03-28T11:18:32.612Z</time></trkpt><trkpt lat="39.262635" lon="16.7176811"><ele>972.75</ele><time>2026-03-28T11:18:33.607Z</time></trkpt><trkpt lat="39.2625258" lon="16.7177386"><ele>972.5</ele><time>2026-03-28T11:18:34.608Z</time></trkpt><trkpt lat="39.262414" lon="16.7178024"><ele>972.25</ele><time>2026-03-28T11:18:35.611Z</time></trkpt><trkpt lat="39.2623055" lon="16.7178652"><ele>972.0</ele><time>2026-03-28T11:18:36.61Z</time></trkpt><trkpt lat="39.2622009" lon="16.7179232"><ele>973.6</ele><time>2026-03-28T11:18:37.607Z</time></trkpt><trkpt lat="39.2620946" lon="16.7179817"><ele>975.2</ele><time>2026-03-28T11:18:38.611Z</time></trkpt><trkpt lat="39.261995" lon="16.7180361"><ele>976.8</ele><time>2026-03-28T11:18:39.607Z</time></trkpt><trkpt lat="39.2618997" lon="16.7180906"><ele>978.4</ele><time>2026-03-28T11:18:40.606Z</time></trkpt><trkpt lat="39.2618129" lon="16.7181515"><ele>980.0</ele><time>2026-03-28T11:18:41.606Z</time></trkpt><trkpt lat="39.2617394" lon="16.7182268"><ele>980.0000000000001</ele><time>2026-03-28T11:18:42.606Z</time></trkpt><trkpt lat="39.2616843" lon="16.7183118"><ele>980.0</ele><time>2026-03-28T11:18:43.614Z</time></trkpt><trkpt lat="39.2616433" lon="16.7183835"><ele>980.0</ele><time>2026-03-28T11:18:44.61Z</time></trkpt><trkpt lat="39.2615975" lon="16.7184767"><ele>980.0</ele><time>2026-03-28T11:18:47.619Z</time></trkpt><trkpt lat="39.2615448" lon="16.7185773"><ele>980.0000000000001</ele><time>2026-03-28T11:18:50.615Z</time></trkpt><trkpt lat="39.2614647" lon="16.7186604"><ele>980.0</ele><time>2026-03-28T11:18:54.619Z</time></trkpt><trkpt lat="39.2613949" lon="16.7187125"><ele>982.5000000000001</ele><time>2026-03-28T11:18:56.61Z</time></trkpt><trkpt lat="39.2613458" lon="16.7187684"><ele>985.0</ele><time>2026-03-28T11:18:57.609Z</time></trkpt><trkpt lat="39.2612681" lon="16.7188436"><ele>987.5</ele><time>2026-03-28T11:18:58.608Z</time></trkpt><trkpt lat="39.2611787" lon="16.718916"><ele>990.0</ele><time>2026-03-28T11:18:59.604Z</time></trkpt><trkpt lat="39.2611037" lon="16.7189717"><ele>992.5000000000001</ele><time>2026-03-28T11:19:00.611Z</time></trkpt><trkpt lat="39.2610461" lon="16.719012"><ele>995.0</ele><time>2026-03-28T11:19:01.613Z</time></trkpt><trkpt lat="39.2609772" lon="16.7190422"><ele>995.0</ele><time>2026-03-28T11:19:03.61Z</time></trkpt><trkpt lat="39.2608851" lon="16.7190814"><ele>995.0</ele><time>2026-03-28T11:19:08.613Z</time></trkpt><trkpt lat="39.2607852" lon="16.7190897"><ele>995.0</ele><time>2026-03-28T11:19:10.612Z</time></trkpt><trkpt lat="39.2606545" lon="16.7191396"><ele>995.0</ele><time>2026-03-28T11:19:25.616Z</time></trkpt><trkpt lat="39.2605831" lon="16.7191959"><ele>995.0</ele><time>2026-03-28T11:19:28.61Z</time></trkpt><trkpt lat="39.2605096" lon="16.7192477"><ele>997.6666666666667</ele><time>2026-03-28T11:19:31.61Z</time></trkpt><trkpt lat="39.2604428" lon="16.7192965"><ele>1000.3333333333334</ele><time>2026-03-28T11:19:34.616Z</time></trkpt><trkpt lat="39.2603677" lon="16.7193341"><ele>1003.0</ele><time>2026-03-28T11:19:37.615Z</time></trkpt><trkpt lat="39.2602389" lon="16.719346"><ele>1005.6666666666667</ele><time>2026-03-28T11:19:43.617Z</time></trkpt><trkpt lat="39.2601734" lon="16.7193554"><ele>1008.3333333333334</ele><time>2026-03-28T11:19:45.615Z</time></trkpt><trkpt lat="39.2601091" lon="16.7193867"><ele>1011.0</ele><time>2026-03-28T11:19:47.617Z</time></trkpt><trkpt lat="39.2600315" lon="16.7194429"><ele>1012.3333333333334</ele><time>2026-03-28T11:19:50.61Z</time></trkpt><trkpt lat="39.2599683" lon="16.7194721"><ele>1013.6666666666667</ele><time>2026-03-28T11:19:52.616Z</time></trkpt><trkpt lat="39.2599071" lon="16.7194913"><ele>1015.0</ele><time>2026-03-28T11:19:54.615Z</time></trkpt><trkpt lat="39.2598052" lon="16.7194995"><ele>1016.3333333333334</ele><time>2026-03-28T11:19:57.612Z</time></trkpt><trkpt lat="39.2597226" lon="16.7195096"><ele>1017.6666666666667</ele><time>2026-03-28T11:19:59.615Z</time></trkpt><trkpt lat="39.2596498" lon="16.7195261"><ele>1019.0</ele><time>2026-03-28T11:20:01.606Z</time></trkpt><trkpt lat="39.2595729" lon="16.7195619"><ele>1020.857142857143</ele><time>2026-03-28T11:20:03.613Z</time></trkpt><trkpt lat="39.2595157" lon="16.7196053"><ele>1022.7142857142858</ele><time>2026-03-28T11:20:07.608Z</time></trkpt><trkpt lat="39.2594426" lon="16.7196334"><ele>1024.5714285714284</ele><time>2026-03-28T11:20:09.616Z</time></trkpt><trkpt lat="39.2593628" lon="16.7196444"><ele>1026.4285714285716</ele><time>2026-03-28T11:20:11.63Z</time></trkpt><trkpt lat="39.2592823" lon="16.7196199"><ele>1028.2857142857142</ele><time>2026-03-28T11:20:13.612Z</time></trkpt><trkpt lat="39.2592135" lon="16.7195992"><ele>1030.142857142857</ele><time>2026-03-28T11:20:15.614Z</time></trkpt><trkpt lat="39.2591491" lon="16.7196402"><ele>1032.0</ele><time>2026-03-28T11:20:17.635Z</time></trkpt><trkpt lat="39.2590806" lon="16.7196779"><ele>1032.0</ele><time>2026-03-28T11:20:19.609Z</time></trkpt><trkpt lat="39.2589887" lon="16.7196828"><ele>1032.0</ele><time>2026-03-28T11:20:21.619Z</time></trkpt><trkpt lat="39.2588745" lon="16.7197183"><ele>1032.0</ele><time>2026-03-28T11:20:24.623Z</time></trkpt><trkpt lat="39.2588093" lon="16.7197425"><ele>1032.0</ele><time>2026-03-28T11:20:27.614Z</time></trkpt><trkpt lat="39.2587288" lon="16.7197669"><ele>1032.0</ele><time>2026-03-28T11:20:30.607Z</time></trkpt><trkpt lat="39.2586547" lon="16.7197845"><ele>1032.0</ele><time>2026-03-28T11:20:32.62Z</time></trkpt><trkpt lat="39.2585844" lon="16.7197924"><ele>1034.2</ele><time>2026-03-28T11:20:34.615Z</time></trkpt><trkpt lat="39.2585026" lon="16.7198293"><ele>1036.4</ele><time>2026-03-28T11:20:39.633Z</time></trkpt><trkpt lat="39.2584064" lon="16.7199038"><ele>1038.6</ele><time>2026-03-28T11:20:41.613Z</time></trkpt><trkpt lat="39.2583139" lon="16.7199959"><ele>1040.8</ele><time>2026-03-28T11:20:43.615Z</time></trkpt><trkpt lat="39.2582769" lon="16.7200628"><ele>1043.0</ele><time>2026-03-28T11:20:44.611Z</time></trkpt><trkpt lat="39.2582209" lon="16.72014"><ele>1043.0</ele><time>2026-03-28T11:20:45.61Z</time></trkpt><trkpt lat="39.2581664" lon="16.7202104"><ele>1043.0</ele><time>2026-03-28T11:20:46.61Z</time></trkpt><trkpt lat="39.258058" lon="16.7202682"><ele>1043.0</ele><time>2026-03-28T11:20:48.616Z</time></trkpt><trkpt lat="39.2579478" lon="16.7202924"><ele>1043.0</ele><time>2026-03-28T11:20:50.611Z</time></trkpt><trkpt lat="39.2578186" lon="16.7203391"><ele>1043.0</ele><time>2026-03-28T11:20:52.609Z</time></trkpt><trkpt lat="39.2577427" lon="16.7203992"><ele>1044.3333333333335</ele><time>2026-03-28T11:20:53.614Z</time></trkpt><trkpt lat="39.2576779" lon="16.7204543"><ele>1045.6666666666667</ele><time>2026-03-28T11:20:54.621Z</time></trkpt><trkpt lat="39.257626" lon="16.7205256"><ele>1047.0</ele><time>2026-03-28T11:20:55.609Z</time></trkpt><trkpt lat="39.2575794" lon="16.7206137"><ele>1048.3333333333333</ele><time>2026-03-28T11:20:56.612Z</time></trkpt><trkpt lat="39.2575261" lon="16.7207252"><ele>1049.6666666666665</ele><time>2026-03-28T11:20:57.608Z</time></trkpt><trkpt lat="39.257474" lon="16.7208453"><ele>1051.0</ele><time>2026-03-28T11:20:58.603Z</time></trkpt><trkpt lat="39.2574201" lon="16.7209633"><ele>1051.5</ele><time>2026-03-28T11:20:59.607Z</time></trkpt><trkpt lat="39.257336" lon="16.7210766"><ele>1052.0</ele><time>2026-03-28T11:21:00.614Z</time></trkpt><trkpt lat="39.2572327" lon="16.7211569"><ele>1052.5</ele><time>2026-03-28T11:21:01.611Z</time></trkpt><trkpt lat="39.2571403" lon="16.7212182"><ele>1053.0</ele><time>2026-03-28T11:21:02.605Z</time></trkpt><trkpt lat="39.2570467" lon="16.7212756"><ele>1053.0</ele><time>2026-03-28T11:21:03.614Z</time></trkpt><trkpt lat="39.256951" lon="16.7213583"><ele>1053.0</ele><time>2026-03-28T11:21:04.616Z</time></trkpt><trkpt lat="39.2568707" lon="16.7214361"><ele>1053.0</ele><time>2026-03-28T11:21:05.608Z</time></trkpt><trkpt lat="39.2568" lon="16.7215283"><ele>1053.0</ele><time>2026-03-28T11:21:06.611Z</time></trkpt><trkpt lat="39.2567268" lon="16.7216475"><ele>1053.0</ele><time>2026-03-28T11:21:07.611Z</time></trkpt><trkpt lat="39.2566549" lon="16.7217691"><ele>1053.0</ele><time>2026-03-28T11:21:08.609Z</time></trkpt><trkpt lat="39.2565745" lon="16.7218958"><ele>1053.0</ele><time>2026-03-28T11:21:09.622Z</time></trkpt><trkpt lat="39.2564824" lon="16.7219816"><ele>1053.0</ele><time>2026-03-28T11:21:10.61Z</time></trkpt><trkpt lat="39.2563994" lon="16.7220663"><ele>1053.0</ele><time>2026-03-28T11:21:11.603Z</time></trkpt><trkpt lat="39.2563143" lon="16.7221494"><ele>1052.0</ele><time>2026-03-28T11:21:12.612Z</time></trkpt><trkpt lat="39.2562357" lon="16.7222278"><ele>1051.0</ele><time>2026-03-28T11:21:13.613Z</time></trkpt><trkpt lat="39.2561487" lon="16.7223096"><ele>1050.0</ele><time>2026-03-28T11:21:14.603Z</time></trkpt><trkpt lat="39.2560524" lon="16.7224038"><ele>1049.0</ele><time>2026-03-28T11:21:15.613Z</time></trkpt><trkpt lat="39.2559527" lon="16.722504"><ele>1049.0</ele><time>2026-03-28T11:21:16.615Z</time></trkpt><trkpt lat="39.2558551" lon="16.7225705"><ele>1049.0</ele><time>2026-03-28T11:21:17.619Z</time></trkpt><trkpt lat="39.2557585" lon="16.7226122"><ele>1049.0</ele><time>2026-03-28T11:21:18.615Z</time></trkpt><trkpt lat="39.2556793" lon="16.7226506"><ele>1049.0</ele><time>2026-03-28T11:21:19.613Z</time></trkpt><trkpt lat="39.2556076" lon="16.7226974"><ele>1049.0</ele><time>2026-03-28T11:21:20.611Z</time></trkpt><trkpt lat="39.2555476" lon="16.7227487"><ele>1049.0</ele><time>2026-03-28T11:21:21.618Z</time></trkpt><trkpt lat="39.2554828" lon="16.7228036"><ele>1048.0</ele><time>2026-03-28T11:21:22.613Z</time></trkpt><trkpt lat="39.2554218" lon="16.7228921"><ele>1047.0</ele><time>2026-03-28T11:21:23.606Z</time></trkpt><trkpt lat="39.2553651" lon="16.7229891"><ele>1046.0</ele><time>2026-03-28T11:21:24.606Z</time></trkpt><trkpt lat="39.2553168" lon="16.7230873"><ele>1045.0</ele><time>2026-03-28T11:21:25.616Z</time></trkpt><trkpt lat="39.2552706" lon="16.7231839"><ele>1044.0</ele><time>2026-03-28T11:21:26.602Z</time></trkpt><trkpt lat="39.2552421" lon="16.7233021"><ele>1044.0</ele><time>2026-03-28T11:21:27.61Z</time></trkpt><trkpt lat="39.2552282" lon="16.7234538"><ele>1044.0</ele><time>2026-03-28T11:21:28.615Z</time></trkpt><trkpt lat="39.2552201" lon="16.723594"><ele>1044.0</ele><time>2026-03-28T11:21:29.614Z</time></trkpt><trkpt lat="39.255209" lon="16.7237413"><ele>1044.0</ele><time>2026-03-28T11:21:30.609Z</time></trkpt><trkpt lat="39.2551832" lon="16.7238844"><ele>1044.25</ele><time>2026-03-28T11:21:31.617Z</time></trkpt><trkpt lat="39.2551295" lon="16.724035"><ele>1044.5</ele><time>2026-03-28T11:21:32.616Z</time></trkpt><trkpt lat="39.2550688" lon="16.7241801"><ele>1044.75</ele><time>2026-03-28T11:21:33.613Z</time></trkpt><trkpt lat="39.2550012" lon="16.7243088"><ele>1045.0</ele><time>2026-03-28T11:21:34.613Z</time></trkpt><trkpt lat="39.2549398" lon="16.7244231"><ele>1044.6666666666665</ele><time>2026-03-28T11:21:35.608Z</time></trkpt><trkpt lat="39.2548911" lon="16.7245031"><ele>1044.3333333333333</ele><time>2026-03-28T11:21:36.616Z</time></trkpt><trkpt lat="39.254854" lon="16.7245744"><ele>1044.0</ele><time>2026-03-28T11:21:37.608Z</time></trkpt><trkpt lat="39.2548011" lon="16.7247121"><ele>1043.6666666666667</ele><time>2026-03-28T11:21:39.615Z</time></trkpt><trkpt lat="39.2547702" lon="16.7248153"><ele>1043.3333333333335</ele><time>2026-03-28T11:21:41.608Z</time></trkpt><trkpt lat="39.2547439" lon="16.7248915"><ele>1043.0</ele><time>2026-03-28T11:21:43.605Z</time></trkpt><trkpt lat="39.2547187" lon="16.7249765"><ele>1047.0</ele><time>2026-03-28T11:21:46.612Z</time></trkpt><trkpt lat="39.2546907" lon="16.7250852"><ele>1051.0</ele><time>2026-03-28T11:21:49.614Z</time></trkpt><trkpt lat="39.2546497" lon="16.7251781"><ele>1055.0</ele><time>2026-03-28T11:21:51.604Z</time></trkpt><trkpt lat="39.2545992" lon="16.7252892"><ele>1059.0</ele><time>2026-03-28T11:21:53.609Z</time></trkpt><trkpt lat="39.2545258" lon="16.7253763"><ele>1063.0</ele><time>2026-03-28T11:21:55.613Z</time></trkpt><trkpt lat="39.2544743" lon="16.7254262"><ele>1067.0</ele><time>2026-03-28T11:21:57.615Z</time></trkpt><trkpt lat="39.2544069" lon="16.7255011"><ele>1067.0</ele><time>2026-03-28T11:22:00.607Z</time></trkpt><trkpt lat="39.2543507" lon="16.7255794"><ele>1067.0</ele><time>2026-03-28T11:22:03.613Z</time></trkpt><trkpt lat="39.2542891" lon="16.7256384"><ele>1067.0</ele><time>2026-03-28T11:22:06.611Z</time></trkpt><trkpt lat="39.2542164" lon="16.725687"><ele>1067.0</ele><time>2026-03-28T11:22:09.604Z</time></trkpt><trkpt lat="39.2541585" lon="16.7257652"><ele>1067.0</ele><time>2026-03-28T11:22:12.618Z</time></trkpt><trkpt lat="39.2541109" lon="16.725884"><ele>1067.0</ele><time>2026-03-28T11:22:15.61Z</time></trkpt><trkpt lat="39.2541032" lon="16.7259929"><ele>1067.4</ele><time>2026-03-28T11:22:17.615Z</time></trkpt><trkpt lat="39.2541282" lon="16.7261041"><ele>1067.8000000000002</ele><time>2026-03-28T11:22:19.608Z</time></trkpt><trkpt lat="39.2541449" lon="16.7262072"><ele>1068.2</ele><time>2026-03-28T11:22:21.61Z</time></trkpt><trkpt lat="39.2541493" lon="16.7263162"><ele>1068.6000000000001</ele><time>2026-03-28T11:22:23.621Z</time></trkpt><trkpt lat="39.2541426" lon="16.7264238"><ele>1069.0</ele><time>2026-03-28T11:22:25.609Z</time></trkpt><trkpt lat="39.2541123" lon="16.7265704"><ele>1069.0</ele><time>2026-03-28T11:22:27.614Z</time></trkpt><trkpt lat="39.2540605" lon="16.7266832"><ele>1069.0</ele><time>2026-03-28T11:22:29.61Z</time></trkpt><trkpt lat="39.254005" lon="16.7268267"><ele>1069.0</ele><time>2026-03-28T11:22:31.62Z</time></trkpt><trkpt lat="39.2539771" lon="16.7269041"><ele>1069.0</ele><time>2026-03-28T11:22:32.61Z</time></trkpt><trkpt lat="39.253922" lon="16.7270352"><ele>1069.0</ele><time>2026-03-28T11:22:34.621Z</time></trkpt><trkpt lat="39.2538918" lon="16.7271106"><ele>1073.6666666666665</ele><time>2026-03-28T11:22:35.608Z</time></trkpt><trkpt lat="39.2538413" lon="16.727245"><ele>1078.3333333333333</ele><time>2026-03-28T11:22:37.616Z</time></trkpt><trkpt lat="39.2538047" lon="16.727331"><ele>1083.0</ele><time>2026-03-28T11:22:39.6Z</time></trkpt><trkpt lat="39.2537743" lon="16.7274372"><ele>1087.6666666666667</ele><time>2026-03-28T11:22:42.612Z</time></trkpt><trkpt lat="39.2537512" lon="16.727523"><ele>1092.3333333333335</ele><time>2026-03-28T11:22:44.608Z</time></trkpt><trkpt lat="39.2537105" lon="16.7276302"><ele>1097.0</ele><time>2026-03-28T11:22:46.607Z</time></trkpt><trkpt lat="39.2536738" lon="16.7277329"><ele>1098.1666666666667</ele><time>2026-03-28T11:22:48.612Z</time></trkpt><trkpt lat="39.2536485" lon="16.7278314"><ele>1099.3333333333335</ele><time>2026-03-28T11:22:50.614Z</time></trkpt><trkpt lat="39.2536141" lon="16.7279145"><ele>1100.5</ele><time>2026-03-28T11:22:52.614Z</time></trkpt><trkpt lat="39.2535859" lon="16.7280147"><ele>1101.6666666666667</ele><time>2026-03-28T11:22:54.612Z</time></trkpt><trkpt lat="39.2535733" lon="16.7281143"><ele>1102.8333333333333</ele><time>2026-03-28T11:22:56.615Z</time></trkpt><trkpt lat="39.2535359" lon="16.7282007"><ele>1104.0</ele><time>2026-03-28T11:22:58.612Z</time></trkpt><trkpt lat="39.2535082" lon="16.7283182"><ele>1104.0</ele><time>2026-03-28T11:23:00.615Z</time></trkpt><trkpt lat="39.2534784" lon="16.7284177"><ele>1104.0</ele><time>2026-03-28T11:23:02.614Z</time></trkpt><trkpt lat="39.2534413" lon="16.7285363"><ele>1104.0</ele><time>2026-03-28T11:23:04.623Z</time></trkpt><trkpt lat="39.2533971" lon="16.7286662"><ele>1104.0</ele><time>2026-03-28T11:23:06.613Z</time></trkpt><trkpt lat="39.253342" lon="16.7288064"><ele>1104.0</ele><time>2026-03-28T11:23:08.609Z</time></trkpt><trkpt lat="39.2532843" lon="16.7288643"><ele>1104.5</ele><time>2026-03-28T11:23:09.607Z</time></trkpt><trkpt lat="39.2532171" lon="16.7288965"><ele>1105.0</ele><time>2026-03-28T11:23:10.609Z</time></trkpt><trkpt lat="39.2531459" lon="16.7289279"><ele>1105.5</ele><time>2026-03-28T11:23:11.616Z</time></trkpt><trkpt lat="39.2530625" lon="16.7289591"><ele>1106.0</ele><time>2026-03-28T11:23:12.61Z</time></trkpt><trkpt lat="39.2529781" lon="16.7289861"><ele>1106.5</ele><time>2026-03-28T11:23:13.615Z</time></trkpt><trkpt lat="39.2528986" lon="16.7290083"><ele>1107.0</ele><time>2026-03-28T11:23:14.611Z</time></trkpt><trkpt lat="39.2528211" lon="16.7290243"><ele>1107.6666666666667</ele><time>2026-03-28T11:23:15.61Z</time></trkpt><trkpt lat="39.2527495" lon="16.7290411"><ele>1108.3333333333333</ele><time>2026-03-28T11:23:16.612Z</time></trkpt><trkpt lat="39.2526818" lon="16.7290665"><ele>1109.0</ele><time>2026-03-28T11:23:17.613Z</time></trkpt><trkpt lat="39.2526125" lon="16.7290926"><ele>1109.6666666666665</ele><time>2026-03-28T11:23:18.613Z</time></trkpt><trkpt lat="39.2525503" lon="16.7291227"><ele>1110.3333333333333</ele><time>2026-03-28T11:23:19.612Z</time></trkpt><trkpt lat="39.2524454" lon="16.7291955"><ele>1111.0</ele><time>2026-03-28T11:23:21.626Z</time></trkpt><trkpt lat="39.2523727" lon="16.7293311"><ele>1109.1666666666665</ele><time>2026-03-28T11:23:23.614Z</time></trkpt><trkpt lat="39.2523391" lon="16.7294126"><ele>1107.3333333333333</ele><time>2026-03-28T11:23:24.625Z</time></trkpt><trkpt lat="39.2522369" lon="16.7294756"><ele>1105.5</ele><time>2026-03-28T11:23:26.597Z</time></trkpt><trkpt lat="39.2521649" lon="16.7295279"><ele>1103.6666666666667</ele><time>2026-03-28T11:23:28.617Z</time></trkpt><trkpt lat="39.2521028" lon="16.7295577"><ele>1101.8333333333335</ele><time>2026-03-28T11:23:30.625Z</time></trkpt><trkpt lat="39.2520362" lon="16.7295967"><ele>1100.0</ele><time>2026-03-28T11:23:32.608Z</time></trkpt><trkpt lat="39.2519263" lon="16.7296611"><ele>1100.0</ele><time>2026-03-28T11:23:34.617Z</time></trkpt><trkpt lat="39.251832" lon="16.7297225"><ele>1100.0</ele><time>2026-03-28T11:23:36.623Z</time></trkpt><trkpt lat="39.2517548" lon="16.7297744"><ele>1100.0</ele><time>2026-03-28T11:23:38.618Z</time></trkpt><trkpt lat="39.2516783" lon="16.7298233"><ele>1100.0</ele><time>2026-03-28T11:23:40.618Z</time></trkpt><trkpt lat="39.2515731" lon="16.7299097"><ele>1100.0</ele><time>2026-03-28T11:23:42.617Z</time></trkpt><trkpt lat="39.2514981" lon="16.7299605"><ele>1100.8333333333335</ele><time>2026-03-28T11:23:43.628Z</time></trkpt><trkpt lat="39.2514352" lon="16.7300177"><ele>1101.6666666666667</ele><time>2026-03-28T11:23:44.61Z</time></trkpt><trkpt lat="39.251372" lon="16.7300844"><ele>1102.5</ele><time>2026-03-28T11:23:45.624Z</time></trkpt><trkpt lat="39.2513029" lon="16.7301451"><ele>1103.3333333333333</ele><time>2026-03-28T11:23:46.622Z</time></trkpt><trkpt lat="39.251249" lon="16.7301949"><ele>1104.1666666666665</ele><time>2026-03-28T11:23:47.617Z</time></trkpt><trkpt lat="39.2511546" lon="16.7302602"><ele>1105.0</ele><time>2026-03-28T11:23:49.615Z</time></trkpt><trkpt lat="39.2510677" lon="16.7303603"><ele>1105.0</ele><time>2026-03-28T11:23:51.617Z</time></trkpt><trkpt lat="39.2510163" lon="16.7304232"><ele>1105.0</ele><time>2026-03-28T11:23:52.62Z</time></trkpt><trkpt lat="39.2509538" lon="16.7304915"><ele>1105.0</ele><time>2026-03-28T11:23:53.62Z</time></trkpt><trkpt lat="39.2508786" lon="16.7305703"><ele>1105.0</ele><time>2026-03-28T11:23:54.613Z</time></trkpt><trkpt lat="39.2507722" lon="16.7306779"><ele>1105.0</ele><time>2026-03-28T11:23:55.604Z</time></trkpt><trkpt lat="39.2506664" lon="16.7307851"><ele>1105.75</ele><time>2026-03-28T11:23:56.618Z</time></trkpt><trkpt lat="39.2505596" lon="16.7308947"><ele>1106.5</ele><time>2026-03-28T11:23:57.612Z</time></trkpt><trkpt lat="39.2504664" lon="16.7310031"><ele>1107.25</ele><time>2026-03-28T11:23:58.61Z</time></trkpt><trkpt lat="39.2503871" lon="16.7311068"><ele>1108.0</ele><time>2026-03-28T11:23:59.607Z</time></trkpt><trkpt lat="39.250321" lon="16.7312057"><ele>1106.8</ele><time>2026-03-28T11:24:00.605Z</time></trkpt><trkpt lat="39.2502576" lon="16.7313045"><ele>1105.6</ele><time>2026-03-28T11:24:01.613Z</time></trkpt><trkpt lat="39.2501964" lon="16.7313835"><ele>1104.4</ele><time>2026-03-28T11:24:02.611Z</time></trkpt><trkpt lat="39.2501347" lon="16.7314615"><ele>1103.2</ele><time>2026-03-28T11:24:03.605Z</time></trkpt><trkpt lat="39.250074" lon="16.7315502"><ele>1102.0</ele><time>2026-03-28T11:24:04.602Z</time></trkpt><trkpt lat="39.2500161" lon="16.7316547"><ele>1102.0</ele><time>2026-03-28T11:24:05.606Z</time></trkpt><trkpt lat="39.2499631" lon="16.7317608"><ele>1102.0</ele><time>2026-03-28T11:24:06.602Z</time></trkpt><trkpt lat="39.2499227" lon="16.7318723"><ele>1102.0</ele><time>2026-03-28T11:24:07.615Z</time></trkpt><trkpt lat="39.2498997" lon="16.7320124"><ele>1102.0</ele><time>2026-03-28T11:24:08.61Z</time></trkpt><trkpt lat="39.2498966" lon="16.7321548"><ele>1102.0</ele><time>2026-03-28T11:24:09.605Z</time></trkpt><trkpt lat="39.2498985" lon="16.7323169"><ele>1102.2</ele><time>2026-03-28T11:24:10.612Z</time></trkpt><trkpt lat="39.2499094" lon="16.7324427"><ele>1102.4</ele><time>2026-03-28T11:24:11.61Z</time></trkpt><trkpt lat="39.2499259" lon="16.7325277"><ele>1102.6</ele><time>2026-03-28T11:24:12.601Z</time></trkpt><trkpt lat="39.2499614" lon="16.7326466"><ele>1102.8</ele><time>2026-03-28T11:24:14.612Z</time></trkpt><trkpt lat="39.2500305" lon="16.7327134"><ele>1103.0</ele><time>2026-03-28T11:24:16.61Z</time></trkpt><trkpt lat="39.2501121" lon="16.7328032"><ele>1103.8</ele><time>2026-03-28T11:24:18.609Z</time></trkpt><trkpt lat="39.250193" lon="16.7329206"><ele>1104.6</ele><time>2026-03-28T11:24:20.604Z</time></trkpt><trkpt lat="39.2502409" lon="16.7330072"><ele>1105.4</ele><time>2026-03-28T11:24:21.616Z</time></trkpt><trkpt lat="39.25028" lon="16.7331045"><ele>1106.2</ele><time>2026-03-28T11:24:22.614Z</time></trkpt><trkpt lat="39.2503498" lon="16.7332445"><ele>1107.0</ele><time>2026-03-28T11:24:24.615Z</time></trkpt><trkpt lat="39.2503783" lon="16.7333423"><ele>1107.0</ele><time>2026-03-28T11:24:25.615Z</time></trkpt><trkpt lat="39.2503853" lon="16.7334576"><ele>1107.0</ele><time>2026-03-28T11:24:26.608Z</time></trkpt><trkpt lat="39.2503825" lon="16.7335789"><ele>1107.0</ele><time>2026-03-28T11:24:27.604Z</time></trkpt><trkpt lat="39.2503595" lon="16.7336728"><ele>1107.0</ele><time>2026-03-28T11:24:28.617Z</time></trkpt><trkpt lat="39.250344" lon="16.7337778"><ele>1107.0</ele><time>2026-03-28T11:24:29.607Z</time></trkpt><trkpt lat="39.2503088" lon="16.7338833"><ele>1107.0</ele><time>2026-03-28T11:24:30.606Z</time></trkpt><trkpt lat="39.2502712" lon="16.7339852"><ele>1107.6</ele><time>2026-03-28T11:24:31.605Z</time></trkpt><trkpt lat="39.2502151" lon="16.7341212"><ele>1108.2</ele><time>2026-03-28T11:24:33.618Z</time></trkpt><trkpt lat="39.2501614" lon="16.7342449"><ele>1108.8</ele><time>2026-03-28T11:24:35.605Z</time></trkpt><trkpt lat="39.2500965" lon="16.7343431"><ele>1109.4</ele><time>2026-03-28T11:24:37.612Z</time></trkpt><trkpt lat="39.2500512" lon="16.7344078"><ele>1110.0</ele><time>2026-03-28T11:24:38.616Z</time></trkpt><trkpt lat="39.2500286" lon="16.7345204"><ele>1110.2</ele><time>2026-03-28T11:24:39.609Z</time></trkpt><trkpt lat="39.2500445" lon="16.7346811"><ele>1110.4</ele><time>2026-03-28T11:24:40.615Z</time></trkpt><trkpt lat="39.2500641" lon="16.7348234"><ele>1110.6</ele><time>2026-03-28T11:24:41.616Z</time></trkpt><trkpt lat="39.2501137" lon="16.7349475"><ele>1110.8</ele><time>2026-03-28T11:24:42.607Z</time></trkpt><trkpt lat="39.2501648" lon="16.7350559"><ele>1111.0</ele><time>2026-03-28T11:24:43.611Z</time></trkpt><trkpt lat="39.2502046" lon="16.7351384"><ele>1111.0</ele><time>2026-03-28T11:24:44.61Z</time></trkpt><trkpt lat="39.2502535" lon="16.7351993"><ele>1111.0</ele><time>2026-03-28T11:24:45.613Z</time></trkpt><trkpt lat="39.2503" lon="16.7352627"><ele>1111.0</ele><time>2026-03-28T11:24:46.613Z</time></trkpt><trkpt lat="39.2504117" lon="16.7352876"><ele>1111.0</ele><time>2026-03-28T11:24:48.608Z</time></trkpt><trkpt lat="39.2505" lon="16.7352762"><ele>1111.0</ele><time>2026-03-28T11:24:50.62Z</time></trkpt><trkpt lat="39.2505681" lon="16.7352639"><ele>1111.0</ele><time>2026-03-28T11:24:53.617Z</time></trkpt><trkpt lat="39.2506418" lon="16.735262"><ele>1110.2</ele><time>2026-03-28T11:24:55.621Z</time></trkpt><trkpt lat="39.2507481" lon="16.7352974"><ele>1109.3999999999999</ele><time>2026-03-28T11:24:57.616Z</time></trkpt><trkpt lat="39.2508708" lon="16.7353111"><ele>1108.6</ele><time>2026-03-28T11:24:59.617Z</time></trkpt><trkpt lat="39.2509441" lon="16.7353125"><ele>1107.8</ele><time>2026-03-28T11:25:00.613Z</time></trkpt><trkpt lat="39.2510138" lon="16.7353247"><ele>1107.0</ele><time>2026-03-28T11:25:01.611Z</time></trkpt><trkpt lat="39.2511177" lon="16.7353933"><ele>1107.0</ele><time>2026-03-28T11:25:03.623Z</time></trkpt><trkpt lat="39.251147" lon="16.7355658"><ele>1107.0</ele><time>2026-03-28T11:25:05.609Z</time></trkpt><trkpt lat="39.2511587" lon="16.7356641"><ele>1107.0</ele><time>2026-03-28T11:25:06.616Z</time></trkpt><trkpt lat="39.2511626" lon="16.7357577"><ele>1107.0</ele><time>2026-03-28T11:25:07.612Z</time></trkpt><trkpt lat="39.2511712" lon="16.7358479"><ele>1107.0</ele><time>2026-03-28T11:25:08.615Z</time></trkpt><trkpt lat="39.2512086" lon="16.7359828"><ele>1107.75</ele><time>2026-03-28T11:25:10.613Z</time></trkpt><trkpt lat="39.251282" lon="16.7360894"><ele>1108.5</ele><time>2026-03-28T11:25:12.607Z</time></trkpt><trkpt lat="39.2513702" lon="16.7361852"><ele>1109.25</ele><time>2026-03-28T11:25:14.611Z</time></trkpt><trkpt lat="39.251474" lon="16.7362613"><ele>1110.0</ele><time>2026-03-28T11:25:16.614Z</time></trkpt><trkpt lat="39.251565" lon="16.7363503"><ele>1108.0</ele><time>2026-03-28T11:25:18.603Z</time></trkpt><trkpt lat="39.2516475" lon="16.7364401"><ele>1106.0</ele><time>2026-03-28T11:25:20.613Z</time></trkpt><trkpt lat="39.2516944" lon="16.7365464"><ele>1104.0</ele><time>2026-03-28T11:25:22.609Z</time></trkpt><trkpt lat="39.2517202" lon="16.7366727"><ele>1102.0</ele><time>2026-03-28T11:25:24.613Z</time></trkpt><trkpt lat="39.2517294" lon="16.7367541"><ele>1100.0</ele><time>2026-03-28T11:25:25.617Z</time></trkpt><trkpt lat="39.2517832" lon="16.7369066"><ele>1100.0</ele><time>2026-03-28T11:25:27.62Z</time></trkpt><trkpt lat="39.251828" lon="16.7369728"><ele>1100.0</ele><time>2026-03-28T11:25:28.602Z</time></trkpt><trkpt lat="39.2518721" lon="16.7371189"><ele>1100.0</ele><time>2026-03-28T11:25:30.611Z</time></trkpt><trkpt lat="39.2518791" lon="16.7372093"><ele>1100.0</ele><time>2026-03-28T11:25:31.609Z</time></trkpt><trkpt lat="39.2518758" lon="16.7372939"><ele>1100.0</ele><time>2026-03-28T11:25:32.613Z</time></trkpt><trkpt lat="39.2518339" lon="16.7374268"><ele>1100.0</ele><time>2026-03-28T11:25:34.608Z</time></trkpt><trkpt lat="39.2517604" lon="16.7375433"><ele>1100.0</ele><time>2026-03-28T11:25:36.614Z</time></trkpt><trkpt lat="39.2516913" lon="16.7376637"><ele>1100.0</ele><time>2026-03-28T11:25:38.619Z</time></trkpt><trkpt lat="39.2516345" lon="16.7377678"><ele>1100.0</ele><time>2026-03-28T11:25:40.616Z</time></trkpt><trkpt lat="39.2515606" lon="16.7378602"><ele>1100.0</ele><time>2026-03-28T11:25:42.621Z</time></trkpt><trkpt lat="39.2515057" lon="16.7379138"><ele>1100.0</ele><time>2026-03-28T11:25:44.616Z</time></trkpt><trkpt lat="39.2514294" lon="16.737983"><ele>1099.4</ele><time>2026-03-28T11:25:47.615Z</time></trkpt><trkpt lat="39.2513343" lon="16.7380433"><ele>1098.8</ele><time>2026-03-28T11:25:49.612Z</time></trkpt><trkpt lat="39.2512359" lon="16.7380774"><ele>1098.2</ele><time>2026-03-28T11:25:51.619Z</time></trkpt><trkpt lat="39.2511665" lon="16.7380878"><ele>1097.6</ele><time>2026-03-28T11:25:53.623Z</time></trkpt><trkpt lat="39.2510743" lon="16.7381326"><ele>1097.0</ele><time>2026-03-28T11:25:55.621Z</time></trkpt><trkpt lat="39.2509752" lon="16.738214"><ele>1097.0</ele><time>2026-03-28T11:25:57.621Z</time></trkpt><trkpt lat="39.2509045" lon="16.7382547"><ele>1097.0</ele><time>2026-03-28T11:26:00.619Z</time></trkpt><trkpt lat="39.2508947" lon="16.7383368"><ele>1097.0</ele><time>2026-03-28T11:26:06.624Z</time></trkpt><trkpt lat="39.2509503" lon="16.7384077"><ele>1097.0</ele><time>2026-03-28T11:26:08.615Z</time></trkpt><trkpt lat="39.2510188" lon="16.7384538"><ele>1097.0</ele><time>2026-03-28T11:26:10.613Z</time></trkpt><trkpt lat="39.2510793" lon="16.7384842"><ele>1097.0</ele><time>2026-03-28T11:26:12.619Z</time></trkpt><trkpt lat="39.2511574" lon="16.738475"><ele>1097.0</ele><time>2026-03-28T11:26:15.617Z</time></trkpt><trkpt lat="39.2512418" lon="16.7384247"><ele>1097.0</ele><time>2026-03-28T11:26:18.627Z</time></trkpt><trkpt lat="39.2513134" lon="16.7383822"><ele>1097.0</ele><time>2026-03-28T11:26:21.612Z</time></trkpt><trkpt lat="39.2513809" lon="16.7383945"><ele>1097.0</ele><time>2026-03-28T11:26:25.614Z</time></trkpt><trkpt lat="39.2514562" lon="16.7384115"><ele>1097.0</ele><time>2026-03-28T11:26:28.616Z</time></trkpt><trkpt lat="39.25156" lon="16.7383893"><ele>1097.0</ele><time>2026-03-28T11:26:30.61Z</time></trkpt><trkpt lat="39.2516785" lon="16.738384"><ele>1097.0</ele><time>2026-03-28T11:26:32.611Z</time></trkpt><trkpt lat="39.2517829" lon="16.738383"><ele>1094.8</ele><time>2026-03-28T11:26:34.62Z</time></trkpt><trkpt lat="39.2518376" lon="16.7383153"><ele>1092.6</ele><time>2026-03-28T11:26:37.636Z</time></trkpt><trkpt lat="39.2519762" lon="16.7382955"><ele>1090.3999999999999</ele><time>2026-03-28T11:26:39.619Z</time></trkpt><trkpt lat="39.252066" lon="16.7382571"><ele>1088.2</ele><time>2026-03-28T11:26:40.615Z</time></trkpt><trkpt lat="39.2521295" lon="16.7381954"><ele>1086.0</ele><time>2026-03-28T11:26:41.631Z</time></trkpt><trkpt lat="39.2521768" lon="16.7381414"><ele>1086.0</ele><time>2026-03-28T11:26:42.615Z</time></trkpt><trkpt lat="39.2522235" lon="16.7380803"><ele>1086.0</ele><time>2026-03-28T11:26:43.618Z</time></trkpt><trkpt lat="39.2522652" lon="16.7380129"><ele>1086.0</ele><time>2026-03-28T11:26:44.62Z</time></trkpt><trkpt lat="39.2523017" lon="16.737935"><ele>1086.0</ele><time>2026-03-28T11:26:45.615Z</time></trkpt><trkpt lat="39.2523893" lon="16.7378412"><ele>1086.0</ele><time>2026-03-28T11:26:47.611Z</time></trkpt><trkpt lat="39.2524918" lon="16.7378484"><ele>1086.0</ele><time>2026-03-28T11:26:49.608Z</time></trkpt><trkpt lat="39.2525446" lon="16.7378964"><ele>1082.8</ele><time>2026-03-28T11:26:50.61Z</time></trkpt><trkpt lat="39.2526055" lon="16.7379936"><ele>1079.6</ele><time>2026-03-28T11:26:52.606Z</time></trkpt><trkpt lat="39.252686" lon="16.7380566"><ele>1076.4</ele><time>2026-03-28T11:26:54.614Z</time></trkpt><trkpt lat="39.2528045" lon="16.7381449"><ele>1073.2</ele><time>2026-03-28T11:26:56.611Z</time></trkpt><trkpt lat="39.2528643" lon="16.7381892"><ele>1070.0</ele><time>2026-03-28T11:26:57.618Z</time></trkpt><trkpt lat="39.2529189" lon="16.7382322"><ele>1070.0</ele><time>2026-03-28T11:26:58.619Z</time></trkpt><trkpt lat="39.2529948" lon="16.7383216"><ele>1070.0</ele><time>2026-03-28T11:27:00.614Z</time></trkpt><trkpt lat="39.2529823" lon="16.7384141"><ele>1070.0</ele><time>2026-03-28T11:27:02.606Z</time></trkpt><trkpt lat="39.2529303" lon="16.7384996"><ele>1070.0</ele><time>2026-03-28T11:27:04.617Z</time></trkpt><trkpt lat="39.2529369" lon="16.738645"><ele>1070.0</ele><time>2026-03-28T11:27:06.617Z</time></trkpt><trkpt lat="39.252947" lon="16.738774"><ele>1067.8</ele><time>2026-03-28T11:27:08.611Z</time></trkpt><trkpt lat="39.2530188" lon="16.7387861"><ele>1065.6</ele><time>2026-03-28T11:27:11.617Z</time></trkpt><trkpt lat="39.2530801" lon="16.7387304"><ele>1063.4</ele><time>2026-03-28T11:27:13.618Z</time></trkpt><trkpt lat="39.25316" lon="16.7386649"><ele>1061.2</ele><time>2026-03-28T11:27:15.624Z</time></trkpt><trkpt lat="39.2532642" lon="16.7386017"><ele>1059.0</ele><time>2026-03-28T11:27:17.609Z</time></trkpt><trkpt lat="39.2533629" lon="16.7385506"><ele>1059.0</ele><time>2026-03-28T11:27:19.618Z</time></trkpt><trkpt lat="39.2534447" lon="16.7384966"><ele>1059.0</ele><time>2026-03-28T11:27:21.615Z</time></trkpt><trkpt lat="39.2535316" lon="16.7384079"><ele>1059.0</ele><time>2026-03-28T11:27:23.605Z</time></trkpt><trkpt lat="39.2536026" lon="16.7383075"><ele>1059.0</ele><time>2026-03-28T11:27:25.611Z</time></trkpt><trkpt lat="39.2536858" lon="16.7382751"><ele>1059.0</ele><time>2026-03-28T11:27:28.61Z</time></trkpt><trkpt lat="39.2537553" lon="16.7383555"><ele>1059.0</ele><time>2026-03-28T11:27:29.618Z</time></trkpt><trkpt lat="39.2538463" lon="16.738452"><ele>1059.0</ele><time>2026-03-28T11:27:30.608Z</time></trkpt><trkpt lat="39.2539209" lon="16.7385317"><ele>1059.0</ele><time>2026-03-28T11:27:31.608Z</time></trkpt><trkpt lat="39.2540012" lon="16.7386119"><ele>1059.0</ele><time>2026-03-28T11:27:32.618Z</time></trkpt><trkpt lat="39.2540648" lon="16.7386682"><ele>1059.0</ele><time>2026-03-28T11:27:33.613Z</time></trkpt><trkpt lat="39.2541934" lon="16.7386675"><ele>1058.0</ele><time>2026-03-28T11:27:35.61Z</time></trkpt><trkpt lat="39.2542748" lon="16.7386183"><ele>1057.0</ele><time>2026-03-28T11:27:36.611Z</time></trkpt><trkpt lat="39.25435" lon="16.7385309"><ele>1056.0</ele><time>2026-03-28T11:27:37.618Z</time></trkpt><trkpt lat="39.2544092" lon="16.7384442"><ele>1055.0</ele><time>2026-03-28T11:27:38.61Z</time></trkpt><trkpt lat="39.2544582" lon="16.7383699"><ele>1054.0</ele><time>2026-03-28T11:27:39.614Z</time></trkpt><trkpt lat="39.2544978" lon="16.738298"><ele>1053.0</ele><time>2026-03-28T11:27:40.62Z</time></trkpt><trkpt lat="39.2545548" lon="16.7381849"><ele>1053.0</ele><time>2026-03-28T11:27:42.617Z</time></trkpt><trkpt lat="39.2545958" lon="16.7381102"><ele>1053.0</ele><time>2026-03-28T11:27:43.615Z</time></trkpt><trkpt lat="39.2546427" lon="16.7380299"><ele>1053.0</ele><time>2026-03-28T11:27:44.609Z</time></trkpt><trkpt lat="39.2546938" lon="16.7379783"><ele>1053.0</ele><time>2026-03-28T11:27:45.618Z</time></trkpt><trkpt lat="39.254787" lon="16.7379619"><ele>1053.0</ele><time>2026-03-28T11:27:47.618Z</time></trkpt><trkpt lat="39.2548441" lon="16.7380577"><ele>1053.0</ele><time>2026-03-28T11:27:49.621Z</time></trkpt><trkpt lat="39.2548798" lon="16.7381439"><ele>1051.1666666666667</ele><time>2026-03-28T11:27:54.618Z</time></trkpt><trkpt lat="39.2549366" lon="16.7382567"><ele>1049.3333333333333</ele><time>2026-03-28T11:28:18.615Z</time></trkpt><trkpt lat="39.2549734" lon="16.7383234"><ele>1047.5</ele><time>2026-03-28T11:28:23.616Z</time></trkpt><trkpt lat="39.2549818" lon="16.7384081"><ele>1045.6666666666665</ele><time>2026-03-28T11:28:30.611Z</time></trkpt><trkpt lat="39.2550288" lon="16.7383328"><ele>1043.8333333333333</ele><time>2026-03-28T11:30:05.624Z</time></trkpt><trkpt lat="39.2550976" lon="16.7383083"><ele>1042.0</ele><time>2026-03-28T11:30:09.621Z</time></trkpt><trkpt lat="39.2551542" lon="16.7382344"><ele>1042.0</ele><time>2026-03-28T11:30:14.619Z</time></trkpt><trkpt lat="39.255224" lon="16.7381984"><ele>1042.0</ele><time>2026-03-28T11:30:18.621Z</time></trkpt><trkpt lat="39.2552897" lon="16.7382451"><ele>1042.0</ele><time>2026-03-28T11:30:22.621Z</time></trkpt><trkpt lat="39.2553469" lon="16.7382983"><ele>1042.0</ele><time>2026-03-28T11:30:28.617Z</time></trkpt><trkpt lat="39.2553922" lon="16.738369"><ele>1042.0</ele><time>2026-03-28T11:30:35.621Z</time></trkpt><trkpt lat="39.2554529" lon="16.7384952"><ele>1042.0</ele><time>2026-03-28T11:30:39.615Z</time></trkpt><trkpt lat="39.2554542" lon="16.7385775"><ele>1039.6</ele><time>2026-03-28T11:30:41.619Z</time></trkpt><trkpt lat="39.2554067" lon="16.7386809"><ele>1037.2</ele><time>2026-03-28T11:30:43.621Z</time></trkpt><trkpt lat="39.2553669" lon="16.7387474"><ele>1034.8</ele><time>2026-03-28T11:30:44.616Z</time></trkpt><trkpt lat="39.2553082" lon="16.7388315"><ele>1032.4</ele><time>2026-03-28T11:30:46.619Z</time></trkpt><trkpt lat="39.2552377" lon="16.7389352"><ele>1030.0</ele><time>2026-03-28T11:30:48.61Z</time></trkpt><trkpt lat="39.2551797" lon="16.7390521"><ele>1030.0</ele><time>2026-03-28T11:30:50.613Z</time></trkpt><trkpt lat="39.2551162" lon="16.7391763"><ele>1030.0</ele><time>2026-03-28T11:30:52.623Z</time></trkpt><trkpt lat="39.2550418" lon="16.73933"><ele>1030.0</ele><time>2026-03-28T11:30:54.617Z</time></trkpt><trkpt lat="39.2550028" lon="16.7394079"><ele>1030.0</ele><time>2026-03-28T11:30:55.607Z</time></trkpt><trkpt lat="39.2549665" lon="16.7394747"><ele>1030.0</ele><time>2026-03-28T11:30:56.612Z</time></trkpt><trkpt lat="39.2549044" lon="16.7395777"><ele>1028.6666666666665</ele><time>2026-03-28T11:30:58.608Z</time></trkpt><trkpt lat="39.2548594" lon="16.7396656"><ele>1027.3333333333333</ele><time>2026-03-28T11:31:00.618Z</time></trkpt><trkpt lat="39.2548295" lon="16.7398261"><ele>1026.0</ele><time>2026-03-28T11:31:02.618Z</time></trkpt><trkpt lat="39.254822" lon="16.739915"><ele>1024.6666666666667</ele><time>2026-03-28T11:31:03.609Z</time></trkpt><trkpt lat="39.2548059" lon="16.7400346"><ele>1023.3333333333334</ele><time>2026-03-28T11:31:05.615Z</time></trkpt><trkpt lat="39.2547395" lon="16.7400661"><ele>1022.0</ele><time>2026-03-28T11:31:07.611Z</time></trkpt><trkpt lat="39.2546491" lon="16.7400583"><ele>1022.0000000000001</ele><time>2026-03-28T11:31:09.621Z</time></trkpt><trkpt lat="39.2545856" lon="16.7400519"><ele>1022.0</ele><time>2026-03-28T11:31:11.607Z</time></trkpt><trkpt lat="39.2545145" lon="16.7400447"><ele>1022.0</ele><time>2026-03-28T11:31:13.621Z</time></trkpt><trkpt lat="39.2544263" lon="16.7400425"><ele>1022.0</ele><time>2026-03-28T11:31:15.61Z</time></trkpt><trkpt lat="39.2543325" lon="16.7400237"><ele>1022.0000000000001</ele><time>2026-03-28T11:31:17.614Z</time></trkpt><trkpt lat="39.2542344" lon="16.7400235"><ele>1022.0</ele><time>2026-03-28T11:31:19.617Z</time></trkpt><trkpt lat="39.2541746" lon="16.7400797"><ele>1022.0000000000001</ele><time>2026-03-28T11:31:21.617Z</time></trkpt><trkpt lat="39.2541783" lon="16.7401636"><ele>1022.0</ele><time>2026-03-28T11:31:22.604Z</time></trkpt><trkpt lat="39.2541847" lon="16.7402918"><ele>1022.0</ele><time>2026-03-28T11:31:23.619Z</time></trkpt><trkpt lat="39.2541989" lon="16.7404349"><ele>1022.0</ele><time>2026-03-28T11:31:24.618Z</time></trkpt><trkpt lat="39.2542088" lon="16.7405603"><ele>1022.0000000000001</ele><time>2026-03-28T11:31:25.609Z</time></trkpt><trkpt lat="39.2542039" lon="16.7406458"><ele>1022.0</ele><time>2026-03-28T11:31:26.615Z</time></trkpt><trkpt lat="39.2541905" lon="16.7407344"><ele>1020.6666666666667</ele><time>2026-03-28T11:31:27.621Z</time></trkpt><trkpt lat="39.254164" lon="16.7408116"><ele>1019.3333333333334</ele><time>2026-03-28T11:31:28.613Z</time></trkpt><trkpt lat="39.2541255" lon="16.7408897"><ele>1018.0</ele><time>2026-03-28T11:31:29.61Z</time></trkpt><trkpt lat="39.254065" lon="16.7409463"><ele>1016.6666666666667</ele><time>2026-03-28T11:31:30.616Z</time></trkpt><trkpt lat="39.2539864" lon="16.7410012"><ele>1015.3333333333334</ele><time>2026-03-28T11:31:31.621Z</time></trkpt><trkpt lat="39.2538995" lon="16.7410603"><ele>1014.0</ele><time>2026-03-28T11:31:32.655Z</time></trkpt><trkpt lat="39.2538206" lon="16.7411199"><ele>1014.0</ele><time>2026-03-28T11:31:33.656Z</time></trkpt><trkpt lat="39.2537418" lon="16.7411752"><ele>1014.0</ele><time>2026-03-28T11:31:34.622Z</time></trkpt><trkpt lat="39.2536716" lon="16.7412157"><ele>1014.0</ele><time>2026-03-28T11:31:35.614Z</time></trkpt><trkpt lat="39.2535974" lon="16.7412345"><ele>1014.0</ele><time>2026-03-28T11:31:36.622Z</time></trkpt><trkpt lat="39.2535301" lon="16.7412343"><ele>1014.0</ele><time>2026-03-28T11:31:37.612Z</time></trkpt><trkpt lat="39.2534224" lon="16.7412566"><ele>1014.0</ele><time>2026-03-28T11:31:39.696Z</time></trkpt><trkpt lat="39.2533127" lon="16.7412962"><ele>1014.0</ele><time>2026-03-28T11:31:41.618Z</time></trkpt><trkpt lat="39.2532449" lon="16.7413265"><ele>1014.0</ele><time>2026-03-28T11:31:44.643Z</time></trkpt><trkpt lat="39.2532652" lon="16.7414129"><ele>1014.0</ele><time>2026-03-28T11:31:46.64Z</time></trkpt><trkpt lat="39.2533162" lon="16.7414654"><ele>1014.0</ele><time>2026-03-28T11:31:48.623Z</time></trkpt><trkpt lat="39.2533895" lon="16.7415249"><ele>1014.0</ele><time>2026-03-28T11:31:50.62Z</time></trkpt><trkpt lat="39.2534696" lon="16.7416692"><ele>1014.0</ele><time>2026-03-28T11:31:52.62Z</time></trkpt><trkpt lat="39.25354" lon="16.7417223"><ele>1014.0</ele><time>2026-03-28T11:31:53.634Z</time></trkpt><trkpt lat="39.2536253" lon="16.7417771"><ele>1014.0000000000001</ele><time>2026-03-28T11:31:54.648Z</time></trkpt><trkpt lat="39.2537219" lon="16.7418271"><ele>1014.0000000000001</ele><time>2026-03-28T11:31:55.631Z</time></trkpt><trkpt lat="39.253817" lon="16.7418848"><ele>1014.0</ele><time>2026-03-28T11:31:56.627Z</time></trkpt><trkpt lat="39.2539057" lon="16.741949"><ele>1014.0</ele><time>2026-03-28T11:31:57.638Z</time></trkpt><trkpt lat="39.253998" lon="16.7420435"><ele>1009.4000000000001</ele><time>2026-03-28T11:31:58.613Z</time></trkpt><trkpt lat="39.2540944" lon="16.7421571"><ele>1004.8000000000001</ele><time>2026-03-28T11:31:59.61Z</time></trkpt><trkpt lat="39.2541801" lon="16.7422723"><ele>1000.1999999999999</ele><time>2026-03-28T11:32:00.627Z</time></trkpt><trkpt lat="39.254243" lon="16.7423655"><ele>995.5999999999999</ele><time>2026-03-28T11:32:01.612Z</time></trkpt><trkpt lat="39.254278" lon="16.7424734"><ele>991.0</ele><time>2026-03-28T11:32:02.618Z</time></trkpt><trkpt lat="39.2542805" lon="16.7425951"><ele>990.9999999999999</ele><time>2026-03-28T11:32:03.61Z</time></trkpt><trkpt lat="39.2542823" lon="16.7427133"><ele>991.0</ele><time>2026-03-28T11:32:04.622Z</time></trkpt><trkpt lat="39.2542482" lon="16.742804"><ele>991.0</ele><time>2026-03-28T11:32:05.62Z</time></trkpt><trkpt lat="39.2541971" lon="16.7428817"><ele>991.0</ele><time>2026-03-28T11:32:06.604Z</time></trkpt><trkpt lat="39.2541452" lon="16.7429657"><ele>990.9999999999999</ele><time>2026-03-28T11:32:07.612Z</time></trkpt><trkpt lat="39.2541069" lon="16.7430537"><ele>991.0</ele><time>2026-03-28T11:32:08.62Z</time></trkpt><trkpt lat="39.2540665" lon="16.7431365"><ele>989.9999999999999</ele><time>2026-03-28T11:32:09.629Z</time></trkpt><trkpt lat="39.2540245" lon="16.743217"><ele>989.0</ele><time>2026-03-28T11:32:10.618Z</time></trkpt><trkpt lat="39.253981" lon="16.743279"><ele>988.0</ele><time>2026-03-28T11:32:11.607Z</time></trkpt><trkpt lat="39.2539393" lon="16.7433911"><ele>987.0</ele><time>2026-03-28T11:32:13.622Z</time></trkpt><trkpt lat="39.2539256" lon="16.7434756"><ele>985.9999999999999</ele><time>2026-03-28T11:32:15.616Z</time></trkpt><trkpt lat="39.2539354" lon="16.7435658"><ele>985.0</ele><time>2026-03-28T11:32:18.619Z</time></trkpt><trkpt lat="39.253989" lon="16.7436359"><ele>983.9999999999999</ele><time>2026-03-28T11:32:26.633Z</time></trkpt><trkpt lat="39.2540581" lon="16.7436726"><ele>983.0</ele><time>2026-03-28T11:32:33.624Z</time></trkpt><trkpt lat="39.2541297" lon="16.7436816"><ele>982.0</ele><time>2026-03-28T11:32:39.622Z</time></trkpt><trkpt lat="39.2541963" lon="16.7437066"><ele>981.0</ele><time>2026-03-28T11:32:44.623Z</time></trkpt><trkpt lat="39.2541985" lon="16.7438175"><ele>979.9999999999999</ele><time>2026-03-28T11:32:50.623Z</time></trkpt><trkpt lat="39.254175" lon="16.7439279"><ele>979.0</ele><time>2026-03-28T11:32:53.609Z</time></trkpt><trkpt lat="39.2541796" lon="16.7440234"><ele>978.9999999999999</ele><time>2026-03-28T11:32:55.619Z</time></trkpt><trkpt lat="39.2541621" lon="16.7441379"><ele>979.0</ele><time>2026-03-28T11:32:58.622Z</time></trkpt><trkpt lat="39.2541954" lon="16.7442515"><ele>979.0</ele><time>2026-03-28T11:33:00.618Z</time></trkpt><trkpt lat="39.2542137" lon="16.7443538"><ele>979.0</ele><time>2026-03-28T11:33:02.615Z</time></trkpt><trkpt lat="39.2542345" lon="16.744431"><ele>978.9999999999999</ele><time>2026-03-28T11:33:05.627Z</time></trkpt><trkpt lat="39.2543065" lon="16.7444355"><ele>979.0</ele><time>2026-03-28T11:33:09.64Z</time></trkpt><trkpt lat="39.2543545" lon="16.7445255"><ele>977.9999999999999</ele><time>2026-03-28T11:33:12.624Z</time></trkpt><trkpt lat="39.2543897" lon="16.7446279"><ele>977.0</ele><time>2026-03-28T11:33:15.621Z</time></trkpt><trkpt lat="39.2544516" lon="16.7446896"><ele>976.0</ele><time>2026-03-28T11:33:18.617Z</time></trkpt><trkpt lat="39.2544582" lon="16.744779"><ele>975.0</ele><time>2026-03-28T11:33:34.629Z</time></trkpt><trkpt lat="39.2544739" lon="16.7448869"><ele>973.9999999999999</ele><time>2026-03-28T11:33:38.634Z</time></trkpt><trkpt lat="39.2545159" lon="16.7450278"><ele>973.0</ele><time>2026-03-28T11:33:40.624Z</time></trkpt><trkpt lat="39.2545718" lon="16.7451623"><ele>972.2857142857142</ele><time>2026-03-28T11:33:42.619Z</time></trkpt><trkpt lat="39.2546196" lon="16.7452247"><ele>971.5714285714286</ele><time>2026-03-28T11:33:43.615Z</time></trkpt><trkpt lat="39.2546684" lon="16.7452868"><ele>970.8571428571429</ele><time>2026-03-28T11:33:44.614Z</time></trkpt><trkpt lat="39.2547262" lon="16.7453461"><ele>970.1428571428571</ele><time>2026-03-28T11:33:45.607Z</time></trkpt><trkpt lat="39.2547899" lon="16.7453993"><ele>969.4285714285713</ele><time>2026-03-28T11:33:46.617Z</time></trkpt><trkpt lat="39.2548573" lon="16.7454564"><ele>968.7142857142857</ele><time>2026-03-28T11:33:47.619Z</time></trkpt><trkpt lat="39.2549194" lon="16.7455134"><ele>968.0</ele><time>2026-03-28T11:33:48.63Z</time></trkpt><trkpt lat="39.2549731" lon="16.7455586"><ele>969.8</ele><time>2026-03-28T11:33:49.623Z</time></trkpt><trkpt lat="39.2550702" lon="16.745644"><ele>971.5999999999999</ele><time>2026-03-28T11:33:51.615Z</time></trkpt><trkpt lat="39.2551433" lon="16.7457484"><ele>973.4000000000001</ele><time>2026-03-28T11:33:53.621Z</time></trkpt><trkpt lat="39.2551342" lon="16.7459032"><ele>975.2</ele><time>2026-03-28T11:33:55.618Z</time></trkpt><trkpt lat="39.2551234" lon="16.7459927"><ele>977.0</ele><time>2026-03-28T11:33:56.629Z</time></trkpt><trkpt lat="39.2551074" lon="16.7460914"><ele>977.0000000000001</ele><time>2026-03-28T11:33:57.615Z</time></trkpt><trkpt lat="39.2550921" lon="16.7461843"><ele>977.0</ele><time>2026-03-28T11:33:58.617Z</time></trkpt><trkpt lat="39.2550847" lon="16.746268"><ele>977.0</ele><time>2026-03-28T11:33:59.62Z</time></trkpt><trkpt lat="39.2550838" lon="16.7464148"><ele>977.0</ele><time>2026-03-28T11:34:01.615Z</time></trkpt><trkpt lat="39.255073" lon="16.7465414"><ele>977.0000000000001</ele><time>2026-03-28T11:34:03.623Z</time></trkpt><trkpt lat="39.2550581" lon="16.7466323"><ele>977.0</ele><time>2026-03-28T11:34:05.623Z</time></trkpt><trkpt lat="39.2550385" lon="16.7467238"><ele>977.0000000000001</ele><time>2026-03-28T11:34:08.618Z</time></trkpt><trkpt lat="39.2550324" lon="16.7468087"><ele>977.0</ele><time>2026-03-28T11:34:14.622Z</time></trkpt><trkpt lat="39.2550306" lon="16.7469059"><ele>977.0</ele><time>2026-03-28T11:34:17.624Z</time></trkpt><trkpt lat="39.2550264" lon="16.7469938"><ele>977.0</ele><time>2026-03-28T11:34:20.624Z</time></trkpt><trkpt lat="39.2550006" lon="16.7471508"><ele>977.0000000000001</ele><time>2026-03-28T11:34:34.622Z</time></trkpt><trkpt lat="39.2549717" lon="16.7472501"><ele>977.0</ele><time>2026-03-28T11:34:35.632Z</time></trkpt><trkpt lat="39.2549524" lon="16.7473487"><ele>977.0</ele><time>2026-03-28T11:34:36.643Z</time></trkpt><trkpt lat="39.2549576" lon="16.7474667"><ele>977.0</ele><time>2026-03-28T11:34:37.608Z</time></trkpt><trkpt lat="39.2549753" lon="16.7476041"><ele>977.0</ele><time>2026-03-28T11:34:38.612Z</time></trkpt><trkpt lat="39.2549878" lon="16.7477659"><ele>977.0</ele><time>2026-03-28T11:34:39.618Z</time></trkpt><trkpt lat="39.2550016" lon="16.7479359"><ele>977.2</ele><time>2026-03-28T11:34:40.623Z</time></trkpt><trkpt lat="39.2550172" lon="16.7480949"><ele>977.4000000000001</ele><time>2026-03-28T11:34:41.618Z</time></trkpt><trkpt lat="39.2550279" lon="16.7482296"><ele>977.5999999999999</ele><time>2026-03-28T11:34:42.611Z</time></trkpt><trkpt lat="39.2550329" lon="16.7483398"><ele>977.8</ele><time>2026-03-28T11:34:43.616Z</time></trkpt><trkpt lat="39.255041" lon="16.7484266"><ele>978.0</ele><time>2026-03-28T11:34:44.61Z</time></trkpt><trkpt lat="39.2550614" lon="16.7485707"><ele>978.0</ele><time>2026-03-28T11:34:46.608Z</time></trkpt><trkpt lat="39.2550794" lon="16.7487221"><ele>978.0</ele><time>2026-03-28T11:34:48.607Z</time></trkpt><trkpt lat="39.255093" lon="16.7488127"><ele>978.0</ele><time>2026-03-28T11:34:49.611Z</time></trkpt><trkpt lat="39.2551171" lon="16.7489627"><ele>978.0</ele><time>2026-03-28T11:34:51.618Z</time></trkpt><trkpt lat="39.2551456" lon="16.7491241"><ele>978.0</ele><time>2026-03-28T11:34:53.619Z</time></trkpt><trkpt lat="39.2551869" lon="16.7492089"><ele>978.0</ele><time>2026-03-28T11:34:54.624Z</time></trkpt><trkpt lat="39.2552312" lon="16.749286"><ele>978.0</ele><time>2026-03-28T11:34:55.615Z</time></trkpt><trkpt lat="39.2552736" lon="16.7493566"><ele>978.0</ele><time>2026-03-28T11:34:56.609Z</time></trkpt><trkpt lat="39.2553221" lon="16.7494204"><ele>978.0</ele><time>2026-03-28T11:34:57.618Z</time></trkpt><trkpt lat="39.2554165" lon="16.7495334"><ele>978.0</ele><time>2026-03-28T11:34:59.608Z</time></trkpt><trkpt lat="39.2554729" lon="16.7496457"><ele>978.0</ele><time>2026-03-28T11:35:01.625Z</time></trkpt><trkpt lat="39.2555382" lon="16.7497321"><ele>978.2857142857143</ele><time>2026-03-28T11:35:03.618Z</time></trkpt><trkpt lat="39.2555841" lon="16.7498226"><ele>978.5714285714287</ele><time>2026-03-28T11:35:05.617Z</time></trkpt><trkpt lat="39.2556087" lon="16.7499112"><ele>978.8571428571429</ele><time>2026-03-28T11:35:07.621Z</time></trkpt><trkpt lat="39.2556001" lon="16.7500285"><ele>979.1428571428571</ele><time>2026-03-28T11:35:09.609Z</time></trkpt><trkpt lat="39.2555897" lon="16.7501122"><ele>979.4285714285714</ele><time>2026-03-28T11:35:10.624Z</time></trkpt><trkpt lat="39.255586" lon="16.7501949"><ele>979.7142857142858</ele><time>2026-03-28T11:35:11.612Z</time></trkpt><trkpt lat="39.255584" lon="16.7502762"><ele>980.0</ele><time>2026-03-28T11:35:12.612Z</time></trkpt><trkpt lat="39.2555904" lon="16.7503585"><ele>980.0</ele><time>2026-03-28T11:35:13.611Z</time></trkpt><trkpt lat="39.2555898" lon="16.7505005"><ele>980.0</ele><time>2026-03-28T11:35:15.622Z</time></trkpt><trkpt lat="39.2555822" lon="16.7506145"><ele>980.0</ele><time>2026-03-28T11:35:17.609Z</time></trkpt><trkpt lat="39.2555844" lon="16.7507572"><ele>980.0</ele><time>2026-03-28T11:35:19.619Z</time></trkpt><trkpt lat="39.255611" lon="16.7509172"><ele>980.0</ele><time>2026-03-28T11:35:21.618Z</time></trkpt><trkpt lat="39.2556352" lon="16.751002"><ele>979.4285714285714</ele><time>2026-03-28T11:35:22.613Z</time></trkpt><trkpt lat="39.25565" lon="16.7510844"><ele>978.8571428571429</ele><time>2026-03-28T11:35:23.618Z</time></trkpt><trkpt lat="39.2556558" lon="16.7512012"><ele>978.2857142857142</ele><time>2026-03-28T11:35:25.625Z</time></trkpt><trkpt lat="39.2556602" lon="16.7512982"><ele>977.7142857142857</ele><time>2026-03-28T11:35:28.611Z</time></trkpt><trkpt lat="39.2556546" lon="16.7513956"><ele>977.1428571428571</ele><time>2026-03-28T11:35:31.611Z</time></trkpt><trkpt lat="39.2556264" lon="16.751469"><ele>976.5714285714284</ele><time>2026-03-28T11:35:33.617Z</time></trkpt><trkpt lat="39.2555701" lon="16.7515349"><ele>975.9999999999999</ele><time>2026-03-28T11:35:35.612Z</time></trkpt><trkpt lat="39.2555039" lon="16.751576"><ele>975.9999999999999</ele><time>2026-03-28T11:35:37.61Z</time></trkpt><trkpt lat="39.2554358" lon="16.7516099"><ele>976.0</ele><time>2026-03-28T11:35:40.625Z</time></trkpt><trkpt lat="39.2553695" lon="16.7516595"><ele>976.0</ele><time>2026-03-28T11:35:47.624Z</time></trkpt><trkpt lat="39.2553167" lon="16.7517225"><ele>976.0</ele><time>2026-03-28T11:35:53.608Z</time></trkpt><trkpt lat="39.2552456" lon="16.751781"><ele>975.9999999999999</ele><time>2026-03-28T11:36:00.626Z</time></trkpt><trkpt lat="39.2551851" lon="16.7518088"><ele>976.0</ele><time>2026-03-28T11:36:03.62Z</time></trkpt><trkpt lat="39.2551152" lon="16.7518601"><ele>974.8571428571427</ele><time>2026-03-28T11:36:06.625Z</time></trkpt><trkpt lat="39.2550563" lon="16.7518981"><ele>973.7142857142857</ele><time>2026-03-28T11:36:08.611Z</time></trkpt><trkpt lat="39.2549951" lon="16.7519187"><ele>972.5714285714284</ele><time>2026-03-28T11:36:11.618Z</time></trkpt><trkpt lat="39.2549289" lon="16.7519434"><ele>971.4285714285713</ele><time>2026-03-28T11:36:17.617Z</time></trkpt><trkpt lat="39.2548706" lon="16.7520002"><ele>970.2857142857142</ele><time>2026-03-28T11:36:23.606Z</time></trkpt><trkpt lat="39.2548296" lon="16.7520811"><ele>969.1428571428571</ele><time>2026-03-28T11:36:29.603Z</time></trkpt><trkpt lat="39.2548383" lon="16.7521784"><ele>968.0</ele><time>2026-03-28T11:36:32.62Z</time></trkpt><trkpt lat="39.2548263" lon="16.7522732"><ele>964.8333333333334</ele><time>2026-03-28T11:36:35.608Z</time></trkpt><trkpt lat="39.2547778" lon="16.752363"><ele>961.6666666666667</ele><time>2026-03-28T11:36:38.611Z</time></trkpt><trkpt lat="39.2547331" lon="16.7524455"><ele>958.5</ele><time>2026-03-28T11:36:41.613Z</time></trkpt><trkpt lat="39.2547032" lon="16.752523"><ele>955.3333333333333</ele><time>2026-03-28T11:36:44.617Z</time></trkpt><trkpt lat="39.2546709" lon="16.7526145"><ele>952.1666666666666</ele><time>2026-03-28T11:36:47.618Z</time></trkpt><trkpt lat="39.2546102" lon="16.7526865"><ele>949.0</ele><time>2026-03-28T11:36:50.622Z</time></trkpt><trkpt lat="39.2545446" lon="16.7527519"><ele>947.6666666666666</ele><time>2026-03-28T11:36:53.627Z</time></trkpt><trkpt lat="39.2544738" lon="16.7527554"><ele>946.3333333333333</ele><time>2026-03-28T11:36:55.611Z</time></trkpt><trkpt lat="39.2543869" lon="16.7527501"><ele>945.0</ele><time>2026-03-28T11:36:58.616Z</time></trkpt><trkpt lat="39.2543504" lon="16.7528466"><ele>943.6666666666667</ele><time>2026-03-28T11:37:02.609Z</time></trkpt><trkpt lat="39.254387" lon="16.7529364"><ele>942.3333333333334</ele><time>2026-03-28T11:37:04.62Z</time></trkpt><trkpt lat="39.2544229" lon="16.7530085"><ele>941.0</ele><time>2026-03-28T11:37:07.62Z</time></trkpt><trkpt lat="39.2544548" lon="16.7530802"><ele>941.0000000000001</ele><time>2026-03-28T11:37:10.621Z</time></trkpt><trkpt lat="39.2544772" lon="16.7531824"><ele>941.0</ele><time>2026-03-28T11:37:13.615Z</time></trkpt><trkpt lat="39.2544238" lon="16.7532315"><ele>941.0</ele><time>2026-03-28T11:37:16.617Z</time></trkpt><trkpt lat="39.2543614" lon="16.7532128"><ele>941.0</ele><time>2026-03-28T11:37:18.617Z</time></trkpt><trkpt lat="39.254287" lon="16.7531619"><ele>941.0000000000001</ele><time>2026-03-28T11:37:20.62Z</time></trkpt><trkpt lat="39.2542101" lon="16.7530913"><ele>941.0</ele><time>2026-03-28T11:37:22.615Z</time></trkpt><trkpt lat="39.2541376" lon="16.7530174"><ele>941.0000000000001</ele><time>2026-03-28T11:37:24.624Z</time></trkpt><trkpt lat="39.2540671" lon="16.75296"><ele>941.0</ele><time>2026-03-28T11:37:26.623Z</time></trkpt><trkpt lat="39.2540047" lon="16.7529156"><ele>941.0</ele><time>2026-03-28T11:37:28.619Z</time></trkpt><trkpt lat="39.2539426" lon="16.7528749"><ele>941.0</ele><time>2026-03-28T11:37:30.623Z</time></trkpt><trkpt lat="39.2538644" lon="16.7528248"><ele>941.0000000000001</ele><time>2026-03-28T11:37:32.608Z</time></trkpt><trkpt lat="39.2537896" lon="16.752817"><ele>941.0</ele><time>2026-03-28T11:37:34.615Z</time></trkpt><trkpt lat="39.2537194" lon="16.7528549"><ele>939.0000000000001</ele><time>2026-03-28T11:37:36.621Z</time></trkpt><trkpt lat="39.253651" lon="16.7528996"><ele>937.0</ele><time>2026-03-28T11:37:38.61Z</time></trkpt><trkpt lat="39.2535924" lon="16.7529393"><ele>935.0</ele><time>2026-03-28T11:37:41.615Z</time></trkpt><trkpt lat="39.2535363" lon="16.7529821"><ele>933.0</ele><time>2026-03-28T11:37:49.643Z</time></trkpt><trkpt lat="39.2534794" lon="16.7530555"><ele>931.0000000000001</ele><time>2026-03-28T11:37:52.618Z</time></trkpt><trkpt lat="39.2534318" lon="16.7531304"><ele>929.0</ele><time>2026-03-28T11:37:54.626Z</time></trkpt><trkpt lat="39.2534668" lon="16.7532554"><ele>929.0000000000001</ele><time>2026-03-28T11:37:57.626Z</time></trkpt><trkpt lat="39.2535096" lon="16.7533301"><ele>929.0</ele><time>2026-03-28T11:37:58.62Z</time></trkpt><trkpt lat="39.2535537" lon="16.7534049"><ele>929.0</ele><time>2026-03-28T11:37:59.608Z</time></trkpt><trkpt lat="39.2535941" lon="16.7534928"><ele>929.0</ele><time>2026-03-28T11:38:00.63Z</time></trkpt><trkpt lat="39.2536367" lon="16.7535873"><ele>929.0000000000001</ele><time>2026-03-28T11:38:01.632Z</time></trkpt><trkpt lat="39.2536708" lon="16.7536905"><ele>929.0</ele><time>2026-03-28T11:38:02.622Z</time></trkpt><trkpt lat="39.2536943" lon="16.7538087"><ele>927.8333333333334</ele><time>2026-03-28T11:38:03.615Z</time></trkpt><trkpt lat="39.2537108" lon="16.7539158"><ele>926.6666666666667</ele><time>2026-03-28T11:38:04.612Z</time></trkpt><trkpt lat="39.2537212" lon="16.7540135"><ele>925.5</ele><time>2026-03-28T11:38:05.613Z</time></trkpt><trkpt lat="39.2537284" lon="16.7541008"><ele>924.3333333333333</ele><time>2026-03-28T11:38:06.616Z</time></trkpt><trkpt lat="39.2537349" lon="16.7542463"><ele>923.1666666666666</ele><time>2026-03-28T11:38:08.615Z</time></trkpt><trkpt lat="39.2537313" lon="16.7543803"><ele>922.0</ele><time>2026-03-28T11:38:10.616Z</time></trkpt><trkpt lat="39.2537132" lon="16.7545161"><ele>920.8333333333333</ele><time>2026-03-28T11:38:12.606Z</time></trkpt><trkpt lat="39.2536955" lon="16.7546459"><ele>919.6666666666666</ele><time>2026-03-28T11:38:14.628Z</time></trkpt><trkpt lat="39.2536896" lon="16.75476"><ele>918.5</ele><time>2026-03-28T11:38:16.614Z</time></trkpt><trkpt lat="39.2536857" lon="16.7548537"><ele>917.3333333333333</ele><time>2026-03-28T11:38:19.62Z</time></trkpt><trkpt lat="39.2536813" lon="16.7549523"><ele>916.1666666666666</ele><time>2026-03-28T11:38:26.616Z</time></trkpt><trkpt lat="39.2536884" lon="16.7550437"><ele>915.0</ele><time>2026-03-28T11:38:29.619Z</time></trkpt><trkpt lat="39.2536593" lon="16.755146"><ele>913.4285714285714</ele><time>2026-03-28T11:38:32.617Z</time></trkpt><trkpt lat="39.2536118" lon="16.7552407"><ele>911.8571428571429</ele><time>2026-03-28T11:38:34.612Z</time></trkpt><trkpt lat="39.2535823" lon="16.7553146"><ele>910.2857142857143</ele><time>2026-03-28T11:38:37.624Z</time></trkpt><trkpt lat="39.2535594" lon="16.7554091"><ele>908.7142857142858</ele><time>2026-03-28T11:38:41.619Z</time></trkpt><trkpt lat="39.2535303" lon="16.7554917"><ele>907.1428571428571</ele><time>2026-03-28T11:38:47.617Z</time></trkpt><trkpt lat="39.253515" lon="16.7555851"><ele>905.5714285714287</ele><time>2026-03-28T11:38:52.613Z</time></trkpt><trkpt lat="39.2534521" lon="16.7555657"><ele>904.0</ele><time>2026-03-28T11:39:01.621Z</time></trkpt><trkpt lat="39.2533898" lon="16.7555362"><ele>903.9999999999999</ele><time>2026-03-28T11:39:06.616Z</time></trkpt><trkpt lat="39.2533161" lon="16.7555058"><ele>904.0</ele><time>2026-03-28T11:39:10.618Z</time></trkpt><trkpt lat="39.2532438" lon="16.7555344"><ele>904.0</ele><time>2026-03-28T11:39:16.611Z</time></trkpt><trkpt lat="39.253191" lon="16.7556007"><ele>904.0</ele><time>2026-03-28T11:39:18.623Z</time></trkpt><trkpt lat="39.2531483" lon="16.7556623"><ele>903.9999999999999</ele><time>2026-03-28T11:39:20.61Z</time></trkpt><trkpt lat="39.2530842" lon="16.7557462"><ele>904.0</ele><time>2026-03-28T11:39:30.625Z</time></trkpt><trkpt lat="39.2529967" lon="16.7558086"><ele>903.3333333333333</ele><time>2026-03-28T11:39:32.612Z</time></trkpt><trkpt lat="39.2529163" lon="16.755812"><ele>902.6666666666666</ele><time>2026-03-28T11:39:34.619Z</time></trkpt><trkpt lat="39.2528533" lon="16.7557895"><ele>902.0</ele><time>2026-03-28T11:39:39.629Z</time></trkpt><trkpt lat="39.2527865" lon="16.7557678"><ele>901.3333333333333</ele><time>2026-03-28T11:39:45.625Z</time></trkpt><trkpt lat="39.252726" lon="16.7558118"><ele>900.6666666666666</ele><time>2026-03-28T11:39:49.613Z</time></trkpt><trkpt lat="39.252673" lon="16.7558758"><ele>900.0</ele><time>2026-03-28T11:39:52.616Z</time></trkpt><trkpt lat="39.2526039" lon="16.7559679"><ele>899.2</ele><time>2026-03-28T11:39:55.622Z</time></trkpt><trkpt lat="39.2525578" lon="16.7560633"><ele>898.4</ele><time>2026-03-28T11:39:57.607Z</time></trkpt><trkpt lat="39.252512" lon="16.7561993"><ele>897.5999999999999</ele><time>2026-03-28T11:39:59.621Z</time></trkpt><trkpt lat="39.2524955" lon="16.7563253"><ele>896.8</ele><time>2026-03-28T11:40:01.63Z</time></trkpt><trkpt lat="39.2525176" lon="16.7564359"><ele>896.0</ele><time>2026-03-28T11:40:03.615Z</time></trkpt><trkpt lat="39.2525675" lon="16.7565477"><ele>896.0</ele><time>2026-03-28T11:40:05.615Z</time></trkpt><trkpt lat="39.2526004" lon="16.7566524"><ele>895.9999999999999</ele><time>2026-03-28T11:40:07.619Z</time></trkpt><trkpt lat="39.2526319" lon="16.7567669"><ele>895.9999999999999</ele><time>2026-03-28T11:40:09.612Z</time></trkpt><trkpt lat="39.2526642" lon="16.7568929"><ele>896.0</ele><time>2026-03-28T11:40:11.615Z</time></trkpt><trkpt lat="39.2526831" lon="16.7570238"><ele>896.0</ele><time>2026-03-28T11:40:13.624Z</time></trkpt><trkpt lat="39.2526835" lon="16.7571399"><ele>895.1666666666667</ele><time>2026-03-28T11:40:15.619Z</time></trkpt><trkpt lat="39.2526536" lon="16.7572408"><ele>894.3333333333334</ele><time>2026-03-28T11:40:17.615Z</time></trkpt><trkpt lat="39.2525985" lon="16.7573335"><ele>893.5</ele><time>2026-03-28T11:40:19.622Z</time></trkpt><trkpt lat="39.252522" lon="16.757419"><ele>892.6666666666667</ele><time>2026-03-28T11:40:21.63Z</time></trkpt><trkpt lat="39.252446" lon="16.7574856"><ele>891.8333333333334</ele><time>2026-03-28T11:40:23.623Z</time></trkpt><trkpt lat="39.2523852" lon="16.7575226"><ele>891.0</ele><time>2026-03-28T11:40:25.618Z</time></trkpt><trkpt lat="39.2523012" lon="16.7575665"><ele>890.1666666666666</ele><time>2026-03-28T11:40:28.622Z</time></trkpt><trkpt lat="39.2522433" lon="16.7576131"><ele>889.3333333333333</ele><time>2026-03-28T11:40:30.62Z</time></trkpt><trkpt lat="39.252191" lon="16.7576607"><ele>888.5</ele><time>2026-03-28T11:40:32.613Z</time></trkpt><trkpt lat="39.2521263" lon="16.7577176"><ele>887.6666666666666</ele><time>2026-03-28T11:40:35.626Z</time></trkpt><trkpt lat="39.2520681" lon="16.757812"><ele>886.8333333333333</ele><time>2026-03-28T11:40:38.613Z</time></trkpt><trkpt lat="39.2520273" lon="16.757891"><ele>886.0</ele><time>2026-03-28T11:40:40.622Z</time></trkpt><trkpt lat="39.2519658" lon="16.7579693"><ele>885.5999999999999</ele><time>2026-03-28T11:40:42.61Z</time></trkpt><trkpt lat="39.2518809" lon="16.7580327"><ele>885.1999999999999</ele><time>2026-03-28T11:40:44.621Z</time></trkpt><trkpt lat="39.2518104" lon="16.7581223"><ele>884.8000000000001</ele><time>2026-03-28T11:40:46.621Z</time></trkpt><trkpt lat="39.2517553" lon="16.758243"><ele>884.4000000000001</ele><time>2026-03-28T11:40:48.611Z</time></trkpt><trkpt lat="39.2517052" lon="16.758336"><ele>884.0</ele><time>2026-03-28T11:40:50.615Z</time></trkpt><trkpt lat="39.2516623" lon="16.7584238"><ele>884.0000000000001</ele><time>2026-03-28T11:40:52.615Z</time></trkpt><trkpt lat="39.2516292" lon="16.7585065"><ele>884.0</ele><time>2026-03-28T11:40:54.621Z</time></trkpt><trkpt lat="39.2515898" lon="16.7585857"><ele>884.0</ele><time>2026-03-28T11:40:56.628Z</time></trkpt><trkpt lat="39.2515603" lon="16.7586749"><ele>884.0</ele><time>2026-03-28T11:40:58.62Z</time></trkpt><trkpt lat="39.2515561" lon="16.7587645"><ele>884.0</ele><time>2026-03-28T11:41:00.617Z</time></trkpt><trkpt lat="39.2515603" lon="16.7588784"><ele>884.0000000000001</ele><time>2026-03-28T11:41:03.621Z</time></trkpt><trkpt lat="39.2515202" lon="16.7589415"><ele>884.0</ele><time>2026-03-28T11:41:06.611Z</time></trkpt><trkpt lat="39.2514823" lon="16.7590224"><ele>882.8333333333334</ele><time>2026-03-28T11:41:09.611Z</time></trkpt><trkpt lat="39.2514333" lon="16.7591273"><ele>881.6666666666667</ele><time>2026-03-28T11:41:12.608Z</time></trkpt><trkpt lat="39.2513912" lon="16.7592174"><ele>880.5</ele><time>2026-03-28T11:41:14.62Z</time></trkpt><trkpt lat="39.2513393" lon="16.7593122"><ele>879.3333333333333</ele><time>2026-03-28T11:41:16.622Z</time></trkpt><trkpt lat="39.2512856" lon="16.7593849"><ele>878.1666666666666</ele><time>2026-03-28T11:41:18.614Z</time></trkpt><trkpt lat="39.2512263" lon="16.7594422"><ele>877.0</ele><time>2026-03-28T11:41:21.62Z</time></trkpt><trkpt lat="39.2511893" lon="16.7595206"><ele>875.1666666666666</ele><time>2026-03-28T11:41:25.62Z</time></trkpt><trkpt lat="39.2511432" lon="16.7595854"><ele>873.3333333333333</ele><time>2026-03-28T11:41:30.622Z</time></trkpt><trkpt lat="39.251081" lon="16.7596571"><ele>871.5</ele><time>2026-03-28T11:41:33.622Z</time></trkpt><trkpt lat="39.2510299" lon="16.7597545"><ele>869.6666666666667</ele><time>2026-03-28T11:41:36.624Z</time></trkpt><trkpt lat="39.2509954" lon="16.7598367"><ele>867.8333333333334</ele><time>2026-03-28T11:41:40.621Z</time></trkpt><trkpt lat="39.2509691" lon="16.7599245"><ele>866.0</ele><time>2026-03-28T11:41:46.623Z</time></trkpt><trkpt lat="39.2509355" lon="16.7600062"><ele>865.9999999999999</ele><time>2026-03-28T11:41:50.619Z</time></trkpt><trkpt lat="39.2509084" lon="16.760087"><ele>866.0</ele><time>2026-03-28T11:41:53.622Z</time></trkpt><trkpt lat="39.2508874" lon="16.7601783"><ele>866.0</ele><time>2026-03-28T11:41:57.617Z</time></trkpt><trkpt lat="39.2508527" lon="16.7602508"><ele>866.0</ele><time>2026-03-28T11:42:03.618Z</time></trkpt><trkpt lat="39.2508263" lon="16.7603368"><ele>866.0</ele><time>2026-03-28T11:42:07.611Z</time></trkpt><trkpt lat="39.250781" lon="16.7604269"><ele>865.9999999999999</ele><time>2026-03-28T11:42:11.613Z</time></trkpt><trkpt lat="39.250717" lon="16.7604864"><ele>866.0</ele><time>2026-03-28T11:42:13.617Z</time></trkpt><trkpt lat="39.2506463" lon="16.7605191"><ele>863.1428571428571</ele><time>2026-03-28T11:42:15.612Z</time></trkpt><trkpt lat="39.2505815" lon="16.7605544"><ele>860.2857142857142</ele><time>2026-03-28T11:42:17.624Z</time></trkpt><trkpt lat="39.2505017" lon="16.7605336"><ele>857.4285714285713</ele><time>2026-03-28T11:42:20.609Z</time></trkpt><trkpt lat="39.250432" lon="16.7605466"><ele>854.5714285714286</ele><time>2026-03-28T11:42:36.626Z</time></trkpt><trkpt lat="39.2503825" lon="16.7605976"><ele>851.7142857142858</ele><time>2026-03-28T11:42:40.616Z</time></trkpt><trkpt lat="39.2503363" lon="16.7606742"><ele>848.8571428571428</ele><time>2026-03-28T11:42:44.641Z</time></trkpt><trkpt lat="39.2503171" lon="16.7607623"><ele>846.0</ele><time>2026-03-28T11:42:48.635Z</time></trkpt><trkpt lat="39.2503017" lon="16.7608615"><ele>846.0</ele><time>2026-03-28T11:42:52.623Z</time></trkpt><trkpt lat="39.2503102" lon="16.7609562"><ele>846.0</ele><time>2026-03-28T11:42:55.628Z</time></trkpt><trkpt lat="39.2503297" lon="16.7610824"><ele>846.0</ele><time>2026-03-28T11:42:58.609Z</time></trkpt><trkpt lat="39.2503298" lon="16.7611854"><ele>846.0</ele><time>2026-03-28T11:43:00.621Z</time></trkpt><trkpt lat="39.2503225" lon="16.7612749"><ele>846.0</ele><time>2026-03-28T11:43:02.606Z</time></trkpt><trkpt lat="39.2503098" lon="16.7613669"><ele>846.0</ele><time>2026-03-28T11:43:04.627Z</time></trkpt><trkpt lat="39.2502974" lon="16.7614659"><ele>844.5714285714286</ele><time>2026-03-28T11:43:06.619Z</time></trkpt><trkpt lat="39.2502903" lon="16.7615572"><ele>843.1428571428572</ele><time>2026-03-28T11:43:08.632Z</time></trkpt><trkpt lat="39.2503176" lon="16.7616698"><ele>841.7142857142858</ele><time>2026-03-28T11:43:11.624Z</time></trkpt><trkpt lat="39.2503321" lon="16.7617495"><ele>840.2857142857142</ele><time>2026-03-28T11:43:13.621Z</time></trkpt><trkpt lat="39.2503305" lon="16.7618395"><ele>838.8571428571429</ele><time>2026-03-28T11:43:15.61Z</time></trkpt><trkpt lat="39.2503259" lon="16.7619403"><ele>837.4285714285714</ele><time>2026-03-28T11:43:17.618Z</time></trkpt><trkpt lat="39.2502956" lon="16.7620176"><ele>836.0</ele><time>2026-03-28T11:43:19.622Z</time></trkpt><trkpt lat="39.2502613" lon="16.7620957"><ele>834.3333333333334</ele><time>2026-03-28T11:43:22.624Z</time></trkpt><trkpt lat="39.2502296" lon="16.7621825"><ele>832.6666666666667</ele><time>2026-03-28T11:43:25.616Z</time></trkpt><trkpt lat="39.2502068" lon="16.7622997"><ele>831.0</ele><time>2026-03-28T11:43:28.614Z</time></trkpt><trkpt lat="39.2501846" lon="16.7623872"><ele>829.3333333333333</ele><time>2026-03-28T11:43:32.614Z</time></trkpt><trkpt lat="39.2501246" lon="16.7624521"><ele>827.6666666666666</ele><time>2026-03-28T11:43:35.613Z</time></trkpt><trkpt lat="39.2500829" lon="16.762526"><ele>826.0</ele><time>2026-03-28T11:43:40.617Z</time></trkpt><trkpt lat="39.2500973" lon="16.7626211"><ele>824.3333333333333</ele><time>2026-03-28T11:43:42.62Z</time></trkpt><trkpt lat="39.2501032" lon="16.7627263"><ele>822.6666666666666</ele><time>2026-03-28T11:43:44.618Z</time></trkpt><trkpt lat="39.2501214" lon="16.7628045"><ele>821.0</ele><time>2026-03-28T11:43:46.618Z</time></trkpt><trkpt lat="39.2500878" lon="16.7629058"><ele>819.3333333333333</ele><time>2026-03-28T11:43:51.621Z</time></trkpt><trkpt lat="39.2500194" lon="16.7629814"><ele>817.6666666666666</ele><time>2026-03-28T11:43:53.61Z</time></trkpt><trkpt lat="39.2499303" lon="16.7630603"><ele>816.0</ele><time>2026-03-28T11:43:55.612Z</time></trkpt><trkpt lat="39.2498408" lon="16.7631335"><ele>816.1666666666666</ele><time>2026-03-28T11:43:57.623Z</time></trkpt><trkpt lat="39.2497791" lon="16.763185"><ele>816.3333333333333</ele><time>2026-03-28T11:44:00.609Z</time></trkpt><trkpt lat="39.2497091" lon="16.7632374"><ele>816.5</ele><time>2026-03-28T11:44:03.623Z</time></trkpt><trkpt lat="39.2496362" lon="16.7632825"><ele>816.6666666666666</ele><time>2026-03-28T11:44:06.618Z</time></trkpt><trkpt lat="39.2495751" lon="16.7633141"><ele>816.8333333333333</ele><time>2026-03-28T11:44:09.607Z</time></trkpt><trkpt lat="39.2495103" lon="16.7633479"><ele>817.0</ele><time>2026-03-28T11:44:13.611Z</time></trkpt><trkpt lat="39.2494356" lon="16.7633802"><ele>817.0</ele><time>2026-03-28T11:44:17.614Z</time></trkpt><trkpt lat="39.24936" lon="16.7634079"><ele>817.0</ele><time>2026-03-28T11:44:20.614Z</time></trkpt><trkpt lat="39.2492313" lon="16.7634655"><ele>817.0</ele><time>2026-03-28T11:44:22.617Z</time></trkpt><trkpt lat="39.2491505" lon="16.7635137"><ele>817.0</ele><time>2026-03-28T11:44:23.623Z</time></trkpt><trkpt lat="39.249081" lon="16.7635899"><ele>817.0</ele><time>2026-03-28T11:44:24.609Z</time></trkpt><trkpt lat="39.2490057" lon="16.7637126"><ele>815.6</ele><time>2026-03-28T11:44:25.619Z</time></trkpt><trkpt lat="39.2489453" lon="16.7638464"><ele>814.2</ele><time>2026-03-28T11:44:26.612Z</time></trkpt><trkpt lat="39.248909" lon="16.7639768"><ele>812.8</ele><time>2026-03-28T11:44:27.613Z</time></trkpt><trkpt lat="39.2489006" lon="16.7640981"><ele>811.4</ele><time>2026-03-28T11:44:28.608Z</time></trkpt><trkpt lat="39.2489169" lon="16.7642081"><ele>810.0</ele><time>2026-03-28T11:44:29.628Z</time></trkpt><trkpt lat="39.2489422" lon="16.7643145"><ele>807.8</ele><time>2026-03-28T11:44:30.623Z</time></trkpt><trkpt lat="39.2489579" lon="16.7644306"><ele>805.6</ele><time>2026-03-28T11:44:31.615Z</time></trkpt><trkpt lat="39.2489554" lon="16.7645495"><ele>803.4000000000001</ele><time>2026-03-28T11:44:32.614Z</time></trkpt><trkpt lat="39.2489514" lon="16.7646665"><ele>801.2</ele><time>2026-03-28T11:44:33.621Z</time></trkpt><trkpt lat="39.2488968" lon="16.7647608"><ele>799.0</ele><time>2026-03-28T11:44:34.621Z</time></trkpt><trkpt lat="39.2488396" lon="16.7648555"><ele>798.9999999999999</ele><time>2026-03-28T11:44:35.61Z</time></trkpt><trkpt lat="39.2487513" lon="16.7648777"><ele>799.0</ele><time>2026-03-28T11:44:36.62Z</time></trkpt><trkpt lat="39.2486682" lon="16.7648895"><ele>799.0</ele><time>2026-03-28T11:44:37.617Z</time></trkpt><trkpt lat="39.2485935" lon="16.7648542"><ele>799.0</ele><time>2026-03-28T11:44:38.617Z</time></trkpt><trkpt lat="39.2485286" lon="16.7648137"><ele>798.9999999999999</ele><time>2026-03-28T11:44:39.609Z</time></trkpt><trkpt lat="39.2484747" lon="16.7647712"><ele>799.0</ele><time>2026-03-28T11:44:40.62Z</time></trkpt><trkpt lat="39.2484197" lon="16.7647306"><ele>799.0</ele><time>2026-03-28T11:44:41.617Z</time></trkpt><trkpt lat="39.2483642" lon="16.7646901"><ele>799.0</ele><time>2026-03-28T11:44:42.618Z</time></trkpt><trkpt lat="39.2483045" lon="16.7646609"><ele>799.0</ele><time>2026-03-28T11:44:43.612Z</time></trkpt><trkpt lat="39.2482369" lon="16.7646414"><ele>799.0</ele><time>2026-03-28T11:44:44.622Z</time></trkpt><trkpt lat="39.2481597" lon="16.7646358"><ele>799.0</ele><time>2026-03-28T11:44:45.619Z</time></trkpt><trkpt lat="39.2480803" lon="16.7646478"><ele>799.0</ele><time>2026-03-28T11:44:46.627Z</time></trkpt><trkpt lat="39.2479998" lon="16.7646679"><ele>799.0</ele><time>2026-03-28T11:44:47.616Z</time></trkpt><trkpt lat="39.2479209" lon="16.7646896"><ele>798.6666666666666</ele><time>2026-03-28T11:44:48.613Z</time></trkpt><trkpt lat="39.2478385" lon="16.7647135"><ele>798.3333333333333</ele><time>2026-03-28T11:44:49.61Z</time></trkpt><trkpt lat="39.2477586" lon="16.7647388"><ele>798.0</ele><time>2026-03-28T11:44:50.618Z</time></trkpt><trkpt lat="39.2476797" lon="16.7647638"><ele>797.6666666666667</ele><time>2026-03-28T11:44:51.616Z</time></trkpt><trkpt lat="39.2475934" lon="16.7647881"><ele>797.3333333333334</ele><time>2026-03-28T11:44:52.617Z</time></trkpt><trkpt lat="39.2475101" lon="16.7648102"><ele>797.0</ele><time>2026-03-28T11:44:53.619Z</time></trkpt><trkpt lat="39.247427" lon="16.7648409"><ele>797.0000000000001</ele><time>2026-03-28T11:44:54.609Z</time></trkpt><trkpt lat="39.247345" lon="16.7648866"><ele>797.0</ele><time>2026-03-28T11:44:55.607Z</time></trkpt><trkpt lat="39.2472695" lon="16.7649468"><ele>797.0</ele><time>2026-03-28T11:44:56.626Z</time></trkpt><trkpt lat="39.247202" lon="16.7650184"><ele>797.0</ele><time>2026-03-28T11:44:57.618Z</time></trkpt><trkpt lat="39.2471399" lon="16.7651025"><ele>797.0000000000001</ele><time>2026-03-28T11:44:58.608Z</time></trkpt><trkpt lat="39.2470851" lon="16.7651971"><ele>797.0</ele><time>2026-03-28T11:44:59.612Z</time></trkpt><trkpt lat="39.2470384" lon="16.7652983"><ele>796.0</ele><time>2026-03-28T11:45:00.617Z</time></trkpt><trkpt lat="39.2470032" lon="16.7654078"><ele>795.0</ele><time>2026-03-28T11:45:01.606Z</time></trkpt><trkpt lat="39.246976" lon="16.7655338"><ele>794.0</ele><time>2026-03-28T11:45:02.626Z</time></trkpt><trkpt lat="39.2469614" lon="16.7656616"><ele>793.0</ele><time>2026-03-28T11:45:03.617Z</time></trkpt><trkpt lat="39.2469528" lon="16.7657829"><ele>792.0</ele><time>2026-03-28T11:45:04.609Z</time></trkpt><trkpt lat="39.2469398" lon="16.7658975"><ele>792.0</ele><time>2026-03-28T11:45:05.632Z</time></trkpt><trkpt lat="39.2469117" lon="16.7660103"><ele>792.0</ele><time>2026-03-28T11:45:06.617Z</time></trkpt><trkpt lat="39.2468709" lon="16.7661174"><ele>792.0</ele><time>2026-03-28T11:45:07.609Z</time></trkpt><trkpt lat="39.2468145" lon="16.766212"><ele>792.0</ele><time>2026-03-28T11:45:08.625Z</time></trkpt><trkpt lat="39.2467434" lon="16.7662869"><ele>792.0</ele><time>2026-03-28T11:45:09.611Z</time></trkpt><trkpt lat="39.2466599" lon="16.7663428"><ele>790.25</ele><time>2026-03-28T11:45:10.606Z</time></trkpt><trkpt lat="39.2465579" lon="16.7664062"><ele>788.5</ele><time>2026-03-28T11:45:11.63Z</time></trkpt><trkpt lat="39.2464589" lon="16.7664781"><ele>786.75</ele><time>2026-03-28T11:45:12.619Z</time></trkpt><trkpt lat="39.2463691" lon="16.7665713"><ele>785.0</ele><time>2026-03-28T11:45:13.609Z</time></trkpt><trkpt lat="39.246298" lon="16.7666877"><ele>783.5</ele><time>2026-03-28T11:45:14.614Z</time></trkpt><trkpt lat="39.2462474" lon="16.766823"><ele>782.0</ele><time>2026-03-28T11:45:15.611Z</time></trkpt><trkpt lat="39.2462128" lon="16.7669684"><ele>780.5</ele><time>2026-03-28T11:45:16.61Z</time></trkpt><trkpt lat="39.2461835" lon="16.7671179"><ele>779.0</ele><time>2026-03-28T11:45:17.621Z</time></trkpt><trkpt lat="39.2461562" lon="16.767264"><ele>777.0</ele><time>2026-03-28T11:45:18.614Z</time></trkpt><trkpt lat="39.2461277" lon="16.767402"><ele>775.0</ele><time>2026-03-28T11:45:19.605Z</time></trkpt><trkpt lat="39.2461028" lon="16.7675332"><ele>773.0</ele><time>2026-03-28T11:45:20.621Z</time></trkpt><trkpt lat="39.2460947" lon="16.7676579"><ele>771.0</ele><time>2026-03-28T11:45:21.613Z</time></trkpt><trkpt lat="39.2461118" lon="16.7677696"><ele>769.0</ele><time>2026-03-28T11:45:22.606Z</time></trkpt><trkpt lat="39.2461528" lon="16.7678592"><ele>768.8333333333333</ele><time>2026-03-28T11:45:23.621Z</time></trkpt><trkpt lat="39.2462134" lon="16.7679221"><ele>768.6666666666666</ele><time>2026-03-28T11:45:24.616Z</time></trkpt><trkpt lat="39.2462846" lon="16.7679529"><ele>768.5</ele><time>2026-03-28T11:45:25.617Z</time></trkpt><trkpt lat="39.246356" lon="16.7679508"><ele>768.3333333333333</ele><time>2026-03-28T11:45:26.615Z</time></trkpt><trkpt lat="39.246423" lon="16.7679162"><ele>768.1666666666666</ele><time>2026-03-28T11:45:27.615Z</time></trkpt><trkpt lat="39.2464821" lon="16.7678542"><ele>768.0</ele><time>2026-03-28T11:45:28.618Z</time></trkpt><trkpt lat="39.2465391" lon="16.7677789"><ele>769.8333333333334</ele><time>2026-03-28T11:45:29.61Z</time></trkpt><trkpt lat="39.2465981" lon="16.7676932"><ele>771.6666666666667</ele><time>2026-03-28T11:45:30.618Z</time></trkpt><trkpt lat="39.2466568" lon="16.767605"><ele>773.5</ele><time>2026-03-28T11:45:31.622Z</time></trkpt><trkpt lat="39.2467116" lon="16.7675232"><ele>775.3333333333334</ele><time>2026-03-28T11:45:32.614Z</time></trkpt><trkpt lat="39.246768" lon="16.7674559"><ele>777.1666666666667</ele><time>2026-03-28T11:45:33.603Z</time></trkpt><trkpt lat="39.2468312" lon="16.7674077"><ele>779.0</ele><time>2026-03-28T11:45:34.616Z</time></trkpt><trkpt lat="39.2469001" lon="16.7673874"><ele>779.0000000000001</ele><time>2026-03-28T11:45:35.636Z</time></trkpt><trkpt lat="39.2469684" lon="16.7673981"><ele>779.0</ele><time>2026-03-28T11:45:36.624Z</time></trkpt><trkpt lat="39.2470203" lon="16.7674505"><ele>779.0</ele><time>2026-03-28T11:45:37.603Z</time></trkpt><trkpt lat="39.2470466" lon="16.7675286"><ele>779.0</ele><time>2026-03-28T11:45:38.611Z</time></trkpt><trkpt lat="39.2470534" lon="16.7676288"><ele>779.0000000000001</ele><time>2026-03-28T11:45:39.618Z</time></trkpt><trkpt lat="39.2470488" lon="16.7677504"><ele>779.0</ele><time>2026-03-28T11:45:40.616Z</time></trkpt><trkpt lat="39.2470393" lon="16.7678902"><ele>776.25</ele><time>2026-03-28T11:45:41.605Z</time></trkpt><trkpt lat="39.2470286" lon="16.7680492"><ele>773.5</ele><time>2026-03-28T11:45:42.614Z</time></trkpt><trkpt lat="39.2470173" lon="16.7682284"><ele>770.75</ele><time>2026-03-28T11:45:43.615Z</time></trkpt><trkpt lat="39.2470039" lon="16.7684042"><ele>768.0</ele><time>2026-03-28T11:45:44.627Z</time></trkpt><trkpt lat="39.2469834" lon="16.7685718"><ele>765.25</ele><time>2026-03-28T11:45:45.607Z</time></trkpt><trkpt lat="39.2469507" lon="16.768726"><ele>762.5</ele><time>2026-03-28T11:45:46.613Z</time></trkpt><trkpt lat="39.2469106" lon="16.7688648"><ele>759.75</ele><time>2026-03-28T11:45:47.624Z</time></trkpt><trkpt lat="39.2468646" lon="16.7689926"><ele>757.0</ele><time>2026-03-28T11:45:48.612Z</time></trkpt><trkpt lat="39.2468136" lon="16.7691158"><ele>757.0</ele><time>2026-03-28T11:45:49.606Z</time></trkpt><trkpt lat="39.2467678" lon="16.769234"><ele>757.0</ele><time>2026-03-28T11:45:50.613Z</time></trkpt><trkpt lat="39.2467391" lon="16.7693468"><ele>757.0</ele><time>2026-03-28T11:45:51.611Z</time></trkpt><trkpt lat="39.2467364" lon="16.7694494"><ele>757.0</ele><time>2026-03-28T11:45:52.625Z</time></trkpt><trkpt lat="39.246761" lon="16.7695295"><ele>757.0</ele><time>2026-03-28T11:45:53.607Z</time></trkpt><trkpt lat="39.2468703" lon="16.7696059"><ele>757.1666666666667</ele><time>2026-03-28T11:45:55.624Z</time></trkpt><trkpt lat="39.2469461" lon="16.7696055"><ele>757.3333333333334</ele><time>2026-03-28T11:45:56.61Z</time></trkpt><trkpt lat="39.2470341" lon="16.7696107"><ele>757.5</ele><time>2026-03-28T11:45:57.622Z</time></trkpt><trkpt lat="39.2471265" lon="16.7696439"><ele>757.6666666666666</ele><time>2026-03-28T11:45:58.623Z</time></trkpt><trkpt lat="39.2472055" lon="16.7697068"><ele>757.8333333333333</ele><time>2026-03-28T11:45:59.62Z</time></trkpt><trkpt lat="39.2472684" lon="16.7697913"><ele>758.0</ele><time>2026-03-28T11:46:00.611Z</time></trkpt><trkpt lat="39.2473381" lon="16.7698714"><ele>758.0</ele><time>2026-03-28T11:46:01.619Z</time></trkpt><trkpt lat="39.24742" lon="16.7699229"><ele>758.0</ele><time>2026-03-28T11:46:02.614Z</time></trkpt><trkpt lat="39.2475103" lon="16.7699383"><ele>758.0</ele><time>2026-03-28T11:46:03.612Z</time></trkpt><trkpt lat="39.2476074" lon="16.7699201"><ele>758.0</ele><time>2026-03-28T11:46:04.622Z</time></trkpt><trkpt lat="39.2477056" lon="16.7698791"><ele>758.0</ele><time>2026-03-28T11:46:05.612Z</time></trkpt><trkpt lat="39.2477973" lon="16.7698265"><ele>758.0</ele><time>2026-03-28T11:46:06.609Z</time></trkpt><trkpt lat="39.2478853" lon="16.7697632"><ele>758.0</ele><time>2026-03-28T11:46:07.614Z</time></trkpt><trkpt lat="39.2479774" lon="16.7696782"><ele>758.0</ele><time>2026-03-28T11:46:08.627Z</time></trkpt><trkpt lat="39.2480597" lon="16.7695772"><ele>758.0</ele><time>2026-03-28T11:46:09.609Z</time></trkpt><trkpt lat="39.2481288" lon="16.769472"><ele>758.0</ele><time>2026-03-28T11:46:10.612Z</time></trkpt><trkpt lat="39.2481887" lon="16.7693687"><ele>757.6666666666666</ele><time>2026-03-28T11:46:11.622Z</time></trkpt><trkpt lat="39.2482467" lon="16.7692744"><ele>757.3333333333333</ele><time>2026-03-28T11:46:12.615Z</time></trkpt><trkpt lat="39.2483083" lon="16.7691968"><ele>757.0</ele><time>2026-03-28T11:46:13.609Z</time></trkpt><trkpt lat="39.2483774" lon="16.7691499"><ele>756.6666666666666</ele><time>2026-03-28T11:46:14.61Z</time></trkpt><trkpt lat="39.2484467" lon="16.7691449"><ele>756.3333333333334</ele><time>2026-03-28T11:46:15.615Z</time></trkpt><trkpt lat="39.2485088" lon="16.7691822"><ele>756.0</ele><time>2026-03-28T11:46:16.614Z</time></trkpt><trkpt lat="39.248552" lon="16.7692593"><ele>754.8333333333334</ele><time>2026-03-28T11:46:17.607Z</time></trkpt><trkpt lat="39.2485709" lon="16.7693623"><ele>753.6666666666666</ele><time>2026-03-28T11:46:18.615Z</time></trkpt><trkpt lat="39.2485833" lon="16.7694903"><ele>752.5</ele><time>2026-03-28T11:46:19.626Z</time></trkpt><trkpt lat="39.2485983" lon="16.7696093"><ele>751.3333333333333</ele><time>2026-03-28T11:46:20.616Z</time></trkpt><trkpt lat="39.2486241" lon="16.7697137"><ele>750.1666666666666</ele><time>2026-03-28T11:46:21.608Z</time></trkpt><trkpt lat="39.2486674" lon="16.7698058"><ele>749.0</ele><time>2026-03-28T11:46:22.619Z</time></trkpt><trkpt lat="39.2487309" lon="16.7698824"><ele>749.0</ele><time>2026-03-28T11:46:23.616Z</time></trkpt><trkpt lat="39.248815" lon="16.7699369"><ele>749.0</ele><time>2026-03-28T11:46:24.608Z</time></trkpt><trkpt lat="39.2489111" lon="16.7699769"><ele>749.0</ele><time>2026-03-28T11:46:25.614Z</time></trkpt><trkpt lat="39.2490126" lon="16.7700158"><ele>749.0</ele><time>2026-03-28T11:46:26.608Z</time></trkpt><trkpt lat="39.2491135" lon="16.7700695"><ele>749.0</ele><time>2026-03-28T11:46:27.62Z</time></trkpt><trkpt lat="39.2491947" lon="16.7701378"><ele>747.0</ele><time>2026-03-28T11:46:28.62Z</time></trkpt><trkpt lat="39.2492478" lon="16.7701971"><ele>745.0</ele><time>2026-03-28T11:46:29.607Z</time></trkpt><trkpt lat="39.2493184" lon="16.7702797"><ele>743.0</ele><time>2026-03-28T11:46:31.615Z</time></trkpt><trkpt lat="39.2493713" lon="16.7703485"><ele>741.0</ele><time>2026-03-28T11:46:34.624Z</time></trkpt><trkpt lat="39.2494167" lon="16.7704188"><ele>739.0</ele><time>2026-03-28T11:46:39.626Z</time></trkpt><trkpt lat="39.2494284" lon="16.7705099"><ele>737.0</ele><time>2026-03-28T11:46:43.612Z</time></trkpt><trkpt lat="39.2494221" lon="16.7705932"><ele>735.0</ele><time>2026-03-28T11:46:45.621Z</time></trkpt><trkpt lat="39.2494107" lon="16.7707182"><ele>735.0</ele><time>2026-03-28T11:46:47.626Z</time></trkpt><trkpt lat="39.2494051" lon="16.7708538"><ele>735.0</ele><time>2026-03-28T11:46:49.611Z</time></trkpt><trkpt lat="39.2494063" lon="16.7709839"><ele>735.0</ele><time>2026-03-28T11:46:51.621Z</time></trkpt><trkpt lat="39.249416" lon="16.7711327"><ele>735.0</ele><time>2026-03-28T11:46:53.608Z</time></trkpt><trkpt lat="39.249399" lon="16.7712825"><ele>735.0</ele><time>2026-03-28T11:46:55.614Z</time></trkpt><trkpt lat="39.2493787" lon="16.7714313"><ele>733.8333333333334</ele><time>2026-03-28T11:46:57.62Z</time></trkpt><trkpt lat="39.2493569" lon="16.7715908"><ele>732.6666666666666</ele><time>2026-03-28T11:46:59.605Z</time></trkpt><trkpt lat="39.2493486" lon="16.7716739"><ele>731.5</ele><time>2026-03-28T11:47:00.616Z</time></trkpt><trkpt lat="39.2493398" lon="16.7717552"><ele>730.3333333333333</ele><time>2026-03-28T11:47:01.61Z</time></trkpt><trkpt lat="39.2493315" lon="16.7718373"><ele>729.1666666666666</ele><time>2026-03-28T11:47:02.612Z</time></trkpt><trkpt lat="39.2493143" lon="16.7719998"><ele>728.0</ele><time>2026-03-28T11:47:04.607Z</time></trkpt><trkpt lat="39.2493002" lon="16.7720849"><ele>727.4</ele><time>2026-03-28T11:47:05.605Z</time></trkpt><trkpt lat="39.2492876" lon="16.7721656"><ele>726.8</ele><time>2026-03-28T11:47:06.615Z</time></trkpt><trkpt lat="39.2492764" lon="16.7722481"><ele>726.2</ele><time>2026-03-28T11:47:07.619Z</time></trkpt><trkpt lat="39.2492615" lon="16.7723931"><ele>725.6</ele><time>2026-03-28T11:47:09.605Z</time></trkpt><trkpt lat="39.2492501" lon="16.7725385"><ele>725.0</ele><time>2026-03-28T11:47:11.612Z</time></trkpt><trkpt lat="39.2492366" lon="16.7726738"><ele>725.0</ele><time>2026-03-28T11:47:13.616Z</time></trkpt><trkpt lat="39.2492267" lon="16.7727852"><ele>725.0</ele><time>2026-03-28T11:47:15.602Z</time></trkpt><trkpt lat="39.2492067" lon="16.7728826"><ele>725.0</ele><time>2026-03-28T11:47:17.619Z</time></trkpt><trkpt lat="39.2491845" lon="16.7729692"><ele>725.0</ele><time>2026-03-28T11:47:19.618Z</time></trkpt><trkpt lat="39.2491623" lon="16.7730506"><ele>725.0</ele><time>2026-03-28T11:47:22.614Z</time></trkpt><trkpt lat="39.2491248" lon="16.7731407"><ele>725.0</ele><time>2026-03-28T11:47:26.607Z</time></trkpt><trkpt lat="39.2490939" lon="16.7732396"><ele>725.0</ele><time>2026-03-28T11:47:29.611Z</time></trkpt><trkpt lat="39.2490732" lon="16.7733335"><ele>725.0</ele><time>2026-03-28T11:47:31.609Z</time></trkpt><trkpt lat="39.2490466" lon="16.7734584"><ele>725.0</ele><time>2026-03-28T11:47:33.603Z</time></trkpt><trkpt lat="39.2489808" lon="16.7735996"><ele>725.0</ele><time>2026-03-28T11:47:35.609Z</time></trkpt><trkpt lat="39.2489319" lon="16.7736906"><ele>725.0</ele><time>2026-03-28T11:47:36.614Z</time></trkpt><trkpt lat="39.2488645" lon="16.7738086"><ele>724.6666666666666</ele><time>2026-03-28T11:47:37.61Z</time></trkpt><trkpt lat="39.2487816" lon="16.7739404"><ele>724.3333333333334</ele><time>2026-03-28T11:47:38.604Z</time></trkpt><trkpt lat="39.2486821" lon="16.7740922"><ele>724.0</ele><time>2026-03-28T11:47:39.611Z</time></trkpt><trkpt lat="39.2485626" lon="16.774267"><ele>721.0</ele><time>2026-03-28T11:47:40.623Z</time></trkpt><trkpt lat="39.2484312" lon="16.7744565"><ele>718.0</ele><time>2026-03-28T11:47:41.61Z</time></trkpt><trkpt lat="39.2482855" lon="16.7746703"><ele>715.0</ele><time>2026-03-28T11:47:42.61Z</time></trkpt><trkpt lat="39.2481418" lon="16.7748803"><ele>714.6666666666667</ele><time>2026-03-28T11:47:43.61Z</time></trkpt><trkpt lat="39.2480123" lon="16.7750602"><ele>714.3333333333334</ele><time>2026-03-28T11:47:44.616Z</time></trkpt><trkpt lat="39.2478881" lon="16.7752273"><ele>714.0</ele><time>2026-03-28T11:47:45.602Z</time></trkpt><trkpt lat="39.2477715" lon="16.7753987"><ele>710.6666666666666</ele><time>2026-03-28T11:47:46.617Z</time></trkpt><trkpt lat="39.2476589" lon="16.7755781"><ele>707.3333333333333</ele><time>2026-03-28T11:47:47.61Z</time></trkpt><trkpt lat="39.2475607" lon="16.7757439"><ele>704.0</ele><time>2026-03-28T11:47:48.605Z</time></trkpt><trkpt lat="39.247472" lon="16.7758948"><ele>701.75</ele><time>2026-03-28T11:47:49.61Z</time></trkpt><trkpt lat="39.24739" lon="16.7760374"><ele>699.5</ele><time>2026-03-28T11:47:50.608Z</time></trkpt><trkpt lat="39.2473173" lon="16.776174"><ele>697.25</ele><time>2026-03-28T11:47:51.603Z</time></trkpt><trkpt lat="39.2472608" lon="16.7763033"><ele>695.0</ele><time>2026-03-28T11:47:52.613Z</time></trkpt><trkpt lat="39.2472157" lon="16.7764147"><ele>693.3333333333333</ele><time>2026-03-28T11:47:53.615Z</time></trkpt><trkpt lat="39.2471829" lon="16.7765072"><ele>691.6666666666666</ele><time>2026-03-28T11:47:54.614Z</time></trkpt><trkpt lat="39.2471519" lon="16.7765947"><ele>690.0</ele><time>2026-03-28T11:47:55.61Z</time></trkpt><trkpt lat="39.2471249" lon="16.7766737"><ele>688.3333333333334</ele><time>2026-03-28T11:47:56.612Z</time></trkpt><trkpt lat="39.2470829" lon="16.7767684"><ele>686.6666666666667</ele><time>2026-03-28T11:47:58.614Z</time></trkpt><trkpt lat="39.2469834" lon="16.7768596"><ele>685.0</ele><time>2026-03-28T11:48:00.607Z</time></trkpt><trkpt lat="39.2468738" lon="16.7769147"><ele>685.0</ele><time>2026-03-28T11:48:01.605Z</time></trkpt><trkpt lat="39.2467555" lon="16.7769721"><ele>685.0</ele><time>2026-03-28T11:48:02.612Z</time></trkpt><trkpt lat="39.2466373" lon="16.7770235"><ele>685.0</ele><time>2026-03-28T11:48:03.615Z</time></trkpt><trkpt lat="39.2465094" lon="16.7770857"><ele>685.0</ele><time>2026-03-28T11:48:04.613Z</time></trkpt><trkpt lat="39.2463905" lon="16.7771521"><ele>683.0</ele><time>2026-03-28T11:48:05.605Z</time></trkpt><trkpt lat="39.2462951" lon="16.7772477"><ele>681.0</ele><time>2026-03-28T11:48:06.617Z</time></trkpt><trkpt lat="39.2462147" lon="16.7773889"><ele>679.0</ele><time>2026-03-28T11:48:07.607Z</time></trkpt><trkpt lat="39.2461425" lon="16.7775677"><ele>677.0</ele><time>2026-03-28T11:48:08.601Z</time></trkpt><trkpt lat="39.2460837" lon="16.7777925"><ele>676.0</ele><time>2026-03-28T11:48:09.615Z</time></trkpt><trkpt lat="39.2460176" lon="16.7780292"><ele>675.0</ele><time>2026-03-28T11:48:10.614Z</time></trkpt><trkpt lat="39.245955" lon="16.778259"><ele>674.0</ele><time>2026-03-28T11:48:11.61Z</time></trkpt><trkpt lat="39.2459005" lon="16.7784759"><ele>673.3333333333333</ele><time>2026-03-28T11:48:12.602Z</time></trkpt><trkpt lat="39.24584" lon="16.778698"><ele>672.6666666666666</ele><time>2026-03-28T11:48:13.607Z</time></trkpt><trkpt lat="39.2457748" lon="16.7789357"><ele>672.0</ele><time>2026-03-28T11:48:14.615Z</time></trkpt><trkpt lat="39.245708" lon="16.7791576"><ele>669.6666666666666</ele><time>2026-03-28T11:48:15.611Z</time></trkpt><trkpt lat="39.2456442" lon="16.7793686"><ele>667.3333333333333</ele><time>2026-03-28T11:48:16.612Z</time></trkpt><trkpt lat="39.2455845" lon="16.7795642"><ele>665.0</ele><time>2026-03-28T11:48:17.612Z</time></trkpt><trkpt lat="39.245535" lon="16.7797381"><ele>665.0</ele><time>2026-03-28T11:48:18.613Z</time></trkpt><trkpt lat="39.2454877" lon="16.7798997"><ele>665.0</ele><time>2026-03-28T11:48:19.6Z</time></trkpt><trkpt lat="39.2454432" lon="16.7800484"><ele>665.0</ele><time>2026-03-28T11:48:20.62Z</time></trkpt><trkpt lat="39.2454047" lon="16.7801851"><ele>665.0</ele><time>2026-03-28T11:48:21.607Z</time></trkpt><trkpt lat="39.2453726" lon="16.7803185"><ele>665.0</ele><time>2026-03-28T11:48:22.614Z</time></trkpt><trkpt lat="39.2453392" lon="16.780446"><ele>665.0</ele><time>2026-03-28T11:48:23.604Z</time></trkpt><trkpt lat="39.2452991" lon="16.7805568"><ele>665.0</ele><time>2026-03-28T11:48:24.607Z</time></trkpt><trkpt lat="39.2452556" lon="16.7806661"><ele>665.0</ele><time>2026-03-28T11:48:25.606Z</time></trkpt><trkpt lat="39.2452139" lon="16.7807803"><ele>665.0</ele><time>2026-03-28T11:48:26.621Z</time></trkpt><trkpt lat="39.245179" lon="16.7808863"><ele>665.0</ele><time>2026-03-28T11:48:27.612Z</time></trkpt><trkpt lat="39.2451512" lon="16.7809787"><ele>665.0</ele><time>2026-03-28T11:48:28.602Z</time></trkpt><trkpt lat="39.2451231" lon="16.7810762"><ele>665.0</ele><time>2026-03-28T11:48:29.606Z</time></trkpt><trkpt lat="39.2450849" lon="16.7812091"><ele>665.0</ele><time>2026-03-28T11:48:30.613Z</time></trkpt><trkpt lat="39.2450416" lon="16.7813479"><ele>665.0</ele><time>2026-03-28T11:48:31.614Z</time></trkpt><trkpt lat="39.2449915" lon="16.7814822"><ele>664.0</ele><time>2026-03-28T11:48:32.608Z</time></trkpt><trkpt lat="39.244921" lon="16.7816206"><ele>663.0</ele><time>2026-03-28T11:48:33.602Z</time></trkpt><trkpt lat="39.2448367" lon="16.7817488"><ele>662.0</ele><time>2026-03-28T11:48:34.611Z</time></trkpt><trkpt lat="39.2447556" lon="16.781864"><ele>661.0</ele><time>2026-03-28T11:48:35.613Z</time></trkpt><trkpt lat="39.2446888" lon="16.7819778"><ele>659.0</ele><time>2026-03-28T11:48:36.605Z</time></trkpt><trkpt lat="39.2446056" lon="16.7820816"><ele>657.0</ele><time>2026-03-28T11:48:37.605Z</time></trkpt><trkpt lat="39.2445382" lon="16.7821891"><ele>655.0</ele><time>2026-03-28T11:48:38.605Z</time></trkpt><trkpt lat="39.2444681" lon="16.7822932"><ele>653.0</ele><time>2026-03-28T11:48:39.607Z</time></trkpt><trkpt lat="39.2444147" lon="16.7823941"><ele>651.0</ele><time>2026-03-28T11:48:40.6Z</time></trkpt><trkpt lat="39.2443697" lon="16.7824891"><ele>651.0</ele><time>2026-03-28T11:48:41.606Z</time></trkpt><trkpt lat="39.2443203" lon="16.7825799"><ele>651.0</ele><time>2026-03-28T11:48:42.617Z</time></trkpt><trkpt lat="39.2442658" lon="16.7826797"><ele>651.0</ele><time>2026-03-28T11:48:43.602Z</time></trkpt><trkpt lat="39.2442131" lon="16.7827763"><ele>651.0</ele><time>2026-03-28T11:48:44.601Z</time></trkpt><trkpt lat="39.244167" lon="16.7828611"><ele>651.0</ele><time>2026-03-28T11:48:45.608Z</time></trkpt><trkpt lat="39.244124" lon="16.7829436"><ele>651.0</ele><time>2026-03-28T11:48:46.611Z</time></trkpt><trkpt lat="39.2440846" lon="16.7830224"><ele>650.5</ele><time>2026-03-28T11:48:47.611Z</time></trkpt><trkpt lat="39.2440311" lon="16.7831231"><ele>650.0</ele><time>2026-03-28T11:48:48.616Z</time></trkpt><trkpt lat="39.2439744" lon="16.7832278"><ele>649.5</ele><time>2026-03-28T11:48:49.602Z</time></trkpt><trkpt lat="39.2439346" lon="16.7833063"><ele>649.0</ele><time>2026-03-28T11:48:50.606Z</time></trkpt><trkpt lat="39.2438767" lon="16.7834167"><ele>648.5</ele><time>2026-03-28T11:48:52.612Z</time></trkpt><trkpt lat="39.2438364" lon="16.783498"><ele>648.0</ele><time>2026-03-28T11:48:54.609Z</time></trkpt><trkpt lat="39.2437563" lon="16.7836956"><ele>646.0</ele><time>2026-03-28T11:48:56.613Z</time></trkpt><trkpt lat="39.2437067" lon="16.7837819"><ele>644.0</ele><time>2026-03-28T11:48:57.625Z</time></trkpt><trkpt lat="39.243653" lon="16.7838467"><ele>642.0</ele><time>2026-03-28T11:48:58.621Z</time></trkpt><trkpt lat="39.243585" lon="16.7838958"><ele>640.0</ele><time>2026-03-28T11:48:59.616Z</time></trkpt><trkpt lat="39.2434974" lon="16.7839522"><ele>638.0</ele><time>2026-03-28T11:49:00.608Z</time></trkpt><trkpt lat="39.2434063" lon="16.7840299"><ele>636.0</ele><time>2026-03-28T11:49:01.618Z</time></trkpt><trkpt lat="39.2433271" lon="16.7841219"><ele>636.0</ele><time>2026-03-28T11:49:02.611Z</time></trkpt><trkpt lat="39.2432624" lon="16.7842205"><ele>636.0</ele><time>2026-03-28T11:49:03.611Z</time></trkpt><trkpt lat="39.2432177" lon="16.7843107"><ele>636.0</ele><time>2026-03-28T11:49:04.61Z</time></trkpt><trkpt lat="39.2431885" lon="16.7844003"><ele>636.0</ele><time>2026-03-28T11:49:05.607Z</time></trkpt><trkpt lat="39.2431616" lon="16.7845069"><ele>636.0</ele><time>2026-03-28T11:49:06.612Z</time></trkpt><trkpt lat="39.243135" lon="16.7846379"><ele>635.0</ele><time>2026-03-28T11:49:07.613Z</time></trkpt><trkpt lat="39.2430988" lon="16.7847727"><ele>634.0</ele><time>2026-03-28T11:49:08.609Z</time></trkpt><trkpt lat="39.2430603" lon="16.7848989"><ele>633.0</ele><time>2026-03-28T11:49:09.615Z</time></trkpt><trkpt lat="39.24303" lon="16.7850129"><ele>632.0</ele><time>2026-03-28T11:49:10.612Z</time></trkpt><trkpt lat="39.2430037" lon="16.7851205"><ele>631.0</ele><time>2026-03-28T11:49:11.602Z</time></trkpt><trkpt lat="39.2429823" lon="16.7852208"><ele>630.6</ele><time>2026-03-28T11:49:12.606Z</time></trkpt><trkpt lat="39.2429662" lon="16.7853064"><ele>630.2</ele><time>2026-03-28T11:49:13.61Z</time></trkpt><trkpt lat="39.2429357" lon="16.7854658"><ele>629.8</ele><time>2026-03-28T11:49:15.608Z</time></trkpt><trkpt lat="39.2429243" lon="16.7855703"><ele>629.4</ele><time>2026-03-28T11:49:16.613Z</time></trkpt><trkpt lat="39.2429019" lon="16.7856894"><ele>629.0</ele><time>2026-03-28T11:49:17.604Z</time></trkpt><trkpt lat="39.2428766" lon="16.7858047"><ele>629.0</ele><time>2026-03-28T11:49:18.605Z</time></trkpt><trkpt lat="39.2428532" lon="16.7859227"><ele>629.0</ele><time>2026-03-28T11:49:19.62Z</time></trkpt><trkpt lat="39.2428294" lon="16.7860451"><ele>629.0</ele><time>2026-03-28T11:49:20.614Z</time></trkpt><trkpt lat="39.2428017" lon="16.7861705"><ele>629.0</ele><time>2026-03-28T11:49:21.613Z</time></trkpt><trkpt lat="39.2427733" lon="16.786298"><ele>629.0</ele><time>2026-03-28T11:49:22.604Z</time></trkpt><trkpt lat="39.2427463" lon="16.7864296"><ele>628.25</ele><time>2026-03-28T11:49:23.6Z</time></trkpt><trkpt lat="39.242714" lon="16.7865836"><ele>627.5</ele><time>2026-03-28T11:49:24.616Z</time></trkpt><trkpt lat="39.2426844" lon="16.786735"><ele>626.75</ele><time>2026-03-28T11:49:25.614Z</time></trkpt><trkpt lat="39.2426511" lon="16.7868906"><ele>626.0</ele><time>2026-03-28T11:49:26.609Z</time></trkpt><trkpt lat="39.2426195" lon="16.7870463"><ele>624.6</ele><time>2026-03-28T11:49:27.616Z</time></trkpt><trkpt lat="39.2425978" lon="16.7871873"><ele>623.2</ele><time>2026-03-28T11:49:28.607Z</time></trkpt><trkpt lat="39.2425862" lon="16.7873047"><ele>621.8</ele><time>2026-03-28T11:49:29.621Z</time></trkpt><trkpt lat="39.2425747" lon="16.7874037"><ele>620.4</ele><time>2026-03-28T11:49:30.611Z</time></trkpt><trkpt lat="39.2425593" lon="16.7875003"><ele>619.0</ele><time>2026-03-28T11:49:31.612Z</time></trkpt><trkpt lat="39.2425308" lon="16.7876303"><ele>616.6666666666667</ele><time>2026-03-28T11:49:32.605Z</time></trkpt><trkpt lat="39.2424747" lon="16.7878024"><ele>614.3333333333334</ele><time>2026-03-28T11:49:33.614Z</time></trkpt><trkpt lat="39.2423961" lon="16.7880041"><ele>612.0</ele><time>2026-03-28T11:49:34.607Z</time></trkpt><trkpt lat="39.2423039" lon="16.7882304"><ele>612.3333333333334</ele><time>2026-03-28T11:49:35.61Z</time></trkpt><trkpt lat="39.2422121" lon="16.7884511"><ele>612.6666666666667</ele><time>2026-03-28T11:49:36.608Z</time></trkpt><trkpt lat="39.2421322" lon="16.7886552"><ele>613.0</ele><time>2026-03-28T11:49:37.609Z</time></trkpt><trkpt lat="39.2420582" lon="16.7888421"><ele>611.5</ele><time>2026-03-28T11:49:38.604Z</time></trkpt><trkpt lat="39.241982" lon="16.789005"><ele>610.0</ele><time>2026-03-28T11:49:39.616Z</time></trkpt><trkpt lat="39.2418999" lon="16.7891433"><ele>608.5</ele><time>2026-03-28T11:49:40.611Z</time></trkpt><trkpt lat="39.2418133" lon="16.7892615"><ele>607.0</ele><time>2026-03-28T11:49:41.605Z</time></trkpt><trkpt lat="39.2417338" lon="16.7893674"><ele>605.1666666666667</ele><time>2026-03-28T11:49:42.62Z</time></trkpt><trkpt lat="39.2416652" lon="16.7894607"><ele>603.3333333333334</ele><time>2026-03-28T11:49:43.612Z</time></trkpt><trkpt lat="39.2416077" lon="16.7895405"><ele>601.5</ele><time>2026-03-28T11:49:44.597Z</time></trkpt><trkpt lat="39.2415615" lon="16.7896144"><ele>599.6666666666666</ele><time>2026-03-28T11:49:45.614Z</time></trkpt><trkpt lat="39.2415215" lon="16.7896839"><ele>597.8333333333333</ele><time>2026-03-28T11:49:46.609Z</time></trkpt><trkpt lat="39.241478" lon="16.789745"><ele>596.0</ele><time>2026-03-28T11:49:47.623Z</time></trkpt><trkpt lat="39.2414331" lon="16.7898038"><ele>594.2</ele><time>2026-03-28T11:49:48.61Z</time></trkpt><trkpt lat="39.2413732" lon="16.7898816"><ele>592.4000000000001</ele><time>2026-03-28T11:49:50.616Z</time></trkpt><trkpt lat="39.2412905" lon="16.7899662"><ele>590.6</ele><time>2026-03-28T11:49:57.616Z</time></trkpt><trkpt lat="39.2411886" lon="16.7900004"><ele>588.8000000000001</ele><time>2026-03-28T11:50:02.611Z</time></trkpt><trkpt lat="39.2411192" lon="16.7900299"><ele>587.0</ele><time>2026-03-28T11:50:04.61Z</time></trkpt><trkpt lat="39.2410413" lon="16.7900984"><ele>586.4</ele><time>2026-03-28T11:50:06.616Z</time></trkpt><trkpt lat="39.2409672" lon="16.7902017"><ele>585.8000000000001</ele><time>2026-03-28T11:50:08.6Z</time></trkpt><trkpt lat="39.2409104" lon="16.7903175"><ele>585.2</ele><time>2026-03-28T11:50:10.614Z</time></trkpt><trkpt lat="39.2408777" lon="16.7904363"><ele>584.6</ele><time>2026-03-28T11:50:12.612Z</time></trkpt><trkpt lat="39.2408415" lon="16.7905508"><ele>584.0</ele><time>2026-03-28T11:50:14.605Z</time></trkpt><trkpt lat="39.2407919" lon="16.790649"><ele>584.0</ele><time>2026-03-28T11:50:16.614Z</time></trkpt><trkpt lat="39.2407511" lon="16.7907755"><ele>584.0</ele><time>2026-03-28T11:50:20.606Z</time></trkpt><trkpt lat="39.2407173" lon="16.7908673"><ele>584.0</ele><time>2026-03-28T11:50:23.616Z</time></trkpt><trkpt lat="39.2407032" lon="16.7909542"><ele>584.0</ele><time>2026-03-28T11:50:25.614Z</time></trkpt><trkpt lat="39.240692" lon="16.791051"><ele>584.0</ele><time>2026-03-28T11:50:27.608Z</time></trkpt><trkpt lat="39.2406686" lon="16.7911499"><ele>584.0</ele><time>2026-03-28T11:50:29.614Z</time></trkpt><trkpt lat="39.24066" lon="16.7912808"><ele>582.6666666666666</ele><time>2026-03-28T11:50:31.604Z</time></trkpt><trkpt lat="39.2406522" lon="16.7913628"><ele>581.3333333333333</ele><time>2026-03-28T11:50:32.604Z</time></trkpt><trkpt lat="39.2406182" lon="16.7914426"><ele>580.0</ele><time>2026-03-28T11:50:33.614Z</time></trkpt><trkpt lat="39.2405805" lon="16.7915166"><ele>578.6666666666666</ele><time>2026-03-28T11:50:34.616Z</time></trkpt><trkpt lat="39.2405417" lon="16.7915921"><ele>577.3333333333334</ele><time>2026-03-28T11:50:35.604Z</time></trkpt><trkpt lat="39.2404748" lon="16.7917198"><ele>576.0</ele><time>2026-03-28T11:50:37.615Z</time></trkpt><trkpt lat="39.2404211" lon="16.7918472"><ele>575.0</ele><time>2026-03-28T11:50:39.608Z</time></trkpt><trkpt lat="39.2403871" lon="16.7919786"><ele>574.0</ele><time>2026-03-28T11:50:41.612Z</time></trkpt><trkpt lat="39.2403445" lon="16.7920639"><ele>573.0</ele><time>2026-03-28T11:50:43.623Z</time></trkpt><trkpt lat="39.2403006" lon="16.7921254"><ele>572.0</ele><time>2026-03-28T11:50:44.607Z</time></trkpt><trkpt lat="39.2402096" lon="16.7922071"><ele>571.0</ele><time>2026-03-28T11:50:46.613Z</time></trkpt><trkpt lat="39.2401676" lon="16.7922974"><ele>570.0</ele><time>2026-03-28T11:50:47.614Z</time></trkpt><trkpt lat="39.2400732" lon="16.792358"><ele>570.0</ele><time>2026-03-28T11:50:49.612Z</time></trkpt><trkpt lat="39.2400153" lon="16.7924035"><ele>570.0</ele><time>2026-03-28T11:50:51.601Z</time></trkpt><trkpt lat="39.2399407" lon="16.7924652"><ele>570.0</ele><time>2026-03-28T11:50:54.608Z</time></trkpt><trkpt lat="39.2398711" lon="16.792535"><ele>570.0</ele><time>2026-03-28T11:50:57.611Z</time></trkpt><trkpt lat="39.239834" lon="16.792607"><ele>570.0</ele><time>2026-03-28T11:50:59.615Z</time></trkpt><trkpt lat="39.2397904" lon="16.7927055"><ele>570.0</ele><time>2026-03-28T11:51:01.616Z</time></trkpt><trkpt lat="39.2397317" lon="16.7927891"><ele>566.0</ele><time>2026-03-28T11:51:03.611Z</time></trkpt><trkpt lat="39.2396369" lon="16.7928596"><ele>562.0</ele><time>2026-03-28T11:51:11.605Z</time></trkpt><trkpt lat="39.2395815" lon="16.792917"><ele>558.0</ele><time>2026-03-28T11:51:12.615Z</time></trkpt><trkpt lat="39.239575" lon="16.7930198"><ele>554.0</ele><time>2026-03-28T11:51:16.613Z</time></trkpt><trkpt lat="39.2395604" lon="16.7931311"><ele>550.0</ele><time>2026-03-28T11:51:18.612Z</time></trkpt><trkpt lat="39.2395122" lon="16.7932283"><ele>546.0</ele><time>2026-03-28T11:51:20.612Z</time></trkpt><trkpt lat="39.2394876" lon="16.7933843"><ele>546.0</ele><time>2026-03-28T11:51:22.62Z</time></trkpt><trkpt lat="39.2394877" lon="16.7934831"><ele>546.0</ele><time>2026-03-28T11:51:23.606Z</time></trkpt><trkpt lat="39.239486" lon="16.7935711"><ele>546.0</ele><time>2026-03-28T11:51:24.619Z</time></trkpt><trkpt lat="39.2394836" lon="16.7937126"><ele>546.0</ele><time>2026-03-28T11:51:26.62Z</time></trkpt><trkpt lat="39.239463" lon="16.7938186"><ele>546.0</ele><time>2026-03-28T11:51:28.626Z</time></trkpt><trkpt lat="39.2394359" lon="16.793929"><ele>546.0</ele><time>2026-03-28T11:51:30.612Z</time></trkpt><trkpt lat="39.2394412" lon="16.7940156"><ele>546.1428571428571</ele><time>2026-03-28T11:51:32.612Z</time></trkpt><trkpt lat="39.2394876" lon="16.794092"><ele>546.2857142857142</ele><time>2026-03-28T11:51:34.611Z</time></trkpt><trkpt lat="39.239562" lon="16.7941449"><ele>546.4285714285714</ele><time>2026-03-28T11:51:36.614Z</time></trkpt><trkpt lat="39.2396249" lon="16.7941505"><ele>546.5714285714286</ele><time>2026-03-28T11:51:38.626Z</time></trkpt><trkpt lat="39.2396905" lon="16.7941423"><ele>546.7142857142857</ele><time>2026-03-28T11:51:40.614Z</time></trkpt><trkpt lat="39.2397535" lon="16.7941306"><ele>546.8571428571429</ele><time>2026-03-28T11:51:42.615Z</time></trkpt><trkpt lat="39.2398297" lon="16.7940844"><ele>547.0</ele><time>2026-03-28T11:51:45.621Z</time></trkpt><trkpt lat="39.2399026" lon="16.7940583"><ele>547.0</ele><time>2026-03-28T11:51:48.612Z</time></trkpt><trkpt lat="39.239935" lon="16.7941644"><ele>547.0</ele><time>2026-03-28T11:51:51.611Z</time></trkpt><trkpt lat="39.2399079" lon="16.7942775"><ele>547.0</ele><time>2026-03-28T11:51:53.615Z</time></trkpt><trkpt lat="39.2398762" lon="16.794383"><ele>547.0</ele><time>2026-03-28T11:51:55.613Z</time></trkpt><trkpt lat="39.2398345" lon="16.7944998"><ele>547.0</ele><time>2026-03-28T11:51:58.674Z</time></trkpt><trkpt lat="39.2398058" lon="16.7946049"><ele>545.4</ele><time>2026-03-28T11:52:00.696Z</time></trkpt><trkpt lat="39.2397698" lon="16.7947649"><ele>543.8000000000001</ele><time>2026-03-28T11:52:02.614Z</time></trkpt><trkpt lat="39.2397616" lon="16.7949153"><ele>542.2</ele><time>2026-03-28T11:52:04.619Z</time></trkpt><trkpt lat="39.2397751" lon="16.7950191"><ele>540.6</ele><time>2026-03-28T11:52:06.616Z</time></trkpt><trkpt lat="39.2397891" lon="16.7951102"><ele>539.0</ele><time>2026-03-28T11:52:08.622Z</time></trkpt><trkpt lat="39.2398016" lon="16.7952417"><ele>537.3333333333333</ele><time>2026-03-28T11:52:10.616Z</time></trkpt><trkpt lat="39.239787" lon="16.7953975"><ele>535.6666666666666</ele><time>2026-03-28T11:52:12.616Z</time></trkpt><trkpt lat="39.2397655" lon="16.7954856"><ele>534.0</ele><time>2026-03-28T11:52:13.624Z</time></trkpt><trkpt lat="39.2397388" lon="16.7956137"><ele>532.3333333333334</ele><time>2026-03-28T11:52:15.609Z</time></trkpt><trkpt lat="39.239747" lon="16.7957187"><ele>530.6666666666667</ele><time>2026-03-28T11:52:17.614Z</time></trkpt><trkpt lat="39.2397192" lon="16.7957946"><ele>529.0</ele><time>2026-03-28T11:52:20.614Z</time></trkpt><trkpt lat="39.2397265" lon="16.7958837"><ele>529.0</ele><time>2026-03-28T11:52:23.634Z</time></trkpt><trkpt lat="39.2397057" lon="16.7959811"><ele>529.0</ele><time>2026-03-28T11:52:27.618Z</time></trkpt><trkpt lat="39.2397055" lon="16.7960773"><ele>529.0</ele><time>2026-03-28T11:52:30.616Z</time></trkpt><trkpt lat="39.2397056" lon="16.7961821"><ele>529.0</ele><time>2026-03-28T11:52:34.618Z</time></trkpt><trkpt lat="39.2397069" lon="16.7962817"><ele>529.0</ele><time>2026-03-28T11:52:37.618Z</time></trkpt><trkpt lat="39.2396814" lon="16.7963714"><ele>529.0</ele><time>2026-03-28T11:53:09.618Z</time></trkpt><trkpt lat="39.2397005" lon="16.7964596"><ele>526.1666666666667</ele><time>2026-03-28T11:53:40.613Z</time></trkpt><trkpt lat="39.2396878" lon="16.7965606"><ele>523.3333333333334</ele><time>2026-03-28T11:54:11.614Z</time></trkpt><trkpt lat="39.2397393" lon="16.7966286"><ele>520.5</ele><time>2026-03-28T11:54:30.633Z</time></trkpt><trkpt lat="39.239799" lon="16.7966949"><ele>517.6666666666666</ele><time>2026-03-28T11:54:38.608Z</time></trkpt><trkpt lat="39.2397965" lon="16.7967862"><ele>514.8333333333333</ele><time>2026-03-28T11:54:47.622Z</time></trkpt><trkpt lat="39.2398095" lon="16.7968754"><ele>512.0</ele><time>2026-03-28T11:55:12.597Z</time></trkpt><trkpt lat="39.2397877" lon="16.7969755"><ele>510.8</ele><time>2026-03-28T11:55:23.601Z</time></trkpt><trkpt lat="39.2397777" lon="16.7970613"><ele>509.6</ele><time>2026-03-28T11:55:25.608Z</time></trkpt><trkpt lat="39.2397615" lon="16.7972083"><ele>508.40000000000003</ele><time>2026-03-28T11:55:27.607Z</time></trkpt><trkpt lat="39.2397444" lon="16.7972891"><ele>507.20000000000005</ele><time>2026-03-28T11:55:28.597Z</time></trkpt><trkpt lat="39.2397076" lon="16.7974313"><ele>506.0</ele><time>2026-03-28T11:55:30.601Z</time></trkpt><trkpt lat="39.2396866" lon="16.7975416"><ele>505.99999999999994</ele><time>2026-03-28T11:55:32.605Z</time></trkpt><trkpt lat="39.2396754" lon="16.7976265"><ele>506.0</ele><time>2026-03-28T11:55:34.599Z</time></trkpt><trkpt lat="39.2396411" lon="16.7977306"><ele>506.0</ele><time>2026-03-28T11:55:37.598Z</time></trkpt><trkpt lat="39.239595" lon="16.7978097"><ele>506.0</ele><time>2026-03-28T11:55:40.6Z</time></trkpt><trkpt lat="39.2395582" lon="16.7978991"><ele>505.99999999999994</ele><time>2026-03-28T11:56:03.607Z</time></trkpt><trkpt lat="39.2394942" lon="16.7979699"><ele>506.0</ele><time>2026-03-28T11:56:26.6Z</time></trkpt><trkpt lat="39.2394513" lon="16.798037"><ele>505.4285714285715</ele><time>2026-03-28T11:56:31.605Z</time></trkpt><trkpt lat="39.2394145" lon="16.7981128"><ele>504.8571428571429</ele><time>2026-03-28T11:56:39.601Z</time></trkpt><trkpt lat="39.2393454" lon="16.7981648"><ele>504.2857142857143</ele><time>2026-03-28T11:56:53.602Z</time></trkpt><trkpt lat="39.2392891" lon="16.7982201"><ele>503.7142857142857</ele><time>2026-03-28T11:57:00.602Z</time></trkpt><trkpt lat="39.2392553" lon="16.7982929"><ele>503.1428571428571</ele><time>2026-03-28T11:57:03.598Z</time></trkpt><trkpt lat="39.239224" lon="16.7983693"><ele>502.5714285714285</ele><time>2026-03-28T11:57:09.599Z</time></trkpt><trkpt lat="39.239202" lon="16.798461"><ele>501.99999999999994</ele><time>2026-03-28T11:57:11.607Z</time></trkpt><trkpt lat="39.2391928" lon="16.7985819"><ele>501.33333333333337</ele><time>2026-03-28T11:57:13.596Z</time></trkpt><trkpt lat="39.2391898" lon="16.7986781"><ele>500.6666666666667</ele><time>2026-03-28T11:57:15.604Z</time></trkpt><trkpt lat="39.2391885" lon="16.7987702"><ele>500.0</ele><time>2026-03-28T11:57:18.599Z</time></trkpt><trkpt lat="39.239203" lon="16.7988649"><ele>499.33333333333337</ele><time>2026-03-28T11:57:24.607Z</time></trkpt><trkpt lat="39.2391913" lon="16.7989674"><ele>498.6666666666667</ele><time>2026-03-28T11:57:30.6Z</time></trkpt><trkpt lat="39.2391678" lon="16.7990545"><ele>498.0</ele><time>2026-03-28T11:57:34.596Z</time></trkpt><trkpt lat="39.2391357" lon="16.7991727"><ele>498.0</ele><time>2026-03-28T11:57:37.6Z</time></trkpt><trkpt lat="39.2391165" lon="16.7992634"><ele>498.0</ele><time>2026-03-28T11:57:39.601Z</time></trkpt><trkpt lat="39.2391119" lon="16.7993471"><ele>498.0</ele><time>2026-03-28T11:57:41.601Z</time></trkpt><trkpt lat="39.2391044" lon="16.7994614"><ele>498.0</ele><time>2026-03-28T11:57:44.611Z</time></trkpt><trkpt lat="39.2391109" lon="16.7995575"><ele>498.0</ele><time>2026-03-28T11:57:46.614Z</time></trkpt><trkpt lat="39.2391283" lon="16.7996753"><ele>498.0</ele><time>2026-03-28T11:57:49.61Z</time></trkpt><trkpt lat="39.2391371" lon="16.7997699"><ele>497.0</ele><time>2026-03-28T11:57:53.603Z</time></trkpt><trkpt lat="39.2391052" lon="16.7998489"><ele>495.99999999999994</ele><time>2026-03-28T11:58:16.612Z</time></trkpt><trkpt lat="39.239029" lon="16.7998771"><ele>495.0</ele><time>2026-03-28T11:58:19.605Z</time></trkpt><trkpt lat="39.23895" lon="16.7998616"><ele>494.0</ele><time>2026-03-28T11:58:21.599Z</time></trkpt><trkpt lat="39.2388863" lon="16.7998791"><ele>492.99999999999994</ele><time>2026-03-28T11:58:23.598Z</time></trkpt><trkpt lat="39.2388223" lon="16.7999188"><ele>492.0</ele><time>2026-03-28T11:58:25.599Z</time></trkpt><trkpt lat="39.2387556" lon="16.7999699"><ele>491.0</ele><time>2026-03-28T11:58:27.598Z</time></trkpt><trkpt lat="39.2386866" lon="16.800024"><ele>489.49999999999994</ele><time>2026-03-28T11:58:29.599Z</time></trkpt><trkpt lat="39.2386092" lon="16.800085"><ele>488.0</ele><time>2026-03-28T11:58:31.6Z</time></trkpt><trkpt lat="39.2385454" lon="16.8001345"><ele>486.5</ele><time>2026-03-28T11:58:33.6Z</time></trkpt><trkpt lat="39.2384759" lon="16.8001983"><ele>485.0</ele><time>2026-03-28T11:58:35.601Z</time></trkpt><trkpt lat="39.2383951" lon="16.8003137"><ele>483.49999999999994</ele><time>2026-03-28T11:58:37.598Z</time></trkpt><trkpt lat="39.2383533" lon="16.8003842"><ele>482.0</ele><time>2026-03-28T11:58:38.598Z</time></trkpt><trkpt lat="39.2383101" lon="16.8004638"><ele>482.0</ele><time>2026-03-28T11:58:39.6Z</time></trkpt><trkpt lat="39.2382564" lon="16.8005635"><ele>482.00000000000006</ele><time>2026-03-28T11:58:40.599Z</time></trkpt><trkpt lat="39.2382032" lon="16.8006606"><ele>482.00000000000006</ele><time>2026-03-28T11:58:41.596Z</time></trkpt><trkpt lat="39.2381628" lon="16.8007272"><ele>482.0</ele><time>2026-03-28T11:58:42.609Z</time></trkpt><trkpt lat="39.2381063" lon="16.8008301"><ele>482.0</ele><time>2026-03-28T11:58:44.598Z</time></trkpt><trkpt lat="39.2380461" lon="16.8009448"><ele>478.8333333333333</ele><time>2026-03-28T11:58:46.597Z</time></trkpt><trkpt lat="39.2380076" lon="16.8010172"><ele>475.66666666666663</ele><time>2026-03-28T11:58:47.598Z</time></trkpt><trkpt lat="39.2379712" lon="16.8011003"><ele>472.5</ele><time>2026-03-28T11:58:48.604Z</time></trkpt><trkpt lat="39.2379373" lon="16.8011936"><ele>469.33333333333337</ele><time>2026-03-28T11:58:49.599Z</time></trkpt><trkpt lat="39.2379066" lon="16.8012894"><ele>466.1666666666667</ele><time>2026-03-28T11:58:50.601Z</time></trkpt><trkpt lat="39.2378811" lon="16.8013858"><ele>463.0</ele><time>2026-03-28T11:58:51.603Z</time></trkpt><trkpt lat="39.2378584" lon="16.8014849"><ele>463.00000000000006</ele><time>2026-03-28T11:58:52.597Z</time></trkpt><trkpt lat="39.2378376" lon="16.8015786"><ele>463.0</ele><time>2026-03-28T11:58:53.598Z</time></trkpt><trkpt lat="39.2378179" lon="16.8016661"><ele>463.0</ele><time>2026-03-28T11:58:54.602Z</time></trkpt><trkpt lat="39.2377987" lon="16.8017479"><ele>463.0</ele><time>2026-03-28T11:58:55.599Z</time></trkpt><trkpt lat="39.2377633" lon="16.8018945"><ele>463.00000000000006</ele><time>2026-03-28T11:58:57.595Z</time></trkpt><trkpt lat="39.237735" lon="16.8020282"><ele>463.0</ele><time>2026-03-28T11:58:59.599Z</time></trkpt><trkpt lat="39.2377376" lon="16.8021715"><ele>461.5</ele><time>2026-03-28T11:59:01.598Z</time></trkpt><trkpt lat="39.2377915" lon="16.8023085"><ele>460.0</ele><time>2026-03-28T11:59:03.602Z</time></trkpt><trkpt lat="39.2378917" lon="16.8024044"><ele>458.5</ele><time>2026-03-28T11:59:05.6Z</time></trkpt><trkpt lat="39.2379877" lon="16.8024359"><ele>457.0</ele><time>2026-03-28T11:59:07.61Z</time></trkpt><trkpt lat="39.2381029" lon="16.8024118"><ele>458.6666666666667</ele><time>2026-03-28T11:59:09.608Z</time></trkpt><trkpt lat="39.2381846" lon="16.8023913"><ele>460.33333333333337</ele><time>2026-03-28T11:59:10.608Z</time></trkpt><trkpt lat="39.2382681" lon="16.80238"><ele>462.0</ele><time>2026-03-28T11:59:11.602Z</time></trkpt><trkpt lat="39.2383485" lon="16.8023756"><ele>463.66666666666663</ele><time>2026-03-28T11:59:12.602Z</time></trkpt><trkpt lat="39.2384332" lon="16.8023775"><ele>465.3333333333333</ele><time>2026-03-28T11:59:13.599Z</time></trkpt><trkpt lat="39.2385151" lon="16.8023859"><ele>467.0</ele><time>2026-03-28T11:59:14.606Z</time></trkpt><trkpt lat="39.2385965" lon="16.8023976"><ele>466.99999999999994</ele><time>2026-03-28T11:59:15.599Z</time></trkpt><trkpt lat="39.2386737" lon="16.8024103"><ele>467.0</ele><time>2026-03-28T11:59:16.599Z</time></trkpt><trkpt lat="39.2387425" lon="16.8024223"><ele>467.0</ele><time>2026-03-28T11:59:17.599Z</time></trkpt><trkpt lat="39.2388558" lon="16.8024497"><ele>467.0</ele><time>2026-03-28T11:59:19.599Z</time></trkpt><trkpt lat="39.2389623" lon="16.8025092"><ele>466.99999999999994</ele><time>2026-03-28T11:59:21.6Z</time></trkpt><trkpt lat="39.239014" lon="16.8025609"><ele>467.0</ele><time>2026-03-28T11:59:22.598Z</time></trkpt><trkpt lat="39.2390586" lon="16.8026296"><ele>467.16666666666663</ele><time>2026-03-28T11:59:23.602Z</time></trkpt><trkpt lat="39.2390978" lon="16.8027097"><ele>467.3333333333333</ele><time>2026-03-28T11:59:24.606Z</time></trkpt><trkpt lat="39.2391269" lon="16.8027982"><ele>467.5</ele><time>2026-03-28T11:59:25.597Z</time></trkpt><trkpt lat="39.2391443" lon="16.8029025"><ele>467.66666666666663</ele><time>2026-03-28T11:59:26.607Z</time></trkpt><trkpt lat="39.2391472" lon="16.8030191"><ele>467.8333333333333</ele><time>2026-03-28T11:59:27.603Z</time></trkpt><trkpt lat="39.2391373" lon="16.8031156"><ele>468.0</ele><time>2026-03-28T11:59:28.606Z</time></trkpt><trkpt lat="39.2390717" lon="16.8032423"><ele>468.0</ele><time>2026-03-28T11:59:30.6Z</time></trkpt><trkpt lat="39.238974" lon="16.8032781"><ele>467.99999999999994</ele><time>2026-03-28T11:59:32.597Z</time></trkpt><trkpt lat="39.2389083" lon="16.8032631"><ele>467.99999999999994</ele><time>2026-03-28T11:59:34.598Z</time></trkpt><trkpt lat="39.2388433" lon="16.8031803"><ele>468.0</ele><time>2026-03-28T11:59:37.601Z</time></trkpt><trkpt lat="39.2387692" lon="16.8030423"><ele>468.0</ele><time>2026-03-28T11:59:39.612Z</time></trkpt><trkpt lat="39.2387319" lon="16.8029661"><ele>465.3333333333333</ele><time>2026-03-28T11:59:40.597Z</time></trkpt><trkpt lat="39.2386868" lon="16.802892"><ele>462.66666666666663</ele><time>2026-03-28T11:59:41.598Z</time></trkpt><trkpt lat="39.238631" lon="16.8028315"><ele>460.0</ele><time>2026-03-28T11:59:42.604Z</time></trkpt><trkpt lat="39.2385729" lon="16.8027716"><ele>457.3333333333333</ele><time>2026-03-28T11:59:43.6Z</time></trkpt><trkpt lat="39.238501" lon="16.8027537"><ele>454.66666666666663</ele><time>2026-03-28T11:59:44.598Z</time></trkpt><trkpt lat="39.2384121" lon="16.8027556"><ele>452.0</ele><time>2026-03-28T11:59:45.601Z</time></trkpt><trkpt lat="39.238327" lon="16.802768"><ele>452.0</ele><time>2026-03-28T11:59:46.605Z</time></trkpt><trkpt lat="39.2382491" lon="16.8028386"><ele>452.00000000000006</ele><time>2026-03-28T11:59:47.606Z</time></trkpt><trkpt lat="39.2381787" lon="16.8029171"><ele>452.00000000000006</ele><time>2026-03-28T11:59:48.598Z</time></trkpt><trkpt lat="39.2381121" lon="16.8029943"><ele>452.0</ele><time>2026-03-28T11:59:49.595Z</time></trkpt><trkpt lat="39.2380335" lon="16.8030552"><ele>452.0</ele><time>2026-03-28T11:59:50.597Z</time></trkpt><trkpt lat="39.237944" lon="16.8030803"><ele>450.49999999999994</ele><time>2026-03-28T11:59:51.599Z</time></trkpt><trkpt lat="39.2378634" lon="16.803067"><ele>449.0</ele><time>2026-03-28T11:59:52.605Z</time></trkpt><trkpt lat="39.237788" lon="16.8030359"><ele>447.5</ele><time>2026-03-28T11:59:53.597Z</time></trkpt><trkpt lat="39.2377191" lon="16.8030003"><ele>446.0</ele><time>2026-03-28T11:59:54.599Z</time></trkpt><trkpt lat="39.2376497" lon="16.8029571"><ele>444.49999999999994</ele><time>2026-03-28T11:59:55.598Z</time></trkpt><trkpt lat="39.2375747" lon="16.8028927"><ele>443.0</ele><time>2026-03-28T11:59:56.595Z</time></trkpt><trkpt lat="39.2375007" lon="16.8028134"><ele>442.99999999999994</ele><time>2026-03-28T11:59:57.599Z</time></trkpt><trkpt lat="39.2374374" lon="16.8027356"><ele>443.0</ele><time>2026-03-28T11:59:58.598Z</time></trkpt><trkpt lat="39.237383" lon="16.8026596"><ele>443.0</ele><time>2026-03-28T11:59:59.597Z</time></trkpt><trkpt lat="39.237329" lon="16.8025796"><ele>443.0</ele><time>2026-03-28T12:00:00.597Z</time></trkpt><trkpt lat="39.237271" lon="16.8024988"><ele>442.99999999999994</ele><time>2026-03-28T12:00:01.597Z</time></trkpt><trkpt lat="39.2372003" lon="16.8024321"><ele>443.0</ele><time>2026-03-28T12:00:02.599Z</time></trkpt><trkpt lat="39.2371105" lon="16.8023871"><ele>443.5</ele><time>2026-03-28T12:00:03.597Z</time></trkpt><trkpt lat="39.2369962" lon="16.8023642"><ele>444.0</ele><time>2026-03-28T12:00:04.607Z</time></trkpt><trkpt lat="39.2368686" lon="16.8023451"><ele>444.5</ele><time>2026-03-28T12:00:05.607Z</time></trkpt><trkpt lat="39.2367513" lon="16.8023136"><ele>445.0</ele><time>2026-03-28T12:00:06.601Z</time></trkpt><trkpt lat="39.2366518" lon="16.8022529"><ele>445.0</ele><time>2026-03-28T12:00:07.601Z</time></trkpt><trkpt lat="39.2365776" lon="16.8021624"><ele>445.0</ele><time>2026-03-28T12:00:08.598Z</time></trkpt><trkpt lat="39.2365286" lon="16.8020495"><ele>445.0</ele><time>2026-03-28T12:00:09.607Z</time></trkpt><trkpt lat="39.2364949" lon="16.8019235"><ele>445.0</ele><time>2026-03-28T12:00:10.599Z</time></trkpt><trkpt lat="39.2364676" lon="16.8018021"><ele>445.0</ele><time>2026-03-28T12:00:11.609Z</time></trkpt><trkpt lat="39.2364439" lon="16.8016896"><ele>444.1666666666667</ele><time>2026-03-28T12:00:12.606Z</time></trkpt><trkpt lat="39.2364175" lon="16.8015867"><ele>443.33333333333337</ele><time>2026-03-28T12:00:13.598Z</time></trkpt><trkpt lat="39.2363802" lon="16.8014955"><ele>442.5</ele><time>2026-03-28T12:00:14.599Z</time></trkpt><trkpt lat="39.2363284" lon="16.8014196"><ele>441.66666666666663</ele><time>2026-03-28T12:00:15.599Z</time></trkpt><trkpt lat="39.2362596" lon="16.8013581"><ele>440.8333333333333</ele><time>2026-03-28T12:00:16.602Z</time></trkpt><trkpt lat="39.2361782" lon="16.801302"><ele>440.0</ele><time>2026-03-28T12:00:17.602Z</time></trkpt><trkpt lat="39.2360834" lon="16.801265"><ele>440.0</ele><time>2026-03-28T12:00:18.599Z</time></trkpt><trkpt lat="39.2359801" lon="16.8012592"><ele>440.0</ele><time>2026-03-28T12:00:19.599Z</time></trkpt><trkpt lat="39.2358773" lon="16.8012568"><ele>440.0</ele><time>2026-03-28T12:00:20.597Z</time></trkpt><trkpt lat="39.2357863" lon="16.8013168"><ele>440.0</ele><time>2026-03-28T12:00:21.592Z</time></trkpt><trkpt lat="39.2357108" lon="16.8014036"><ele>440.0</ele><time>2026-03-28T12:00:22.598Z</time></trkpt><trkpt lat="39.2356396" lon="16.8015135"><ele>438.2</ele><time>2026-03-28T12:00:23.595Z</time></trkpt><trkpt lat="39.2355664" lon="16.8016328"><ele>436.4</ele><time>2026-03-28T12:00:24.596Z</time></trkpt><trkpt lat="39.2354977" lon="16.801744"><ele>434.6</ele><time>2026-03-28T12:00:25.593Z</time></trkpt><trkpt lat="39.235428" lon="16.8018525"><ele>432.8</ele><time>2026-03-28T12:00:26.596Z</time></trkpt><trkpt lat="39.2353578" lon="16.8019581"><ele>431.0</ele><time>2026-03-28T12:00:27.594Z</time></trkpt><trkpt lat="39.2352921" lon="16.8020605"><ele>431.0</ele><time>2026-03-28T12:00:28.594Z</time></trkpt><trkpt lat="39.2352304" lon="16.8021604"><ele>431.0</ele><time>2026-03-28T12:00:29.596Z</time></trkpt><trkpt lat="39.2351655" lon="16.8022618"><ele>431.0</ele><time>2026-03-28T12:00:30.596Z</time></trkpt><trkpt lat="39.2350971" lon="16.8023663"><ele>431.0</ele><time>2026-03-28T12:00:31.602Z</time></trkpt><trkpt lat="39.235028" lon="16.8024733"><ele>431.0</ele><time>2026-03-28T12:00:32.598Z</time></trkpt><trkpt lat="39.2349598" lon="16.8025781"><ele>431.0</ele><time>2026-03-28T12:00:33.593Z</time></trkpt><trkpt lat="39.2348948" lon="16.8026759"><ele>431.0</ele><time>2026-03-28T12:00:34.595Z</time></trkpt><trkpt lat="39.234831" lon="16.802776"><ele>431.0</ele><time>2026-03-28T12:00:35.595Z</time></trkpt><trkpt lat="39.2347709" lon="16.8028775"><ele>431.0</ele><time>2026-03-28T12:00:36.594Z</time></trkpt><trkpt lat="39.2347125" lon="16.8029846"><ele>431.0</ele><time>2026-03-28T12:00:37.607Z</time></trkpt><trkpt lat="39.2346573" lon="16.8030995"><ele>430.0</ele><time>2026-03-28T12:00:38.594Z</time></trkpt><trkpt lat="39.2346087" lon="16.8032171"><ele>429.0</ele><time>2026-03-28T12:00:39.6Z</time></trkpt><trkpt lat="39.2345662" lon="16.8033401"><ele>428.0</ele><time>2026-03-28T12:00:40.592Z</time></trkpt><trkpt lat="39.234529" lon="16.8034582"><ele>427.0</ele><time>2026-03-28T12:00:41.594Z</time></trkpt><trkpt lat="39.2344973" lon="16.803568"><ele>426.0</ele><time>2026-03-28T12:00:42.599Z</time></trkpt><trkpt lat="39.2344702" lon="16.8036733"><ele>426.0</ele><time>2026-03-28T12:00:43.597Z</time></trkpt><trkpt lat="39.2344514" lon="16.8037816"><ele>426.0</ele><time>2026-03-28T12:00:44.592Z</time></trkpt><trkpt lat="39.2344477" lon="16.8038931"><ele>426.0</ele><time>2026-03-28T12:00:45.595Z</time></trkpt><trkpt lat="39.2344629" lon="16.8040024"><ele>426.0</ele><time>2026-03-28T12:00:46.601Z</time></trkpt><trkpt lat="39.2345002" lon="16.8040998"><ele>426.0</ele><time>2026-03-28T12:00:47.597Z</time></trkpt><trkpt lat="39.2345548" lon="16.8041798"><ele>426.0</ele><time>2026-03-28T12:00:48.592Z</time></trkpt><trkpt lat="39.234623" lon="16.804235"><ele>425.99999999999994</ele><time>2026-03-28T12:00:49.597Z</time></trkpt><trkpt lat="39.2346867" lon="16.8042835"><ele>426.0</ele><time>2026-03-28T12:00:50.597Z</time></trkpt><trkpt lat="39.2347571" lon="16.8042861"><ele>426.0</ele><time>2026-03-28T12:00:51.591Z</time></trkpt><trkpt lat="39.234825" lon="16.80428"><ele>426.0</ele><time>2026-03-28T12:00:52.596Z</time></trkpt><trkpt lat="39.2348917" lon="16.8042828"><ele>426.0</ele><time>2026-03-28T12:00:53.594Z</time></trkpt><trkpt lat="39.2349563" lon="16.8042946"><ele>425.99999999999994</ele><time>2026-03-28T12:00:54.6Z</time></trkpt><trkpt lat="39.2350208" lon="16.8043212"><ele>426.0</ele><time>2026-03-28T12:00:55.598Z</time></trkpt><trkpt lat="39.2350817" lon="16.8043706"><ele>424.3333333333333</ele><time>2026-03-28T12:00:56.593Z</time></trkpt><trkpt lat="39.2351334" lon="16.8044398"><ele>422.66666666666663</ele><time>2026-03-28T12:00:57.592Z</time></trkpt><trkpt lat="39.2351689" lon="16.8045308"><ele>421.0</ele><time>2026-03-28T12:00:58.605Z</time></trkpt><trkpt lat="39.2351842" lon="16.8046393"><ele>419.3333333333333</ele><time>2026-03-28T12:00:59.601Z</time></trkpt><trkpt lat="39.2351864" lon="16.8047556"><ele>417.66666666666663</ele><time>2026-03-28T12:01:00.594Z</time></trkpt><trkpt lat="39.2351807" lon="16.8048701"><ele>416.0</ele><time>2026-03-28T12:01:01.597Z</time></trkpt><trkpt lat="39.2351695" lon="16.8049835"><ele>416.0</ele><time>2026-03-28T12:01:02.598Z</time></trkpt><trkpt lat="39.2351504" lon="16.8050941"><ele>416.0</ele><time>2026-03-28T12:01:03.598Z</time></trkpt><trkpt lat="39.2351183" lon="16.8051991"><ele>416.0</ele><time>2026-03-28T12:01:04.596Z</time></trkpt><trkpt lat="39.2350629" lon="16.8052915"><ele>416.0</ele><time>2026-03-28T12:01:05.599Z</time></trkpt><trkpt lat="39.2349849" lon="16.805366"><ele>416.0</ele><time>2026-03-28T12:01:06.591Z</time></trkpt><trkpt lat="39.2348892" lon="16.8054053"><ele>414.0</ele><time>2026-03-28T12:01:07.597Z</time></trkpt><trkpt lat="39.2347629" lon="16.8054115"><ele>412.0</ele><time>2026-03-28T12:01:08.594Z</time></trkpt><trkpt lat="39.2346394" lon="16.8053929"><ele>410.0</ele><time>2026-03-28T12:01:09.599Z</time></trkpt><trkpt lat="39.2345316" lon="16.805382"><ele>408.0</ele><time>2026-03-28T12:01:10.597Z</time></trkpt><trkpt lat="39.2344391" lon="16.8054005"><ele>408.0</ele><time>2026-03-28T12:01:11.594Z</time></trkpt><trkpt lat="39.2343655" lon="16.8054529"><ele>408.0</ele><time>2026-03-28T12:01:12.596Z</time></trkpt><trkpt lat="39.2343074" lon="16.8055213"><ele>408.0</ele><time>2026-03-28T12:01:13.596Z</time></trkpt><trkpt lat="39.2342582" lon="16.8056099"><ele>408.0</ele><time>2026-03-28T12:01:14.595Z</time></trkpt><trkpt lat="39.2342111" lon="16.8057255"><ele>408.0</ele><time>2026-03-28T12:01:15.593Z</time></trkpt><trkpt lat="39.234163" lon="16.8058713"><ele>406.0</ele><time>2026-03-28T12:01:16.6Z</time></trkpt><trkpt lat="39.2341149" lon="16.8060275"><ele>404.0</ele><time>2026-03-28T12:01:17.594Z</time></trkpt><trkpt lat="39.234071" lon="16.8061644"><ele>402.0</ele><time>2026-03-28T12:01:18.596Z</time></trkpt><trkpt lat="39.2340326" lon="16.8062796"><ele>400.0</ele><time>2026-03-28T12:01:19.603Z</time></trkpt><trkpt lat="39.2339977" lon="16.8063763"><ele>398.0</ele><time>2026-03-28T12:01:20.6Z</time></trkpt><trkpt lat="39.2339549" lon="16.8064541"><ele>397.66666666666663</ele><time>2026-03-28T12:01:21.599Z</time></trkpt><trkpt lat="39.2338962" lon="16.8065074"><ele>397.3333333333333</ele><time>2026-03-28T12:01:22.599Z</time></trkpt><trkpt lat="39.2338329" lon="16.8065274"><ele>397.0</ele><time>2026-03-28T12:01:23.597Z</time></trkpt><trkpt lat="39.2337218" lon="16.8064462"><ele>396.66666666666663</ele><time>2026-03-28T12:01:25.594Z</time></trkpt><trkpt lat="39.2336767" lon="16.8063531"><ele>396.3333333333333</ele><time>2026-03-28T12:01:26.595Z</time></trkpt><trkpt lat="39.2336274" lon="16.8062635"><ele>396.0</ele><time>2026-03-28T12:01:27.609Z</time></trkpt><trkpt lat="39.2335715" lon="16.8061922"><ele>396.0</ele><time>2026-03-28T12:01:28.606Z</time></trkpt><trkpt lat="39.2335032" lon="16.806144"><ele>396.0</ele><time>2026-03-28T12:01:29.599Z</time></trkpt><trkpt lat="39.2334217" lon="16.8061223"><ele>396.0</ele><time>2026-03-28T12:01:30.605Z</time></trkpt><trkpt lat="39.233337" lon="16.8061136"><ele>396.0</ele><time>2026-03-28T12:01:31.601Z</time></trkpt><trkpt lat="39.2332533" lon="16.8061101"><ele>396.0</ele><time>2026-03-28T12:01:32.607Z</time></trkpt><trkpt lat="39.2331672" lon="16.8061088"><ele>396.0</ele><time>2026-03-28T12:01:33.596Z</time></trkpt><trkpt lat="39.2330756" lon="16.806108"><ele>395.0</ele><time>2026-03-28T12:01:34.597Z</time></trkpt><trkpt lat="39.2329734" lon="16.8061073"><ele>394.0</ele><time>2026-03-28T12:01:35.607Z</time></trkpt><trkpt lat="39.2328713" lon="16.8061021"><ele>393.0</ele><time>2026-03-28T12:01:36.604Z</time></trkpt><trkpt lat="39.2327767" lon="16.806092"><ele>392.0</ele><time>2026-03-28T12:01:37.595Z</time></trkpt><trkpt lat="39.232685" lon="16.8060674"><ele>391.0</ele><time>2026-03-28T12:01:38.6Z</time></trkpt><trkpt lat="39.2326026" lon="16.8060262"><ele>391.6666666666667</ele><time>2026-03-28T12:01:39.606Z</time></trkpt><trkpt lat="39.2325367" lon="16.8059766"><ele>392.33333333333337</ele><time>2026-03-28T12:01:40.597Z</time></trkpt><trkpt lat="39.2324815" lon="16.8059264"><ele>393.0</ele><time>2026-03-28T12:01:41.599Z</time></trkpt><trkpt lat="39.2324271" lon="16.8058721"><ele>393.66666666666663</ele><time>2026-03-28T12:01:42.594Z</time></trkpt><trkpt lat="39.2323664" lon="16.8058116"><ele>394.3333333333333</ele><time>2026-03-28T12:01:43.597Z</time></trkpt><trkpt lat="39.2322969" lon="16.8057606"><ele>395.0</ele><time>2026-03-28T12:01:44.597Z</time></trkpt><trkpt lat="39.2322168" lon="16.8057297"><ele>394.99999999999994</ele><time>2026-03-28T12:01:45.599Z</time></trkpt><trkpt lat="39.2321313" lon="16.8057108"><ele>395.0</ele><time>2026-03-28T12:01:46.608Z</time></trkpt><trkpt lat="39.2320427" lon="16.8056997"><ele>395.0</ele><time>2026-03-28T12:01:47.596Z</time></trkpt><trkpt lat="39.2319524" lon="16.8057066"><ele>395.0</ele><time>2026-03-28T12:01:48.6Z</time></trkpt><trkpt lat="39.2318628" lon="16.8057133"><ele>394.99999999999994</ele><time>2026-03-28T12:01:49.598Z</time></trkpt><trkpt lat="39.231774" lon="16.8057509"><ele>395.0</ele><time>2026-03-28T12:01:50.601Z</time></trkpt><trkpt lat="39.231684" lon="16.8058077"><ele>395.0</ele><time>2026-03-28T12:01:51.599Z</time></trkpt><trkpt lat="39.2315969" lon="16.8058779"><ele>395.0</ele><time>2026-03-28T12:01:52.597Z</time></trkpt><trkpt lat="39.2315082" lon="16.8059614"><ele>395.0</ele><time>2026-03-28T12:01:53.594Z</time></trkpt><trkpt lat="39.2314207" lon="16.8060485"><ele>395.0</ele><time>2026-03-28T12:01:54.602Z</time></trkpt><trkpt lat="39.2313345" lon="16.8061367"><ele>395.0</ele><time>2026-03-28T12:01:55.604Z</time></trkpt><trkpt lat="39.2312458" lon="16.8062278"><ele>393.0</ele><time>2026-03-28T12:01:56.6Z</time></trkpt><trkpt lat="39.2311561" lon="16.8063207"><ele>391.0</ele><time>2026-03-28T12:01:57.6Z</time></trkpt><trkpt lat="39.2310608" lon="16.8064182"><ele>389.0</ele><time>2026-03-28T12:01:58.598Z</time></trkpt><trkpt lat="39.2309589" lon="16.8065209"><ele>387.0</ele><time>2026-03-28T12:01:59.602Z</time></trkpt><trkpt lat="39.2308598" lon="16.8066199"><ele>387.0</ele><time>2026-03-28T12:02:00.599Z</time></trkpt><trkpt lat="39.2307598" lon="16.8067201"><ele>387.0</ele><time>2026-03-28T12:02:01.597Z</time></trkpt><trkpt lat="39.230661" lon="16.8068231"><ele>387.0</ele><time>2026-03-28T12:02:02.602Z</time></trkpt><trkpt lat="39.2305682" lon="16.8069228"><ele>387.0</ele><time>2026-03-28T12:02:03.608Z</time></trkpt><trkpt lat="39.2304804" lon="16.8070149"><ele>386.0</ele><time>2026-03-28T12:02:04.615Z</time></trkpt><trkpt lat="39.2303987" lon="16.8070999"><ele>385.0</ele><time>2026-03-28T12:02:05.595Z</time></trkpt><trkpt lat="39.2303277" lon="16.8071824"><ele>384.0</ele><time>2026-03-28T12:02:06.595Z</time></trkpt><trkpt lat="39.2302726" lon="16.8072783"><ele>383.0</ele><time>2026-03-28T12:02:07.597Z</time></trkpt><trkpt lat="39.2302229" lon="16.8073885"><ele>382.0</ele><time>2026-03-28T12:02:08.599Z</time></trkpt><trkpt lat="39.2301725" lon="16.8074978"><ele>382.0</ele><time>2026-03-28T12:02:09.599Z</time></trkpt><trkpt lat="39.2300916" lon="16.8075844"><ele>382.0</ele><time>2026-03-28T12:02:10.597Z</time></trkpt><trkpt lat="39.2300019" lon="16.8076398"><ele>382.0</ele><time>2026-03-28T12:02:11.595Z</time></trkpt><trkpt lat="39.2299049" lon="16.8076655"><ele>382.0</ele><time>2026-03-28T12:02:12.601Z</time></trkpt><trkpt lat="39.2298128" lon="16.8076949"><ele>382.0</ele><time>2026-03-28T12:02:13.594Z</time></trkpt><trkpt lat="39.2297255" lon="16.8077475"><ele>379.8</ele><time>2026-03-28T12:02:14.596Z</time></trkpt><trkpt lat="39.2296507" lon="16.8078277"><ele>377.6</ele><time>2026-03-28T12:02:15.596Z</time></trkpt><trkpt lat="39.2295812" lon="16.807933"><ele>375.40000000000003</ele><time>2026-03-28T12:02:16.595Z</time></trkpt><trkpt lat="39.2295042" lon="16.8080353"><ele>373.20000000000005</ele><time>2026-03-28T12:02:17.601Z</time></trkpt><trkpt lat="39.229423" lon="16.8081243"><ele>371.0</ele><time>2026-03-28T12:02:18.596Z</time></trkpt><trkpt lat="39.2293365" lon="16.8081985"><ele>371.0</ele><time>2026-03-28T12:02:19.595Z</time></trkpt><trkpt lat="39.2292402" lon="16.8082485"><ele>371.0</ele><time>2026-03-28T12:02:20.594Z</time></trkpt><trkpt lat="39.2291436" lon="16.8082945"><ele>371.0</ele><time>2026-03-28T12:02:21.595Z</time></trkpt><trkpt lat="39.2290446" lon="16.8083013"><ele>371.0</ele><time>2026-03-28T12:02:22.593Z</time></trkpt><trkpt lat="39.2289519" lon="16.8082995"><ele>371.0</ele><time>2026-03-28T12:02:23.6Z</time></trkpt><trkpt lat="39.2288635" lon="16.8082898"><ele>370.5</ele><time>2026-03-28T12:02:24.597Z</time></trkpt><trkpt lat="39.2287823" lon="16.8082746"><ele>370.0</ele><time>2026-03-28T12:02:25.597Z</time></trkpt><trkpt lat="39.2287077" lon="16.8082566"><ele>369.5</ele><time>2026-03-28T12:02:26.595Z</time></trkpt><trkpt lat="39.228641" lon="16.808239"><ele>369.0</ele><time>2026-03-28T12:02:27.598Z</time></trkpt><trkpt lat="39.2285329" lon="16.8082303"><ele>368.5</ele><time>2026-03-28T12:02:29.601Z</time></trkpt><trkpt lat="39.2284438" lon="16.8082651"><ele>368.0</ele><time>2026-03-28T12:02:32.595Z</time></trkpt><trkpt lat="39.2283377" lon="16.8083091"><ele>368.0</ele><time>2026-03-28T12:02:34.601Z</time></trkpt><trkpt lat="39.228239" lon="16.8083907"><ele>368.0</ele><time>2026-03-28T12:02:36.595Z</time></trkpt><trkpt lat="39.2281936" lon="16.8084494"><ele>368.0</ele><time>2026-03-28T12:02:37.597Z</time></trkpt><trkpt lat="39.2281578" lon="16.8085175"><ele>368.0</ele><time>2026-03-28T12:02:38.601Z</time></trkpt><trkpt lat="39.2281246" lon="16.8086008"><ele>368.0</ele><time>2026-03-28T12:02:39.598Z</time></trkpt><trkpt lat="39.2280802" lon="16.8087059"><ele>368.0</ele><time>2026-03-28T12:02:40.596Z</time></trkpt><trkpt lat="39.2280333" lon="16.8088102"><ele>366.0</ele><time>2026-03-28T12:02:41.6Z</time></trkpt><trkpt lat="39.2279823" lon="16.8089239"><ele>364.0</ele><time>2026-03-28T12:02:42.596Z</time></trkpt><trkpt lat="39.2279226" lon="16.8090652"><ele>362.0</ele><time>2026-03-28T12:02:43.596Z</time></trkpt><trkpt lat="39.2278623" lon="16.8092105"><ele>360.0</ele><time>2026-03-28T12:02:44.597Z</time></trkpt><trkpt lat="39.2278035" lon="16.8093476"><ele>359.8</ele><time>2026-03-28T12:02:45.598Z</time></trkpt><trkpt lat="39.2277472" lon="16.80948"><ele>359.6</ele><time>2026-03-28T12:02:46.604Z</time></trkpt><trkpt lat="39.2276933" lon="16.8095955"><ele>359.4</ele><time>2026-03-28T12:02:47.597Z</time></trkpt><trkpt lat="39.2276308" lon="16.809692"><ele>359.2</ele><time>2026-03-28T12:02:48.601Z</time></trkpt><trkpt lat="39.2275654" lon="16.8097634"><ele>359.0</ele><time>2026-03-28T12:02:49.602Z</time></trkpt><trkpt lat="39.2274964" lon="16.8098054"><ele>359.0</ele><time>2026-03-28T12:02:50.594Z</time></trkpt><trkpt lat="39.2274293" lon="16.8098346"><ele>359.0</ele><time>2026-03-28T12:02:51.598Z</time></trkpt><trkpt lat="39.2273668" lon="16.8098567"><ele>359.0</ele><time>2026-03-28T12:02:52.593Z</time></trkpt><trkpt lat="39.2273017" lon="16.8098746"><ele>359.0</ele><time>2026-03-28T12:02:53.597Z</time></trkpt><trkpt lat="39.227232" lon="16.8098938"><ele>359.0</ele><time>2026-03-28T12:02:54.594Z</time></trkpt><trkpt lat="39.2271488" lon="16.8099187"><ele>359.0</ele><time>2026-03-28T12:02:55.597Z</time></trkpt><trkpt lat="39.2270609" lon="16.809949"><ele>357.4</ele><time>2026-03-28T12:02:56.597Z</time></trkpt><trkpt lat="39.2269694" lon="16.8099779"><ele>355.79999999999995</ele><time>2026-03-28T12:02:57.594Z</time></trkpt><trkpt lat="39.2268767" lon="16.8100095"><ele>354.20000000000005</ele><time>2026-03-28T12:02:58.597Z</time></trkpt><trkpt lat="39.2267887" lon="16.8100396"><ele>352.6</ele><time>2026-03-28T12:02:59.595Z</time></trkpt><trkpt lat="39.2267056" lon="16.8100684"><ele>351.0</ele><time>2026-03-28T12:03:00.597Z</time></trkpt><trkpt lat="39.2266215" lon="16.8100998"><ele>351.0</ele><time>2026-03-28T12:03:01.596Z</time></trkpt><trkpt lat="39.2265363" lon="16.8101318"><ele>351.0</ele><time>2026-03-28T12:03:02.597Z</time></trkpt><trkpt lat="39.2264424" lon="16.8101662"><ele>351.0</ele><time>2026-03-28T12:03:03.6Z</time></trkpt><trkpt lat="39.2263427" lon="16.8101979"><ele>351.0</ele><time>2026-03-28T12:03:04.601Z</time></trkpt><trkpt lat="39.2262402" lon="16.8102255"><ele>351.0</ele><time>2026-03-28T12:03:05.604Z</time></trkpt><trkpt lat="39.226142" lon="16.8102576"><ele>349.0</ele><time>2026-03-28T12:03:06.596Z</time></trkpt><trkpt lat="39.2260494" lon="16.8103029"><ele>347.0</ele><time>2026-03-28T12:03:07.598Z</time></trkpt><trkpt lat="39.2259636" lon="16.8103717"><ele>345.0</ele><time>2026-03-28T12:03:08.596Z</time></trkpt><trkpt lat="39.2258896" lon="16.8104658"><ele>343.0</ele><time>2026-03-28T12:03:09.595Z</time></trkpt><trkpt lat="39.2258328" lon="16.8105819"><ele>341.0</ele><time>2026-03-28T12:03:10.592Z</time></trkpt><trkpt lat="39.2257833" lon="16.8107058"><ele>341.0</ele><time>2026-03-28T12:03:11.597Z</time></trkpt><trkpt lat="39.2257472" lon="16.8108345"><ele>341.0</ele><time>2026-03-28T12:03:12.595Z</time></trkpt><trkpt lat="39.2257367" lon="16.8109624"><ele>341.0</ele><time>2026-03-28T12:03:13.595Z</time></trkpt><trkpt lat="39.225757" lon="16.8110931"><ele>341.0</ele><time>2026-03-28T12:03:14.6Z</time></trkpt><trkpt lat="39.2257947" lon="16.8112212"><ele>341.0</ele><time>2026-03-28T12:03:15.596Z</time></trkpt><trkpt lat="39.2258367" lon="16.8113486"><ele>339.6</ele><time>2026-03-28T12:03:16.598Z</time></trkpt><trkpt lat="39.2258784" lon="16.8114728"><ele>338.20000000000005</ele><time>2026-03-28T12:03:17.603Z</time></trkpt><trkpt lat="39.2259183" lon="16.8115892"><ele>336.79999999999995</ele><time>2026-03-28T12:03:18.598Z</time></trkpt><trkpt lat="39.2259559" lon="16.8116996"><ele>335.4</ele><time>2026-03-28T12:03:19.596Z</time></trkpt><trkpt lat="39.2259912" lon="16.8118085"><ele>334.0</ele><time>2026-03-28T12:03:20.6Z</time></trkpt><trkpt lat="39.2260274" lon="16.8119169"><ele>333.0</ele><time>2026-03-28T12:03:21.599Z</time></trkpt><trkpt lat="39.2260644" lon="16.8120233"><ele>332.0</ele><time>2026-03-28T12:03:22.599Z</time></trkpt><trkpt lat="39.2260943" lon="16.8121293"><ele>331.0</ele><time>2026-03-28T12:03:23.601Z</time></trkpt><trkpt lat="39.2261041" lon="16.8122409"><ele>330.0</ele><time>2026-03-28T12:03:24.602Z</time></trkpt><trkpt lat="39.2260849" lon="16.8123283"><ele>329.0</ele><time>2026-03-28T12:03:25.6Z</time></trkpt><trkpt lat="39.2260399" lon="16.8123875"><ele>328.0</ele><time>2026-03-28T12:03:26.6Z</time></trkpt><trkpt lat="39.225973" lon="16.8124256"><ele>328.0</ele><time>2026-03-28T12:03:27.596Z</time></trkpt><trkpt lat="39.2258864" lon="16.8124577"><ele>328.0</ele><time>2026-03-28T12:03:28.598Z</time></trkpt><trkpt lat="39.225787" lon="16.8124976"><ele>328.0</ele><time>2026-03-28T12:03:29.604Z</time></trkpt><trkpt lat="39.2256879" lon="16.8125378"><ele>328.0</ele><time>2026-03-28T12:03:30.597Z</time></trkpt><trkpt lat="39.225595" lon="16.8125721"><ele>328.0</ele><time>2026-03-28T12:03:31.6Z</time></trkpt><trkpt lat="39.2255198" lon="16.8126157"><ele>326.5</ele><time>2026-03-28T12:03:32.594Z</time></trkpt><trkpt lat="39.2254554" lon="16.8126552"><ele>325.0</ele><time>2026-03-28T12:03:33.599Z</time></trkpt><trkpt lat="39.2254533" lon="16.8127388"><ele>323.5</ele><time>2026-03-28T12:03:34.595Z</time></trkpt><trkpt lat="39.2254803" lon="16.8128172"><ele>322.0</ele><time>2026-03-28T12:03:35.596Z</time></trkpt><trkpt lat="39.225581" lon="16.8128675"><ele>320.5</ele><time>2026-03-28T12:03:37.598Z</time></trkpt><trkpt lat="39.2257013" lon="16.8128767"><ele>319.0</ele><time>2026-03-28T12:03:39.597Z</time></trkpt><trkpt lat="39.2258109" lon="16.8129312"><ele>319.0</ele><time>2026-03-28T12:03:41.595Z</time></trkpt><trkpt lat="39.2258852" lon="16.8130583"><ele>319.0</ele><time>2026-03-28T12:03:43.6Z</time></trkpt><trkpt lat="39.2258899" lon="16.813151"><ele>319.0</ele><time>2026-03-28T12:03:44.597Z</time></trkpt><trkpt lat="39.2258856" lon="16.8132433"><ele>319.0</ele><time>2026-03-28T12:03:45.593Z</time></trkpt><trkpt lat="39.2258729" lon="16.8133355"><ele>319.0</ele><time>2026-03-28T12:03:46.597Z</time></trkpt><trkpt lat="39.2258562" lon="16.8134449"><ele>319.0</ele><time>2026-03-28T12:03:47.592Z</time></trkpt><trkpt lat="39.2258394" lon="16.8135566"><ele>317.4</ele><time>2026-03-28T12:03:48.595Z</time></trkpt><trkpt lat="39.2258226" lon="16.8136711"><ele>315.79999999999995</ele><time>2026-03-28T12:03:49.596Z</time></trkpt><trkpt lat="39.2258043" lon="16.813788"><ele>314.20000000000005</ele><time>2026-03-28T12:03:50.597Z</time></trkpt><trkpt lat="39.2257767" lon="16.8139041"><ele>312.6</ele><time>2026-03-28T12:03:51.6Z</time></trkpt><trkpt lat="39.2257285" lon="16.8140046"><ele>311.0</ele><time>2026-03-28T12:03:52.596Z</time></trkpt><trkpt lat="39.2256676" lon="16.8140782"><ele>309.2</ele><time>2026-03-28T12:03:53.593Z</time></trkpt><trkpt lat="39.2255896" lon="16.8141331"><ele>307.40000000000003</ele><time>2026-03-28T12:03:54.594Z</time></trkpt><trkpt lat="39.2255004" lon="16.8141674"><ele>305.6</ele><time>2026-03-28T12:03:55.597Z</time></trkpt><trkpt lat="39.2254131" lon="16.8141931"><ele>303.8</ele><time>2026-03-28T12:03:56.597Z</time></trkpt><trkpt lat="39.2253253" lon="16.8142201"><ele>302.0</ele><time>2026-03-28T12:03:57.597Z</time></trkpt><trkpt lat="39.2252355" lon="16.8142479"><ele>302.0</ele><time>2026-03-28T12:03:58.597Z</time></trkpt><trkpt lat="39.2251497" lon="16.8142758"><ele>302.0</ele><time>2026-03-28T12:03:59.598Z</time></trkpt><trkpt lat="39.2250692" lon="16.8143023"><ele>302.0</ele><time>2026-03-28T12:04:00.596Z</time></trkpt><trkpt lat="39.2249935" lon="16.8143401"><ele>302.0</ele><time>2026-03-28T12:04:01.594Z</time></trkpt><trkpt lat="39.2249291" lon="16.8143954"><ele>302.0</ele><time>2026-03-28T12:04:02.594Z</time></trkpt><trkpt lat="39.2248805" lon="16.814471"><ele>302.0</ele><time>2026-03-28T12:04:03.597Z</time></trkpt><trkpt lat="39.224862" lon="16.8145629"><ele>301.42857142857144</ele><time>2026-03-28T12:04:04.595Z</time></trkpt><trkpt lat="39.2248688" lon="16.8146575"><ele>300.8571428571429</ele><time>2026-03-28T12:04:05.594Z</time></trkpt><trkpt lat="39.2248986" lon="16.8147469"><ele>300.2857142857143</ele><time>2026-03-28T12:04:06.595Z</time></trkpt><trkpt lat="39.2249434" lon="16.8148272"><ele>299.7142857142857</ele><time>2026-03-28T12:04:07.598Z</time></trkpt><trkpt lat="39.2249957" lon="16.8149009"><ele>299.1428571428571</ele><time>2026-03-28T12:04:08.594Z</time></trkpt><trkpt lat="39.2250503" lon="16.814965"><ele>298.57142857142856</ele><time>2026-03-28T12:04:09.596Z</time></trkpt><trkpt lat="39.2251052" lon="16.8150255"><ele>298.0</ele><time>2026-03-28T12:04:10.596Z</time></trkpt><trkpt lat="39.2251575" lon="16.8150896"><ele>298.0</ele><time>2026-03-28T12:04:11.6Z</time></trkpt><trkpt lat="39.2252061" lon="16.8151526"><ele>298.0</ele><time>2026-03-28T12:04:12.602Z</time></trkpt><trkpt lat="39.2252453" lon="16.8152188"><ele>298.0</ele><time>2026-03-28T12:04:13.597Z</time></trkpt><trkpt lat="39.2252707" lon="16.8153051"><ele>298.0</ele><time>2026-03-28T12:04:14.601Z</time></trkpt><trkpt lat="39.2252709" lon="16.8154025"><ele>298.0</ele><time>2026-03-28T12:04:15.593Z</time></trkpt><trkpt lat="39.2252435" lon="16.815499"><ele>298.0</ele><time>2026-03-28T12:04:16.603Z</time></trkpt><trkpt lat="39.2251852" lon="16.8155773"><ele>298.0</ele><time>2026-03-28T12:04:17.594Z</time></trkpt><trkpt lat="39.2251054" lon="16.8156226"><ele>296.2</ele><time>2026-03-28T12:04:18.597Z</time></trkpt><trkpt lat="39.2250135" lon="16.815628"><ele>294.4</ele><time>2026-03-28T12:04:19.598Z</time></trkpt><trkpt lat="39.2249123" lon="16.8156006"><ele>292.59999999999997</ele><time>2026-03-28T12:04:20.603Z</time></trkpt><trkpt lat="39.2248014" lon="16.8155605"><ele>290.8</ele><time>2026-03-28T12:04:21.595Z</time></trkpt><trkpt lat="39.2246943" lon="16.8155183"><ele>289.0</ele><time>2026-03-28T12:04:22.598Z</time></trkpt><trkpt lat="39.2245934" lon="16.8154776"><ele>287.5</ele><time>2026-03-28T12:04:23.595Z</time></trkpt><trkpt lat="39.2245076" lon="16.8154454"><ele>286.0</ele><time>2026-03-28T12:04:24.594Z</time></trkpt><trkpt lat="39.22443" lon="16.8154396"><ele>284.5</ele><time>2026-03-28T12:04:25.598Z</time></trkpt><trkpt lat="39.2243578" lon="16.8154371"><ele>283.0</ele><time>2026-03-28T12:04:26.6Z</time></trkpt><trkpt lat="39.2242742" lon="16.8155465"><ele>281.5</ele><time>2026-03-28T12:04:28.597Z</time></trkpt><trkpt lat="39.2242722" lon="16.8156306"><ele>280.0</ele><time>2026-03-28T12:04:29.597Z</time></trkpt><trkpt lat="39.2242834" lon="16.8157239"><ele>280.0</ele><time>2026-03-28T12:04:30.6Z</time></trkpt><trkpt lat="39.2243" lon="16.8158237"><ele>280.0</ele><time>2026-03-28T12:04:31.597Z</time></trkpt><trkpt lat="39.2243193" lon="16.8159325"><ele>280.0</ele><time>2026-03-28T12:04:32.596Z</time></trkpt><trkpt lat="39.224338" lon="16.8160487"><ele>280.0</ele><time>2026-03-28T12:04:33.596Z</time></trkpt><trkpt lat="39.2243586" lon="16.81617"><ele>280.0</ele><time>2026-03-28T12:04:34.596Z</time></trkpt><trkpt lat="39.2243841" lon="16.8163063"><ele>278.6</ele><time>2026-03-28T12:04:35.598Z</time></trkpt><trkpt lat="39.2244136" lon="16.8164428"><ele>277.2</ele><time>2026-03-28T12:04:36.597Z</time></trkpt><trkpt lat="39.2244607" lon="16.8165712"><ele>275.8</ele><time>2026-03-28T12:04:37.596Z</time></trkpt><trkpt lat="39.2245236" lon="16.8166855"><ele>274.4</ele><time>2026-03-28T12:04:38.597Z</time></trkpt><trkpt lat="39.2245935" lon="16.8167754"><ele>273.0</ele><time>2026-03-28T12:04:39.602Z</time></trkpt><trkpt lat="39.2246634" lon="16.8168484"><ele>271.6</ele><time>2026-03-28T12:04:40.597Z</time></trkpt><trkpt lat="39.2247301" lon="16.8169098"><ele>270.20000000000005</ele><time>2026-03-28T12:04:41.597Z</time></trkpt><trkpt lat="39.2247891" lon="16.8169613"><ele>268.8</ele><time>2026-03-28T12:04:42.594Z</time></trkpt><trkpt lat="39.2248865" lon="16.8170492"><ele>267.40000000000003</ele><time>2026-03-28T12:04:44.608Z</time></trkpt><trkpt lat="39.2249783" lon="16.8171499"><ele>266.0</ele><time>2026-03-28T12:04:46.594Z</time></trkpt><trkpt lat="39.2250171" lon="16.8172225"><ele>266.0</ele><time>2026-03-28T12:04:47.6Z</time></trkpt><trkpt lat="39.2250387" lon="16.8173016"><ele>266.0</ele><time>2026-03-28T12:04:48.601Z</time></trkpt><trkpt lat="39.2250181" lon="16.8174608"><ele>266.0</ele><time>2026-03-28T12:04:50.594Z</time></trkpt><trkpt lat="39.2249884" lon="16.8175471"><ele>266.0</ele><time>2026-03-28T12:04:51.598Z</time></trkpt><trkpt lat="39.2249141" lon="16.8176088"><ele>266.0</ele><time>2026-03-28T12:04:52.593Z</time></trkpt><trkpt lat="39.2248251" lon="16.8176593"><ele>266.0</ele><time>2026-03-28T12:04:53.593Z</time></trkpt><trkpt lat="39.224737" lon="16.8176974"><ele>264.33333333333337</ele><time>2026-03-28T12:04:54.595Z</time></trkpt><trkpt lat="39.2246563" lon="16.8177323"><ele>262.6666666666667</ele><time>2026-03-28T12:04:55.599Z</time></trkpt><trkpt lat="39.2245758" lon="16.8177669"><ele>261.0</ele><time>2026-03-28T12:04:56.598Z</time></trkpt><trkpt lat="39.224495" lon="16.8177992"><ele>259.3333333333333</ele><time>2026-03-28T12:04:57.593Z</time></trkpt><trkpt lat="39.2244186" lon="16.8178233"><ele>257.66666666666663</ele><time>2026-03-28T12:04:58.595Z</time></trkpt><trkpt lat="39.2243478" lon="16.8178455"><ele>256.0</ele><time>2026-03-28T12:04:59.598Z</time></trkpt><trkpt lat="39.2242847" lon="16.8178691"><ele>256.0</ele><time>2026-03-28T12:05:00.606Z</time></trkpt><trkpt lat="39.2241765" lon="16.8179069"><ele>256.0</ele><time>2026-03-28T12:05:02.602Z</time></trkpt><trkpt lat="39.2240601" lon="16.8179208"><ele>256.0</ele><time>2026-03-28T12:05:04.598Z</time></trkpt><trkpt lat="39.2239387" lon="16.8178999"><ele>256.0</ele><time>2026-03-28T12:05:06.598Z</time></trkpt><trkpt lat="39.2238295" lon="16.8178749"><ele>254.60000000000002</ele><time>2026-03-28T12:05:08.6Z</time></trkpt><trkpt lat="39.223721" lon="16.8178422"><ele>253.20000000000002</ele><time>2026-03-28T12:05:10.595Z</time></trkpt><trkpt lat="39.2236068" lon="16.817823"><ele>251.79999999999998</ele><time>2026-03-28T12:05:12.595Z</time></trkpt><trkpt lat="39.2234835" lon="16.8178274"><ele>250.39999999999998</ele><time>2026-03-28T12:05:14.593Z</time></trkpt><trkpt lat="39.22342" lon="16.8178584"><ele>249.0</ele><time>2026-03-28T12:05:15.595Z</time></trkpt><trkpt lat="39.2233689" lon="16.8179201"><ele>249.0</ele><time>2026-03-28T12:05:16.6Z</time></trkpt><trkpt lat="39.2233414" lon="16.8180067"><ele>249.0</ele><time>2026-03-28T12:05:17.592Z</time></trkpt><trkpt lat="39.2233449" lon="16.8181025"><ele>249.0</ele><time>2026-03-28T12:05:18.599Z</time></trkpt><trkpt lat="39.2233811" lon="16.8181906"><ele>249.0</ele><time>2026-03-28T12:05:19.597Z</time></trkpt><trkpt lat="39.223445" lon="16.8182741"><ele>249.0</ele><time>2026-03-28T12:05:20.601Z</time></trkpt><trkpt lat="39.2235104" lon="16.8183537"><ele>249.0</ele><time>2026-03-28T12:05:21.598Z</time></trkpt><trkpt lat="39.2235715" lon="16.8184261"><ele>247.66666666666666</ele><time>2026-03-28T12:05:22.603Z</time></trkpt><trkpt lat="39.2236284" lon="16.8184917"><ele>246.33333333333331</ele><time>2026-03-28T12:05:23.597Z</time></trkpt><trkpt lat="39.2236885" lon="16.8185577"><ele>245.0</ele><time>2026-03-28T12:05:24.604Z</time></trkpt><trkpt lat="39.2237516" lon="16.8186242"><ele>243.66666666666666</ele><time>2026-03-28T12:05:25.601Z</time></trkpt><trkpt lat="39.2238063" lon="16.8186725"><ele>242.33333333333331</ele><time>2026-03-28T12:05:26.598Z</time></trkpt><trkpt lat="39.2238833" lon="16.818712"><ele>241.0</ele><time>2026-03-28T12:05:28.602Z</time></trkpt><trkpt lat="39.2239436" lon="16.8187452"><ele>241.42857142857144</ele><time>2026-03-28T12:05:31.597Z</time></trkpt><trkpt lat="39.224013" lon="16.8187802"><ele>241.8571428571429</ele><time>2026-03-28T12:05:35.596Z</time></trkpt><trkpt lat="39.2240764" lon="16.8188161"><ele>242.28571428571428</ele><time>2026-03-28T12:05:45.613Z</time></trkpt><trkpt lat="39.2241304" lon="16.8188826"><ele>242.71428571428572</ele><time>2026-03-28T12:07:50.615Z</time></trkpt><trkpt lat="39.2241571" lon="16.8189565"><ele>243.14285714285714</ele><time>2026-03-28T12:07:54.604Z</time></trkpt><trkpt lat="39.2241569" lon="16.8190611"><ele>243.57142857142856</ele><time>2026-03-28T12:07:57.602Z</time></trkpt><trkpt lat="39.2241176" lon="16.8191452"><ele>243.99999999999997</ele><time>2026-03-28T12:07:59.614Z</time></trkpt><trkpt lat="39.2240055" lon="16.8192188"><ele>243.49999999999997</ele><time>2026-03-28T12:08:01.613Z</time></trkpt><trkpt lat="39.2239356" lon="16.8192518"><ele>243.0</ele><time>2026-03-28T12:08:02.6Z</time></trkpt><trkpt lat="39.2238697" lon="16.8192771"><ele>242.5</ele><time>2026-03-28T12:08:03.611Z</time></trkpt><trkpt lat="39.2237621" lon="16.8193115"><ele>242.0</ele><time>2026-03-28T12:08:05.621Z</time></trkpt><trkpt lat="39.2236827" lon="16.8193142"><ele>241.49999999999997</ele><time>2026-03-28T12:08:07.607Z</time></trkpt><trkpt lat="39.2235937" lon="16.8192915"><ele>241.0</ele><time>2026-03-28T12:08:10.603Z</time></trkpt><trkpt lat="39.2235044" lon="16.8192648"><ele>240.99999999999997</ele><time>2026-03-28T12:08:12.617Z</time></trkpt><trkpt lat="39.2234003" lon="16.8192773"><ele>241.0</ele><time>2026-03-28T12:08:14.606Z</time></trkpt><trkpt lat="39.2233557" lon="16.8193417"><ele>241.0</ele><time>2026-03-28T12:08:15.611Z</time></trkpt><trkpt lat="39.2233194" lon="16.8194293"><ele>241.0</ele><time>2026-03-28T12:08:16.613Z</time></trkpt><trkpt lat="39.223291" lon="16.8195331"><ele>240.99999999999997</ele><time>2026-03-28T12:08:17.609Z</time></trkpt><trkpt lat="39.2232594" lon="16.8196384"><ele>241.0</ele><time>2026-03-28T12:08:18.606Z</time></trkpt><trkpt lat="39.2232289" lon="16.8197414"><ele>239.49999999999997</ele><time>2026-03-28T12:08:19.605Z</time></trkpt><trkpt lat="39.223195" lon="16.8198377"><ele>238.0</ele><time>2026-03-28T12:08:20.609Z</time></trkpt><trkpt lat="39.2231645" lon="16.8199315"><ele>236.5</ele><time>2026-03-28T12:08:21.614Z</time></trkpt><trkpt lat="39.2231376" lon="16.820023"><ele>235.0</ele><time>2026-03-28T12:08:22.617Z</time></trkpt><trkpt lat="39.2231086" lon="16.8201135"><ele>233.49999999999997</ele><time>2026-03-28T12:08:23.604Z</time></trkpt><trkpt lat="39.223082" lon="16.8201992"><ele>232.0</ele><time>2026-03-28T12:08:24.607Z</time></trkpt><trkpt lat="39.2230579" lon="16.8202781"><ele>230.83333333333331</ele><time>2026-03-28T12:08:25.618Z</time></trkpt><trkpt lat="39.2230342" lon="16.8203567"><ele>229.66666666666666</ele><time>2026-03-28T12:08:26.611Z</time></trkpt><trkpt lat="39.2230074" lon="16.8204316"><ele>228.5</ele><time>2026-03-28T12:08:27.604Z</time></trkpt><trkpt lat="39.2229389" lon="16.8205755"><ele>227.33333333333331</ele><time>2026-03-28T12:08:29.62Z</time></trkpt><trkpt lat="39.2228897" lon="16.8206544"><ele>226.16666666666666</ele><time>2026-03-28T12:08:30.609Z</time></trkpt><trkpt lat="39.2228348" lon="16.8207358"><ele>225.0</ele><time>2026-03-28T12:08:31.607Z</time></trkpt><trkpt lat="39.2227851" lon="16.8208115"><ele>225.0</ele><time>2026-03-28T12:08:32.625Z</time></trkpt><trkpt lat="39.2227418" lon="16.8208781"><ele>225.0</ele><time>2026-03-28T12:08:33.614Z</time></trkpt><trkpt lat="39.2226464" lon="16.8209956"><ele>225.0</ele><time>2026-03-28T12:08:35.619Z</time></trkpt><trkpt lat="39.2225877" lon="16.8210445"><ele>225.0</ele><time>2026-03-28T12:08:36.617Z</time></trkpt><trkpt lat="39.2225169" lon="16.8210822"><ele>225.0</ele><time>2026-03-28T12:08:37.616Z</time></trkpt><trkpt lat="39.2224362" lon="16.8211133"><ele>225.0</ele><time>2026-03-28T12:08:38.601Z</time></trkpt><trkpt lat="39.2223577" lon="16.821139"><ele>224.0</ele><time>2026-03-28T12:08:39.624Z</time></trkpt><trkpt lat="39.2222792" lon="16.8211718"><ele>223.0</ele><time>2026-03-28T12:08:40.619Z</time></trkpt><trkpt lat="39.2221978" lon="16.8212243"><ele>222.0</ele><time>2026-03-28T12:08:41.621Z</time></trkpt><trkpt lat="39.2221242" lon="16.8213028"><ele>221.0</ele><time>2026-03-28T12:08:42.611Z</time></trkpt><trkpt lat="39.2220643" lon="16.821405"><ele>220.0</ele><time>2026-03-28T12:08:43.607Z</time></trkpt><trkpt lat="39.2220083" lon="16.8215125"><ele>220.0</ele><time>2026-03-28T12:08:44.612Z</time></trkpt><trkpt lat="39.2219517" lon="16.8216168"><ele>220.0</ele><time>2026-03-28T12:08:45.617Z</time></trkpt><trkpt lat="39.2218954" lon="16.8217167"><ele>220.0</ele><time>2026-03-28T12:08:46.613Z</time></trkpt><trkpt lat="39.2218431" lon="16.8218098"><ele>220.0</ele><time>2026-03-28T12:08:47.614Z</time></trkpt><trkpt lat="39.2217935" lon="16.8218983"><ele>220.0</ele><time>2026-03-28T12:08:48.612Z</time></trkpt><trkpt lat="39.2217462" lon="16.821991"><ele>219.16666666666666</ele><time>2026-03-28T12:08:49.617Z</time></trkpt><trkpt lat="39.2216951" lon="16.8220928"><ele>218.33333333333331</ele><time>2026-03-28T12:08:50.609Z</time></trkpt><trkpt lat="39.2216405" lon="16.8221919"><ele>217.5</ele><time>2026-03-28T12:08:51.603Z</time></trkpt><trkpt lat="39.2215873" lon="16.8222833"><ele>216.66666666666669</ele><time>2026-03-28T12:08:52.612Z</time></trkpt><trkpt lat="39.2215363" lon="16.8223668"><ele>215.83333333333334</ele><time>2026-03-28T12:08:53.622Z</time></trkpt><trkpt lat="39.2214821" lon="16.8224412"><ele>215.0</ele><time>2026-03-28T12:08:54.613Z</time></trkpt><trkpt lat="39.2214201" lon="16.8225106"><ele>215.0</ele><time>2026-03-28T12:08:55.605Z</time></trkpt><trkpt lat="39.2213461" lon="16.8225731"><ele>215.0</ele><time>2026-03-28T12:08:56.607Z</time></trkpt><trkpt lat="39.2212584" lon="16.822628"><ele>215.0</ele><time>2026-03-28T12:08:57.612Z</time></trkpt><trkpt lat="39.2211679" lon="16.8226756"><ele>215.0</ele><time>2026-03-28T12:08:58.625Z</time></trkpt><trkpt lat="39.2210767" lon="16.8227207"><ele>215.0</ele><time>2026-03-28T12:08:59.613Z</time></trkpt><trkpt lat="39.2209889" lon="16.8227652"><ele>212.83333333333334</ele><time>2026-03-28T12:09:00.603Z</time></trkpt><trkpt lat="39.2209068" lon="16.8228047"><ele>210.66666666666669</ele><time>2026-03-28T12:09:01.617Z</time></trkpt><trkpt lat="39.2208285" lon="16.82284"><ele>208.5</ele><time>2026-03-28T12:09:02.614Z</time></trkpt><trkpt lat="39.2207483" lon="16.8228749"><ele>206.33333333333331</ele><time>2026-03-28T12:09:03.611Z</time></trkpt><trkpt lat="39.2206626" lon="16.8229149"><ele>204.16666666666666</ele><time>2026-03-28T12:09:04.608Z</time></trkpt><trkpt lat="39.2205792" lon="16.822954"><ele>202.0</ele><time>2026-03-28T12:09:05.619Z</time></trkpt><trkpt lat="39.2205" lon="16.8229907"><ele>201.57142857142856</ele><time>2026-03-28T12:09:06.609Z</time></trkpt><trkpt lat="39.2204273" lon="16.8230246"><ele>201.14285714285714</ele><time>2026-03-28T12:09:07.614Z</time></trkpt><trkpt lat="39.2203584" lon="16.8230567"><ele>200.71428571428572</ele><time>2026-03-28T12:09:08.612Z</time></trkpt><trkpt lat="39.2202904" lon="16.8230863"><ele>200.28571428571428</ele><time>2026-03-28T12:09:09.615Z</time></trkpt><trkpt lat="39.2202221" lon="16.8231184"><ele>199.85714285714286</ele><time>2026-03-28T12:09:10.62Z</time></trkpt><trkpt lat="39.2201605" lon="16.8231656"><ele>199.42857142857142</ele><time>2026-03-28T12:09:11.614Z</time></trkpt><trkpt lat="39.220106" lon="16.823209"><ele>199.0</ele><time>2026-03-28T12:09:12.604Z</time></trkpt><trkpt lat="39.220078" lon="16.8233455"><ele>198.99999999999997</ele><time>2026-03-28T12:09:14.61Z</time></trkpt><trkpt lat="39.2201247" lon="16.8234115"><ele>199.0</ele><time>2026-03-28T12:09:15.603Z</time></trkpt><trkpt lat="39.2202016" lon="16.8234598"><ele>199.0</ele><time>2026-03-28T12:09:16.604Z</time></trkpt><trkpt lat="39.22028" lon="16.8235009"><ele>199.0</ele><time>2026-03-28T12:09:17.615Z</time></trkpt><trkpt lat="39.2203622" lon="16.8235006"><ele>198.99999999999997</ele><time>2026-03-28T12:09:18.616Z</time></trkpt><trkpt lat="39.2204445" lon="16.8235363"><ele>199.0</ele><time>2026-03-28T12:09:19.616Z</time></trkpt><trkpt lat="39.2205131" lon="16.8236178"><ele>197.6</ele><time>2026-03-28T12:09:20.604Z</time></trkpt><trkpt lat="39.2205881" lon="16.8236984"><ele>196.2</ele><time>2026-03-28T12:09:21.613Z</time></trkpt><trkpt lat="39.2206745" lon="16.8237354"><ele>194.79999999999998</ele><time>2026-03-28T12:09:22.613Z</time></trkpt><trkpt lat="39.2207598" lon="16.8237305"><ele>193.39999999999998</ele><time>2026-03-28T12:09:23.604Z</time></trkpt><trkpt lat="39.2208336" lon="16.8237491"><ele>192.0</ele><time>2026-03-28T12:09:24.612Z</time></trkpt><trkpt lat="39.2208898" lon="16.8238731"><ele>192.0</ele><time>2026-03-28T12:09:26.598Z</time></trkpt><trkpt lat="39.2208774" lon="16.8239588"><ele>192.0</ele><time>2026-03-28T12:09:27.614Z</time></trkpt><trkpt lat="39.2208575" lon="16.8240562"><ele>192.0</ele><time>2026-03-28T12:09:28.618Z</time></trkpt><trkpt lat="39.2208569" lon="16.8241703"><ele>192.0</ele><time>2026-03-28T12:09:29.61Z</time></trkpt><trkpt lat="39.2208804" lon="16.8242866"><ele>192.0</ele><time>2026-03-28T12:09:30.605Z</time></trkpt><trkpt lat="39.2209354" lon="16.8243742"><ele>192.0</ele><time>2026-03-28T12:09:31.62Z</time></trkpt><trkpt lat="39.2210126" lon="16.8244143"><ele>190.0</ele><time>2026-03-28T12:09:32.61Z</time></trkpt><trkpt lat="39.221104" lon="16.8244394"><ele>188.0</ele><time>2026-03-28T12:09:33.598Z</time></trkpt><trkpt lat="39.2211962" lon="16.8244603"><ele>186.0</ele><time>2026-03-28T12:09:34.62Z</time></trkpt><trkpt lat="39.2212886" lon="16.8244764"><ele>184.0</ele><time>2026-03-28T12:09:35.614Z</time></trkpt><trkpt lat="39.2213894" lon="16.8244787"><ele>182.0</ele><time>2026-03-28T12:09:36.605Z</time></trkpt><trkpt lat="39.2214973" lon="16.8244539"><ele>182.0</ele><time>2026-03-28T12:09:37.607Z</time></trkpt><trkpt lat="39.2216046" lon="16.8244047"><ele>182.0</ele><time>2026-03-28T12:09:38.603Z</time></trkpt><trkpt lat="39.2217014" lon="16.8243451"><ele>182.0</ele><time>2026-03-28T12:09:39.605Z</time></trkpt><trkpt lat="39.2217864" lon="16.8242888"><ele>182.0</ele><time>2026-03-28T12:09:40.629Z</time></trkpt><trkpt lat="39.2218613" lon="16.8242631"><ele>182.0</ele><time>2026-03-28T12:09:41.611Z</time></trkpt><trkpt lat="39.2219312" lon="16.8242777"><ele>182.0</ele><time>2026-03-28T12:09:42.608Z</time></trkpt><trkpt lat="39.2219805" lon="16.8243312"><ele>182.0</ele><time>2026-03-28T12:09:43.614Z</time></trkpt><trkpt lat="39.2219782" lon="16.8244875"><ele>182.0</ele><time>2026-03-28T12:09:45.609Z</time></trkpt><trkpt lat="39.2219561" lon="16.8245705"><ele>182.0</ele><time>2026-03-28T12:09:46.613Z</time></trkpt><trkpt lat="39.2218926" lon="16.8246463"><ele>182.0</ele><time>2026-03-28T12:09:47.619Z</time></trkpt><trkpt lat="39.2218369" lon="16.8247233"><ele>182.0</ele><time>2026-03-28T12:09:48.611Z</time></trkpt><trkpt lat="39.221782" lon="16.8248043"><ele>182.0</ele><time>2026-03-28T12:09:49.622Z</time></trkpt><trkpt lat="39.221728" lon="16.8248849"><ele>182.0</ele><time>2026-03-28T12:09:50.614Z</time></trkpt><trkpt lat="39.2216771" lon="16.8249686"><ele>182.0</ele><time>2026-03-28T12:09:51.605Z</time></trkpt><trkpt lat="39.2216261" lon="16.8250529"><ele>182.0</ele><time>2026-03-28T12:09:52.618Z</time></trkpt><trkpt lat="39.2215739" lon="16.8251399"><ele>182.0</ele><time>2026-03-28T12:09:53.618Z</time></trkpt><trkpt lat="39.2215226" lon="16.825225"><ele>182.0</ele><time>2026-03-28T12:09:54.608Z</time></trkpt><trkpt lat="39.2214756" lon="16.8253036"><ele>181.16666666666666</ele><time>2026-03-28T12:09:55.607Z</time></trkpt><trkpt lat="39.2214332" lon="16.8253744"><ele>180.33333333333331</ele><time>2026-03-28T12:09:56.608Z</time></trkpt><trkpt lat="39.2213929" lon="16.8254421"><ele>179.5</ele><time>2026-03-28T12:09:57.615Z</time></trkpt><trkpt lat="39.2213074" lon="16.825558"><ele>178.66666666666666</ele><time>2026-03-28T12:09:59.619Z</time></trkpt><trkpt lat="39.2212592" lon="16.8256151"><ele>177.83333333333334</ele><time>2026-03-28T12:10:00.61Z</time></trkpt><trkpt lat="39.2211986" lon="16.8256684"><ele>177.0</ele><time>2026-03-28T12:10:01.606Z</time></trkpt><trkpt lat="39.2211356" lon="16.8257301"><ele>177.0</ele><time>2026-03-28T12:10:02.617Z</time></trkpt><trkpt lat="39.2210657" lon="16.825807"><ele>177.0</ele><time>2026-03-28T12:10:03.606Z</time></trkpt><trkpt lat="39.2209844" lon="16.825892"><ele>177.0</ele><time>2026-03-28T12:10:04.616Z</time></trkpt><trkpt lat="39.2209072" lon="16.8259595"><ele>177.0</ele><time>2026-03-28T12:10:05.607Z</time></trkpt><trkpt lat="39.220837" lon="16.8260068"><ele>177.0</ele><time>2026-03-28T12:10:06.609Z</time></trkpt><trkpt lat="39.2207731" lon="16.8260348"><ele>177.0</ele><time>2026-03-28T12:10:07.608Z</time></trkpt><trkpt lat="39.2206574" lon="16.8260631"><ele>177.14285714285714</ele><time>2026-03-28T12:10:09.605Z</time></trkpt><trkpt lat="39.2205897" lon="16.8260716"><ele>177.28571428571428</ele><time>2026-03-28T12:10:10.608Z</time></trkpt><trkpt lat="39.220521" lon="16.8260598"><ele>177.42857142857142</ele><time>2026-03-28T12:10:11.607Z</time></trkpt><trkpt lat="39.2204582" lon="16.8260229"><ele>177.57142857142856</ele><time>2026-03-28T12:10:12.605Z</time></trkpt><trkpt lat="39.2204097" lon="16.825954"><ele>177.71428571428572</ele><time>2026-03-28T12:10:13.605Z</time></trkpt><trkpt lat="39.2203575" lon="16.8258847"><ele>177.85714285714283</ele><time>2026-03-28T12:10:14.61Z</time></trkpt><trkpt lat="39.2202884" lon="16.8258415"><ele>178.0</ele><time>2026-03-28T12:10:15.607Z</time></trkpt><trkpt lat="39.2202098" lon="16.8258463"><ele>178.0</ele><time>2026-03-28T12:10:16.611Z</time></trkpt><trkpt lat="39.2201293" lon="16.8258922"><ele>178.0</ele><time>2026-03-28T12:10:17.615Z</time></trkpt><trkpt lat="39.2200431" lon="16.8259701"><ele>178.0</ele><time>2026-03-28T12:10:18.611Z</time></trkpt><trkpt lat="39.2199635" lon="16.8260406"><ele>178.0</ele><time>2026-03-28T12:10:19.603Z</time></trkpt><trkpt lat="39.2198853" lon="16.8260824"><ele>178.0</ele><time>2026-03-28T12:10:20.607Z</time></trkpt><trkpt lat="39.2198096" lon="16.8260854"><ele>177.5</ele><time>2026-03-28T12:10:21.616Z</time></trkpt><trkpt lat="39.2197458" lon="16.8260496"><ele>177.0</ele><time>2026-03-28T12:10:22.603Z</time></trkpt><trkpt lat="39.2196796" lon="16.8260029"><ele>176.5</ele><time>2026-03-28T12:10:23.604Z</time></trkpt><trkpt lat="39.2196097" lon="16.8259511"><ele>176.0</ele><time>2026-03-28T12:10:24.619Z</time></trkpt><trkpt lat="39.2195356" lon="16.8258965"><ele>175.5</ele><time>2026-03-28T12:10:25.611Z</time></trkpt><trkpt lat="39.2194574" lon="16.8258426"><ele>175.0</ele><time>2026-03-28T12:10:26.614Z</time></trkpt><trkpt lat="39.2193799" lon="16.8258086"><ele>174.6</ele><time>2026-03-28T12:10:27.601Z</time></trkpt><trkpt lat="39.2192983" lon="16.8257989"><ele>174.2</ele><time>2026-03-28T12:10:28.611Z</time></trkpt><trkpt lat="39.2192138" lon="16.8258196"><ele>173.8</ele><time>2026-03-28T12:10:29.608Z</time></trkpt><trkpt lat="39.2191312" lon="16.8258652"><ele>173.4</ele><time>2026-03-28T12:10:30.601Z</time></trkpt><trkpt lat="39.2190489" lon="16.825928"><ele>173.0</ele><time>2026-03-28T12:10:31.616Z</time></trkpt><trkpt lat="39.2189658" lon="16.8260018"><ele>172.2</ele><time>2026-03-28T12:10:32.618Z</time></trkpt><trkpt lat="39.2188863" lon="16.8260867"><ele>171.4</ele><time>2026-03-28T12:10:33.607Z</time></trkpt><trkpt lat="39.2188109" lon="16.826176"><ele>170.6</ele><time>2026-03-28T12:10:34.604Z</time></trkpt><trkpt lat="39.2187349" lon="16.8262625"><ele>169.79999999999998</ele><time>2026-03-28T12:10:35.611Z</time></trkpt><trkpt lat="39.2186621" lon="16.8263408"><ele>169.0</ele><time>2026-03-28T12:10:36.613Z</time></trkpt><trkpt lat="39.218593" lon="16.8264124"><ele>169.0</ele><time>2026-03-28T12:10:37.617Z</time></trkpt><trkpt lat="39.2185243" lon="16.8264832"><ele>169.0</ele><time>2026-03-28T12:10:38.603Z</time></trkpt><trkpt lat="39.2184572" lon="16.8265518"><ele>169.0</ele><time>2026-03-28T12:10:39.617Z</time></trkpt><trkpt lat="39.2183913" lon="16.826618"><ele>169.0</ele><time>2026-03-28T12:10:40.619Z</time></trkpt><trkpt lat="39.2183307" lon="16.8266818"><ele>169.0</ele><time>2026-03-28T12:10:41.616Z</time></trkpt><trkpt lat="39.2182782" lon="16.8267419"><ele>169.0</ele><time>2026-03-28T12:10:42.606Z</time></trkpt><trkpt lat="39.2182304" lon="16.8268004"><ele>168.0</ele><time>2026-03-28T12:10:43.614Z</time></trkpt><trkpt lat="39.2181621" lon="16.826935"><ele>167.0</ele><time>2026-03-28T12:10:45.61Z</time></trkpt><trkpt lat="39.2181543" lon="16.8270164"><ele>166.0</ele><time>2026-03-28T12:10:46.603Z</time></trkpt><trkpt lat="39.2181712" lon="16.8271032"><ele>165.0</ele><time>2026-03-28T12:10:47.623Z</time></trkpt><trkpt lat="39.218214" lon="16.8272015"><ele>164.0</ele><time>2026-03-28T12:10:48.617Z</time></trkpt><trkpt lat="39.2182667" lon="16.8272994"><ele>163.0</ele><time>2026-03-28T12:10:49.606Z</time></trkpt><trkpt lat="39.2183218" lon="16.8273858"><ele>163.0</ele><time>2026-03-28T12:10:50.612Z</time></trkpt><trkpt lat="39.2183764" lon="16.8274666"><ele>163.0</ele><time>2026-03-28T12:10:51.609Z</time></trkpt><trkpt lat="39.2184334" lon="16.8275549"><ele>163.0</ele><time>2026-03-28T12:10:52.623Z</time></trkpt><trkpt lat="39.218485" lon="16.8276459"><ele>163.0</ele><time>2026-03-28T12:10:53.616Z</time></trkpt><trkpt lat="39.2185234" lon="16.8277466"><ele>163.0</ele><time>2026-03-28T12:10:54.603Z</time></trkpt><trkpt lat="39.2185427" lon="16.8278565"><ele>163.0</ele><time>2026-03-28T12:10:55.613Z</time></trkpt><trkpt lat="39.2185428" lon="16.82796"><ele>161.83333333333334</ele><time>2026-03-28T12:10:56.615Z</time></trkpt><trkpt lat="39.2185439" lon="16.8280544"><ele>160.66666666666669</ele><time>2026-03-28T12:10:57.605Z</time></trkpt><trkpt lat="39.2185506" lon="16.8281402"><ele>159.5</ele><time>2026-03-28T12:10:58.612Z</time></trkpt><trkpt lat="39.2185932" lon="16.8282929"><ele>158.33333333333334</ele><time>2026-03-28T12:11:00.604Z</time></trkpt><trkpt lat="39.2186272" lon="16.8283678"><ele>157.16666666666666</ele><time>2026-03-28T12:11:01.615Z</time></trkpt><trkpt lat="39.2186674" lon="16.8284426"><ele>156.0</ele><time>2026-03-28T12:11:02.61Z</time></trkpt><trkpt lat="39.2187116" lon="16.8285192"><ele>155.5</ele><time>2026-03-28T12:11:03.607Z</time></trkpt><trkpt lat="39.2187611" lon="16.8285997"><ele>155.0</ele><time>2026-03-28T12:11:04.605Z</time></trkpt><trkpt lat="39.2188176" lon="16.8286789"><ele>154.5</ele><time>2026-03-28T12:11:05.603Z</time></trkpt><trkpt lat="39.2188815" lon="16.8287512"><ele>154.0</ele><time>2026-03-28T12:11:06.615Z</time></trkpt><trkpt lat="39.218952" lon="16.8288192"><ele>153.5</ele><time>2026-03-28T12:11:07.611Z</time></trkpt><trkpt lat="39.2190254" lon="16.8288859"><ele>153.0</ele><time>2026-03-28T12:11:08.613Z</time></trkpt><trkpt lat="39.219098" lon="16.8289523"><ele>153.0</ele><time>2026-03-28T12:11:09.604Z</time></trkpt><trkpt lat="39.2191624" lon="16.8290086"><ele>153.0</ele><time>2026-03-28T12:11:10.607Z</time></trkpt><trkpt lat="39.219219" lon="16.829063"><ele>153.0</ele><time>2026-03-28T12:11:11.608Z</time></trkpt><trkpt lat="39.2192692" lon="16.8291255"><ele>153.0</ele><time>2026-03-28T12:11:12.626Z</time></trkpt><trkpt lat="39.2193119" lon="16.8291972"><ele>153.0</ele><time>2026-03-28T12:11:13.621Z</time></trkpt><trkpt lat="39.2193483" lon="16.8292796"><ele>153.0</ele><time>2026-03-28T12:11:14.601Z</time></trkpt><trkpt lat="39.2193836" lon="16.8293603"><ele>153.0</ele><time>2026-03-28T12:11:15.621Z</time></trkpt><trkpt lat="39.2194195" lon="16.8294408"><ele>152.0</ele><time>2026-03-28T12:11:16.61Z</time></trkpt><trkpt lat="39.2194616" lon="16.8295139"><ele>151.0</ele><time>2026-03-28T12:11:17.609Z</time></trkpt><trkpt lat="39.2195142" lon="16.8295767"><ele>150.0</ele><time>2026-03-28T12:11:18.612Z</time></trkpt><trkpt lat="39.2195689" lon="16.829621"><ele>149.0</ele><time>2026-03-28T12:11:19.618Z</time></trkpt><trkpt lat="39.2196565" lon="16.8297094"><ele>148.0</ele><time>2026-03-28T12:11:21.604Z</time></trkpt><trkpt lat="39.2196962" lon="16.8298296"><ele>147.0</ele><time>2026-03-28T12:11:23.607Z</time></trkpt><trkpt lat="39.2196433" lon="16.8299714"><ele>147.0</ele><time>2026-03-28T12:11:25.604Z</time></trkpt><trkpt lat="39.2195937" lon="16.8300414"><ele>147.0</ele><time>2026-03-28T12:11:26.622Z</time></trkpt><trkpt lat="39.2195342" lon="16.8300965"><ele>147.0</ele><time>2026-03-28T12:11:27.613Z</time></trkpt><trkpt lat="39.2194676" lon="16.8301391"><ele>147.0</ele><time>2026-03-28T12:11:28.597Z</time></trkpt><trkpt lat="39.2193936" lon="16.8301832"><ele>147.0</ele><time>2026-03-28T12:11:29.62Z</time></trkpt><trkpt lat="39.2193165" lon="16.830233"><ele>147.0</ele><time>2026-03-28T12:11:30.613Z</time></trkpt><trkpt lat="39.2192421" lon="16.8302869"><ele>146.66666666666666</ele><time>2026-03-28T12:11:31.602Z</time></trkpt><trkpt lat="39.2191739" lon="16.8303352"><ele>146.33333333333334</ele><time>2026-03-28T12:11:32.611Z</time></trkpt><trkpt lat="39.2191246" lon="16.8303948"><ele>146.0</ele><time>2026-03-28T12:11:33.61Z</time></trkpt><trkpt lat="39.2190836" lon="16.830472"><ele>145.66666666666669</ele><time>2026-03-28T12:11:34.607Z</time></trkpt><trkpt lat="39.2190261" lon="16.8305956"><ele>145.33333333333334</ele><time>2026-03-28T12:11:36.606Z</time></trkpt><trkpt lat="39.2189961" lon="16.8306738"><ele>145.0</ele><time>2026-03-28T12:11:38.607Z</time></trkpt><trkpt lat="39.218955" lon="16.8307633"><ele>144.33333333333334</ele><time>2026-03-28T12:11:41.606Z</time></trkpt><trkpt lat="39.218909" lon="16.8308618"><ele>143.66666666666669</ele><time>2026-03-28T12:11:44.613Z</time></trkpt><trkpt lat="39.2188827" lon="16.8309528"><ele>143.0</ele><time>2026-03-28T12:11:47.615Z</time></trkpt><trkpt lat="39.2188604" lon="16.8310426"><ele>142.33333333333334</ele><time>2026-03-28T12:11:50.621Z</time></trkpt><trkpt lat="39.2188456" lon="16.8311378"><ele>141.66666666666666</ele><time>2026-03-28T12:11:55.615Z</time></trkpt><trkpt lat="39.2188265" lon="16.8312348"><ele>141.0</ele><time>2026-03-28T12:11:58.613Z</time></trkpt><trkpt lat="39.2188132" lon="16.8313273"><ele>141.14285714285714</ele><time>2026-03-28T12:12:01.615Z</time></trkpt><trkpt lat="39.2187833" lon="16.8314019"><ele>141.28571428571428</ele><time>2026-03-28T12:12:03.602Z</time></trkpt><trkpt lat="39.2187549" lon="16.8314763"><ele>141.42857142857142</ele><time>2026-03-28T12:12:05.617Z</time></trkpt><trkpt lat="39.2187115" lon="16.831566"><ele>141.57142857142856</ele><time>2026-03-28T12:12:08.61Z</time></trkpt><trkpt lat="39.2186851" lon="16.8316517"><ele>141.7142857142857</ele><time>2026-03-28T12:12:10.602Z</time></trkpt><trkpt lat="39.2186513" lon="16.8317522"><ele>141.85714285714286</ele><time>2026-03-28T12:12:13.619Z</time></trkpt><trkpt lat="39.2186268" lon="16.8318287"><ele>142.0</ele><time>2026-03-28T12:12:16.617Z</time></trkpt><trkpt lat="39.2185854" lon="16.8319149"><ele>142.0</ele><time>2026-03-28T12:12:21.609Z</time></trkpt><trkpt lat="39.2185443" lon="16.8319969"><ele>142.0</ele><time>2026-03-28T12:12:30.626Z</time></trkpt><trkpt lat="39.2184897" lon="16.8320786"><ele>142.0</ele><time>2026-03-28T12:12:33.608Z</time></trkpt><trkpt lat="39.2184301" lon="16.8321377"><ele>142.0</ele><time>2026-03-28T12:12:36.612Z</time></trkpt><trkpt lat="39.2183723" lon="16.8321864"><ele>142.0</ele><time>2026-03-28T12:12:39.615Z</time></trkpt><trkpt lat="39.2183106" lon="16.8322406"><ele>142.0</ele><time>2026-03-28T12:12:43.608Z</time></trkpt><trkpt lat="39.2182616" lon="16.8323075"><ele>142.0</ele><time>2026-03-28T12:13:55.641Z</time></trkpt><trkpt lat="39.2181998" lon="16.8323664"><ele>141.66666666666669</ele><time>2026-03-28T12:13:57.612Z</time></trkpt><trkpt lat="39.2181374" lon="16.8324278"><ele>141.33333333333334</ele><time>2026-03-28T12:13:59.609Z</time></trkpt><trkpt lat="39.2181055" lon="16.8325034"><ele>141.0</ele><time>2026-03-28T12:14:01.613Z</time></trkpt><trkpt lat="39.2180909" lon="16.8326033"><ele>140.66666666666666</ele><time>2026-03-28T12:14:04.632Z</time></trkpt><trkpt lat="39.2181054" lon="16.8326898"><ele>140.33333333333331</ele><time>2026-03-28T12:14:06.614Z</time></trkpt><trkpt lat="39.2181367" lon="16.8327951"><ele>140.0</ele><time>2026-03-28T12:14:08.616Z</time></trkpt><trkpt lat="39.2181495" lon="16.8328928"><ele>140.0</ele><time>2026-03-28T12:14:11.622Z</time></trkpt><trkpt lat="39.2180987" lon="16.832974"><ele>140.0</ele><time>2026-03-28T12:14:21.617Z</time></trkpt><trkpt lat="39.2180773" lon="16.8330577"><ele>140.0</ele><time>2026-03-28T12:14:29.615Z</time></trkpt><trkpt lat="39.2180517" lon="16.8331378"><ele>140.0</ele><time>2026-03-28T12:14:32.622Z</time></trkpt><trkpt lat="39.2180267" lon="16.8332319"><ele>140.0</ele><time>2026-03-28T12:14:34.609Z</time></trkpt><trkpt lat="39.2179794" lon="16.8333487"><ele>140.0</ele><time>2026-03-28T12:14:36.604Z</time></trkpt><trkpt lat="39.217946" lon="16.8334417"><ele>139.5</ele><time>2026-03-28T12:14:38.611Z</time></trkpt><trkpt lat="39.2179539" lon="16.8335353"><ele>139.0</ele><time>2026-03-28T12:14:42.619Z</time></trkpt><trkpt lat="39.2179794" lon="16.8336134"><ele>138.5</ele><time>2026-03-28T12:14:49.614Z</time></trkpt><trkpt lat="39.2179961" lon="16.8337452"><ele>138.0</ele><time>2026-03-28T12:15:38.61Z</time></trkpt><trkpt lat="39.2179826" lon="16.8338342"><ele>137.5</ele><time>2026-03-28T12:15:40.616Z</time></trkpt><trkpt lat="39.2179273" lon="16.8339243"><ele>137.0</ele><time>2026-03-28T12:15:42.602Z</time></trkpt><trkpt lat="39.2178285" lon="16.8340168"><ele>137.0</ele><time>2026-03-28T12:15:44.602Z</time></trkpt><trkpt lat="39.2177591" lon="16.8341247"><ele>137.0</ele><time>2026-03-28T12:15:46.612Z</time></trkpt><trkpt lat="39.2177559" lon="16.8342124"><ele>137.0</ele><time>2026-03-28T12:15:47.606Z</time></trkpt><trkpt lat="39.217775" lon="16.8343215"><ele>137.0</ele><time>2026-03-28T12:15:48.612Z</time></trkpt><trkpt lat="39.2178018" lon="16.8344393"><ele>137.0</ele><time>2026-03-28T12:15:49.616Z</time></trkpt><trkpt lat="39.2178292" lon="16.8345537"><ele>136.83333333333331</ele><time>2026-03-28T12:15:50.617Z</time></trkpt><trkpt lat="39.2178536" lon="16.8346624"><ele>136.66666666666666</ele><time>2026-03-28T12:15:51.612Z</time></trkpt><trkpt lat="39.2178752" lon="16.8347699"><ele>136.5</ele><time>2026-03-28T12:15:52.628Z</time></trkpt><trkpt lat="39.2178923" lon="16.8348684"><ele>136.33333333333334</ele><time>2026-03-28T12:15:53.607Z</time></trkpt><trkpt lat="39.2179115" lon="16.8350017"><ele>136.16666666666669</ele><time>2026-03-28T12:15:55.621Z</time></trkpt><trkpt lat="39.2178979" lon="16.8351101"><ele>136.0</ele><time>2026-03-28T12:15:57.608Z</time></trkpt><trkpt lat="39.2178491" lon="16.835254"><ele>135.83333333333334</ele><time>2026-03-28T12:15:59.624Z</time></trkpt><trkpt lat="39.2178178" lon="16.8353655"><ele>135.66666666666669</ele><time>2026-03-28T12:16:01.606Z</time></trkpt><trkpt lat="39.2178152" lon="16.8354688"><ele>135.5</ele><time>2026-03-28T12:16:03.611Z</time></trkpt><trkpt lat="39.2178221" lon="16.8355723"><ele>135.33333333333334</ele><time>2026-03-28T12:16:05.621Z</time></trkpt><trkpt lat="39.2178302" lon="16.8357043"><ele>135.16666666666666</ele><time>2026-03-28T12:16:07.604Z</time></trkpt><trkpt lat="39.2178167" lon="16.835812"><ele>135.0</ele><time>2026-03-28T12:16:09.618Z</time></trkpt><trkpt lat="39.2177298" lon="16.8358949"><ele>135.0</ele><time>2026-03-28T12:16:11.619Z</time></trkpt><trkpt lat="39.2176671" lon="16.8359307"><ele>135.0</ele><time>2026-03-28T12:16:12.605Z</time></trkpt><trkpt lat="39.2176046" lon="16.8359871"><ele>135.0</ele><time>2026-03-28T12:16:13.616Z</time></trkpt><trkpt lat="39.2175443" lon="16.8360438"><ele>135.0</ele><time>2026-03-28T12:16:14.607Z</time></trkpt><trkpt lat="39.2174679" lon="16.836127"><ele>135.0</ele><time>2026-03-28T12:16:16.619Z</time></trkpt><trkpt lat="39.2175137" lon="16.8362447"><ele>135.0</ele><time>2026-03-28T12:16:18.605Z</time></trkpt><trkpt lat="39.2175341" lon="16.8363799"><ele>135.2</ele><time>2026-03-28T12:16:20.629Z</time></trkpt><trkpt lat="39.2175138" lon="16.8364996"><ele>135.4</ele><time>2026-03-28T12:16:22.615Z</time></trkpt><trkpt lat="39.2174756" lon="16.8366136"><ele>135.6</ele><time>2026-03-28T12:16:24.601Z</time></trkpt><trkpt lat="39.2173983" lon="16.836725"><ele>135.8</ele><time>2026-03-28T12:16:26.619Z</time></trkpt><trkpt lat="39.217328" lon="16.8368351"><ele>136.0</ele><time>2026-03-28T12:16:28.607Z</time></trkpt><trkpt lat="39.2172718" lon="16.8369497"><ele>138.16666666666669</ele><time>2026-03-28T12:16:30.622Z</time></trkpt><trkpt lat="39.2172361" lon="16.8370338"><ele>140.33333333333334</ele><time>2026-03-28T12:16:32.622Z</time></trkpt><trkpt lat="39.2172047" lon="16.8371389"><ele>142.5</ele><time>2026-03-28T12:16:35.626Z</time></trkpt><trkpt lat="39.2172004" lon="16.8372358"><ele>144.66666666666666</ele><time>2026-03-28T12:16:38.61Z</time></trkpt><trkpt lat="39.2172045" lon="16.8373448"><ele>146.83333333333331</ele><time>2026-03-28T12:16:43.606Z</time></trkpt><trkpt lat="39.2172163" lon="16.8374415"><ele>149.0</ele><time>2026-03-28T12:16:58.612Z</time></trkpt><trkpt lat="39.2172294" lon="16.837533"><ele>149.0</ele><time>2026-03-28T12:17:01.608Z</time></trkpt><trkpt lat="39.2172467" lon="16.8376138"><ele>149.0</ele><time>2026-03-28T12:17:04.614Z</time></trkpt><trkpt lat="39.2172477" lon="16.8377128"><ele>149.0</ele><time>2026-03-28T12:17:11.608Z</time></trkpt><trkpt lat="39.2172596" lon="16.8378049"><ele>149.0</ele><time>2026-03-28T12:17:18.615Z</time></trkpt><trkpt lat="39.2172851" lon="16.8378819"><ele>149.0</ele><time>2026-03-28T12:17:21.613Z</time></trkpt><trkpt lat="39.2173268" lon="16.8379483"><ele>149.0</ele><time>2026-03-28T12:17:23.607Z</time></trkpt><trkpt lat="39.2173643" lon="16.8380485"><ele>149.0</ele><time>2026-03-28T12:17:25.632Z</time></trkpt><trkpt lat="39.2174119" lon="16.8381513"><ele>146.66666666666666</ele><time>2026-03-28T12:17:27.604Z</time></trkpt><trkpt lat="39.2174763" lon="16.8382354"><ele>144.33333333333331</ele><time>2026-03-28T12:17:29.613Z</time></trkpt><trkpt lat="39.2175308" lon="16.8383077"><ele>142.0</ele><time>2026-03-28T12:17:31.61Z</time></trkpt><trkpt lat="39.2175722" lon="16.8384226"><ele>139.66666666666666</ele><time>2026-03-28T12:17:33.611Z</time></trkpt><trkpt lat="39.2176574" lon="16.8384715"><ele>137.33333333333334</ele><time>2026-03-28T12:17:35.621Z</time></trkpt><trkpt lat="39.2177194" lon="16.8385274"><ele>135.0</ele><time>2026-03-28T12:17:37.619Z</time></trkpt><trkpt lat="39.2177756" lon="16.8385705"><ele>135.0</ele><time>2026-03-28T12:17:40.617Z</time></trkpt><trkpt lat="39.2178365" lon="16.838613"><ele>135.0</ele><time>2026-03-28T12:17:50.614Z</time></trkpt><trkpt lat="39.2178996" lon="16.8386014"><ele>135.0</ele><time>2026-03-28T12:17:55.611Z</time></trkpt><trkpt lat="39.2179957" lon="16.8386075"><ele>135.0</ele><time>2026-03-28T12:18:04.614Z</time></trkpt><trkpt lat="39.2180623" lon="16.8386251"><ele>135.0</ele><time>2026-03-28T12:18:09.616Z</time></trkpt><trkpt lat="39.218134" lon="16.8386343"><ele>135.0</ele><time>2026-03-28T12:18:20.618Z</time></trkpt><trkpt lat="39.2181755" lon="16.8387013"><ele>135.0</ele><time>2026-03-28T12:18:27.615Z</time></trkpt><trkpt lat="39.2181925" lon="16.8387813"><ele>135.0</ele><time>2026-03-28T12:18:34.613Z</time></trkpt><trkpt lat="39.2182259" lon="16.8388745"><ele>135.0</ele><time>2026-03-28T12:18:39.617Z</time></trkpt><trkpt lat="39.2182493" lon="16.8389612"><ele>135.0</ele><time>2026-03-28T12:18:44.608Z</time></trkpt><trkpt lat="39.2182423" lon="16.8390469"><ele>135.0</ele><time>2026-03-28T12:18:51.613Z</time></trkpt><trkpt lat="39.2182136" lon="16.8391209"><ele>135.0</ele><time>2026-03-28T12:18:58.619Z</time></trkpt><trkpt lat="39.2182345" lon="16.8392042"><ele>135.0</ele><time>2026-03-28T12:19:04.619Z</time></trkpt><trkpt lat="39.218239" lon="16.8392957"><ele>135.0</ele><time>2026-03-28T12:19:20.607Z</time></trkpt><trkpt lat="39.218218" lon="16.8393878"><ele>135.0</ele><time>2026-03-28T12:19:24.611Z</time></trkpt><trkpt lat="39.2182474" lon="16.839488"><ele>135.0</ele><time>2026-03-28T12:19:28.605Z</time></trkpt><trkpt lat="39.2183165" lon="16.8395382"><ele>135.0</ele><time>2026-03-28T12:19:31.627Z</time></trkpt><trkpt lat="39.2183785" lon="16.8395835"><ele>135.0</ele><time>2026-03-28T12:19:35.612Z</time></trkpt><trkpt lat="39.2184585" lon="16.8395867"><ele>135.0</ele><time>2026-03-28T12:19:40.616Z</time></trkpt><trkpt lat="39.2185332" lon="16.8396114"><ele>135.0</ele><time>2026-03-28T12:19:44.615Z</time></trkpt><trkpt lat="39.2185726" lon="16.8396901"><ele>135.0</ele><time>2026-03-28T12:19:54.612Z</time></trkpt><trkpt lat="39.2186197" lon="16.8397498"><ele>135.0</ele><time>2026-03-28T12:19:59.611Z</time></trkpt><trkpt lat="39.2186642" lon="16.8398087"><ele>135.0</ele><time>2026-03-28T12:20:04.614Z</time></trkpt><trkpt lat="39.2186238" lon="16.839895"><ele>135.0</ele><time>2026-03-28T12:20:10.615Z</time></trkpt><trkpt lat="39.2185656" lon="16.8399902"><ele>135.0</ele><time>2026-03-28T12:20:14.615Z</time></trkpt><trkpt lat="39.2185687" lon="16.8401029"><ele>135.0</ele><time>2026-03-28T12:20:20.606Z</time></trkpt><trkpt lat="39.2185975" lon="16.8402417"><ele>138.33333333333334</ele><time>2026-03-28T12:20:22.623Z</time></trkpt><trkpt lat="39.2186309" lon="16.8403365"><ele>141.66666666666666</ele><time>2026-03-28T12:20:23.609Z</time></trkpt><trkpt lat="39.2186742" lon="16.8404327"><ele>145.0</ele><time>2026-03-28T12:20:24.607Z</time></trkpt><trkpt lat="39.2187235" lon="16.8405075"><ele>148.33333333333331</ele><time>2026-03-28T12:20:25.611Z</time></trkpt><trkpt lat="39.2187783" lon="16.8405759"><ele>151.66666666666666</ele><time>2026-03-28T12:20:26.611Z</time></trkpt><trkpt lat="39.2188453" lon="16.840646"><ele>155.0</ele><time>2026-03-28T12:20:27.602Z</time></trkpt><trkpt lat="39.2189123" lon="16.8407238"><ele>155.0</ele><time>2026-03-28T12:20:28.609Z</time></trkpt><trkpt lat="39.2189654" lon="16.8407711"><ele>155.0</ele><time>2026-03-28T12:20:29.615Z</time></trkpt><trkpt lat="39.2190243" lon="16.8408181"><ele>155.0</ele><time>2026-03-28T12:20:31.602Z</time></trkpt><trkpt lat="39.2191004" lon="16.8408579"><ele>155.0</ele><time>2026-03-28T12:20:34.61Z</time></trkpt><trkpt lat="39.2191817" lon="16.8408691"><ele>155.0</ele><time>2026-03-28T12:20:37.609Z</time></trkpt><trkpt lat="39.2192457" lon="16.8409288"><ele>155.0</ele><time>2026-03-28T12:20:40.616Z</time></trkpt><trkpt lat="39.2193024" lon="16.8410055"><ele>154.16666666666666</ele><time>2026-03-28T12:20:43.606Z</time></trkpt><trkpt lat="39.2193661" lon="16.8410451"><ele>153.33333333333331</ele><time>2026-03-28T12:20:46.609Z</time></trkpt><trkpt lat="39.219414" lon="16.84112"><ele>152.5</ele><time>2026-03-28T12:20:50.618Z</time></trkpt><trkpt lat="39.2194675" lon="16.8411843"><ele>151.66666666666666</ele><time>2026-03-28T12:20:58.62Z</time></trkpt><trkpt lat="39.2195176" lon="16.8412794"><ele>150.83333333333334</ele><time>2026-03-28T12:21:03.612Z</time></trkpt><trkpt lat="39.2195408" lon="16.8413849"><ele>150.0</ele><time>2026-03-28T12:21:06.608Z</time></trkpt><trkpt lat="39.2195776" lon="16.8414982"><ele>150.0</ele><time>2026-03-28T12:21:08.615Z</time></trkpt><trkpt lat="39.2196254" lon="16.8415895"><ele>150.0</ele><time>2026-03-28T12:21:11.607Z</time></trkpt><trkpt lat="39.2196456" lon="16.8416813"><ele>150.0</ele><time>2026-03-28T12:21:15.606Z</time></trkpt><trkpt lat="39.2196802" lon="16.841764"><ele>150.0</ele><time>2026-03-28T12:21:20.62Z</time></trkpt><trkpt lat="39.2197164" lon="16.8418337"><ele>150.0</ele><time>2026-03-28T12:21:23.611Z</time></trkpt><trkpt lat="39.2197534" lon="16.8419179"><ele>150.0</ele><time>2026-03-28T12:21:27.622Z</time></trkpt><trkpt lat="39.2198132" lon="16.8420111"><ele>148.16666666666666</ele><time>2026-03-28T12:21:30.623Z</time></trkpt><trkpt lat="39.2198783" lon="16.8420953"><ele>146.33333333333334</ele><time>2026-03-28T12:21:32.614Z</time></trkpt><trkpt lat="39.2199359" lon="16.8421604"><ele>144.5</ele><time>2026-03-28T12:21:35.612Z</time></trkpt><trkpt lat="39.2199905" lon="16.8422156"><ele>142.66666666666669</ele><time>2026-03-28T12:21:40.623Z</time></trkpt><trkpt lat="39.2200503" lon="16.842251"><ele>140.83333333333334</ele><time>2026-03-28T12:21:46.61Z</time></trkpt><trkpt lat="39.2201273" lon="16.8422705"><ele>139.0</ele><time>2026-03-28T12:21:50.614Z</time></trkpt><trkpt lat="39.2202099" lon="16.8422858"><ele>139.0</ele><time>2026-03-28T12:21:53.622Z</time></trkpt><trkpt lat="39.2202882" lon="16.842309"><ele>139.0</ele><time>2026-03-28T12:21:55.607Z</time></trkpt><trkpt lat="39.2203601" lon="16.8423546"><ele>139.0</ele><time>2026-03-28T12:21:57.61Z</time></trkpt><trkpt lat="39.2204151" lon="16.8423953"><ele>139.0</ele><time>2026-03-28T12:21:59.606Z</time></trkpt><trkpt lat="39.2204782" lon="16.8424699"><ele>139.0</ele><time>2026-03-28T12:22:19.614Z</time></trkpt><trkpt lat="39.2205177" lon="16.8425461"><ele>139.0</ele><time>2026-03-28T12:22:22.611Z</time></trkpt><trkpt lat="39.2205549" lon="16.8426178"><ele>139.0</ele><time>2026-03-28T12:22:25.61Z</time></trkpt><trkpt lat="39.2205851" lon="16.8426966"><ele>139.16666666666669</ele><time>2026-03-28T12:22:31.608Z</time></trkpt><trkpt lat="39.2206255" lon="16.842775"><ele>139.33333333333334</ele><time>2026-03-28T12:22:34.603Z</time></trkpt><trkpt lat="39.2206587" lon="16.8428499"><ele>139.5</ele><time>2026-03-28T12:22:38.603Z</time></trkpt><trkpt lat="39.2207147" lon="16.8429166"><ele>139.66666666666666</ele><time>2026-03-28T12:23:42.617Z</time></trkpt><trkpt lat="39.2207156" lon="16.8430498"><ele>139.83333333333331</ele><time>2026-03-28T12:24:12.618Z</time></trkpt><trkpt lat="39.2206705" lon="16.8431479"><ele>140.0</ele><time>2026-03-28T12:24:23.613Z</time></trkpt><trkpt lat="39.2206423" lon="16.8432367"><ele>140.0</ele><time>2026-03-28T12:24:27.618Z</time></trkpt><trkpt lat="39.2206488" lon="16.8433204"><ele>140.0</ele><time>2026-03-28T12:27:02.612Z</time></trkpt><trkpt lat="39.2206678" lon="16.843402"><ele>140.0</ele><time>2026-03-28T12:27:14.607Z</time></trkpt><trkpt lat="39.2206853" lon="16.8435082"><ele>140.0</ele><time>2026-03-28T12:27:17.621Z</time></trkpt><trkpt lat="39.2206795" lon="16.8435901"><ele>140.0</ele><time>2026-03-28T12:27:20.616Z</time></trkpt><trkpt lat="39.2206643" lon="16.8436743"><ele>140.0</ele><time>2026-03-28T12:27:32.613Z</time></trkpt><trkpt lat="39.2206493" lon="16.8437565"><ele>140.0</ele><time>2026-03-28T12:27:40.613Z</time></trkpt><trkpt lat="39.220718" lon="16.8437969"><ele>139.0</ele><time>2026-03-28T12:27:49.62Z</time></trkpt><trkpt lat="39.220783" lon="16.8438542"><ele>138.0</ele><time>2026-03-28T12:27:55.61Z</time></trkpt><trkpt lat="39.2208168" lon="16.8439398"><ele>137.0</ele><time>2026-03-28T12:27:58.618Z</time></trkpt><trkpt lat="39.2208294" lon="16.844021"><ele>136.0</ele><time>2026-03-28T12:28:01.611Z</time></trkpt><trkpt lat="39.2208354" lon="16.8441138"><ele>135.0</ele><time>2026-03-28T12:28:04.613Z</time></trkpt><trkpt lat="39.2208436" lon="16.8442134"><ele>134.0</ele><time>2026-03-28T12:28:07.613Z</time></trkpt><trkpt lat="39.2208829" lon="16.8443041"><ele>133.0</ele><time>2026-03-28T12:28:10.613Z</time></trkpt><trkpt lat="39.2209235" lon="16.8443978"><ele>133.0</ele><time>2026-03-28T12:28:13.606Z</time></trkpt><trkpt lat="39.2209422" lon="16.8444899"><ele>133.0</ele><time>2026-03-28T12:28:16.612Z</time></trkpt><trkpt lat="39.2209336" lon="16.844571"><ele>133.0</ele><time>2026-03-28T12:28:19.611Z</time></trkpt><trkpt lat="39.220925" lon="16.844652"><ele>133.0</ele><time>2026-03-28T12:28:22.625Z</time></trkpt><trkpt lat="39.220927" lon="16.8447376"><ele>133.0</ele><time>2026-03-28T12:28:25.612Z</time></trkpt><trkpt lat="39.2209699" lon="16.8448007"><ele>133.0</ele><time>2026-03-28T12:28:28.614Z</time></trkpt><trkpt lat="39.2210469" lon="16.844832"><ele>133.0</ele><time>2026-03-28T12:28:31.606Z</time></trkpt><trkpt lat="39.2211159" lon="16.8448741"><ele>133.0</ele><time>2026-03-28T12:28:34.619Z</time></trkpt><trkpt lat="39.2211875" lon="16.8448802"><ele>133.0</ele><time>2026-03-28T12:28:37.621Z</time></trkpt><trkpt lat="39.2212537" lon="16.8448743"><ele>133.0</ele><time>2026-03-28T12:28:40.612Z</time></trkpt><trkpt lat="39.221333" lon="16.8448883"><ele>133.0</ele><time>2026-03-28T12:28:44.607Z</time></trkpt><trkpt lat="39.2214078" lon="16.8449154"><ele>133.0</ele><time>2026-03-28T12:28:46.614Z</time></trkpt><trkpt lat="39.2214796" lon="16.8449387"><ele>133.0</ele><time>2026-03-28T12:28:48.607Z</time></trkpt><trkpt lat="39.2215414" lon="16.8449724"><ele>133.0</ele><time>2026-03-28T12:28:50.617Z</time></trkpt><trkpt lat="39.221616" lon="16.8450091"><ele>132.33333333333334</ele><time>2026-03-28T12:28:53.604Z</time></trkpt><trkpt lat="39.2217055" lon="16.8450032"><ele>131.66666666666669</ele><time>2026-03-28T12:28:56.612Z</time></trkpt><trkpt lat="39.2217768" lon="16.8450197"><ele>131.0</ele><time>2026-03-28T12:28:58.613Z</time></trkpt><trkpt lat="39.2218382" lon="16.8450523"><ele>130.33333333333334</ele><time>2026-03-28T12:29:00.614Z</time></trkpt><trkpt lat="39.2218906" lon="16.8450985"><ele>129.66666666666666</ele><time>2026-03-28T12:29:02.619Z</time></trkpt><trkpt lat="39.2219599" lon="16.8451933"><ele>129.0</ele><time>2026-03-28T12:29:05.604Z</time></trkpt><trkpt lat="39.2220266" lon="16.8452527"><ele>129.0</ele><time>2026-03-28T12:29:07.607Z</time></trkpt><trkpt lat="39.2221035" lon="16.8453232"><ele>129.0</ele><time>2026-03-28T12:29:09.625Z</time></trkpt><trkpt lat="39.2221772" lon="16.8453809"><ele>129.0</ele><time>2026-03-28T12:29:11.627Z</time></trkpt><trkpt lat="39.2222474" lon="16.8454335"><ele>129.0</ele><time>2026-03-28T12:29:13.614Z</time></trkpt><trkpt lat="39.2223129" lon="16.8454994"><ele>129.0</ele><time>2026-03-28T12:29:15.619Z</time></trkpt><trkpt lat="39.2223933" lon="16.8455255"><ele>129.0</ele><time>2026-03-28T12:29:18.618Z</time></trkpt><trkpt lat="39.2224654" lon="16.8455434"><ele>128.99999999999997</ele><time>2026-03-28T12:29:28.619Z</time></trkpt><trkpt lat="39.2225123" lon="16.8456008"><ele>129.0</ele><time>2026-03-28T12:29:31.6Z</time></trkpt><trkpt lat="39.2225251" lon="16.8456839"><ele>129.0</ele><time>2026-03-28T12:29:37.611Z</time></trkpt><trkpt lat="39.2225119" lon="16.8457671"><ele>129.0</ele><time>2026-03-28T12:29:44.617Z</time></trkpt><trkpt lat="39.222545" lon="16.8458451"><ele>129.0</ele><time>2026-03-28T12:29:47.617Z</time></trkpt><trkpt lat="39.2226144" lon="16.8458853"><ele>128.99999999999997</ele><time>2026-03-28T12:29:50.616Z</time></trkpt><trkpt lat="39.2226807" lon="16.8458766"><ele>129.0</ele><time>2026-03-28T12:29:53.607Z</time></trkpt><trkpt lat="39.2227483" lon="16.8459275"><ele>130.33333333333334</ele><time>2026-03-28T12:29:56.604Z</time></trkpt><trkpt lat="39.2227866" lon="16.846002"><ele>131.66666666666666</ele><time>2026-03-28T12:29:58.618Z</time></trkpt><trkpt lat="39.2228281" lon="16.8460926"><ele>133.0</ele><time>2026-03-28T12:30:00.613Z</time></trkpt><trkpt lat="39.222904" lon="16.8461649"><ele>134.33333333333331</ele><time>2026-03-28T12:30:02.614Z</time></trkpt><trkpt lat="39.2229667" lon="16.8462243"><ele>135.66666666666666</ele><time>2026-03-28T12:30:04.611Z</time></trkpt><trkpt lat="39.2230065" lon="16.8462969"><ele>137.0</ele><time>2026-03-28T12:30:06.613Z</time></trkpt><trkpt lat="39.2230509" lon="16.8464038"><ele>137.0</ele><time>2026-03-28T12:30:09.619Z</time></trkpt><trkpt lat="39.2230921" lon="16.8465057"><ele>137.0</ele><time>2026-03-28T12:30:12.613Z</time></trkpt><trkpt lat="39.2231252" lon="16.8466109"><ele>137.0</ele><time>2026-03-28T12:30:15.642Z</time></trkpt><trkpt lat="39.2231167" lon="16.8467205"><ele>137.0</ele><time>2026-03-28T12:30:18.62Z</time></trkpt><trkpt lat="39.2230573" lon="16.8468089"><ele>137.0</ele><time>2026-03-28T12:30:21.665Z</time></trkpt><trkpt lat="39.2230153" lon="16.8468952"><ele>137.0</ele><time>2026-03-28T12:30:24.662Z</time></trkpt><trkpt lat="39.2229828" lon="16.8469733"><ele>135.5</ele><time>2026-03-28T12:30:26.615Z</time></trkpt><trkpt lat="39.2229653" lon="16.8470795"><ele>134.0</ele><time>2026-03-28T12:30:29.622Z</time></trkpt><trkpt lat="39.2229486" lon="16.8471707"><ele>132.5</ele><time>2026-03-28T12:30:35.617Z</time></trkpt><trkpt lat="39.2228942" lon="16.8472361"><ele>131.0</ele><time>2026-03-28T12:30:42.616Z</time></trkpt><trkpt lat="39.2228516" lon="16.847311"><ele>129.5</ele><time>2026-03-28T12:30:48.61Z</time></trkpt><trkpt lat="39.2228111" lon="16.8473953"><ele>128.0</ele><time>2026-03-28T12:30:54.604Z</time></trkpt><trkpt lat="39.2227391" lon="16.8474173"><ele>128.0</ele><time>2026-03-28T12:30:57.613Z</time></trkpt><trkpt lat="39.2226747" lon="16.8473926"><ele>127.99999999999999</ele><time>2026-03-28T12:31:00.612Z</time></trkpt><trkpt lat="39.2226016" lon="16.8473939"><ele>128.0</ele><time>2026-03-28T12:31:03.619Z</time></trkpt><trkpt lat="39.2225301" lon="16.8474138"><ele>128.0</ele><time>2026-03-28T12:31:06.615Z</time></trkpt><trkpt lat="39.2224671" lon="16.8474759"><ele>127.99999999999999</ele><time>2026-03-28T12:31:10.619Z</time></trkpt><trkpt lat="39.2224913" lon="16.8475615"><ele>128.0</ele><time>2026-03-28T12:31:15.613Z</time></trkpt><trkpt lat="39.2225459" lon="16.8476268"><ele>128.0</ele><time>2026-03-28T12:31:17.61Z</time></trkpt><trkpt lat="39.2225839" lon="16.8477446"><ele>127.83333333333333</ele><time>2026-03-28T12:31:19.612Z</time></trkpt><trkpt lat="39.2225992" lon="16.8478694"><ele>127.66666666666666</ele><time>2026-03-28T12:31:21.606Z</time></trkpt><trkpt lat="39.2225915" lon="16.8479606"><ele>127.5</ele><time>2026-03-28T12:31:23.611Z</time></trkpt><trkpt lat="39.222565" lon="16.8480495"><ele>127.33333333333334</ele><time>2026-03-28T12:31:26.619Z</time></trkpt><trkpt lat="39.2225984" lon="16.848149"><ele>127.16666666666667</ele><time>2026-03-28T12:31:29.617Z</time></trkpt><trkpt lat="39.222628" lon="16.8482507"><ele>127.0</ele><time>2026-03-28T12:31:32.629Z</time></trkpt><trkpt lat="39.2226544" lon="16.8483462"><ele>127.00000000000001</ele><time>2026-03-28T12:31:35.618Z</time></trkpt><trkpt lat="39.2226826" lon="16.8484531"><ele>127.0</ele><time>2026-03-28T12:31:38.623Z</time></trkpt><trkpt lat="39.2226887" lon="16.8485454"><ele>127.0</ele><time>2026-03-28T12:31:40.612Z</time></trkpt><trkpt lat="39.2227092" lon="16.8486483"><ele>127.0</ele><time>2026-03-28T12:31:42.612Z</time></trkpt><trkpt lat="39.2227039" lon="16.8487369"><ele>127.00000000000001</ele><time>2026-03-28T12:31:44.612Z</time></trkpt><trkpt lat="39.2227541" lon="16.8488143"><ele>127.0</ele><time>2026-03-28T12:31:47.616Z</time></trkpt><trkpt lat="39.2228097" lon="16.8488762"><ele>128.57142857142858</ele><time>2026-03-28T12:32:03.614Z</time></trkpt><trkpt lat="39.222853" lon="16.8489411"><ele>130.14285714285714</ele><time>2026-03-28T12:32:06.61Z</time></trkpt><trkpt lat="39.2228921" lon="16.8490085"><ele>131.71428571428572</ele><time>2026-03-28T12:32:10.602Z</time></trkpt><trkpt lat="39.2229314" lon="16.8490839"><ele>133.28571428571428</ele><time>2026-03-28T12:32:15.615Z</time></trkpt><trkpt lat="39.2229706" lon="16.8491577"><ele>134.85714285714286</ele><time>2026-03-28T12:32:20.628Z</time></trkpt><trkpt lat="39.2230049" lon="16.84927"><ele>136.42857142857144</ele><time>2026-03-28T12:32:24.62Z</time></trkpt><trkpt lat="39.2230441" lon="16.8493463"><ele>138.0</ele><time>2026-03-28T12:32:26.611Z</time></trkpt><trkpt lat="39.2230248" lon="16.8494281"><ele>136.28571428571428</ele><time>2026-03-28T12:32:28.617Z</time></trkpt><trkpt lat="39.222968" lon="16.8494866"><ele>134.57142857142858</ele><time>2026-03-28T12:32:30.617Z</time></trkpt><trkpt lat="39.2229733" lon="16.8496004"><ele>132.85714285714286</ele><time>2026-03-28T12:32:33.605Z</time></trkpt><trkpt lat="39.2230004" lon="16.8496747"><ele>131.14285714285714</ele><time>2026-03-28T12:32:35.61Z</time></trkpt><trkpt lat="39.2230423" lon="16.8497422"><ele>129.42857142857144</ele><time>2026-03-28T12:32:37.608Z</time></trkpt><trkpt lat="39.2231014" lon="16.8497905"><ele>127.71428571428572</ele><time>2026-03-28T12:32:39.611Z</time></trkpt><trkpt lat="39.2231771" lon="16.849814"><ele>126.0</ele><time>2026-03-28T12:32:41.61Z</time></trkpt><trkpt lat="39.2232456" lon="16.8498651"><ele>126.0</ele><time>2026-03-28T12:32:43.608Z</time></trkpt><trkpt lat="39.2232784" lon="16.8499505"><ele>126.0</ele><time>2026-03-28T12:32:45.621Z</time></trkpt><trkpt lat="39.2233356" lon="16.8500488"><ele>126.0</ele><time>2026-03-28T12:32:47.6Z</time></trkpt><trkpt lat="39.2233808" lon="16.8501154"><ele>126.0</ele><time>2026-03-28T12:32:48.609Z</time></trkpt><trkpt lat="39.2234199" lon="16.8501807"><ele>126.0</ele><time>2026-03-28T12:32:49.628Z</time></trkpt><trkpt lat="39.2234376" lon="16.8502769"><ele>126.0</ele><time>2026-03-28T12:32:51.605Z</time></trkpt><trkpt lat="39.2234505" lon="16.8503596"><ele>126.0</ele><time>2026-03-28T12:32:54.61Z</time></trkpt><trkpt lat="39.2234765" lon="16.8504628"><ele>126.16666666666667</ele><time>2026-03-28T12:33:11.617Z</time></trkpt><trkpt lat="39.223516" lon="16.8505362"><ele>126.33333333333334</ele><time>2026-03-28T12:33:23.617Z</time></trkpt><trkpt lat="39.2235504" lon="16.8506198"><ele>126.5</ele><time>2026-03-28T12:33:27.606Z</time></trkpt><trkpt lat="39.2235367" lon="16.8507176"><ele>126.66666666666667</ele><time>2026-03-28T12:33:31.613Z</time></trkpt><trkpt lat="39.223523" lon="16.8508081"><ele>126.83333333333334</ele><time>2026-03-28T12:33:34.606Z</time></trkpt><trkpt lat="39.2235093" lon="16.8509223"><ele>127.0</ele><time>2026-03-28T12:33:37.612Z</time></trkpt><trkpt lat="39.2235053" lon="16.851023"><ele>126.14285714285714</ele><time>2026-03-28T12:33:43.618Z</time></trkpt><trkpt lat="39.2235162" lon="16.8511123"><ele>125.28571428571428</ele><time>2026-03-28T12:33:46.618Z</time></trkpt><trkpt lat="39.2235184" lon="16.8511983"><ele>124.42857142857142</ele><time>2026-03-28T12:33:49.62Z</time></trkpt><trkpt lat="39.2235137" lon="16.8512806"><ele>123.57142857142857</ele><time>2026-03-28T12:33:53.629Z</time></trkpt><trkpt lat="39.2235074" lon="16.8513873"><ele>122.7142857142857</ele><time>2026-03-28T12:33:58.619Z</time></trkpt><trkpt lat="39.2235026" lon="16.8514965"><ele>121.85714285714285</ele><time>2026-03-28T12:34:00.618Z</time></trkpt><trkpt lat="39.2235011" lon="16.8515978"><ele>121.0</ele><time>2026-03-28T12:34:02.613Z</time></trkpt><trkpt lat="39.2235106" lon="16.8516939"><ele>120.00000000000001</ele><time>2026-03-28T12:34:04.615Z</time></trkpt><trkpt lat="39.2235055" lon="16.8518019"><ele>119.0</ele><time>2026-03-28T12:34:06.617Z</time></trkpt><trkpt lat="39.2234966" lon="16.8519132"><ele>118.0</ele><time>2026-03-28T12:34:08.614Z</time></trkpt><trkpt lat="39.2234924" lon="16.8520391"><ele>117.0</ele><time>2026-03-28T12:34:10.614Z</time></trkpt><trkpt lat="39.2234839" lon="16.8521499"><ele>116.00000000000001</ele><time>2026-03-28T12:34:13.618Z</time></trkpt><trkpt lat="39.2234727" lon="16.852263"><ele>115.0</ele><time>2026-03-28T12:34:16.612Z</time></trkpt><trkpt lat="39.2234587" lon="16.8523532"><ele>115.00000000000001</ele><time>2026-03-28T12:34:18.611Z</time></trkpt><trkpt lat="39.2234249" lon="16.8524606"><ele>115.0</ele><time>2026-03-28T12:34:20.618Z</time></trkpt><trkpt lat="39.2233759" lon="16.8525504"><ele>115.0</ele><time>2026-03-28T12:34:22.609Z</time></trkpt><trkpt lat="39.2233385" lon="16.852633"><ele>115.0</ele><time>2026-03-28T12:34:24.614Z</time></trkpt><trkpt lat="39.2233089" lon="16.8527063"><ele>115.00000000000001</ele><time>2026-03-28T12:34:26.617Z</time></trkpt><trkpt lat="39.2232771" lon="16.8527806"><ele>115.0</ele><time>2026-03-28T12:34:28.615Z</time></trkpt><trkpt lat="39.2232512" lon="16.8528674"><ele>115.00000000000001</ele><time>2026-03-28T12:34:30.607Z</time></trkpt><trkpt lat="39.223212" lon="16.8529546"><ele>115.0</ele><time>2026-03-28T12:34:32.623Z</time></trkpt><trkpt lat="39.2231754" lon="16.8530407"><ele>115.0</ele><time>2026-03-28T12:34:34.605Z</time></trkpt><trkpt lat="39.2231386" lon="16.853142"><ele>115.0</ele><time>2026-03-28T12:34:36.612Z</time></trkpt><trkpt lat="39.2230895" lon="16.8532634"><ele>115.00000000000001</ele><time>2026-03-28T12:34:38.618Z</time></trkpt><trkpt lat="39.2230467" lon="16.8533805"><ele>115.0</ele><time>2026-03-28T12:34:40.615Z</time></trkpt><trkpt lat="39.2230032" lon="16.8534989"><ele>115.00000000000001</ele><time>2026-03-28T12:34:42.617Z</time></trkpt><trkpt lat="39.2229609" lon="16.8536149"><ele>115.0</ele><time>2026-03-28T12:34:44.616Z</time></trkpt><trkpt lat="39.222919" lon="16.8537192"><ele>115.0</ele><time>2026-03-28T12:34:46.615Z</time></trkpt><trkpt lat="39.2228757" lon="16.8538039"><ele>115.0</ele><time>2026-03-28T12:34:48.619Z</time></trkpt><trkpt lat="39.2228366" lon="16.8538721"><ele>115.00000000000001</ele><time>2026-03-28T12:34:50.618Z</time></trkpt><trkpt lat="39.2227924" lon="16.853951"><ele>115.0</ele><time>2026-03-28T12:34:53.635Z</time></trkpt><trkpt lat="39.2227442" lon="16.8540309"><ele>115.00000000000001</ele><time>2026-03-28T12:34:57.619Z</time></trkpt><trkpt lat="39.2226996" lon="16.8541059"><ele>115.0</ele><time>2026-03-28T12:35:16.635Z</time></trkpt><trkpt lat="39.2226415" lon="16.8541803"><ele>115.0</ele><time>2026-03-28T12:35:19.626Z</time></trkpt><trkpt lat="39.2225742" lon="16.8542568"><ele>115.0</ele><time>2026-03-28T12:35:22.612Z</time></trkpt><trkpt lat="39.2225237" lon="16.8543178"><ele>115.00000000000001</ele><time>2026-03-28T12:35:25.615Z</time></trkpt><trkpt lat="39.2224689" lon="16.8543692"><ele>115.0</ele><time>2026-03-28T12:35:28.616Z</time></trkpt><trkpt lat="39.2224137" lon="16.8544232"><ele>114.33333333333334</ele><time>2026-03-28T12:35:34.614Z</time></trkpt><trkpt lat="39.2223677" lon="16.8545148"><ele>113.66666666666667</ele><time>2026-03-28T12:35:38.619Z</time></trkpt><trkpt lat="39.2223209" lon="16.8545912"><ele>113.0</ele><time>2026-03-28T12:35:41.609Z</time></trkpt><trkpt lat="39.2222648" lon="16.8546722"><ele>112.33333333333334</ele><time>2026-03-28T12:35:44.616Z</time></trkpt><trkpt lat="39.2222043" lon="16.8547449"><ele>111.66666666666667</ele><time>2026-03-28T12:35:52.615Z</time></trkpt><trkpt lat="39.2221567" lon="16.8548382"><ele>111.0</ele><time>2026-03-28T12:35:55.614Z</time></trkpt><trkpt lat="39.2221132" lon="16.8549161"><ele>110.66666666666667</ele><time>2026-03-28T12:35:58.607Z</time></trkpt><trkpt lat="39.222073" lon="16.8550114"><ele>110.33333333333334</ele><time>2026-03-28T12:36:01.605Z</time></trkpt><trkpt lat="39.2220427" lon="16.855083"><ele>110.0</ele><time>2026-03-28T12:36:03.619Z</time></trkpt><trkpt lat="39.2220182" lon="16.8551891"><ele>109.66666666666667</ele><time>2026-03-28T12:36:06.616Z</time></trkpt><trkpt lat="39.2220051" lon="16.8552877"><ele>109.33333333333334</ele><time>2026-03-28T12:36:09.621Z</time></trkpt><trkpt lat="39.2219861" lon="16.8553904"><ele>109.0</ele><time>2026-03-28T12:36:12.614Z</time></trkpt><trkpt lat="39.2219715" lon="16.8554992"><ele>109.0</ele><time>2026-03-28T12:36:15.604Z</time></trkpt><trkpt lat="39.2219635" lon="16.8555903"><ele>109.0</ele><time>2026-03-28T12:36:18.61Z</time></trkpt><trkpt lat="39.2219633" lon="16.8556925"><ele>109.0</ele><time>2026-03-28T12:36:22.618Z</time></trkpt><trkpt lat="39.2219583" lon="16.8557776"><ele>109.0</ele><time>2026-03-28T12:36:26.609Z</time></trkpt><trkpt lat="39.2219444" lon="16.8558865"><ele>109.0</ele><time>2026-03-28T12:36:29.618Z</time></trkpt><trkpt lat="39.2219187" lon="16.8559673"><ele>109.0</ele><time>2026-03-28T12:36:31.61Z</time></trkpt><trkpt lat="39.2218894" lon="16.8560526"><ele>109.0</ele><time>2026-03-28T12:36:33.616Z</time></trkpt><trkpt lat="39.2218457" lon="16.8561458"><ele>108.80000000000001</ele><time>2026-03-28T12:36:35.605Z</time></trkpt><trkpt lat="39.2217873" lon="16.8562377"><ele>108.60000000000001</ele><time>2026-03-28T12:36:37.616Z</time></trkpt><trkpt lat="39.2217347" lon="16.8563227"><ele>108.4</ele><time>2026-03-28T12:36:39.608Z</time></trkpt><trkpt lat="39.2216696" lon="16.8564347"><ele>108.2</ele><time>2026-03-28T12:36:41.619Z</time></trkpt><trkpt lat="39.2216032" lon="16.8565657"><ele>108.0</ele><time>2026-03-28T12:36:43.621Z</time></trkpt><trkpt lat="39.2215368" lon="16.8566579"><ele>108.0</ele><time>2026-03-28T12:36:45.603Z</time></trkpt><trkpt lat="39.2214795" lon="16.8567201"><ele>108.0</ele><time>2026-03-28T12:36:47.615Z</time></trkpt><trkpt lat="39.2214131" lon="16.856798"><ele>108.0</ele><time>2026-03-28T12:36:49.614Z</time></trkpt><trkpt lat="39.221337" lon="16.8568708"><ele>108.0</ele><time>2026-03-28T12:36:51.61Z</time></trkpt><trkpt lat="39.2212597" lon="16.8569281"><ele>108.0</ele><time>2026-03-28T12:36:53.629Z</time></trkpt><trkpt lat="39.2212259" lon="16.8570051"><ele>108.0</ele><time>2026-03-28T12:36:55.61Z</time></trkpt><trkpt lat="39.2212018" lon="16.8570831"><ele>107.85714285714286</ele><time>2026-03-28T12:36:57.623Z</time></trkpt><trkpt lat="39.2211873" lon="16.8571811"><ele>107.71428571428571</ele><time>2026-03-28T12:36:59.622Z</time></trkpt><trkpt lat="39.2211685" lon="16.8572677"><ele>107.57142857142858</ele><time>2026-03-28T12:37:01.621Z</time></trkpt><trkpt lat="39.2211347" lon="16.857353"><ele>107.42857142857143</ele><time>2026-03-28T12:37:03.621Z</time></trkpt><trkpt lat="39.2210777" lon="16.857407"><ele>107.28571428571429</ele><time>2026-03-28T12:37:05.611Z</time></trkpt><trkpt lat="39.2210106" lon="16.8574838"><ele>107.14285714285715</ele><time>2026-03-28T12:37:08.61Z</time></trkpt><trkpt lat="39.2209824" lon="16.8575565"><ele>107.0</ele><time>2026-03-28T12:37:11.613Z</time></trkpt><trkpt lat="39.2209742" lon="16.8576378"><ele>107.28571428571429</ele><time>2026-03-28T12:37:31.619Z</time></trkpt><trkpt lat="39.2209598" lon="16.8577293"><ele>107.57142857142857</ele><time>2026-03-28T12:37:37.616Z</time></trkpt><trkpt lat="39.220942" lon="16.8578192"><ele>107.85714285714286</ele><time>2026-03-28T12:37:43.618Z</time></trkpt><trkpt lat="39.220921" lon="16.8579072"><ele>108.14285714285714</ele><time>2026-03-28T12:37:47.615Z</time></trkpt><trkpt lat="39.2208947" lon="16.8579851"><ele>108.42857142857143</ele><time>2026-03-28T12:37:50.617Z</time></trkpt><trkpt lat="39.2208615" lon="16.8580875"><ele>108.71428571428572</ele><time>2026-03-28T12:37:54.623Z</time></trkpt><trkpt lat="39.2208373" lon="16.8581682"><ele>109.0</ele><time>2026-03-28T12:37:56.622Z</time></trkpt><trkpt lat="39.2208041" lon="16.858263"><ele>109.00000000000001</ele><time>2026-03-28T12:37:58.625Z</time></trkpt><trkpt lat="39.2207806" lon="16.8583743"><ele>109.0</ele><time>2026-03-28T12:38:00.617Z</time></trkpt><trkpt lat="39.220759" lon="16.8584824"><ele>109.0</ele><time>2026-03-28T12:38:02.616Z</time></trkpt><trkpt lat="39.220727" lon="16.8585805"><ele>109.0</ele><time>2026-03-28T12:38:04.618Z</time></trkpt><trkpt lat="39.2206821" lon="16.8586521"><ele>109.00000000000001</ele><time>2026-03-28T12:38:08.616Z</time></trkpt><trkpt lat="39.2206517" lon="16.8587265"><ele>109.0</ele><time>2026-03-28T12:38:10.618Z</time></trkpt><trkpt lat="39.2206064" lon="16.8588434"><ele>108.66666666666667</ele><time>2026-03-28T12:38:13.621Z</time></trkpt><trkpt lat="39.2205816" lon="16.8589462"><ele>108.33333333333334</ele><time>2026-03-28T12:38:15.622Z</time></trkpt><trkpt lat="39.2205776" lon="16.8590332"><ele>108.0</ele><time>2026-03-28T12:38:17.62Z</time></trkpt><trkpt lat="39.2205744" lon="16.8591257"><ele>107.66666666666666</ele><time>2026-03-28T12:38:19.618Z</time></trkpt><trkpt lat="39.2205448" lon="16.8592286"><ele>107.33333333333333</ele><time>2026-03-28T12:38:21.61Z</time></trkpt><trkpt lat="39.220474" lon="16.8592775"><ele>107.0</ele><time>2026-03-28T12:38:23.625Z</time></trkpt><trkpt lat="39.2203869" lon="16.8592741"><ele>106.8</ele><time>2026-03-28T12:38:25.607Z</time></trkpt><trkpt lat="39.2202885" lon="16.8592845"><ele>106.6</ele><time>2026-03-28T12:38:27.607Z</time></trkpt><trkpt lat="39.2202009" lon="16.8593394"><ele>106.39999999999999</ele><time>2026-03-28T12:38:29.611Z</time></trkpt><trkpt lat="39.220103" lon="16.8594269"><ele>106.19999999999999</ele><time>2026-03-28T12:38:31.607Z</time></trkpt><trkpt lat="39.2200038" lon="16.8595242"><ele>106.0</ele><time>2026-03-28T12:38:33.609Z</time></trkpt><trkpt lat="39.2199139" lon="16.8596262"><ele>106.0</ele><time>2026-03-28T12:38:35.616Z</time></trkpt><trkpt lat="39.2198303" lon="16.8597106"><ele>106.0</ele><time>2026-03-28T12:38:37.613Z</time></trkpt><trkpt lat="39.2197612" lon="16.8597808"><ele>106.0</ele><time>2026-03-28T12:38:39.61Z</time></trkpt><trkpt lat="39.2197069" lon="16.8598637"><ele>106.0</ele><time>2026-03-28T12:38:41.625Z</time></trkpt><trkpt lat="39.2196327" lon="16.8599555"><ele>106.0</ele><time>2026-03-28T12:38:43.618Z</time></trkpt><trkpt lat="39.2195323" lon="16.8600014"><ele>106.0</ele><time>2026-03-28T12:38:45.612Z</time></trkpt><trkpt lat="39.2194665" lon="16.8600018"><ele>106.0</ele><time>2026-03-28T12:38:46.627Z</time></trkpt><trkpt lat="39.2194016" lon="16.860001"><ele>106.0</ele><time>2026-03-28T12:38:47.622Z</time></trkpt><trkpt lat="39.2193343" lon="16.8600153"><ele>106.0</ele><time>2026-03-28T12:38:48.615Z</time></trkpt><trkpt lat="39.2192609" lon="16.8600466"><ele>106.0</ele><time>2026-03-28T12:38:49.616Z</time></trkpt><trkpt lat="39.2191904" lon="16.8600875"><ele>106.0</ele><time>2026-03-28T12:38:50.616Z</time></trkpt><trkpt lat="39.2191205" lon="16.8601198"><ele>106.0</ele><time>2026-03-28T12:38:51.614Z</time></trkpt><trkpt lat="39.2190435" lon="16.8601361"><ele>106.00000000000001</ele><time>2026-03-28T12:38:52.615Z</time></trkpt><trkpt lat="39.2189667" lon="16.8601497"><ele>106.0</ele><time>2026-03-28T12:38:53.619Z</time></trkpt><trkpt lat="39.2189011" lon="16.8601697"><ele>106.0</ele><time>2026-03-28T12:38:54.632Z</time></trkpt><trkpt lat="39.218837" lon="16.8601961"><ele>106.0</ele><time>2026-03-28T12:38:55.615Z</time></trkpt><trkpt lat="39.2187758" lon="16.8602218"><ele>106.00000000000001</ele><time>2026-03-28T12:38:56.608Z</time></trkpt><trkpt lat="39.2186619" lon="16.8602625"><ele>106.0</ele><time>2026-03-28T12:38:58.605Z</time></trkpt><trkpt lat="39.2185989" lon="16.8602775"><ele>106.0</ele><time>2026-03-28T12:38:59.609Z</time></trkpt><trkpt lat="39.2184802" lon="16.8602939"><ele>106.0</ele><time>2026-03-28T12:39:01.618Z</time></trkpt><trkpt lat="39.2183675" lon="16.8603171"><ele>106.0</ele><time>2026-03-28T12:39:03.615Z</time></trkpt><trkpt lat="39.2182629" lon="16.8603708"><ele>106.0</ele><time>2026-03-28T12:39:05.618Z</time></trkpt><trkpt lat="39.2181451" lon="16.8604178"><ele>105.66666666666667</ele><time>2026-03-28T12:39:07.604Z</time></trkpt><trkpt lat="39.2180812" lon="16.8604218"><ele>105.33333333333334</ele><time>2026-03-28T12:39:08.619Z</time></trkpt><trkpt lat="39.2179817" lon="16.8604348"><ele>105.0</ele><time>2026-03-28T12:39:10.606Z</time></trkpt><trkpt lat="39.2179179" lon="16.8604536"><ele>104.66666666666666</ele><time>2026-03-28T12:39:12.612Z</time></trkpt><trkpt lat="39.2178338" lon="16.860497"><ele>104.33333333333333</ele><time>2026-03-28T12:39:15.611Z</time></trkpt><trkpt lat="39.2177638" lon="16.8605409"><ele>104.0</ele><time>2026-03-28T12:39:17.615Z</time></trkpt><trkpt lat="39.2176761" lon="16.8605834"><ele>104.0</ele><time>2026-03-28T12:39:19.615Z</time></trkpt><trkpt lat="39.2175816" lon="16.8606407"><ele>104.0</ele><time>2026-03-28T12:39:21.61Z</time></trkpt><trkpt lat="39.2174833" lon="16.8607131"><ele>104.0</ele><time>2026-03-28T12:39:23.611Z</time></trkpt><trkpt lat="39.2173731" lon="16.8607841"><ele>104.0</ele><time>2026-03-28T12:39:25.612Z</time></trkpt><trkpt lat="39.2172991" lon="16.8608345"><ele>104.0</ele><time>2026-03-28T12:39:26.611Z</time></trkpt><trkpt lat="39.217228" lon="16.8608806"><ele>103.83333333333333</ele><time>2026-03-28T12:39:27.606Z</time></trkpt><trkpt lat="39.2171588" lon="16.8609254"><ele>103.66666666666666</ele><time>2026-03-28T12:39:28.619Z</time></trkpt><trkpt lat="39.2170779" lon="16.8609667"><ele>103.5</ele><time>2026-03-28T12:39:29.619Z</time></trkpt><trkpt lat="39.2170069" lon="16.8610031"><ele>103.33333333333334</ele><time>2026-03-28T12:39:30.619Z</time></trkpt><trkpt lat="39.2168983" lon="16.8610805"><ele>103.16666666666667</ele><time>2026-03-28T12:39:32.625Z</time></trkpt><trkpt lat="39.2168392" lon="16.8611239"><ele>103.0</ele><time>2026-03-28T12:39:33.614Z</time></trkpt><trkpt lat="39.2167654" lon="16.8611514"><ele>103.0</ele><time>2026-03-28T12:39:34.607Z</time></trkpt><trkpt lat="39.2166886" lon="16.8611683"><ele>103.0</ele><time>2026-03-28T12:39:35.614Z</time></trkpt><trkpt lat="39.2165768" lon="16.8612022"><ele>103.0</ele><time>2026-03-28T12:39:37.604Z</time></trkpt><trkpt lat="39.2164722" lon="16.8612265"><ele>103.0</ele><time>2026-03-28T12:39:39.616Z</time></trkpt><trkpt lat="39.2163429" lon="16.8612518"><ele>103.0</ele><time>2026-03-28T12:39:41.624Z</time></trkpt><trkpt lat="39.2162721" lon="16.8612675"><ele>102.4</ele><time>2026-03-28T12:39:42.615Z</time></trkpt><trkpt lat="39.2161842" lon="16.8612862"><ele>101.80000000000001</ele><time>2026-03-28T12:39:43.61Z</time></trkpt><trkpt lat="39.2160669" lon="16.8613132"><ele>101.2</ele><time>2026-03-28T12:39:44.604Z</time></trkpt><trkpt lat="39.2159521" lon="16.8613397"><ele>100.6</ele><time>2026-03-28T12:39:45.61Z</time></trkpt><trkpt lat="39.2158387" lon="16.8613596"><ele>100.0</ele><time>2026-03-28T12:39:46.609Z</time></trkpt><trkpt lat="39.2157257" lon="16.8613726"><ele>100.16666666666667</ele><time>2026-03-28T12:39:47.61Z</time></trkpt><trkpt lat="39.2156299" lon="16.8613882"><ele>100.33333333333334</ele><time>2026-03-28T12:39:48.602Z</time></trkpt><trkpt lat="39.2155559" lon="16.8614"><ele>100.5</ele><time>2026-03-28T12:39:49.619Z</time></trkpt><trkpt lat="39.2154905" lon="16.8614104"><ele>100.66666666666666</ele><time>2026-03-28T12:39:50.607Z</time></trkpt><trkpt lat="39.2154198" lon="16.8614391"><ele>100.83333333333333</ele><time>2026-03-28T12:39:51.609Z</time></trkpt><trkpt lat="39.2153147" lon="16.8614316"><ele>101.0</ele><time>2026-03-28T12:39:53.624Z</time></trkpt><trkpt lat="39.2152049" lon="16.8614043"><ele>100.99999999999999</ele><time>2026-03-28T12:39:55.609Z</time></trkpt><trkpt lat="39.2151276" lon="16.8614332"><ele>101.0</ele><time>2026-03-28T12:39:56.616Z</time></trkpt><trkpt lat="39.2150731" lon="16.861507"><ele>101.0</ele><time>2026-03-28T12:39:57.615Z</time></trkpt><trkpt lat="39.2150064" lon="16.861598"><ele>101.0</ele><time>2026-03-28T12:39:59.611Z</time></trkpt><trkpt lat="39.2149469" lon="16.8616643"><ele>100.99999999999999</ele><time>2026-03-28T12:40:04.612Z</time></trkpt><trkpt lat="39.2148876" lon="16.8617382"><ele>101.0</ele><time>2026-03-28T12:40:07.607Z</time></trkpt><trkpt lat="39.2148497" lon="16.8618261"><ele>101.0</ele><time>2026-03-28T12:40:10.608Z</time></trkpt><trkpt lat="39.214807" lon="16.8619061"><ele>101.0</ele><time>2026-03-28T12:40:20.618Z</time></trkpt><trkpt lat="39.2147609" lon="16.8619639"><ele>101.0</ele><time>2026-03-28T12:40:25.616Z</time></trkpt><trkpt lat="39.2147519" lon="16.8620496"><ele>101.0</ele><time>2026-03-28T12:40:30.615Z</time></trkpt><trkpt lat="39.2147399" lon="16.8621306"><ele>101.0</ele><time>2026-03-28T12:40:35.603Z</time></trkpt><trkpt lat="39.2147157" lon="16.8622382"><ele>101.0</ele><time>2026-03-28T12:40:37.618Z</time></trkpt><trkpt lat="39.2146823" lon="16.8623109"><ele>101.0</ele><time>2026-03-28T12:40:38.617Z</time></trkpt><trkpt lat="39.2146241" lon="16.8624031"><ele>101.0</ele><time>2026-03-28T12:40:40.613Z</time></trkpt><trkpt lat="39.2145583" lon="16.8624631"><ele>101.0</ele><time>2026-03-28T12:40:43.614Z</time></trkpt><trkpt lat="39.2144961" lon="16.8624943"><ele>101.0</ele><time>2026-03-28T12:40:57.62Z</time></trkpt><trkpt lat="39.2144416" lon="16.8625523"><ele>101.0</ele><time>2026-03-28T12:41:04.619Z</time></trkpt><trkpt lat="39.214389" lon="16.862627"><ele>101.0</ele><time>2026-03-28T12:41:07.613Z</time></trkpt><trkpt lat="39.2143539" lon="16.8627062"><ele>101.0</ele><time>2026-03-28T12:41:09.611Z</time></trkpt><trkpt lat="39.21431" lon="16.862786"><ele>101.0</ele><time>2026-03-28T12:41:11.611Z</time></trkpt><trkpt lat="39.2142492" lon="16.8628885"><ele>100.83333333333333</ele><time>2026-03-28T12:41:13.615Z</time></trkpt><trkpt lat="39.2141836" lon="16.8630026"><ele>100.66666666666666</ele><time>2026-03-28T12:41:15.612Z</time></trkpt><trkpt lat="39.2141432" lon="16.8630988"><ele>100.5</ele><time>2026-03-28T12:41:17.622Z</time></trkpt><trkpt lat="39.2141054" lon="16.863183"><ele>100.33333333333334</ele><time>2026-03-28T12:41:19.607Z</time></trkpt><trkpt lat="39.214039" lon="16.8632142"><ele>100.16666666666667</ele><time>2026-03-28T12:41:24.615Z</time></trkpt><trkpt lat="39.2139817" lon="16.863178"><ele>100.0</ele><time>2026-03-28T12:41:27.616Z</time></trkpt><trkpt lat="39.2139254" lon="16.8631131"><ele>100.00000000000001</ele><time>2026-03-28T12:41:32.613Z</time></trkpt><trkpt lat="39.21385" lon="16.8630996"><ele>100.0</ele><time>2026-03-28T12:41:37.616Z</time></trkpt><trkpt lat="39.2137734" lon="16.8631213"><ele>100.0</ele><time>2026-03-28T12:41:41.628Z</time></trkpt><trkpt lat="39.2137133" lon="16.8631717"><ele>100.0</ele><time>2026-03-28T12:41:43.617Z</time></trkpt><trkpt lat="39.2136273" lon="16.8632025"><ele>100.00000000000001</ele><time>2026-03-28T12:41:45.617Z</time></trkpt><trkpt lat="39.2135371" lon="16.8631847"><ele>100.0</ele><time>2026-03-28T12:41:47.621Z</time></trkpt><trkpt lat="39.2134904" lon="16.863247"><ele>100.00000000000001</ele><time>2026-03-28T12:41:48.617Z</time></trkpt><trkpt lat="39.2134394" lon="16.8633137"><ele>100.0</ele><time>2026-03-28T12:41:49.604Z</time></trkpt><trkpt lat="39.2133941" lon="16.863378"><ele>100.0</ele><time>2026-03-28T12:41:50.614Z</time></trkpt><trkpt lat="39.2133037" lon="16.8634594"><ele>100.0</ele><time>2026-03-28T12:41:52.607Z</time></trkpt><trkpt lat="39.213228" lon="16.8635505"><ele>100.00000000000001</ele><time>2026-03-28T12:41:54.646Z</time></trkpt><trkpt lat="39.2132074" lon="16.8636644"><ele>100.0</ele><time>2026-03-28T12:41:56.619Z</time></trkpt><trkpt lat="39.2131985" lon="16.8637557"><ele>99.83333333333334</ele><time>2026-03-28T12:41:58.611Z</time></trkpt><trkpt lat="39.2131838" lon="16.8638757"><ele>99.66666666666667</ele><time>2026-03-28T12:42:01.613Z</time></trkpt><trkpt lat="39.2131444" lon="16.8639858"><ele>99.5</ele><time>2026-03-28T12:42:03.617Z</time></trkpt><trkpt lat="39.2130899" lon="16.8641099"><ele>99.33333333333334</ele><time>2026-03-28T12:42:05.607Z</time></trkpt><trkpt lat="39.2130625" lon="16.8641878"><ele>99.16666666666667</ele><time>2026-03-28T12:42:06.61Z</time></trkpt><trkpt lat="39.2130333" lon="16.8642804"><ele>99.0</ele><time>2026-03-28T12:42:07.609Z</time></trkpt><trkpt lat="39.2130029" lon="16.8643733"><ele>98.83333333333333</ele><time>2026-03-28T12:42:08.622Z</time></trkpt><trkpt lat="39.2129513" lon="16.8644692"><ele>98.66666666666666</ele><time>2026-03-28T12:42:09.617Z</time></trkpt><trkpt lat="39.2128924" lon="16.8645674"><ele>98.5</ele><time>2026-03-28T12:42:10.601Z</time></trkpt><trkpt lat="39.2128354" lon="16.8646333"><ele>98.33333333333333</ele><time>2026-03-28T12:42:11.611Z</time></trkpt><trkpt lat="39.2127825" lon="16.8646914"><ele>98.16666666666666</ele><time>2026-03-28T12:42:12.608Z</time></trkpt><trkpt lat="39.2127162" lon="16.8647377"><ele>98.0</ele><time>2026-03-28T12:42:13.612Z</time></trkpt><trkpt lat="39.2126569" lon="16.8647803"><ele>98.0</ele><time>2026-03-28T12:42:14.623Z</time></trkpt><trkpt lat="39.2126053" lon="16.8648273"><ele>98.0</ele><time>2026-03-28T12:42:15.614Z</time></trkpt><trkpt lat="39.2125125" lon="16.8649045"><ele>98.0</ele><time>2026-03-28T12:42:17.614Z</time></trkpt><trkpt lat="39.212404" lon="16.864929"><ele>98.0</ele><time>2026-03-28T12:42:19.607Z</time></trkpt><trkpt lat="39.2123191" lon="16.8650079"><ele>98.0</ele><time>2026-03-28T12:42:21.618Z</time></trkpt><trkpt lat="39.2122632" lon="16.865094"><ele>98.0</ele><time>2026-03-28T12:42:23.624Z</time></trkpt><trkpt lat="39.2122006" lon="16.8651451"><ele>98.0</ele><time>2026-03-28T12:42:25.611Z</time></trkpt><trkpt lat="39.2121509" lon="16.8652078"><ele>98.0</ele><time>2026-03-28T12:42:27.617Z</time></trkpt><trkpt lat="39.2121602" lon="16.8653083"><ele>98.0</ele><time>2026-03-28T12:42:29.608Z</time></trkpt><trkpt lat="39.2121788" lon="16.8654164"><ele>98.0</ele><time>2026-03-28T12:42:31.615Z</time></trkpt><trkpt lat="39.2121877" lon="16.8654973"><ele>98.0</ele><time>2026-03-28T12:42:33.613Z</time></trkpt><trkpt lat="39.2121867" lon="16.8655903"><ele>98.0</ele><time>2026-03-28T12:42:35.614Z</time></trkpt><trkpt lat="39.2121604" lon="16.8656841"><ele>97.99999999999999</ele><time>2026-03-28T12:42:37.612Z</time></trkpt><trkpt lat="39.2121011" lon="16.8657867"><ele>98.0</ele><time>2026-03-28T12:42:39.623Z</time></trkpt><trkpt lat="39.2120461" lon="16.8658362"><ele>98.0</ele><time>2026-03-28T12:42:40.615Z</time></trkpt><trkpt lat="39.2119704" lon="16.865883"><ele>98.0</ele><time>2026-03-28T12:42:41.607Z</time></trkpt><trkpt lat="39.2118952" lon="16.865929"><ele>97.99999999999999</ele><time>2026-03-28T12:42:42.612Z</time></trkpt><trkpt lat="39.2118434" lon="16.8659888"><ele>98.0</ele><time>2026-03-28T12:42:43.618Z</time></trkpt><trkpt lat="39.2118157" lon="16.8660666"><ele>97.83333333333333</ele><time>2026-03-28T12:42:44.601Z</time></trkpt><trkpt lat="39.2118191" lon="16.8661951"><ele>97.66666666666666</ele><time>2026-03-28T12:42:46.618Z</time></trkpt><trkpt lat="39.2118534" lon="16.8662936"><ele>97.5</ele><time>2026-03-28T12:42:48.628Z</time></trkpt><trkpt lat="39.21189" lon="16.8663879"><ele>97.33333333333334</ele><time>2026-03-28T12:42:51.626Z</time></trkpt><trkpt lat="39.2119106" lon="16.8665017"><ele>97.16666666666667</ele><time>2026-03-28T12:42:54.614Z</time></trkpt><trkpt lat="39.2119155" lon="16.8665856"><ele>97.0</ele><time>2026-03-28T12:42:57.603Z</time></trkpt><trkpt lat="39.2119168" lon="16.8666851"><ele>97.0</ele><time>2026-03-28T12:43:08.611Z</time></trkpt><trkpt lat="39.2119247" lon="16.8667681"><ele>97.0</ele><time>2026-03-28T12:43:11.617Z</time></trkpt><trkpt lat="39.2119373" lon="16.8668495"><ele>97.0</ele><time>2026-03-28T12:43:14.615Z</time></trkpt><trkpt lat="39.2119511" lon="16.8669358"><ele>97.0</ele><time>2026-03-28T12:43:21.621Z</time></trkpt><trkpt lat="39.2119389" lon="16.8670314"><ele>97.0</ele><time>2026-03-28T12:43:26.608Z</time></trkpt><trkpt lat="39.2118805" lon="16.8670962"><ele>97.0</ele><time>2026-03-28T12:43:30.62Z</time></trkpt><trkpt lat="39.2118243" lon="16.8671494"><ele>97.0</ele><time>2026-03-28T12:43:34.611Z</time></trkpt><trkpt lat="39.2117711" lon="16.8672137"><ele>97.0</ele><time>2026-03-28T12:43:38.618Z</time></trkpt><trkpt lat="39.2117302" lon="16.8672915"><ele>97.0</ele><time>2026-03-28T12:43:42.613Z</time></trkpt><trkpt lat="39.2116949" lon="16.8673634"><ele>97.0</ele><time>2026-03-28T12:43:47.619Z</time></trkpt><trkpt lat="39.2116586" lon="16.8674618"><ele>97.0</ele><time>2026-03-28T12:43:52.602Z</time></trkpt><trkpt lat="39.2116313" lon="16.8675641"><ele>97.0</ele><time>2026-03-28T12:43:56.614Z</time></trkpt><trkpt lat="39.2116085" lon="16.8676406"><ele>97.0</ele><time>2026-03-28T12:43:58.615Z</time></trkpt><trkpt lat="39.2115818" lon="16.867716"><ele>97.0</ele><time>2026-03-28T12:44:11.61Z</time></trkpt><trkpt lat="39.2115567" lon="16.8678007"><ele>97.28571428571428</ele><time>2026-03-28T12:44:14.618Z</time></trkpt><trkpt lat="39.2115781" lon="16.8678806"><ele>97.57142857142858</ele><time>2026-03-28T12:44:17.619Z</time></trkpt><trkpt lat="39.2116114" lon="16.8679691"><ele>97.85714285714286</ele><time>2026-03-28T12:44:21.621Z</time></trkpt><trkpt lat="39.2116464" lon="16.8680432"><ele>98.14285714285714</ele><time>2026-03-28T12:44:27.606Z</time></trkpt><trkpt lat="39.211685" lon="16.8681318"><ele>98.42857142857142</ele><time>2026-03-28T12:44:31.617Z</time></trkpt><trkpt lat="39.2117257" lon="16.8682254"><ele>98.71428571428572</ele><time>2026-03-28T12:44:34.612Z</time></trkpt><trkpt lat="39.2117622" lon="16.8683089"><ele>99.0</ele><time>2026-03-28T12:44:36.612Z</time></trkpt><trkpt lat="39.2118124" lon="16.8683924"><ele>101.0</ele><time>2026-03-28T12:44:38.615Z</time></trkpt><trkpt lat="39.2118633" lon="16.8684742"><ele>103.0</ele><time>2026-03-28T12:44:40.609Z</time></trkpt><trkpt lat="39.2119126" lon="16.8685939"><ele>105.0</ele><time>2026-03-28T12:44:42.611Z</time></trkpt><trkpt lat="39.2119541" lon="16.8687233"><ele>107.0</ele><time>2026-03-28T12:44:44.621Z</time></trkpt><trkpt lat="39.2120157" lon="16.8688473"><ele>109.0</ele><time>2026-03-28T12:44:46.62Z</time></trkpt><trkpt lat="39.2120529" lon="16.868998"><ele>109.00000000000001</ele><time>2026-03-28T12:44:48.607Z</time></trkpt><trkpt lat="39.2120666" lon="16.8690777"><ele>109.0</ele><time>2026-03-28T12:44:49.613Z</time></trkpt><trkpt lat="39.2120799" lon="16.8691587"><ele>109.0</ele><time>2026-03-28T12:44:50.611Z</time></trkpt><trkpt lat="39.2120922" lon="16.8692413"><ele>109.0</ele><time>2026-03-28T12:44:51.604Z</time></trkpt><trkpt lat="39.2121116" lon="16.8693933"><ele>109.00000000000001</ele><time>2026-03-28T12:44:53.623Z</time></trkpt><trkpt lat="39.2121322" lon="16.8695412"><ele>109.0</ele><time>2026-03-28T12:44:55.605Z</time></trkpt><trkpt lat="39.2121518" lon="16.8696663"><ele>109.50000000000001</ele><time>2026-03-28T12:44:57.609Z</time></trkpt><trkpt lat="39.2121718" lon="16.869783"><ele>110.0</ele><time>2026-03-28T12:44:59.603Z</time></trkpt><trkpt lat="39.2122005" lon="16.8699069"><ele>110.5</ele><time>2026-03-28T12:45:01.624Z</time></trkpt><trkpt lat="39.2122477" lon="16.869994"><ele>111.0</ele><time>2026-03-28T12:45:03.62Z</time></trkpt><trkpt lat="39.2122801" lon="16.8700752"><ele>111.50000000000001</ele><time>2026-03-28T12:45:05.609Z</time></trkpt><trkpt lat="39.2123111" lon="16.8701796"><ele>112.0</ele><time>2026-03-28T12:45:08.616Z</time></trkpt><trkpt lat="39.212335" lon="16.8702796"><ele>112.00000000000001</ele><time>2026-03-28T12:45:11.615Z</time></trkpt><trkpt lat="39.2123609" lon="16.8703575"><ele>112.0</ele><time>2026-03-28T12:45:14.61Z</time></trkpt><trkpt lat="39.212373" lon="16.8704529"><ele>112.0</ele><time>2026-03-28T12:45:30.616Z</time></trkpt><trkpt lat="39.2123691" lon="16.8705563"><ele>112.0</ele><time>2026-03-28T12:45:59.632Z</time></trkpt><trkpt lat="39.212333" lon="16.8706807"><ele>112.00000000000001</ele><time>2026-03-28T12:46:01.618Z</time></trkpt><trkpt lat="39.2123036" lon="16.8707873"><ele>112.0</ele><time>2026-03-28T12:46:03.606Z</time></trkpt><trkpt lat="39.212295" lon="16.8709139"><ele>113.6</ele><time>2026-03-28T12:46:06.611Z</time></trkpt><trkpt lat="39.2123109" lon="16.8710084"><ele>115.19999999999999</ele><time>2026-03-28T12:46:08.62Z</time></trkpt><trkpt lat="39.2123496" lon="16.8711014"><ele>116.8</ele><time>2026-03-28T12:46:11.622Z</time></trkpt><trkpt lat="39.212409" lon="16.8711988"><ele>118.4</ele><time>2026-03-28T12:46:14.622Z</time></trkpt><trkpt lat="39.2124822" lon="16.8712712"><ele>120.0</ele><time>2026-03-28T12:46:16.614Z</time></trkpt><trkpt lat="39.2125943" lon="16.8713378"><ele>120.0</ele><time>2026-03-28T12:46:18.613Z</time></trkpt><trkpt lat="39.2126971" lon="16.871413"><ele>120.0</ele><time>2026-03-28T12:46:20.62Z</time></trkpt><trkpt lat="39.2127959" lon="16.871492"><ele>120.0</ele><time>2026-03-28T12:46:22.615Z</time></trkpt><trkpt lat="39.2128829" lon="16.8715565"><ele>120.0</ele><time>2026-03-28T12:46:24.616Z</time></trkpt><trkpt lat="39.2129741" lon="16.8716361"><ele>120.0</ele><time>2026-03-28T12:46:26.617Z</time></trkpt><trkpt lat="39.2130207" lon="16.8717"><ele>121.0</ele><time>2026-03-28T12:46:27.614Z</time></trkpt><trkpt lat="39.2130566" lon="16.8717769"><ele>122.0</ele><time>2026-03-28T12:46:28.608Z</time></trkpt><trkpt lat="39.2130955" lon="16.8719019"><ele>123.0</ele><time>2026-03-28T12:46:30.615Z</time></trkpt><trkpt lat="39.2131239" lon="16.8719813"><ele>124.0</ele><time>2026-03-28T12:46:32.617Z</time></trkpt><trkpt lat="39.2131495" lon="16.8720975"><ele>125.0</ele><time>2026-03-28T12:46:34.615Z</time></trkpt><trkpt lat="39.2131786" lon="16.8722372"><ele>126.0</ele><time>2026-03-28T12:46:36.603Z</time></trkpt><trkpt lat="39.2132011" lon="16.8723285"><ele>123.4</ele><time>2026-03-28T12:46:37.617Z</time></trkpt><trkpt lat="39.213222" lon="16.87244"><ele>120.8</ele><time>2026-03-28T12:46:38.62Z</time></trkpt><trkpt lat="39.2132419" lon="16.8725633"><ele>118.20000000000002</ele><time>2026-03-28T12:46:39.615Z</time></trkpt><trkpt lat="39.2132675" lon="16.8727098"><ele>115.60000000000001</ele><time>2026-03-28T12:46:40.607Z</time></trkpt><trkpt lat="39.2132925" lon="16.8728821"><ele>113.0</ele><time>2026-03-28T12:46:41.612Z</time></trkpt><trkpt lat="39.2133" lon="16.873065"><ele>113.0</ele><time>2026-03-28T12:46:42.608Z</time></trkpt><trkpt lat="39.2133009" lon="16.873214"><ele>113.00000000000001</ele><time>2026-03-28T12:46:43.612Z</time></trkpt><trkpt lat="39.2132992" lon="16.8733214"><ele>113.00000000000001</ele><time>2026-03-28T12:46:44.606Z</time></trkpt><trkpt lat="39.2133112" lon="16.8734375"><ele>113.0</ele><time>2026-03-28T12:46:46.619Z</time></trkpt><trkpt lat="39.2133811" lon="16.8735505"><ele>113.0</ele><time>2026-03-28T12:46:49.611Z</time></trkpt><trkpt lat="39.2134288" lon="16.8736118"><ele>113.4</ele><time>2026-03-28T12:46:50.618Z</time></trkpt><trkpt lat="39.2134875" lon="16.8736804"><ele>113.80000000000001</ele><time>2026-03-28T12:46:51.611Z</time></trkpt><trkpt lat="39.2135526" lon="16.8737626"><ele>114.2</ele><time>2026-03-28T12:46:52.612Z</time></trkpt><trkpt lat="39.213623" lon="16.8738548"><ele>114.6</ele><time>2026-03-28T12:46:53.627Z</time></trkpt><trkpt lat="39.2136963" lon="16.8739534"><ele>115.0</ele><time>2026-03-28T12:46:54.615Z</time></trkpt><trkpt lat="39.2137821" lon="16.8740791"><ele>115.0</ele><time>2026-03-28T12:46:55.609Z</time></trkpt><trkpt lat="39.2138777" lon="16.874239"><ele>115.0</ele><time>2026-03-28T12:46:56.609Z</time></trkpt><trkpt lat="39.2139739" lon="16.8744329"><ele>115.0</ele><time>2026-03-28T12:46:57.608Z</time></trkpt><trkpt lat="39.2140642" lon="16.8746228"><ele>115.75</ele><time>2026-03-28T12:46:58.614Z</time></trkpt><trkpt lat="39.2141446" lon="16.8747948"><ele>116.5</ele><time>2026-03-28T12:46:59.613Z</time></trkpt><trkpt lat="39.2142198" lon="16.8749651"><ele>117.25</ele><time>2026-03-28T12:47:00.604Z</time></trkpt><trkpt lat="39.2142802" lon="16.8751177"><ele>118.0</ele><time>2026-03-28T12:47:01.616Z</time></trkpt><trkpt lat="39.214338" lon="16.875258"><ele>119.25</ele><time>2026-03-28T12:47:02.62Z</time></trkpt><trkpt lat="39.2143926" lon="16.8754008"><ele>120.5</ele><time>2026-03-28T12:47:03.618Z</time></trkpt><trkpt lat="39.2144514" lon="16.8755432"><ele>121.75</ele><time>2026-03-28T12:47:04.607Z</time></trkpt><trkpt lat="39.2145124" lon="16.8756663"><ele>123.0</ele><time>2026-03-28T12:47:05.62Z</time></trkpt><trkpt lat="39.2145669" lon="16.8757639"><ele>123.0</ele><time>2026-03-28T12:47:06.625Z</time></trkpt><trkpt lat="39.214604" lon="16.875881"><ele>123.0</ele><time>2026-03-28T12:47:07.603Z</time></trkpt><trkpt lat="39.2146259" lon="16.8760236"><ele>123.0</ele><time>2026-03-28T12:47:08.61Z</time></trkpt><trkpt lat="39.2146457" lon="16.8761981"><ele>123.0</ele><time>2026-03-28T12:47:09.608Z</time></trkpt><trkpt lat="39.2146661" lon="16.8763713"><ele>124.4</ele><time>2026-03-28T12:47:10.606Z</time></trkpt><trkpt lat="39.2146881" lon="16.8765289"><ele>125.80000000000001</ele><time>2026-03-28T12:47:11.608Z</time></trkpt><trkpt lat="39.2147139" lon="16.876671"><ele>127.2</ele><time>2026-03-28T12:47:12.61Z</time></trkpt><trkpt lat="39.2147286" lon="16.8767937"><ele>128.6</ele><time>2026-03-28T12:47:13.607Z</time></trkpt><trkpt lat="39.2147232" lon="16.8769125"><ele>130.0</ele><time>2026-03-28T12:47:14.616Z</time></trkpt><trkpt lat="39.2146994" lon="16.8770464"><ele>131.2</ele><time>2026-03-28T12:47:15.616Z</time></trkpt><trkpt lat="39.2146897" lon="16.8771882"><ele>132.4</ele><time>2026-03-28T12:47:16.612Z</time></trkpt><trkpt lat="39.2147008" lon="16.8773147"><ele>133.6</ele><time>2026-03-28T12:47:17.618Z</time></trkpt><trkpt lat="39.2147377" lon="16.8774524"><ele>134.8</ele><time>2026-03-28T12:47:18.612Z</time></trkpt><trkpt lat="39.2147904" lon="16.8775703"><ele>136.0</ele><time>2026-03-28T12:47:19.607Z</time></trkpt><trkpt lat="39.2148593" lon="16.8776516"><ele>138.0</ele><time>2026-03-28T12:47:20.625Z</time></trkpt><trkpt lat="39.2149518" lon="16.8777218"><ele>140.0</ele><time>2026-03-28T12:47:21.616Z</time></trkpt><trkpt lat="39.2150267" lon="16.8777922"><ele>142.0</ele><time>2026-03-28T12:47:22.606Z</time></trkpt><trkpt lat="39.2150757" lon="16.8778597"><ele>144.0</ele><time>2026-03-28T12:47:23.617Z</time></trkpt><trkpt lat="39.2151122" lon="16.8779882"><ele>146.0</ele><time>2026-03-28T12:47:25.611Z</time></trkpt><trkpt lat="39.2151017" lon="16.8780868"><ele>146.0</ele><time>2026-03-28T12:47:26.61Z</time></trkpt><trkpt lat="39.2150716" lon="16.8782138"><ele>146.0</ele><time>2026-03-28T12:47:27.622Z</time></trkpt><trkpt lat="39.2150193" lon="16.8783444"><ele>146.0</ele><time>2026-03-28T12:47:28.62Z</time></trkpt><trkpt lat="39.2149427" lon="16.8784824"><ele>146.0</ele><time>2026-03-28T12:47:29.613Z</time></trkpt><trkpt lat="39.214856" lon="16.8786334"><ele>148.6</ele><time>2026-03-28T12:47:30.619Z</time></trkpt><trkpt lat="39.2147851" lon="16.8787689"><ele>151.2</ele><time>2026-03-28T12:47:31.61Z</time></trkpt><trkpt lat="39.2147287" lon="16.8788647"><ele>153.8</ele><time>2026-03-28T12:47:32.614Z</time></trkpt><trkpt lat="39.2146736" lon="16.8789675"><ele>156.4</ele><time>2026-03-28T12:47:33.607Z</time></trkpt><trkpt lat="39.2146144" lon="16.879075"><ele>159.0</ele><time>2026-03-28T12:47:34.611Z</time></trkpt><trkpt lat="39.2145527" lon="16.8791957"><ele>161.83333333333334</ele><time>2026-03-28T12:47:35.618Z</time></trkpt><trkpt lat="39.2145108" lon="16.8793009"><ele>164.66666666666666</ele><time>2026-03-28T12:47:36.619Z</time></trkpt><trkpt lat="39.2144986" lon="16.8794068"><ele>167.5</ele><time>2026-03-28T12:47:37.628Z</time></trkpt><trkpt lat="39.2145015" lon="16.8795029"><ele>170.33333333333331</ele><time>2026-03-28T12:47:38.617Z</time></trkpt><trkpt lat="39.2144973" lon="16.879584"><ele>173.16666666666666</ele><time>2026-03-28T12:47:39.617Z</time></trkpt><trkpt lat="39.2144592" lon="16.8796949"><ele>176.0</ele><time>2026-03-28T12:47:41.607Z</time></trkpt><trkpt lat="39.2143649" lon="16.879663"><ele>176.0</ele><time>2026-03-28T12:47:43.616Z</time></trkpt><trkpt lat="39.214326" lon="16.8795725"><ele>176.0</ele><time>2026-03-28T12:47:44.617Z</time></trkpt><trkpt lat="39.2142587" lon="16.8794834"><ele>176.0</ele><time>2026-03-28T12:47:45.607Z</time></trkpt><trkpt lat="39.214198" lon="16.8794105"><ele>176.0</ele><time>2026-03-28T12:47:46.604Z</time></trkpt><trkpt lat="39.2141153" lon="16.8794212"><ele>176.0</ele><time>2026-03-28T12:47:47.608Z</time></trkpt><trkpt lat="39.2140398" lon="16.8794629"><ele>176.0</ele><time>2026-03-28T12:47:48.615Z</time></trkpt><trkpt lat="39.2139879" lon="16.8795488"><ele>177.0</ele><time>2026-03-28T12:47:49.616Z</time></trkpt><trkpt lat="39.2139337" lon="16.8796612"><ele>178.0</ele><time>2026-03-28T12:47:50.619Z</time></trkpt><trkpt lat="39.2138906" lon="16.8798042"><ele>179.0</ele><time>2026-03-28T12:47:51.615Z</time></trkpt><trkpt lat="39.2138399" lon="16.8799551"><ele>180.0</ele><time>2026-03-28T12:47:52.606Z</time></trkpt><trkpt lat="39.2137714" lon="16.8800821"><ele>182.0</ele><time>2026-03-28T12:47:53.615Z</time></trkpt><trkpt lat="39.2137153" lon="16.88019"><ele>184.0</ele><time>2026-03-28T12:47:54.623Z</time></trkpt><trkpt lat="39.2136911" lon="16.8802861"><ele>186.0</ele><time>2026-03-28T12:47:55.614Z</time></trkpt><trkpt lat="39.2137046" lon="16.8803815"><ele>188.0</ele><time>2026-03-28T12:47:56.614Z</time></trkpt><trkpt lat="39.213728" lon="16.8805009"><ele>190.0</ele><time>2026-03-28T12:47:57.607Z</time></trkpt><trkpt lat="39.2137225" lon="16.8806042"><ele>192.0</ele><time>2026-03-28T12:47:58.613Z</time></trkpt><trkpt lat="39.2136854" lon="16.8807222"><ele>192.0</ele><time>2026-03-28T12:47:59.61Z</time></trkpt><trkpt lat="39.213629" lon="16.8808719"><ele>192.0</ele><time>2026-03-28T12:48:00.616Z</time></trkpt><trkpt lat="39.2135704" lon="16.8810368"><ele>192.0</ele><time>2026-03-28T12:48:01.615Z</time></trkpt><trkpt lat="39.2135173" lon="16.8811798"><ele>192.0</ele><time>2026-03-28T12:48:02.606Z</time></trkpt><trkpt lat="39.2134789" lon="16.8813201"><ele>194.0</ele><time>2026-03-28T12:48:03.615Z</time></trkpt><trkpt lat="39.2134444" lon="16.8814809"><ele>196.0</ele><time>2026-03-28T12:48:04.613Z</time></trkpt><trkpt lat="39.2134056" lon="16.8816437"><ele>198.0</ele><time>2026-03-28T12:48:05.606Z</time></trkpt><trkpt lat="39.2133692" lon="16.8817686"><ele>200.0</ele><time>2026-03-28T12:48:06.613Z</time></trkpt><trkpt lat="39.2133438" lon="16.8818865"><ele>202.6</ele><time>2026-03-28T12:48:07.614Z</time></trkpt><trkpt lat="39.2133426" lon="16.8819832"><ele>205.2</ele><time>2026-03-28T12:48:08.604Z</time></trkpt><trkpt lat="39.2133761" lon="16.8820605"><ele>207.8</ele><time>2026-03-28T12:48:09.618Z</time></trkpt><trkpt lat="39.2134502" lon="16.8821514"><ele>210.4</ele><time>2026-03-28T12:48:10.622Z</time></trkpt><trkpt lat="39.2135504" lon="16.8822595"><ele>213.0</ele><time>2026-03-28T12:48:11.605Z</time></trkpt><trkpt lat="39.2136715" lon="16.8823876"><ele>213.0</ele><time>2026-03-28T12:48:12.615Z</time></trkpt><trkpt lat="39.21379" lon="16.8825104"><ele>213.0</ele><time>2026-03-28T12:48:13.616Z</time></trkpt><trkpt lat="39.2138801" lon="16.8826005"><ele>213.0</ele><time>2026-03-28T12:48:14.619Z</time></trkpt><trkpt lat="39.2139336" lon="16.8826804"><ele>213.0</ele><time>2026-03-28T12:48:15.623Z</time></trkpt><trkpt lat="39.2138945" lon="16.8827949"><ele>213.0</ele><time>2026-03-28T12:48:17.61Z</time></trkpt><trkpt lat="39.2138232" lon="16.8828055"><ele>218.0</ele><time>2026-03-28T12:48:18.607Z</time></trkpt><trkpt lat="39.2137172" lon="16.8827939"><ele>223.0</ele><time>2026-03-28T12:48:19.63Z</time></trkpt><trkpt lat="39.2135802" lon="16.8827746"><ele>228.0</ele><time>2026-03-28T12:48:20.618Z</time></trkpt><trkpt lat="39.2134195" lon="16.8827518"><ele>233.0</ele><time>2026-03-28T12:48:21.61Z</time></trkpt><trkpt lat="39.2132595" lon="16.8827286"><ele>234.4</ele><time>2026-03-28T12:48:22.611Z</time></trkpt><trkpt lat="39.2131339" lon="16.8827056"><ele>235.8</ele><time>2026-03-28T12:48:23.61Z</time></trkpt><trkpt lat="39.2130357" lon="16.8826947"><ele>237.2</ele><time>2026-03-28T12:48:24.603Z</time></trkpt><trkpt lat="39.2129623" lon="16.8827081"><ele>238.6</ele><time>2026-03-28T12:48:25.615Z</time></trkpt><trkpt lat="39.2129399" lon="16.8828076"><ele>240.0</ele><time>2026-03-28T12:48:27.604Z</time></trkpt><trkpt lat="39.2129921" lon="16.8828758"><ele>240.0</ele><time>2026-03-28T12:48:28.619Z</time></trkpt><trkpt lat="39.2130861" lon="16.8829552"><ele>240.0</ele><time>2026-03-28T12:48:29.618Z</time></trkpt><trkpt lat="39.2132086" lon="16.8830496"><ele>240.0</ele><time>2026-03-28T12:48:30.614Z</time></trkpt><trkpt lat="39.2133357" lon="16.8831476"><ele>240.0</ele><time>2026-03-28T12:48:31.608Z</time></trkpt><trkpt lat="39.2134535" lon="16.8832387"><ele>241.0</ele><time>2026-03-28T12:48:32.609Z</time></trkpt><trkpt lat="39.2135517" lon="16.883311"><ele>242.0</ele><time>2026-03-28T12:48:33.621Z</time></trkpt><trkpt lat="39.2136249" lon="16.8833635"><ele>243.0</ele><time>2026-03-28T12:48:34.616Z</time></trkpt><trkpt lat="39.21364" lon="16.8834678"><ele>244.0</ele><time>2026-03-28T12:48:36.61Z</time></trkpt><trkpt lat="39.2135456" lon="16.8834628"><ele>245.0</ele><time>2026-03-28T12:48:38.616Z</time></trkpt><trkpt lat="39.2134464" lon="16.8834287"><ele>243.33333333333334</ele><time>2026-03-28T12:48:39.621Z</time></trkpt><trkpt lat="39.2133137" lon="16.8833867"><ele>241.66666666666669</ele><time>2026-03-28T12:48:40.615Z</time></trkpt><trkpt lat="39.2131538" lon="16.883332"><ele>240.0</ele><time>2026-03-28T12:48:41.618Z</time></trkpt><trkpt lat="39.213001" lon="16.8832741"><ele>240.0</ele><time>2026-03-28T12:48:42.627Z</time></trkpt><trkpt lat="39.2128566" lon="16.8832198"><ele>240.0</ele><time>2026-03-28T12:48:43.617Z</time></trkpt><trkpt lat="39.2127281" lon="16.8831714"><ele>240.0</ele><time>2026-03-28T12:48:44.615Z</time></trkpt><trkpt lat="39.2126267" lon="16.883129"><ele>240.0</ele><time>2026-03-28T12:48:45.612Z</time></trkpt><trkpt lat="39.212555" lon="16.8831207"><ele>240.0</ele><time>2026-03-28T12:48:46.613Z</time></trkpt><trkpt lat="39.2125229" lon="16.8832077"><ele>240.0</ele><time>2026-03-28T12:48:48.608Z</time></trkpt><trkpt lat="39.2125617" lon="16.8832877"><ele>240.0</ele><time>2026-03-28T12:48:49.621Z</time></trkpt><trkpt lat="39.2126237" lon="16.8834003"><ele>240.0</ele><time>2026-03-28T12:48:50.615Z</time></trkpt><trkpt lat="39.2126993" lon="16.8835441"><ele>240.0</ele><time>2026-03-28T12:48:51.607Z</time></trkpt><trkpt lat="39.2127723" lon="16.8836947"><ele>241.5</ele><time>2026-03-28T12:48:52.616Z</time></trkpt><trkpt lat="39.2128379" lon="16.8838405"><ele>243.0</ele><time>2026-03-28T12:48:53.632Z</time></trkpt><trkpt lat="39.2128976" lon="16.8839809"><ele>244.5</ele><time>2026-03-28T12:48:54.615Z</time></trkpt><trkpt lat="39.2129545" lon="16.8841248"><ele>246.0</ele><time>2026-03-28T12:48:55.608Z</time></trkpt><trkpt lat="39.2129984" lon="16.8842492"><ele>246.0</ele><time>2026-03-28T12:48:56.621Z</time></trkpt><trkpt lat="39.2130306" lon="16.8843608"><ele>246.0</ele><time>2026-03-28T12:48:57.618Z</time></trkpt><trkpt lat="39.2130509" lon="16.8844582"><ele>246.0</ele><time>2026-03-28T12:48:58.609Z</time></trkpt><trkpt lat="39.2130657" lon="16.8845422"><ele>246.0</ele><time>2026-03-28T12:48:59.614Z</time></trkpt><trkpt lat="39.2130825" lon="16.8846846"><ele>246.0</ele><time>2026-03-28T12:49:01.603Z</time></trkpt><trkpt lat="39.2130875" lon="16.8847795"><ele>246.0</ele><time>2026-03-28T12:49:03.609Z</time></trkpt><trkpt lat="39.2131003" lon="16.884919"><ele>246.0</ele><time>2026-03-28T12:49:23.615Z</time></trkpt><trkpt lat="39.2130727" lon="16.8850652"><ele>246.00000000000003</ele><time>2026-03-28T12:49:43.618Z</time></trkpt><trkpt lat="39.2130389" lon="16.8851424"><ele>246.00000000000003</ele><time>2026-03-28T12:49:44.623Z</time></trkpt><trkpt lat="39.2130007" lon="16.8852076"><ele>246.0</ele><time>2026-03-28T12:49:45.615Z</time></trkpt><trkpt lat="39.2129154" lon="16.8853213"><ele>246.0</ele><time>2026-03-28T12:49:47.616Z</time></trkpt><trkpt lat="39.212836" lon="16.8854244"><ele>247.16666666666666</ele><time>2026-03-28T12:49:49.621Z</time></trkpt><trkpt lat="39.2127576" lon="16.8855043"><ele>248.33333333333331</ele><time>2026-03-28T12:49:51.61Z</time></trkpt><trkpt lat="39.2126969" lon="16.8855883"><ele>249.5</ele><time>2026-03-28T12:49:53.624Z</time></trkpt><trkpt lat="39.2126427" lon="16.885664"><ele>250.66666666666666</ele><time>2026-03-28T12:49:55.616Z</time></trkpt><trkpt lat="39.2125965" lon="16.8857421"><ele>251.83333333333331</ele><time>2026-03-28T12:49:57.607Z</time></trkpt><trkpt lat="39.2125301" lon="16.8858285"><ele>253.0</ele><time>2026-03-28T12:50:00.612Z</time></trkpt><trkpt lat="39.2124818" lon="16.8858953"><ele>253.16666666666666</ele><time>2026-03-28T12:50:02.611Z</time></trkpt><trkpt lat="39.2124114" lon="16.8859787"><ele>253.33333333333331</ele><time>2026-03-28T12:50:04.607Z</time></trkpt><trkpt lat="39.2123396" lon="16.8860754"><ele>253.5</ele><time>2026-03-28T12:50:06.614Z</time></trkpt><trkpt lat="39.2122921" lon="16.8861432"><ele>253.66666666666669</ele><time>2026-03-28T12:50:07.608Z</time></trkpt><trkpt lat="39.2122512" lon="16.8862135"><ele>253.83333333333334</ele><time>2026-03-28T12:50:08.611Z</time></trkpt><trkpt lat="39.2122052" lon="16.8862781"><ele>254.0</ele><time>2026-03-28T12:50:09.607Z</time></trkpt><trkpt lat="39.212155" lon="16.8863561"><ele>254.00000000000003</ele><time>2026-03-28T12:50:10.622Z</time></trkpt><trkpt lat="39.2121046" lon="16.8864419"><ele>254.0</ele><time>2026-03-28T12:50:11.615Z</time></trkpt><trkpt lat="39.2120607" lon="16.8865311"><ele>254.0</ele><time>2026-03-28T12:50:12.612Z</time></trkpt><trkpt lat="39.2120259" lon="16.886619"><ele>254.0</ele><time>2026-03-28T12:50:13.607Z</time></trkpt><trkpt lat="39.2119835" lon="16.8867142"><ele>254.00000000000003</ele><time>2026-03-28T12:50:14.616Z</time></trkpt><trkpt lat="39.2119448" lon="16.8868306"><ele>254.0</ele><time>2026-03-28T12:50:15.607Z</time></trkpt><trkpt lat="39.211897" lon="16.8869729"><ele>255.79999999999998</ele><time>2026-03-28T12:50:16.608Z</time></trkpt><trkpt lat="39.2118501" lon="16.8871053"><ele>257.59999999999997</ele><time>2026-03-28T12:50:17.618Z</time></trkpt><trkpt lat="39.2118024" lon="16.887241"><ele>259.4</ele><time>2026-03-28T12:50:18.612Z</time></trkpt><trkpt lat="39.2117725" lon="16.8873602"><ele>261.2</ele><time>2026-03-28T12:50:19.612Z</time></trkpt><trkpt lat="39.2117358" lon="16.887466"><ele>263.0</ele><time>2026-03-28T12:50:20.617Z</time></trkpt><trkpt lat="39.2117041" lon="16.8875758"><ele>263.1666666666667</ele><time>2026-03-28T12:50:21.615Z</time></trkpt><trkpt lat="39.2116744" lon="16.8876809"><ele>263.33333333333337</ele><time>2026-03-28T12:50:22.618Z</time></trkpt><trkpt lat="39.211648" lon="16.8877707"><ele>263.5</ele><time>2026-03-28T12:50:23.61Z</time></trkpt><trkpt lat="39.2116024" lon="16.8878975"><ele>263.6666666666667</ele><time>2026-03-28T12:50:25.617Z</time></trkpt><trkpt lat="39.211548" lon="16.8879977"><ele>263.8333333333333</ele><time>2026-03-28T12:50:27.627Z</time></trkpt><trkpt lat="39.2115879" lon="16.8880676"><ele>264.0</ele><time>2026-03-28T12:50:29.618Z</time></trkpt><trkpt lat="39.2116992" lon="16.8880497"><ele>264.0</ele><time>2026-03-28T12:50:31.622Z</time></trkpt><trkpt lat="39.2117749" lon="16.8880325"><ele>264.0</ele><time>2026-03-28T12:50:32.62Z</time></trkpt><trkpt lat="39.2118682" lon="16.8880102"><ele>264.0</ele><time>2026-03-28T12:50:33.608Z</time></trkpt><trkpt lat="39.2119715" lon="16.8879845"><ele>264.0</ele><time>2026-03-28T12:50:34.616Z</time></trkpt><trkpt lat="39.2120825" lon="16.8879532"><ele>264.0</ele><time>2026-03-28T12:50:35.626Z</time></trkpt><trkpt lat="39.2121892" lon="16.8879165"><ele>264.0</ele><time>2026-03-28T12:50:36.611Z</time></trkpt><trkpt lat="39.2123026" lon="16.887866"><ele>264.0</ele><time>2026-03-28T12:50:37.61Z</time></trkpt><trkpt lat="39.2124167" lon="16.8878057"><ele>264.0</ele><time>2026-03-28T12:50:38.611Z</time></trkpt><trkpt lat="39.2125088" lon="16.8877527"><ele>264.0</ele><time>2026-03-28T12:50:39.619Z</time></trkpt><trkpt lat="39.2125893" lon="16.8876976"><ele>264.0</ele><time>2026-03-28T12:50:40.608Z</time></trkpt><trkpt lat="39.2126757" lon="16.8876344"><ele>265.6666666666667</ele><time>2026-03-28T12:50:41.61Z</time></trkpt><trkpt lat="39.2127639" lon="16.8875744"><ele>267.3333333333333</ele><time>2026-03-28T12:50:42.604Z</time></trkpt><trkpt lat="39.212844" lon="16.8875234"><ele>269.0</ele><time>2026-03-28T12:50:43.615Z</time></trkpt><trkpt lat="39.2129165" lon="16.8874801"><ele>270.66666666666663</ele><time>2026-03-28T12:50:44.615Z</time></trkpt><trkpt lat="39.2129887" lon="16.8874361"><ele>272.3333333333333</ele><time>2026-03-28T12:50:45.616Z</time></trkpt><trkpt lat="39.2130625" lon="16.8873994"><ele>274.0</ele><time>2026-03-28T12:50:46.612Z</time></trkpt><trkpt lat="39.2131414" lon="16.8873666"><ele>275.3333333333333</ele><time>2026-03-28T12:50:47.614Z</time></trkpt><trkpt lat="39.2132251" lon="16.8873545"><ele>276.66666666666663</ele><time>2026-03-28T12:50:48.619Z</time></trkpt><trkpt lat="39.2133121" lon="16.8873671"><ele>278.0</ele><time>2026-03-28T12:50:49.626Z</time></trkpt><trkpt lat="39.2134019" lon="16.8873881"><ele>279.3333333333333</ele><time>2026-03-28T12:50:50.614Z</time></trkpt><trkpt lat="39.2134872" lon="16.8874073"><ele>280.6666666666667</ele><time>2026-03-28T12:50:51.605Z</time></trkpt><trkpt lat="39.2135783" lon="16.8874299"><ele>282.0</ele><time>2026-03-28T12:50:52.611Z</time></trkpt><trkpt lat="39.2136654" lon="16.8874542"><ele>282.0</ele><time>2026-03-28T12:50:53.62Z</time></trkpt><trkpt lat="39.2137519" lon="16.8874799"><ele>282.0</ele><time>2026-03-28T12:50:54.632Z</time></trkpt><trkpt lat="39.2138376" lon="16.8875073"><ele>282.0</ele><time>2026-03-28T12:50:55.625Z</time></trkpt><trkpt lat="39.213924" lon="16.8875309"><ele>282.0</ele><time>2026-03-28T12:50:56.607Z</time></trkpt><trkpt lat="39.2140109" lon="16.8875548"><ele>282.0</ele><time>2026-03-28T12:50:57.625Z</time></trkpt><trkpt lat="39.2140968" lon="16.8875858"><ele>282.0</ele><time>2026-03-28T12:50:58.615Z</time></trkpt><trkpt lat="39.2141788" lon="16.8876357"><ele>284.75</ele><time>2026-03-28T12:50:59.614Z</time></trkpt><trkpt lat="39.2142679" lon="16.8877165"><ele>287.5</ele><time>2026-03-28T12:51:00.62Z</time></trkpt><trkpt lat="39.2143481" lon="16.8878277"><ele>290.25</ele><time>2026-03-28T12:51:01.606Z</time></trkpt><trkpt lat="39.2144123" lon="16.8879491"><ele>293.0</ele><time>2026-03-28T12:51:02.61Z</time></trkpt><trkpt lat="39.2144755" lon="16.8880712"><ele>293.0</ele><time>2026-03-28T12:51:03.612Z</time></trkpt><trkpt lat="39.2145339" lon="16.8881882"><ele>293.0</ele><time>2026-03-28T12:51:04.615Z</time></trkpt><trkpt lat="39.2145932" lon="16.8883028"><ele>293.0</ele><time>2026-03-28T12:51:05.607Z</time></trkpt><trkpt lat="39.21466" lon="16.8884108"><ele>293.0</ele><time>2026-03-28T12:51:06.616Z</time></trkpt><trkpt lat="39.214741" lon="16.8885132"><ele>293.0</ele><time>2026-03-28T12:51:07.611Z</time></trkpt><trkpt lat="39.2148202" lon="16.8886138"><ele>292.83333333333337</ele><time>2026-03-28T12:51:08.608Z</time></trkpt><trkpt lat="39.2149026" lon="16.8886898"><ele>292.6666666666667</ele><time>2026-03-28T12:51:09.607Z</time></trkpt><trkpt lat="39.2149852" lon="16.8887618"><ele>292.5</ele><time>2026-03-28T12:51:10.61Z</time></trkpt><trkpt lat="39.2150596" lon="16.8888244"><ele>292.3333333333333</ele><time>2026-03-28T12:51:11.608Z</time></trkpt><trkpt lat="39.215122" lon="16.8888775"><ele>292.16666666666663</ele><time>2026-03-28T12:51:12.609Z</time></trkpt><trkpt lat="39.2151891" lon="16.8889343"><ele>292.0</ele><time>2026-03-28T12:51:13.614Z</time></trkpt><trkpt lat="39.2152557" lon="16.8889937"><ele>292.0</ele><time>2026-03-28T12:51:14.614Z</time></trkpt><trkpt lat="39.2153239" lon="16.8890415"><ele>292.0</ele><time>2026-03-28T12:51:15.616Z</time></trkpt><trkpt lat="39.2153977" lon="16.8890893"><ele>292.0</ele><time>2026-03-28T12:51:16.613Z</time></trkpt><trkpt lat="39.215474" lon="16.8891457"><ele>292.0</ele><time>2026-03-28T12:51:17.617Z</time></trkpt><trkpt lat="39.2155474" lon="16.8892197"><ele>292.0</ele><time>2026-03-28T12:51:18.619Z</time></trkpt><trkpt lat="39.2156136" lon="16.8893085"><ele>292.0</ele><time>2026-03-28T12:51:19.615Z</time></trkpt><trkpt lat="39.2156735" lon="16.889408"><ele>290.66666666666663</ele><time>2026-03-28T12:51:20.623Z</time></trkpt><trkpt lat="39.215724" lon="16.8895195"><ele>289.3333333333333</ele><time>2026-03-28T12:51:21.605Z</time></trkpt><trkpt lat="39.2157702" lon="16.8896188"><ele>288.0</ele><time>2026-03-28T12:51:22.602Z</time></trkpt><trkpt lat="39.2158164" lon="16.8897155"><ele>286.6666666666667</ele><time>2026-03-28T12:51:23.618Z</time></trkpt><trkpt lat="39.2158571" lon="16.8897999"><ele>285.33333333333337</ele><time>2026-03-28T12:51:24.618Z</time></trkpt><trkpt lat="39.2158928" lon="16.8898674"><ele>284.0</ele><time>2026-03-28T12:51:25.615Z</time></trkpt><trkpt lat="39.2159373" lon="16.8899344"><ele>284.0</ele><time>2026-03-28T12:51:26.608Z</time></trkpt><trkpt lat="39.2160094" lon="16.8900352"><ele>284.0</ele><time>2026-03-28T12:51:28.609Z</time></trkpt><trkpt lat="39.2160581" lon="16.8901112"><ele>284.0</ele><time>2026-03-28T12:51:30.618Z</time></trkpt><trkpt lat="39.2160809" lon="16.8901892"><ele>284.0</ele><time>2026-03-28T12:51:32.612Z</time></trkpt><trkpt lat="39.2161031" lon="16.890267"><ele>284.0</ele><time>2026-03-28T12:51:34.616Z</time></trkpt><trkpt lat="39.2161676" lon="16.8903637"><ele>284.0</ele><time>2026-03-28T12:51:36.626Z</time></trkpt><trkpt lat="39.2162519" lon="16.8904459"><ele>283.59999999999997</ele><time>2026-03-28T12:51:38.623Z</time></trkpt><trkpt lat="39.2163216" lon="16.8905053"><ele>283.2</ele><time>2026-03-28T12:51:40.624Z</time></trkpt><trkpt lat="39.2164031" lon="16.8905848"><ele>282.79999999999995</ele><time>2026-03-28T12:51:42.623Z</time></trkpt><trkpt lat="39.2164838" lon="16.8906549"><ele>282.4</ele><time>2026-03-28T12:51:44.621Z</time></trkpt><trkpt lat="39.2165885" lon="16.8907352"><ele>282.0</ele><time>2026-03-28T12:51:46.609Z</time></trkpt><trkpt lat="39.2166457" lon="16.8907761"><ele>282.0</ele><time>2026-03-28T12:51:47.62Z</time></trkpt><trkpt lat="39.2167022" lon="16.8908236"><ele>282.0</ele><time>2026-03-28T12:51:48.615Z</time></trkpt><trkpt lat="39.2167664" lon="16.89088"><ele>282.0</ele><time>2026-03-28T12:51:49.61Z</time></trkpt><trkpt lat="39.2168251" lon="16.8909367"><ele>282.0</ele><time>2026-03-28T12:51:50.62Z</time></trkpt><trkpt lat="39.2168801" lon="16.8909882"><ele>282.0</ele><time>2026-03-28T12:51:51.613Z</time></trkpt><trkpt lat="39.2169731" lon="16.891118"><ele>282.0</ele><time>2026-03-28T12:51:53.621Z</time></trkpt><trkpt lat="39.2170349" lon="16.891215"><ele>281.25</ele><time>2026-03-28T12:51:54.622Z</time></trkpt><trkpt lat="39.2171247" lon="16.8913437"><ele>280.5</ele><time>2026-03-28T12:51:55.62Z</time></trkpt><trkpt lat="39.2172155" lon="16.8914703"><ele>279.75</ele><time>2026-03-28T12:51:56.626Z</time></trkpt><trkpt lat="39.217297" lon="16.8915865"><ele>279.0</ele><time>2026-03-28T12:51:57.608Z</time></trkpt><trkpt lat="39.2173715" lon="16.8916947"><ele>274.8</ele><time>2026-03-28T12:51:58.62Z</time></trkpt><trkpt lat="39.2174474" lon="16.8918076"><ele>270.59999999999997</ele><time>2026-03-28T12:51:59.622Z</time></trkpt><trkpt lat="39.217515" lon="16.8919124"><ele>266.4</ele><time>2026-03-28T12:52:00.61Z</time></trkpt><trkpt lat="39.2175708" lon="16.892"><ele>262.2</ele><time>2026-03-28T12:52:01.608Z</time></trkpt><trkpt lat="39.2176332" lon="16.8920974"><ele>258.0</ele><time>2026-03-28T12:52:02.619Z</time></trkpt><trkpt lat="39.217704" lon="16.8922087"><ele>258.0</ele><time>2026-03-28T12:52:03.625Z</time></trkpt><trkpt lat="39.2177725" lon="16.8923066"><ele>258.0</ele><time>2026-03-28T12:52:04.618Z</time></trkpt><trkpt lat="39.2178395" lon="16.8924005"><ele>258.0</ele><time>2026-03-28T12:52:05.611Z</time></trkpt><trkpt lat="39.2179124" lon="16.8924953"><ele>258.0</ele><time>2026-03-28T12:52:06.617Z</time></trkpt><trkpt lat="39.2179839" lon="16.8926029"><ele>258.0</ele><time>2026-03-28T12:52:07.628Z</time></trkpt><trkpt lat="39.2180464" lon="16.8927012"><ele>259.0</ele><time>2026-03-28T12:52:08.624Z</time></trkpt><trkpt lat="39.2181062" lon="16.892783"><ele>260.0</ele><time>2026-03-28T12:52:09.608Z</time></trkpt><trkpt lat="39.2181645" lon="16.892862"><ele>261.0</ele><time>2026-03-28T12:52:10.623Z</time></trkpt><trkpt lat="39.2182379" lon="16.8929363"><ele>262.0</ele><time>2026-03-28T12:52:11.624Z</time></trkpt><trkpt lat="39.2183149" lon="16.8930025"><ele>263.0</ele><time>2026-03-28T12:52:12.61Z</time></trkpt><trkpt lat="39.2183913" lon="16.8930683"><ele>264.0</ele><time>2026-03-28T12:52:13.608Z</time></trkpt><trkpt lat="39.2184568" lon="16.8931246"><ele>264.0</ele><time>2026-03-28T12:52:14.621Z</time></trkpt><trkpt lat="39.2185167" lon="16.8931752"><ele>264.0</ele><time>2026-03-28T12:52:15.612Z</time></trkpt><trkpt lat="39.2185757" lon="16.8932254"><ele>264.0</ele><time>2026-03-28T12:52:16.606Z</time></trkpt><trkpt lat="39.2186384" lon="16.8932777"><ele>264.0</ele><time>2026-03-28T12:52:17.615Z</time></trkpt><trkpt lat="39.2187036" lon="16.8933288"><ele>264.0</ele><time>2026-03-28T12:52:18.62Z</time></trkpt><trkpt lat="39.2187796" lon="16.8933771"><ele>264.0</ele><time>2026-03-28T12:52:19.638Z</time></trkpt><trkpt lat="39.218855" lon="16.8934308"><ele>264.5</ele><time>2026-03-28T12:52:20.619Z</time></trkpt><trkpt lat="39.2189225" lon="16.8934837"><ele>265.0</ele><time>2026-03-28T12:52:21.609Z</time></trkpt><trkpt lat="39.2189988" lon="16.8935501"><ele>265.5</ele><time>2026-03-28T12:52:22.615Z</time></trkpt><trkpt lat="39.2190726" lon="16.8936218"><ele>266.0</ele><time>2026-03-28T12:52:23.615Z</time></trkpt><trkpt lat="39.2191372" lon="16.8936845"><ele>266.5</ele><time>2026-03-28T12:52:24.606Z</time></trkpt><trkpt lat="39.2192013" lon="16.893741"><ele>267.0</ele><time>2026-03-28T12:52:25.615Z</time></trkpt><trkpt lat="39.2192721" lon="16.8937973"><ele>267.0</ele><time>2026-03-28T12:52:26.607Z</time></trkpt><trkpt lat="39.2193504" lon="16.8938661"><ele>267.0</ele><time>2026-03-28T12:52:27.607Z</time></trkpt><trkpt lat="39.2194188" lon="16.8939254"><ele>267.0</ele><time>2026-03-28T12:52:28.617Z</time></trkpt><trkpt lat="39.2194785" lon="16.8939828"><ele>267.0</ele><time>2026-03-28T12:52:29.618Z</time></trkpt><trkpt lat="39.219542" lon="16.8940468"><ele>267.0</ele><time>2026-03-28T12:52:30.619Z</time></trkpt><trkpt lat="39.2196097" lon="16.8941199"><ele>267.0</ele><time>2026-03-28T12:52:31.611Z</time></trkpt><trkpt lat="39.2196821" lon="16.8941994"><ele>269.6</ele><time>2026-03-28T12:52:32.618Z</time></trkpt><trkpt lat="39.21976" lon="16.8942806"><ele>272.2</ele><time>2026-03-28T12:52:33.621Z</time></trkpt><trkpt lat="39.2198311" lon="16.8943599"><ele>274.8</ele><time>2026-03-28T12:52:34.611Z</time></trkpt><trkpt lat="39.2198972" lon="16.8944279"><ele>277.4</ele><time>2026-03-28T12:52:35.611Z</time></trkpt><trkpt lat="39.2199651" lon="16.8944986"><ele>280.0</ele><time>2026-03-28T12:52:36.62Z</time></trkpt><trkpt lat="39.2200345" lon="16.8945703"><ele>280.0</ele><time>2026-03-28T12:52:37.623Z</time></trkpt><trkpt lat="39.2201059" lon="16.8946464"><ele>280.0</ele><time>2026-03-28T12:52:38.606Z</time></trkpt><trkpt lat="39.220181" lon="16.8947268"><ele>280.0</ele><time>2026-03-28T12:52:39.614Z</time></trkpt><trkpt lat="39.2202612" lon="16.8948117"><ele>280.0</ele><time>2026-03-28T12:52:40.613Z</time></trkpt><trkpt lat="39.2203337" lon="16.8948901"><ele>280.0</ele><time>2026-03-28T12:52:41.606Z</time></trkpt><trkpt lat="39.220402" lon="16.8949659"><ele>280.0</ele><time>2026-03-28T12:52:42.617Z</time></trkpt><trkpt lat="39.2204667" lon="16.8950512"><ele>280.0</ele><time>2026-03-28T12:52:43.622Z</time></trkpt><trkpt lat="39.220534" lon="16.8951488"><ele>280.0</ele><time>2026-03-28T12:52:44.62Z</time></trkpt><trkpt lat="39.2206091" lon="16.8952608"><ele>280.0</ele><time>2026-03-28T12:52:45.623Z</time></trkpt><trkpt lat="39.2207056" lon="16.8953903"><ele>280.0</ele><time>2026-03-28T12:52:46.611Z</time></trkpt><trkpt lat="39.2208207" lon="16.895526"><ele>282.3333333333333</ele><time>2026-03-28T12:52:47.619Z</time></trkpt><trkpt lat="39.2209496" lon="16.8956578"><ele>284.6666666666667</ele><time>2026-03-28T12:52:48.614Z</time></trkpt><trkpt lat="39.221075" lon="16.8957836"><ele>287.0</ele><time>2026-03-28T12:52:49.602Z</time></trkpt><trkpt lat="39.2212143" lon="16.8959215"><ele>289.0</ele><time>2026-03-28T12:52:50.613Z</time></trkpt><trkpt lat="39.2213484" lon="16.8960522"><ele>291.0</ele><time>2026-03-28T12:52:51.624Z</time></trkpt><trkpt lat="39.2214753" lon="16.8961699"><ele>293.0</ele><time>2026-03-28T12:52:52.619Z</time></trkpt><trkpt lat="39.2216112" lon="16.8962882"><ele>293.0</ele><time>2026-03-28T12:52:53.613Z</time></trkpt><trkpt lat="39.2217391" lon="16.8963972"><ele>293.0</ele><time>2026-03-28T12:52:54.609Z</time></trkpt><trkpt lat="39.2218582" lon="16.8964903"><ele>293.0</ele><time>2026-03-28T12:52:55.62Z</time></trkpt><trkpt lat="39.2219815" lon="16.8965763"><ele>293.0</ele><time>2026-03-28T12:52:56.617Z</time></trkpt><trkpt lat="39.2221061" lon="16.8966797"><ele>294.6666666666667</ele><time>2026-03-28T12:52:57.61Z</time></trkpt><trkpt lat="39.2222412" lon="16.8967981"><ele>296.3333333333333</ele><time>2026-03-28T12:52:58.607Z</time></trkpt><trkpt lat="39.2223863" lon="16.8969205"><ele>298.0</ele><time>2026-03-28T12:52:59.607Z</time></trkpt><trkpt lat="39.2225282" lon="16.8970385"><ele>298.0</ele><time>2026-03-28T12:53:00.611Z</time></trkpt><trkpt lat="39.2226711" lon="16.8971508"><ele>298.0</ele><time>2026-03-28T12:53:01.618Z</time></trkpt><trkpt lat="39.2228297" lon="16.8972678"><ele>298.0</ele><time>2026-03-28T12:53:02.61Z</time></trkpt><trkpt lat="39.2229998" lon="16.8973946"><ele>298.0</ele><time>2026-03-28T12:53:03.611Z</time></trkpt><trkpt lat="39.2231786" lon="16.8975312"><ele>298.0</ele><time>2026-03-28T12:53:04.62Z</time></trkpt><trkpt lat="39.2233634" lon="16.8976806"><ele>298.0</ele><time>2026-03-28T12:53:05.616Z</time></trkpt><trkpt lat="39.2235432" lon="16.8978303"><ele>298.0</ele><time>2026-03-28T12:53:06.623Z</time></trkpt><trkpt lat="39.2237169" lon="16.897978"><ele>298.0</ele><time>2026-03-28T12:53:07.62Z</time></trkpt><trkpt lat="39.223876" lon="16.8981142"><ele>298.0</ele><time>2026-03-28T12:53:08.634Z</time></trkpt><trkpt lat="39.2240247" lon="16.8982406"><ele>294.3333333333333</ele><time>2026-03-28T12:53:09.613Z</time></trkpt><trkpt lat="39.2241693" lon="16.8983511"><ele>290.6666666666667</ele><time>2026-03-28T12:53:10.626Z</time></trkpt><trkpt lat="39.2243165" lon="16.8984717"><ele>287.0</ele><time>2026-03-28T12:53:11.621Z</time></trkpt><trkpt lat="39.2244561" lon="16.8985859"><ele>287.0</ele><time>2026-03-28T12:53:12.625Z</time></trkpt><trkpt lat="39.2245902" lon="16.8987125"><ele>287.0</ele><time>2026-03-28T12:53:13.613Z</time></trkpt><trkpt lat="39.2247154" lon="16.8988492"><ele>287.0</ele><time>2026-03-28T12:53:14.616Z</time></trkpt><trkpt lat="39.2248233" lon="16.8989795"><ele>286.33333333333337</ele><time>2026-03-28T12:53:15.621Z</time></trkpt><trkpt lat="39.2249284" lon="16.8991036"><ele>285.6666666666667</ele><time>2026-03-28T12:53:16.623Z</time></trkpt><trkpt lat="39.2250421" lon="16.8992361"><ele>285.0</ele><time>2026-03-28T12:53:17.612Z</time></trkpt><trkpt lat="39.2251812" lon="16.899389"><ele>285.0</ele><time>2026-03-28T12:53:18.607Z</time></trkpt><trkpt lat="39.2253408" lon="16.8995619"><ele>285.0</ele><time>2026-03-28T12:53:19.611Z</time></trkpt><trkpt lat="39.2255132" lon="16.8997483"><ele>285.0</ele><time>2026-03-28T12:53:20.621Z</time></trkpt><trkpt lat="39.2256805" lon="16.8999303"><ele>287.0</ele><time>2026-03-28T12:53:21.611Z</time></trkpt><trkpt lat="39.2258367" lon="16.9001025"><ele>289.0</ele><time>2026-03-28T12:53:22.617Z</time></trkpt><trkpt lat="39.225984" lon="16.9002658"><ele>291.0</ele><time>2026-03-28T12:53:23.609Z</time></trkpt><trkpt lat="39.2261218" lon="16.9004167"><ele>291.0</ele><time>2026-03-28T12:53:24.613Z</time></trkpt><trkpt lat="39.2262541" lon="16.9005556"><ele>291.0</ele><time>2026-03-28T12:53:25.609Z</time></trkpt><trkpt lat="39.2263783" lon="16.9006893"><ele>291.0</ele><time>2026-03-28T12:53:26.615Z</time></trkpt><trkpt lat="39.226491" lon="16.9008238"><ele>298.25</ele><time>2026-03-28T12:53:27.62Z</time></trkpt><trkpt lat="39.2265905" lon="16.9009591"><ele>305.5</ele><time>2026-03-28T12:53:28.617Z</time></trkpt><trkpt lat="39.2266728" lon="16.9010955"><ele>312.75</ele><time>2026-03-28T12:53:29.611Z</time></trkpt><trkpt lat="39.2267344" lon="16.9012325"><ele>320.0</ele><time>2026-03-28T12:53:30.61Z</time></trkpt><trkpt lat="39.226775" lon="16.9013812"><ele>320.0</ele><time>2026-03-28T12:53:31.627Z</time></trkpt><trkpt lat="39.2267953" lon="16.9015418"><ele>320.0</ele><time>2026-03-28T12:53:32.619Z</time></trkpt><trkpt lat="39.2268049" lon="16.9017052"><ele>320.0</ele><time>2026-03-28T12:53:33.606Z</time></trkpt><trkpt lat="39.226824" lon="16.9018615"><ele>320.0</ele><time>2026-03-28T12:53:34.611Z</time></trkpt><trkpt lat="39.2268631" lon="16.9020143"><ele>320.25</ele><time>2026-03-28T12:53:35.616Z</time></trkpt><trkpt lat="39.2269264" lon="16.9021802"><ele>320.5</ele><time>2026-03-28T12:53:36.619Z</time></trkpt><trkpt lat="39.2270032" lon="16.9023265"><ele>320.75</ele><time>2026-03-28T12:53:37.613Z</time></trkpt><trkpt lat="39.2270976" lon="16.9024687"><ele>321.0</ele><time>2026-03-28T12:53:38.61Z</time></trkpt><trkpt lat="39.2272108" lon="16.9026278"><ele>325.3333333333333</ele><time>2026-03-28T12:53:39.612Z</time></trkpt><trkpt lat="39.2273302" lon="16.9027867"><ele>329.66666666666663</ele><time>2026-03-28T12:53:40.599Z</time></trkpt><trkpt lat="39.2274429" lon="16.9029172"><ele>334.0</ele><time>2026-03-28T12:53:41.609Z</time></trkpt><trkpt lat="39.2275538" lon="16.9030329"><ele>334.0</ele><time>2026-03-28T12:53:42.619Z</time></trkpt><trkpt lat="39.2276679" lon="16.9031467"><ele>334.0</ele><time>2026-03-28T12:53:43.615Z</time></trkpt><trkpt lat="39.2277868" lon="16.9032661"><ele>334.0</ele><time>2026-03-28T12:53:44.607Z</time></trkpt><trkpt lat="39.2278902" lon="16.9033707"><ele>334.0</ele><time>2026-03-28T12:53:45.616Z</time></trkpt><trkpt lat="39.2279748" lon="16.9034563"><ele>333.79999999999995</ele><time>2026-03-28T12:53:46.611Z</time></trkpt><trkpt lat="39.2280532" lon="16.9035167"><ele>333.59999999999997</ele><time>2026-03-28T12:53:47.618Z</time></trkpt><trkpt lat="39.2281386" lon="16.9035538"><ele>333.4</ele><time>2026-03-28T12:53:48.606Z</time></trkpt><trkpt lat="39.2282369" lon="16.9035685"><ele>333.2</ele><time>2026-03-28T12:53:49.626Z</time></trkpt><trkpt lat="39.2283661" lon="16.9035721"><ele>333.0</ele><time>2026-03-28T12:53:50.609Z</time></trkpt><trkpt lat="39.2285172" lon="16.9035781"><ele>334.3333333333333</ele><time>2026-03-28T12:53:51.61Z</time></trkpt><trkpt lat="39.2286947" lon="16.9036038"><ele>335.66666666666663</ele><time>2026-03-28T12:53:52.616Z</time></trkpt><trkpt lat="39.2288611" lon="16.9036441"><ele>337.0</ele><time>2026-03-28T12:53:53.62Z</time></trkpt><trkpt lat="39.2289968" lon="16.9036866"><ele>338.0</ele><time>2026-03-28T12:53:54.619Z</time></trkpt><trkpt lat="39.229117" lon="16.903735"><ele>339.0</ele><time>2026-03-28T12:53:55.607Z</time></trkpt><trkpt lat="39.2292258" lon="16.9037739"><ele>340.0</ele><time>2026-03-28T12:53:56.616Z</time></trkpt><trkpt lat="39.2293093" lon="16.9037624"><ele>341.0</ele><time>2026-03-28T12:53:57.611Z</time></trkpt><trkpt lat="39.2294104" lon="16.9037424"><ele>342.0</ele><time>2026-03-28T12:53:58.618Z</time></trkpt><trkpt lat="39.2294915" lon="16.9037213"><ele>342.0</ele><time>2026-03-28T12:53:59.623Z</time></trkpt><trkpt lat="39.2295533" lon="16.9036968"><ele>342.0</ele><time>2026-03-28T12:54:00.611Z</time></trkpt><trkpt lat="39.2296633" lon="16.9036743"><ele>342.0</ele><time>2026-03-28T12:54:02.614Z</time></trkpt><trkpt lat="39.2297381" lon="16.9036703"><ele>342.0</ele><time>2026-03-28T12:54:07.619Z</time></trkpt><trkpt lat="39.2298458" lon="16.903676"><ele>342.0</ele><time>2026-03-28T12:54:18.615Z</time></trkpt><trkpt lat="39.2298833" lon="16.9037479"><ele>342.0</ele><time>2026-03-28T12:54:20.618Z</time></trkpt><trkpt lat="39.2299367" lon="16.9038089"><ele>355.0</ele><time>2026-03-28T12:54:23.611Z</time></trkpt></trkseg><trkseg><trkpt lat="39.2298762" lon="16.9036875"><ele>352.4</ele><time>2026-03-28T13:54:51.626Z</time></trkpt><trkpt lat="39.2297791" lon="16.9036806"><ele>349.8</ele><time>2026-03-28T13:54:55.615Z</time></trkpt><trkpt lat="39.2296932" lon="16.9036747"><ele>347.20000000000005</ele><time>2026-03-28T13:54:57.632Z</time></trkpt><trkpt lat="39.2296089" lon="16.9036805"><ele>344.6</ele><time>2026-03-28T13:54:59.619Z</time></trkpt><trkpt lat="39.2294902" lon="16.9037161"><ele>342.0</ele><time>2026-03-28T13:55:01.618Z</time></trkpt><trkpt lat="39.2294275" lon="16.9037339"><ele>342.0</ele><time>2026-03-28T13:55:02.607Z</time></trkpt><trkpt lat="39.2293443" lon="16.9037488"><ele>342.0</ele><time>2026-03-28T13:55:03.603Z</time></trkpt><trkpt lat="39.2292607" lon="16.9037659"><ele>342.0</ele><time>2026-03-28T13:55:04.613Z</time></trkpt><trkpt lat="39.2291834" lon="16.903777"><ele>342.0</ele><time>2026-03-28T13:55:05.613Z</time></trkpt><trkpt lat="39.2291075" lon="16.9037559"><ele>342.0</ele><time>2026-03-28T13:55:06.615Z</time></trkpt><trkpt lat="39.2290408" lon="16.9037287"><ele>342.0</ele><time>2026-03-28T13:55:07.624Z</time></trkpt><trkpt lat="39.2289237" lon="16.9036807"><ele>340.75</ele><time>2026-03-28T13:55:09.605Z</time></trkpt><trkpt lat="39.2288195" lon="16.9036554"><ele>339.5</ele><time>2026-03-28T13:55:10.605Z</time></trkpt><trkpt lat="39.2286883" lon="16.903635"><ele>338.25</ele><time>2026-03-28T13:55:11.616Z</time></trkpt><trkpt lat="39.2285529" lon="16.9036135"><ele>337.0</ele><time>2026-03-28T13:55:12.605Z</time></trkpt><trkpt lat="39.2284334" lon="16.9035925"><ele>337.0</ele><time>2026-03-28T13:55:13.624Z</time></trkpt><trkpt lat="39.2283453" lon="16.9035819"><ele>337.0</ele><time>2026-03-28T13:55:14.607Z</time></trkpt><trkpt lat="39.2282693" lon="16.9035712"><ele>337.0</ele><time>2026-03-28T13:55:15.618Z</time></trkpt><trkpt lat="39.2281994" lon="16.9035641"><ele>337.0</ele><time>2026-03-28T13:55:16.613Z</time></trkpt><trkpt lat="39.2281216" lon="16.9035469"><ele>337.0</ele><time>2026-03-28T13:55:17.617Z</time></trkpt><trkpt lat="39.2280345" lon="16.9034989"><ele>337.0</ele><time>2026-03-28T13:55:18.606Z</time></trkpt><trkpt lat="39.2279354" lon="16.9034112"><ele>336.25</ele><time>2026-03-28T13:55:19.619Z</time></trkpt><trkpt lat="39.2278278" lon="16.9033048"><ele>335.5</ele><time>2026-03-28T13:55:20.615Z</time></trkpt><trkpt lat="39.2277355" lon="16.9032157"><ele>334.75</ele><time>2026-03-28T13:55:21.605Z</time></trkpt><trkpt lat="39.2276486" lon="16.9031258"><ele>334.0</ele><time>2026-03-28T13:55:22.615Z</time></trkpt><trkpt lat="39.227578" lon="16.9030513"><ele>334.0</ele><time>2026-03-28T13:55:23.61Z</time></trkpt><trkpt lat="39.2275033" lon="16.9029738"><ele>334.0</ele><time>2026-03-28T13:55:24.606Z</time></trkpt><trkpt lat="39.227425" lon="16.9028863"><ele>334.0</ele><time>2026-03-28T13:55:25.622Z</time></trkpt><trkpt lat="39.2273279" lon="16.9027691"><ele>334.0</ele><time>2026-03-28T13:55:26.614Z</time></trkpt><trkpt lat="39.2272296" lon="16.9026408"><ele>331.4</ele><time>2026-03-28T13:55:27.61Z</time></trkpt><trkpt lat="39.2271472" lon="16.9025274"><ele>328.79999999999995</ele><time>2026-03-28T13:55:28.615Z</time></trkpt><trkpt lat="39.2270763" lon="16.9024172"><ele>326.20000000000005</ele><time>2026-03-28T13:55:29.613Z</time></trkpt><trkpt lat="39.2270152" lon="16.9023125"><ele>323.6</ele><time>2026-03-28T13:55:30.614Z</time></trkpt><trkpt lat="39.2269611" lon="16.9022091"><ele>321.0</ele><time>2026-03-28T13:55:31.621Z</time></trkpt><trkpt lat="39.2269194" lon="16.9021123"><ele>321.0</ele><time>2026-03-28T13:55:32.613Z</time></trkpt><trkpt lat="39.2268889" lon="16.9020288"><ele>321.0</ele><time>2026-03-28T13:55:33.616Z</time></trkpt><trkpt lat="39.2268581" lon="16.9019058"><ele>321.0</ele><time>2026-03-28T13:55:35.619Z</time></trkpt><trkpt lat="39.2268445" lon="16.9018047"><ele>321.0</ele><time>2026-03-28T13:55:38.613Z</time></trkpt><trkpt lat="39.2268373" lon="16.9017082"><ele>321.0</ele><time>2026-03-28T13:55:42.612Z</time></trkpt><trkpt lat="39.2268075" lon="16.9016047"><ele>321.0</ele><time>2026-03-28T13:58:29.627Z</time></trkpt><trkpt lat="39.22672" lon="16.9016106"><ele>321.0</ele><time>2026-03-28T13:58:43.636Z</time></trkpt><trkpt lat="39.2266815" lon="16.9016833"><ele>321.0</ele><time>2026-03-28T13:58:44.614Z</time></trkpt><trkpt lat="39.2266112" lon="16.9018058"><ele>321.0</ele><time>2026-03-28T13:58:45.623Z</time></trkpt><trkpt lat="39.2265304" lon="16.9019443"><ele>321.0</ele><time>2026-03-28T13:58:46.611Z</time></trkpt><trkpt lat="39.2264517" lon="16.9020738"><ele>321.0</ele><time>2026-03-28T13:58:47.62Z</time></trkpt><trkpt lat="39.2263804" lon="16.9021896"><ele>317.2</ele><time>2026-03-28T13:58:48.615Z</time></trkpt><trkpt lat="39.2263269" lon="16.9023042"><ele>313.40000000000003</ele><time>2026-03-28T13:58:49.624Z</time></trkpt><trkpt lat="39.2262974" lon="16.9024211"><ele>309.6</ele><time>2026-03-28T13:58:50.616Z</time></trkpt><trkpt lat="39.2262917" lon="16.9025421"><ele>305.8</ele><time>2026-03-28T13:58:51.62Z</time></trkpt><trkpt lat="39.2262874" lon="16.9026683"><ele>302.0</ele><time>2026-03-28T13:58:52.61Z</time></trkpt><trkpt lat="39.2263094" lon="16.9027813"><ele>302.0</ele><time>2026-03-28T13:58:53.616Z</time></trkpt><trkpt lat="39.2263344" lon="16.9028919"><ele>302.0</ele><time>2026-03-28T13:58:54.608Z</time></trkpt><trkpt lat="39.2263602" lon="16.9030076"><ele>302.0</ele><time>2026-03-28T13:58:55.616Z</time></trkpt><trkpt lat="39.2263873" lon="16.9031336"><ele>302.0</ele><time>2026-03-28T13:58:56.614Z</time></trkpt><trkpt lat="39.2264065" lon="16.9032898"><ele>302.0</ele><time>2026-03-28T13:58:57.619Z</time></trkpt><trkpt lat="39.2264204" lon="16.9034599"><ele>302.5</ele><time>2026-03-28T13:58:58.613Z</time></trkpt><trkpt lat="39.2264265" lon="16.9036341"><ele>303.0</ele><time>2026-03-28T13:58:59.631Z</time></trkpt><trkpt lat="39.2264358" lon="16.9037963"><ele>303.5</ele><time>2026-03-28T13:59:00.611Z</time></trkpt><trkpt lat="39.226457" lon="16.9039396"><ele>304.0</ele><time>2026-03-28T13:59:01.608Z</time></trkpt><trkpt lat="39.2264959" lon="16.9040887"><ele>305.75</ele><time>2026-03-28T13:59:02.61Z</time></trkpt><trkpt lat="39.2265416" lon="16.904233"><ele>307.5</ele><time>2026-03-28T13:59:03.617Z</time></trkpt><trkpt lat="39.2265871" lon="16.9043754"><ele>309.25</ele><time>2026-03-28T13:59:04.606Z</time></trkpt><trkpt lat="39.226633" lon="16.9045146"><ele>311.0</ele><time>2026-03-28T13:59:05.619Z</time></trkpt><trkpt lat="39.2266851" lon="16.9046501"><ele>311.0</ele><time>2026-03-28T13:59:06.614Z</time></trkpt><trkpt lat="39.2267445" lon="16.9047892"><ele>311.0</ele><time>2026-03-28T13:59:07.619Z</time></trkpt><trkpt lat="39.2267985" lon="16.9049238"><ele>311.0</ele><time>2026-03-28T13:59:08.619Z</time></trkpt><trkpt lat="39.2268439" lon="16.9050604"><ele>311.0</ele><time>2026-03-28T13:59:09.622Z</time></trkpt><trkpt lat="39.2268784" lon="16.9051783"><ele>309.83333333333337</ele><time>2026-03-28T13:59:10.616Z</time></trkpt><trkpt lat="39.2269121" lon="16.9052709"><ele>308.6666666666667</ele><time>2026-03-28T13:59:11.626Z</time></trkpt><trkpt lat="39.2269417" lon="16.9053529"><ele>307.5</ele><time>2026-03-28T13:59:12.627Z</time></trkpt><trkpt lat="39.2269878" lon="16.9054157"><ele>306.3333333333333</ele><time>2026-03-28T13:59:13.615Z</time></trkpt><trkpt lat="39.2270456" lon="16.9054928"><ele>305.16666666666663</ele><time>2026-03-28T13:59:14.612Z</time></trkpt><trkpt lat="39.2270941" lon="16.9055674"><ele>304.0</ele><time>2026-03-28T13:59:15.622Z</time></trkpt><trkpt lat="39.227144" lon="16.90564"><ele>304.0</ele><time>2026-03-28T13:59:16.61Z</time></trkpt><trkpt lat="39.2271981" lon="16.905723"><ele>304.0</ele><time>2026-03-28T13:59:17.62Z</time></trkpt><trkpt lat="39.2272487" lon="16.9058188"><ele>304.0</ele><time>2026-03-28T13:59:18.619Z</time></trkpt><trkpt lat="39.2272966" lon="16.90591"><ele>304.0</ele><time>2026-03-28T13:59:19.61Z</time></trkpt><trkpt lat="39.2273374" lon="16.9059882"><ele>304.0</ele><time>2026-03-28T13:59:20.611Z</time></trkpt><trkpt lat="39.2274093" lon="16.9061101"><ele>302.4</ele><time>2026-03-28T13:59:22.621Z</time></trkpt><trkpt lat="39.2274715" lon="16.9062083"><ele>300.79999999999995</ele><time>2026-03-28T13:59:24.61Z</time></trkpt><trkpt lat="39.2275482" lon="16.9063215"><ele>299.20000000000005</ele><time>2026-03-28T13:59:26.621Z</time></trkpt><trkpt lat="39.2276071" lon="16.9063876"><ele>297.6</ele><time>2026-03-28T13:59:27.612Z</time></trkpt><trkpt lat="39.2276558" lon="16.9064498"><ele>296.0</ele><time>2026-03-28T13:59:28.622Z</time></trkpt><trkpt lat="39.2277425" lon="16.9065538"><ele>296.0</ele><time>2026-03-28T13:59:30.607Z</time></trkpt><trkpt lat="39.2277942" lon="16.9066095"><ele>296.0</ele><time>2026-03-28T13:59:31.623Z</time></trkpt><trkpt lat="39.2278627" lon="16.9067029"><ele>296.0</ele><time>2026-03-28T13:59:33.609Z</time></trkpt><trkpt lat="39.2279139" lon="16.9067663"><ele>296.0</ele><time>2026-03-28T13:59:35.622Z</time></trkpt><trkpt lat="39.2279724" lon="16.9068268"><ele>296.0</ele><time>2026-03-28T13:59:38.623Z</time></trkpt><trkpt lat="39.2280415" lon="16.9069012"><ele>296.0</ele><time>2026-03-28T13:59:41.613Z</time></trkpt><trkpt lat="39.2281023" lon="16.9069812"><ele>294.83333333333337</ele><time>2026-03-28T13:59:45.64Z</time></trkpt><trkpt lat="39.2281216" lon="16.9071008"><ele>293.6666666666667</ele><time>2026-03-28T13:59:48.619Z</time></trkpt><trkpt lat="39.2281117" lon="16.9072121"><ele>292.5</ele><time>2026-03-28T13:59:50.617Z</time></trkpt><trkpt lat="39.2281111" lon="16.9073528"><ele>291.3333333333333</ele><time>2026-03-28T13:59:52.612Z</time></trkpt><trkpt lat="39.2281176" lon="16.9074497"><ele>290.16666666666663</ele><time>2026-03-28T13:59:54.617Z</time></trkpt><trkpt lat="39.2281469" lon="16.9075371"><ele>289.0</ele><time>2026-03-28T13:59:57.622Z</time></trkpt><trkpt lat="39.2282242" lon="16.9076091"><ele>286.8571428571429</ele><time>2026-03-28T14:00:00.616Z</time></trkpt><trkpt lat="39.2282885" lon="16.9076484"><ele>284.7142857142857</ele><time>2026-03-28T14:00:02.616Z</time></trkpt><trkpt lat="39.2283573" lon="16.9077054"><ele>282.57142857142856</ele><time>2026-03-28T14:00:04.622Z</time></trkpt><trkpt lat="39.2284012" lon="16.9077663"><ele>280.42857142857144</ele><time>2026-03-28T14:00:05.631Z</time></trkpt><trkpt lat="39.2284505" lon="16.9078259"><ele>278.2857142857143</ele><time>2026-03-28T14:00:06.61Z</time></trkpt><trkpt lat="39.2285082" lon="16.9078858"><ele>276.14285714285717</ele><time>2026-03-28T14:00:07.619Z</time></trkpt><trkpt lat="39.2285699" lon="16.9079376"><ele>274.0</ele><time>2026-03-28T14:00:08.612Z</time></trkpt><trkpt lat="39.2286244" lon="16.9079795"><ele>274.0</ele><time>2026-03-28T14:00:09.612Z</time></trkpt><trkpt lat="39.2286959" lon="16.9080464"><ele>274.0</ele><time>2026-03-28T14:00:11.623Z</time></trkpt><trkpt lat="39.2287617" lon="16.908113"><ele>274.0</ele><time>2026-03-28T14:00:19.632Z</time></trkpt><trkpt lat="39.2288161" lon="16.9081674"><ele>274.0</ele><time>2026-03-28T14:00:21.633Z</time></trkpt><trkpt lat="39.2288829" lon="16.9082385"><ele>274.0</ele><time>2026-03-28T14:00:24.611Z</time></trkpt><trkpt lat="39.2289446" lon="16.9082874"><ele>274.0</ele><time>2026-03-28T14:00:26.618Z</time></trkpt><trkpt lat="39.2290135" lon="16.9083441"><ele>272.3333333333333</ele><time>2026-03-28T14:00:28.612Z</time></trkpt><trkpt lat="39.229093" lon="16.9084131"><ele>270.66666666666663</ele><time>2026-03-28T14:00:31.629Z</time></trkpt><trkpt lat="39.2291381" lon="16.9085056"><ele>269.0</ele><time>2026-03-28T14:00:33.609Z</time></trkpt><trkpt lat="39.2291741" lon="16.9085946"><ele>267.3333333333333</ele><time>2026-03-28T14:00:35.617Z</time></trkpt><trkpt lat="39.229211" lon="16.9086769"><ele>265.6666666666667</ele><time>2026-03-28T14:00:38.611Z</time></trkpt><trkpt lat="39.2292482" lon="16.9087568"><ele>264.0</ele><time>2026-03-28T14:00:41.616Z</time></trkpt><trkpt lat="39.2292834" lon="16.9088273"><ele>264.0</ele><time>2026-03-28T14:00:43.609Z</time></trkpt><trkpt lat="39.2293225" lon="16.9089216"><ele>264.0</ele><time>2026-03-28T14:00:46.617Z</time></trkpt><trkpt lat="39.2293605" lon="16.9089944"><ele>264.0</ele><time>2026-03-28T14:00:49.612Z</time></trkpt><trkpt lat="39.229419" lon="16.9090548"><ele>264.0</ele><time>2026-03-28T14:00:53.622Z</time></trkpt><trkpt lat="39.2294947" lon="16.9090918"><ele>264.0</ele><time>2026-03-28T14:00:57.617Z</time></trkpt><trkpt lat="39.2295689" lon="16.9091211"><ele>264.0</ele><time>2026-03-28T14:01:00.619Z</time></trkpt><trkpt lat="39.2296304" lon="16.9091678"><ele>264.0</ele><time>2026-03-28T14:01:02.614Z</time></trkpt><trkpt lat="39.2297005" lon="16.9092183"><ele>264.0</ele><time>2026-03-28T14:01:04.615Z</time></trkpt><trkpt lat="39.2297838" lon="16.9092493"><ele>264.0</ele><time>2026-03-28T14:01:06.627Z</time></trkpt><trkpt lat="39.2298841" lon="16.9092608"><ele>264.0</ele><time>2026-03-28T14:01:08.622Z</time></trkpt><trkpt lat="39.2299983" lon="16.909277"><ele>264.0</ele><time>2026-03-28T14:01:10.608Z</time></trkpt><trkpt lat="39.2300662" lon="16.9092912"><ele>264.8</ele><time>2026-03-28T14:01:11.625Z</time></trkpt><trkpt lat="39.230135" lon="16.9093061"><ele>265.59999999999997</ele><time>2026-03-28T14:01:12.617Z</time></trkpt><trkpt lat="39.2301994" lon="16.9093182"><ele>266.4</ele><time>2026-03-28T14:01:13.621Z</time></trkpt><trkpt lat="39.2303151" lon="16.9093035"><ele>267.2</ele><time>2026-03-28T14:01:15.618Z</time></trkpt><trkpt lat="39.2304169" lon="16.9092521"><ele>268.0</ele><time>2026-03-28T14:01:17.633Z</time></trkpt><trkpt lat="39.2304987" lon="16.9092046"><ele>268.0</ele><time>2026-03-28T14:01:19.621Z</time></trkpt><trkpt lat="39.2305842" lon="16.9091657"><ele>268.0</ele><time>2026-03-28T14:01:21.624Z</time></trkpt><trkpt lat="39.230656" lon="16.9091418"><ele>268.0</ele><time>2026-03-28T14:01:23.608Z</time></trkpt><trkpt lat="39.230736" lon="16.9091651"><ele>268.0</ele><time>2026-03-28T14:01:26.611Z</time></trkpt><trkpt lat="39.2308052" lon="16.9092023"><ele>268.0</ele><time>2026-03-28T14:01:28.612Z</time></trkpt><trkpt lat="39.2308763" lon="16.9092826"><ele>268.0</ele><time>2026-03-28T14:01:30.624Z</time></trkpt><trkpt lat="39.2309446" lon="16.9093887"><ele>265.16666666666663</ele><time>2026-03-28T14:01:32.606Z</time></trkpt><trkpt lat="39.2309996" lon="16.909484"><ele>262.3333333333333</ele><time>2026-03-28T14:01:34.605Z</time></trkpt><trkpt lat="39.2310376" lon="16.9095658"><ele>259.5</ele><time>2026-03-28T14:01:36.612Z</time></trkpt><trkpt lat="39.2310798" lon="16.9096559"><ele>256.6666666666667</ele><time>2026-03-28T14:01:39.622Z</time></trkpt><trkpt lat="39.2311184" lon="16.9097241"><ele>253.83333333333334</ele><time>2026-03-28T14:01:41.615Z</time></trkpt><trkpt lat="39.2311695" lon="16.9097846"><ele>251.0</ele><time>2026-03-28T14:01:44.612Z</time></trkpt><trkpt lat="39.2312471" lon="16.9098461"><ele>251.00000000000003</ele><time>2026-03-28T14:02:02.618Z</time></trkpt><trkpt lat="39.2313023" lon="16.9099089"><ele>251.0</ele><time>2026-03-28T14:02:04.611Z</time></trkpt><trkpt lat="39.2313545" lon="16.9099832"><ele>251.0</ele><time>2026-03-28T14:02:06.611Z</time></trkpt><trkpt lat="39.2314014" lon="16.9100454"><ele>251.0</ele><time>2026-03-28T14:02:09.612Z</time></trkpt><trkpt lat="39.2314614" lon="16.9101299"><ele>251.00000000000003</ele><time>2026-03-28T14:02:12.615Z</time></trkpt><trkpt lat="39.2315251" lon="16.9101982"><ele>251.0</ele><time>2026-03-28T14:02:15.616Z</time></trkpt><trkpt lat="39.2315941" lon="16.9102651"><ele>248.66666666666669</ele><time>2026-03-28T14:02:18.611Z</time></trkpt><trkpt lat="39.2316136" lon="16.9103575"><ele>246.33333333333334</ele><time>2026-03-28T14:02:21.621Z</time></trkpt><trkpt lat="39.231555" lon="16.9104544"><ele>244.0</ele><time>2026-03-28T14:02:24.615Z</time></trkpt><trkpt lat="39.2314712" lon="16.9104546"><ele>241.66666666666669</ele><time>2026-03-28T14:02:26.629Z</time></trkpt><trkpt lat="39.2313985" lon="16.9104726"><ele>239.33333333333334</ele><time>2026-03-28T14:02:28.603Z</time></trkpt><trkpt lat="39.231344" lon="16.9105186"><ele>237.0</ele><time>2026-03-28T14:02:30.613Z</time></trkpt><trkpt lat="39.231323" lon="16.9106238"><ele>237.0</ele><time>2026-03-28T14:02:33.62Z</time></trkpt><trkpt lat="39.2314023" lon="16.9106984"><ele>237.0</ele><time>2026-03-28T14:02:36.612Z</time></trkpt><trkpt lat="39.2314933" lon="16.9107305"><ele>237.0</ele><time>2026-03-28T14:02:38.611Z</time></trkpt><trkpt lat="39.2315664" lon="16.910757"><ele>237.0</ele><time>2026-03-28T14:02:40.618Z</time></trkpt><trkpt lat="39.2316335" lon="16.910769"><ele>237.0</ele><time>2026-03-28T14:02:43.617Z</time></trkpt><trkpt lat="39.2316944" lon="16.9108112"><ele>237.0</ele><time>2026-03-28T14:02:46.611Z</time></trkpt><trkpt lat="39.2318025" lon="16.9108356"><ele>237.0</ele><time>2026-03-28T14:02:49.611Z</time></trkpt><trkpt lat="39.2318937" lon="16.910875"><ele>237.0</ele><time>2026-03-28T14:02:51.618Z</time></trkpt><trkpt lat="39.2319787" lon="16.9109471"><ele>237.0</ele><time>2026-03-28T14:02:53.626Z</time></trkpt><trkpt lat="39.2320389" lon="16.9110106"><ele>237.0</ele><time>2026-03-28T14:02:55.614Z</time></trkpt><trkpt lat="39.2320895" lon="16.9110649"><ele>237.0</ele><time>2026-03-28T14:02:57.617Z</time></trkpt><trkpt lat="39.2321606" lon="16.911153"><ele>237.0</ele><time>2026-03-28T14:03:00.608Z</time></trkpt><trkpt lat="39.2322241" lon="16.9112561"><ele>235.8</ele><time>2026-03-28T14:03:02.611Z</time></trkpt><trkpt lat="39.2322921" lon="16.9113884"><ele>234.6</ele><time>2026-03-28T14:03:04.611Z</time></trkpt><trkpt lat="39.232357" lon="16.9115149"><ele>233.40000000000003</ele><time>2026-03-28T14:03:06.61Z</time></trkpt><trkpt lat="39.2323906" lon="16.9116311"><ele>232.20000000000002</ele><time>2026-03-28T14:03:08.611Z</time></trkpt><trkpt lat="39.2324318" lon="16.9117317"><ele>231.0</ele><time>2026-03-28T14:03:10.608Z</time></trkpt><trkpt lat="39.2324847" lon="16.9118234"><ele>229.85714285714286</ele><time>2026-03-28T14:03:12.603Z</time></trkpt><trkpt lat="39.2325317" lon="16.9119044"><ele>228.71428571428572</ele><time>2026-03-28T14:03:14.611Z</time></trkpt><trkpt lat="39.2325647" lon="16.9119896"><ele>227.57142857142856</ele><time>2026-03-28T14:03:16.608Z</time></trkpt><trkpt lat="39.2325948" lon="16.9120768"><ele>226.42857142857144</ele><time>2026-03-28T14:03:22.609Z</time></trkpt><trkpt lat="39.2326295" lon="16.9121561"><ele>225.28571428571428</ele><time>2026-03-28T14:03:26.61Z</time></trkpt><trkpt lat="39.2326632" lon="16.9122355"><ele>224.14285714285714</ele><time>2026-03-28T14:03:29.611Z</time></trkpt><trkpt lat="39.2327088" lon="16.9123244"><ele>223.0</ele><time>2026-03-28T14:03:32.614Z</time></trkpt><trkpt lat="39.2327246" lon="16.9124047"><ele>223.0</ele><time>2026-03-28T14:03:34.602Z</time></trkpt><trkpt lat="39.2327433" lon="16.9125363"><ele>223.0</ele><time>2026-03-28T14:03:37.605Z</time></trkpt><trkpt lat="39.232769" lon="16.91268"><ele>223.0</ele><time>2026-03-28T14:03:39.62Z</time></trkpt><trkpt lat="39.2327871" lon="16.9128167"><ele>223.0</ele><time>2026-03-28T14:03:41.62Z</time></trkpt><trkpt lat="39.2328004" lon="16.9129357"><ele>223.0</ele><time>2026-03-28T14:03:43.616Z</time></trkpt><trkpt lat="39.2328169" lon="16.9130725"><ele>223.0</ele><time>2026-03-28T14:03:45.625Z</time></trkpt><trkpt lat="39.2328299" lon="16.913228"><ele>223.0</ele><time>2026-03-28T14:03:47.612Z</time></trkpt><trkpt lat="39.2328416" lon="16.9133764"><ele>223.0</ele><time>2026-03-28T14:03:49.614Z</time></trkpt><trkpt lat="39.2328632" lon="16.9134598"><ele>223.0</ele><time>2026-03-28T14:03:50.613Z</time></trkpt><trkpt lat="39.2328972" lon="16.9135527"><ele>223.0</ele><time>2026-03-28T14:03:51.62Z</time></trkpt><trkpt lat="39.2329294" lon="16.9136368"><ele>221.83333333333331</ele><time>2026-03-28T14:03:52.623Z</time></trkpt><trkpt lat="39.2329593" lon="16.9137134"><ele>220.66666666666666</ele><time>2026-03-28T14:03:53.609Z</time></trkpt><trkpt lat="39.2329804" lon="16.9138556"><ele>219.5</ele><time>2026-03-28T14:03:55.623Z</time></trkpt><trkpt lat="39.232948" lon="16.9139547"><ele>218.33333333333331</ele><time>2026-03-28T14:03:57.623Z</time></trkpt><trkpt lat="39.2329243" lon="16.9140473"><ele>217.16666666666666</ele><time>2026-03-28T14:03:59.616Z</time></trkpt><trkpt lat="39.232926" lon="16.9141377"><ele>216.0</ele><time>2026-03-28T14:04:02.616Z</time></trkpt><trkpt lat="39.2329436" lon="16.9142198"><ele>216.16666666666666</ele><time>2026-03-28T14:04:05.622Z</time></trkpt><trkpt lat="39.2329827" lon="16.9143135"><ele>216.33333333333331</ele><time>2026-03-28T14:04:08.609Z</time></trkpt><trkpt lat="39.2330356" lon="16.9144126"><ele>216.5</ele><time>2026-03-28T14:04:11.607Z</time></trkpt><trkpt lat="39.2330781" lon="16.9144863"><ele>216.66666666666666</ele><time>2026-03-28T14:04:13.631Z</time></trkpt><trkpt lat="39.2331522" lon="16.9145228"><ele>216.83333333333331</ele><time>2026-03-28T14:04:15.617Z</time></trkpt><trkpt lat="39.2332208" lon="16.9145586"><ele>217.0</ele><time>2026-03-28T14:04:17.622Z</time></trkpt><trkpt lat="39.2332635" lon="16.9146469"><ele>217.0</ele><time>2026-03-28T14:04:26.616Z</time></trkpt><trkpt lat="39.2333206" lon="16.9147144"><ele>217.0</ele><time>2026-03-28T14:04:30.616Z</time></trkpt><trkpt lat="39.2333754" lon="16.9147908"><ele>217.0</ele><time>2026-03-28T14:04:34.612Z</time></trkpt><trkpt lat="39.2334177" lon="16.9148641"><ele>217.0</ele><time>2026-03-28T14:04:37.615Z</time></trkpt><trkpt lat="39.2334528" lon="16.9149466"><ele>217.0</ele><time>2026-03-28T14:04:41.622Z</time></trkpt><trkpt lat="39.2334877" lon="16.9150218"><ele>217.0</ele><time>2026-03-28T14:04:50.613Z</time></trkpt><trkpt lat="39.2335277" lon="16.9150871"><ele>217.0</ele><time>2026-03-28T14:04:53.625Z</time></trkpt><trkpt lat="39.2335621" lon="16.9151692"><ele>215.0</ele><time>2026-03-28T14:04:59.628Z</time></trkpt><trkpt lat="39.233589" lon="16.9152703"><ele>213.0</ele><time>2026-03-28T14:05:03.616Z</time></trkpt><trkpt lat="39.2335964" lon="16.9153736"><ele>211.0</ele><time>2026-03-28T14:05:06.662Z</time></trkpt><trkpt lat="39.2335756" lon="16.9154584"><ele>209.0</ele><time>2026-03-28T14:05:08.623Z</time></trkpt><trkpt lat="39.233562" lon="16.9155515"><ele>207.0</ele><time>2026-03-28T14:05:10.662Z</time></trkpt><trkpt lat="39.2335713" lon="16.9156372"><ele>205.0</ele><time>2026-03-28T14:05:12.606Z</time></trkpt><trkpt lat="39.233516" lon="16.9157007"><ele>203.0</ele><time>2026-03-28T14:05:17.62Z</time></trkpt><trkpt lat="39.2334728" lon="16.9157847"><ele>203.00000000000003</ele><time>2026-03-28T14:05:21.614Z</time></trkpt><trkpt lat="39.2334338" lon="16.9158666"><ele>203.0</ele><time>2026-03-28T14:05:23.607Z</time></trkpt><trkpt lat="39.2334595" lon="16.9159916"><ele>203.0</ele><time>2026-03-28T14:05:25.613Z</time></trkpt><trkpt lat="39.2334963" lon="16.9160661"><ele>203.0</ele><time>2026-03-28T14:05:26.617Z</time></trkpt><trkpt lat="39.2335435" lon="16.9161284"><ele>203.00000000000003</ele><time>2026-03-28T14:05:27.609Z</time></trkpt><trkpt lat="39.2335961" lon="16.9162072"><ele>203.0</ele><time>2026-03-28T14:05:29.62Z</time></trkpt><trkpt lat="39.2336426" lon="16.9162828"><ele>201.33333333333334</ele><time>2026-03-28T14:05:32.612Z</time></trkpt><trkpt lat="39.2336871" lon="16.9163494"><ele>199.66666666666669</ele><time>2026-03-28T14:05:34.62Z</time></trkpt><trkpt lat="39.2337448" lon="16.9164184"><ele>198.0</ele><time>2026-03-28T14:05:37.659Z</time></trkpt><trkpt lat="39.2338233" lon="16.9164741"><ele>196.33333333333331</ele><time>2026-03-28T14:05:39.697Z</time></trkpt><trkpt lat="39.2338634" lon="16.9165878"><ele>194.66666666666666</ele><time>2026-03-28T14:05:41.62Z</time></trkpt><trkpt lat="39.233898" lon="16.9166771"><ele>193.0</ele><time>2026-03-28T14:05:44.619Z</time></trkpt><trkpt lat="39.2339333" lon="16.9167612"><ele>191.0</ele><time>2026-03-28T14:05:48.642Z</time></trkpt><trkpt lat="39.233996" lon="16.9168273"><ele>189.0</ele><time>2026-03-28T14:05:55.625Z</time></trkpt><trkpt lat="39.2340449" lon="16.9168976"><ele>187.0</ele><time>2026-03-28T14:05:57.607Z</time></trkpt><trkpt lat="39.2341325" lon="16.9170196"><ele>185.0</ele><time>2026-03-28T14:05:59.62Z</time></trkpt><trkpt lat="39.2342049" lon="16.917097"><ele>183.0</ele><time>2026-03-28T14:06:00.613Z</time></trkpt><trkpt lat="39.2342711" lon="16.9171953"><ele>183.0</ele><time>2026-03-28T14:06:01.622Z</time></trkpt><trkpt lat="39.234328" lon="16.9173058"><ele>183.0</ele><time>2026-03-28T14:06:02.61Z</time></trkpt><trkpt lat="39.2343853" lon="16.917429"><ele>183.0</ele><time>2026-03-28T14:06:03.612Z</time></trkpt><trkpt lat="39.2344439" lon="16.9175407"><ele>183.0</ele><time>2026-03-28T14:06:04.61Z</time></trkpt><trkpt lat="39.234494" lon="16.9176483"><ele>183.0</ele><time>2026-03-28T14:06:05.622Z</time></trkpt><trkpt lat="39.2345294" lon="16.9177554"><ele>181.4</ele><time>2026-03-28T14:06:06.621Z</time></trkpt><trkpt lat="39.234557" lon="16.9178662"><ele>179.8</ele><time>2026-03-28T14:06:07.616Z</time></trkpt><trkpt lat="39.2345866" lon="16.91798"><ele>178.2</ele><time>2026-03-28T14:06:08.604Z</time></trkpt><trkpt lat="39.234623" lon="16.9180872"><ele>176.6</ele><time>2026-03-28T14:06:09.616Z</time></trkpt><trkpt lat="39.2346605" lon="16.9181903"><ele>175.0</ele><time>2026-03-28T14:06:10.617Z</time></trkpt><trkpt lat="39.2347329" lon="16.9182936"><ele>175.2</ele><time>2026-03-28T14:06:11.603Z</time></trkpt><trkpt lat="39.2348079" lon="16.9184043"><ele>175.4</ele><time>2026-03-28T14:06:12.612Z</time></trkpt><trkpt lat="39.2348722" lon="16.9184978"><ele>175.60000000000002</ele><time>2026-03-28T14:06:13.615Z</time></trkpt><trkpt lat="39.2349236" lon="16.9185736"><ele>175.8</ele><time>2026-03-28T14:06:14.606Z</time></trkpt><trkpt lat="39.2349644" lon="16.9186384"><ele>176.0</ele><time>2026-03-28T14:06:15.604Z</time></trkpt><trkpt lat="39.235022" lon="16.9187385"><ele>176.0</ele><time>2026-03-28T14:06:17.621Z</time></trkpt><trkpt lat="39.235075" lon="16.9188261"><ele>176.0</ele><time>2026-03-28T14:06:20.608Z</time></trkpt><trkpt lat="39.2351229" lon="16.9188956"><ele>176.0</ele><time>2026-03-28T14:06:23.609Z</time></trkpt><trkpt lat="39.2351812" lon="16.9189537"><ele>176.0</ele><time>2026-03-28T14:06:26.61Z</time></trkpt><trkpt lat="39.2352213" lon="16.919038"><ele>176.0</ele><time>2026-03-28T14:06:29.623Z</time></trkpt><trkpt lat="39.2352744" lon="16.9191429"><ele>176.0</ele><time>2026-03-28T14:06:32.614Z</time></trkpt><trkpt lat="39.2353145" lon="16.9192226"><ele>174.83333333333331</ele><time>2026-03-28T14:06:34.611Z</time></trkpt><trkpt lat="39.2353705" lon="16.9193189"><ele>173.66666666666666</ele><time>2026-03-28T14:06:36.606Z</time></trkpt><trkpt lat="39.2354207" lon="16.9194112"><ele>172.5</ele><time>2026-03-28T14:06:38.608Z</time></trkpt><trkpt lat="39.2353938" lon="16.9194949"><ele>171.33333333333334</ele><time>2026-03-28T14:06:41.606Z</time></trkpt><trkpt lat="39.2353313" lon="16.919553"><ele>170.16666666666669</ele><time>2026-03-28T14:06:43.617Z</time></trkpt><trkpt lat="39.2352594" lon="16.9196547"><ele>169.0</ele><time>2026-03-28T14:06:45.62Z</time></trkpt><trkpt lat="39.2352067" lon="16.9197498"><ele>169.0</ele><time>2026-03-28T14:06:47.615Z</time></trkpt><trkpt lat="39.2351653" lon="16.9198544"><ele>169.0</ele><time>2026-03-28T14:06:49.606Z</time></trkpt><trkpt lat="39.2351088" lon="16.9199394"><ele>169.0</ele><time>2026-03-28T14:06:51.621Z</time></trkpt><trkpt lat="39.2350497" lon="16.9200057"><ele>169.0</ele><time>2026-03-28T14:06:53.627Z</time></trkpt><trkpt lat="39.2349989" lon="16.9200842"><ele>169.0</ele><time>2026-03-28T14:06:55.623Z</time></trkpt><trkpt lat="39.2349517" lon="16.920172"><ele>169.0</ele><time>2026-03-28T14:06:57.612Z</time></trkpt><trkpt lat="39.234909" lon="16.92026"><ele>167.2</ele><time>2026-03-28T14:06:59.615Z</time></trkpt><trkpt lat="39.2348597" lon="16.9203656"><ele>165.39999999999998</ele><time>2026-03-28T14:07:01.613Z</time></trkpt><trkpt lat="39.2347961" lon="16.9204941"><ele>163.6</ele><time>2026-03-28T14:07:03.612Z</time></trkpt><trkpt lat="39.2347381" lon="16.9206158"><ele>161.8</ele><time>2026-03-28T14:07:05.618Z</time></trkpt><trkpt lat="39.2347007" lon="16.9206882"><ele>160.0</ele><time>2026-03-28T14:07:07.625Z</time></trkpt><trkpt lat="39.2346388" lon="16.9207537"><ele>159.33333333333334</ele><time>2026-03-28T14:07:12.62Z</time></trkpt><trkpt lat="39.2345684" lon="16.9208173"><ele>158.66666666666669</ele><time>2026-03-28T14:07:16.613Z</time></trkpt><trkpt lat="39.2345173" lon="16.9208784"><ele>158.0</ele><time>2026-03-28T14:07:18.611Z</time></trkpt><trkpt lat="39.2344612" lon="16.9209694"><ele>157.33333333333334</ele><time>2026-03-28T14:07:20.625Z</time></trkpt><trkpt lat="39.2344232" lon="16.9210425"><ele>156.66666666666666</ele><time>2026-03-28T14:07:23.619Z</time></trkpt><trkpt lat="39.2343973" lon="16.921122"><ele>156.0</ele><time>2026-03-28T14:07:27.626Z</time></trkpt><trkpt lat="39.2343562" lon="16.921241"><ele>155.6</ele><time>2026-03-28T14:07:30.616Z</time></trkpt><trkpt lat="39.2343381" lon="16.9213426"><ele>155.2</ele><time>2026-03-28T14:07:32.617Z</time></trkpt><trkpt lat="39.2343338" lon="16.9214657"><ele>154.8</ele><time>2026-03-28T14:07:34.619Z</time></trkpt><trkpt lat="39.2343333" lon="16.921601"><ele>154.4</ele><time>2026-03-28T14:07:36.614Z</time></trkpt><trkpt lat="39.234276" lon="16.9217301"><ele>154.0</ele><time>2026-03-28T14:07:38.627Z</time></trkpt><trkpt lat="39.2342398" lon="16.9218022"><ele>155.0</ele><time>2026-03-28T14:07:39.617Z</time></trkpt><trkpt lat="39.234213" lon="16.9218841"><ele>156.0</ele><time>2026-03-28T14:07:40.623Z</time></trkpt><trkpt lat="39.2341893" lon="16.9219655"><ele>157.0</ele><time>2026-03-28T14:07:41.618Z</time></trkpt><trkpt lat="39.2341167" lon="16.9220816"><ele>158.0</ele><time>2026-03-28T14:07:43.625Z</time></trkpt><trkpt lat="39.2340182" lon="16.9221823"><ele>159.0</ele><time>2026-03-28T14:07:45.61Z</time></trkpt><trkpt lat="39.2339719" lon="16.922239"><ele>160.0</ele><time>2026-03-28T14:07:46.611Z</time></trkpt><trkpt lat="39.2339323" lon="16.9223063"><ele>160.16666666666669</ele><time>2026-03-28T14:07:47.624Z</time></trkpt><trkpt lat="39.2338764" lon="16.9223975"><ele>160.33333333333334</ele><time>2026-03-28T14:07:49.611Z</time></trkpt><trkpt lat="39.233817" lon="16.9224477"><ele>160.5</ele><time>2026-03-28T14:07:51.619Z</time></trkpt><trkpt lat="39.2337674" lon="16.92254"><ele>160.66666666666666</ele><time>2026-03-28T14:07:53.627Z</time></trkpt><trkpt lat="39.2337139" lon="16.9226312"><ele>160.83333333333331</ele><time>2026-03-28T14:07:55.62Z</time></trkpt><trkpt lat="39.2336574" lon="16.9226879"><ele>161.0</ele><time>2026-03-28T14:07:57.621Z</time></trkpt><trkpt lat="39.2335865" lon="16.9227196"><ele>160.4</ele><time>2026-03-28T14:07:59.63Z</time></trkpt><trkpt lat="39.2334913" lon="16.9227641"><ele>159.8</ele><time>2026-03-28T14:08:01.607Z</time></trkpt><trkpt lat="39.2334003" lon="16.922839"><ele>159.20000000000002</ele><time>2026-03-28T14:08:03.623Z</time></trkpt><trkpt lat="39.2333195" lon="16.9229227"><ele>158.60000000000002</ele><time>2026-03-28T14:08:05.618Z</time></trkpt><trkpt lat="39.2332507" lon="16.9230049"><ele>158.0</ele><time>2026-03-28T14:08:07.62Z</time></trkpt><trkpt lat="39.2331906" lon="16.9230825"><ele>155.5</ele><time>2026-03-28T14:08:09.624Z</time></trkpt><trkpt lat="39.23312" lon="16.9231619"><ele>153.0</ele><time>2026-03-28T14:08:11.628Z</time></trkpt><trkpt lat="39.2330469" lon="16.9232365"><ele>150.5</ele><time>2026-03-28T14:08:13.612Z</time></trkpt><trkpt lat="39.2329721" lon="16.9233099"><ele>148.0</ele><time>2026-03-28T14:08:15.628Z</time></trkpt><trkpt lat="39.2329224" lon="16.9233975"><ele>145.5</ele><time>2026-03-28T14:08:17.609Z</time></trkpt><trkpt lat="39.2328929" lon="16.923487"><ele>143.0</ele><time>2026-03-28T14:08:20.619Z</time></trkpt><trkpt lat="39.2328715" lon="16.9235902"><ele>141.33333333333331</ele><time>2026-03-28T14:08:23.617Z</time></trkpt><trkpt lat="39.2328551" lon="16.9236744"><ele>139.66666666666666</ele><time>2026-03-28T14:08:26.623Z</time></trkpt><trkpt lat="39.2328395" lon="16.9237865"><ele>138.0</ele><time>2026-03-28T14:08:30.612Z</time></trkpt><trkpt lat="39.2328369" lon="16.9238723"><ele>136.33333333333334</ele><time>2026-03-28T14:08:33.621Z</time></trkpt><trkpt lat="39.2328266" lon="16.923971"><ele>134.66666666666669</ele><time>2026-03-28T14:08:37.623Z</time></trkpt><trkpt lat="39.2328184" lon="16.9240762"><ele>133.0</ele><time>2026-03-28T14:09:04.609Z</time></trkpt><trkpt lat="39.2327922" lon="16.9241701"><ele>131.42857142857142</ele><time>2026-03-28T14:09:10.61Z</time></trkpt><trkpt lat="39.2327589" lon="16.9242505"><ele>129.85714285714286</ele><time>2026-03-28T14:09:13.613Z</time></trkpt><trkpt lat="39.2327157" lon="16.9243213"><ele>128.28571428571428</ele><time>2026-03-28T14:09:17.623Z</time></trkpt><trkpt lat="39.2326686" lon="16.9243798"><ele>126.71428571428571</ele><time>2026-03-28T14:09:24.611Z</time></trkpt><trkpt lat="39.2326475" lon="16.9244622"><ele>125.14285714285714</ele><time>2026-03-28T14:09:29.625Z</time></trkpt><trkpt lat="39.2326437" lon="16.9245444"><ele>123.57142857142856</ele><time>2026-03-28T14:09:34.616Z</time></trkpt><trkpt lat="39.2326503" lon="16.9246322"><ele>121.99999999999999</ele><time>2026-03-28T14:09:38.614Z</time></trkpt><trkpt lat="39.2326657" lon="16.9247412"><ele>121.99999999999999</ele><time>2026-03-28T14:09:41.611Z</time></trkpt><trkpt lat="39.2326709" lon="16.9248224"><ele>122.0</ele><time>2026-03-28T14:09:43.615Z</time></trkpt><trkpt lat="39.2326838" lon="16.9249199"><ele>122.0</ele><time>2026-03-28T14:09:45.627Z</time></trkpt><trkpt lat="39.2326968" lon="16.9250344"><ele>122.0</ele><time>2026-03-28T14:09:47.616Z</time></trkpt><trkpt lat="39.2327017" lon="16.9251365"><ele>121.99999999999999</ele><time>2026-03-28T14:09:49.611Z</time></trkpt><trkpt lat="39.2326977" lon="16.9252351"><ele>122.0</ele><time>2026-03-28T14:09:51.626Z</time></trkpt><trkpt lat="39.2326979" lon="16.9253324"><ele>121.49999999999999</ele><time>2026-03-28T14:09:53.611Z</time></trkpt><trkpt lat="39.2327" lon="16.9254382"><ele>121.0</ele><time>2026-03-28T14:09:55.628Z</time></trkpt><trkpt lat="39.2326839" lon="16.9255311"><ele>120.5</ele><time>2026-03-28T14:09:57.612Z</time></trkpt><trkpt lat="39.2326281" lon="16.9256088"><ele>120.0</ele><time>2026-03-28T14:09:59.62Z</time></trkpt><trkpt lat="39.2325696" lon="16.9256842"><ele>119.49999999999999</ele><time>2026-03-28T14:10:01.638Z</time></trkpt><trkpt lat="39.2325168" lon="16.9257707"><ele>119.0</ele><time>2026-03-28T14:10:03.627Z</time></trkpt><trkpt lat="39.2324823" lon="16.9258817"><ele>118.0</ele><time>2026-03-28T14:10:06.632Z</time></trkpt><trkpt lat="39.2324807" lon="16.9259686"><ele>117.0</ele><time>2026-03-28T14:10:08.611Z</time></trkpt><trkpt lat="39.2324826" lon="16.9260567"><ele>116.0</ele><time>2026-03-28T14:10:10.617Z</time></trkpt><trkpt lat="39.232485" lon="16.9261468"><ele>115.0</ele><time>2026-03-28T14:10:12.664Z</time></trkpt><trkpt lat="39.2324809" lon="16.9262302"><ele>114.0</ele><time>2026-03-28T14:10:15.619Z</time></trkpt><trkpt lat="39.232477" lon="16.9263211"><ele>113.0</ele><time>2026-03-28T14:10:18.607Z</time></trkpt><trkpt lat="39.2324683" lon="16.9264251"><ele>112.0</ele><time>2026-03-28T14:10:21.621Z</time></trkpt><trkpt lat="39.2324511" lon="16.9265354"><ele>112.00000000000001</ele><time>2026-03-28T14:10:24.614Z</time></trkpt><trkpt lat="39.2324323" lon="16.9266431"><ele>112.0</ele><time>2026-03-28T14:10:27.627Z</time></trkpt><trkpt lat="39.232413" lon="16.9267397"><ele>112.0</ele><time>2026-03-28T14:10:30.614Z</time></trkpt><trkpt lat="39.2323915" lon="16.9268325"><ele>112.0</ele><time>2026-03-28T14:10:33.606Z</time></trkpt><trkpt lat="39.2323637" lon="16.9269449"><ele>112.00000000000001</ele><time>2026-03-28T14:10:36.621Z</time></trkpt><trkpt lat="39.2323475" lon="16.9270247"><ele>112.0</ele><time>2026-03-28T14:10:39.627Z</time></trkpt><trkpt lat="39.2323253" lon="16.9271091"><ele>111.33333333333334</ele><time>2026-03-28T14:10:43.632Z</time></trkpt><trkpt lat="39.2323079" lon="16.9272231"><ele>110.66666666666667</ele><time>2026-03-28T14:10:47.608Z</time></trkpt><trkpt lat="39.2322936" lon="16.9273122"><ele>110.0</ele><time>2026-03-28T14:10:49.603Z</time></trkpt><trkpt lat="39.2322929" lon="16.9274255"><ele>109.33333333333334</ele><time>2026-03-28T14:10:51.618Z</time></trkpt><trkpt lat="39.2323229" lon="16.9275369"><ele>108.66666666666667</ele><time>2026-03-28T14:10:53.632Z</time></trkpt><trkpt lat="39.2323854" lon="16.9276134"><ele>108.0</ele><time>2026-03-28T14:10:55.615Z</time></trkpt><trkpt lat="39.232378" lon="16.9276999"><ele>108.28571428571428</ele><time>2026-03-28T14:10:58.62Z</time></trkpt><trkpt lat="39.2322908" lon="16.927695"><ele>108.57142857142857</ele><time>2026-03-28T14:11:01.615Z</time></trkpt><trkpt lat="39.2322258" lon="16.9276779"><ele>108.85714285714286</ele><time>2026-03-28T14:11:06.602Z</time></trkpt><trkpt lat="39.232161" lon="16.9276648"><ele>109.14285714285714</ele><time>2026-03-28T14:11:16.611Z</time></trkpt><trkpt lat="39.2320952" lon="16.927703"><ele>109.42857142857143</ele><time>2026-03-28T14:11:26.613Z</time></trkpt><trkpt lat="39.2320378" lon="16.927749"><ele>109.71428571428571</ele><time>2026-03-28T14:11:31.622Z</time></trkpt><trkpt lat="39.2319738" lon="16.9277943"><ele>110.0</ele><time>2026-03-28T14:11:34.615Z</time></trkpt><trkpt lat="39.2318767" lon="16.9277767"><ele>109.99999999999999</ele><time>2026-03-28T14:11:37.609Z</time></trkpt><trkpt lat="39.2318094" lon="16.9277532"><ele>110.0</ele><time>2026-03-28T14:11:39.624Z</time></trkpt><trkpt lat="39.2317357" lon="16.9277249"><ele>110.0</ele><time>2026-03-28T14:11:41.624Z</time></trkpt><trkpt lat="39.2316699" lon="16.9277046"><ele>110.0</ele><time>2026-03-28T14:11:44.618Z</time></trkpt><trkpt lat="39.2315938" lon="16.9276701"><ele>110.0</ele><time>2026-03-28T14:11:47.617Z</time></trkpt><trkpt lat="39.2315257" lon="16.9276307"><ele>109.99999999999999</ele><time>2026-03-28T14:11:51.612Z</time></trkpt><trkpt lat="39.231458" lon="16.9276122"><ele>110.0</ele><time>2026-03-28T14:11:54.612Z</time></trkpt><trkpt lat="39.2313737" lon="16.9275797"><ele>108.66666666666666</ele><time>2026-03-28T14:11:57.614Z</time></trkpt><trkpt lat="39.2313068" lon="16.9275547"><ele>107.33333333333333</ele><time>2026-03-28T14:11:59.621Z</time></trkpt><trkpt lat="39.2312335" lon="16.9275516"><ele>106.0</ele><time>2026-03-28T14:12:01.611Z</time></trkpt><trkpt lat="39.2311328" lon="16.9276438"><ele>104.66666666666666</ele><time>2026-03-28T14:12:03.614Z</time></trkpt><trkpt lat="39.2310847" lon="16.9277392"><ele>103.33333333333333</ele><time>2026-03-28T14:12:04.605Z</time></trkpt><trkpt lat="39.2310335" lon="16.927817"><ele>102.0</ele><time>2026-03-28T14:12:05.619Z</time></trkpt><trkpt lat="39.2309682" lon="16.9279187"><ele>102.0</ele><time>2026-03-28T14:12:07.606Z</time></trkpt><trkpt lat="39.2309191" lon="16.9280129"><ele>102.0</ele><time>2026-03-28T14:12:09.628Z</time></trkpt><trkpt lat="39.2308748" lon="16.9281331"><ele>102.0</ele><time>2026-03-28T14:12:11.619Z</time></trkpt><trkpt lat="39.2308517" lon="16.9282839"><ele>102.0</ele><time>2026-03-28T14:12:13.619Z</time></trkpt><trkpt lat="39.2308502" lon="16.9283668"><ele>102.0</ele><time>2026-03-28T14:12:14.615Z</time></trkpt><trkpt lat="39.2308702" lon="16.9285276"><ele>102.83333333333333</ele><time>2026-03-28T14:12:16.618Z</time></trkpt><trkpt lat="39.2308958" lon="16.9286141"><ele>103.66666666666666</ele><time>2026-03-28T14:12:17.613Z</time></trkpt><trkpt lat="39.2309261" lon="16.9287056"><ele>104.5</ele><time>2026-03-28T14:12:18.621Z</time></trkpt><trkpt lat="39.2309354" lon="16.928808"><ele>105.33333333333333</ele><time>2026-03-28T14:12:19.614Z</time></trkpt><trkpt lat="39.2309375" lon="16.9289089"><ele>106.16666666666666</ele><time>2026-03-28T14:12:20.615Z</time></trkpt><trkpt lat="39.2309393" lon="16.9290057"><ele>107.0</ele><time>2026-03-28T14:12:21.616Z</time></trkpt><trkpt lat="39.2309365" lon="16.9291127"><ele>105.8</ele><time>2026-03-28T14:12:22.616Z</time></trkpt><trkpt lat="39.2309395" lon="16.9292268"><ele>104.6</ele><time>2026-03-28T14:12:23.64Z</time></trkpt><trkpt lat="39.2309462" lon="16.9293487"><ele>103.39999999999999</ele><time>2026-03-28T14:12:24.61Z</time></trkpt><trkpt lat="39.2309534" lon="16.9294772"><ele>102.19999999999999</ele><time>2026-03-28T14:12:25.606Z</time></trkpt><trkpt lat="39.2309781" lon="16.9295962"><ele>101.0</ele><time>2026-03-28T14:12:26.616Z</time></trkpt><trkpt lat="39.2310163" lon="16.9297123"><ele>101.0</ele><time>2026-03-28T14:12:27.629Z</time></trkpt><trkpt lat="39.2310616" lon="16.9298286"><ele>101.0</ele><time>2026-03-28T14:12:28.618Z</time></trkpt><trkpt lat="39.231113" lon="16.9299361"><ele>101.0</ele><time>2026-03-28T14:12:29.609Z</time></trkpt><trkpt lat="39.2311703" lon="16.9300371"><ele>101.0</ele><time>2026-03-28T14:12:30.623Z</time></trkpt><trkpt lat="39.2312274" lon="16.9301327"><ele>101.0</ele><time>2026-03-28T14:12:31.62Z</time></trkpt><trkpt lat="39.2312825" lon="16.9302306"><ele>100.19999999999999</ele><time>2026-03-28T14:12:32.615Z</time></trkpt><trkpt lat="39.2313307" lon="16.9303189"><ele>99.39999999999999</ele><time>2026-03-28T14:12:33.631Z</time></trkpt><trkpt lat="39.2313712" lon="16.9303927"><ele>98.6</ele><time>2026-03-28T14:12:34.611Z</time></trkpt><trkpt lat="39.231443" lon="16.930524"><ele>97.8</ele><time>2026-03-28T14:12:36.621Z</time></trkpt><trkpt lat="39.2315068" lon="16.9306255"><ele>97.0</ele><time>2026-03-28T14:12:38.619Z</time></trkpt><trkpt lat="39.2315569" lon="16.9307177"><ele>97.85714285714285</ele><time>2026-03-28T14:12:41.624Z</time></trkpt><trkpt lat="39.2315842" lon="16.9307931"><ele>98.71428571428572</ele><time>2026-03-28T14:12:43.624Z</time></trkpt><trkpt lat="39.2316098" lon="16.9308751"><ele>99.57142857142857</ele><time>2026-03-28T14:12:44.614Z</time></trkpt><trkpt lat="39.2316452" lon="16.9309747"><ele>100.42857142857142</ele><time>2026-03-28T14:12:45.626Z</time></trkpt><trkpt lat="39.2316844" lon="16.9310501"><ele>101.28571428571428</ele><time>2026-03-28T14:12:46.607Z</time></trkpt><trkpt lat="39.2317265" lon="16.9311229"><ele>102.14285714285714</ele><time>2026-03-28T14:12:47.63Z</time></trkpt><trkpt lat="39.2317743" lon="16.9312065"><ele>103.0</ele><time>2026-03-28T14:12:48.615Z</time></trkpt><trkpt lat="39.2318278" lon="16.931298"><ele>103.0</ele><time>2026-03-28T14:12:49.612Z</time></trkpt><trkpt lat="39.2318809" lon="16.9313915"><ele>103.0</ele><time>2026-03-28T14:12:50.616Z</time></trkpt><trkpt lat="39.231922" lon="16.9314858"><ele>103.0</ele><time>2026-03-28T14:12:51.627Z</time></trkpt><trkpt lat="39.2319446" lon="16.9315908"><ele>103.0</ele><time>2026-03-28T14:12:52.618Z</time></trkpt><trkpt lat="39.2319473" lon="16.9317111"><ele>103.0</ele><time>2026-03-28T14:12:53.613Z</time></trkpt><trkpt lat="39.2319375" lon="16.9318654"><ele>102.60000000000001</ele><time>2026-03-28T14:12:54.617Z</time></trkpt><trkpt lat="39.2319203" lon="16.9320308"><ele>102.2</ele><time>2026-03-28T14:12:55.62Z</time></trkpt><trkpt lat="39.2319036" lon="16.9321788"><ele>101.8</ele><time>2026-03-28T14:12:56.626Z</time></trkpt><trkpt lat="39.2318946" lon="16.9323142"><ele>101.4</ele><time>2026-03-28T14:12:57.618Z</time></trkpt><trkpt lat="39.2318955" lon="16.9324399"><ele>101.0</ele><time>2026-03-28T14:12:58.615Z</time></trkpt><trkpt lat="39.2319041" lon="16.9325692"><ele>101.0</ele><time>2026-03-28T14:12:59.621Z</time></trkpt><trkpt lat="39.2319219" lon="16.9326967"><ele>101.0</ele><time>2026-03-28T14:13:00.623Z</time></trkpt><trkpt lat="39.2319496" lon="16.9328081"><ele>101.0</ele><time>2026-03-28T14:13:01.62Z</time></trkpt><trkpt lat="39.2319823" lon="16.9329089"><ele>101.0</ele><time>2026-03-28T14:13:02.612Z</time></trkpt><trkpt lat="39.2320062" lon="16.9330162"><ele>101.0</ele><time>2026-03-28T14:13:03.623Z</time></trkpt><trkpt lat="39.2320065" lon="16.9331321"><ele>101.0</ele><time>2026-03-28T14:13:04.615Z</time></trkpt><trkpt lat="39.2319824" lon="16.93325"><ele>101.0</ele><time>2026-03-28T14:13:05.617Z</time></trkpt><trkpt lat="39.2319495" lon="16.9333835"><ele>101.0</ele><time>2026-03-28T14:13:06.613Z</time></trkpt><trkpt lat="39.2319128" lon="16.9335172"><ele>101.0</ele><time>2026-03-28T14:13:07.626Z</time></trkpt><trkpt lat="39.231862" lon="16.9336301"><ele>101.0</ele><time>2026-03-28T14:13:08.621Z</time></trkpt><trkpt lat="39.2317961" lon="16.9337353"><ele>100.5</ele><time>2026-03-28T14:13:09.625Z</time></trkpt><trkpt lat="39.2317076" lon="16.9338451"><ele>100.0</ele><time>2026-03-28T14:13:10.617Z</time></trkpt><trkpt lat="39.2316224" lon="16.9339519"><ele>99.5</ele><time>2026-03-28T14:13:11.624Z</time></trkpt><trkpt lat="39.2315453" lon="16.9340609"><ele>99.0</ele><time>2026-03-28T14:13:12.617Z</time></trkpt><trkpt lat="39.2314767" lon="16.9341684"><ele>97.80000000000001</ele><time>2026-03-28T14:13:13.622Z</time></trkpt><trkpt lat="39.2314162" lon="16.9342724"><ele>96.60000000000001</ele><time>2026-03-28T14:13:14.619Z</time></trkpt><trkpt lat="39.2313634" lon="16.9343727"><ele>95.4</ele><time>2026-03-28T14:13:15.615Z</time></trkpt><trkpt lat="39.2313175" lon="16.9344692"><ele>94.2</ele><time>2026-03-28T14:13:16.621Z</time></trkpt><trkpt lat="39.2312796" lon="16.9345654"><ele>93.0</ele><time>2026-03-28T14:13:17.618Z</time></trkpt><trkpt lat="39.2312425" lon="16.934674"><ele>93.0</ele><time>2026-03-28T14:13:18.611Z</time></trkpt><trkpt lat="39.2312082" lon="16.9347961"><ele>93.0</ele><time>2026-03-28T14:13:19.619Z</time></trkpt><trkpt lat="39.2311808" lon="16.9349102"><ele>93.0</ele><time>2026-03-28T14:13:20.615Z</time></trkpt><trkpt lat="39.2311634" lon="16.9350285"><ele>93.0</ele><time>2026-03-28T14:13:21.618Z</time></trkpt><trkpt lat="39.2311469" lon="16.9351505"><ele>93.0</ele><time>2026-03-28T14:13:22.609Z</time></trkpt><trkpt lat="39.231124" lon="16.9352562"><ele>93.16666666666667</ele><time>2026-03-28T14:13:23.621Z</time></trkpt><trkpt lat="39.2310869" lon="16.9353403"><ele>93.33333333333333</ele><time>2026-03-28T14:13:24.618Z</time></trkpt><trkpt lat="39.231032" lon="16.9354107"><ele>93.5</ele><time>2026-03-28T14:13:25.625Z</time></trkpt><trkpt lat="39.2309628" lon="16.9354768"><ele>93.66666666666666</ele><time>2026-03-28T14:13:26.618Z</time></trkpt><trkpt lat="39.230894" lon="16.9355525"><ele>93.83333333333333</ele><time>2026-03-28T14:13:27.616Z</time></trkpt><trkpt lat="39.2308342" lon="16.9356441"><ele>94.0</ele><time>2026-03-28T14:13:28.613Z</time></trkpt><trkpt lat="39.2307809" lon="16.9357383"><ele>94.0</ele><time>2026-03-28T14:13:29.615Z</time></trkpt><trkpt lat="39.2307315" lon="16.9358381"><ele>94.0</ele><time>2026-03-28T14:13:30.624Z</time></trkpt><trkpt lat="39.2306822" lon="16.9359458"><ele>94.0</ele><time>2026-03-28T14:13:31.622Z</time></trkpt><trkpt lat="39.2306248" lon="16.936061"><ele>94.0</ele><time>2026-03-28T14:13:32.613Z</time></trkpt><trkpt lat="39.2305623" lon="16.936179"><ele>94.0</ele><time>2026-03-28T14:13:33.629Z</time></trkpt><trkpt lat="39.2305065" lon="16.9362864"><ele>93.66666666666666</ele><time>2026-03-28T14:13:34.619Z</time></trkpt><trkpt lat="39.2304547" lon="16.9363897"><ele>93.33333333333333</ele><time>2026-03-28T14:13:35.611Z</time></trkpt><trkpt lat="39.2304122" lon="16.9364828"><ele>93.0</ele><time>2026-03-28T14:13:36.619Z</time></trkpt><trkpt lat="39.2303726" lon="16.9365635"><ele>92.66666666666667</ele><time>2026-03-28T14:13:37.62Z</time></trkpt><trkpt lat="39.2303253" lon="16.9366448"><ele>92.33333333333334</ele><time>2026-03-28T14:13:38.621Z</time></trkpt><trkpt lat="39.2302794" lon="16.9367341"><ele>92.0</ele><time>2026-03-28T14:13:39.624Z</time></trkpt><trkpt lat="39.2302295" lon="16.9368459"><ele>92.0</ele><time>2026-03-28T14:13:40.612Z</time></trkpt><trkpt lat="39.2301634" lon="16.936985"><ele>92.0</ele><time>2026-03-28T14:13:41.612Z</time></trkpt><trkpt lat="39.2300774" lon="16.937156"><ele>92.0</ele><time>2026-03-28T14:13:42.616Z</time></trkpt><trkpt lat="39.229994" lon="16.9373287"><ele>92.0</ele><time>2026-03-28T14:13:43.619Z</time></trkpt><trkpt lat="39.2299213" lon="16.9374816"><ele>92.0</ele><time>2026-03-28T14:13:44.609Z</time></trkpt><trkpt lat="39.2298537" lon="16.9376163"><ele>92.0</ele><time>2026-03-28T14:13:45.631Z</time></trkpt><trkpt lat="39.2297917" lon="16.937739"><ele>92.0</ele><time>2026-03-28T14:13:46.618Z</time></trkpt><trkpt lat="39.2297385" lon="16.9378557"><ele>92.0</ele><time>2026-03-28T14:13:47.61Z</time></trkpt><trkpt lat="39.2296798" lon="16.9379718"><ele>92.0</ele><time>2026-03-28T14:13:48.616Z</time></trkpt><trkpt lat="39.2296024" lon="16.9380852"><ele>92.0</ele><time>2026-03-28T14:13:49.622Z</time></trkpt><trkpt lat="39.2295059" lon="16.9381818"><ele>92.0</ele><time>2026-03-28T14:13:50.619Z</time></trkpt><trkpt lat="39.2293833" lon="16.9382773"><ele>92.0</ele><time>2026-03-28T14:13:51.609Z</time></trkpt><trkpt lat="39.2292435" lon="16.938373"><ele>90.0</ele><time>2026-03-28T14:13:52.614Z</time></trkpt><trkpt lat="39.2291186" lon="16.9384605"><ele>88.0</ele><time>2026-03-28T14:13:53.617Z</time></trkpt><trkpt lat="39.2290219" lon="16.9385365"><ele>86.0</ele><time>2026-03-28T14:13:54.615Z</time></trkpt><trkpt lat="39.2289504" lon="16.9386245"><ele>84.0</ele><time>2026-03-28T14:13:55.622Z</time></trkpt><trkpt lat="39.2288993" lon="16.9387324"><ele>84.0</ele><time>2026-03-28T14:13:56.62Z</time></trkpt><trkpt lat="39.2288671" lon="16.9388552"><ele>84.0</ele><time>2026-03-28T14:13:57.612Z</time></trkpt><trkpt lat="39.2288414" lon="16.9390075"><ele>84.0</ele><time>2026-03-28T14:13:58.608Z</time></trkpt><trkpt lat="39.2288177" lon="16.9392051"><ele>84.0</ele><time>2026-03-28T14:13:59.628Z</time></trkpt><trkpt lat="39.228804" lon="16.9394049"><ele>84.0</ele><time>2026-03-28T14:14:00.616Z</time></trkpt><trkpt lat="39.2287882" lon="16.9395933"><ele>84.0</ele><time>2026-03-28T14:14:01.617Z</time></trkpt><trkpt lat="39.228772" lon="16.9397635"><ele>84.0</ele><time>2026-03-28T14:14:02.617Z</time></trkpt><trkpt lat="39.2287576" lon="16.9399205"><ele>84.0</ele><time>2026-03-28T14:14:03.627Z</time></trkpt><trkpt lat="39.2287421" lon="16.940072"><ele>83.5</ele><time>2026-03-28T14:14:04.621Z</time></trkpt><trkpt lat="39.2287289" lon="16.9402332"><ele>83.0</ele><time>2026-03-28T14:14:05.61Z</time></trkpt><trkpt lat="39.228719" lon="16.9403958"><ele>82.5</ele><time>2026-03-28T14:14:06.62Z</time></trkpt><trkpt lat="39.2287109" lon="16.9405493"><ele>82.0</ele><time>2026-03-28T14:14:07.611Z</time></trkpt><trkpt lat="39.2287068" lon="16.9407031"><ele>82.0</ele><time>2026-03-28T14:14:08.609Z</time></trkpt><trkpt lat="39.2287054" lon="16.9408414"><ele>82.0</ele><time>2026-03-28T14:14:09.618Z</time></trkpt><trkpt lat="39.2287041" lon="16.940959"><ele>82.0</ele><time>2026-03-28T14:14:10.613Z</time></trkpt><trkpt lat="39.2287011" lon="16.9410676"><ele>82.0</ele><time>2026-03-28T14:14:11.612Z</time></trkpt><trkpt lat="39.2286942" lon="16.9411666"><ele>82.0</ele><time>2026-03-28T14:14:12.625Z</time></trkpt><trkpt lat="39.2286857" lon="16.9412479"><ele>82.0</ele><time>2026-03-28T14:14:13.624Z</time></trkpt><trkpt lat="39.2287195" lon="16.9413463"><ele>82.19999999999999</ele><time>2026-03-28T14:14:15.621Z</time></trkpt><trkpt lat="39.2288031" lon="16.9414007"><ele>82.4</ele><time>2026-03-28T14:14:17.603Z</time></trkpt><trkpt lat="39.2288777" lon="16.94146"><ele>82.6</ele><time>2026-03-28T14:14:18.615Z</time></trkpt><trkpt lat="39.2289782" lon="16.9415233"><ele>82.80000000000001</ele><time>2026-03-28T14:14:19.628Z</time></trkpt><trkpt lat="39.2290787" lon="16.9415735"><ele>83.0</ele><time>2026-03-28T14:14:20.614Z</time></trkpt><trkpt lat="39.229169" lon="16.9416154"><ele>83.0</ele><time>2026-03-28T14:14:21.619Z</time></trkpt><trkpt lat="39.2292498" lon="16.9416589"><ele>83.0</ele><time>2026-03-28T14:14:22.616Z</time></trkpt><trkpt lat="39.2293272" lon="16.9417155"><ele>83.0</ele><time>2026-03-28T14:14:23.618Z</time></trkpt><trkpt lat="39.2293873" lon="16.9417687"><ele>83.0</ele><time>2026-03-28T14:14:24.611Z</time></trkpt><trkpt lat="39.2294402" lon="16.9418196"><ele>83.0</ele><time>2026-03-28T14:14:25.632Z</time></trkpt><trkpt lat="39.2295068" lon="16.9419079"><ele>83.0</ele><time>2026-03-28T14:14:27.614Z</time></trkpt><trkpt lat="39.2295666" lon="16.942004"><ele>83.66666666666667</ele><time>2026-03-28T14:14:30.616Z</time></trkpt><trkpt lat="39.2296206" lon="16.9420997"><ele>84.33333333333334</ele><time>2026-03-28T14:14:32.612Z</time></trkpt><trkpt lat="39.2296623" lon="16.9421706"><ele>85.0</ele><time>2026-03-28T14:14:34.612Z</time></trkpt><trkpt lat="39.2297048" lon="16.9422407"><ele>85.66666666666667</ele><time>2026-03-28T14:14:39.611Z</time></trkpt><trkpt lat="39.2297458" lon="16.9423379"><ele>86.33333333333333</ele><time>2026-03-28T14:14:42.612Z</time></trkpt><trkpt lat="39.2297888" lon="16.9424188"><ele>87.0</ele><time>2026-03-28T14:14:44.614Z</time></trkpt><trkpt lat="39.229827" lon="16.9425183"><ele>87.83333333333333</ele><time>2026-03-28T14:14:46.619Z</time></trkpt><trkpt lat="39.2298805" lon="16.9426405"><ele>88.66666666666667</ele><time>2026-03-28T14:14:48.623Z</time></trkpt><trkpt lat="39.2299614" lon="16.9427473"><ele>89.5</ele><time>2026-03-28T14:14:50.612Z</time></trkpt><trkpt lat="39.2300206" lon="16.9428075"><ele>90.33333333333334</ele><time>2026-03-28T14:14:51.629Z</time></trkpt><trkpt lat="39.2300705" lon="16.9428752"><ele>91.16666666666667</ele><time>2026-03-28T14:14:52.615Z</time></trkpt><trkpt lat="39.2301192" lon="16.9429346"><ele>92.0</ele><time>2026-03-28T14:14:53.627Z</time></trkpt><trkpt lat="39.2302114" lon="16.9430025"><ele>92.0</ele><time>2026-03-28T14:14:55.618Z</time></trkpt><trkpt lat="39.2302939" lon="16.9430525"><ele>92.0</ele><time>2026-03-28T14:14:57.623Z</time></trkpt><trkpt lat="39.2303606" lon="16.9430948"><ele>92.0</ele><time>2026-03-28T14:14:59.632Z</time></trkpt><trkpt lat="39.2304185" lon="16.9431323"><ele>92.0</ele><time>2026-03-28T14:15:01.624Z</time></trkpt><trkpt lat="39.2304802" lon="16.9431949"><ele>92.0</ele><time>2026-03-28T14:15:04.622Z</time></trkpt><trkpt lat="39.2305233" lon="16.9432776"><ele>92.0</ele><time>2026-03-28T14:15:06.624Z</time></trkpt><trkpt lat="39.2305762" lon="16.9434096"><ele>92.85714285714286</ele><time>2026-03-28T14:15:08.609Z</time></trkpt><trkpt lat="39.2306053" lon="16.943487"><ele>93.71428571428571</ele><time>2026-03-28T14:15:09.628Z</time></trkpt><trkpt lat="39.2306355" lon="16.9435646"><ele>94.57142857142857</ele><time>2026-03-28T14:15:10.63Z</time></trkpt><trkpt lat="39.2306659" lon="16.9436567"><ele>95.42857142857143</ele><time>2026-03-28T14:15:11.626Z</time></trkpt><trkpt lat="39.2307044" lon="16.9437518"><ele>96.28571428571428</ele><time>2026-03-28T14:15:12.615Z</time></trkpt><trkpt lat="39.2307481" lon="16.9438347"><ele>97.14285714285714</ele><time>2026-03-28T14:15:13.623Z</time></trkpt><trkpt lat="39.2307956" lon="16.9438968"><ele>98.0</ele><time>2026-03-28T14:15:14.622Z</time></trkpt><trkpt lat="39.230892" lon="16.9439924"><ele>98.0</ele><time>2026-03-28T14:15:16.618Z</time></trkpt><trkpt lat="39.2310001" lon="16.9440639"><ele>98.0</ele><time>2026-03-28T14:15:18.615Z</time></trkpt><trkpt lat="39.2310695" lon="16.9441135"><ele>98.0</ele><time>2026-03-28T14:15:19.615Z</time></trkpt><trkpt lat="39.231145" lon="16.9441931"><ele>98.0</ele><time>2026-03-28T14:15:20.625Z</time></trkpt><trkpt lat="39.2312186" lon="16.9443015"><ele>98.0</ele><time>2026-03-28T14:15:21.615Z</time></trkpt><trkpt lat="39.2312772" lon="16.9444216"><ele>98.49999999999999</ele><time>2026-03-28T14:15:22.612Z</time></trkpt><trkpt lat="39.2313179" lon="16.944534"><ele>99.0</ele><time>2026-03-28T14:15:23.627Z</time></trkpt><trkpt lat="39.2313537" lon="16.9446417"><ele>99.5</ele><time>2026-03-28T14:15:24.616Z</time></trkpt><trkpt lat="39.2313821" lon="16.9447297"><ele>100.0</ele><time>2026-03-28T14:15:25.608Z</time></trkpt><trkpt lat="39.2314208" lon="16.9448391"><ele>100.49999999999999</ele><time>2026-03-28T14:15:27.617Z</time></trkpt><trkpt lat="39.2314592" lon="16.9449215"><ele>101.0</ele><time>2026-03-28T14:15:30.614Z</time></trkpt><trkpt lat="39.2315129" lon="16.9450266"><ele>102.16666666666666</ele><time>2026-03-28T14:15:32.611Z</time></trkpt><trkpt lat="39.2315637" lon="16.9451057"><ele>103.33333333333333</ele><time>2026-03-28T14:15:34.608Z</time></trkpt><trkpt lat="39.2316156" lon="16.9451723"><ele>104.5</ele><time>2026-03-28T14:15:37.609Z</time></trkpt><trkpt lat="39.2316729" lon="16.9452357"><ele>105.66666666666666</ele><time>2026-03-28T14:15:39.612Z</time></trkpt><trkpt lat="39.231741" lon="16.9453265"><ele>106.83333333333333</ele><time>2026-03-28T14:15:41.619Z</time></trkpt><trkpt lat="39.2318306" lon="16.9454201"><ele>108.0</ele><time>2026-03-28T14:15:43.618Z</time></trkpt><trkpt lat="39.2319503" lon="16.9454796"><ele>108.0</ele><time>2026-03-28T14:15:45.617Z</time></trkpt><trkpt lat="39.2320128" lon="16.945504"><ele>108.0</ele><time>2026-03-28T14:15:46.618Z</time></trkpt><trkpt lat="39.2320887" lon="16.9455314"><ele>108.0</ele><time>2026-03-28T14:15:47.613Z</time></trkpt><trkpt lat="39.2321597" lon="16.9455581"><ele>108.0</ele><time>2026-03-28T14:15:48.614Z</time></trkpt><trkpt lat="39.2322457" lon="16.9455964"><ele>108.0</ele><time>2026-03-28T14:15:50.62Z</time></trkpt><trkpt lat="39.2323344" lon="16.9456384"><ele>108.0</ele><time>2026-03-28T14:15:53.62Z</time></trkpt><trkpt lat="39.2324274" lon="16.9456717"><ele>107.4</ele><time>2026-03-28T14:15:55.628Z</time></trkpt><trkpt lat="39.2325318" lon="16.9457114"><ele>106.80000000000001</ele><time>2026-03-28T14:15:57.614Z</time></trkpt><trkpt lat="39.2326376" lon="16.9457424"><ele>106.2</ele><time>2026-03-28T14:15:59.625Z</time></trkpt><trkpt lat="39.2327041" lon="16.9457388"><ele>105.6</ele><time>2026-03-28T14:16:01.621Z</time></trkpt><trkpt lat="39.2327752" lon="16.9457508"><ele>105.0</ele><time>2026-03-28T14:16:03.623Z</time></trkpt><trkpt lat="39.232867" lon="16.9457769"><ele>105.0</ele><time>2026-03-28T14:16:05.616Z</time></trkpt><trkpt lat="39.2329485" lon="16.9458059"><ele>105.0</ele><time>2026-03-28T14:16:15.62Z</time></trkpt><trkpt lat="39.2330426" lon="16.9458378"><ele>105.0</ele><time>2026-03-28T14:16:18.623Z</time></trkpt><trkpt lat="39.2331141" lon="16.9458623"><ele>105.0</ele><time>2026-03-28T14:16:20.621Z</time></trkpt><trkpt lat="39.2331851" lon="16.9458839"><ele>105.0</ele><time>2026-03-28T14:16:22.619Z</time></trkpt><trkpt lat="39.2332748" lon="16.9459026"><ele>105.0</ele><time>2026-03-28T14:16:25.62Z</time></trkpt><trkpt lat="39.2333406" lon="16.945924"><ele>108.16666666666667</ele><time>2026-03-28T14:16:27.633Z</time></trkpt><trkpt lat="39.2334133" lon="16.9459504"><ele>111.33333333333334</ele><time>2026-03-28T14:16:29.608Z</time></trkpt><trkpt lat="39.2334993" lon="16.9459875"><ele>114.5</ele><time>2026-03-28T14:16:31.622Z</time></trkpt><trkpt lat="39.2335788" lon="16.9460211"><ele>117.66666666666667</ele><time>2026-03-28T14:16:33.608Z</time></trkpt><trkpt lat="39.2336468" lon="16.9460508"><ele>120.83333333333334</ele><time>2026-03-28T14:16:35.618Z</time></trkpt><trkpt lat="39.2337241" lon="16.9460883"><ele>124.0</ele><time>2026-03-28T14:16:37.618Z</time></trkpt><trkpt lat="39.2338011" lon="16.94613"><ele>124.00000000000001</ele><time>2026-03-28T14:16:39.609Z</time></trkpt><trkpt lat="39.2338758" lon="16.9461628"><ele>124.0</ele><time>2026-03-28T14:16:41.619Z</time></trkpt><trkpt lat="39.2339508" lon="16.9461927"><ele>124.0</ele><time>2026-03-28T14:16:43.626Z</time></trkpt><trkpt lat="39.234031" lon="16.9462267"><ele>124.0</ele><time>2026-03-28T14:16:45.608Z</time></trkpt><trkpt lat="39.2341137" lon="16.9462532"><ele>124.00000000000001</ele><time>2026-03-28T14:16:47.617Z</time></trkpt><trkpt lat="39.234195" lon="16.9462747"><ele>124.0</ele><time>2026-03-28T14:16:49.617Z</time></trkpt><trkpt lat="39.2342763" lon="16.9462418"><ele>123.0</ele><time>2026-03-28T14:16:53.611Z</time></trkpt><trkpt lat="39.2343702" lon="16.9462045"><ele>122.0</ele><time>2026-03-28T14:16:55.625Z</time></trkpt><trkpt lat="39.2344365" lon="16.9461774"><ele>121.0</ele><time>2026-03-28T14:16:56.616Z</time></trkpt><trkpt lat="39.2345352" lon="16.9461321"><ele>120.0</ele><time>2026-03-28T14:16:57.615Z</time></trkpt><trkpt lat="39.2346401" lon="16.9460676"><ele>119.0</ele><time>2026-03-28T14:16:58.626Z</time></trkpt><trkpt lat="39.2347382" lon="16.9459994"><ele>119.49999999999999</ele><time>2026-03-28T14:16:59.627Z</time></trkpt><trkpt lat="39.234805" lon="16.945962"><ele>120.0</ele><time>2026-03-28T14:17:00.615Z</time></trkpt><trkpt lat="39.2348654" lon="16.9459314"><ele>120.5</ele><time>2026-03-28T14:17:01.623Z</time></trkpt><trkpt lat="39.2349444" lon="16.9458541"><ele>121.0</ele><time>2026-03-28T14:17:03.608Z</time></trkpt><trkpt lat="39.2349899" lon="16.9457969"><ele>121.49999999999999</ele><time>2026-03-28T14:17:05.632Z</time></trkpt><trkpt lat="39.2350764" lon="16.9457467"><ele>122.0</ele><time>2026-03-28T14:17:07.612Z</time></trkpt><trkpt lat="39.23516" lon="16.9457267"><ele>121.99999999999999</ele><time>2026-03-28T14:17:08.617Z</time></trkpt><trkpt lat="39.2352423" lon="16.9457315"><ele>122.0</ele><time>2026-03-28T14:17:09.622Z</time></trkpt><trkpt lat="39.2353259" lon="16.9457416"><ele>122.0</ele><time>2026-03-28T14:17:10.622Z</time></trkpt><trkpt lat="39.2353978" lon="16.9457524"><ele>122.0</ele><time>2026-03-28T14:17:11.628Z</time></trkpt><trkpt lat="39.2354653" lon="16.9457575"><ele>121.99999999999999</ele><time>2026-03-28T14:17:12.626Z</time></trkpt><trkpt lat="39.2355397" lon="16.9457618"><ele>122.0</ele><time>2026-03-28T14:17:13.628Z</time></trkpt><trkpt lat="39.2356125" lon="16.9457746"><ele>123.49999999999999</ele><time>2026-03-28T14:17:14.616Z</time></trkpt><trkpt lat="39.235678" lon="16.9458034"><ele>125.0</ele><time>2026-03-28T14:17:15.605Z</time></trkpt><trkpt lat="39.2357451" lon="16.9458313"><ele>126.5</ele><time>2026-03-28T14:17:16.621Z</time></trkpt><trkpt lat="39.2358092" lon="16.9458606"><ele>128.0</ele><time>2026-03-28T14:17:17.627Z</time></trkpt><trkpt lat="39.2359016" lon="16.945889"><ele>129.5</ele><time>2026-03-28T14:17:19.624Z</time></trkpt><trkpt lat="39.2359791" lon="16.9459391"><ele>131.0</ele><time>2026-03-28T14:17:21.624Z</time></trkpt><trkpt lat="39.2360282" lon="16.9460356"><ele>132.2</ele><time>2026-03-28T14:17:23.643Z</time></trkpt><trkpt lat="39.2360509" lon="16.946156"><ele>133.39999999999998</ele><time>2026-03-28T14:17:25.608Z</time></trkpt><trkpt lat="39.2360816" lon="16.9462766"><ele>134.6</ele><time>2026-03-28T14:17:27.625Z</time></trkpt><trkpt lat="39.2361344" lon="16.9464048"><ele>135.79999999999998</ele><time>2026-03-28T14:17:29.613Z</time></trkpt><trkpt lat="39.2361823" lon="16.9465123"><ele>137.0</ele><time>2026-03-28T14:17:31.622Z</time></trkpt><trkpt lat="39.2362251" lon="16.9466098"><ele>137.2</ele><time>2026-03-28T14:17:33.619Z</time></trkpt><trkpt lat="39.236282" lon="16.946715"><ele>137.39999999999998</ele><time>2026-03-28T14:17:35.622Z</time></trkpt><trkpt lat="39.2363674" lon="16.946795"><ele>137.60000000000002</ele><time>2026-03-28T14:17:37.627Z</time></trkpt><trkpt lat="39.2364537" lon="16.9468558"><ele>137.8</ele><time>2026-03-28T14:17:39.63Z</time></trkpt><trkpt lat="39.2365478" lon="16.9469224"><ele>138.0</ele><time>2026-03-28T14:17:41.611Z</time></trkpt><trkpt lat="39.2366007" lon="16.9469691"><ele>140.83333333333334</ele><time>2026-03-28T14:17:42.624Z</time></trkpt><trkpt lat="39.2366596" lon="16.9470201"><ele>143.66666666666666</ele><time>2026-03-28T14:17:43.619Z</time></trkpt><trkpt lat="39.2367197" lon="16.9470665"><ele>146.5</ele><time>2026-03-28T14:17:44.609Z</time></trkpt><trkpt lat="39.23678" lon="16.9471155"><ele>149.33333333333331</ele><time>2026-03-28T14:17:45.614Z</time></trkpt><trkpt lat="39.2368707" lon="16.9472026"><ele>152.16666666666666</ele><time>2026-03-28T14:17:47.615Z</time></trkpt><trkpt lat="39.2369509" lon="16.9472984"><ele>155.0</ele><time>2026-03-28T14:17:49.618Z</time></trkpt><trkpt lat="39.2369935" lon="16.9473602"><ele>155.0</ele><time>2026-03-28T14:17:50.613Z</time></trkpt><trkpt lat="39.2370279" lon="16.9474311"><ele>155.0</ele><time>2026-03-28T14:17:51.618Z</time></trkpt><trkpt lat="39.2370746" lon="16.9475573"><ele>155.0</ele><time>2026-03-28T14:17:53.624Z</time></trkpt><trkpt lat="39.237092" lon="16.9476555"><ele>155.0</ele><time>2026-03-28T14:17:55.619Z</time></trkpt><trkpt lat="39.2370748" lon="16.9477503"><ele>155.0</ele><time>2026-03-28T14:18:52.618Z</time></trkpt><trkpt lat="39.2370448" lon="16.9478277"><ele>155.0</ele><time>2026-03-28T14:19:00.61Z</time></trkpt><trkpt lat="39.2370158" lon="16.9479201"><ele>156.33333333333331</ele><time>2026-03-28T14:19:03.617Z</time></trkpt><trkpt lat="39.2370017" lon="16.9480336"><ele>157.66666666666666</ele><time>2026-03-28T14:19:05.61Z</time></trkpt><trkpt lat="39.2369727" lon="16.9481906"><ele>159.0</ele><time>2026-03-28T14:19:07.62Z</time></trkpt><trkpt lat="39.2369543" lon="16.9482949"><ele>160.33333333333334</ele><time>2026-03-28T14:19:09.624Z</time></trkpt><trkpt lat="39.2369501" lon="16.948381"><ele>161.66666666666669</ele><time>2026-03-28T14:19:12.62Z</time></trkpt><trkpt lat="39.2369789" lon="16.9484679"><ele>163.0</ele><time>2026-03-28T14:19:16.609Z</time></trkpt><trkpt lat="39.2370156" lon="16.9485474"><ele>163.2857142857143</ele><time>2026-03-28T14:19:21.632Z</time></trkpt><trkpt lat="39.2370477" lon="16.9486188"><ele>163.57142857142856</ele><time>2026-03-28T14:19:27.625Z</time></trkpt><trkpt lat="39.2370845" lon="16.9486946"><ele>163.85714285714286</ele><time>2026-03-28T14:19:56.627Z</time></trkpt><trkpt lat="39.2371307" lon="16.9487791"><ele>164.14285714285717</ele><time>2026-03-28T14:19:59.638Z</time></trkpt><trkpt lat="39.2371674" lon="16.9488577"><ele>164.42857142857144</ele><time>2026-03-28T14:20:03.622Z</time></trkpt><trkpt lat="39.2371998" lon="16.9489467"><ele>164.71428571428572</ele><time>2026-03-28T14:20:09.625Z</time></trkpt><trkpt lat="39.2372366" lon="16.9490432"><ele>165.0</ele><time>2026-03-28T14:20:13.628Z</time></trkpt><trkpt lat="39.2372808" lon="16.9491485"><ele>162.5</ele><time>2026-03-28T14:20:16.624Z</time></trkpt><trkpt lat="39.2373181" lon="16.9492254"><ele>160.0</ele><time>2026-03-28T14:20:18.615Z</time></trkpt><trkpt lat="39.2373634" lon="16.9493283"><ele>157.5</ele><time>2026-03-28T14:20:20.616Z</time></trkpt><trkpt lat="39.2374062" lon="16.9494299"><ele>155.0</ele><time>2026-03-28T14:20:22.609Z</time></trkpt><trkpt lat="39.2374384" lon="16.9495376"><ele>152.5</ele><time>2026-03-28T14:20:24.611Z</time></trkpt><trkpt lat="39.2374364" lon="16.9496422"><ele>150.0</ele><time>2026-03-28T14:20:26.617Z</time></trkpt><trkpt lat="39.2374282" lon="16.9497661"><ele>150.0</ele><time>2026-03-28T14:20:28.606Z</time></trkpt><trkpt lat="39.2374399" lon="16.9498754"><ele>150.0</ele><time>2026-03-28T14:20:30.609Z</time></trkpt><trkpt lat="39.2374809" lon="16.9499809"><ele>150.0</ele><time>2026-03-28T14:20:32.61Z</time></trkpt><trkpt lat="39.2375495" lon="16.9500557"><ele>150.0</ele><time>2026-03-28T14:20:34.612Z</time></trkpt><trkpt lat="39.2376246" lon="16.9501258"><ele>150.0</ele><time>2026-03-28T14:20:36.612Z</time></trkpt><trkpt lat="39.2376874" lon="16.9502098"><ele>149.0</ele><time>2026-03-28T14:20:38.62Z</time></trkpt><trkpt lat="39.2377005" lon="16.9503124"><ele>148.0</ele><time>2026-03-28T14:20:40.618Z</time></trkpt><trkpt lat="39.2376916" lon="16.9504089"><ele>147.0</ele><time>2026-03-28T14:20:42.62Z</time></trkpt><trkpt lat="39.237716" lon="16.9505061"><ele>146.0</ele><time>2026-03-28T14:20:46.618Z</time></trkpt><trkpt lat="39.2377327" lon="16.9506188"><ele>145.0</ele><time>2026-03-28T14:20:49.61Z</time></trkpt><trkpt lat="39.2377405" lon="16.950714"><ele>144.0</ele><time>2026-03-28T14:20:51.623Z</time></trkpt><trkpt lat="39.2377509" lon="16.9508262"><ele>142.85714285714286</ele><time>2026-03-28T14:20:53.621Z</time></trkpt><trkpt lat="39.2377727" lon="16.9509339"><ele>141.71428571428572</ele><time>2026-03-28T14:20:55.63Z</time></trkpt><trkpt lat="39.2378015" lon="16.9510323"><ele>140.57142857142856</ele><time>2026-03-28T14:20:57.629Z</time></trkpt><trkpt lat="39.2378263" lon="16.9511108"><ele>139.42857142857144</ele><time>2026-03-28T14:20:59.61Z</time></trkpt><trkpt lat="39.2378543" lon="16.9512"><ele>138.28571428571428</ele><time>2026-03-28T14:21:02.62Z</time></trkpt><trkpt lat="39.2378812" lon="16.9512848"><ele>137.14285714285714</ele><time>2026-03-28T14:21:05.624Z</time></trkpt><trkpt lat="39.2379055" lon="16.951363"><ele>136.0</ele><time>2026-03-28T14:21:11.628Z</time></trkpt><trkpt lat="39.2379359" lon="16.9514531"><ele>135.99999999999997</ele><time>2026-03-28T14:21:15.619Z</time></trkpt><trkpt lat="39.2379671" lon="16.9515393"><ele>136.0</ele><time>2026-03-28T14:21:19.615Z</time></trkpt><trkpt lat="39.2379984" lon="16.951612"><ele>136.0</ele><time>2026-03-28T14:22:02.622Z</time></trkpt><trkpt lat="39.2380253" lon="16.9516958"><ele>136.0</ele><time>2026-03-28T14:22:05.62Z</time></trkpt><trkpt lat="39.2380635" lon="16.9517785"><ele>136.0</ele><time>2026-03-28T14:22:08.621Z</time></trkpt><trkpt lat="39.2381066" lon="16.9518631"><ele>135.99999999999997</ele><time>2026-03-28T14:22:20.623Z</time></trkpt><trkpt lat="39.2381459" lon="16.951962"><ele>136.0</ele><time>2026-03-28T14:22:23.623Z</time></trkpt><trkpt lat="39.2381986" lon="16.9520525"><ele>137.83333333333334</ele><time>2026-03-28T14:22:25.631Z</time></trkpt><trkpt lat="39.2382384" lon="16.9521581"><ele>139.66666666666669</ele><time>2026-03-28T14:22:27.615Z</time></trkpt><trkpt lat="39.2382741" lon="16.9522595"><ele>141.5</ele><time>2026-03-28T14:22:29.623Z</time></trkpt><trkpt lat="39.238322" lon="16.9523726"><ele>143.33333333333334</ele><time>2026-03-28T14:22:31.618Z</time></trkpt><trkpt lat="39.2383605" lon="16.9524639"><ele>145.16666666666666</ele><time>2026-03-28T14:22:33.623Z</time></trkpt><trkpt lat="39.2384014" lon="16.9525494"><ele>147.0</ele><time>2026-03-28T14:22:36.613Z</time></trkpt><trkpt lat="39.2384392" lon="16.9526222"><ele>147.5</ele><time>2026-03-28T14:23:02.624Z</time></trkpt><trkpt lat="39.2384717" lon="16.9526987"><ele>148.0</ele><time>2026-03-28T14:23:05.616Z</time></trkpt><trkpt lat="39.2385158" lon="16.9528012"><ele>148.5</ele><time>2026-03-28T14:23:08.615Z</time></trkpt><trkpt lat="39.2385555" lon="16.9528887"><ele>149.0</ele><time>2026-03-28T14:23:10.62Z</time></trkpt><trkpt lat="39.2386003" lon="16.9529895"><ele>149.5</ele><time>2026-03-28T14:23:13.616Z</time></trkpt><trkpt lat="39.238648" lon="16.9531101"><ele>150.0</ele><time>2026-03-28T14:23:16.616Z</time></trkpt><trkpt lat="39.2386956" lon="16.9532085"><ele>150.0</ele><time>2026-03-28T14:23:18.629Z</time></trkpt><trkpt lat="39.238735" lon="16.9533036"><ele>150.0</ele><time>2026-03-28T14:23:20.615Z</time></trkpt><trkpt lat="39.2387481" lon="16.9533851"><ele>150.0</ele><time>2026-03-28T14:23:22.621Z</time></trkpt><trkpt lat="39.2387602" lon="16.9534773"><ele>150.0</ele><time>2026-03-28T14:23:24.613Z</time></trkpt><trkpt lat="39.2387694" lon="16.9535931"><ele>150.0</ele><time>2026-03-28T14:23:26.618Z</time></trkpt><trkpt lat="39.2387708" lon="16.9537268"><ele>150.0</ele><time>2026-03-28T14:23:28.611Z</time></trkpt><trkpt lat="39.2387792" lon="16.9538695"><ele>149.66666666666666</ele><time>2026-03-28T14:23:30.613Z</time></trkpt><trkpt lat="39.2388346" lon="16.9539666"><ele>149.33333333333334</ele><time>2026-03-28T14:23:32.608Z</time></trkpt><trkpt lat="39.2388846" lon="16.9540232"><ele>149.0</ele><time>2026-03-28T14:23:34.615Z</time></trkpt><trkpt lat="39.2389511" lon="16.9540979"><ele>148.66666666666669</ele><time>2026-03-28T14:23:37.621Z</time></trkpt><trkpt lat="39.2390082" lon="16.9541618"><ele>148.33333333333334</ele><time>2026-03-28T14:23:39.627Z</time></trkpt><trkpt lat="39.2390708" lon="16.9542375"><ele>148.0</ele><time>2026-03-28T14:23:41.619Z</time></trkpt><trkpt lat="39.2391147" lon="16.9543222"><ele>151.60000000000002</ele><time>2026-03-28T14:23:43.626Z</time></trkpt><trkpt lat="39.2391549" lon="16.9544136"><ele>155.20000000000002</ele><time>2026-03-28T14:23:45.612Z</time></trkpt><trkpt lat="39.2392017" lon="16.9545242"><ele>158.8</ele><time>2026-03-28T14:23:47.622Z</time></trkpt><trkpt lat="39.2392522" lon="16.9546188"><ele>162.4</ele><time>2026-03-28T14:23:49.609Z</time></trkpt><trkpt lat="39.2393067" lon="16.9547111"><ele>166.0</ele><time>2026-03-28T14:23:51.626Z</time></trkpt><trkpt lat="39.2393594" lon="16.954816"><ele>166.0</ele><time>2026-03-28T14:23:53.622Z</time></trkpt><trkpt lat="39.2394078" lon="16.9548774"><ele>166.0</ele><time>2026-03-28T14:23:55.64Z</time></trkpt><trkpt lat="39.2394795" lon="16.9549593"><ele>166.0</ele><time>2026-03-28T14:23:57.614Z</time></trkpt><trkpt lat="39.2395711" lon="16.9550445"><ele>166.0</ele><time>2026-03-28T14:23:59.628Z</time></trkpt><trkpt lat="39.2396727" lon="16.9550984"><ele>166.0</ele><time>2026-03-28T14:24:01.625Z</time></trkpt><trkpt lat="39.23976" lon="16.9551267"><ele>166.60000000000002</ele><time>2026-03-28T14:24:03.615Z</time></trkpt><trkpt lat="39.239858" lon="16.955166"><ele>167.2</ele><time>2026-03-28T14:24:05.633Z</time></trkpt><trkpt lat="39.2399588" lon="16.9552128"><ele>167.8</ele><time>2026-03-28T14:24:07.623Z</time></trkpt><trkpt lat="39.2400567" lon="16.9552674"><ele>168.39999999999998</ele><time>2026-03-28T14:24:09.615Z</time></trkpt><trkpt lat="39.2401418" lon="16.9553019"><ele>169.0</ele><time>2026-03-28T14:24:11.617Z</time></trkpt><trkpt lat="39.2402207" lon="16.9553181"><ele>169.0</ele><time>2026-03-28T14:24:13.615Z</time></trkpt><trkpt lat="39.2402947" lon="16.9553171"><ele>169.0</ele><time>2026-03-28T14:24:15.61Z</time></trkpt><trkpt lat="39.2403659" lon="16.9552841"><ele>169.0</ele><time>2026-03-28T14:24:17.626Z</time></trkpt><trkpt lat="39.2404278" lon="16.9552661"><ele>169.0</ele><time>2026-03-28T14:24:19.612Z</time></trkpt><trkpt lat="39.2405129" lon="16.9552753"><ele>169.0</ele><time>2026-03-28T14:24:21.626Z</time></trkpt><trkpt lat="39.2405998" lon="16.9552966"><ele>169.0</ele><time>2026-03-28T14:24:23.623Z</time></trkpt><trkpt lat="39.240679" lon="16.95529"><ele>169.0</ele><time>2026-03-28T14:24:25.615Z</time></trkpt><trkpt lat="39.2407657" lon="16.9552594"><ele>169.0</ele><time>2026-03-28T14:24:27.617Z</time></trkpt><trkpt lat="39.2408844" lon="16.9552361"><ele>169.0</ele><time>2026-03-28T14:24:29.62Z</time></trkpt><trkpt lat="39.2409494" lon="16.9552499"><ele>169.0</ele><time>2026-03-28T14:24:30.612Z</time></trkpt><trkpt lat="39.2410544" lon="16.9553134"><ele>169.0</ele><time>2026-03-28T14:24:32.612Z</time></trkpt><trkpt lat="39.2411372" lon="16.9553946"><ele>169.0</ele><time>2026-03-28T14:24:34.61Z</time></trkpt><trkpt lat="39.2412217" lon="16.9554504"><ele>169.0</ele><time>2026-03-28T14:24:36.61Z</time></trkpt><trkpt lat="39.2413004" lon="16.9554749"><ele>169.0</ele><time>2026-03-28T14:24:38.609Z</time></trkpt><trkpt lat="39.2413583" lon="16.9555377"><ele>169.0</ele><time>2026-03-28T14:24:41.607Z</time></trkpt><trkpt lat="39.2414033" lon="16.9555958"><ele>169.0</ele><time>2026-03-28T14:24:43.613Z</time></trkpt><trkpt lat="39.2414573" lon="16.9556517"><ele>169.0</ele><time>2026-03-28T14:24:45.609Z</time></trkpt><trkpt lat="39.2415271" lon="16.9556968"><ele>168.2</ele><time>2026-03-28T14:24:47.619Z</time></trkpt><trkpt lat="39.2416036" lon="16.955726"><ele>167.39999999999998</ele><time>2026-03-28T14:24:49.621Z</time></trkpt><trkpt lat="39.2416853" lon="16.9557665"><ele>166.6</ele><time>2026-03-28T14:24:51.613Z</time></trkpt><trkpt lat="39.2417704" lon="16.9558403"><ele>165.8</ele><time>2026-03-28T14:24:53.615Z</time></trkpt><trkpt lat="39.2418573" lon="16.955915"><ele>165.0</ele><time>2026-03-28T14:24:55.612Z</time></trkpt><trkpt lat="39.2419516" lon="16.9559564"><ele>165.0</ele><time>2026-03-28T14:24:57.616Z</time></trkpt><trkpt lat="39.2420327" lon="16.9559594"><ele>165.0</ele><time>2026-03-28T14:24:59.618Z</time></trkpt><trkpt lat="39.2421247" lon="16.9559932"><ele>165.0</ele><time>2026-03-28T14:25:01.612Z</time></trkpt><trkpt lat="39.2422088" lon="16.956103"><ele>165.0</ele><time>2026-03-28T14:25:03.619Z</time></trkpt><trkpt lat="39.2422519" lon="16.9561738"><ele>165.0</ele><time>2026-03-28T14:25:04.604Z</time></trkpt><trkpt lat="39.2422888" lon="16.9562418"><ele>165.0</ele><time>2026-03-28T14:25:05.618Z</time></trkpt><trkpt lat="39.2423344" lon="16.9563552"><ele>165.83333333333334</ele><time>2026-03-28T14:25:07.617Z</time></trkpt><trkpt lat="39.2423306" lon="16.956449"><ele>166.66666666666666</ele><time>2026-03-28T14:25:09.613Z</time></trkpt><trkpt lat="39.2423018" lon="16.9565337"><ele>167.5</ele><time>2026-03-28T14:25:11.608Z</time></trkpt><trkpt lat="39.2423142" lon="16.9566157"><ele>168.33333333333331</ele><time>2026-03-28T14:25:13.614Z</time></trkpt><trkpt lat="39.2423573" lon="16.9567031"><ele>169.16666666666666</ele><time>2026-03-28T14:25:15.613Z</time></trkpt><trkpt lat="39.2424206" lon="16.9568142"><ele>170.0</ele><time>2026-03-28T14:25:17.617Z</time></trkpt><trkpt lat="39.2424691" lon="16.9569192"><ele>170.0</ele><time>2026-03-28T14:25:19.612Z</time></trkpt><trkpt lat="39.2425183" lon="16.9570203"><ele>170.0</ele><time>2026-03-28T14:25:21.611Z</time></trkpt><trkpt lat="39.2425633" lon="16.9571288"><ele>170.0</ele><time>2026-03-28T14:25:23.626Z</time></trkpt><trkpt lat="39.2425954" lon="16.9572053"><ele>170.0</ele><time>2026-03-28T14:25:24.619Z</time></trkpt><trkpt lat="39.2426324" lon="16.9572918"><ele>170.0</ele><time>2026-03-28T14:25:25.618Z</time></trkpt><trkpt lat="39.2426645" lon="16.957378"><ele>170.0</ele><time>2026-03-28T14:25:26.621Z</time></trkpt><trkpt lat="39.2426898" lon="16.9574613"><ele>168.2</ele><time>2026-03-28T14:25:27.617Z</time></trkpt><trkpt lat="39.2426992" lon="16.9575418"><ele>166.4</ele><time>2026-03-28T14:25:28.622Z</time></trkpt><trkpt lat="39.242674" lon="16.9576807"><ele>164.60000000000002</ele><time>2026-03-28T14:25:30.62Z</time></trkpt><trkpt lat="39.2426536" lon="16.9578012"><ele>162.8</ele><time>2026-03-28T14:25:32.612Z</time></trkpt><trkpt lat="39.242645" lon="16.9579409"><ele>161.0</ele><time>2026-03-28T14:25:34.619Z</time></trkpt><trkpt lat="39.242668" lon="16.9580786"><ele>161.0</ele><time>2026-03-28T14:25:36.616Z</time></trkpt><trkpt lat="39.2427176" lon="16.9581986"><ele>161.0</ele><time>2026-03-28T14:25:38.618Z</time></trkpt><trkpt lat="39.2427505" lon="16.9583161"><ele>161.0</ele><time>2026-03-28T14:25:40.616Z</time></trkpt><trkpt lat="39.2427801" lon="16.9584673"><ele>161.0</ele><time>2026-03-28T14:25:42.616Z</time></trkpt><trkpt lat="39.2428062" lon="16.9585526"><ele>161.0</ele><time>2026-03-28T14:25:43.62Z</time></trkpt><trkpt lat="39.2428265" lon="16.9586983"><ele>159.0</ele><time>2026-03-28T14:25:45.623Z</time></trkpt><trkpt lat="39.2428223" lon="16.9588321"><ele>157.0</ele><time>2026-03-28T14:25:47.627Z</time></trkpt><trkpt lat="39.2428331" lon="16.958966"><ele>155.0</ele><time>2026-03-28T14:25:49.63Z</time></trkpt><trkpt lat="39.2428593" lon="16.9591159"><ele>153.0</ele><time>2026-03-28T14:25:51.622Z</time></trkpt><trkpt lat="39.2429147" lon="16.9592609"><ele>152.4</ele><time>2026-03-28T14:25:53.629Z</time></trkpt><trkpt lat="39.2429656" lon="16.9593218"><ele>151.8</ele><time>2026-03-28T14:25:54.617Z</time></trkpt><trkpt lat="39.2430225" lon="16.9593636"><ele>151.2</ele><time>2026-03-28T14:25:55.619Z</time></trkpt><trkpt lat="39.2431248" lon="16.9594605"><ele>150.6</ele><time>2026-03-28T14:25:57.621Z</time></trkpt><trkpt lat="39.2432263" lon="16.9595665"><ele>150.0</ele><time>2026-03-28T14:25:59.614Z</time></trkpt><trkpt lat="39.2432679" lon="16.9596319"><ele>147.83333333333334</ele><time>2026-03-28T14:26:00.621Z</time></trkpt><trkpt lat="39.2433045" lon="16.9597112"><ele>145.66666666666666</ele><time>2026-03-28T14:26:01.617Z</time></trkpt><trkpt lat="39.2433326" lon="16.959791"><ele>143.5</ele><time>2026-03-28T14:26:02.613Z</time></trkpt><trkpt lat="39.2433662" lon="16.9599277"><ele>141.33333333333331</ele><time>2026-03-28T14:26:04.614Z</time></trkpt><trkpt lat="39.2433996" lon="16.9600536"><ele>139.16666666666666</ele><time>2026-03-28T14:26:06.61Z</time></trkpt><trkpt lat="39.2434276" lon="16.9601437"><ele>137.0</ele><time>2026-03-28T14:26:07.607Z</time></trkpt><trkpt lat="39.2434587" lon="16.9602388"><ele>136.85714285714286</ele><time>2026-03-28T14:26:08.616Z</time></trkpt><trkpt lat="39.2434931" lon="16.9603345"><ele>136.71428571428572</ele><time>2026-03-28T14:26:09.632Z</time></trkpt><trkpt lat="39.2435277" lon="16.9604264"><ele>136.57142857142856</ele><time>2026-03-28T14:26:10.615Z</time></trkpt><trkpt lat="39.243562" lon="16.9605091"><ele>136.42857142857144</ele><time>2026-03-28T14:26:11.618Z</time></trkpt><trkpt lat="39.2436012" lon="16.9605776"><ele>136.28571428571428</ele><time>2026-03-28T14:26:12.615Z</time></trkpt><trkpt lat="39.24365" lon="16.9606336"><ele>136.14285714285714</ele><time>2026-03-28T14:26:13.62Z</time></trkpt><trkpt lat="39.243706" lon="16.9606755"><ele>136.0</ele><time>2026-03-28T14:26:14.611Z</time></trkpt><trkpt lat="39.2437655" lon="16.9607085"><ele>136.0</ele><time>2026-03-28T14:26:15.62Z</time></trkpt><trkpt lat="39.2438236" lon="16.9607539"><ele>136.0</ele><time>2026-03-28T14:26:16.611Z</time></trkpt><trkpt lat="39.243888" lon="16.9608254"><ele>136.0</ele><time>2026-03-28T14:26:17.62Z</time></trkpt><trkpt lat="39.2439528" lon="16.9609079"><ele>136.0</ele><time>2026-03-28T14:26:18.611Z</time></trkpt><trkpt lat="39.2440079" lon="16.9609775"><ele>136.0</ele><time>2026-03-28T14:26:19.618Z</time></trkpt><trkpt lat="39.2440934" lon="16.9610713"><ele>136.0</ele><time>2026-03-28T14:26:21.613Z</time></trkpt><trkpt lat="39.2442198" lon="16.9610727"><ele>136.25</ele><time>2026-03-28T14:26:23.612Z</time></trkpt><trkpt lat="39.2443087" lon="16.961041"><ele>136.5</ele><time>2026-03-28T14:26:24.606Z</time></trkpt><trkpt lat="39.2444136" lon="16.9610015"><ele>136.75</ele><time>2026-03-28T14:26:25.618Z</time></trkpt><trkpt lat="39.2445295" lon="16.9609398"><ele>137.0</ele><time>2026-03-28T14:26:26.613Z</time></trkpt><trkpt lat="39.2446502" lon="16.9608929"><ele>137.0</ele><time>2026-03-28T14:26:27.613Z</time></trkpt><trkpt lat="39.2447556" lon="16.9608612"><ele>137.0</ele><time>2026-03-28T14:26:28.613Z</time></trkpt><trkpt lat="39.2448465" lon="16.9608488"><ele>137.0</ele><time>2026-03-28T14:26:29.626Z</time></trkpt><trkpt lat="39.2449352" lon="16.9608385"><ele>137.0</ele><time>2026-03-28T14:26:30.617Z</time></trkpt><trkpt lat="39.2450134" lon="16.9608488"><ele>137.0</ele><time>2026-03-28T14:26:31.62Z</time></trkpt><trkpt lat="39.2450834" lon="16.9608537"><ele>137.0</ele><time>2026-03-28T14:26:32.615Z</time></trkpt><trkpt lat="39.2451575" lon="16.9608245"><ele>139.0</ele><time>2026-03-28T14:26:33.62Z</time></trkpt><trkpt lat="39.2452434" lon="16.9607867"><ele>141.0</ele><time>2026-03-28T14:26:34.62Z</time></trkpt><trkpt lat="39.2453658" lon="16.960716"><ele>143.0</ele><time>2026-03-28T14:26:35.619Z</time></trkpt><trkpt lat="39.2454779" lon="16.9606539"><ele>145.0</ele><time>2026-03-28T14:26:36.602Z</time></trkpt><trkpt lat="39.2455756" lon="16.9605991"><ele>146.66666666666669</ele><time>2026-03-28T14:26:37.622Z</time></trkpt><trkpt lat="39.2456649" lon="16.9605507"><ele>148.33333333333334</ele><time>2026-03-28T14:26:38.618Z</time></trkpt><trkpt lat="39.2457493" lon="16.9605031"><ele>150.0</ele><time>2026-03-28T14:26:39.612Z</time></trkpt><trkpt lat="39.2458337" lon="16.9604551"><ele>151.66666666666666</ele><time>2026-03-28T14:26:40.628Z</time></trkpt><trkpt lat="39.2459005" lon="16.9604146"><ele>153.33333333333331</ele><time>2026-03-28T14:26:41.616Z</time></trkpt><trkpt lat="39.2459655" lon="16.960379"><ele>155.0</ele><time>2026-03-28T14:26:42.616Z</time></trkpt><trkpt lat="39.2460288" lon="16.9603365"><ele>155.0</ele><time>2026-03-28T14:26:43.616Z</time></trkpt><trkpt lat="39.2460898" lon="16.9602962"><ele>155.0</ele><time>2026-03-28T14:26:44.627Z</time></trkpt><trkpt lat="39.246151" lon="16.9602621"><ele>155.0</ele><time>2026-03-28T14:26:45.625Z</time></trkpt><trkpt lat="39.2462131" lon="16.9602228"><ele>155.0</ele><time>2026-03-28T14:26:46.623Z</time></trkpt><trkpt lat="39.2462754" lon="16.9601847"><ele>155.0</ele><time>2026-03-28T14:26:47.614Z</time></trkpt><trkpt lat="39.2463369" lon="16.960145"><ele>155.0</ele><time>2026-03-28T14:26:48.614Z</time></trkpt><trkpt lat="39.2463969" lon="16.9601149"><ele>155.0</ele><time>2026-03-28T14:26:49.615Z</time></trkpt><trkpt lat="39.2465041" lon="16.9601157"><ele>157.6</ele><time>2026-03-28T14:26:51.621Z</time></trkpt><trkpt lat="39.2466094" lon="16.9601441"><ele>160.2</ele><time>2026-03-28T14:26:53.612Z</time></trkpt><trkpt lat="39.2466962" lon="16.9601782"><ele>162.8</ele><time>2026-03-28T14:26:55.616Z</time></trkpt><trkpt lat="39.2467826" lon="16.9602276"><ele>165.4</ele><time>2026-03-28T14:26:57.627Z</time></trkpt><trkpt lat="39.2468636" lon="16.9602154"><ele>168.0</ele><time>2026-03-28T14:26:59.613Z</time></trkpt><trkpt lat="39.24687" lon="16.9600977"><ele>169.5</ele><time>2026-03-28T14:27:01.625Z</time></trkpt><trkpt lat="39.2468318" lon="16.9599908"><ele>171.0</ele><time>2026-03-28T14:27:03.615Z</time></trkpt><trkpt lat="39.2468031" lon="16.9598957"><ele>172.5</ele><time>2026-03-28T14:27:10.619Z</time></trkpt><trkpt lat="39.2467979" lon="16.9597927"><ele>174.0</ele><time>2026-03-28T14:27:15.632Z</time></trkpt><trkpt lat="39.2468503" lon="16.9597304"><ele>175.5</ele><time>2026-03-28T14:27:18.614Z</time></trkpt><trkpt lat="39.2469172" lon="16.9597235"><ele>177.0</ele><time>2026-03-28T14:27:20.615Z</time></trkpt><trkpt lat="39.2470077" lon="16.9597883"><ele>177.0</ele><time>2026-03-28T14:27:22.619Z</time></trkpt><trkpt lat="39.2470746" lon="16.9598487"><ele>177.0</ele><time>2026-03-28T14:27:23.625Z</time></trkpt><trkpt lat="39.2471446" lon="16.9599174"><ele>177.0</ele><time>2026-03-28T14:27:24.61Z</time></trkpt><trkpt lat="39.2472207" lon="16.9599725"><ele>177.0</ele><time>2026-03-28T14:27:25.621Z</time></trkpt><trkpt lat="39.2473066" lon="16.9600088"><ele>177.0</ele><time>2026-03-28T14:27:26.617Z</time></trkpt><trkpt lat="39.2473962" lon="16.9600308"><ele>177.0</ele><time>2026-03-28T14:27:27.605Z</time></trkpt><trkpt lat="39.2474689" lon="16.9600511"><ele>178.6</ele><time>2026-03-28T14:27:28.613Z</time></trkpt><trkpt lat="39.2475626" lon="16.9601264"><ele>180.2</ele><time>2026-03-28T14:27:30.608Z</time></trkpt><trkpt lat="39.2476264" lon="16.9602007"><ele>181.8</ele><time>2026-03-28T14:27:31.622Z</time></trkpt><trkpt lat="39.2477191" lon="16.9602945"><ele>183.4</ele><time>2026-03-28T14:27:32.607Z</time></trkpt><trkpt lat="39.2477993" lon="16.9603858"><ele>185.0</ele><time>2026-03-28T14:27:33.607Z</time></trkpt><trkpt lat="39.2478681" lon="16.9604644"><ele>184.99999999999997</ele><time>2026-03-28T14:27:34.617Z</time></trkpt><trkpt lat="39.2478936" lon="16.9605511"><ele>185.0</ele><time>2026-03-28T14:27:35.617Z</time></trkpt><trkpt lat="39.2479168" lon="16.9606497"><ele>185.0</ele><time>2026-03-28T14:27:36.616Z</time></trkpt><trkpt lat="39.2479513" lon="16.9607368"><ele>185.0</ele><time>2026-03-28T14:27:37.617Z</time></trkpt><trkpt lat="39.2479906" lon="16.9608165"><ele>185.0</ele><time>2026-03-28T14:27:38.614Z</time></trkpt><trkpt lat="39.2480364" lon="16.9608903"><ele>184.99999999999997</ele><time>2026-03-28T14:27:39.616Z</time></trkpt><trkpt lat="39.2480752" lon="16.9609702"><ele>185.0</ele><time>2026-03-28T14:27:40.615Z</time></trkpt><trkpt lat="39.2481187" lon="16.9610604"><ele>188.2</ele><time>2026-03-28T14:27:41.606Z</time></trkpt><trkpt lat="39.2481764" lon="16.9611637"><ele>191.4</ele><time>2026-03-28T14:27:42.605Z</time></trkpt><trkpt lat="39.2482514" lon="16.9612799"><ele>194.60000000000002</ele><time>2026-03-28T14:27:43.619Z</time></trkpt><trkpt lat="39.2483286" lon="16.9613955"><ele>197.8</ele><time>2026-03-28T14:27:44.614Z</time></trkpt><trkpt lat="39.2483993" lon="16.9614982"><ele>201.0</ele><time>2026-03-28T14:27:45.606Z</time></trkpt><trkpt lat="39.2484736" lon="16.9616037"><ele>198.0</ele><time>2026-03-28T14:27:46.606Z</time></trkpt><trkpt lat="39.248559" lon="16.9617099"><ele>195.0</ele><time>2026-03-28T14:27:47.616Z</time></trkpt><trkpt lat="39.2486553" lon="16.961806"><ele>192.0</ele><time>2026-03-28T14:27:48.606Z</time></trkpt><trkpt lat="39.2487453" lon="16.9618762"><ele>189.0</ele><time>2026-03-28T14:27:49.616Z</time></trkpt><trkpt lat="39.2488164" lon="16.9619144"><ele>186.0</ele><time>2026-03-28T14:27:50.608Z</time></trkpt><trkpt lat="39.2489015" lon="16.9619208"><ele>186.0</ele><time>2026-03-28T14:27:52.606Z</time></trkpt><trkpt lat="39.2489442" lon="16.9618519"><ele>186.0</ele><time>2026-03-28T14:28:48.623Z</time></trkpt><trkpt lat="39.2489485" lon="16.961729"><ele>186.0</ele><time>2026-03-28T14:29:17.619Z</time></trkpt><trkpt lat="39.2489315" lon="16.9616189"><ele>186.0</ele><time>2026-03-28T14:29:20.611Z</time></trkpt><trkpt lat="39.2489335" lon="16.961531"><ele>186.0</ele><time>2026-03-28T14:29:22.611Z</time></trkpt><trkpt lat="39.2489584" lon="16.9614193"><ele>186.0</ele><time>2026-03-28T14:29:25.616Z</time></trkpt><trkpt lat="39.2489263" lon="16.9613173"><ele>189.0</ele><time>2026-03-28T14:29:27.619Z</time></trkpt><trkpt lat="39.2488797" lon="16.9612446"><ele>192.0</ele><time>2026-03-28T14:29:28.611Z</time></trkpt><trkpt lat="39.2487799" lon="16.9611703"><ele>195.0</ele><time>2026-03-28T14:29:29.619Z</time></trkpt><trkpt lat="39.2486673" lon="16.9610913"><ele>198.0</ele><time>2026-03-28T14:29:30.611Z</time></trkpt><trkpt lat="39.2485551" lon="16.9610095"><ele>201.0</ele><time>2026-03-28T14:29:31.618Z</time></trkpt><trkpt lat="39.2484665" lon="16.960929"><ele>204.5</ele><time>2026-03-28T14:29:32.614Z</time></trkpt><trkpt lat="39.2484182" lon="16.960845"><ele>208.0</ele><time>2026-03-28T14:29:33.617Z</time></trkpt><trkpt lat="39.2484128" lon="16.9607609"><ele>211.5</ele><time>2026-03-28T14:29:34.618Z</time></trkpt><trkpt lat="39.2484112" lon="16.9606774"><ele>215.0</ele><time>2026-03-28T14:29:35.624Z</time></trkpt><trkpt lat="39.248474" lon="16.9605962"><ele>218.5</ele><time>2026-03-28T14:29:36.617Z</time></trkpt><trkpt lat="39.2485815" lon="16.9605304"><ele>222.0</ele><time>2026-03-28T14:29:37.629Z</time></trkpt><trkpt lat="39.2486801" lon="16.9604706"><ele>222.0</ele><time>2026-03-28T14:29:38.626Z</time></trkpt><trkpt lat="39.2487659" lon="16.960436"><ele>222.0</ele><time>2026-03-28T14:29:39.617Z</time></trkpt><trkpt lat="39.2488526" lon="16.9604434"><ele>222.0</ele><time>2026-03-28T14:29:40.617Z</time></trkpt><trkpt lat="39.2489403" lon="16.9604653"><ele>222.0</ele><time>2026-03-28T14:29:41.62Z</time></trkpt><trkpt lat="39.2490381" lon="16.9604922"><ele>222.0</ele><time>2026-03-28T14:29:42.615Z</time></trkpt><trkpt lat="39.249139" lon="16.9605257"><ele>225.39999999999998</ele><time>2026-03-28T14:29:43.621Z</time></trkpt><trkpt lat="39.2492329" lon="16.9605573"><ele>228.79999999999998</ele><time>2026-03-28T14:29:44.615Z</time></trkpt><trkpt lat="39.2493169" lon="16.960582"><ele>232.2</ele><time>2026-03-28T14:29:45.614Z</time></trkpt><trkpt lat="39.2493847" lon="16.9605864"><ele>235.6</ele><time>2026-03-28T14:29:46.615Z</time></trkpt><trkpt lat="39.2494889" lon="16.9605131"><ele>239.0</ele><time>2026-03-28T14:29:48.609Z</time></trkpt><trkpt lat="39.2495378" lon="16.9603881"><ele>239.0</ele><time>2026-03-28T14:29:50.61Z</time></trkpt><trkpt lat="39.2495442" lon="16.9603007"><ele>238.99999999999997</ele><time>2026-03-28T14:29:51.626Z</time></trkpt><trkpt lat="39.2495713" lon="16.9601741"><ele>238.99999999999997</ele><time>2026-03-28T14:29:52.613Z</time></trkpt><trkpt lat="39.2496021" lon="16.960036"><ele>239.0</ele><time>2026-03-28T14:29:53.616Z</time></trkpt><trkpt lat="39.249643" lon="16.9599046"><ele>239.0</ele><time>2026-03-28T14:29:54.61Z</time></trkpt><trkpt lat="39.2496794" lon="16.9597793"><ele>237.75</ele><time>2026-03-28T14:29:55.611Z</time></trkpt><trkpt lat="39.2497427" lon="16.9596953"><ele>236.5</ele><time>2026-03-28T14:29:56.616Z</time></trkpt><trkpt lat="39.2498502" lon="16.9596457"><ele>235.25</ele><time>2026-03-28T14:29:57.625Z</time></trkpt><trkpt lat="39.2499956" lon="16.9596"><ele>234.0</ele><time>2026-03-28T14:29:58.615Z</time></trkpt><trkpt lat="39.2501322" lon="16.9595604"><ele>234.0</ele><time>2026-03-28T14:29:59.635Z</time></trkpt><trkpt lat="39.2502467" lon="16.9595144"><ele>233.99999999999997</ele><time>2026-03-28T14:30:00.616Z</time></trkpt><trkpt lat="39.2503507" lon="16.959474"><ele>233.99999999999997</ele><time>2026-03-28T14:30:01.611Z</time></trkpt><trkpt lat="39.250426" lon="16.9593964"><ele>234.0</ele><time>2026-03-28T14:30:02.618Z</time></trkpt><trkpt lat="39.2504764" lon="16.9592837"><ele>234.0</ele><time>2026-03-28T14:30:03.627Z</time></trkpt><trkpt lat="39.2505136" lon="16.9591281"><ele>238.5</ele><time>2026-03-28T14:30:04.61Z</time></trkpt><trkpt lat="39.2505473" lon="16.9589746"><ele>243.0</ele><time>2026-03-28T14:30:05.611Z</time></trkpt><trkpt lat="39.2505603" lon="16.9588262"><ele>247.5</ele><time>2026-03-28T14:30:06.615Z</time></trkpt><trkpt lat="39.2505681" lon="16.9586843"><ele>252.0</ele><time>2026-03-28T14:30:07.624Z</time></trkpt><trkpt lat="39.2505839" lon="16.9585315"><ele>252.0</ele><time>2026-03-28T14:30:08.616Z</time></trkpt><trkpt lat="39.2506062" lon="16.9583524"><ele>252.0</ele><time>2026-03-28T14:30:09.61Z</time></trkpt><trkpt lat="39.2506269" lon="16.9581693"><ele>252.0</ele><time>2026-03-28T14:30:10.615Z</time></trkpt><trkpt lat="39.2506734" lon="16.9579783"><ele>252.0</ele><time>2026-03-28T14:30:11.622Z</time></trkpt><trkpt lat="39.2507319" lon="16.9577574"><ele>252.0</ele><time>2026-03-28T14:30:12.614Z</time></trkpt><trkpt lat="39.2507971" lon="16.9575558"><ele>252.0</ele><time>2026-03-28T14:30:13.616Z</time></trkpt><trkpt lat="39.2508648" lon="16.9573756"><ele>252.0</ele><time>2026-03-28T14:30:14.612Z</time></trkpt><trkpt lat="39.250972" lon="16.9572285"><ele>255.0</ele><time>2026-03-28T14:30:15.619Z</time></trkpt><trkpt lat="39.2511066" lon="16.9570887"><ele>258.0</ele><time>2026-03-28T14:30:16.612Z</time></trkpt><trkpt lat="39.2512532" lon="16.956948"><ele>261.0</ele><time>2026-03-28T14:30:17.623Z</time></trkpt><trkpt lat="39.2513877" lon="16.9568209"><ele>261.25</ele><time>2026-03-28T14:30:18.606Z</time></trkpt><trkpt lat="39.2515031" lon="16.956705"><ele>261.5</ele><time>2026-03-28T14:30:19.603Z</time></trkpt><trkpt lat="39.2516054" lon="16.9566053"><ele>261.75</ele><time>2026-03-28T14:30:20.608Z</time></trkpt><trkpt lat="39.2517076" lon="16.9565158"><ele>262.0</ele><time>2026-03-28T14:30:21.609Z</time></trkpt><trkpt lat="39.2517995" lon="16.9564318"><ele>263.2</ele><time>2026-03-28T14:30:22.604Z</time></trkpt><trkpt lat="39.251888" lon="16.9563566"><ele>264.4</ele><time>2026-03-28T14:30:23.608Z</time></trkpt><trkpt lat="39.2519621" lon="16.9562752"><ele>265.6</ele><time>2026-03-28T14:30:24.608Z</time></trkpt><trkpt lat="39.2520179" lon="16.9562128"><ele>266.8</ele><time>2026-03-28T14:30:25.607Z</time></trkpt><trkpt lat="39.2520701" lon="16.9561671"><ele>268.0</ele><time>2026-03-28T14:30:26.615Z</time></trkpt><trkpt lat="39.2521685" lon="16.9560675"><ele>268.0</ele><time>2026-03-28T14:30:28.611Z</time></trkpt><trkpt lat="39.2522421" lon="16.9559597"><ele>268.0</ele><time>2026-03-28T14:30:30.613Z</time></trkpt><trkpt lat="39.2522872" lon="16.9558976"><ele>268.0</ele><time>2026-03-28T14:30:31.609Z</time></trkpt><trkpt lat="39.2523039" lon="16.9558044"><ele>268.0</ele><time>2026-03-28T14:30:32.637Z</time></trkpt><trkpt lat="39.2523128" lon="16.9557135"><ele>268.0</ele><time>2026-03-28T14:30:33.628Z</time></trkpt><trkpt lat="39.2523072" lon="16.9556203"><ele>268.0</ele><time>2026-03-28T14:30:34.619Z</time></trkpt><trkpt lat="39.2522887" lon="16.9555214"><ele>270.0</ele><time>2026-03-28T14:30:35.625Z</time></trkpt><trkpt lat="39.252265" lon="16.9554171"><ele>272.0</ele><time>2026-03-28T14:30:36.622Z</time></trkpt><trkpt lat="39.2522281" lon="16.9553146"><ele>274.0</ele><time>2026-03-28T14:30:37.607Z</time></trkpt><trkpt lat="39.2521801" lon="16.9552229"><ele>276.0</ele><time>2026-03-28T14:30:38.609Z</time></trkpt><trkpt lat="39.2521232" lon="16.9551375"><ele>278.0</ele><time>2026-03-28T14:30:39.613Z</time></trkpt><trkpt lat="39.252058" lon="16.9550561"><ele>280.0</ele><time>2026-03-28T14:30:40.605Z</time></trkpt><trkpt lat="39.2519842" lon="16.9549819"><ele>280.16666666666663</ele><time>2026-03-28T14:30:41.609Z</time></trkpt><trkpt lat="39.2519132" lon="16.9549176"><ele>280.3333333333333</ele><time>2026-03-28T14:30:42.61Z</time></trkpt><trkpt lat="39.2518527" lon="16.9548657"><ele>280.5</ele><time>2026-03-28T14:30:43.612Z</time></trkpt><trkpt lat="39.2517951" lon="16.9548137"><ele>280.6666666666667</ele><time>2026-03-28T14:30:44.602Z</time></trkpt><trkpt lat="39.2517402" lon="16.9547607"><ele>280.83333333333337</ele><time>2026-03-28T14:30:45.618Z</time></trkpt><trkpt lat="39.2516658" lon="16.9546746"><ele>281.0</ele><time>2026-03-28T14:30:47.613Z</time></trkpt><trkpt lat="39.2516151" lon="16.9545716"><ele>281.0</ele><time>2026-03-28T14:30:49.614Z</time></trkpt><trkpt lat="39.2515969" lon="16.9544845"><ele>281.0</ele><time>2026-03-28T14:30:51.618Z</time></trkpt><trkpt lat="39.2515725" lon="16.9543987"><ele>281.0</ele><time>2026-03-28T14:30:53.608Z</time></trkpt><trkpt lat="39.2515219" lon="16.9543397"><ele>281.0</ele><time>2026-03-28T14:30:55.611Z</time></trkpt><trkpt lat="39.2514459" lon="16.9543659"><ele>281.0</ele><time>2026-03-28T14:30:57.615Z</time></trkpt><trkpt lat="39.251404" lon="16.9544734"><ele>281.0</ele><time>2026-03-28T14:30:59.608Z</time></trkpt><trkpt lat="39.251385" lon="16.9546299"><ele>282.33333333333337</ele><time>2026-03-28T14:31:01.626Z</time></trkpt><trkpt lat="39.2513726" lon="16.9547183"><ele>283.6666666666667</ele><time>2026-03-28T14:31:02.61Z</time></trkpt><trkpt lat="39.2513598" lon="16.9548123"><ele>285.0</ele><time>2026-03-28T14:31:03.608Z</time></trkpt><trkpt lat="39.2513465" lon="16.9549141"><ele>286.3333333333333</ele><time>2026-03-28T14:31:04.609Z</time></trkpt><trkpt lat="39.2513315" lon="16.9550536"><ele>287.66666666666663</ele><time>2026-03-28T14:31:05.617Z</time></trkpt><trkpt lat="39.2512978" lon="16.9551862"><ele>289.0</ele><time>2026-03-28T14:31:06.614Z</time></trkpt><trkpt lat="39.2512899" lon="16.95531"><ele>289.0</ele><time>2026-03-28T14:31:07.605Z</time></trkpt><trkpt lat="39.2512792" lon="16.9554359"><ele>289.0</ele><time>2026-03-28T14:31:08.611Z</time></trkpt><trkpt lat="39.2512513" lon="16.9555576"><ele>289.0</ele><time>2026-03-28T14:31:09.621Z</time></trkpt><trkpt lat="39.2512078" lon="16.9556562"><ele>289.0</ele><time>2026-03-28T14:31:10.615Z</time></trkpt><trkpt lat="39.2511446" lon="16.955734"><ele>289.0</ele><time>2026-03-28T14:31:11.619Z</time></trkpt><trkpt lat="39.2510701" lon="16.9557948"><ele>289.0</ele><time>2026-03-28T14:31:12.616Z</time></trkpt><trkpt lat="39.2509966" lon="16.9558459"><ele>289.0</ele><time>2026-03-28T14:31:13.625Z</time></trkpt><trkpt lat="39.2509228" lon="16.9558764"><ele>289.0</ele><time>2026-03-28T14:31:14.607Z</time></trkpt><trkpt lat="39.2508617" lon="16.9559116"><ele>289.0</ele><time>2026-03-28T14:31:15.609Z</time></trkpt><trkpt lat="39.2507829" lon="16.9558927"><ele>289.0</ele><time>2026-03-28T14:31:16.613Z</time></trkpt><trkpt lat="39.2507053" lon="16.9558668"><ele>289.0</ele><time>2026-03-28T14:31:17.621Z</time></trkpt><trkpt lat="39.2506292" lon="16.9558198"><ele>290.16666666666663</ele><time>2026-03-28T14:31:18.62Z</time></trkpt><trkpt lat="39.2505633" lon="16.9557683"><ele>291.3333333333333</ele><time>2026-03-28T14:31:19.61Z</time></trkpt><trkpt lat="39.250501" lon="16.9557032"><ele>292.5</ele><time>2026-03-28T14:31:20.615Z</time></trkpt><trkpt lat="39.2504318" lon="16.9556319"><ele>293.6666666666667</ele><time>2026-03-28T14:31:21.617Z</time></trkpt><trkpt lat="39.2503543" lon="16.9555546"><ele>294.83333333333337</ele><time>2026-03-28T14:31:22.615Z</time></trkpt><trkpt lat="39.2502678" lon="16.9554811"><ele>296.0</ele><time>2026-03-28T14:31:23.61Z</time></trkpt><trkpt lat="39.2501811" lon="16.9554089"><ele>296.0</ele><time>2026-03-28T14:31:24.612Z</time></trkpt><trkpt lat="39.2500881" lon="16.9553485"><ele>296.0</ele><time>2026-03-28T14:31:25.623Z</time></trkpt><trkpt lat="39.2499979" lon="16.9552757"><ele>296.0</ele><time>2026-03-28T14:31:26.624Z</time></trkpt><trkpt lat="39.2498913" lon="16.9552442"><ele>296.0</ele><time>2026-03-28T14:31:27.611Z</time></trkpt><trkpt lat="39.2497901" lon="16.9551853"><ele>296.0</ele><time>2026-03-28T14:31:28.616Z</time></trkpt><trkpt lat="39.2496818" lon="16.9551747"><ele>297.6</ele><time>2026-03-28T14:31:29.614Z</time></trkpt><trkpt lat="39.2495729" lon="16.9551554"><ele>299.20000000000005</ele><time>2026-03-28T14:31:30.612Z</time></trkpt><trkpt lat="39.2494645" lon="16.9551329"><ele>300.79999999999995</ele><time>2026-03-28T14:31:31.611Z</time></trkpt><trkpt lat="39.2493931" lon="16.9551039"><ele>302.4</ele><time>2026-03-28T14:31:32.61Z</time></trkpt><trkpt lat="39.2493068" lon="16.9551027"><ele>304.0</ele><time>2026-03-28T14:31:33.62Z</time></trkpt><trkpt lat="39.2492226" lon="16.9551346"><ele>304.0</ele><time>2026-03-28T14:31:34.617Z</time></trkpt><trkpt lat="39.2491563" lon="16.9551792"><ele>304.0</ele><time>2026-03-28T14:31:35.605Z</time></trkpt><trkpt lat="39.2490653" lon="16.955276"><ele>304.0</ele><time>2026-03-28T14:31:37.616Z</time></trkpt><trkpt lat="39.2490302" lon="16.9553545"><ele>304.0</ele><time>2026-03-28T14:31:38.6Z</time></trkpt><trkpt lat="39.2489974" lon="16.9554363"><ele>304.0</ele><time>2026-03-28T14:31:39.607Z</time></trkpt><trkpt lat="39.2489854" lon="16.9555373"><ele>304.0</ele><time>2026-03-28T14:31:40.605Z</time></trkpt><trkpt lat="39.248947" lon="16.9556174"><ele>304.3333333333333</ele><time>2026-03-28T14:31:41.609Z</time></trkpt><trkpt lat="39.2489126" lon="16.9557142"><ele>304.66666666666663</ele><time>2026-03-28T14:31:42.613Z</time></trkpt><trkpt lat="39.2488685" lon="16.9558209"><ele>305.0</ele><time>2026-03-28T14:31:43.617Z</time></trkpt><trkpt lat="39.2488237" lon="16.9559281"><ele>305.3333333333333</ele><time>2026-03-28T14:31:44.612Z</time></trkpt><trkpt lat="39.2487663" lon="16.9560084"><ele>305.6666666666667</ele><time>2026-03-28T14:31:45.61Z</time></trkpt><trkpt lat="39.2486993" lon="16.9560892"><ele>306.0</ele><time>2026-03-28T14:31:46.611Z</time></trkpt><trkpt lat="39.2486345" lon="16.9561601"><ele>304.0</ele><time>2026-03-28T14:31:47.608Z</time></trkpt><trkpt lat="39.2485765" lon="16.9562283"><ele>302.0</ele><time>2026-03-28T14:31:48.613Z</time></trkpt><trkpt lat="39.2485259" lon="16.9562902"><ele>300.0</ele><time>2026-03-28T14:31:49.609Z</time></trkpt><trkpt lat="39.2484685" lon="16.9563343"><ele>298.0</ele><time>2026-03-28T14:31:50.61Z</time></trkpt><trkpt lat="39.2484856" lon="16.9564824"><ele>296.0</ele><time>2026-03-28T14:31:52.61Z</time></trkpt><trkpt lat="39.2485104" lon="16.9565653"><ele>294.0</ele><time>2026-03-28T14:31:53.627Z</time></trkpt><trkpt lat="39.2485283" lon="16.9566589"><ele>293.3333333333333</ele><time>2026-03-28T14:31:54.616Z</time></trkpt><trkpt lat="39.2485409" lon="16.9567602"><ele>292.6666666666667</ele><time>2026-03-28T14:31:55.601Z</time></trkpt><trkpt lat="39.2485469" lon="16.9568618"><ele>292.0</ele><time>2026-03-28T14:31:56.611Z</time></trkpt><trkpt lat="39.2485683" lon="16.9569549"><ele>291.33333333333337</ele><time>2026-03-28T14:31:57.621Z</time></trkpt><trkpt lat="39.2486009" lon="16.9570796"><ele>290.6666666666667</ele><time>2026-03-28T14:31:59.606Z</time></trkpt><trkpt lat="39.248625" lon="16.9571956"><ele>290.0</ele><time>2026-03-28T14:32:03.617Z</time></trkpt><trkpt lat="39.2486418" lon="16.9573065"><ele>290.0</ele><time>2026-03-28T14:32:06.606Z</time></trkpt><trkpt lat="39.248662" lon="16.9574243"><ele>290.0</ele><time>2026-03-28T14:32:08.61Z</time></trkpt><trkpt lat="39.248729" lon="16.9574437"><ele>290.0</ele><time>2026-03-28T14:32:10.618Z</time></trkpt><trkpt lat="39.2487597" lon="16.957349"><ele>290.0</ele><time>2026-03-28T14:32:12.621Z</time></trkpt><trkpt lat="39.2487507" lon="16.9572263"><ele>290.0</ele><time>2026-03-28T14:32:14.619Z</time></trkpt><trkpt lat="39.2487201" lon="16.957127"><ele>290.0</ele><time>2026-03-28T14:32:26.608Z</time></trkpt><trkpt lat="39.2486982" lon="16.9570333"><ele>290.0</ele><time>2026-03-28T14:32:52.62Z</time></trkpt><trkpt lat="39.2487014" lon="16.9569193"><ele>290.0</ele><time>2026-03-28T14:32:56.613Z</time></trkpt><trkpt lat="39.2487793" lon="16.9568851"><ele>290.0</ele><time>2026-03-28T14:37:46.594Z</time></trkpt><trkpt lat="39.2487108" lon="16.9568924"><ele>290.0</ele><time>2026-03-28T14:43:23.59Z</time></trkpt><trkpt lat="39.24877" lon="16.9568225"><ele>290.0</ele><time>2026-03-28T14:54:01.599Z</time></trkpt><trkpt lat="39.2488416" lon="16.9567999"><ele>290.0</ele><time>2026-03-28T14:54:03.604Z</time></trkpt><trkpt lat="39.2489335" lon="16.9567456"><ele>289.6</ele><time>2026-03-28T14:54:06.598Z</time></trkpt><trkpt lat="39.2490154" lon="16.9566761"><ele>289.2</ele><time>2026-03-28T14:54:08.599Z</time></trkpt><trkpt lat="39.2491094" lon="16.9566025"><ele>288.8</ele><time>2026-03-28T14:54:10.605Z</time></trkpt><trkpt lat="39.2491758" lon="16.9565811"><ele>288.4</ele><time>2026-03-28T14:54:11.604Z</time></trkpt><trkpt lat="39.2493189" lon="16.9566032"><ele>288.0</ele><time>2026-03-28T14:54:13.605Z</time></trkpt><trkpt lat="39.2494071" lon="16.9566875"><ele>286.2</ele><time>2026-03-28T14:54:14.605Z</time></trkpt><trkpt lat="39.2495055" lon="16.9567479"><ele>284.4</ele><time>2026-03-28T14:54:15.6Z</time></trkpt><trkpt lat="39.2495995" lon="16.9567864"><ele>282.59999999999997</ele><time>2026-03-28T14:54:16.602Z</time></trkpt><trkpt lat="39.2496966" lon="16.9568072"><ele>280.8</ele><time>2026-03-28T14:54:17.602Z</time></trkpt><trkpt lat="39.2497842" lon="16.9568397"><ele>279.0</ele><time>2026-03-28T14:54:18.601Z</time></trkpt><trkpt lat="39.2498664" lon="16.9568717"><ele>278.0</ele><time>2026-03-28T14:54:19.599Z</time></trkpt><trkpt lat="39.2499398" lon="16.9568933"><ele>277.0</ele><time>2026-03-28T14:54:20.608Z</time></trkpt><trkpt lat="39.2500109" lon="16.9569124"><ele>276.0</ele><time>2026-03-28T14:54:21.609Z</time></trkpt><trkpt lat="39.2500696" lon="16.9569601"><ele>275.0</ele><time>2026-03-28T14:54:22.602Z</time></trkpt><trkpt lat="39.2501098" lon="16.9570805"><ele>274.0</ele><time>2026-03-28T14:54:24.613Z</time></trkpt><trkpt lat="39.2500911" lon="16.9571643"><ele>273.0</ele><time>2026-03-28T14:54:25.606Z</time></trkpt><trkpt lat="39.2500298" lon="16.9572555"><ele>273.0</ele><time>2026-03-28T14:54:26.599Z</time></trkpt><trkpt lat="39.2499642" lon="16.9573409"><ele>273.0</ele><time>2026-03-28T14:54:27.602Z</time></trkpt><trkpt lat="39.2499009" lon="16.9574225"><ele>273.0</ele><time>2026-03-28T14:54:28.604Z</time></trkpt><trkpt lat="39.2498445" lon="16.9574814"><ele>273.0</ele><time>2026-03-28T14:54:29.601Z</time></trkpt><trkpt lat="39.2497828" lon="16.9575099"><ele>273.0</ele><time>2026-03-28T14:54:30.606Z</time></trkpt><trkpt lat="39.2497179" lon="16.9575379"><ele>273.0</ele><time>2026-03-28T14:54:31.601Z</time></trkpt><trkpt lat="39.249645" lon="16.9575343"><ele>273.5</ele><time>2026-03-28T14:54:32.604Z</time></trkpt><trkpt lat="39.249569" lon="16.9575127"><ele>274.0</ele><time>2026-03-28T14:54:33.603Z</time></trkpt><trkpt lat="39.2494955" lon="16.9574755"><ele>274.5</ele><time>2026-03-28T14:54:34.602Z</time></trkpt><trkpt lat="39.249424" lon="16.9574618"><ele>275.0</ele><time>2026-03-28T14:54:35.602Z</time></trkpt><trkpt lat="39.2493631" lon="16.9574878"><ele>275.5</ele><time>2026-03-28T14:54:36.616Z</time></trkpt><trkpt lat="39.2492926" lon="16.9575953"><ele>276.0</ele><time>2026-03-28T14:54:38.601Z</time></trkpt><trkpt lat="39.2492899" lon="16.957678"><ele>276.0</ele><time>2026-03-28T14:54:39.6Z</time></trkpt><trkpt lat="39.2492978" lon="16.9578444"><ele>276.0</ele><time>2026-03-28T14:54:41.603Z</time></trkpt><trkpt lat="39.249296" lon="16.957967"><ele>276.0</ele><time>2026-03-28T14:54:43.6Z</time></trkpt><trkpt lat="39.2492937" lon="16.9580662"><ele>276.0</ele><time>2026-03-28T14:54:45.607Z</time></trkpt><trkpt lat="39.2493039" lon="16.9581664"><ele>276.0</ele><time>2026-03-28T14:54:47.605Z</time></trkpt><trkpt lat="39.2493164" lon="16.9582781"><ele>274.1666666666667</ele><time>2026-03-28T14:54:49.6Z</time></trkpt><trkpt lat="39.249328" lon="16.9583709"><ele>272.3333333333333</ele><time>2026-03-28T14:54:51.611Z</time></trkpt><trkpt lat="39.2493639" lon="16.9584537"><ele>270.5</ele><time>2026-03-28T14:54:54.602Z</time></trkpt><trkpt lat="39.2494351" lon="16.9584723"><ele>268.66666666666663</ele><time>2026-03-28T14:54:56.606Z</time></trkpt><trkpt lat="39.2495325" lon="16.9584803"><ele>266.8333333333333</ele><time>2026-03-28T14:54:58.6Z</time></trkpt><trkpt lat="39.2496333" lon="16.9585206"><ele>265.0</ele><time>2026-03-28T14:55:00.6Z</time></trkpt><trkpt lat="39.2496843" lon="16.9585698"><ele>265.0</ele><time>2026-03-28T14:55:01.604Z</time></trkpt><trkpt lat="39.2497773" lon="16.9586501"><ele>265.0</ele><time>2026-03-28T14:55:03.601Z</time></trkpt><trkpt lat="39.2498885" lon="16.9586582"><ele>265.0</ele><time>2026-03-28T14:55:05.6Z</time></trkpt><trkpt lat="39.2499459" lon="16.9586183"><ele>265.0</ele><time>2026-03-28T14:55:06.6Z</time></trkpt><trkpt lat="39.25" lon="16.9585546"><ele>265.0</ele><time>2026-03-28T14:55:07.602Z</time></trkpt><trkpt lat="39.2500551" lon="16.9584747"><ele>265.0</ele><time>2026-03-28T14:55:08.606Z</time></trkpt><trkpt lat="39.2501066" lon="16.9584053"><ele>264.5</ele><time>2026-03-28T14:55:09.602Z</time></trkpt><trkpt lat="39.2501647" lon="16.9583405"><ele>264.0</ele><time>2026-03-28T14:55:10.6Z</time></trkpt><trkpt lat="39.250225" lon="16.9582585"><ele>263.5</ele><time>2026-03-28T14:55:11.601Z</time></trkpt><trkpt lat="39.2502849" lon="16.958176"><ele>263.0</ele><time>2026-03-28T14:55:12.599Z</time></trkpt><trkpt lat="39.250325" lon="16.9580846"><ele>262.5</ele><time>2026-03-28T14:55:13.601Z</time></trkpt><trkpt lat="39.2503615" lon="16.957996"><ele>262.0</ele><time>2026-03-28T14:55:14.6Z</time></trkpt><trkpt lat="39.2504013" lon="16.9579057"><ele>262.0</ele><time>2026-03-28T14:55:15.6Z</time></trkpt><trkpt lat="39.2504434" lon="16.9578077"><ele>262.0</ele><time>2026-03-28T14:55:16.602Z</time></trkpt><trkpt lat="39.2504831" lon="16.9577037"><ele>262.0</ele><time>2026-03-28T14:55:17.601Z</time></trkpt><trkpt lat="39.2505135" lon="16.9576148"><ele>262.0</ele><time>2026-03-28T14:55:18.601Z</time></trkpt><trkpt lat="39.2505333" lon="16.957523"><ele>262.0</ele><time>2026-03-28T14:55:19.596Z</time></trkpt><trkpt lat="39.2505483" lon="16.9574327"><ele>262.0</ele><time>2026-03-28T14:55:20.599Z</time></trkpt><trkpt lat="39.2505636" lon="16.9573356"><ele>261.8</ele><time>2026-03-28T14:55:21.601Z</time></trkpt><trkpt lat="39.2505884" lon="16.957248"><ele>261.6</ele><time>2026-03-28T14:55:22.606Z</time></trkpt><trkpt lat="39.2506315" lon="16.9571757"><ele>261.40000000000003</ele><time>2026-03-28T14:55:23.598Z</time></trkpt><trkpt lat="39.2506973" lon="16.9571198"><ele>261.2</ele><time>2026-03-28T14:55:24.598Z</time></trkpt><trkpt lat="39.2508105" lon="16.9570781"><ele>261.0</ele><time>2026-03-28T14:55:25.598Z</time></trkpt><trkpt lat="39.2509205" lon="16.9570298"><ele>261.0</ele><time>2026-03-28T14:55:26.606Z</time></trkpt><trkpt lat="39.2510166" lon="16.9569804"><ele>261.0</ele><time>2026-03-28T14:55:27.597Z</time></trkpt><trkpt lat="39.251102" lon="16.9569318"><ele>261.0</ele><time>2026-03-28T14:55:28.598Z</time></trkpt><trkpt lat="39.2511834" lon="16.9568797"><ele>261.0</ele><time>2026-03-28T14:55:29.603Z</time></trkpt><trkpt lat="39.2512648" lon="16.9568383"><ele>261.0</ele><time>2026-03-28T14:55:30.597Z</time></trkpt><trkpt lat="39.2513415" lon="16.9568047"><ele>261.0</ele><time>2026-03-28T14:55:31.598Z</time></trkpt><trkpt lat="39.2514293" lon="16.9567425"><ele>261.0</ele><time>2026-03-28T14:55:32.599Z</time></trkpt><trkpt lat="39.2515388" lon="16.9566438"><ele>261.0</ele><time>2026-03-28T14:55:33.598Z</time></trkpt><trkpt lat="39.2516658" lon="16.9565267"><ele>261.0</ele><time>2026-03-28T14:55:34.597Z</time></trkpt><trkpt lat="39.251784" lon="16.9564219"><ele>262.40000000000003</ele><time>2026-03-28T14:55:35.6Z</time></trkpt><trkpt lat="39.2518808" lon="16.9563353"><ele>263.8</ele><time>2026-03-28T14:55:36.603Z</time></trkpt><trkpt lat="39.2519719" lon="16.956253"><ele>265.20000000000005</ele><time>2026-03-28T14:55:37.605Z</time></trkpt><trkpt lat="39.2520239" lon="16.9562017"><ele>266.6</ele><time>2026-03-28T14:55:38.598Z</time></trkpt><trkpt lat="39.2521158" lon="16.9561115"><ele>268.0</ele><time>2026-03-28T14:55:40.602Z</time></trkpt><trkpt lat="39.2521669" lon="16.9560531"><ele>268.0</ele><time>2026-03-28T14:55:41.595Z</time></trkpt><trkpt lat="39.2522267" lon="16.955951"><ele>268.0</ele><time>2026-03-28T14:55:43.598Z</time></trkpt><trkpt lat="39.2522802" lon="16.9558828"><ele>268.0</ele><time>2026-03-28T14:55:45.602Z</time></trkpt><trkpt lat="39.2523307" lon="16.955819"><ele>268.0</ele><time>2026-03-28T14:55:47.603Z</time></trkpt><trkpt lat="39.2523604" lon="16.9557178"><ele>268.0</ele><time>2026-03-28T14:55:49.601Z</time></trkpt><trkpt lat="39.2523688" lon="16.9555887"><ele>268.0</ele><time>2026-03-28T14:55:51.605Z</time></trkpt><trkpt lat="39.2523763" lon="16.9554599"><ele>267.2</ele><time>2026-03-28T14:55:53.61Z</time></trkpt><trkpt lat="39.2523799" lon="16.9553413"><ele>266.4</ele><time>2026-03-28T14:55:55.601Z</time></trkpt><trkpt lat="39.252381" lon="16.9552345"><ele>265.59999999999997</ele><time>2026-03-28T14:55:57.606Z</time></trkpt><trkpt lat="39.252383" lon="16.9551354"><ele>264.8</ele><time>2026-03-28T14:55:59.602Z</time></trkpt><trkpt lat="39.2523781" lon="16.9550051"><ele>264.0</ele><time>2026-03-28T14:56:01.603Z</time></trkpt><trkpt lat="39.25236" lon="16.9548766"><ele>263.8333333333333</ele><time>2026-03-28T14:56:03.604Z</time></trkpt><trkpt lat="39.2523404" lon="16.9547617"><ele>263.6666666666667</ele><time>2026-03-28T14:56:05.601Z</time></trkpt><trkpt lat="39.2523281" lon="16.9546736"><ele>263.5</ele><time>2026-03-28T14:56:06.602Z</time></trkpt><trkpt lat="39.2523326" lon="16.954568"><ele>263.33333333333337</ele><time>2026-03-28T14:56:07.601Z</time></trkpt><trkpt lat="39.2523662" lon="16.9544785"><ele>263.1666666666667</ele><time>2026-03-28T14:56:08.599Z</time></trkpt><trkpt lat="39.252431" lon="16.9544059"><ele>263.0</ele><time>2026-03-28T14:56:09.6Z</time></trkpt><trkpt lat="39.2525068" lon="16.9543225"><ele>263.0</ele><time>2026-03-28T14:56:10.602Z</time></trkpt><trkpt lat="39.2525708" lon="16.9542294"><ele>263.0</ele><time>2026-03-28T14:56:11.602Z</time></trkpt><trkpt lat="39.2526208" lon="16.954124"><ele>263.0</ele><time>2026-03-28T14:56:12.596Z</time></trkpt><trkpt lat="39.2526443" lon="16.954011"><ele>263.0</ele><time>2026-03-28T14:56:13.601Z</time></trkpt><trkpt lat="39.2526667" lon="16.9539012"><ele>263.0</ele><time>2026-03-28T14:56:14.604Z</time></trkpt><trkpt lat="39.2526638" lon="16.9537857"><ele>262.0</ele><time>2026-03-28T14:56:15.6Z</time></trkpt><trkpt lat="39.2526544" lon="16.9536539"><ele>261.0</ele><time>2026-03-28T14:56:16.596Z</time></trkpt><trkpt lat="39.2526397" lon="16.9535316"><ele>260.0</ele><time>2026-03-28T14:56:17.6Z</time></trkpt><trkpt lat="39.2526224" lon="16.9534185"><ele>259.0</ele><time>2026-03-28T14:56:18.597Z</time></trkpt><trkpt lat="39.2526228" lon="16.9533151"><ele>258.0</ele><time>2026-03-28T14:56:19.599Z</time></trkpt><trkpt lat="39.2526467" lon="16.9532158"><ele>257.0</ele><time>2026-03-28T14:56:20.6Z</time></trkpt><trkpt lat="39.252679" lon="16.9531274"><ele>256.0</ele><time>2026-03-28T14:56:21.595Z</time></trkpt><trkpt lat="39.2527016" lon="16.9530426"><ele>255.0</ele><time>2026-03-28T14:56:22.598Z</time></trkpt><trkpt lat="39.252715" lon="16.9529549"><ele>254.0</ele><time>2026-03-28T14:56:23.6Z</time></trkpt><trkpt lat="39.2527217" lon="16.9528554"><ele>253.0</ele><time>2026-03-28T14:56:24.601Z</time></trkpt><trkpt lat="39.2527255" lon="16.9527501"><ele>252.00000000000003</ele><time>2026-03-28T14:56:25.6Z</time></trkpt><trkpt lat="39.2527365" lon="16.9526414"><ele>251.0</ele><time>2026-03-28T14:56:26.602Z</time></trkpt><trkpt lat="39.2527516" lon="16.9525323"><ele>249.20000000000002</ele><time>2026-03-28T14:56:27.597Z</time></trkpt><trkpt lat="39.2527662" lon="16.9524266"><ele>247.40000000000003</ele><time>2026-03-28T14:56:28.597Z</time></trkpt><trkpt lat="39.2527662" lon="16.9523248"><ele>245.6</ele><time>2026-03-28T14:56:29.595Z</time></trkpt><trkpt lat="39.2527544" lon="16.9522312"><ele>243.8</ele><time>2026-03-28T14:56:30.6Z</time></trkpt><trkpt lat="39.2527724" lon="16.9520887"><ele>242.0</ele><time>2026-03-28T14:56:32.598Z</time></trkpt><trkpt lat="39.2528676" lon="16.9520359"><ele>242.00000000000003</ele><time>2026-03-28T14:56:34.601Z</time></trkpt><trkpt lat="39.2529509" lon="16.9520427"><ele>242.0</ele><time>2026-03-28T14:56:35.602Z</time></trkpt><trkpt lat="39.2530481" lon="16.952043"><ele>242.0</ele><time>2026-03-28T14:56:36.598Z</time></trkpt><trkpt lat="39.2531432" lon="16.9520372"><ele>242.0</ele><time>2026-03-28T14:56:37.597Z</time></trkpt><trkpt lat="39.2532283" lon="16.952028"><ele>242.00000000000003</ele><time>2026-03-28T14:56:38.598Z</time></trkpt><trkpt lat="39.2533047" lon="16.9520116"><ele>242.0</ele><time>2026-03-28T14:56:39.6Z</time></trkpt><trkpt lat="39.2533685" lon="16.9519824"><ele>239.2</ele><time>2026-03-28T14:56:40.605Z</time></trkpt><trkpt lat="39.2534492" lon="16.9518631"><ele>236.39999999999998</ele><time>2026-03-28T14:56:42.608Z</time></trkpt><trkpt lat="39.2534755" lon="16.9517802"><ele>233.60000000000002</ele><time>2026-03-28T14:56:43.602Z</time></trkpt><trkpt lat="39.253505" lon="16.951684"><ele>230.8</ele><time>2026-03-28T14:56:44.598Z</time></trkpt><trkpt lat="39.2535511" lon="16.9515684"><ele>228.0</ele><time>2026-03-28T14:56:45.606Z</time></trkpt><trkpt lat="39.253611" lon="16.9514659"><ele>228.0</ele><time>2026-03-28T14:56:46.6Z</time></trkpt><trkpt lat="39.2536786" lon="16.9513917"><ele>228.0</ele><time>2026-03-28T14:56:47.603Z</time></trkpt><trkpt lat="39.2537538" lon="16.9513616"><ele>228.0</ele><time>2026-03-28T14:56:48.601Z</time></trkpt><trkpt lat="39.2538276" lon="16.9513354"><ele>228.0</ele><time>2026-03-28T14:56:49.604Z</time></trkpt><trkpt lat="39.25391" lon="16.9513462"><ele>228.0</ele><time>2026-03-28T14:56:50.607Z</time></trkpt><trkpt lat="39.2539936" lon="16.9513274"><ele>228.0</ele><time>2026-03-28T14:56:51.599Z</time></trkpt><trkpt lat="39.2540759" lon="16.9513176"><ele>226.16666666666666</ele><time>2026-03-28T14:56:52.602Z</time></trkpt><trkpt lat="39.2541501" lon="16.95134"><ele>224.33333333333331</ele><time>2026-03-28T14:56:53.609Z</time></trkpt><trkpt lat="39.2542239" lon="16.9513884"><ele>222.5</ele><time>2026-03-28T14:56:54.609Z</time></trkpt><trkpt lat="39.2542923" lon="16.9514556"><ele>220.66666666666666</ele><time>2026-03-28T14:56:55.604Z</time></trkpt><trkpt lat="39.2543541" lon="16.9515235"><ele>218.83333333333331</ele><time>2026-03-28T14:56:56.607Z</time></trkpt><trkpt lat="39.2544138" lon="16.9515683"><ele>217.0</ele><time>2026-03-28T14:56:57.603Z</time></trkpt><trkpt lat="39.254518" lon="16.9515747"><ele>216.99999999999997</ele><time>2026-03-28T14:56:59.604Z</time></trkpt><trkpt lat="39.2545822" lon="16.9515584"><ele>217.0</ele><time>2026-03-28T14:57:00.604Z</time></trkpt><trkpt lat="39.2546458" lon="16.951551"><ele>217.0</ele><time>2026-03-28T14:57:01.602Z</time></trkpt><trkpt lat="39.2547409" lon="16.951588"><ele>217.0</ele><time>2026-03-28T14:57:03.603Z</time></trkpt><trkpt lat="39.2547993" lon="16.9516556"><ele>216.99999999999997</ele><time>2026-03-28T14:57:05.603Z</time></trkpt><trkpt lat="39.2547793" lon="16.9517991"><ele>217.0</ele><time>2026-03-28T14:57:07.6Z</time></trkpt><trkpt lat="39.2547349" lon="16.9519485"><ele>215.99999999999997</ele><time>2026-03-28T14:57:09.597Z</time></trkpt><trkpt lat="39.2547295" lon="16.952031"><ele>215.0</ele><time>2026-03-28T14:57:10.599Z</time></trkpt><trkpt lat="39.2547599" lon="16.9521864"><ele>214.0</ele><time>2026-03-28T14:57:12.599Z</time></trkpt><trkpt lat="39.2548246" lon="16.9522472"><ele>213.0</ele><time>2026-03-28T14:57:13.597Z</time></trkpt><trkpt lat="39.2548857" lon="16.9523032"><ele>211.99999999999997</ele><time>2026-03-28T14:57:14.602Z</time></trkpt><trkpt lat="39.2549445" lon="16.9523573"><ele>211.0</ele><time>2026-03-28T14:57:15.599Z</time></trkpt><trkpt lat="39.254998" lon="16.952413"><ele>211.0</ele><time>2026-03-28T14:57:16.596Z</time></trkpt><trkpt lat="39.2550479" lon="16.9524677"><ele>211.0</ele><time>2026-03-28T14:57:17.603Z</time></trkpt><trkpt lat="39.2551393" lon="16.9525543"><ele>211.0</ele><time>2026-03-28T14:57:19.598Z</time></trkpt><trkpt lat="39.2552268" lon="16.9526109"><ele>211.0</ele><time>2026-03-28T14:57:21.603Z</time></trkpt><trkpt lat="39.2553066" lon="16.9526516"><ele>211.0</ele><time>2026-03-28T14:57:23.602Z</time></trkpt><trkpt lat="39.2553909" lon="16.9526807"><ele>209.8</ele><time>2026-03-28T14:57:25.61Z</time></trkpt><trkpt lat="39.255474" lon="16.9526976"><ele>208.60000000000002</ele><time>2026-03-28T14:57:27.598Z</time></trkpt><trkpt lat="39.2555977" lon="16.9527017"><ele>207.4</ele><time>2026-03-28T14:57:29.606Z</time></trkpt><trkpt lat="39.2556757" lon="16.9527069"><ele>206.2</ele><time>2026-03-28T14:57:30.616Z</time></trkpt><trkpt lat="39.2557642" lon="16.9527144"><ele>205.0</ele><time>2026-03-28T14:57:31.607Z</time></trkpt><trkpt lat="39.2558427" lon="16.9527196"><ele>204.99999999999997</ele><time>2026-03-28T14:57:32.6Z</time></trkpt><trkpt lat="39.2559175" lon="16.9527214"><ele>205.0</ele><time>2026-03-28T14:57:33.605Z</time></trkpt><trkpt lat="39.2559891" lon="16.9527098"><ele>205.0</ele><time>2026-03-28T14:57:34.603Z</time></trkpt><trkpt lat="39.2560576" lon="16.9526818"><ele>205.0</ele><time>2026-03-28T14:57:35.6Z</time></trkpt><trkpt lat="39.2561297" lon="16.9526476"><ele>204.99999999999997</ele><time>2026-03-28T14:57:36.6Z</time></trkpt><trkpt lat="39.2562065" lon="16.952604"><ele>205.0</ele><time>2026-03-28T14:57:37.611Z</time></trkpt><trkpt lat="39.2562841" lon="16.9525641"><ele>205.83333333333331</ele><time>2026-03-28T14:57:38.606Z</time></trkpt><trkpt lat="39.2563598" lon="16.9525224"><ele>206.66666666666666</ele><time>2026-03-28T14:57:39.62Z</time></trkpt><trkpt lat="39.2564315" lon="16.9524771"><ele>207.5</ele><time>2026-03-28T14:57:40.605Z</time></trkpt><trkpt lat="39.2564969" lon="16.9524277"><ele>208.33333333333331</ele><time>2026-03-28T14:57:41.602Z</time></trkpt><trkpt lat="39.2565639" lon="16.9523755"><ele>209.16666666666666</ele><time>2026-03-28T14:57:42.612Z</time></trkpt><trkpt lat="39.2566323" lon="16.9523195"><ele>210.0</ele><time>2026-03-28T14:57:43.606Z</time></trkpt><trkpt lat="39.2566999" lon="16.9522716"><ele>207.8</ele><time>2026-03-28T14:57:44.6Z</time></trkpt><trkpt lat="39.2567984" lon="16.952206"><ele>205.6</ele><time>2026-03-28T14:57:46.611Z</time></trkpt><trkpt lat="39.2568732" lon="16.9521817"><ele>203.39999999999998</ele><time>2026-03-28T14:57:48.606Z</time></trkpt><trkpt lat="39.256939" lon="16.952219"><ele>201.2</ele><time>2026-03-28T14:57:51.616Z</time></trkpt><trkpt lat="39.2569775" lon="16.9523174"><ele>199.0</ele><time>2026-03-28T14:57:53.609Z</time></trkpt><trkpt lat="39.2570147" lon="16.9524673"><ele>198.99999999999997</ele><time>2026-03-28T14:57:55.612Z</time></trkpt><trkpt lat="39.2570346" lon="16.9525477"><ele>199.0</ele><time>2026-03-28T14:57:56.604Z</time></trkpt><trkpt lat="39.2570606" lon="16.9526443"><ele>199.0</ele><time>2026-03-28T14:57:57.613Z</time></trkpt><trkpt lat="39.2570782" lon="16.9527426"><ele>199.0</ele><time>2026-03-28T14:57:58.603Z</time></trkpt><trkpt lat="39.2570823" lon="16.9528362"><ele>199.0</ele><time>2026-03-28T14:57:59.614Z</time></trkpt><trkpt lat="39.2570768" lon="16.9529298"><ele>198.99999999999997</ele><time>2026-03-28T14:58:00.617Z</time></trkpt><trkpt lat="39.2570688" lon="16.9530271"><ele>199.0</ele><time>2026-03-28T14:58:01.609Z</time></trkpt><trkpt lat="39.2570592" lon="16.9531151"><ele>198.99999999999997</ele><time>2026-03-28T14:58:02.612Z</time></trkpt><trkpt lat="39.2570491" lon="16.9532037"><ele>199.0</ele><time>2026-03-28T14:58:03.612Z</time></trkpt><trkpt lat="39.2570348" lon="16.9532864"><ele>199.0</ele><time>2026-03-28T14:58:04.612Z</time></trkpt><trkpt lat="39.2570157" lon="16.9534313"><ele>199.0</ele><time>2026-03-28T14:58:06.615Z</time></trkpt><trkpt lat="39.2569972" lon="16.9535806"><ele>198.99999999999997</ele><time>2026-03-28T14:58:08.609Z</time></trkpt><trkpt lat="39.257002" lon="16.9536629"><ele>199.0</ele><time>2026-03-28T14:58:09.608Z</time></trkpt><trkpt lat="39.2570271" lon="16.9537425"><ele>197.83333333333331</ele><time>2026-03-28T14:58:10.607Z</time></trkpt><trkpt lat="39.257073" lon="16.9538055"><ele>196.66666666666666</ele><time>2026-03-28T14:58:11.613Z</time></trkpt><trkpt lat="39.2571339" lon="16.9538561"><ele>195.5</ele><time>2026-03-28T14:58:12.609Z</time></trkpt><trkpt lat="39.2572048" lon="16.9539107"><ele>194.33333333333331</ele><time>2026-03-28T14:58:13.617Z</time></trkpt><trkpt lat="39.2572797" lon="16.9539732"><ele>193.16666666666666</ele><time>2026-03-28T14:58:14.609Z</time></trkpt><trkpt lat="39.2573548" lon="16.9540441"><ele>192.0</ele><time>2026-03-28T14:58:15.612Z</time></trkpt><trkpt lat="39.2574235" lon="16.9541115"><ele>190.83333333333334</ele><time>2026-03-28T14:58:16.615Z</time></trkpt><trkpt lat="39.2574863" lon="16.9541721"><ele>189.66666666666666</ele><time>2026-03-28T14:58:17.619Z</time></trkpt><trkpt lat="39.2575496" lon="16.9542103"><ele>188.5</ele><time>2026-03-28T14:58:18.618Z</time></trkpt><trkpt lat="39.2576119" lon="16.9542356"><ele>187.33333333333331</ele><time>2026-03-28T14:58:19.605Z</time></trkpt><trkpt lat="39.257675" lon="16.95425"><ele>186.16666666666666</ele><time>2026-03-28T14:58:20.613Z</time></trkpt><trkpt lat="39.2577375" lon="16.9542624"><ele>185.0</ele><time>2026-03-28T14:58:21.614Z</time></trkpt><trkpt lat="39.2578551" lon="16.9542876"><ele>183.83333333333331</ele><time>2026-03-28T14:58:23.609Z</time></trkpt><trkpt lat="39.2579623" lon="16.9543268"><ele>182.66666666666666</ele><time>2026-03-28T14:58:25.612Z</time></trkpt><trkpt lat="39.2580249" lon="16.954354"><ele>181.5</ele><time>2026-03-28T14:58:26.611Z</time></trkpt><trkpt lat="39.2580989" lon="16.9543884"><ele>180.33333333333334</ele><time>2026-03-28T14:58:27.614Z</time></trkpt><trkpt lat="39.2581797" lon="16.9544336"><ele>179.16666666666669</ele><time>2026-03-28T14:58:28.611Z</time></trkpt><trkpt lat="39.2582561" lon="16.9544964"><ele>178.0</ele><time>2026-03-28T14:58:29.61Z</time></trkpt><trkpt lat="39.2583228" lon="16.9545729"><ele>176.4</ele><time>2026-03-28T14:58:30.613Z</time></trkpt><trkpt lat="39.2583961" lon="16.9546373"><ele>174.8</ele><time>2026-03-28T14:58:31.618Z</time></trkpt><trkpt lat="39.2584828" lon="16.9546945"><ele>173.2</ele><time>2026-03-28T14:58:32.606Z</time></trkpt><trkpt lat="39.2585747" lon="16.9547558"><ele>171.6</ele><time>2026-03-28T14:58:33.613Z</time></trkpt><trkpt lat="39.2586653" lon="16.95482"><ele>170.0</ele><time>2026-03-28T14:58:34.621Z</time></trkpt><trkpt lat="39.2587533" lon="16.9548808"><ele>170.0</ele><time>2026-03-28T14:58:35.61Z</time></trkpt><trkpt lat="39.2588403" lon="16.9549362"><ele>170.0</ele><time>2026-03-28T14:58:36.605Z</time></trkpt><trkpt lat="39.2589241" lon="16.9549867"><ele>170.0</ele><time>2026-03-28T14:58:37.621Z</time></trkpt><trkpt lat="39.2590074" lon="16.9550286"><ele>170.0</ele><time>2026-03-28T14:58:38.615Z</time></trkpt><trkpt lat="39.2590966" lon="16.9550689"><ele>170.0</ele><time>2026-03-28T14:58:39.606Z</time></trkpt><trkpt lat="39.2591852" lon="16.9551049"><ele>168.5</ele><time>2026-03-28T14:58:40.614Z</time></trkpt><trkpt lat="39.2592706" lon="16.9551416"><ele>167.0</ele><time>2026-03-28T14:58:41.614Z</time></trkpt><trkpt lat="39.2593505" lon="16.955176"><ele>165.5</ele><time>2026-03-28T14:58:42.61Z</time></trkpt><trkpt lat="39.2594249" lon="16.9552083"><ele>164.0</ele><time>2026-03-28T14:58:43.604Z</time></trkpt><trkpt lat="39.2594981" lon="16.9552264"><ele>162.5</ele><time>2026-03-28T14:58:44.609Z</time></trkpt><trkpt lat="39.2595747" lon="16.9552175"><ele>161.0</ele><time>2026-03-28T14:58:45.611Z</time></trkpt><trkpt lat="39.2596586" lon="16.9551766"><ele>161.0</ele><time>2026-03-28T14:58:46.6Z</time></trkpt><trkpt lat="39.2597477" lon="16.9551152"><ele>161.0</ele><time>2026-03-28T14:58:47.62Z</time></trkpt><trkpt lat="39.2598305" lon="16.9550639"><ele>161.0</ele><time>2026-03-28T14:58:48.611Z</time></trkpt><trkpt lat="39.2599074" lon="16.9550268"><ele>161.0</ele><time>2026-03-28T14:58:49.605Z</time></trkpt><trkpt lat="39.2599808" lon="16.9550128"><ele>161.0</ele><time>2026-03-28T14:58:50.615Z</time></trkpt><trkpt lat="39.2600472" lon="16.9550274"><ele>161.0</ele><time>2026-03-28T14:58:51.612Z</time></trkpt><trkpt lat="39.2601137" lon="16.9550692"><ele>159.20000000000002</ele><time>2026-03-28T14:58:52.604Z</time></trkpt><trkpt lat="39.2601859" lon="16.9551388"><ele>157.4</ele><time>2026-03-28T14:58:53.605Z</time></trkpt><trkpt lat="39.26026" lon="16.95521"><ele>155.6</ele><time>2026-03-28T14:58:54.616Z</time></trkpt><trkpt lat="39.2603384" lon="16.9552717"><ele>153.8</ele><time>2026-03-28T14:58:55.613Z</time></trkpt><trkpt lat="39.2604268" lon="16.9553362"><ele>152.0</ele><time>2026-03-28T14:58:56.609Z</time></trkpt><trkpt lat="39.2605133" lon="16.9554025"><ele>152.0</ele><time>2026-03-28T14:58:57.607Z</time></trkpt><trkpt lat="39.2605961" lon="16.9554667"><ele>152.0</ele><time>2026-03-28T14:58:58.61Z</time></trkpt><trkpt lat="39.2606762" lon="16.9555295"><ele>152.0</ele><time>2026-03-28T14:58:59.621Z</time></trkpt><trkpt lat="39.2607575" lon="16.9555914"><ele>152.0</ele><time>2026-03-28T14:59:00.611Z</time></trkpt><trkpt lat="39.2608439" lon="16.9556465"><ele>152.0</ele><time>2026-03-28T14:59:01.613Z</time></trkpt><trkpt lat="39.2609299" lon="16.9557119"><ele>150.2</ele><time>2026-03-28T14:59:02.611Z</time></trkpt><trkpt lat="39.2610055" lon="16.9557848"><ele>148.39999999999998</ele><time>2026-03-28T14:59:03.617Z</time></trkpt><trkpt lat="39.2610738" lon="16.955865"><ele>146.60000000000002</ele><time>2026-03-28T14:59:04.611Z</time></trkpt><trkpt lat="39.2611426" lon="16.9559468"><ele>144.8</ele><time>2026-03-28T14:59:05.62Z</time></trkpt><trkpt lat="39.2612092" lon="16.9560275"><ele>143.0</ele><time>2026-03-28T14:59:06.615Z</time></trkpt><trkpt lat="39.2612705" lon="16.9561074"><ele>142.8</ele><time>2026-03-28T14:59:07.616Z</time></trkpt><trkpt lat="39.2613198" lon="16.9561788"><ele>142.60000000000002</ele><time>2026-03-28T14:59:08.609Z</time></trkpt><trkpt lat="39.2613912" lon="16.9563056"><ele>142.39999999999998</ele><time>2026-03-28T14:59:10.613Z</time></trkpt><trkpt lat="39.2614205" lon="16.9563841"><ele>142.2</ele><time>2026-03-28T14:59:11.618Z</time></trkpt><trkpt lat="39.2614401" lon="16.9564637"><ele>142.0</ele><time>2026-03-28T14:59:12.611Z</time></trkpt><trkpt lat="39.2614542" lon="16.9566271"><ele>139.83333333333334</ele><time>2026-03-28T14:59:14.611Z</time></trkpt><trkpt lat="39.2615303" lon="16.9567338"><ele>137.66666666666669</ele><time>2026-03-28T14:59:16.609Z</time></trkpt><trkpt lat="39.2615957" lon="16.956739"><ele>135.5</ele><time>2026-03-28T14:59:17.613Z</time></trkpt><trkpt lat="39.2616771" lon="16.9567346"><ele>133.33333333333334</ele><time>2026-03-28T14:59:18.611Z</time></trkpt><trkpt lat="39.26177" lon="16.9567242"><ele>131.16666666666666</ele><time>2026-03-28T14:59:19.618Z</time></trkpt><trkpt lat="39.2618625" lon="16.9567152"><ele>129.0</ele><time>2026-03-28T14:59:20.609Z</time></trkpt><trkpt lat="39.2619574" lon="16.9567164"><ele>129.0</ele><time>2026-03-28T14:59:21.605Z</time></trkpt><trkpt lat="39.262052" lon="16.9567173"><ele>129.0</ele><time>2026-03-28T14:59:22.613Z</time></trkpt><trkpt lat="39.2621359" lon="16.9567443"><ele>129.0</ele><time>2026-03-28T14:59:23.613Z</time></trkpt><trkpt lat="39.2622102" lon="16.956773"><ele>129.0</ele><time>2026-03-28T14:59:24.606Z</time></trkpt><trkpt lat="39.2622737" lon="16.9568313"><ele>129.0</ele><time>2026-03-28T14:59:25.619Z</time></trkpt><trkpt lat="39.2623378" lon="16.9568956"><ele>129.0</ele><time>2026-03-28T14:59:26.606Z</time></trkpt><trkpt lat="39.2623639" lon="16.956992"><ele>127.80000000000001</ele><time>2026-03-28T14:59:27.602Z</time></trkpt><trkpt lat="39.262383" lon="16.9570738"><ele>126.60000000000001</ele><time>2026-03-28T14:59:28.609Z</time></trkpt><trkpt lat="39.2624267" lon="16.9571954"><ele>125.4</ele><time>2026-03-28T14:59:30.612Z</time></trkpt><trkpt lat="39.2625238" lon="16.9573019"><ele>124.2</ele><time>2026-03-28T14:59:32.607Z</time></trkpt><trkpt lat="39.2625926" lon="16.9573509"><ele>123.0</ele><time>2026-03-28T14:59:33.613Z</time></trkpt><trkpt lat="39.262659" lon="16.9573993"><ele>123.0</ele><time>2026-03-28T14:59:34.607Z</time></trkpt><trkpt lat="39.2627218" lon="16.9574426"><ele>123.0</ele><time>2026-03-28T14:59:35.616Z</time></trkpt><trkpt lat="39.2627793" lon="16.9574861"><ele>123.0</ele><time>2026-03-28T14:59:36.61Z</time></trkpt><trkpt lat="39.2628888" lon="16.9575678"><ele>123.0</ele><time>2026-03-28T14:59:38.608Z</time></trkpt><trkpt lat="39.2629502" lon="16.9576248"><ele>123.0</ele><time>2026-03-28T14:59:39.613Z</time></trkpt><trkpt lat="39.2630099" lon="16.9576917"><ele>123.0</ele><time>2026-03-28T14:59:40.617Z</time></trkpt><trkpt lat="39.2630648" lon="16.9577519"><ele>122.0</ele><time>2026-03-28T14:59:41.624Z</time></trkpt><trkpt lat="39.2631198" lon="16.9578055"><ele>121.0</ele><time>2026-03-28T14:59:42.616Z</time></trkpt><trkpt lat="39.263194" lon="16.9578436"><ele>120.0</ele><time>2026-03-28T14:59:43.615Z</time></trkpt><trkpt lat="39.2632695" lon="16.9578644"><ele>119.0</ele><time>2026-03-28T14:59:44.615Z</time></trkpt><trkpt lat="39.2633505" lon="16.9578826"><ele>118.0</ele><time>2026-03-28T14:59:45.617Z</time></trkpt><trkpt lat="39.2634314" lon="16.957904"><ele>117.0</ele><time>2026-03-28T14:59:46.622Z</time></trkpt><trkpt lat="39.2635056" lon="16.9579279"><ele>117.0</ele><time>2026-03-28T14:59:47.609Z</time></trkpt><trkpt lat="39.2635641" lon="16.9579736"><ele>117.0</ele><time>2026-03-28T14:59:48.605Z</time></trkpt><trkpt lat="39.2636255" lon="16.958021"><ele>117.0</ele><time>2026-03-28T14:59:49.615Z</time></trkpt><trkpt lat="39.2637318" lon="16.9580937"><ele>117.0</ele><time>2026-03-28T14:59:51.604Z</time></trkpt><trkpt lat="39.2637995" lon="16.9581401"><ele>117.0</ele><time>2026-03-28T14:59:52.615Z</time></trkpt><trkpt lat="39.2638673" lon="16.95819"><ele>117.0</ele><time>2026-03-28T14:59:53.622Z</time></trkpt><trkpt lat="39.2639382" lon="16.9582463"><ele>116.39999999999999</ele><time>2026-03-28T14:59:54.615Z</time></trkpt><trkpt lat="39.264007" lon="16.9582976"><ele>115.79999999999998</ele><time>2026-03-28T14:59:55.629Z</time></trkpt><trkpt lat="39.2640791" lon="16.958346"><ele>115.2</ele><time>2026-03-28T14:59:56.613Z</time></trkpt><trkpt lat="39.2641708" lon="16.9584008"><ele>114.6</ele><time>2026-03-28T14:59:57.622Z</time></trkpt><trkpt lat="39.2642627" lon="16.9584562"><ele>114.0</ele><time>2026-03-28T14:59:58.62Z</time></trkpt><trkpt lat="39.2643513" lon="16.9585077"><ele>114.0</ele><time>2026-03-28T14:59:59.613Z</time></trkpt><trkpt lat="39.264427" lon="16.9585481"><ele>113.99999999999999</ele><time>2026-03-28T15:00:00.614Z</time></trkpt><trkpt lat="39.2644986" lon="16.9585779"><ele>114.0</ele><time>2026-03-28T15:00:01.62Z</time></trkpt><trkpt lat="39.2645617" lon="16.9586048"><ele>114.0</ele><time>2026-03-28T15:00:02.608Z</time></trkpt><trkpt lat="39.26463" lon="16.9586292"><ele>113.99999999999999</ele><time>2026-03-28T15:00:03.605Z</time></trkpt><trkpt lat="39.264692" lon="16.9586575"><ele>114.0</ele><time>2026-03-28T15:00:04.622Z</time></trkpt><trkpt lat="39.2647734" lon="16.9586961"><ele>114.0</ele><time>2026-03-28T15:00:06.609Z</time></trkpt><trkpt lat="39.2648553" lon="16.95874"><ele>113.16666666666667</ele><time>2026-03-28T15:00:09.636Z</time></trkpt><trkpt lat="39.2649273" lon="16.9587777"><ele>112.33333333333334</ele><time>2026-03-28T15:00:11.609Z</time></trkpt><trkpt lat="39.2650273" lon="16.9588317"><ele>111.5</ele><time>2026-03-28T15:00:13.627Z</time></trkpt><trkpt lat="39.2651176" lon="16.9588682"><ele>110.66666666666667</ele><time>2026-03-28T15:00:15.627Z</time></trkpt><trkpt lat="39.2651889" lon="16.9588776"><ele>109.83333333333334</ele><time>2026-03-28T15:00:17.626Z</time></trkpt><trkpt lat="39.2652567" lon="16.9588876"><ele>109.0</ele><time>2026-03-28T15:00:20.623Z</time></trkpt><trkpt lat="39.265329" lon="16.9589329"><ele>109.00000000000001</ele><time>2026-03-28T15:00:26.612Z</time></trkpt><trkpt lat="39.2653849" lon="16.9589743"><ele>109.0</ele><time>2026-03-28T15:00:31.623Z</time></trkpt><trkpt lat="39.2654588" lon="16.9590578"><ele>109.0</ele><time>2026-03-28T15:00:34.622Z</time></trkpt><trkpt lat="39.2655049" lon="16.9591206"><ele>109.0</ele><time>2026-03-28T15:00:36.61Z</time></trkpt><trkpt lat="39.2655985" lon="16.9591688"><ele>109.00000000000001</ele><time>2026-03-28T15:00:39.622Z</time></trkpt><trkpt lat="39.2656915" lon="16.9592022"><ele>109.0</ele><time>2026-03-28T15:00:41.628Z</time></trkpt><trkpt lat="39.2657494" lon="16.9592373"><ele>109.50000000000001</ele><time>2026-03-28T15:00:42.625Z</time></trkpt><trkpt lat="39.2658057" lon="16.9592838"><ele>110.0</ele><time>2026-03-28T15:00:43.618Z</time></trkpt><trkpt lat="39.2658988" lon="16.959367"><ele>110.5</ele><time>2026-03-28T15:00:45.624Z</time></trkpt><trkpt lat="39.2659917" lon="16.959448"><ele>111.0</ele><time>2026-03-28T15:00:47.632Z</time></trkpt><trkpt lat="39.2660686" lon="16.9595123"><ele>111.50000000000001</ele><time>2026-03-28T15:00:49.612Z</time></trkpt><trkpt lat="39.2661247" lon="16.9595547"><ele>112.0</ele><time>2026-03-28T15:00:51.62Z</time></trkpt><trkpt lat="39.2661954" lon="16.9595919"><ele>112.0</ele><time>2026-03-28T15:00:53.639Z</time></trkpt><trkpt lat="39.2662714" lon="16.9596563"><ele>111.99999999999999</ele><time>2026-03-28T15:00:55.619Z</time></trkpt><trkpt lat="39.2663505" lon="16.9597225"><ele>111.99999999999999</ele><time>2026-03-28T15:00:57.619Z</time></trkpt><trkpt lat="39.2664538" lon="16.959807"><ele>112.0</ele><time>2026-03-28T15:00:59.615Z</time></trkpt><trkpt lat="39.2665446" lon="16.9599174"><ele>112.0</ele><time>2026-03-28T15:01:01.621Z</time></trkpt><trkpt lat="39.2666328" lon="16.9600205"><ele>113.8</ele><time>2026-03-28T15:01:03.615Z</time></trkpt><trkpt lat="39.2666917" lon="16.9600534"><ele>115.6</ele><time>2026-03-28T15:01:04.621Z</time></trkpt><trkpt lat="39.2668096" lon="16.9601083"><ele>117.39999999999999</ele><time>2026-03-28T15:01:06.606Z</time></trkpt><trkpt lat="39.2668762" lon="16.9601379"><ele>119.19999999999999</ele><time>2026-03-28T15:01:07.619Z</time></trkpt><trkpt lat="39.2669425" lon="16.9601792"><ele>121.0</ele><time>2026-03-28T15:01:08.611Z</time></trkpt><trkpt lat="39.2670469" lon="16.9602509"><ele>121.0</ele><time>2026-03-28T15:01:10.614Z</time></trkpt><trkpt lat="39.2671095" lon="16.9603049"><ele>121.0</ele><time>2026-03-28T15:01:11.615Z</time></trkpt><trkpt lat="39.2671729" lon="16.9603659"><ele>121.0</ele><time>2026-03-28T15:01:12.604Z</time></trkpt><trkpt lat="39.267277" lon="16.960446"><ele>121.0</ele><time>2026-03-28T15:01:14.607Z</time></trkpt><trkpt lat="39.2673806" lon="16.9605096"><ele>121.0</ele><time>2026-03-28T15:01:16.606Z</time></trkpt><trkpt lat="39.2674465" lon="16.960549"><ele>121.33333333333334</ele><time>2026-03-28T15:01:18.61Z</time></trkpt><trkpt lat="39.2675185" lon="16.9606046"><ele>121.66666666666667</ele><time>2026-03-28T15:01:20.602Z</time></trkpt><trkpt lat="39.2675928" lon="16.9606711"><ele>122.0</ele><time>2026-03-28T15:01:22.62Z</time></trkpt><trkpt lat="39.2676848" lon="16.9607724"><ele>122.33333333333334</ele><time>2026-03-28T15:01:24.603Z</time></trkpt><trkpt lat="39.2677375" lon="16.960818"><ele>122.66666666666667</ele><time>2026-03-28T15:01:25.63Z</time></trkpt><trkpt lat="39.2678067" lon="16.9608544"><ele>123.0</ele><time>2026-03-28T15:01:26.615Z</time></trkpt><trkpt lat="39.2678969" lon="16.9609047"><ele>124.66666666666667</ele><time>2026-03-28T15:01:27.609Z</time></trkpt><trkpt lat="39.2679699" lon="16.960965"><ele>126.33333333333334</ele><time>2026-03-28T15:01:28.613Z</time></trkpt><trkpt lat="39.2680289" lon="16.9610385"><ele>128.0</ele><time>2026-03-28T15:01:29.611Z</time></trkpt><trkpt lat="39.2680676" lon="16.9611163"><ele>129.66666666666669</ele><time>2026-03-28T15:01:30.612Z</time></trkpt><trkpt lat="39.2681078" lon="16.9612066"><ele>131.33333333333334</ele><time>2026-03-28T15:01:31.614Z</time></trkpt><trkpt lat="39.2681472" lon="16.9612934"><ele>133.0</ele><time>2026-03-28T15:01:32.611Z</time></trkpt><trkpt lat="39.2681782" lon="16.961376"><ele>134.66666666666669</ele><time>2026-03-28T15:01:33.626Z</time></trkpt><trkpt lat="39.2682162" lon="16.9614419"><ele>136.33333333333334</ele><time>2026-03-28T15:01:34.623Z</time></trkpt><trkpt lat="39.2682569" lon="16.9615118"><ele>138.0</ele><time>2026-03-28T15:01:35.622Z</time></trkpt><trkpt lat="39.2683039" lon="16.9615853"><ele>139.66666666666666</ele><time>2026-03-28T15:01:36.62Z</time></trkpt><trkpt lat="39.2683451" lon="16.9616566"><ele>141.33333333333331</ele><time>2026-03-28T15:01:37.62Z</time></trkpt><trkpt lat="39.2684298" lon="16.9617616"><ele>143.0</ele><time>2026-03-28T15:01:39.617Z</time></trkpt><trkpt lat="39.268485" lon="16.9618034"><ele>143.4</ele><time>2026-03-28T15:01:40.613Z</time></trkpt><trkpt lat="39.2685403" lon="16.9618456"><ele>143.8</ele><time>2026-03-28T15:01:41.627Z</time></trkpt><trkpt lat="39.2686003" lon="16.9619081"><ele>144.2</ele><time>2026-03-28T15:01:42.615Z</time></trkpt><trkpt lat="39.2686593" lon="16.9619586"><ele>144.6</ele><time>2026-03-28T15:01:43.608Z</time></trkpt><trkpt lat="39.2687656" lon="16.962038"><ele>145.0</ele><time>2026-03-28T15:01:45.618Z</time></trkpt><trkpt lat="39.2688729" lon="16.9621106"><ele>145.0</ele><time>2026-03-28T15:01:47.609Z</time></trkpt><trkpt lat="39.2689395" lon="16.9621403"><ele>145.0</ele><time>2026-03-28T15:01:48.614Z</time></trkpt><trkpt lat="39.2690022" lon="16.9621751"><ele>145.0</ele><time>2026-03-28T15:01:49.617Z</time></trkpt><trkpt lat="39.2690611" lon="16.962205"><ele>145.0</ele><time>2026-03-28T15:01:50.615Z</time></trkpt><trkpt lat="39.2691716" lon="16.9622741"><ele>145.0</ele><time>2026-03-28T15:01:52.626Z</time></trkpt><trkpt lat="39.2692712" lon="16.9623499"><ele>145.0</ele><time>2026-03-28T15:01:54.612Z</time></trkpt><trkpt lat="39.2693549" lon="16.9623827"><ele>146.66666666666669</ele><time>2026-03-28T15:01:56.625Z</time></trkpt><trkpt lat="39.2694502" lon="16.962288"><ele>148.33333333333334</ele><time>2026-03-28T15:01:58.612Z</time></trkpt><trkpt lat="39.2694929" lon="16.9622017"><ele>150.0</ele><time>2026-03-28T15:01:59.614Z</time></trkpt><trkpt lat="39.2695306" lon="16.962118"><ele>151.66666666666666</ele><time>2026-03-28T15:02:00.611Z</time></trkpt><trkpt lat="39.2695779" lon="16.9620461"><ele>153.33333333333331</ele><time>2026-03-28T15:02:01.622Z</time></trkpt><trkpt lat="39.2696332" lon="16.9619996"><ele>155.0</ele><time>2026-03-28T15:02:02.609Z</time></trkpt><trkpt lat="39.2697329" lon="16.9619629"><ele>158.0</ele><time>2026-03-28T15:02:04.619Z</time></trkpt><trkpt lat="39.2698255" lon="16.9619696"><ele>161.0</ele><time>2026-03-28T15:02:07.606Z</time></trkpt><trkpt lat="39.2698858" lon="16.9620039"><ele>164.0</ele><time>2026-03-28T15:02:09.615Z</time></trkpt><trkpt lat="39.2699213" lon="16.9621322"><ele>167.0</ele><time>2026-03-28T15:02:11.617Z</time></trkpt><trkpt lat="39.2699698" lon="16.9622548"><ele>170.0</ele><time>2026-03-28T15:02:13.608Z</time></trkpt><trkpt lat="39.2700336" lon="16.9623212"><ele>170.0</ele><time>2026-03-28T15:02:16.61Z</time></trkpt><trkpt lat="39.270098" lon="16.9623592"><ele>170.0</ele><time>2026-03-28T15:02:18.609Z</time></trkpt><trkpt lat="39.2702068" lon="16.9624087"><ele>170.0</ele><time>2026-03-28T15:02:20.606Z</time></trkpt><trkpt lat="39.2702598" lon="16.9624526"><ele>170.0</ele><time>2026-03-28T15:02:21.608Z</time></trkpt><trkpt lat="39.270329" lon="16.9625627"><ele>170.0</ele><time>2026-03-28T15:02:23.628Z</time></trkpt><trkpt lat="39.2703813" lon="16.9626785"><ele>170.16666666666666</ele><time>2026-03-28T15:02:25.605Z</time></trkpt><trkpt lat="39.2704287" lon="16.9627973"><ele>170.33333333333331</ele><time>2026-03-28T15:02:27.614Z</time></trkpt><trkpt lat="39.2703967" lon="16.9629012"><ele>170.5</ele><time>2026-03-28T15:02:29.616Z</time></trkpt><trkpt lat="39.2703839" lon="16.9629857"><ele>170.66666666666666</ele><time>2026-03-28T15:02:31.616Z</time></trkpt><trkpt lat="39.2704341" lon="16.963074"><ele>170.83333333333334</ele><time>2026-03-28T15:02:34.617Z</time></trkpt><trkpt lat="39.2704778" lon="16.9631646"><ele>171.0</ele><time>2026-03-28T15:02:37.611Z</time></trkpt><trkpt lat="39.2705331" lon="16.9632744"><ele>171.0</ele><time>2026-03-28T15:02:40.616Z</time></trkpt><trkpt lat="39.270575" lon="16.9633485"><ele>171.0</ele><time>2026-03-28T15:02:43.617Z</time></trkpt><trkpt lat="39.2706067" lon="16.9634258"><ele>171.0</ele><time>2026-03-28T15:03:27.625Z</time></trkpt><trkpt lat="39.2706574" lon="16.9635088"><ele>171.0</ele><time>2026-03-28T15:03:31.613Z</time></trkpt><trkpt lat="39.2707115" lon="16.9635905"><ele>171.0</ele><time>2026-03-28T15:03:34.622Z</time></trkpt><trkpt lat="39.2707558" lon="16.9636859"><ele>171.0</ele><time>2026-03-28T15:03:37.617Z</time></trkpt><trkpt lat="39.2707754" lon="16.9637725"><ele>175.33333333333334</ele><time>2026-03-28T15:03:40.605Z</time></trkpt><trkpt lat="39.2707549" lon="16.9638675"><ele>179.66666666666669</ele><time>2026-03-28T15:03:42.62Z</time></trkpt><trkpt lat="39.2707448" lon="16.9639599"><ele>184.0</ele><time>2026-03-28T15:03:44.611Z</time></trkpt><trkpt lat="39.2707513" lon="16.9640506"><ele>188.33333333333334</ele><time>2026-03-28T15:03:46.61Z</time></trkpt><trkpt lat="39.2707504" lon="16.9641718"><ele>192.66666666666669</ele><time>2026-03-28T15:03:49.616Z</time></trkpt><trkpt lat="39.2707562" lon="16.9642636"><ele>197.0</ele><time>2026-03-28T15:03:51.605Z</time></trkpt><trkpt lat="39.2707784" lon="16.9643552"><ele>197.00000000000003</ele><time>2026-03-28T15:03:53.619Z</time></trkpt><trkpt lat="39.2708166" lon="16.9644469"><ele>197.0</ele><time>2026-03-28T15:03:55.605Z</time></trkpt><trkpt lat="39.270873" lon="16.9645351"><ele>197.0</ele><time>2026-03-28T15:03:57.621Z</time></trkpt><trkpt lat="39.2709333" lon="16.9646257"><ele>197.0</ele><time>2026-03-28T15:03:59.619Z</time></trkpt><trkpt lat="39.2709834" lon="16.9647038"><ele>197.00000000000003</ele><time>2026-03-28T15:04:01.611Z</time></trkpt><trkpt lat="39.2710251" lon="16.9647718"><ele>197.0</ele><time>2026-03-28T15:04:03.615Z</time></trkpt><trkpt lat="39.2710634" lon="16.9648507"><ele>197.00000000000003</ele><time>2026-03-28T15:04:05.609Z</time></trkpt><trkpt lat="39.2710963" lon="16.9649497"><ele>197.0</ele><time>2026-03-28T15:04:08.612Z</time></trkpt><trkpt lat="39.2711181" lon="16.9650597"><ele>197.0</ele><time>2026-03-28T15:04:16.614Z</time></trkpt><trkpt lat="39.2711313" lon="16.9651478"><ele>197.0</ele><time>2026-03-28T15:04:23.625Z</time></trkpt><trkpt lat="39.2711579" lon="16.9652241"><ele>197.00000000000003</ele><time>2026-03-28T15:04:26.606Z</time></trkpt><trkpt lat="39.2712053" lon="16.9652898"><ele>197.0</ele><time>2026-03-28T15:04:28.608Z</time></trkpt><trkpt lat="39.2712674" lon="16.9653549"><ele>197.28571428571428</ele><time>2026-03-28T15:04:31.617Z</time></trkpt><trkpt lat="39.2713239" lon="16.9654093"><ele>197.57142857142858</ele><time>2026-03-28T15:04:34.615Z</time></trkpt><trkpt lat="39.2713734" lon="16.9654853"><ele>197.85714285714283</ele><time>2026-03-28T15:04:38.609Z</time></trkpt><trkpt lat="39.2714023" lon="16.9655837"><ele>198.14285714285714</ele><time>2026-03-28T15:04:41.632Z</time></trkpt><trkpt lat="39.271421" lon="16.9656648"><ele>198.42857142857142</ele><time>2026-03-28T15:04:44.681Z</time></trkpt><trkpt lat="39.2714382" lon="16.9657683"><ele>198.7142857142857</ele><time>2026-03-28T15:04:46.619Z</time></trkpt><trkpt lat="39.271438" lon="16.9658578"><ele>199.0</ele><time>2026-03-28T15:04:47.613Z</time></trkpt><trkpt lat="39.2714533" lon="16.9659368"><ele>203.33333333333331</ele><time>2026-03-28T15:04:49.624Z</time></trkpt><trkpt lat="39.2715392" lon="16.9659475"><ele>207.66666666666666</ele><time>2026-03-28T15:04:52.62Z</time></trkpt><trkpt lat="39.2715872" lon="16.9658544"><ele>212.0</ele><time>2026-03-28T15:04:54.616Z</time></trkpt><trkpt lat="39.2716217" lon="16.9657588"><ele>216.33333333333331</ele><time>2026-03-28T15:04:56.612Z</time></trkpt><trkpt lat="39.2716885" lon="16.9656602"><ele>220.66666666666666</ele><time>2026-03-28T15:04:59.66Z</time></trkpt><trkpt lat="39.2717628" lon="16.9656264"><ele>225.0</ele><time>2026-03-28T15:05:01.555Z</time></trkpt><trkpt lat="39.2718148" lon="16.9655547"><ele>225.0</ele><time>2026-03-28T15:05:03.617Z</time></trkpt><trkpt lat="39.2718959" lon="16.9654736"><ele>225.0</ele><time>2026-03-28T15:05:06.613Z</time></trkpt><trkpt lat="39.2719813" lon="16.9654175"><ele>225.0</ele><time>2026-03-28T15:05:08.61Z</time></trkpt><trkpt lat="39.2720644" lon="16.9653847"><ele>225.0</ele><time>2026-03-28T15:05:10.613Z</time></trkpt><trkpt lat="39.2721206" lon="16.9653319"><ele>225.0</ele><time>2026-03-28T15:05:12.611Z</time></trkpt><trkpt lat="39.2721715" lon="16.9652692"><ele>225.0</ele><time>2026-03-28T15:05:14.615Z</time></trkpt><trkpt lat="39.2722322" lon="16.9652024"><ele>228.83333333333334</ele><time>2026-03-28T15:05:16.618Z</time></trkpt><trkpt lat="39.2722965" lon="16.9651284"><ele>232.66666666666669</ele><time>2026-03-28T15:05:18.609Z</time></trkpt><trkpt lat="39.2723481" lon="16.9650603"><ele>236.5</ele><time>2026-03-28T15:05:20.614Z</time></trkpt><trkpt lat="39.2723949" lon="16.9649897"><ele>240.33333333333334</ele><time>2026-03-28T15:05:22.62Z</time></trkpt><trkpt lat="39.2724415" lon="16.9649114"><ele>244.16666666666669</ele><time>2026-03-28T15:05:24.617Z</time></trkpt><trkpt lat="39.2724685" lon="16.9648187"><ele>248.0</ele><time>2026-03-28T15:05:26.608Z</time></trkpt><trkpt lat="39.2724856" lon="16.964729"><ele>248.0</ele><time>2026-03-28T15:05:28.609Z</time></trkpt><trkpt lat="39.2725137" lon="16.9646527"><ele>248.00000000000003</ele><time>2026-03-28T15:05:30.609Z</time></trkpt><trkpt lat="39.2725684" lon="16.9645912"><ele>248.0</ele><time>2026-03-28T15:05:32.617Z</time></trkpt><trkpt lat="39.2726224" lon="16.9645344"><ele>248.0</ele><time>2026-03-28T15:05:34.613Z</time></trkpt><trkpt lat="39.272675" lon="16.9644769"><ele>248.00000000000003</ele><time>2026-03-28T15:05:36.616Z</time></trkpt><trkpt lat="39.272749" lon="16.9643946"><ele>248.0</ele><time>2026-03-28T15:05:39.607Z</time></trkpt><trkpt lat="39.2728096" lon="16.9643684"><ele>248.0</ele><time>2026-03-28T15:05:41.616Z</time></trkpt><trkpt lat="39.2728991" lon="16.9643741"><ele>248.00000000000003</ele><time>2026-03-28T15:05:43.61Z</time></trkpt><trkpt lat="39.2729856" lon="16.9643885"><ele>248.0</ele><time>2026-03-28T15:05:45.614Z</time></trkpt><trkpt lat="39.2730606" lon="16.9643844"><ele>248.0</ele><time>2026-03-28T15:05:47.608Z</time></trkpt><trkpt lat="39.273138" lon="16.9643634"><ele>248.0</ele><time>2026-03-28T15:05:50.605Z</time></trkpt><trkpt lat="39.2732048" lon="16.9643366"><ele>248.00000000000003</ele><time>2026-03-28T15:05:53.618Z</time></trkpt><trkpt lat="39.2732827" lon="16.9643061"><ele>248.0</ele><time>2026-03-28T15:05:56.611Z</time></trkpt><trkpt lat="39.2733468" lon="16.9642834"><ele>251.00000000000003</ele><time>2026-03-28T15:05:58.613Z</time></trkpt><trkpt lat="39.2734284" lon="16.9642436"><ele>254.0</ele><time>2026-03-28T15:06:01.621Z</time></trkpt><trkpt lat="39.273498" lon="16.9642027"><ele>257.0</ele><time>2026-03-28T15:06:04.612Z</time></trkpt><trkpt lat="39.2735633" lon="16.9641634"><ele>260.0</ele><time>2026-03-28T15:06:07.609Z</time></trkpt><trkpt lat="39.2736431" lon="16.9641161"><ele>263.0</ele><time>2026-03-28T15:06:10.636Z</time></trkpt><trkpt lat="39.2737056" lon="16.9640791"><ele>266.0</ele><time>2026-03-28T15:06:12.623Z</time></trkpt><trkpt lat="39.2737695" lon="16.9640506"><ele>266.0</ele><time>2026-03-28T15:06:14.611Z</time></trkpt><trkpt lat="39.2738354" lon="16.963961"><ele>266.0</ele><time>2026-03-28T15:06:17.618Z</time></trkpt><trkpt lat="39.2739022" lon="16.9639119"><ele>266.0</ele><time>2026-03-28T15:06:19.615Z</time></trkpt><trkpt lat="39.2739779" lon="16.9638466"><ele>266.0</ele><time>2026-03-28T15:06:21.608Z</time></trkpt><trkpt lat="39.2739176" lon="16.9638974"><ele>266.0</ele><time>2026-03-28T15:06:35.612Z</time></trkpt><trkpt lat="39.2739817" lon="16.9638462"><ele>266.0</ele><time>2026-03-28T15:06:42.616Z</time></trkpt><trkpt lat="39.2740557" lon="16.9638147"><ele>268.6666666666667</ele><time>2026-03-28T15:06:44.616Z</time></trkpt><trkpt lat="39.2741331" lon="16.9637944"><ele>271.33333333333337</ele><time>2026-03-28T15:06:47.617Z</time></trkpt><trkpt lat="39.274204" lon="16.9638014"><ele>274.0</ele><time>2026-03-28T15:06:50.608Z</time></trkpt><trkpt lat="39.2742705" lon="16.9638349"><ele>276.6666666666667</ele><time>2026-03-28T15:06:52.616Z</time></trkpt><trkpt lat="39.2743462" lon="16.9638807"><ele>279.3333333333333</ele><time>2026-03-28T15:06:54.614Z</time></trkpt><trkpt lat="39.2744219" lon="16.9639331"><ele>282.0</ele><time>2026-03-28T15:06:56.613Z</time></trkpt><trkpt lat="39.2745015" lon="16.964027"><ele>282.0</ele><time>2026-03-28T15:06:58.615Z</time></trkpt><trkpt lat="39.2745494" lon="16.9641249"><ele>282.0</ele><time>2026-03-28T15:07:00.621Z</time></trkpt><trkpt lat="39.2745599" lon="16.9642383"><ele>282.0</ele><time>2026-03-28T15:07:02.615Z</time></trkpt><trkpt lat="39.2745706" lon="16.964343"><ele>282.0</ele><time>2026-03-28T15:07:04.612Z</time></trkpt><trkpt lat="39.2745858" lon="16.9644531"><ele>282.0</ele><time>2026-03-28T15:07:06.62Z</time></trkpt><trkpt lat="39.2746095" lon="16.9645326"><ele>282.0</ele><time>2026-03-28T15:07:09.608Z</time></trkpt><trkpt lat="39.2746887" lon="16.9645848"><ele>281.8</ele><time>2026-03-28T15:07:19.632Z</time></trkpt><trkpt lat="39.2747662" lon="16.964574"><ele>281.6</ele><time>2026-03-28T15:07:21.606Z</time></trkpt><trkpt lat="39.2748567" lon="16.9645639"><ele>281.40000000000003</ele><time>2026-03-28T15:07:23.615Z</time></trkpt><trkpt lat="39.2749508" lon="16.9645762"><ele>281.2</ele><time>2026-03-28T15:07:25.615Z</time></trkpt><trkpt lat="39.275039" lon="16.964643"><ele>281.0</ele><time>2026-03-28T15:07:27.616Z</time></trkpt><trkpt lat="39.2751418" lon="16.9646688"><ele>282.0</ele><time>2026-03-28T15:07:29.608Z</time></trkpt><trkpt lat="39.275265" lon="16.964653"><ele>283.0</ele><time>2026-03-28T15:07:31.62Z</time></trkpt><trkpt lat="39.2753328" lon="16.9646585"><ele>284.0</ele><time>2026-03-28T15:07:32.614Z</time></trkpt><trkpt lat="39.2754056" lon="16.9646764"><ele>285.0</ele><time>2026-03-28T15:07:33.61Z</time></trkpt><trkpt lat="39.2754781" lon="16.964695"><ele>286.0</ele><time>2026-03-28T15:07:34.61Z</time></trkpt><trkpt lat="39.2755466" lon="16.9647099"><ele>287.0</ele><time>2026-03-28T15:07:35.619Z</time></trkpt><trkpt lat="39.2756158" lon="16.9647177"><ele>289.8</ele><time>2026-03-28T15:07:36.613Z</time></trkpt><trkpt lat="39.2756842" lon="16.9647159"><ele>292.6</ele><time>2026-03-28T15:07:37.611Z</time></trkpt><trkpt lat="39.2758018" lon="16.964686"><ele>295.40000000000003</ele><time>2026-03-28T15:07:39.618Z</time></trkpt><trkpt lat="39.2759009" lon="16.9646438"><ele>298.2</ele><time>2026-03-28T15:07:41.616Z</time></trkpt><trkpt lat="39.2759887" lon="16.9645904"><ele>301.0</ele><time>2026-03-28T15:07:43.621Z</time></trkpt><trkpt lat="39.2760643" lon="16.964544"><ele>301.0</ele><time>2026-03-28T15:07:45.623Z</time></trkpt><trkpt lat="39.2761344" lon="16.9644831"><ele>301.0</ele><time>2026-03-28T15:07:47.621Z</time></trkpt><trkpt lat="39.2761987" lon="16.9644256"><ele>301.0</ele><time>2026-03-28T15:07:49.622Z</time></trkpt><trkpt lat="39.2762582" lon="16.9643551"><ele>301.0</ele><time>2026-03-28T15:07:51.62Z</time></trkpt><trkpt lat="39.2763275" lon="16.9642478"><ele>301.0</ele><time>2026-03-28T15:07:53.62Z</time></trkpt><trkpt lat="39.2763823" lon="16.9641257"><ele>299.8</ele><time>2026-03-28T15:07:55.612Z</time></trkpt><trkpt lat="39.2764068" lon="16.9639836"><ele>298.6</ele><time>2026-03-28T15:07:57.621Z</time></trkpt><trkpt lat="39.2764318" lon="16.9638401"><ele>297.4</ele><time>2026-03-28T15:07:59.615Z</time></trkpt><trkpt lat="39.2764767" lon="16.9637134"><ele>296.2</ele><time>2026-03-28T15:08:01.621Z</time></trkpt><trkpt lat="39.2765416" lon="16.9636056"><ele>295.0</ele><time>2026-03-28T15:08:03.617Z</time></trkpt><trkpt lat="39.2765981" lon="16.96351"><ele>299.0</ele><time>2026-03-28T15:08:05.616Z</time></trkpt><trkpt lat="39.2766306" lon="16.963438"><ele>303.0</ele><time>2026-03-28T15:08:07.626Z</time></trkpt><trkpt lat="39.2766723" lon="16.9633437"><ele>307.0</ele><time>2026-03-28T15:08:10.611Z</time></trkpt><trkpt lat="39.2767194" lon="16.9632298"><ele>311.0</ele><time>2026-03-28T15:08:13.63Z</time></trkpt><trkpt lat="39.2767698" lon="16.9631485"><ele>315.0</ele><time>2026-03-28T15:08:15.611Z</time></trkpt><trkpt lat="39.2768355" lon="16.9630404"><ele>319.0</ele><time>2026-03-28T15:08:17.628Z</time></trkpt><trkpt lat="39.2769039" lon="16.9629251"><ele>319.0</ele><time>2026-03-28T15:08:19.611Z</time></trkpt><trkpt lat="39.2769577" lon="16.9628655"><ele>319.0</ele><time>2026-03-28T15:08:21.618Z</time></trkpt><trkpt lat="39.2770049" lon="16.9628107"><ele>319.0</ele><time>2026-03-28T15:08:30.616Z</time></trkpt><trkpt lat="39.2770716" lon="16.9627236"><ele>319.0</ele><time>2026-03-28T15:08:34.617Z</time></trkpt><trkpt lat="39.2771284" lon="16.9626626"><ele>319.0</ele><time>2026-03-28T15:08:36.615Z</time></trkpt><trkpt lat="39.2771984" lon="16.9625893"><ele>319.0</ele><time>2026-03-28T15:08:47.627Z</time></trkpt><trkpt lat="39.2772679" lon="16.9625281"><ele>322.3333333333333</ele><time>2026-03-28T15:08:50.607Z</time></trkpt><trkpt lat="39.2773439" lon="16.9624611"><ele>325.66666666666663</ele><time>2026-03-28T15:08:53.619Z</time></trkpt><trkpt lat="39.2773972" lon="16.9624048"><ele>329.0</ele><time>2026-03-28T15:08:55.616Z</time></trkpt><trkpt lat="39.2774445" lon="16.9623507"><ele>332.3333333333333</ele><time>2026-03-28T15:08:57.613Z</time></trkpt><trkpt lat="39.2775164" lon="16.9622986"><ele>335.6666666666667</ele><time>2026-03-28T15:08:59.617Z</time></trkpt><trkpt lat="39.2775863" lon="16.9622347"><ele>339.0</ele><time>2026-03-28T15:09:01.61Z</time></trkpt><trkpt lat="39.2776544" lon="16.9621695"><ele>339.0</ele><time>2026-03-28T15:09:03.612Z</time></trkpt><trkpt lat="39.2777233" lon="16.9621001"><ele>339.0</ele><time>2026-03-28T15:09:05.62Z</time></trkpt><trkpt lat="39.2777925" lon="16.9620363"><ele>339.0</ele><time>2026-03-28T15:09:07.609Z</time></trkpt><trkpt lat="39.2778644" lon="16.9619908"><ele>339.0</ele><time>2026-03-28T15:09:09.621Z</time></trkpt><trkpt lat="39.2779258" lon="16.9619453"><ele>339.0</ele><time>2026-03-28T15:09:11.606Z</time></trkpt><trkpt lat="39.2780022" lon="16.9619014"><ele>339.0</ele><time>2026-03-28T15:09:13.619Z</time></trkpt><trkpt lat="39.2780886" lon="16.9618786"><ele>341.79999999999995</ele><time>2026-03-28T15:09:15.608Z</time></trkpt><trkpt lat="39.2781975" lon="16.9618634"><ele>344.59999999999997</ele><time>2026-03-28T15:09:17.614Z</time></trkpt><trkpt lat="39.2783267" lon="16.9618467"><ele>347.4</ele><time>2026-03-28T15:09:19.628Z</time></trkpt><trkpt lat="39.2783952" lon="16.9618356"><ele>350.2</ele><time>2026-03-28T15:09:20.621Z</time></trkpt><trkpt lat="39.2784669" lon="16.9618269"><ele>353.0</ele><time>2026-03-28T15:09:21.611Z</time></trkpt><trkpt lat="39.278539" lon="16.961813"><ele>353.0</ele><time>2026-03-28T15:09:22.619Z</time></trkpt><trkpt lat="39.2786085" lon="16.9617908"><ele>353.0</ele><time>2026-03-28T15:09:23.619Z</time></trkpt><trkpt lat="39.278677" lon="16.9617639"><ele>353.0</ele><time>2026-03-28T15:09:24.634Z</time></trkpt><trkpt lat="39.2787395" lon="16.961733"><ele>353.0</ele><time>2026-03-28T15:09:25.619Z</time></trkpt><trkpt lat="39.2788326" lon="16.9616629"><ele>353.0</ele><time>2026-03-28T15:09:27.629Z</time></trkpt><trkpt lat="39.2789109" lon="16.9615924"><ele>353.0</ele><time>2026-03-28T15:09:29.611Z</time></trkpt><trkpt lat="39.2789808" lon="16.9615183"><ele>354.59999999999997</ele><time>2026-03-28T15:09:31.614Z</time></trkpt><trkpt lat="39.2790413" lon="16.9614357"><ele>356.2</ele><time>2026-03-28T15:09:33.622Z</time></trkpt><trkpt lat="39.2791045" lon="16.9613689"><ele>357.8</ele><time>2026-03-28T15:09:35.617Z</time></trkpt><trkpt lat="39.2791748" lon="16.9612957"><ele>359.4</ele><time>2026-03-28T15:09:37.626Z</time></trkpt><trkpt lat="39.2792481" lon="16.9612186"><ele>361.0</ele><time>2026-03-28T15:09:39.605Z</time></trkpt><trkpt lat="39.2793367" lon="16.9611336"><ele>361.0</ele><time>2026-03-28T15:09:41.621Z</time></trkpt><trkpt lat="39.2794093" lon="16.9610576"><ele>361.0</ele><time>2026-03-28T15:09:43.621Z</time></trkpt><trkpt lat="39.2794455" lon="16.9609402"><ele>361.0</ele><time>2026-03-28T15:09:45.609Z</time></trkpt><trkpt lat="39.2794467" lon="16.9608483"><ele>361.0</ele><time>2026-03-28T15:09:46.612Z</time></trkpt><trkpt lat="39.2794335" lon="16.9607542"><ele>361.0</ele><time>2026-03-28T15:09:47.621Z</time></trkpt><trkpt lat="39.2793993" lon="16.9606683"><ele>361.0</ele><time>2026-03-28T15:09:48.606Z</time></trkpt><trkpt lat="39.279354" lon="16.9605956"><ele>360.8333333333333</ele><time>2026-03-28T15:09:49.62Z</time></trkpt><trkpt lat="39.2793129" lon="16.9605338"><ele>360.66666666666663</ele><time>2026-03-28T15:09:50.618Z</time></trkpt><trkpt lat="39.2792495" lon="16.960429"><ele>360.5</ele><time>2026-03-28T15:09:52.62Z</time></trkpt><trkpt lat="39.2792015" lon="16.9603285"><ele>360.3333333333333</ele><time>2026-03-28T15:09:54.614Z</time></trkpt><trkpt lat="39.2791634" lon="16.9602333"><ele>360.1666666666667</ele><time>2026-03-28T15:09:57.614Z</time></trkpt><trkpt lat="39.2791397" lon="16.9601434"><ele>360.0</ele><time>2026-03-28T15:10:13.622Z</time></trkpt><trkpt lat="39.2791139" lon="16.9600374"><ele>360.3333333333333</ele><time>2026-03-28T15:10:39.612Z</time></trkpt><trkpt lat="39.2790942" lon="16.9599224"><ele>360.6666666666667</ele><time>2026-03-28T15:10:41.615Z</time></trkpt><trkpt lat="39.2790818" lon="16.9598126"><ele>361.0</ele><time>2026-03-28T15:10:43.618Z</time></trkpt><trkpt lat="39.2790776" lon="16.959706"><ele>361.33333333333337</ele><time>2026-03-28T15:10:45.607Z</time></trkpt><trkpt lat="39.2791038" lon="16.9595909"><ele>361.6666666666667</ele><time>2026-03-28T15:10:47.611Z</time></trkpt><trkpt lat="39.2791837" lon="16.959532"><ele>362.0</ele><time>2026-03-28T15:10:49.611Z</time></trkpt><trkpt lat="39.2792483" lon="16.9595039"><ele>362.0</ele><time>2026-03-28T15:10:51.62Z</time></trkpt><trkpt lat="39.2793207" lon="16.9594813"><ele>362.0</ele><time>2026-03-28T15:10:53.618Z</time></trkpt><trkpt lat="39.2794133" lon="16.9594642"><ele>362.0</ele><time>2026-03-28T15:10:55.609Z</time></trkpt><trkpt lat="39.2795303" lon="16.95944"><ele>362.0</ele><time>2026-03-28T15:10:57.613Z</time></trkpt><trkpt lat="39.2796064" lon="16.9593971"><ele>362.0</ele><time>2026-03-28T15:10:58.607Z</time></trkpt><trkpt lat="39.2796761" lon="16.9593416"><ele>362.0</ele><time>2026-03-28T15:10:59.618Z</time></trkpt><trkpt lat="39.2797278" lon="16.9592838"><ele>362.0</ele><time>2026-03-28T15:11:00.611Z</time></trkpt><trkpt lat="39.2798029" lon="16.9591856"><ele>362.0</ele><time>2026-03-28T15:11:02.62Z</time></trkpt><trkpt lat="39.2798739" lon="16.95911"><ele>362.0</ele><time>2026-03-28T15:11:04.617Z</time></trkpt><trkpt lat="39.2799293" lon="16.9590474"><ele>362.0</ele><time>2026-03-28T15:11:06.608Z</time></trkpt><trkpt lat="39.2799816" lon="16.9589844"><ele>362.0</ele><time>2026-03-28T15:11:08.623Z</time></trkpt><trkpt lat="39.2800361" lon="16.9589265"><ele>363.6</ele><time>2026-03-28T15:11:10.606Z</time></trkpt><trkpt lat="39.2801044" lon="16.9588487"><ele>365.20000000000005</ele><time>2026-03-28T15:11:12.607Z</time></trkpt><trkpt lat="39.2801977" lon="16.9587306"><ele>366.8</ele><time>2026-03-28T15:11:14.616Z</time></trkpt><trkpt lat="39.2802617" lon="16.9586396"><ele>368.4</ele><time>2026-03-28T15:11:16.612Z</time></trkpt><trkpt lat="39.2803251" lon="16.9585707"><ele>370.0</ele><time>2026-03-28T15:11:18.617Z</time></trkpt><trkpt lat="39.280389" lon="16.9585394"><ele>370.0</ele><time>2026-03-28T15:11:20.619Z</time></trkpt><trkpt lat="39.2804699" lon="16.9585482"><ele>370.0</ele><time>2026-03-28T15:11:22.618Z</time></trkpt><trkpt lat="39.2805525" lon="16.9585839"><ele>370.0</ele><time>2026-03-28T15:11:25.613Z</time></trkpt><trkpt lat="39.2806118" lon="16.9586159"><ele>370.0</ele><time>2026-03-28T15:11:28.617Z</time></trkpt><trkpt lat="39.2806826" lon="16.9586588"><ele>370.0</ele><time>2026-03-28T15:11:31.625Z</time></trkpt><trkpt lat="39.2807568" lon="16.9587018"><ele>370.0</ele><time>2026-03-28T15:11:33.618Z</time></trkpt><trkpt lat="39.2808394" lon="16.9587221"><ele>370.66666666666663</ele><time>2026-03-28T15:11:36.614Z</time></trkpt><trkpt lat="39.2809024" lon="16.9587123"><ele>371.3333333333333</ele><time>2026-03-28T15:11:39.624Z</time></trkpt><trkpt lat="39.2809977" lon="16.9586792"><ele>372.0</ele><time>2026-03-28T15:12:07.622Z</time></trkpt><trkpt lat="39.2810676" lon="16.9586515"><ele>372.6666666666667</ele><time>2026-03-28T15:12:09.608Z</time></trkpt><trkpt lat="39.2811397" lon="16.9586371"><ele>373.33333333333337</ele><time>2026-03-28T15:12:11.618Z</time></trkpt><trkpt lat="39.2812086" lon="16.9586169"><ele>374.0</ele><time>2026-03-28T15:12:13.621Z</time></trkpt><trkpt lat="39.2812869" lon="16.9586036"><ele>374.0</ele><time>2026-03-28T15:12:16.608Z</time></trkpt><trkpt lat="39.2813525" lon="16.9585845"><ele>374.0</ele><time>2026-03-28T15:12:19.608Z</time></trkpt><trkpt lat="39.2814387" lon="16.9585521"><ele>374.0</ele><time>2026-03-28T15:12:22.611Z</time></trkpt><trkpt lat="39.2815032" lon="16.9585075"><ele>374.0</ele><time>2026-03-28T15:12:26.608Z</time></trkpt><trkpt lat="39.2815874" lon="16.9584693"><ele>374.0</ele><time>2026-03-28T15:12:29.628Z</time></trkpt><trkpt lat="39.2816582" lon="16.9584352"><ele>374.0</ele><time>2026-03-28T15:12:31.629Z</time></trkpt><trkpt lat="39.2817533" lon="16.9583816"><ele>372.83333333333337</ele><time>2026-03-28T15:12:34.616Z</time></trkpt><trkpt lat="39.2818361" lon="16.9583489"><ele>371.6666666666667</ele><time>2026-03-28T15:12:36.618Z</time></trkpt><trkpt lat="39.2819076" lon="16.9583358"><ele>370.5</ele><time>2026-03-28T15:12:48.615Z</time></trkpt><trkpt lat="39.2819936" lon="16.958305"><ele>369.3333333333333</ele><time>2026-03-28T15:12:50.622Z</time></trkpt><trkpt lat="39.2820779" lon="16.9582764"><ele>368.16666666666663</ele><time>2026-03-28T15:12:52.618Z</time></trkpt><trkpt lat="39.282156" lon="16.9582505"><ele>367.0</ele><time>2026-03-28T15:12:54.618Z</time></trkpt><trkpt lat="39.2822287" lon="16.9582427"><ele>365.0</ele><time>2026-03-28T15:12:56.616Z</time></trkpt><trkpt lat="39.2823009" lon="16.9582591"><ele>363.0</ele><time>2026-03-28T15:12:58.632Z</time></trkpt><trkpt lat="39.2823679" lon="16.958279"><ele>361.0</ele><time>2026-03-28T15:13:00.62Z</time></trkpt><trkpt lat="39.2824355" lon="16.9583033"><ele>359.0</ele><time>2026-03-28T15:13:02.613Z</time></trkpt><trkpt lat="39.2825004" lon="16.9583183"><ele>357.0</ele><time>2026-03-28T15:13:04.615Z</time></trkpt><trkpt lat="39.2825781" lon="16.9583292"><ele>355.0</ele><time>2026-03-28T15:13:06.627Z</time></trkpt><trkpt lat="39.2826605" lon="16.9583384"><ele>353.0</ele><time>2026-03-28T15:13:08.617Z</time></trkpt><trkpt lat="39.2827591" lon="16.95835"><ele>350.0</ele><time>2026-03-28T15:13:10.616Z</time></trkpt><trkpt lat="39.2828749" lon="16.9583719"><ele>347.0</ele><time>2026-03-28T15:13:12.61Z</time></trkpt><trkpt lat="39.2829592" lon="16.9583953"><ele>344.0</ele><time>2026-03-28T15:13:14.609Z</time></trkpt><trkpt lat="39.2830305" lon="16.9584108"><ele>341.0</ele><time>2026-03-28T15:13:16.618Z</time></trkpt><trkpt lat="39.2830969" lon="16.9584001"><ele>338.0</ele><time>2026-03-28T15:13:18.611Z</time></trkpt><trkpt lat="39.2831596" lon="16.9583707"><ele>335.0</ele><time>2026-03-28T15:13:20.614Z</time></trkpt><trkpt lat="39.2832426" lon="16.9583331"><ele>334.6666666666667</ele><time>2026-03-28T15:13:23.608Z</time></trkpt><trkpt lat="39.283322" lon="16.958335"><ele>334.33333333333337</ele><time>2026-03-28T15:13:27.604Z</time></trkpt><trkpt lat="39.2833975" lon="16.9583801"><ele>334.0</ele><time>2026-03-28T15:13:31.611Z</time></trkpt><trkpt lat="39.2834699" lon="16.9584194"><ele>333.6666666666667</ele><time>2026-03-28T15:13:34.61Z</time></trkpt><trkpt lat="39.2835397" lon="16.9584477"><ele>333.3333333333333</ele><time>2026-03-28T15:13:38.613Z</time></trkpt><trkpt lat="39.2836253" lon="16.9584027"><ele>333.0</ele><time>2026-03-28T15:13:41.606Z</time></trkpt><trkpt lat="39.28374" lon="16.9583421"><ele>333.0</ele><time>2026-03-28T15:13:43.614Z</time></trkpt><trkpt lat="39.2838083" lon="16.9583152"><ele>333.0</ele><time>2026-03-28T15:13:44.603Z</time></trkpt><trkpt lat="39.2838757" lon="16.9582905"><ele>333.0</ele><time>2026-03-28T15:13:59.619Z</time></trkpt><trkpt lat="39.283945" lon="16.9582683"><ele>333.0</ele><time>2026-03-28T15:14:02.615Z</time></trkpt><trkpt lat="39.2840169" lon="16.9582659"><ele>333.0</ele><time>2026-03-28T15:14:07.607Z</time></trkpt><trkpt lat="39.2840936" lon="16.9582725"><ele>333.0</ele><time>2026-03-28T15:14:12.608Z</time></trkpt><trkpt lat="39.2841758" lon="16.9582787"><ele>333.0</ele><time>2026-03-28T15:14:16.614Z</time></trkpt><trkpt lat="39.2842404" lon="16.9582826"><ele>332.5</ele><time>2026-03-28T15:14:18.62Z</time></trkpt><trkpt lat="39.2843212" lon="16.9582678"><ele>332.0</ele><time>2026-03-28T15:14:21.622Z</time></trkpt><trkpt lat="39.2844055" lon="16.9582311"><ele>331.5</ele><time>2026-03-28T15:14:24.618Z</time></trkpt><trkpt lat="39.284478" lon="16.9581805"><ele>331.0</ele><time>2026-03-28T15:14:26.625Z</time></trkpt><trkpt lat="39.284557" lon="16.9581267"><ele>330.5</ele><time>2026-03-28T15:14:28.612Z</time></trkpt><trkpt lat="39.2846414" lon="16.958074"><ele>330.0</ele><time>2026-03-28T15:14:30.613Z</time></trkpt><trkpt lat="39.2847472" lon="16.9580308"><ele>328.8333333333333</ele><time>2026-03-28T15:14:32.619Z</time></trkpt><trkpt lat="39.2848103" lon="16.9580126"><ele>327.6666666666667</ele><time>2026-03-28T15:14:33.618Z</time></trkpt><trkpt lat="39.2848906" lon="16.9579879"><ele>326.5</ele><time>2026-03-28T15:14:35.613Z</time></trkpt><trkpt lat="39.284966" lon="16.9579729"><ele>325.33333333333337</ele><time>2026-03-28T15:14:39.621Z</time></trkpt><trkpt lat="39.285039" lon="16.9579628"><ele>324.1666666666667</ele><time>2026-03-28T15:14:48.613Z</time></trkpt><trkpt lat="39.2851137" lon="16.9579312"><ele>323.0</ele><time>2026-03-28T15:14:52.609Z</time></trkpt><trkpt lat="39.2851933" lon="16.9578689"><ele>323.0</ele><time>2026-03-28T15:14:55.622Z</time></trkpt><trkpt lat="39.2852484" lon="16.9578069"><ele>323.0</ele><time>2026-03-28T15:14:58.615Z</time></trkpt><trkpt lat="39.2853131" lon="16.9577347"><ele>323.0</ele><time>2026-03-28T15:15:02.618Z</time></trkpt><trkpt lat="39.2853764" lon="16.957658"><ele>323.0</ele><time>2026-03-28T15:15:05.619Z</time></trkpt><trkpt lat="39.285438" lon="16.9575849"><ele>323.0</ele><time>2026-03-28T15:15:07.619Z</time></trkpt><trkpt lat="39.2854988" lon="16.9575181"><ele>323.0</ele><time>2026-03-28T15:15:09.62Z</time></trkpt><trkpt lat="39.2855482" lon="16.9574624"><ele>323.5</ele><time>2026-03-28T15:15:11.614Z</time></trkpt><trkpt lat="39.2856223" lon="16.9573925"><ele>324.0</ele><time>2026-03-28T15:15:14.613Z</time></trkpt><trkpt lat="39.2856767" lon="16.957347"><ele>324.5</ele><time>2026-03-28T15:15:16.622Z</time></trkpt><trkpt lat="39.2857369" lon="16.9573133"><ele>325.0</ele><time>2026-03-28T15:15:18.607Z</time></trkpt><trkpt lat="39.2858029" lon="16.9572713"><ele>325.5</ele><time>2026-03-28T15:15:20.611Z</time></trkpt><trkpt lat="39.2858775" lon="16.9572383"><ele>326.0</ele><time>2026-03-28T15:15:22.616Z</time></trkpt><trkpt lat="39.2859778" lon="16.9571773"><ele>326.0</ele><time>2026-03-28T15:15:24.618Z</time></trkpt><trkpt lat="39.2860327" lon="16.9571313"><ele>326.0</ele><time>2026-03-28T15:15:25.609Z</time></trkpt><trkpt lat="39.2860882" lon="16.9570869"><ele>326.0</ele><time>2026-03-28T15:15:26.618Z</time></trkpt><trkpt lat="39.2861257" lon="16.9569606"><ele>326.0</ele><time>2026-03-28T15:15:28.608Z</time></trkpt><trkpt lat="39.2861543" lon="16.9568177"><ele>326.0</ele><time>2026-03-28T15:15:30.615Z</time></trkpt><trkpt lat="39.2861944" lon="16.956654"><ele>327.33333333333337</ele><time>2026-03-28T15:15:32.615Z</time></trkpt><trkpt lat="39.286219" lon="16.9565731"><ele>328.6666666666667</ele><time>2026-03-28T15:15:33.616Z</time></trkpt><trkpt lat="39.2862489" lon="16.9564985"><ele>330.0</ele><time>2026-03-28T15:15:34.61Z</time></trkpt><trkpt lat="39.28632" lon="16.9563768"><ele>331.3333333333333</ele><time>2026-03-28T15:15:36.615Z</time></trkpt><trkpt lat="39.2864244" lon="16.9563102"><ele>332.66666666666663</ele><time>2026-03-28T15:15:38.618Z</time></trkpt><trkpt lat="39.2864906" lon="16.9562847"><ele>334.0</ele><time>2026-03-28T15:15:39.619Z</time></trkpt><trkpt lat="39.2866058" lon="16.9562467"><ele>334.5</ele><time>2026-03-28T15:15:41.625Z</time></trkpt><trkpt lat="39.2867111" lon="16.9562164"><ele>335.0</ele><time>2026-03-28T15:15:43.63Z</time></trkpt><trkpt lat="39.2868112" lon="16.9561794"><ele>335.5</ele><time>2026-03-28T15:15:45.621Z</time></trkpt><trkpt lat="39.2869159" lon="16.9561316"><ele>336.0</ele><time>2026-03-28T15:15:47.626Z</time></trkpt><trkpt lat="39.2870446" lon="16.956074"><ele>336.0</ele><time>2026-03-28T15:15:49.625Z</time></trkpt><trkpt lat="39.287112" lon="16.9560438"><ele>336.0</ele><time>2026-03-28T15:15:50.625Z</time></trkpt><trkpt lat="39.2871851" lon="16.9560078"><ele>336.0</ele><time>2026-03-28T15:15:51.612Z</time></trkpt><trkpt lat="39.2872535" lon="16.9559808"><ele>336.0</ele><time>2026-03-28T15:15:52.615Z</time></trkpt><trkpt lat="39.2873185" lon="16.9559562"><ele>336.0</ele><time>2026-03-28T15:15:53.627Z</time></trkpt><trkpt lat="39.2873788" lon="16.9559236"><ele>336.0</ele><time>2026-03-28T15:15:54.619Z</time></trkpt><trkpt lat="39.2874354" lon="16.9558868"><ele>336.0</ele><time>2026-03-28T15:15:55.618Z</time></trkpt><trkpt lat="39.2875" lon="16.9558539"><ele>338.0</ele><time>2026-03-28T15:15:56.61Z</time></trkpt><trkpt lat="39.2875631" lon="16.9558123"><ele>340.0</ele><time>2026-03-28T15:15:57.617Z</time></trkpt><trkpt lat="39.2876324" lon="16.9557654"><ele>342.0</ele><time>2026-03-28T15:15:58.618Z</time></trkpt><trkpt lat="39.2877122" lon="16.9557156"><ele>344.0</ele><time>2026-03-28T15:15:59.609Z</time></trkpt><trkpt lat="39.2878063" lon="16.9556794"><ele>346.0</ele><time>2026-03-28T15:16:00.61Z</time></trkpt><trkpt lat="39.2878865" lon="16.9556435"><ele>348.0</ele><time>2026-03-28T15:16:01.62Z</time></trkpt><trkpt lat="39.2879544" lon="16.9556134"><ele>348.0</ele><time>2026-03-28T15:16:02.609Z</time></trkpt><trkpt lat="39.2880209" lon="16.9555785"><ele>348.0</ele><time>2026-03-28T15:16:03.625Z</time></trkpt><trkpt lat="39.2880914" lon="16.9555436"><ele>348.0</ele><time>2026-03-28T15:16:04.616Z</time></trkpt><trkpt lat="39.2881618" lon="16.9554988"><ele>348.0</ele><time>2026-03-28T15:16:05.619Z</time></trkpt><trkpt lat="39.2882351" lon="16.9554472"><ele>348.0</ele><time>2026-03-28T15:16:06.612Z</time></trkpt><trkpt lat="39.2883088" lon="16.9553875"><ele>348.0</ele><time>2026-03-28T15:16:07.62Z</time></trkpt><trkpt lat="39.2883837" lon="16.9553364"><ele>347.6666666666667</ele><time>2026-03-28T15:16:08.619Z</time></trkpt><trkpt lat="39.2884547" lon="16.9552923"><ele>347.3333333333333</ele><time>2026-03-28T15:16:09.62Z</time></trkpt><trkpt lat="39.2885204" lon="16.9552523"><ele>347.0</ele><time>2026-03-28T15:16:10.617Z</time></trkpt><trkpt lat="39.288581" lon="16.9552174"><ele>346.66666666666663</ele><time>2026-03-28T15:16:11.622Z</time></trkpt><trkpt lat="39.2886415" lon="16.9551887"><ele>346.3333333333333</ele><time>2026-03-28T15:16:12.614Z</time></trkpt><trkpt lat="39.2887586" lon="16.9551707"><ele>346.0</ele><time>2026-03-28T15:16:14.61Z</time></trkpt><trkpt lat="39.2888273" lon="16.9551734"><ele>346.0</ele><time>2026-03-28T15:16:15.609Z</time></trkpt><trkpt lat="39.2889014" lon="16.9551617"><ele>346.0</ele><time>2026-03-28T15:16:16.612Z</time></trkpt><trkpt lat="39.2889694" lon="16.9551402"><ele>346.0</ele><time>2026-03-28T15:16:17.628Z</time></trkpt><trkpt lat="39.2890365" lon="16.9551103"><ele>346.0</ele><time>2026-03-28T15:16:18.612Z</time></trkpt><trkpt lat="39.2891044" lon="16.9550823"><ele>346.0</ele><time>2026-03-28T15:16:19.609Z</time></trkpt><trkpt lat="39.2891657" lon="16.9550585"><ele>346.0</ele><time>2026-03-28T15:16:20.623Z</time></trkpt><trkpt lat="39.2892276" lon="16.955035"><ele>346.0</ele><time>2026-03-28T15:16:21.628Z</time></trkpt><trkpt lat="39.2893384" lon="16.9550129"><ele>349.0</ele><time>2026-03-28T15:16:23.611Z</time></trkpt><trkpt lat="39.2894493" lon="16.9549912"><ele>352.0</ele><time>2026-03-28T15:16:25.616Z</time></trkpt><trkpt lat="39.2895696" lon="16.9549651"><ele>355.0</ele><time>2026-03-28T15:16:27.61Z</time></trkpt><trkpt lat="39.2896468" lon="16.9549545"><ele>358.0</ele><time>2026-03-28T15:16:28.613Z</time></trkpt><trkpt lat="39.2897325" lon="16.9549424"><ele>361.0</ele><time>2026-03-28T15:16:29.621Z</time></trkpt><trkpt lat="39.2898321" lon="16.9548965"><ele>362.25</ele><time>2026-03-28T15:16:30.616Z</time></trkpt><trkpt lat="39.2899413" lon="16.9548163"><ele>363.5</ele><time>2026-03-28T15:16:31.619Z</time></trkpt><trkpt lat="39.2900526" lon="16.954736"><ele>364.75</ele><time>2026-03-28T15:16:32.623Z</time></trkpt><trkpt lat="39.2901546" lon="16.9546618"><ele>366.0</ele><time>2026-03-28T15:16:33.621Z</time></trkpt><trkpt lat="39.2902421" lon="16.954604"><ele>366.0</ele><time>2026-03-28T15:16:34.613Z</time></trkpt><trkpt lat="39.2903267" lon="16.9545521"><ele>366.0</ele><time>2026-03-28T15:16:35.617Z</time></trkpt><trkpt lat="39.2904097" lon="16.9544986"><ele>366.0</ele><time>2026-03-28T15:16:36.613Z</time></trkpt><trkpt lat="39.2904784" lon="16.9544387"><ele>366.0</ele><time>2026-03-28T15:16:37.627Z</time></trkpt><trkpt lat="39.2905361" lon="16.9543838"><ele>366.0</ele><time>2026-03-28T15:16:38.618Z</time></trkpt><trkpt lat="39.2906333" lon="16.9543471"><ele>366.0</ele><time>2026-03-28T15:16:40.616Z</time></trkpt><trkpt lat="39.290736" lon="16.954417"><ele>366.14285714285717</ele><time>2026-03-28T15:16:42.623Z</time></trkpt><trkpt lat="39.2908004" lon="16.9544643"><ele>366.28571428571433</ele><time>2026-03-28T15:16:43.631Z</time></trkpt><trkpt lat="39.2908689" lon="16.9545064"><ele>366.42857142857144</ele><time>2026-03-28T15:16:44.619Z</time></trkpt><trkpt lat="39.2909372" lon="16.9545377"><ele>366.57142857142856</ele><time>2026-03-28T15:16:45.612Z</time></trkpt><trkpt lat="39.2910082" lon="16.9545677"><ele>366.7142857142857</ele><time>2026-03-28T15:16:46.615Z</time></trkpt><trkpt lat="39.2910783" lon="16.9545946"><ele>366.85714285714283</ele><time>2026-03-28T15:16:47.618Z</time></trkpt><trkpt lat="39.2911485" lon="16.9546123"><ele>367.0</ele><time>2026-03-28T15:16:48.612Z</time></trkpt><trkpt lat="39.2912262" lon="16.9546257"><ele>367.0</ele><time>2026-03-28T15:16:49.615Z</time></trkpt><trkpt lat="39.2912988" lon="16.954637"><ele>367.0</ele><time>2026-03-28T15:16:50.621Z</time></trkpt><trkpt lat="39.2913747" lon="16.9546435"><ele>367.0</ele><time>2026-03-28T15:16:51.612Z</time></trkpt><trkpt lat="39.2914479" lon="16.9546461"><ele>367.0</ele><time>2026-03-28T15:16:52.617Z</time></trkpt><trkpt lat="39.2915194" lon="16.9546445"><ele>367.0</ele><time>2026-03-28T15:16:53.629Z</time></trkpt><trkpt lat="39.2915889" lon="16.9546399"><ele>367.0</ele><time>2026-03-28T15:16:54.611Z</time></trkpt><trkpt lat="39.2916528" lon="16.9546352"><ele>367.0</ele><time>2026-03-28T15:16:55.612Z</time></trkpt><trkpt lat="39.2917187" lon="16.9546321"><ele>366.0</ele><time>2026-03-28T15:16:56.618Z</time></trkpt><trkpt lat="39.2917883" lon="16.9546259"><ele>365.0</ele><time>2026-03-28T15:16:57.616Z</time></trkpt><trkpt lat="39.2918625" lon="16.9546106"><ele>364.0</ele><time>2026-03-28T15:16:58.614Z</time></trkpt><trkpt lat="39.2919397" lon="16.9545954"><ele>363.0</ele><time>2026-03-28T15:16:59.616Z</time></trkpt><trkpt lat="39.292015" lon="16.9545721"><ele>362.0</ele><time>2026-03-28T15:17:00.613Z</time></trkpt><trkpt lat="39.2920843" lon="16.9545512"><ele>361.0</ele><time>2026-03-28T15:17:01.62Z</time></trkpt><trkpt lat="39.2921912" lon="16.9545165"><ele>359.6</ele><time>2026-03-28T15:17:03.621Z</time></trkpt><trkpt lat="39.2922668" lon="16.9544842"><ele>358.20000000000005</ele><time>2026-03-28T15:17:05.608Z</time></trkpt><trkpt lat="39.2923522" lon="16.9544551"><ele>356.79999999999995</ele><time>2026-03-28T15:17:07.623Z</time></trkpt><trkpt lat="39.2924568" lon="16.9544093"><ele>355.4</ele><time>2026-03-28T15:17:09.621Z</time></trkpt><trkpt lat="39.2925608" lon="16.9543822"><ele>354.0</ele><time>2026-03-28T15:17:11.611Z</time></trkpt><trkpt lat="39.2926434" lon="16.9543883"><ele>354.0</ele><time>2026-03-28T15:17:13.626Z</time></trkpt><trkpt lat="39.2927315" lon="16.95439"><ele>354.0</ele><time>2026-03-28T15:17:15.615Z</time></trkpt><trkpt lat="39.2928554" lon="16.9543652"><ele>354.0</ele><time>2026-03-28T15:17:17.618Z</time></trkpt><trkpt lat="39.292939" lon="16.9543291"><ele>354.0</ele><time>2026-03-28T15:17:18.626Z</time></trkpt><trkpt lat="39.293033" lon="16.9543"><ele>354.0</ele><time>2026-03-28T15:17:19.624Z</time></trkpt><trkpt lat="39.2931235" lon="16.9542804"><ele>353.3333333333333</ele><time>2026-03-28T15:17:20.613Z</time></trkpt><trkpt lat="39.2932069" lon="16.9542419"><ele>352.6666666666667</ele><time>2026-03-28T15:17:21.618Z</time></trkpt><trkpt lat="39.2932817" lon="16.954194"><ele>352.0</ele><time>2026-03-28T15:17:22.611Z</time></trkpt><trkpt lat="39.2933554" lon="16.9541462"><ele>351.33333333333337</ele><time>2026-03-28T15:17:23.614Z</time></trkpt><trkpt lat="39.2934099" lon="16.9540599"><ele>350.6666666666667</ele><time>2026-03-28T15:17:24.616Z</time></trkpt><trkpt lat="39.2934575" lon="16.9539815"><ele>350.0</ele><time>2026-03-28T15:17:25.624Z</time></trkpt><trkpt lat="39.2935146" lon="16.9539431"><ele>353.2</ele><time>2026-03-28T15:17:26.623Z</time></trkpt><trkpt lat="39.2936204" lon="16.9539602"><ele>356.4</ele><time>2026-03-28T15:17:28.615Z</time></trkpt><trkpt lat="39.2937145" lon="16.9540235"><ele>359.6</ele><time>2026-03-28T15:17:30.61Z</time></trkpt><trkpt lat="39.2938163" lon="16.9540597"><ele>362.8</ele><time>2026-03-28T15:17:32.618Z</time></trkpt><trkpt lat="39.2939336" lon="16.9540674"><ele>366.0</ele><time>2026-03-28T15:17:34.616Z</time></trkpt><trkpt lat="39.2940547" lon="16.9540694"><ele>367.1666666666667</ele><time>2026-03-28T15:17:36.62Z</time></trkpt><trkpt lat="39.2941225" lon="16.9540863"><ele>368.3333333333333</ele><time>2026-03-28T15:17:37.622Z</time></trkpt><trkpt lat="39.2942014" lon="16.9541093"><ele>369.5</ele><time>2026-03-28T15:17:38.61Z</time></trkpt><trkpt lat="39.2942864" lon="16.9541145"><ele>370.66666666666663</ele><time>2026-03-28T15:17:39.621Z</time></trkpt><trkpt lat="39.2943666" lon="16.9541177"><ele>371.8333333333333</ele><time>2026-03-28T15:17:40.612Z</time></trkpt><trkpt lat="39.294443" lon="16.9541218"><ele>373.0</ele><time>2026-03-28T15:17:41.614Z</time></trkpt><trkpt lat="39.2945123" lon="16.9541379"><ele>373.0</ele><time>2026-03-28T15:17:42.607Z</time></trkpt><trkpt lat="39.2945763" lon="16.9541712"><ele>373.0</ele><time>2026-03-28T15:17:43.61Z</time></trkpt><trkpt lat="39.2946413" lon="16.9542019"><ele>373.0</ele><time>2026-03-28T15:17:44.612Z</time></trkpt><trkpt lat="39.2947087" lon="16.9542127"><ele>373.0</ele><time>2026-03-28T15:17:45.612Z</time></trkpt><trkpt lat="39.294776" lon="16.9542011"><ele>373.0</ele><time>2026-03-28T15:17:46.611Z</time></trkpt><trkpt lat="39.2948431" lon="16.954174"><ele>373.0</ele><time>2026-03-28T15:17:47.62Z</time></trkpt><trkpt lat="39.2949067" lon="16.95412"><ele>373.0</ele><time>2026-03-28T15:17:48.611Z</time></trkpt><trkpt lat="39.2949501" lon="16.9540399"><ele>372.66666666666663</ele><time>2026-03-28T15:17:49.607Z</time></trkpt><trkpt lat="39.2949857" lon="16.9539723"><ele>372.3333333333333</ele><time>2026-03-28T15:17:50.611Z</time></trkpt><trkpt lat="39.2950937" lon="16.9539262"><ele>372.0</ele><time>2026-03-28T15:17:52.613Z</time></trkpt><trkpt lat="39.295148" lon="16.9539994"><ele>371.6666666666667</ele><time>2026-03-28T15:17:53.613Z</time></trkpt><trkpt lat="39.2951983" lon="16.954082"><ele>371.33333333333337</ele><time>2026-03-28T15:17:54.618Z</time></trkpt><trkpt lat="39.295192" lon="16.9541647"><ele>371.0</ele><time>2026-03-28T15:17:55.618Z</time></trkpt><trkpt lat="39.2952066" lon="16.9543085"><ele>371.0</ele><time>2026-03-28T15:17:57.614Z</time></trkpt><trkpt lat="39.295279" lon="16.9544017"><ele>371.0</ele><time>2026-03-28T15:17:59.605Z</time></trkpt><trkpt lat="39.2953826" lon="16.9544647"><ele>371.0</ele><time>2026-03-28T15:18:01.62Z</time></trkpt><trkpt lat="39.2954989" lon="16.9545206"><ele>371.0</ele><time>2026-03-28T15:18:03.614Z</time></trkpt><trkpt lat="39.295617" lon="16.9545517"><ele>375.0</ele><time>2026-03-28T15:18:05.617Z</time></trkpt><trkpt lat="39.2956826" lon="16.9545507"><ele>379.0</ele><time>2026-03-28T15:18:06.607Z</time></trkpt><trkpt lat="39.2957508" lon="16.9545347"><ele>383.0</ele><time>2026-03-28T15:18:07.605Z</time></trkpt><trkpt lat="39.2958151" lon="16.9545193"><ele>387.0</ele><time>2026-03-28T15:18:08.609Z</time></trkpt><trkpt lat="39.2958813" lon="16.9545063"><ele>390.99999999999994</ele><time>2026-03-28T15:18:09.609Z</time></trkpt><trkpt lat="39.2960014" lon="16.954473"><ele>395.0</ele><time>2026-03-28T15:18:11.623Z</time></trkpt><trkpt lat="39.2961012" lon="16.9544405"><ele>395.0</ele><time>2026-03-28T15:18:13.613Z</time></trkpt><trkpt lat="39.2961887" lon="16.9544152"><ele>395.0</ele><time>2026-03-28T15:18:15.612Z</time></trkpt><trkpt lat="39.2963181" lon="16.9543756"><ele>395.0</ele><time>2026-03-28T15:18:17.606Z</time></trkpt><trkpt lat="39.2963995" lon="16.954347"><ele>395.0</ele><time>2026-03-28T15:18:18.606Z</time></trkpt><trkpt lat="39.296478" lon="16.9543196"><ele>395.0</ele><time>2026-03-28T15:18:19.615Z</time></trkpt><trkpt lat="39.2965536" lon="16.9542946"><ele>397.66666666666663</ele><time>2026-03-28T15:18:20.612Z</time></trkpt><trkpt lat="39.2966167" lon="16.9542832"><ele>400.3333333333333</ele><time>2026-03-28T15:18:21.62Z</time></trkpt><trkpt lat="39.296744" lon="16.9543259"><ele>403.0</ele><time>2026-03-28T15:18:23.608Z</time></trkpt><trkpt lat="39.2968104" lon="16.9543906"><ele>405.66666666666663</ele><time>2026-03-28T15:18:24.602Z</time></trkpt><trkpt lat="39.2968581" lon="16.9544628"><ele>408.3333333333333</ele><time>2026-03-28T15:18:25.614Z</time></trkpt><trkpt lat="39.2968995" lon="16.9545274"><ele>411.0</ele><time>2026-03-28T15:18:26.612Z</time></trkpt><trkpt lat="39.2969322" lon="16.9545981"><ele>411.0</ele><time>2026-03-28T15:18:27.611Z</time></trkpt><trkpt lat="39.2969806" lon="16.9547428"><ele>411.0</ele><time>2026-03-28T15:18:29.61Z</time></trkpt><trkpt lat="39.2969793" lon="16.9549119"><ele>411.0</ele><time>2026-03-28T15:18:31.613Z</time></trkpt><trkpt lat="39.2969589" lon="16.95506"><ele>411.0</ele><time>2026-03-28T15:18:33.611Z</time></trkpt><trkpt lat="39.2969823" lon="16.9551376"><ele>411.0</ele><time>2026-03-28T15:18:35.623Z</time></trkpt><trkpt lat="39.2970532" lon="16.9551997"><ele>410.0</ele><time>2026-03-28T15:18:37.61Z</time></trkpt><trkpt lat="39.2971965" lon="16.9552201"><ele>409.0</ele><time>2026-03-28T15:18:39.616Z</time></trkpt><trkpt lat="39.2972839" lon="16.9552278"><ele>408.0</ele><time>2026-03-28T15:18:40.612Z</time></trkpt><trkpt lat="39.2973562" lon="16.9552496"><ele>407.0</ele><time>2026-03-28T15:18:41.624Z</time></trkpt><trkpt lat="39.2974496" lon="16.9553342"><ele>406.0</ele><time>2026-03-28T15:18:43.621Z</time></trkpt><trkpt lat="39.2975365" lon="16.9554428"><ele>410.4</ele><time>2026-03-28T15:18:45.616Z</time></trkpt><trkpt lat="39.2976148" lon="16.9555404"><ele>414.8</ele><time>2026-03-28T15:18:47.616Z</time></trkpt><trkpt lat="39.2976886" lon="16.9556546"><ele>419.19999999999993</ele><time>2026-03-28T15:18:49.623Z</time></trkpt><trkpt lat="39.2977493" lon="16.9557634"><ele>423.59999999999997</ele><time>2026-03-28T15:18:51.606Z</time></trkpt><trkpt lat="39.2978122" lon="16.955873"><ele>428.0</ele><time>2026-03-28T15:18:53.623Z</time></trkpt><trkpt lat="39.297891" lon="16.9559751"><ele>428.3333333333333</ele><time>2026-03-28T15:18:55.613Z</time></trkpt><trkpt lat="39.2979614" lon="16.9560553"><ele>428.66666666666663</ele><time>2026-03-28T15:18:57.609Z</time></trkpt><trkpt lat="39.2980207" lon="16.9561381"><ele>429.0</ele><time>2026-03-28T15:18:59.619Z</time></trkpt><trkpt lat="39.2980739" lon="16.9562502"><ele>429.33333333333337</ele><time>2026-03-28T15:19:01.614Z</time></trkpt><trkpt lat="39.2980992" lon="16.9563466"><ele>429.6666666666667</ele><time>2026-03-28T15:19:03.623Z</time></trkpt><trkpt lat="39.2981193" lon="16.9564317"><ele>430.0</ele><time>2026-03-28T15:19:12.611Z</time></trkpt><trkpt lat="39.2981636" lon="16.956529"><ele>434.1666666666667</ele><time>2026-03-28T15:19:16.615Z</time></trkpt><trkpt lat="39.2982248" lon="16.9565867"><ele>438.33333333333337</ele><time>2026-03-28T15:19:19.617Z</time></trkpt><trkpt lat="39.2983142" lon="16.9565864"><ele>442.5</ele><time>2026-03-28T15:19:23.621Z</time></trkpt><trkpt lat="39.2983785" lon="16.9565744"><ele>446.66666666666663</ele><time>2026-03-28T15:19:26.611Z</time></trkpt><trkpt lat="39.2983907" lon="16.9566703"><ele>450.8333333333333</ele><time>2026-03-28T15:19:30.612Z</time></trkpt><trkpt lat="39.29829" lon="16.9567039"><ele>455.0</ele><time>2026-03-28T15:19:32.611Z</time></trkpt><trkpt lat="39.2982057" lon="16.9567097"><ele>457.3333333333333</ele><time>2026-03-28T15:19:34.615Z</time></trkpt><trkpt lat="39.2981306" lon="16.9567182"><ele>459.66666666666663</ele><time>2026-03-28T15:19:36.618Z</time></trkpt><trkpt lat="39.2980541" lon="16.9567564"><ele>462.0</ele><time>2026-03-28T15:19:39.621Z</time></trkpt><trkpt lat="39.2980296" lon="16.9568433"><ele>464.33333333333337</ele><time>2026-03-28T15:19:41.61Z</time></trkpt><trkpt lat="39.2980266" lon="16.9569571"><ele>466.6666666666667</ele><time>2026-03-28T15:19:43.619Z</time></trkpt><trkpt lat="39.2980376" lon="16.9570798"><ele>469.0</ele><time>2026-03-28T15:19:45.619Z</time></trkpt><trkpt lat="39.2980527" lon="16.9572004"><ele>469.0</ele><time>2026-03-28T15:19:47.617Z</time></trkpt><trkpt lat="39.2980823" lon="16.9573291"><ele>469.0</ele><time>2026-03-28T15:19:49.61Z</time></trkpt><trkpt lat="39.2981131" lon="16.9574607"><ele>469.0</ele><time>2026-03-28T15:19:51.639Z</time></trkpt><trkpt lat="39.2981311" lon="16.9576108"><ele>469.0</ele><time>2026-03-28T15:19:53.608Z</time></trkpt><trkpt lat="39.2981253" lon="16.9577845"><ele>468.2857142857143</ele><time>2026-03-28T15:19:55.611Z</time></trkpt><trkpt lat="39.2981339" lon="16.957939"><ele>467.57142857142856</ele><time>2026-03-28T15:19:57.611Z</time></trkpt><trkpt lat="39.2981398" lon="16.958021"><ele>466.8571428571429</ele><time>2026-03-28T15:19:58.617Z</time></trkpt><trkpt lat="39.2981443" lon="16.9581053"><ele>466.14285714285717</ele><time>2026-03-28T15:19:59.604Z</time></trkpt><trkpt lat="39.2981288" lon="16.9581902"><ele>465.42857142857144</ele><time>2026-03-28T15:20:00.611Z</time></trkpt><trkpt lat="39.2981036" lon="16.9582669"><ele>464.7142857142858</ele><time>2026-03-28T15:20:01.628Z</time></trkpt><trkpt lat="39.2980745" lon="16.9583399"><ele>464.00000000000006</ele><time>2026-03-28T15:20:02.612Z</time></trkpt><trkpt lat="39.2980164" lon="16.9584812"><ele>464.0</ele><time>2026-03-28T15:20:04.615Z</time></trkpt><trkpt lat="39.2979801" lon="16.9586346"><ele>464.0</ele><time>2026-03-28T15:20:06.603Z</time></trkpt><trkpt lat="39.297934" lon="16.9587803"><ele>464.0</ele><time>2026-03-28T15:20:08.622Z</time></trkpt><trkpt lat="39.2979036" lon="16.9588584"><ele>464.0</ele><time>2026-03-28T15:20:09.629Z</time></trkpt><trkpt lat="39.2978545" lon="16.9589817"><ele>464.0</ele><time>2026-03-28T15:20:11.607Z</time></trkpt><trkpt lat="39.2977941" lon="16.9590884"><ele>468.16666666666663</ele><time>2026-03-28T15:20:13.618Z</time></trkpt><trkpt lat="39.2977379" lon="16.9592179"><ele>472.3333333333333</ele><time>2026-03-28T15:20:15.603Z</time></trkpt><trkpt lat="39.297705" lon="16.9593016"><ele>476.5</ele><time>2026-03-28T15:20:16.611Z</time></trkpt><trkpt lat="39.2976669" lon="16.9593782"><ele>480.66666666666663</ele><time>2026-03-28T15:20:17.612Z</time></trkpt><trkpt lat="39.2976265" lon="16.9594472"><ele>484.8333333333333</ele><time>2026-03-28T15:20:18.624Z</time></trkpt><trkpt lat="39.2975843" lon="16.9595157"><ele>489.0</ele><time>2026-03-28T15:20:19.609Z</time></trkpt><trkpt lat="39.2975434" lon="16.9595897"><ele>489.0</ele><time>2026-03-28T15:20:20.62Z</time></trkpt><trkpt lat="39.2975058" lon="16.9596562"><ele>489.0</ele><time>2026-03-28T15:20:21.619Z</time></trkpt><trkpt lat="39.2974311" lon="16.9597662"><ele>489.0</ele><time>2026-03-28T15:20:23.606Z</time></trkpt><trkpt lat="39.2973887" lon="16.9598803"><ele>489.0</ele><time>2026-03-28T15:20:25.623Z</time></trkpt><trkpt lat="39.297334" lon="16.9599887"><ele>489.0</ele><time>2026-03-28T15:20:27.619Z</time></trkpt><trkpt lat="39.2972538" lon="16.9601114"><ele>490.75</ele><time>2026-03-28T15:20:29.604Z</time></trkpt><trkpt lat="39.2971713" lon="16.9602062"><ele>492.5</ele><time>2026-03-28T15:20:31.613Z</time></trkpt><trkpt lat="39.2970964" lon="16.9602813"><ele>494.25</ele><time>2026-03-28T15:20:33.615Z</time></trkpt><trkpt lat="39.2970031" lon="16.9603786"><ele>496.0</ele><time>2026-03-28T15:20:35.603Z</time></trkpt><trkpt lat="39.2968734" lon="16.9604301"><ele>496.0</ele><time>2026-03-28T15:20:37.604Z</time></trkpt><trkpt lat="39.2967928" lon="16.9604655"><ele>496.0</ele><time>2026-03-28T15:20:38.611Z</time></trkpt><trkpt lat="39.2967002" lon="16.9605333"><ele>496.0</ele><time>2026-03-28T15:20:39.607Z</time></trkpt><trkpt lat="39.2966052" lon="16.9606068"><ele>496.0</ele><time>2026-03-28T15:20:40.61Z</time></trkpt><trkpt lat="39.296511" lon="16.9606548"><ele>496.0</ele><time>2026-03-28T15:20:41.614Z</time></trkpt><trkpt lat="39.2964305" lon="16.9606833"><ele>496.50000000000006</ele><time>2026-03-28T15:20:42.611Z</time></trkpt><trkpt lat="39.2963755" lon="16.960728"><ele>497.0</ele><time>2026-03-28T15:20:43.603Z</time></trkpt><trkpt lat="39.296334" lon="16.9607947"><ele>497.5</ele><time>2026-03-28T15:20:44.608Z</time></trkpt><trkpt lat="39.296283" lon="16.9608768"><ele>498.0</ele><time>2026-03-28T15:20:45.622Z</time></trkpt><trkpt lat="39.2962238" lon="16.9609973"><ele>498.50000000000006</ele><time>2026-03-28T15:20:46.609Z</time></trkpt><trkpt lat="39.2961579" lon="16.9611126"><ele>499.0</ele><time>2026-03-28T15:20:47.61Z</time></trkpt><trkpt lat="39.2960933" lon="16.9612306"><ele>499.0</ele><time>2026-03-28T15:20:48.611Z</time></trkpt><trkpt lat="39.296045" lon="16.9613602"><ele>499.0</ele><time>2026-03-28T15:20:49.614Z</time></trkpt><trkpt lat="39.2959822" lon="16.9614617"><ele>499.0</ele><time>2026-03-28T15:20:50.609Z</time></trkpt><trkpt lat="39.2958921" lon="16.961554"><ele>499.0</ele><time>2026-03-28T15:20:51.605Z</time></trkpt><trkpt lat="39.2957841" lon="16.9616577"><ele>498.0</ele><time>2026-03-28T15:20:52.608Z</time></trkpt><trkpt lat="39.2956707" lon="16.9617487"><ele>497.0</ele><time>2026-03-28T15:20:53.617Z</time></trkpt><trkpt lat="39.2955673" lon="16.9618259"><ele>496.0</ele><time>2026-03-28T15:20:54.618Z</time></trkpt><trkpt lat="39.29547" lon="16.9618999"><ele>495.0</ele><time>2026-03-28T15:20:55.62Z</time></trkpt><trkpt lat="39.295386" lon="16.9620295"><ele>495.0</ele><time>2026-03-28T15:20:56.61Z</time></trkpt><trkpt lat="39.2953117" lon="16.9621461"><ele>495.0</ele><time>2026-03-28T15:20:57.605Z</time></trkpt><trkpt lat="39.2952567" lon="16.9622175"><ele>495.0</ele><time>2026-03-28T15:20:58.611Z</time></trkpt><trkpt lat="39.2951888" lon="16.9622194"><ele>495.0</ele><time>2026-03-28T15:20:59.613Z</time></trkpt><trkpt lat="39.2951069" lon="16.9623081"><ele>495.0</ele><time>2026-03-28T15:21:01.606Z</time></trkpt><trkpt lat="39.2950445" lon="16.9624551"><ele>497.0</ele><time>2026-03-28T15:21:03.613Z</time></trkpt><trkpt lat="39.2950085" lon="16.9625329"><ele>499.0</ele><time>2026-03-28T15:21:04.608Z</time></trkpt><trkpt lat="39.2949691" lon="16.9626112"><ele>501.0</ele><time>2026-03-28T15:21:05.615Z</time></trkpt><trkpt lat="39.2949309" lon="16.9626869"><ele>503.0</ele><time>2026-03-28T15:21:06.606Z</time></trkpt><trkpt lat="39.2948977" lon="16.9627597"><ele>505.0</ele><time>2026-03-28T15:21:07.615Z</time></trkpt><trkpt lat="39.2948599" lon="16.9628861"><ele>507.0</ele><time>2026-03-28T15:21:09.616Z</time></trkpt><trkpt lat="39.2948524" lon="16.9629842"><ele>507.0</ele><time>2026-03-28T15:21:11.626Z</time></trkpt><trkpt lat="39.2948631" lon="16.9630645"><ele>507.00000000000006</ele><time>2026-03-28T15:21:14.618Z</time></trkpt><trkpt lat="39.2948941" lon="16.963221"><ele>507.00000000000006</ele><time>2026-03-28T15:21:24.618Z</time></trkpt><trkpt lat="39.2949201" lon="16.963349"><ele>507.0</ele><time>2026-03-28T15:21:26.606Z</time></trkpt><trkpt lat="39.2949311" lon="16.963472"><ele>507.0</ele><time>2026-03-28T15:21:28.612Z</time></trkpt><trkpt lat="39.2949017" lon="16.9635998"><ele>510.0</ele><time>2026-03-28T15:21:30.619Z</time></trkpt><trkpt lat="39.2948568" lon="16.9637189"><ele>513.0</ele><time>2026-03-28T15:21:32.615Z</time></trkpt><trkpt lat="39.2947857" lon="16.9638423"><ele>516.0</ele><time>2026-03-28T15:21:34.621Z</time></trkpt><trkpt lat="39.2947236" lon="16.9639097"><ele>519.0</ele><time>2026-03-28T15:21:35.624Z</time></trkpt><trkpt lat="39.2946637" lon="16.9639985"><ele>522.0</ele><time>2026-03-28T15:21:36.616Z</time></trkpt><trkpt lat="39.2945973" lon="16.9640979"><ele>518.4</ele><time>2026-03-28T15:21:37.607Z</time></trkpt><trkpt lat="39.2945314" lon="16.9642036"><ele>514.8000000000001</ele><time>2026-03-28T15:21:38.609Z</time></trkpt><trkpt lat="39.2944572" lon="16.9642952"><ele>511.2</ele><time>2026-03-28T15:21:39.613Z</time></trkpt><trkpt lat="39.2944151" lon="16.9644029"><ele>507.6</ele><time>2026-03-28T15:21:40.609Z</time></trkpt><trkpt lat="39.2943763" lon="16.9645157"><ele>504.0</ele><time>2026-03-28T15:21:41.61Z</time></trkpt><trkpt lat="39.2943295" lon="16.9646254"><ele>504.0</ele><time>2026-03-28T15:21:42.616Z</time></trkpt><trkpt lat="39.2942863" lon="16.9647536"><ele>504.0</ele><time>2026-03-28T15:21:43.62Z</time></trkpt><trkpt lat="39.2942611" lon="16.9648908"><ele>504.0</ele><time>2026-03-28T15:21:44.614Z</time></trkpt><trkpt lat="39.2942571" lon="16.9650157"><ele>504.0</ele><time>2026-03-28T15:21:45.605Z</time></trkpt><trkpt lat="39.2942445" lon="16.9651202"><ele>504.0</ele><time>2026-03-28T15:21:46.628Z</time></trkpt><trkpt lat="39.2942042" lon="16.9652096"><ele>508.0</ele><time>2026-03-28T15:21:47.616Z</time></trkpt><trkpt lat="39.2941366" lon="16.9652929"><ele>512.0</ele><time>2026-03-28T15:21:48.61Z</time></trkpt><trkpt lat="39.2940834" lon="16.9653752"><ele>516.0</ele><time>2026-03-28T15:21:49.609Z</time></trkpt><trkpt lat="39.2940514" lon="16.9654845"><ele>520.0</ele><time>2026-03-28T15:21:50.611Z</time></trkpt><trkpt lat="39.2940254" lon="16.9656118"><ele>524.0</ele><time>2026-03-28T15:21:51.607Z</time></trkpt><trkpt lat="39.2939906" lon="16.9657475"><ele>524.0</ele><time>2026-03-28T15:21:52.606Z</time></trkpt><trkpt lat="39.2939605" lon="16.9658669"><ele>524.0</ele><time>2026-03-28T15:21:53.62Z</time></trkpt><trkpt lat="39.293935" lon="16.9659415"><ele>524.0</ele><time>2026-03-28T15:21:54.612Z</time></trkpt><trkpt lat="39.293957" lon="16.9660431"><ele>524.0</ele><time>2026-03-28T15:21:56.613Z</time></trkpt><trkpt lat="39.2940296" lon="16.9660252"><ele>524.0</ele><time>2026-03-28T15:21:58.606Z</time></trkpt><trkpt lat="39.2940892" lon="16.9659308"><ele>524.0</ele><time>2026-03-28T15:21:59.621Z</time></trkpt><trkpt lat="39.2941726" lon="16.9658217"><ele>524.0</ele><time>2026-03-28T15:22:00.611Z</time></trkpt><trkpt lat="39.2942654" lon="16.9657095"><ele>524.0</ele><time>2026-03-28T15:22:01.607Z</time></trkpt><trkpt lat="39.2943438" lon="16.9656217"><ele>524.0</ele><time>2026-03-28T15:22:02.608Z</time></trkpt><trkpt lat="39.2944019" lon="16.9655589"><ele>524.0</ele><time>2026-03-28T15:22:03.608Z</time></trkpt><trkpt lat="39.2944776" lon="16.9655025"><ele>524.0</ele><time>2026-03-28T15:22:05.616Z</time></trkpt><trkpt lat="39.2944381" lon="16.9656753"><ele>524.0</ele><time>2026-03-28T15:22:08.616Z</time></trkpt><trkpt lat="39.2943683" lon="16.9657943"><ele>524.0</ele><time>2026-03-28T15:22:09.618Z</time></trkpt><trkpt lat="39.2943058" lon="16.965913"><ele>524.0</ele><time>2026-03-28T15:22:10.606Z</time></trkpt><trkpt lat="39.2942698" lon="16.9660475"><ele>524.0</ele><time>2026-03-28T15:22:11.62Z</time></trkpt><trkpt lat="39.2942371" lon="16.966187"><ele>528.6</ele><time>2026-03-28T15:22:12.607Z</time></trkpt><trkpt lat="39.2942242" lon="16.9663371"><ele>533.2</ele><time>2026-03-28T15:22:13.611Z</time></trkpt><trkpt lat="39.2942013" lon="16.9664897"><ele>537.8000000000001</ele><time>2026-03-28T15:22:14.609Z</time></trkpt><trkpt lat="39.2941784" lon="16.9666117"><ele>542.4</ele><time>2026-03-28T15:22:15.612Z</time></trkpt><trkpt lat="39.2941502" lon="16.9667006"><ele>547.0</ele><time>2026-03-28T15:22:16.619Z</time></trkpt><trkpt lat="39.2940797" lon="16.9668379"><ele>545.5714285714286</ele><time>2026-03-28T15:22:18.61Z</time></trkpt><trkpt lat="39.2940341" lon="16.9669001"><ele>544.1428571428571</ele><time>2026-03-28T15:22:19.617Z</time></trkpt><trkpt lat="39.293984" lon="16.9669507"><ele>542.7142857142857</ele><time>2026-03-28T15:22:20.613Z</time></trkpt><trkpt lat="39.2939254" lon="16.9669997"><ele>541.2857142857142</ele><time>2026-03-28T15:22:21.606Z</time></trkpt><trkpt lat="39.2938619" lon="16.9670576"><ele>539.8571428571429</ele><time>2026-03-28T15:22:22.61Z</time></trkpt><trkpt lat="39.2938101" lon="16.9671367"><ele>538.4285714285713</ele><time>2026-03-28T15:22:23.618Z</time></trkpt><trkpt lat="39.2937758" lon="16.9672308"><ele>537.0</ele><time>2026-03-28T15:22:24.613Z</time></trkpt><trkpt lat="39.293762" lon="16.9673267"><ele>537.0</ele><time>2026-03-28T15:22:25.619Z</time></trkpt><trkpt lat="39.2937645" lon="16.9674152"><ele>537.0</ele><time>2026-03-28T15:22:26.609Z</time></trkpt><trkpt lat="39.2937632" lon="16.9675707"><ele>537.0</ele><time>2026-03-28T15:22:28.606Z</time></trkpt><trkpt lat="39.2936991" lon="16.9677025"><ele>537.0</ele><time>2026-03-28T15:22:30.613Z</time></trkpt><trkpt lat="39.2936301" lon="16.9677532"><ele>537.0</ele><time>2026-03-28T15:22:31.616Z</time></trkpt><trkpt lat="39.2935484" lon="16.9678062"><ele>543.3333333333334</ele><time>2026-03-28T15:22:32.61Z</time></trkpt><trkpt lat="39.2934744" lon="16.9678829"><ele>549.6666666666666</ele><time>2026-03-28T15:22:33.616Z</time></trkpt><trkpt lat="39.2934184" lon="16.9679646"><ele>556.0</ele><time>2026-03-28T15:22:34.62Z</time></trkpt><trkpt lat="39.2933678" lon="16.9680283"><ele>562.3333333333333</ele><time>2026-03-28T15:22:35.62Z</time></trkpt><trkpt lat="39.2933118" lon="16.9680846"><ele>568.6666666666666</ele><time>2026-03-28T15:22:36.612Z</time></trkpt><trkpt lat="39.2932099" lon="16.9681637"><ele>575.0</ele><time>2026-03-28T15:22:38.615Z</time></trkpt><trkpt lat="39.2930892" lon="16.9681836"><ele>573.3333333333333</ele><time>2026-03-28T15:22:40.61Z</time></trkpt><trkpt lat="39.2930021" lon="16.9681788"><ele>571.6666666666666</ele><time>2026-03-28T15:22:42.602Z</time></trkpt><trkpt lat="39.2929364" lon="16.968177"><ele>570.0</ele><time>2026-03-28T15:22:44.612Z</time></trkpt><trkpt lat="39.2929062" lon="16.9682618"><ele>568.3333333333334</ele><time>2026-03-28T15:22:46.617Z</time></trkpt><trkpt lat="39.2929542" lon="16.9683265"><ele>566.6666666666667</ele><time>2026-03-28T15:22:48.616Z</time></trkpt><trkpt lat="39.2930166" lon="16.9683981"><ele>565.0</ele><time>2026-03-28T15:22:50.616Z</time></trkpt><trkpt lat="39.2931336" lon="16.9685083"><ele>569.4</ele><time>2026-03-28T15:22:52.624Z</time></trkpt><trkpt lat="39.2932157" lon="16.9685797"><ele>573.8</ele><time>2026-03-28T15:22:53.61Z</time></trkpt><trkpt lat="39.293303" lon="16.9686412"><ele>578.2</ele><time>2026-03-28T15:22:54.604Z</time></trkpt><trkpt lat="39.2933591" lon="16.9687146"><ele>582.6</ele><time>2026-03-28T15:22:55.619Z</time></trkpt><trkpt lat="39.2933556" lon="16.9688166"><ele>587.0</ele><time>2026-03-28T15:22:57.625Z</time></trkpt><trkpt lat="39.2933173" lon="16.9689258"><ele>587.0</ele><time>2026-03-28T15:23:00.609Z</time></trkpt><trkpt lat="39.2932891" lon="16.969012"><ele>587.0</ele><time>2026-03-28T15:23:01.618Z</time></trkpt><trkpt lat="39.2932515" lon="16.9691247"><ele>587.0</ele><time>2026-03-28T15:23:02.611Z</time></trkpt><trkpt lat="39.2932218" lon="16.9692186"><ele>587.0</ele><time>2026-03-28T15:23:03.622Z</time></trkpt><trkpt lat="39.2932027" lon="16.9693006"><ele>587.0</ele><time>2026-03-28T15:23:04.613Z</time></trkpt><trkpt lat="39.2931862" lon="16.9694364"><ele>587.0</ele><time>2026-03-28T15:23:06.615Z</time></trkpt><trkpt lat="39.2931855" lon="16.9695392"><ele>588.0</ele><time>2026-03-28T15:23:09.608Z</time></trkpt><trkpt lat="39.2931898" lon="16.9696271"><ele>589.0</ele><time>2026-03-28T15:23:12.611Z</time></trkpt><trkpt lat="39.2932365" lon="16.9697013"><ele>590.0</ele><time>2026-03-28T15:23:15.618Z</time></trkpt><trkpt lat="39.2932963" lon="16.9696343"><ele>591.0</ele><time>2026-03-28T15:23:18.614Z</time></trkpt><trkpt lat="39.293339" lon="16.9695695"><ele>592.0</ele><time>2026-03-28T15:23:19.633Z</time></trkpt><trkpt lat="39.2933946" lon="16.969487"><ele>593.0</ele><time>2026-03-28T15:23:20.613Z</time></trkpt><trkpt lat="39.2934484" lon="16.9694139"><ele>593.0</ele><time>2026-03-28T15:23:21.61Z</time></trkpt><trkpt lat="39.2935051" lon="16.9693418"><ele>593.0</ele><time>2026-03-28T15:23:22.619Z</time></trkpt><trkpt lat="39.2935779" lon="16.9692514"><ele>593.0</ele><time>2026-03-28T15:23:23.626Z</time></trkpt><trkpt lat="39.2936749" lon="16.9691338"><ele>593.0</ele><time>2026-03-28T15:23:24.61Z</time></trkpt><trkpt lat="39.2937886" lon="16.969003"><ele>591.75</ele><time>2026-03-28T15:23:25.605Z</time></trkpt><trkpt lat="39.2938983" lon="16.9688856"><ele>590.5</ele><time>2026-03-28T15:23:26.61Z</time></trkpt><trkpt lat="39.293998" lon="16.9687848"><ele>589.25</ele><time>2026-03-28T15:23:27.613Z</time></trkpt><trkpt lat="39.2940886" lon="16.9686894"><ele>588.0</ele><time>2026-03-28T15:23:28.613Z</time></trkpt><trkpt lat="39.294169" lon="16.9686143"><ele>588.0</ele><time>2026-03-28T15:23:29.608Z</time></trkpt><trkpt lat="39.2942492" lon="16.9685418"><ele>588.0</ele><time>2026-03-28T15:23:30.624Z</time></trkpt><trkpt lat="39.2943359" lon="16.9684605"><ele>588.0</ele><time>2026-03-28T15:23:31.624Z</time></trkpt><trkpt lat="39.2944288" lon="16.9683671"><ele>588.0</ele><time>2026-03-28T15:23:32.61Z</time></trkpt><trkpt lat="39.2945253" lon="16.9682702"><ele>588.0</ele><time>2026-03-28T15:23:33.613Z</time></trkpt><trkpt lat="39.2946289" lon="16.9681717"><ele>589.6666666666666</ele><time>2026-03-28T15:23:34.613Z</time></trkpt><trkpt lat="39.2947558" lon="16.9680552"><ele>591.3333333333333</ele><time>2026-03-28T15:23:35.617Z</time></trkpt><trkpt lat="39.2948871" lon="16.9679261"><ele>593.0</ele><time>2026-03-28T15:23:36.622Z</time></trkpt><trkpt lat="39.295014" lon="16.9677889"><ele>593.0</ele><time>2026-03-28T15:23:37.611Z</time></trkpt><trkpt lat="39.295127" lon="16.9676583"><ele>593.0</ele><time>2026-03-28T15:23:38.613Z</time></trkpt><trkpt lat="39.2952254" lon="16.9675443"><ele>593.0</ele><time>2026-03-28T15:23:39.616Z</time></trkpt><trkpt lat="39.2953061" lon="16.9674432"><ele>593.0</ele><time>2026-03-28T15:23:40.612Z</time></trkpt><trkpt lat="39.2953736" lon="16.9673831"><ele>594.6666666666666</ele><time>2026-03-28T15:23:41.608Z</time></trkpt><trkpt lat="39.2954362" lon="16.9673455"><ele>596.3333333333333</ele><time>2026-03-28T15:23:42.621Z</time></trkpt><trkpt lat="39.2954964" lon="16.9673131"><ele>598.0</ele><time>2026-03-28T15:23:43.612Z</time></trkpt><trkpt lat="39.2955672" lon="16.9672886"><ele>599.6666666666666</ele><time>2026-03-28T15:23:44.608Z</time></trkpt><trkpt lat="39.2956368" lon="16.967265"><ele>601.3333333333334</ele><time>2026-03-28T15:23:45.619Z</time></trkpt><trkpt lat="39.2956969" lon="16.9672377"><ele>603.0</ele><time>2026-03-28T15:23:46.616Z</time></trkpt><trkpt lat="39.2957942" lon="16.9671671"><ele>603.0</ele><time>2026-03-28T15:23:48.616Z</time></trkpt><trkpt lat="39.2958739" lon="16.9670566"><ele>603.0</ele><time>2026-03-28T15:23:50.618Z</time></trkpt><trkpt lat="39.2959227" lon="16.9669271"><ele>603.0</ele><time>2026-03-28T15:23:52.618Z</time></trkpt><trkpt lat="39.2959902" lon="16.9667814"><ele>603.0</ele><time>2026-03-28T15:23:54.612Z</time></trkpt><trkpt lat="39.296034" lon="16.9666772"><ele>604.5</ele><time>2026-03-28T15:23:55.619Z</time></trkpt><trkpt lat="39.2960642" lon="16.9665599"><ele>606.0</ele><time>2026-03-28T15:23:56.607Z</time></trkpt><trkpt lat="39.2960999" lon="16.9664555"><ele>607.5</ele><time>2026-03-28T15:23:57.618Z</time></trkpt><trkpt lat="39.2961329" lon="16.9663655"><ele>609.0</ele><time>2026-03-28T15:23:58.615Z</time></trkpt><trkpt lat="39.2961627" lon="16.9662735"><ele>610.5</ele><time>2026-03-28T15:23:59.617Z</time></trkpt><trkpt lat="39.2961938" lon="16.9661857"><ele>612.0</ele><time>2026-03-28T15:24:00.614Z</time></trkpt><trkpt lat="39.2962246" lon="16.9660946"><ele>612.0</ele><time>2026-03-28T15:24:01.628Z</time></trkpt><trkpt lat="39.2962505" lon="16.9660165"><ele>612.0</ele><time>2026-03-28T15:24:02.605Z</time></trkpt><trkpt lat="39.296288" lon="16.9659046"><ele>612.0</ele><time>2026-03-28T15:24:04.618Z</time></trkpt><trkpt lat="39.2963313" lon="16.9657735"><ele>612.0</ele><time>2026-03-28T15:24:06.609Z</time></trkpt><trkpt lat="39.2963774" lon="16.9656344"><ele>612.0</ele><time>2026-03-28T15:24:08.619Z</time></trkpt><trkpt lat="39.2964398" lon="16.9655104"><ele>614.1666666666666</ele><time>2026-03-28T15:24:10.61Z</time></trkpt><trkpt lat="39.2965063" lon="16.9654354"><ele>616.3333333333334</ele><time>2026-03-28T15:24:12.611Z</time></trkpt><trkpt lat="39.2965503" lon="16.9653518"><ele>618.5</ele><time>2026-03-28T15:24:16.605Z</time></trkpt><trkpt lat="39.2965974" lon="16.9652521"><ele>620.6666666666667</ele><time>2026-03-28T15:24:18.609Z</time></trkpt><trkpt lat="39.2966566" lon="16.9652086"><ele>622.8333333333334</ele><time>2026-03-28T15:24:19.613Z</time></trkpt><trkpt lat="39.2967246" lon="16.9651771"><ele>625.0</ele><time>2026-03-28T15:24:20.607Z</time></trkpt><trkpt lat="39.2968128" lon="16.9651466"><ele>625.0</ele><time>2026-03-28T15:24:21.615Z</time></trkpt><trkpt lat="39.296903" lon="16.9650828"><ele>625.0</ele><time>2026-03-28T15:24:22.608Z</time></trkpt><trkpt lat="39.2969825" lon="16.9650269"><ele>625.0</ele><time>2026-03-28T15:24:23.609Z</time></trkpt><trkpt lat="39.2970719" lon="16.9649299"><ele>625.0</ele><time>2026-03-28T15:24:25.622Z</time></trkpt><trkpt lat="39.2970767" lon="16.9647585"><ele>625.0</ele><time>2026-03-28T15:24:27.62Z</time></trkpt><trkpt lat="39.2970367" lon="16.9646838"><ele>627.4</ele><time>2026-03-28T15:24:28.613Z</time></trkpt><trkpt lat="39.2969851" lon="16.9646286"><ele>629.8</ele><time>2026-03-28T15:24:29.616Z</time></trkpt><trkpt lat="39.2968882" lon="16.9645563"><ele>632.2</ele><time>2026-03-28T15:24:31.629Z</time></trkpt><trkpt lat="39.2968002" lon="16.9645095"><ele>634.6</ele><time>2026-03-28T15:24:33.62Z</time></trkpt><trkpt lat="39.2967065" lon="16.9644921"><ele>637.0</ele><time>2026-03-28T15:24:35.614Z</time></trkpt><trkpt lat="39.296622" lon="16.9644913"><ele>637.0</ele><time>2026-03-28T15:24:59.633Z</time></trkpt><trkpt lat="39.2965827" lon="16.9645703"><ele>637.0</ele><time>2026-03-28T15:25:01.632Z</time></trkpt><trkpt lat="39.2966783" lon="16.9645183"><ele>637.0</ele><time>2026-03-28T15:36:27.616Z</time></trkpt><trkpt lat="39.2967557" lon="16.9645212"><ele>637.0</ele><time>2026-03-28T15:36:29.621Z</time></trkpt><trkpt lat="39.2968227" lon="16.9645439"><ele>637.0</ele><time>2026-03-28T15:36:31.61Z</time></trkpt><trkpt lat="39.2969149" lon="16.9646019"><ele>637.0</ele><time>2026-03-28T15:36:34.614Z</time></trkpt><trkpt lat="39.296985" lon="16.9646597"><ele>637.0</ele><time>2026-03-28T15:36:36.621Z</time></trkpt><trkpt lat="39.2970656" lon="16.9647395"><ele>637.0</ele><time>2026-03-28T15:36:38.61Z</time></trkpt><trkpt lat="39.2970942" lon="16.9648643"><ele>637.0</ele><time>2026-03-28T15:36:40.619Z</time></trkpt><trkpt lat="39.2970573" lon="16.9650045"><ele>637.0</ele><time>2026-03-28T15:36:42.604Z</time></trkpt><trkpt lat="39.2969995" lon="16.965082"><ele>637.0</ele><time>2026-03-28T15:36:43.612Z</time></trkpt><trkpt lat="39.2969115" lon="16.9651284"><ele>635.0</ele><time>2026-03-28T15:36:44.61Z</time></trkpt><trkpt lat="39.2968241" lon="16.9651856"><ele>633.0</ele><time>2026-03-28T15:36:45.603Z</time></trkpt><trkpt lat="39.2967584" lon="16.9652207"><ele>631.0</ele><time>2026-03-28T15:36:46.61Z</time></trkpt><trkpt lat="39.2966486" lon="16.9652688"><ele>629.0</ele><time>2026-03-28T15:36:48.608Z</time></trkpt><trkpt lat="39.2965813" lon="16.9653242"><ele>627.0</ele><time>2026-03-28T15:36:50.606Z</time></trkpt><trkpt lat="39.296531" lon="16.9654105"><ele>625.0</ele><time>2026-03-28T15:37:00.616Z</time></trkpt><trkpt lat="39.2964757" lon="16.9654684"><ele>625.0</ele><time>2026-03-28T15:37:02.607Z</time></trkpt><trkpt lat="39.2964259" lon="16.9655404"><ele>625.0</ele><time>2026-03-28T15:37:05.615Z</time></trkpt><trkpt lat="39.2963764" lon="16.9656466"><ele>625.0</ele><time>2026-03-28T15:37:08.606Z</time></trkpt><trkpt lat="39.2963393" lon="16.9657245"><ele>625.0</ele><time>2026-03-28T15:37:11.612Z</time></trkpt><trkpt lat="39.29631" lon="16.965808"><ele>625.0</ele><time>2026-03-28T15:37:15.609Z</time></trkpt><trkpt lat="39.2962777" lon="16.9659112"><ele>625.0</ele><time>2026-03-28T15:37:18.614Z</time></trkpt><trkpt lat="39.2962507" lon="16.965995"><ele>622.4</ele><time>2026-03-28T15:37:20.615Z</time></trkpt><trkpt lat="39.2962191" lon="16.9660882"><ele>619.8</ele><time>2026-03-28T15:37:22.613Z</time></trkpt><trkpt lat="39.2961849" lon="16.9661918"><ele>617.2</ele><time>2026-03-28T15:37:24.615Z</time></trkpt><trkpt lat="39.2961472" lon="16.9663022"><ele>614.6</ele><time>2026-03-28T15:37:26.614Z</time></trkpt><trkpt lat="39.2961129" lon="16.9664247"><ele>612.0</ele><time>2026-03-28T15:37:28.609Z</time></trkpt><trkpt lat="39.2960849" lon="16.9665377"><ele>612.0</ele><time>2026-03-28T15:37:30.62Z</time></trkpt><trkpt lat="39.2960648" lon="16.9666308"><ele>612.0</ele><time>2026-03-28T15:37:32.613Z</time></trkpt><trkpt lat="39.296055" lon="16.9667179"><ele>612.0</ele><time>2026-03-28T15:37:34.612Z</time></trkpt><trkpt lat="39.2960461" lon="16.9668097"><ele>612.0</ele><time>2026-03-28T15:37:36.614Z</time></trkpt><trkpt lat="39.2960335" lon="16.9669145"><ele>612.0</ele><time>2026-03-28T15:37:38.613Z</time></trkpt><trkpt lat="39.2960092" lon="16.9670467"><ele>612.0</ele><time>2026-03-28T15:37:40.611Z</time></trkpt><trkpt lat="39.2959946" lon="16.9671892"><ele>610.5</ele><time>2026-03-28T15:37:42.621Z</time></trkpt><trkpt lat="39.2959903" lon="16.9672989"><ele>609.0</ele><time>2026-03-28T15:37:44.608Z</time></trkpt><trkpt lat="39.295999" lon="16.9674467"><ele>607.5</ele><time>2026-03-28T15:37:46.611Z</time></trkpt><trkpt lat="39.2960108" lon="16.9675471"><ele>606.0</ele><time>2026-03-28T15:37:47.615Z</time></trkpt><trkpt lat="39.2960204" lon="16.9676284"><ele>604.5</ele><time>2026-03-28T15:37:48.603Z</time></trkpt><trkpt lat="39.296041" lon="16.9677415"><ele>603.0</ele><time>2026-03-28T15:37:50.614Z</time></trkpt><trkpt lat="39.2960633" lon="16.9678478"><ele>601.0</ele><time>2026-03-28T15:37:52.609Z</time></trkpt><trkpt lat="39.2960812" lon="16.9679896"><ele>599.0</ele><time>2026-03-28T15:37:54.61Z</time></trkpt><trkpt lat="39.2960877" lon="16.9680769"><ele>597.0</ele><time>2026-03-28T15:37:55.601Z</time></trkpt><trkpt lat="39.2960939" lon="16.9682193"><ele>595.0</ele><time>2026-03-28T15:37:57.615Z</time></trkpt><trkpt lat="39.2960914" lon="16.9683025"><ele>593.0</ele><time>2026-03-28T15:37:58.603Z</time></trkpt><trkpt lat="39.2960795" lon="16.9683936"><ele>591.0</ele><time>2026-03-28T15:37:59.608Z</time></trkpt><trkpt lat="39.2960867" lon="16.968527"><ele>587.75</ele><time>2026-03-28T15:38:01.615Z</time></trkpt><trkpt lat="39.2961244" lon="16.9686309"><ele>584.5</ele><time>2026-03-28T15:38:03.615Z</time></trkpt><trkpt lat="39.2961723" lon="16.9687561"><ele>581.25</ele><time>2026-03-28T15:38:05.608Z</time></trkpt><trkpt lat="39.2962178" lon="16.9689094"><ele>578.0</ele><time>2026-03-28T15:38:07.618Z</time></trkpt><trkpt lat="39.2962667" lon="16.96906"><ele>578.0</ele><time>2026-03-28T15:38:09.62Z</time></trkpt><trkpt lat="39.2963746" lon="16.9691794"><ele>578.0</ele><time>2026-03-28T15:38:11.616Z</time></trkpt><trkpt lat="39.2964624" lon="16.9692234"><ele>578.0</ele><time>2026-03-28T15:38:12.604Z</time></trkpt><trkpt lat="39.2965345" lon="16.9692401"><ele>578.0</ele><time>2026-03-28T15:38:13.622Z</time></trkpt><trkpt lat="39.2966356" lon="16.969276"><ele>578.0</ele><time>2026-03-28T15:38:15.629Z</time></trkpt><trkpt lat="39.2967142" lon="16.969315"><ele>577.1999999999999</ele><time>2026-03-28T15:38:17.62Z</time></trkpt><trkpt lat="39.2967786" lon="16.9693893"><ele>576.4</ele><time>2026-03-28T15:38:19.631Z</time></trkpt><trkpt lat="39.2968562" lon="16.9694842"><ele>575.5999999999999</ele><time>2026-03-28T15:38:21.62Z</time></trkpt><trkpt lat="39.2969445" lon="16.969572"><ele>574.8</ele><time>2026-03-28T15:38:23.62Z</time></trkpt><trkpt lat="39.2970431" lon="16.9696778"><ele>574.0</ele><time>2026-03-28T15:38:25.609Z</time></trkpt><trkpt lat="39.2971017" lon="16.9697441"><ele>574.0</ele><time>2026-03-28T15:38:26.61Z</time></trkpt><trkpt lat="39.2971649" lon="16.9698055"><ele>574.0</ele><time>2026-03-28T15:38:27.612Z</time></trkpt><trkpt lat="39.2972298" lon="16.9698627"><ele>574.0</ele><time>2026-03-28T15:38:28.608Z</time></trkpt><trkpt lat="39.2972885" lon="16.9699226"><ele>574.0</ele><time>2026-03-28T15:38:29.615Z</time></trkpt><trkpt lat="39.2973386" lon="16.9699944"><ele>574.0</ele><time>2026-03-28T15:38:30.616Z</time></trkpt><trkpt lat="39.2973774" lon="16.9700773"><ele>574.0</ele><time>2026-03-28T15:38:31.619Z</time></trkpt><trkpt lat="39.2974032" lon="16.970163"><ele>573.2</ele><time>2026-03-28T15:38:32.621Z</time></trkpt><trkpt lat="39.2974497" lon="16.9703172"><ele>572.4</ele><time>2026-03-28T15:38:34.612Z</time></trkpt><trkpt lat="39.2975152" lon="16.9704501"><ele>571.6</ele><time>2026-03-28T15:38:36.608Z</time></trkpt><trkpt lat="39.2975494" lon="16.9705187"><ele>570.8</ele><time>2026-03-28T15:38:37.624Z</time></trkpt><trkpt lat="39.2975817" lon="16.9705926"><ele>570.0</ele><time>2026-03-28T15:38:38.614Z</time></trkpt><trkpt lat="39.2976492" lon="16.9707337"><ele>570.0</ele><time>2026-03-28T15:38:40.608Z</time></trkpt><trkpt lat="39.297686" lon="16.9708185"><ele>570.0</ele><time>2026-03-28T15:38:41.615Z</time></trkpt><trkpt lat="39.2977075" lon="16.9709199"><ele>570.0</ele><time>2026-03-28T15:38:42.605Z</time></trkpt><trkpt lat="39.2977265" lon="16.9710204"><ele>570.0</ele><time>2026-03-28T15:38:43.614Z</time></trkpt><trkpt lat="39.2977502" lon="16.9711878"><ele>570.0</ele><time>2026-03-28T15:38:45.618Z</time></trkpt><trkpt lat="39.2977711" lon="16.9712841"><ele>570.0</ele><time>2026-03-28T15:38:46.614Z</time></trkpt><trkpt lat="39.2977802" lon="16.9713857"><ele>568.0</ele><time>2026-03-28T15:38:47.617Z</time></trkpt><trkpt lat="39.2977913" lon="16.9714981"><ele>566.0</ele><time>2026-03-28T15:38:48.612Z</time></trkpt><trkpt lat="39.2978086" lon="16.9716065"><ele>564.0</ele><time>2026-03-28T15:38:49.613Z</time></trkpt><trkpt lat="39.2978199" lon="16.9717138"><ele>562.0</ele><time>2026-03-28T15:38:50.607Z</time></trkpt><trkpt lat="39.2978133" lon="16.9718192"><ele>560.0</ele><time>2026-03-28T15:38:51.608Z</time></trkpt><trkpt lat="39.2977716" lon="16.9719259"><ele>558.0</ele><time>2026-03-28T15:38:52.61Z</time></trkpt><trkpt lat="39.2977236" lon="16.9720207"><ele>555.6666666666666</ele><time>2026-03-28T15:38:53.616Z</time></trkpt><trkpt lat="39.2976812" lon="16.9721066"><ele>553.3333333333334</ele><time>2026-03-28T15:38:54.605Z</time></trkpt><trkpt lat="39.2976334" lon="16.972186"><ele>551.0</ele><time>2026-03-28T15:38:55.609Z</time></trkpt><trkpt lat="39.297591" lon="16.9722674"><ele>548.6666666666667</ele><time>2026-03-28T15:38:56.61Z</time></trkpt><trkpt lat="39.2975533" lon="16.97236"><ele>546.3333333333334</ele><time>2026-03-28T15:38:57.613Z</time></trkpt><trkpt lat="39.2975208" lon="16.9724771"><ele>544.0</ele><time>2026-03-28T15:38:58.61Z</time></trkpt><trkpt lat="39.2975122" lon="16.9726062"><ele>541.6666666666667</ele><time>2026-03-28T15:38:59.623Z</time></trkpt><trkpt lat="39.2974966" lon="16.9727291"><ele>539.3333333333334</ele><time>2026-03-28T15:39:00.611Z</time></trkpt><trkpt lat="39.2974708" lon="16.9728273"><ele>537.0</ele><time>2026-03-28T15:39:01.6Z</time></trkpt><trkpt lat="39.2974242" lon="16.9729088"><ele>534.6666666666666</ele><time>2026-03-28T15:39:02.607Z</time></trkpt><trkpt lat="39.2973679" lon="16.9729925"><ele>532.3333333333333</ele><time>2026-03-28T15:39:03.609Z</time></trkpt><trkpt lat="39.2973234" lon="16.9730695"><ele>530.0</ele><time>2026-03-28T15:39:04.61Z</time></trkpt><trkpt lat="39.2973" lon="16.9731605"><ele>530.0</ele><time>2026-03-28T15:39:05.608Z</time></trkpt><trkpt lat="39.2973031" lon="16.9732573"><ele>530.0</ele><time>2026-03-28T15:39:06.604Z</time></trkpt><trkpt lat="39.2973266" lon="16.9733555"><ele>530.0</ele><time>2026-03-28T15:39:07.61Z</time></trkpt><trkpt lat="39.297356" lon="16.9734529"><ele>530.0</ele><time>2026-03-28T15:39:08.61Z</time></trkpt><trkpt lat="39.297387" lon="16.9735586"><ele>530.0</ele><time>2026-03-28T15:39:09.607Z</time></trkpt><trkpt lat="39.2974126" lon="16.9736485"><ele>530.0</ele><time>2026-03-28T15:39:10.608Z</time></trkpt><trkpt lat="39.2974394" lon="16.9737723"><ele>526.2</ele><time>2026-03-28T15:39:11.621Z</time></trkpt><trkpt lat="39.2974632" lon="16.9738882"><ele>522.4</ele><time>2026-03-28T15:39:12.61Z</time></trkpt><trkpt lat="39.2974819" lon="16.9739999"><ele>518.6</ele><time>2026-03-28T15:39:13.607Z</time></trkpt><trkpt lat="39.2975018" lon="16.9741175"><ele>514.8</ele><time>2026-03-28T15:39:14.608Z</time></trkpt><trkpt lat="39.297522" lon="16.9742348"><ele>511.0</ele><time>2026-03-28T15:39:15.611Z</time></trkpt><trkpt lat="39.297527" lon="16.9743583"><ele>508.6666666666667</ele><time>2026-03-28T15:39:16.609Z</time></trkpt><trkpt lat="39.2975388" lon="16.9744698"><ele>506.33333333333337</ele><time>2026-03-28T15:39:17.601Z</time></trkpt><trkpt lat="39.2975502" lon="16.9745709"><ele>504.0</ele><time>2026-03-28T15:39:18.614Z</time></trkpt><trkpt lat="39.2975846" lon="16.9746506"><ele>501.66666666666663</ele><time>2026-03-28T15:39:19.622Z</time></trkpt><trkpt lat="39.2976473" lon="16.974718"><ele>499.3333333333333</ele><time>2026-03-28T15:39:20.606Z</time></trkpt><trkpt lat="39.2977209" lon="16.9747939"><ele>497.0</ele><time>2026-03-28T15:39:21.602Z</time></trkpt><trkpt lat="39.2977775" lon="16.974882"><ele>497.0</ele><time>2026-03-28T15:39:22.611Z</time></trkpt><trkpt lat="39.2978218" lon="16.974961"><ele>497.0</ele><time>2026-03-28T15:39:23.606Z</time></trkpt><trkpt lat="39.2978458" lon="16.9750448"><ele>497.0</ele><time>2026-03-28T15:39:24.602Z</time></trkpt><trkpt lat="39.2978596" lon="16.9751388"><ele>497.0</ele><time>2026-03-28T15:39:25.612Z</time></trkpt><trkpt lat="39.2978692" lon="16.97523"><ele>497.0</ele><time>2026-03-28T15:39:26.608Z</time></trkpt><trkpt lat="39.2978768" lon="16.9753232"><ele>497.0</ele><time>2026-03-28T15:39:27.603Z</time></trkpt><trkpt lat="39.2978885" lon="16.9754249"><ele>497.0</ele><time>2026-03-28T15:39:28.607Z</time></trkpt><trkpt lat="39.2979188" lon="16.9755554"><ele>493.6</ele><time>2026-03-28T15:39:30.609Z</time></trkpt><trkpt lat="39.2980122" lon="16.9756451"><ele>490.20000000000005</ele><time>2026-03-28T15:39:32.612Z</time></trkpt><trkpt lat="39.2981361" lon="16.9757072"><ele>486.8</ele><time>2026-03-28T15:39:34.613Z</time></trkpt><trkpt lat="39.2981903" lon="16.9757793"><ele>483.4</ele><time>2026-03-28T15:39:35.61Z</time></trkpt><trkpt lat="39.2982402" lon="16.9758449"><ele>480.0</ele><time>2026-03-28T15:39:36.611Z</time></trkpt><trkpt lat="39.2982939" lon="16.9759096"><ele>477.8</ele><time>2026-03-28T15:39:37.615Z</time></trkpt><trkpt lat="39.2983828" lon="16.9760185"><ele>475.6</ele><time>2026-03-28T15:39:39.608Z</time></trkpt><trkpt lat="39.2984544" lon="16.9761436"><ele>473.4</ele><time>2026-03-28T15:39:41.624Z</time></trkpt><trkpt lat="39.2985048" lon="16.9762554"><ele>471.2</ele><time>2026-03-28T15:39:43.628Z</time></trkpt><trkpt lat="39.2985219" lon="16.9763601"><ele>469.0</ele><time>2026-03-28T15:39:45.613Z</time></trkpt><trkpt lat="39.2985843" lon="16.976384"><ele>469.00000000000006</ele><time>2026-03-28T15:39:50.613Z</time></trkpt><trkpt lat="39.298572" lon="16.9762599"><ele>469.0</ele><time>2026-03-28T15:39:52.614Z</time></trkpt><trkpt lat="39.2985355" lon="16.9761628"><ele>469.0</ele><time>2026-03-28T15:39:53.625Z</time></trkpt><trkpt lat="39.2984991" lon="16.9760801"><ele>469.0</ele><time>2026-03-28T15:39:54.607Z</time></trkpt><trkpt lat="39.2984525" lon="16.97597"><ele>469.00000000000006</ele><time>2026-03-28T15:39:55.608Z</time></trkpt><trkpt lat="39.2984117" lon="16.9758735"><ele>469.0</ele><time>2026-03-28T15:39:56.614Z</time></trkpt><trkpt lat="39.2983724" lon="16.9757824"><ele>470.83333333333337</ele><time>2026-03-28T15:39:57.61Z</time></trkpt><trkpt lat="39.2983338" lon="16.9756899"><ele>472.6666666666667</ele><time>2026-03-28T15:39:58.602Z</time></trkpt><trkpt lat="39.2983127" lon="16.9755777"><ele>474.5</ele><time>2026-03-28T15:39:59.615Z</time></trkpt><trkpt lat="39.298313" lon="16.9754698"><ele>476.33333333333337</ele><time>2026-03-28T15:40:00.602Z</time></trkpt><trkpt lat="39.2983454" lon="16.9753648"><ele>478.1666666666667</ele><time>2026-03-28T15:40:01.603Z</time></trkpt><trkpt lat="39.2984075" lon="16.9752772"><ele>480.0</ele><time>2026-03-28T15:40:02.612Z</time></trkpt><trkpt lat="39.2984854" lon="16.9752028"><ele>480.0</ele><time>2026-03-28T15:40:03.62Z</time></trkpt><trkpt lat="39.2985367" lon="16.975142"><ele>480.0</ele><time>2026-03-28T15:40:04.616Z</time></trkpt><trkpt lat="39.2985523" lon="16.9750559"><ele>480.0</ele><time>2026-03-28T15:40:05.606Z</time></trkpt><trkpt lat="39.2985422" lon="16.9748913"><ele>480.0</ele><time>2026-03-28T15:40:07.61Z</time></trkpt><trkpt lat="39.2984953" lon="16.9747986"><ele>480.0</ele><time>2026-03-28T15:40:08.61Z</time></trkpt><trkpt lat="39.2984286" lon="16.974721"><ele>480.0</ele><time>2026-03-28T15:40:09.609Z</time></trkpt><trkpt lat="39.2983444" lon="16.974666"><ele>481.3333333333333</ele><time>2026-03-28T15:40:10.611Z</time></trkpt><trkpt lat="39.2982656" lon="16.9745926"><ele>482.66666666666663</ele><time>2026-03-28T15:40:11.607Z</time></trkpt><trkpt lat="39.2982138" lon="16.9744952"><ele>484.0</ele><time>2026-03-28T15:40:12.604Z</time></trkpt><trkpt lat="39.2981615" lon="16.9744269"><ele>485.3333333333333</ele><time>2026-03-28T15:40:13.603Z</time></trkpt><trkpt lat="39.2981068" lon="16.9743746"><ele>486.66666666666663</ele><time>2026-03-28T15:40:14.613Z</time></trkpt><trkpt lat="39.2980523" lon="16.9743281"><ele>488.0</ele><time>2026-03-28T15:40:15.609Z</time></trkpt><trkpt lat="39.2980037" lon="16.9742728"><ele>487.8333333333333</ele><time>2026-03-28T15:40:16.602Z</time></trkpt><trkpt lat="39.2979678" lon="16.9741968"><ele>487.66666666666663</ele><time>2026-03-28T15:40:17.602Z</time></trkpt><trkpt lat="39.2979713" lon="16.9741044"><ele>487.5</ele><time>2026-03-28T15:40:18.602Z</time></trkpt><trkpt lat="39.2980156" lon="16.9740361"><ele>487.33333333333337</ele><time>2026-03-28T15:40:19.637Z</time></trkpt><trkpt lat="39.2980722" lon="16.9739719"><ele>487.1666666666667</ele><time>2026-03-28T15:40:20.61Z</time></trkpt><trkpt lat="39.2981661" lon="16.973955"><ele>487.0</ele><time>2026-03-28T15:40:21.614Z</time></trkpt><trkpt lat="39.2982468" lon="16.9739168"><ele>487.00000000000006</ele><time>2026-03-28T15:40:22.608Z</time></trkpt><trkpt lat="39.298318" lon="16.9738694"><ele>487.0</ele><time>2026-03-28T15:40:23.614Z</time></trkpt><trkpt lat="39.2983852" lon="16.9738178"><ele>487.0</ele><time>2026-03-28T15:40:24.604Z</time></trkpt><trkpt lat="39.2984662" lon="16.9737703"><ele>487.0</ele><time>2026-03-28T15:40:25.608Z</time></trkpt><trkpt lat="39.2985425" lon="16.9737319"><ele>487.00000000000006</ele><time>2026-03-28T15:40:26.611Z</time></trkpt><trkpt lat="39.2986184" lon="16.9736915"><ele>487.0</ele><time>2026-03-28T15:40:27.614Z</time></trkpt><trkpt lat="39.2986895" lon="16.9736569"><ele>487.00000000000006</ele><time>2026-03-28T15:40:28.608Z</time></trkpt><trkpt lat="39.2987637" lon="16.973629"><ele>487.0</ele><time>2026-03-28T15:40:29.603Z</time></trkpt><trkpt lat="39.2988546" lon="16.9735971"><ele>487.0</ele><time>2026-03-28T15:40:30.607Z</time></trkpt><trkpt lat="39.2989398" lon="16.9735628"><ele>487.0</ele><time>2026-03-28T15:40:31.603Z</time></trkpt><trkpt lat="39.2990158" lon="16.9735572"><ele>487.00000000000006</ele><time>2026-03-28T15:40:32.6Z</time></trkpt><trkpt lat="39.2990994" lon="16.9735602"><ele>487.0</ele><time>2026-03-28T15:40:33.609Z</time></trkpt><trkpt lat="39.2991764" lon="16.9735987"><ele>489.33333333333337</ele><time>2026-03-28T15:40:34.605Z</time></trkpt><trkpt lat="39.2992538" lon="16.9736006"><ele>491.6666666666667</ele><time>2026-03-28T15:40:35.605Z</time></trkpt><trkpt lat="39.2993376" lon="16.973569"><ele>494.0</ele><time>2026-03-28T15:40:36.61Z</time></trkpt><trkpt lat="39.2994119" lon="16.973523"><ele>496.33333333333337</ele><time>2026-03-28T15:40:37.617Z</time></trkpt><trkpt lat="39.2994694" lon="16.9734845"><ele>498.6666666666667</ele><time>2026-03-28T15:40:38.612Z</time></trkpt><trkpt lat="39.2995633" lon="16.9734114"><ele>501.0</ele><time>2026-03-28T15:40:40.613Z</time></trkpt><trkpt lat="39.2996612" lon="16.9733221"><ele>501.0</ele><time>2026-03-28T15:40:42.61Z</time></trkpt><trkpt lat="39.2997361" lon="16.9732357"><ele>501.0</ele><time>2026-03-28T15:40:44.62Z</time></trkpt><trkpt lat="39.2998054" lon="16.9731898"><ele>501.0</ele><time>2026-03-28T15:40:46.608Z</time></trkpt><trkpt lat="39.2998963" lon="16.9731743"><ele>501.0</ele><time>2026-03-28T15:40:48.616Z</time></trkpt><trkpt lat="39.3000013" lon="16.9732494"><ele>501.0</ele><time>2026-03-28T15:40:50.602Z</time></trkpt><trkpt lat="39.3000811" lon="16.9733067"><ele>497.6</ele><time>2026-03-28T15:40:52.612Z</time></trkpt><trkpt lat="39.3001722" lon="16.9733379"><ele>494.20000000000005</ele><time>2026-03-28T15:40:54.61Z</time></trkpt><trkpt lat="39.3002698" lon="16.9733345"><ele>490.79999999999995</ele><time>2026-03-28T15:40:56.613Z</time></trkpt><trkpt lat="39.3003479" lon="16.9732823"><ele>487.4</ele><time>2026-03-28T15:40:58.601Z</time></trkpt><trkpt lat="39.3004066" lon="16.9731712"><ele>484.0</ele><time>2026-03-28T15:41:00.607Z</time></trkpt><trkpt lat="39.3004422" lon="16.9730131"><ele>484.0</ele><time>2026-03-28T15:41:02.61Z</time></trkpt><trkpt lat="39.3004758" lon="16.9729403"><ele>483.99999999999994</ele><time>2026-03-28T15:41:03.611Z</time></trkpt><trkpt lat="39.3005037" lon="16.972865"><ele>484.0</ele><time>2026-03-28T15:41:04.616Z</time></trkpt><trkpt lat="39.3005506" lon="16.9728088"><ele>484.0</ele><time>2026-03-28T15:41:05.619Z</time></trkpt><trkpt lat="39.3005739" lon="16.9726744"><ele>483.99999999999994</ele><time>2026-03-28T15:41:07.601Z</time></trkpt><trkpt lat="39.3005684" lon="16.9725931"><ele>484.0</ele><time>2026-03-28T15:41:08.607Z</time></trkpt><trkpt lat="39.3005189" lon="16.9725132"><ele>484.0</ele><time>2026-03-28T15:41:09.611Z</time></trkpt><trkpt lat="39.3004566" lon="16.972445"><ele>485.33333333333337</ele><time>2026-03-28T15:41:10.606Z</time></trkpt><trkpt lat="39.3003974" lon="16.9723724"><ele>486.6666666666667</ele><time>2026-03-28T15:41:11.607Z</time></trkpt><trkpt lat="39.3003327" lon="16.9723024"><ele>488.0</ele><time>2026-03-28T15:41:12.61Z</time></trkpt><trkpt lat="39.3002737" lon="16.9722269"><ele>489.33333333333337</ele><time>2026-03-28T15:41:13.605Z</time></trkpt><trkpt lat="39.3002075" lon="16.9721595"><ele>490.6666666666667</ele><time>2026-03-28T15:41:14.602Z</time></trkpt><trkpt lat="39.300136" lon="16.9720881"><ele>492.0</ele><time>2026-03-28T15:41:15.612Z</time></trkpt><trkpt lat="39.3000579" lon="16.9720293"><ele>492.0</ele><time>2026-03-28T15:41:16.605Z</time></trkpt><trkpt lat="39.2999936" lon="16.9719315"><ele>492.00000000000006</ele><time>2026-03-28T15:41:17.613Z</time></trkpt><trkpt lat="39.2999567" lon="16.9718038"><ele>492.00000000000006</ele><time>2026-03-28T15:41:18.604Z</time></trkpt><trkpt lat="39.2999361" lon="16.9716737"><ele>492.0</ele><time>2026-03-28T15:41:19.612Z</time></trkpt><trkpt lat="39.2999213" lon="16.9715591"><ele>492.0</ele><time>2026-03-28T15:41:20.612Z</time></trkpt><trkpt lat="39.2999005" lon="16.9714381"><ele>490.1666666666667</ele><time>2026-03-28T15:41:21.609Z</time></trkpt><trkpt lat="39.2998917" lon="16.9713495"><ele>488.33333333333337</ele><time>2026-03-28T15:41:22.61Z</time></trkpt><trkpt lat="39.2999311" lon="16.9712167"><ele>486.5</ele><time>2026-03-28T15:41:24.61Z</time></trkpt><trkpt lat="39.3000071" lon="16.9711836"><ele>484.6666666666667</ele><time>2026-03-28T15:41:25.611Z</time></trkpt><trkpt lat="39.3000943" lon="16.9711688"><ele>482.83333333333337</ele><time>2026-03-28T15:41:26.607Z</time></trkpt><trkpt lat="39.3001933" lon="16.9711757"><ele>481.0</ele><time>2026-03-28T15:41:27.608Z</time></trkpt><trkpt lat="39.3002876" lon="16.9712147"><ele>481.0</ele><time>2026-03-28T15:41:28.615Z</time></trkpt><trkpt lat="39.3003764" lon="16.9712534"><ele>481.0</ele><time>2026-03-28T15:41:29.615Z</time></trkpt><trkpt lat="39.3004469" lon="16.9713101"><ele>481.0</ele><time>2026-03-28T15:41:30.609Z</time></trkpt><trkpt lat="39.3005282" lon="16.9713736"><ele>481.0</ele><time>2026-03-28T15:41:31.607Z</time></trkpt><trkpt lat="39.3006317" lon="16.9714321"><ele>481.0</ele><time>2026-03-28T15:41:32.611Z</time></trkpt><trkpt lat="39.3007392" lon="16.971494"><ele>479.5</ele><time>2026-03-28T15:41:33.611Z</time></trkpt><trkpt lat="39.3008526" lon="16.9715532"><ele>478.0</ele><time>2026-03-28T15:41:34.612Z</time></trkpt><trkpt lat="39.3009454" lon="16.9716297"><ele>476.5</ele><time>2026-03-28T15:41:35.605Z</time></trkpt><trkpt lat="39.3010424" lon="16.9717089"><ele>475.0</ele><time>2026-03-28T15:41:36.606Z</time></trkpt><trkpt lat="39.3011154" lon="16.9718353"><ele>473.0</ele><time>2026-03-28T15:41:37.611Z</time></trkpt><trkpt lat="39.3011796" lon="16.9719727"><ele>471.0</ele><time>2026-03-28T15:41:38.605Z</time></trkpt><trkpt lat="39.3012473" lon="16.9720989"><ele>469.0</ele><time>2026-03-28T15:41:39.611Z</time></trkpt><trkpt lat="39.3013129" lon="16.9722011"><ele>467.0</ele><time>2026-03-28T15:41:40.613Z</time></trkpt><trkpt lat="39.3013771" lon="16.9722613"><ele>465.0</ele><time>2026-03-28T15:41:41.612Z</time></trkpt><trkpt lat="39.3014338" lon="16.9723073"><ele>461.6</ele><time>2026-03-28T15:41:42.608Z</time></trkpt><trkpt lat="39.301497" lon="16.9722892"><ele>458.2</ele><time>2026-03-28T15:41:43.602Z</time></trkpt><trkpt lat="39.3015525" lon="16.9722279"><ele>454.79999999999995</ele><time>2026-03-28T15:41:44.611Z</time></trkpt><trkpt lat="39.3015852" lon="16.9721137"><ele>451.4</ele><time>2026-03-28T15:41:45.612Z</time></trkpt><trkpt lat="39.3016117" lon="16.9719765"><ele>448.0</ele><time>2026-03-28T15:41:46.615Z</time></trkpt><trkpt lat="39.3016635" lon="16.9718294"><ele>448.0</ele><time>2026-03-28T15:41:47.617Z</time></trkpt><trkpt lat="39.3017055" lon="16.971702"><ele>447.99999999999994</ele><time>2026-03-28T15:41:48.611Z</time></trkpt><trkpt lat="39.3017417" lon="16.9715735"><ele>447.99999999999994</ele><time>2026-03-28T15:41:49.606Z</time></trkpt><trkpt lat="39.3017682" lon="16.9714353"><ele>448.0</ele><time>2026-03-28T15:41:50.612Z</time></trkpt><trkpt lat="39.3017868" lon="16.9713028"><ele>448.0</ele><time>2026-03-28T15:41:51.614Z</time></trkpt><trkpt lat="39.3017987" lon="16.971183"><ele>452.59999999999997</ele><time>2026-03-28T15:41:52.608Z</time></trkpt><trkpt lat="39.3017879" lon="16.9710698"><ele>457.19999999999993</ele><time>2026-03-28T15:41:53.61Z</time></trkpt><trkpt lat="39.3017548" lon="16.9709502"><ele>461.8</ele><time>2026-03-28T15:41:54.61Z</time></trkpt><trkpt lat="39.3017314" lon="16.9708253"><ele>466.4</ele><time>2026-03-28T15:41:55.615Z</time></trkpt><trkpt lat="39.3017077" lon="16.9706972"><ele>471.0</ele><time>2026-03-28T15:41:56.603Z</time></trkpt><trkpt lat="39.3017142" lon="16.9705681"><ele>472.0</ele><time>2026-03-28T15:41:57.607Z</time></trkpt><trkpt lat="39.3017145" lon="16.9704587"><ele>473.0</ele><time>2026-03-28T15:41:58.608Z</time></trkpt><trkpt lat="39.3016877" lon="16.9703697"><ele>474.0</ele><time>2026-03-28T15:41:59.61Z</time></trkpt><trkpt lat="39.3016563" lon="16.9702825"><ele>475.0</ele><time>2026-03-28T15:42:00.609Z</time></trkpt><trkpt lat="39.3015951" lon="16.9702086"><ele>476.0</ele><time>2026-03-28T15:42:01.607Z</time></trkpt><trkpt lat="39.3015465" lon="16.9701148"><ele>477.0</ele><time>2026-03-28T15:42:02.612Z</time></trkpt><trkpt lat="39.3015141" lon="16.9699956"><ele>477.0</ele><time>2026-03-28T15:42:03.602Z</time></trkpt><trkpt lat="39.301504" lon="16.9698906"><ele>477.0</ele><time>2026-03-28T15:42:04.61Z</time></trkpt><trkpt lat="39.3015072" lon="16.9697958"><ele>477.0</ele><time>2026-03-28T15:42:05.614Z</time></trkpt><trkpt lat="39.3015097" lon="16.9696956"><ele>477.0</ele><time>2026-03-28T15:42:06.619Z</time></trkpt><trkpt lat="39.3015336" lon="16.9695953"><ele>477.0</ele><time>2026-03-28T15:42:07.61Z</time></trkpt><trkpt lat="39.3015607" lon="16.9694777"><ele>477.0</ele><time>2026-03-28T15:42:08.607Z</time></trkpt><trkpt lat="39.3015843" lon="16.9693452"><ele>477.0</ele><time>2026-03-28T15:42:09.612Z</time></trkpt><trkpt lat="39.3016092" lon="16.9692153"><ele>477.00000000000006</ele><time>2026-03-28T15:42:10.609Z</time></trkpt><trkpt lat="39.3016063" lon="16.9690712"><ele>477.00000000000006</ele><time>2026-03-28T15:42:11.6Z</time></trkpt><trkpt lat="39.3016061" lon="16.9689424"><ele>477.0</ele><time>2026-03-28T15:42:12.613Z</time></trkpt><trkpt lat="39.3016028" lon="16.9688337"><ele>477.0</ele><time>2026-03-28T15:42:13.614Z</time></trkpt><trkpt lat="39.3015439" lon="16.9687352"><ele>477.20000000000005</ele><time>2026-03-28T15:42:14.603Z</time></trkpt><trkpt lat="39.3014843" lon="16.9686334"><ele>477.40000000000003</ele><time>2026-03-28T15:42:15.618Z</time></trkpt><trkpt lat="39.3014226" lon="16.968534"><ele>477.59999999999997</ele><time>2026-03-28T15:42:16.609Z</time></trkpt><trkpt lat="39.3014159" lon="16.9684249"><ele>477.79999999999995</ele><time>2026-03-28T15:42:17.61Z</time></trkpt><trkpt lat="39.301431" lon="16.9682968"><ele>478.0</ele><time>2026-03-28T15:42:18.609Z</time></trkpt><trkpt lat="39.3014695" lon="16.9681797"><ele>477.50000000000006</ele><time>2026-03-28T15:42:19.611Z</time></trkpt><trkpt lat="39.3015024" lon="16.9680709"><ele>477.0</ele><time>2026-03-28T15:42:20.609Z</time></trkpt><trkpt lat="39.3015718" lon="16.9680023"><ele>476.5</ele><time>2026-03-28T15:42:21.621Z</time></trkpt><trkpt lat="39.3016381" lon="16.9679405"><ele>476.0</ele><time>2026-03-28T15:42:22.61Z</time></trkpt><trkpt lat="39.3016971" lon="16.9678753"><ele>475.50000000000006</ele><time>2026-03-28T15:42:23.617Z</time></trkpt><trkpt lat="39.3017369" lon="16.9677739"><ele>475.0</ele><time>2026-03-28T15:42:24.606Z</time></trkpt><trkpt lat="39.301749" lon="16.9676719"><ele>475.00000000000006</ele><time>2026-03-28T15:42:25.616Z</time></trkpt><trkpt lat="39.3017709" lon="16.9675835"><ele>475.0</ele><time>2026-03-28T15:42:26.608Z</time></trkpt><trkpt lat="39.3017953" lon="16.9674984"><ele>475.0</ele><time>2026-03-28T15:42:27.627Z</time></trkpt><trkpt lat="39.3018485" lon="16.9674464"><ele>475.0</ele><time>2026-03-28T15:42:28.602Z</time></trkpt><trkpt lat="39.3019248" lon="16.9674732"><ele>475.00000000000006</ele><time>2026-03-28T15:42:29.615Z</time></trkpt><trkpt lat="39.3020018" lon="16.9675051"><ele>475.0</ele><time>2026-03-28T15:42:30.608Z</time></trkpt><trkpt lat="39.3020827" lon="16.9675788"><ele>475.0</ele><time>2026-03-28T15:42:31.624Z</time></trkpt><trkpt lat="39.3021612" lon="16.9676167"><ele>475.0</ele><time>2026-03-28T15:42:32.607Z</time></trkpt><trkpt lat="39.30225" lon="16.9676197"><ele>475.0</ele><time>2026-03-28T15:42:33.608Z</time></trkpt><trkpt lat="39.3023363" lon="16.9676207"><ele>475.0</ele><time>2026-03-28T15:42:34.606Z</time></trkpt><trkpt lat="39.3024426" lon="16.9675827"><ele>475.0</ele><time>2026-03-28T15:42:35.621Z</time></trkpt><trkpt lat="39.3025504" lon="16.9675231"><ele>474.25</ele><time>2026-03-28T15:42:36.601Z</time></trkpt><trkpt lat="39.3026469" lon="16.967457"><ele>473.5</ele><time>2026-03-28T15:42:37.605Z</time></trkpt><trkpt lat="39.3027377" lon="16.9673683"><ele>472.75</ele><time>2026-03-28T15:42:38.618Z</time></trkpt><trkpt lat="39.3028183" lon="16.9672625"><ele>472.0</ele><time>2026-03-28T15:42:39.621Z</time></trkpt><trkpt lat="39.3029019" lon="16.9671646"><ele>472.00000000000006</ele><time>2026-03-28T15:42:40.61Z</time></trkpt><trkpt lat="39.3029918" lon="16.9671018"><ele>472.0</ele><time>2026-03-28T15:42:41.606Z</time></trkpt><trkpt lat="39.3030634" lon="16.9670279"><ele>472.0</ele><time>2026-03-28T15:42:42.608Z</time></trkpt><trkpt lat="39.3031038" lon="16.9669428"><ele>472.0</ele><time>2026-03-28T15:42:43.616Z</time></trkpt><trkpt lat="39.3031388" lon="16.9668657"><ele>472.00000000000006</ele><time>2026-03-28T15:42:44.606Z</time></trkpt><trkpt lat="39.3031367" lon="16.9667714"><ele>472.0</ele><time>2026-03-28T15:42:45.599Z</time></trkpt><trkpt lat="39.3031335" lon="16.9666742"><ele>470.6666666666667</ele><time>2026-03-28T15:42:46.61Z</time></trkpt><trkpt lat="39.3031411" lon="16.9665703"><ele>469.33333333333337</ele><time>2026-03-28T15:42:47.616Z</time></trkpt><trkpt lat="39.3031638" lon="16.9664894"><ele>468.0</ele><time>2026-03-28T15:42:48.612Z</time></trkpt><trkpt lat="39.3032112" lon="16.9664122"><ele>466.66666666666663</ele><time>2026-03-28T15:42:50.605Z</time></trkpt><trkpt lat="39.3032723" lon="16.9665399"><ele>465.3333333333333</ele><time>2026-03-28T15:42:52.61Z</time></trkpt><trkpt lat="39.3032882" lon="16.9666707"><ele>464.0</ele><time>2026-03-28T15:42:53.612Z</time></trkpt><trkpt lat="39.3033166" lon="16.9668233"><ele>462.4</ele><time>2026-03-28T15:42:54.599Z</time></trkpt><trkpt lat="39.3033366" lon="16.9669896"><ele>460.79999999999995</ele><time>2026-03-28T15:42:55.614Z</time></trkpt><trkpt lat="39.303356" lon="16.9671442"><ele>459.20000000000005</ele><time>2026-03-28T15:42:56.615Z</time></trkpt><trkpt lat="39.3033711" lon="16.9672614"><ele>457.6</ele><time>2026-03-28T15:42:57.608Z</time></trkpt><trkpt lat="39.3034012" lon="16.967345"><ele>456.0</ele><time>2026-03-28T15:42:58.613Z</time></trkpt><trkpt lat="39.3034828" lon="16.9673814"><ele>456.0</ele><time>2026-03-28T15:42:59.612Z</time></trkpt><trkpt lat="39.3035808" lon="16.9673999"><ele>456.0</ele><time>2026-03-28T15:43:00.605Z</time></trkpt><trkpt lat="39.3036521" lon="16.9674612"><ele>456.0</ele><time>2026-03-28T15:43:01.627Z</time></trkpt><trkpt lat="39.3037197" lon="16.9675316"><ele>456.0</ele><time>2026-03-28T15:43:02.603Z</time></trkpt><trkpt lat="39.3037454" lon="16.9676476"><ele>456.0</ele><time>2026-03-28T15:43:03.602Z</time></trkpt><trkpt lat="39.3037606" lon="16.9677839"><ele>454.4</ele><time>2026-03-28T15:43:04.601Z</time></trkpt><trkpt lat="39.3038209" lon="16.9679086"><ele>452.8</ele><time>2026-03-28T15:43:05.613Z</time></trkpt><trkpt lat="39.303878" lon="16.9680176"><ele>451.19999999999993</ele><time>2026-03-28T15:43:06.611Z</time></trkpt><trkpt lat="39.3039712" lon="16.9680808"><ele>449.59999999999997</ele><time>2026-03-28T15:43:07.604Z</time></trkpt><trkpt lat="39.3040556" lon="16.9681407"><ele>448.0</ele><time>2026-03-28T15:43:08.605Z</time></trkpt><trkpt lat="39.3041124" lon="16.9682153"><ele>452.4</ele><time>2026-03-28T15:43:09.609Z</time></trkpt><trkpt lat="39.3040838" lon="16.9683705"><ele>456.79999999999995</ele><time>2026-03-28T15:43:11.609Z</time></trkpt><trkpt lat="39.3041091" lon="16.9684651"><ele>461.2</ele><time>2026-03-28T15:43:12.6Z</time></trkpt><trkpt lat="39.3041538" lon="16.9685558"><ele>465.6</ele><time>2026-03-28T15:43:13.612Z</time></trkpt><trkpt lat="39.304222" lon="16.9686396"><ele>470.0</ele><time>2026-03-28T15:43:14.604Z</time></trkpt><trkpt lat="39.3043069" lon="16.9687165"><ele>469.99999999999994</ele><time>2026-03-28T15:43:15.604Z</time></trkpt><trkpt lat="39.3043842" lon="16.9687859"><ele>470.0</ele><time>2026-03-28T15:43:16.608Z</time></trkpt><trkpt lat="39.3044382" lon="16.9688537"><ele>470.0</ele><time>2026-03-28T15:43:17.608Z</time></trkpt><trkpt lat="39.3044845" lon="16.9689157"><ele>470.0</ele><time>2026-03-28T15:43:18.613Z</time></trkpt><trkpt lat="39.3044144" lon="16.9690253"><ele>469.99999999999994</ele><time>2026-03-28T15:43:20.603Z</time></trkpt><trkpt lat="39.304345" lon="16.9690545"><ele>470.0</ele><time>2026-03-28T15:43:21.604Z</time></trkpt><trkpt lat="39.3042807" lon="16.9691016"><ele>469.99999999999994</ele><time>2026-03-28T15:43:22.613Z</time></trkpt><trkpt lat="39.3042388" lon="16.969185"><ele>470.0</ele><time>2026-03-28T15:43:23.62Z</time></trkpt><trkpt lat="39.3042187" lon="16.9692815"><ele>470.0</ele><time>2026-03-28T15:43:24.607Z</time></trkpt><trkpt lat="39.3042297" lon="16.9693811"><ele>470.0</ele><time>2026-03-28T15:43:25.603Z</time></trkpt><trkpt lat="39.3042688" lon="16.9694716"><ele>469.99999999999994</ele><time>2026-03-28T15:43:26.611Z</time></trkpt><trkpt lat="39.3043293" lon="16.9695341"><ele>470.0</ele><time>2026-03-28T15:43:27.612Z</time></trkpt><trkpt lat="39.3044025" lon="16.9695559"><ele>469.85714285714283</ele><time>2026-03-28T15:43:28.609Z</time></trkpt><trkpt lat="39.3044804" lon="16.9695484"><ele>469.71428571428567</ele><time>2026-03-28T15:43:29.616Z</time></trkpt><trkpt lat="39.3045585" lon="16.9695543"><ele>469.57142857142856</ele><time>2026-03-28T15:43:30.608Z</time></trkpt><trkpt lat="39.3046285" lon="16.969563"><ele>469.42857142857144</ele><time>2026-03-28T15:43:31.613Z</time></trkpt><trkpt lat="39.3046715" lon="16.9696421"><ele>469.2857142857143</ele><time>2026-03-28T15:43:32.607Z</time></trkpt><trkpt lat="39.3047113" lon="16.9697226"><ele>469.1428571428571</ele><time>2026-03-28T15:43:33.611Z</time></trkpt><trkpt lat="39.3047647" lon="16.9697742"><ele>469.0</ele><time>2026-03-28T15:43:34.615Z</time></trkpt><trkpt lat="39.3048846" lon="16.9698193"><ele>471.6666666666667</ele><time>2026-03-28T15:43:36.609Z</time></trkpt><trkpt lat="39.3050132" lon="16.9698489"><ele>474.33333333333337</ele><time>2026-03-28T15:43:38.608Z</time></trkpt><trkpt lat="39.3050763" lon="16.9698875"><ele>477.0</ele><time>2026-03-28T15:43:39.613Z</time></trkpt><trkpt lat="39.3051294" lon="16.9699434"><ele>479.66666666666663</ele><time>2026-03-28T15:43:40.611Z</time></trkpt><trkpt lat="39.3051857" lon="16.9700083"><ele>482.3333333333333</ele><time>2026-03-28T15:43:42.624Z</time></trkpt><trkpt lat="39.3052296" lon="16.9701094"><ele>485.0</ele><time>2026-03-28T15:44:10.616Z</time></trkpt><trkpt lat="39.3052506" lon="16.970209"><ele>485.49999999999994</ele><time>2026-03-28T15:44:13.608Z</time></trkpt><trkpt lat="39.305191" lon="16.9703488"><ele>486.0</ele><time>2026-03-28T15:44:15.615Z</time></trkpt><trkpt lat="39.3051499" lon="16.9704324"><ele>486.5</ele><time>2026-03-28T15:44:16.605Z</time></trkpt><trkpt lat="39.3051117" lon="16.9705176"><ele>487.0</ele><time>2026-03-28T15:44:17.618Z</time></trkpt><trkpt lat="39.3050794" lon="16.9706006"><ele>487.49999999999994</ele><time>2026-03-28T15:44:18.613Z</time></trkpt><trkpt lat="39.3050525" lon="16.9706788"><ele>488.0</ele><time>2026-03-28T15:44:19.619Z</time></trkpt><trkpt lat="39.3050327" lon="16.9707598"><ele>488.0</ele><time>2026-03-28T15:44:20.601Z</time></trkpt><trkpt lat="39.3050234" lon="16.9708494"><ele>487.99999999999994</ele><time>2026-03-28T15:44:21.625Z</time></trkpt><trkpt lat="39.3050299" lon="16.9709548"><ele>487.99999999999994</ele><time>2026-03-28T15:44:22.612Z</time></trkpt><trkpt lat="39.305058" lon="16.9710659"><ele>488.0</ele><time>2026-03-28T15:44:23.614Z</time></trkpt><trkpt lat="39.3051125" lon="16.9711723"><ele>488.0</ele><time>2026-03-28T15:44:24.61Z</time></trkpt><trkpt lat="39.3051946" lon="16.9712751"><ele>487.59999999999997</ele><time>2026-03-28T15:44:25.612Z</time></trkpt><trkpt lat="39.3052899" lon="16.9713611"><ele>487.19999999999993</ele><time>2026-03-28T15:44:26.605Z</time></trkpt><trkpt lat="39.3053859" lon="16.9714175"><ele>486.8</ele><time>2026-03-28T15:44:27.607Z</time></trkpt><trkpt lat="39.305479" lon="16.9714558"><ele>486.4</ele><time>2026-03-28T15:44:28.611Z</time></trkpt><trkpt lat="39.3055619" lon="16.9714822"><ele>486.0</ele><time>2026-03-28T15:44:29.624Z</time></trkpt><trkpt lat="39.3056377" lon="16.9715117"><ele>487.0</ele><time>2026-03-28T15:44:30.608Z</time></trkpt><trkpt lat="39.3057277" lon="16.9715502"><ele>488.0</ele><time>2026-03-28T15:44:31.602Z</time></trkpt><trkpt lat="39.3058196" lon="16.971634"><ele>489.0</ele><time>2026-03-28T15:44:32.607Z</time></trkpt><trkpt lat="39.3059171" lon="16.9717466"><ele>490.0</ele><time>2026-03-28T15:44:33.615Z</time></trkpt><trkpt lat="39.3060029" lon="16.9718628"><ele>490.0</ele><time>2026-03-28T15:44:34.606Z</time></trkpt><trkpt lat="39.3060793" lon="16.971971"><ele>490.0</ele><time>2026-03-28T15:44:35.608Z</time></trkpt><trkpt lat="39.3061508" lon="16.9720654"><ele>490.0</ele><time>2026-03-28T15:44:36.604Z</time></trkpt><trkpt lat="39.3062184" lon="16.9721429"><ele>490.0</ele><time>2026-03-28T15:44:37.609Z</time></trkpt><trkpt lat="39.3062933" lon="16.9722207"><ele>490.0</ele><time>2026-03-28T15:44:38.607Z</time></trkpt><trkpt lat="39.3063671" lon="16.9722873"><ele>490.8</ele><time>2026-03-28T15:44:39.607Z</time></trkpt><trkpt lat="39.3064437" lon="16.9723476"><ele>491.6</ele><time>2026-03-28T15:44:40.614Z</time></trkpt><trkpt lat="39.3065316" lon="16.9724055"><ele>492.4</ele><time>2026-03-28T15:44:41.612Z</time></trkpt><trkpt lat="39.3066249" lon="16.9724627"><ele>493.2</ele><time>2026-03-28T15:44:42.61Z</time></trkpt><trkpt lat="39.3067111" lon="16.9725203"><ele>494.0</ele><time>2026-03-28T15:44:43.602Z</time></trkpt><trkpt lat="39.306791" lon="16.9725682"><ele>495.16666666666663</ele><time>2026-03-28T15:44:44.612Z</time></trkpt><trkpt lat="39.3068639" lon="16.972612"><ele>496.3333333333333</ele><time>2026-03-28T15:44:45.608Z</time></trkpt><trkpt lat="39.3069302" lon="16.9726525"><ele>497.5</ele><time>2026-03-28T15:44:46.614Z</time></trkpt><trkpt lat="39.3069892" lon="16.9726887"><ele>498.66666666666663</ele><time>2026-03-28T15:44:47.602Z</time></trkpt><trkpt lat="39.3070795" lon="16.9727404"><ele>499.8333333333333</ele><time>2026-03-28T15:44:49.613Z</time></trkpt><trkpt lat="39.3071693" lon="16.9727986"><ele>501.0</ele><time>2026-03-28T15:44:51.608Z</time></trkpt><trkpt lat="39.3072519" lon="16.9728138"><ele>501.0</ele><time>2026-03-28T15:44:54.602Z</time></trkpt><trkpt lat="39.3073057" lon="16.9727624"><ele>501.0</ele><time>2026-03-28T15:44:57.603Z</time></trkpt><trkpt lat="39.3073757" lon="16.9726582"><ele>501.0</ele><time>2026-03-28T15:44:59.613Z</time></trkpt><trkpt lat="39.3074736" lon="16.9725751"><ele>501.0</ele><time>2026-03-28T15:45:01.605Z</time></trkpt><trkpt lat="39.3075365" lon="16.972552"><ele>501.0</ele><time>2026-03-28T15:45:02.606Z</time></trkpt><trkpt lat="39.3076366" lon="16.9725476"><ele>501.0</ele><time>2026-03-28T15:45:04.604Z</time></trkpt><trkpt lat="39.3077312" lon="16.9725747"><ele>501.0</ele><time>2026-03-28T15:45:06.601Z</time></trkpt><trkpt lat="39.3078359" lon="16.9726123"><ele>501.0</ele><time>2026-03-28T15:45:08.607Z</time></trkpt><trkpt lat="39.3079459" lon="16.9726359"><ele>501.0</ele><time>2026-03-28T15:45:10.613Z</time></trkpt><trkpt lat="39.3080454" lon="16.9725907"><ele>501.0</ele><time>2026-03-28T15:45:12.607Z</time></trkpt><trkpt lat="39.3081159" lon="16.9725029"><ele>501.20000000000005</ele><time>2026-03-28T15:45:14.605Z</time></trkpt><trkpt lat="39.3081765" lon="16.9723986"><ele>501.40000000000003</ele><time>2026-03-28T15:45:16.613Z</time></trkpt><trkpt lat="39.3082679" lon="16.9722768"><ele>501.6</ele><time>2026-03-28T15:45:18.605Z</time></trkpt><trkpt lat="39.308348" lon="16.9722271"><ele>501.8</ele><time>2026-03-28T15:45:19.61Z</time></trkpt><trkpt lat="39.3084366" lon="16.9722159"><ele>502.0</ele><time>2026-03-28T15:45:20.606Z</time></trkpt><trkpt lat="39.3085182" lon="16.9722414"><ele>502.00000000000006</ele><time>2026-03-28T15:45:21.614Z</time></trkpt><trkpt lat="39.308594" lon="16.9722974"><ele>502.0</ele><time>2026-03-28T15:45:22.609Z</time></trkpt><trkpt lat="39.3086586" lon="16.9723467"><ele>502.0</ele><time>2026-03-28T15:45:23.604Z</time></trkpt><trkpt lat="39.3087238" lon="16.9723707"><ele>502.0</ele><time>2026-03-28T15:45:24.611Z</time></trkpt><trkpt lat="39.3087938" lon="16.972366"><ele>502.00000000000006</ele><time>2026-03-28T15:45:25.611Z</time></trkpt><trkpt lat="39.3088663" lon="16.9723581"><ele>502.0</ele><time>2026-03-28T15:45:26.615Z</time></trkpt><trkpt lat="39.308931" lon="16.9722978"><ele>502.33333333333337</ele><time>2026-03-28T15:45:27.602Z</time></trkpt><trkpt lat="39.3089863" lon="16.9722004"><ele>502.6666666666667</ele><time>2026-03-28T15:45:28.602Z</time></trkpt><trkpt lat="39.3090506" lon="16.9721102"><ele>503.0</ele><time>2026-03-28T15:45:29.62Z</time></trkpt><trkpt lat="39.309121" lon="16.9720377"><ele>503.33333333333337</ele><time>2026-03-28T15:45:30.609Z</time></trkpt><trkpt lat="39.3091897" lon="16.9719936"><ele>503.6666666666667</ele><time>2026-03-28T15:45:31.604Z</time></trkpt><trkpt lat="39.3092684" lon="16.9719786"><ele>504.0</ele><time>2026-03-28T15:45:32.607Z</time></trkpt><trkpt lat="39.3093577" lon="16.9720052"><ele>504.0</ele><time>2026-03-28T15:45:33.615Z</time></trkpt><trkpt lat="39.309442" lon="16.9720764"><ele>504.0</ele><time>2026-03-28T15:45:34.61Z</time></trkpt><trkpt lat="39.3095285" lon="16.972185"><ele>504.0</ele><time>2026-03-28T15:45:35.611Z</time></trkpt><trkpt lat="39.309609" lon="16.972284"><ele>504.0</ele><time>2026-03-28T15:45:36.602Z</time></trkpt><trkpt lat="39.3096808" lon="16.9723604"><ele>504.0</ele><time>2026-03-28T15:45:37.61Z</time></trkpt><trkpt lat="39.3097573" lon="16.9724223"><ele>500.75</ele><time>2026-03-28T15:45:38.604Z</time></trkpt><trkpt lat="39.3098429" lon="16.9724704"><ele>497.5</ele><time>2026-03-28T15:45:39.601Z</time></trkpt><trkpt lat="39.309936" lon="16.9725013"><ele>494.25</ele><time>2026-03-28T15:45:40.605Z</time></trkpt><trkpt lat="39.310049" lon="16.9725135"><ele>491.0</ele><time>2026-03-28T15:45:41.599Z</time></trkpt><trkpt lat="39.3101963" lon="16.972521"><ele>490.3333333333333</ele><time>2026-03-28T15:45:42.601Z</time></trkpt><trkpt lat="39.3103453" lon="16.9725323"><ele>489.66666666666663</ele><time>2026-03-28T15:45:43.611Z</time></trkpt><trkpt lat="39.3105031" lon="16.97254"><ele>489.0</ele><time>2026-03-28T15:45:44.604Z</time></trkpt><trkpt lat="39.310654" lon="16.9725498"><ele>484.75</ele><time>2026-03-28T15:45:45.603Z</time></trkpt><trkpt lat="39.3108017" lon="16.9725664"><ele>480.5</ele><time>2026-03-28T15:45:46.607Z</time></trkpt><trkpt lat="39.31095" lon="16.9725775"><ele>476.25</ele><time>2026-03-28T15:45:47.616Z</time></trkpt><trkpt lat="39.3110981" lon="16.9725804"><ele>472.0</ele><time>2026-03-28T15:45:48.603Z</time></trkpt><trkpt lat="39.3112397" lon="16.972576"><ele>472.0</ele><time>2026-03-28T15:45:49.604Z</time></trkpt><trkpt lat="39.3113718" lon="16.9725701"><ele>472.0</ele><time>2026-03-28T15:45:50.614Z</time></trkpt><trkpt lat="39.3115012" lon="16.9725686"><ele>472.0</ele><time>2026-03-28T15:45:51.613Z</time></trkpt><trkpt lat="39.311634" lon="16.9725742"><ele>472.0</ele><time>2026-03-28T15:45:52.6Z</time></trkpt><trkpt lat="39.3117709" lon="16.9725924"><ele>472.33333333333337</ele><time>2026-03-28T15:45:53.612Z</time></trkpt><trkpt lat="39.3119189" lon="16.972632"><ele>472.66666666666663</ele><time>2026-03-28T15:45:54.599Z</time></trkpt><trkpt lat="39.3120687" lon="16.9726743"><ele>473.0</ele><time>2026-03-28T15:45:55.622Z</time></trkpt><trkpt lat="39.3122041" lon="16.9727525"><ele>472.5</ele><time>2026-03-28T15:45:56.611Z</time></trkpt><trkpt lat="39.3123304" lon="16.9728401"><ele>472.0</ele><time>2026-03-28T15:45:57.618Z</time></trkpt><trkpt lat="39.3124523" lon="16.9729407"><ele>471.5</ele><time>2026-03-28T15:45:58.599Z</time></trkpt><trkpt lat="39.312568" lon="16.9730738"><ele>471.0</ele><time>2026-03-28T15:45:59.613Z</time></trkpt><trkpt lat="39.3126828" lon="16.9732464"><ele>466.0</ele><time>2026-03-28T15:46:00.608Z</time></trkpt><trkpt lat="39.3127896" lon="16.9734235"><ele>461.0</ele><time>2026-03-28T15:46:01.616Z</time></trkpt><trkpt lat="39.3128871" lon="16.973587"><ele>456.0</ele><time>2026-03-28T15:46:02.603Z</time></trkpt><trkpt lat="39.312975" lon="16.9737369"><ele>456.0</ele><time>2026-03-28T15:46:03.616Z</time></trkpt><trkpt lat="39.3130388" lon="16.9738837"><ele>456.0</ele><time>2026-03-28T15:46:04.605Z</time></trkpt><trkpt lat="39.3130723" lon="16.9740401"><ele>456.0</ele><time>2026-03-28T15:46:05.609Z</time></trkpt><trkpt lat="39.3130773" lon="16.9742143"><ele>456.0</ele><time>2026-03-28T15:46:06.599Z</time></trkpt><trkpt lat="39.313056" lon="16.9743993"><ele>454.0</ele><time>2026-03-28T15:46:07.61Z</time></trkpt><trkpt lat="39.3130116" lon="16.9745955"><ele>452.0</ele><time>2026-03-28T15:46:08.61Z</time></trkpt><trkpt lat="39.3129629" lon="16.9747882"><ele>450.0</ele><time>2026-03-28T15:46:09.609Z</time></trkpt><trkpt lat="39.3129309" lon="16.9749562"><ele>448.0</ele><time>2026-03-28T15:46:10.608Z</time></trkpt><trkpt lat="39.3129201" lon="16.9751048"><ele>446.4</ele><time>2026-03-28T15:46:11.611Z</time></trkpt><trkpt lat="39.3129374" lon="16.9752416"><ele>444.79999999999995</ele><time>2026-03-28T15:46:12.601Z</time></trkpt><trkpt lat="39.3129851" lon="16.9753611"><ele>443.2</ele><time>2026-03-28T15:46:13.61Z</time></trkpt><trkpt lat="39.313053" lon="16.9754657"><ele>441.6</ele><time>2026-03-28T15:46:14.605Z</time></trkpt><trkpt lat="39.3131125" lon="16.9755754"><ele>440.0</ele><time>2026-03-28T15:46:15.619Z</time></trkpt><trkpt lat="39.3131537" lon="16.9757103"><ele>442.4</ele><time>2026-03-28T15:46:16.607Z</time></trkpt><trkpt lat="39.313169" lon="16.9758593"><ele>444.8</ele><time>2026-03-28T15:46:17.613Z</time></trkpt><trkpt lat="39.3131564" lon="16.9760024"><ele>447.20000000000005</ele><time>2026-03-28T15:46:18.605Z</time></trkpt><trkpt lat="39.3131432" lon="16.9761411"><ele>449.6</ele><time>2026-03-28T15:46:19.623Z</time></trkpt><trkpt lat="39.3131394" lon="16.9762738"><ele>452.0</ele><time>2026-03-28T15:46:20.605Z</time></trkpt><trkpt lat="39.3131564" lon="16.9763961"><ele>452.0</ele><time>2026-03-28T15:46:21.622Z</time></trkpt><trkpt lat="39.3131971" lon="16.9765008"><ele>452.00000000000006</ele><time>2026-03-28T15:46:22.606Z</time></trkpt><trkpt lat="39.3132648" lon="16.9765838"><ele>452.00000000000006</ele><time>2026-03-28T15:46:23.606Z</time></trkpt><trkpt lat="39.3133469" lon="16.9766302"><ele>452.0</ele><time>2026-03-28T15:46:24.608Z</time></trkpt><trkpt lat="39.3134377" lon="16.9766394"><ele>452.0</ele><time>2026-03-28T15:46:25.609Z</time></trkpt><trkpt lat="39.3135325" lon="16.9766136"><ele>452.0</ele><time>2026-03-28T15:46:26.615Z</time></trkpt><trkpt lat="39.3136377" lon="16.9765643"><ele>452.00000000000006</ele><time>2026-03-28T15:46:27.62Z</time></trkpt><trkpt lat="39.3137434" lon="16.9765036"><ele>452.00000000000006</ele><time>2026-03-28T15:46:28.609Z</time></trkpt><trkpt lat="39.3138399" lon="16.9764389"><ele>452.0</ele><time>2026-03-28T15:46:29.606Z</time></trkpt><trkpt lat="39.3139257" lon="16.9763501"><ele>452.0</ele><time>2026-03-28T15:46:30.607Z</time></trkpt><trkpt lat="39.3139967" lon="16.9762412"><ele>451.75</ele><time>2026-03-28T15:46:31.613Z</time></trkpt><trkpt lat="39.3140654" lon="16.976128"><ele>451.5</ele><time>2026-03-28T15:46:32.615Z</time></trkpt><trkpt lat="39.3141125" lon="16.9759678"><ele>451.25</ele><time>2026-03-28T15:46:33.601Z</time></trkpt><trkpt lat="39.3141507" lon="16.9758287"><ele>451.0</ele><time>2026-03-28T15:46:34.611Z</time></trkpt><trkpt lat="39.3141717" lon="16.9756937"><ele>451.0</ele><time>2026-03-28T15:46:35.623Z</time></trkpt><trkpt lat="39.3141566" lon="16.9755644"><ele>451.0</ele><time>2026-03-28T15:46:36.602Z</time></trkpt><trkpt lat="39.3141286" lon="16.9754345"><ele>451.0</ele><time>2026-03-28T15:46:37.602Z</time></trkpt><trkpt lat="39.3141272" lon="16.975304"><ele>451.0</ele><time>2026-03-28T15:46:38.6Z</time></trkpt><trkpt lat="39.3141529" lon="16.9751696"><ele>451.0</ele><time>2026-03-28T15:46:39.61Z</time></trkpt><trkpt lat="39.3142046" lon="16.975058"><ele>452.83333333333337</ele><time>2026-03-28T15:46:40.605Z</time></trkpt><trkpt lat="39.3142588" lon="16.9749609"><ele>454.6666666666667</ele><time>2026-03-28T15:46:41.604Z</time></trkpt><trkpt lat="39.3143472" lon="16.9749521"><ele>456.5</ele><time>2026-03-28T15:46:42.607Z</time></trkpt><trkpt lat="39.3144391" lon="16.9749382"><ele>458.33333333333337</ele><time>2026-03-28T15:46:43.611Z</time></trkpt><trkpt lat="39.3145139" lon="16.9748896"><ele>460.1666666666667</ele><time>2026-03-28T15:46:44.608Z</time></trkpt><trkpt lat="39.3145729" lon="16.9748131"><ele>462.0</ele><time>2026-03-28T15:46:45.601Z</time></trkpt><trkpt lat="39.3146077" lon="16.9747075"><ele>462.0</ele><time>2026-03-28T15:46:46.604Z</time></trkpt><trkpt lat="39.3146084" lon="16.9745924"><ele>462.00000000000006</ele><time>2026-03-28T15:46:47.615Z</time></trkpt><trkpt lat="39.3145854" lon="16.9744639"><ele>462.00000000000006</ele><time>2026-03-28T15:46:48.607Z</time></trkpt><trkpt lat="39.3145728" lon="16.9743228"><ele>462.0</ele><time>2026-03-28T15:46:49.605Z</time></trkpt><trkpt lat="39.3145805" lon="16.9741966"><ele>462.0</ele><time>2026-03-28T15:46:50.603Z</time></trkpt><trkpt lat="39.3146066" lon="16.9740937"><ele>463.6666666666667</ele><time>2026-03-28T15:46:51.612Z</time></trkpt><trkpt lat="39.3146506" lon="16.974022"><ele>465.33333333333337</ele><time>2026-03-28T15:46:52.609Z</time></trkpt><trkpt lat="39.3147149" lon="16.9739794"><ele>467.0</ele><time>2026-03-28T15:46:53.619Z</time></trkpt><trkpt lat="39.3147936" lon="16.9739756"><ele>468.6666666666667</ele><time>2026-03-28T15:46:54.604Z</time></trkpt><trkpt lat="39.3148718" lon="16.9740147"><ele>470.33333333333337</ele><time>2026-03-28T15:46:55.61Z</time></trkpt><trkpt lat="39.3149457" lon="16.974104"><ele>472.0</ele><time>2026-03-28T15:46:56.608Z</time></trkpt><trkpt lat="39.3150282" lon="16.9742398"><ele>462.75</ele><time>2026-03-28T15:46:57.607Z</time></trkpt><trkpt lat="39.3151136" lon="16.974384"><ele>453.5</ele><time>2026-03-28T15:46:58.602Z</time></trkpt><trkpt lat="39.315213" lon="16.9745059"><ele>444.25</ele><time>2026-03-28T15:46:59.613Z</time></trkpt><trkpt lat="39.3153387" lon="16.9746063"><ele>435.0</ele><time>2026-03-28T15:47:00.616Z</time></trkpt><trkpt lat="39.3154932" lon="16.9747067"><ele>435.25</ele><time>2026-03-28T15:47:01.611Z</time></trkpt><trkpt lat="39.3156338" lon="16.9747986"><ele>435.5</ele><time>2026-03-28T15:47:02.599Z</time></trkpt><trkpt lat="39.3157563" lon="16.9748973"><ele>435.75</ele><time>2026-03-28T15:47:03.612Z</time></trkpt><trkpt lat="39.3158648" lon="16.9750163"><ele>436.0</ele><time>2026-03-28T15:47:04.607Z</time></trkpt><trkpt lat="39.315963" lon="16.9751555"><ele>434.75</ele><time>2026-03-28T15:47:05.613Z</time></trkpt><trkpt lat="39.3160616" lon="16.9753156"><ele>433.5</ele><time>2026-03-28T15:47:06.606Z</time></trkpt><trkpt lat="39.3161563" lon="16.9754705"><ele>432.25</ele><time>2026-03-28T15:47:07.607Z</time></trkpt><trkpt lat="39.3162493" lon="16.9755977"><ele>431.0</ele><time>2026-03-28T15:47:08.605Z</time></trkpt><trkpt lat="39.3163471" lon="16.9756862"><ele>428.75</ele><time>2026-03-28T15:47:09.61Z</time></trkpt><trkpt lat="39.3164469" lon="16.9757604"><ele>426.5</ele><time>2026-03-28T15:47:10.605Z</time></trkpt><trkpt lat="39.3165667" lon="16.975765"><ele>424.25</ele><time>2026-03-28T15:47:11.612Z</time></trkpt><trkpt lat="39.3167081" lon="16.9757529"><ele>422.0</ele><time>2026-03-28T15:47:12.603Z</time></trkpt><trkpt lat="39.3168619" lon="16.9757328"><ele>422.0</ele><time>2026-03-28T15:47:13.614Z</time></trkpt><trkpt lat="39.317025" lon="16.9757289"><ele>422.0</ele><time>2026-03-28T15:47:14.605Z</time></trkpt><trkpt lat="39.3171971" lon="16.9757375"><ele>422.0</ele><time>2026-03-28T15:47:15.612Z</time></trkpt><trkpt lat="39.31736" lon="16.9757597"><ele>417.8</ele><time>2026-03-28T15:47:16.613Z</time></trkpt><trkpt lat="39.3175051" lon="16.9757921"><ele>413.6</ele><time>2026-03-28T15:47:17.611Z</time></trkpt><trkpt lat="39.317623" lon="16.9758395"><ele>409.40000000000003</ele><time>2026-03-28T15:47:18.604Z</time></trkpt><trkpt lat="39.3177043" lon="16.9759061"><ele>405.20000000000005</ele><time>2026-03-28T15:47:19.613Z</time></trkpt><trkpt lat="39.3177511" lon="16.9759898"><ele>401.0</ele><time>2026-03-28T15:47:20.604Z</time></trkpt><trkpt lat="39.3177665" lon="16.9760857"><ele>400.8</ele><time>2026-03-28T15:47:21.608Z</time></trkpt><trkpt lat="39.3177462" lon="16.9761922"><ele>400.6</ele><time>2026-03-28T15:47:22.603Z</time></trkpt><trkpt lat="39.3176844" lon="16.9762977"><ele>400.4</ele><time>2026-03-28T15:47:23.614Z</time></trkpt><trkpt lat="39.3175936" lon="16.9763994"><ele>400.2</ele><time>2026-03-28T15:47:24.607Z</time></trkpt><trkpt lat="39.3175008" lon="16.9764959"><ele>400.0</ele><time>2026-03-28T15:47:25.611Z</time></trkpt><trkpt lat="39.3174097" lon="16.9766175"><ele>395.6666666666667</ele><time>2026-03-28T15:47:26.617Z</time></trkpt><trkpt lat="39.3173189" lon="16.9767793"><ele>391.33333333333337</ele><time>2026-03-28T15:47:27.61Z</time></trkpt><trkpt lat="39.3172272" lon="16.9769771"><ele>387.0</ele><time>2026-03-28T15:47:28.605Z</time></trkpt><trkpt lat="39.3171433" lon="16.9771785"><ele>390.66666666666663</ele><time>2026-03-28T15:47:29.612Z</time></trkpt><trkpt lat="39.317056" lon="16.977401"><ele>394.3333333333333</ele><time>2026-03-28T15:47:30.608Z</time></trkpt><trkpt lat="39.3169595" lon="16.9776395"><ele>398.0</ele><time>2026-03-28T15:47:31.609Z</time></trkpt><trkpt lat="39.3168599" lon="16.9778669"><ele>398.0</ele><time>2026-03-28T15:47:32.609Z</time></trkpt><trkpt lat="39.3167625" lon="16.978082"><ele>398.0</ele><time>2026-03-28T15:47:33.608Z</time></trkpt><trkpt lat="39.3166761" lon="16.978281"><ele>398.0</ele><time>2026-03-28T15:47:34.614Z</time></trkpt><trkpt lat="39.3165984" lon="16.9784719"><ele>395.25</ele><time>2026-03-28T15:47:35.61Z</time></trkpt><trkpt lat="39.316537" lon="16.9786576"><ele>392.5</ele><time>2026-03-28T15:47:36.611Z</time></trkpt><trkpt lat="39.3164938" lon="16.9788222"><ele>389.75</ele><time>2026-03-28T15:47:37.615Z</time></trkpt><trkpt lat="39.3164622" lon="16.9789595"><ele>387.0</ele><time>2026-03-28T15:47:38.609Z</time></trkpt><trkpt lat="39.3164426" lon="16.9790647"><ele>387.0</ele><time>2026-03-28T15:47:39.603Z</time></trkpt><trkpt lat="39.3164404" lon="16.9791464"><ele>387.0</ele><time>2026-03-28T15:47:40.61Z</time></trkpt><trkpt lat="39.316474" lon="16.9792422"><ele>387.0</ele><time>2026-03-28T15:47:42.615Z</time></trkpt><trkpt lat="39.3165314" lon="16.9793071"><ele>387.0</ele><time>2026-03-28T15:47:45.617Z</time></trkpt><trkpt lat="39.3165692" lon="16.9794254"><ele>387.0</ele><time>2026-03-28T15:47:52.612Z</time></trkpt><trkpt lat="39.3165312" lon="16.9795204"><ele>387.0</ele><time>2026-03-28T15:47:54.612Z</time></trkpt><trkpt lat="39.3164735" lon="16.9796666"><ele>384.0</ele><time>2026-03-28T15:47:56.609Z</time></trkpt><trkpt lat="39.3164424" lon="16.9797392"><ele>381.0</ele><time>2026-03-28T15:47:57.603Z</time></trkpt><trkpt lat="39.3163885" lon="16.9798585"><ele>378.0</ele><time>2026-03-28T15:47:59.607Z</time></trkpt><trkpt lat="39.3163417" lon="16.9799667"><ele>375.0</ele><time>2026-03-28T15:48:01.606Z</time></trkpt><trkpt lat="39.3162962" lon="16.9800664"><ele>372.0</ele><time>2026-03-28T15:48:03.613Z</time></trkpt><trkpt lat="39.3162455" lon="16.980175"><ele>368.20000000000005</ele><time>2026-03-28T15:48:05.604Z</time></trkpt><trkpt lat="39.3161745" lon="16.9803162"><ele>364.4</ele><time>2026-03-28T15:48:07.615Z</time></trkpt><trkpt lat="39.3161303" lon="16.9803974"><ele>360.6</ele><time>2026-03-28T15:48:08.607Z</time></trkpt><trkpt lat="39.3160794" lon="16.9804783"><ele>356.79999999999995</ele><time>2026-03-28T15:48:09.601Z</time></trkpt><trkpt lat="39.3160386" lon="16.9805718"><ele>353.0</ele><time>2026-03-28T15:48:10.605Z</time></trkpt><trkpt lat="39.3160222" lon="16.9806849"><ele>353.0</ele><time>2026-03-28T15:48:11.617Z</time></trkpt><trkpt lat="39.316031" lon="16.9808163"><ele>353.0</ele><time>2026-03-28T15:48:12.603Z</time></trkpt><trkpt lat="39.3160485" lon="16.9809697"><ele>353.0</ele><time>2026-03-28T15:48:13.608Z</time></trkpt><trkpt lat="39.3160559" lon="16.9811389"><ele>353.0</ele><time>2026-03-28T15:48:14.606Z</time></trkpt><trkpt lat="39.316048" lon="16.9813158"><ele>351.25</ele><time>2026-03-28T15:48:15.614Z</time></trkpt><trkpt lat="39.3160421" lon="16.9815"><ele>349.5</ele><time>2026-03-28T15:48:16.606Z</time></trkpt><trkpt lat="39.3160411" lon="16.9816791"><ele>347.75</ele><time>2026-03-28T15:48:17.616Z</time></trkpt><trkpt lat="39.3160412" lon="16.9818406"><ele>346.0</ele><time>2026-03-28T15:48:18.61Z</time></trkpt><trkpt lat="39.3160495" lon="16.9819879"><ele>344.25</ele><time>2026-03-28T15:48:19.617Z</time></trkpt><trkpt lat="39.3160772" lon="16.9821277"><ele>342.5</ele><time>2026-03-28T15:48:20.604Z</time></trkpt><trkpt lat="39.3161243" lon="16.9822635"><ele>340.75</ele><time>2026-03-28T15:48:21.611Z</time></trkpt><trkpt lat="39.3161869" lon="16.9824149"><ele>339.0</ele><time>2026-03-28T15:48:22.602Z</time></trkpt><trkpt lat="39.3162724" lon="16.9825897"><ele>339.6666666666667</ele><time>2026-03-28T15:48:23.615Z</time></trkpt><trkpt lat="39.3163658" lon="16.9827584"><ele>340.33333333333337</ele><time>2026-03-28T15:48:24.603Z</time></trkpt><trkpt lat="39.3164606" lon="16.9829182"><ele>341.0</ele><time>2026-03-28T15:48:25.611Z</time></trkpt><trkpt lat="39.3165498" lon="16.9830704"><ele>341.0</ele><time>2026-03-28T15:48:26.613Z</time></trkpt><trkpt lat="39.3166295" lon="16.983223"><ele>341.0</ele><time>2026-03-28T15:48:27.609Z</time></trkpt><trkpt lat="39.3166958" lon="16.9833763"><ele>341.0</ele><time>2026-03-28T15:48:28.612Z</time></trkpt><trkpt lat="39.316744" lon="16.9835332"><ele>341.0</ele><time>2026-03-28T15:48:29.605Z</time></trkpt><trkpt lat="39.3167769" lon="16.9836973"><ele>338.75</ele><time>2026-03-28T15:48:30.607Z</time></trkpt><trkpt lat="39.3168106" lon="16.9838581"><ele>336.5</ele><time>2026-03-28T15:48:31.609Z</time></trkpt><trkpt lat="39.3168479" lon="16.9840115"><ele>334.25</ele><time>2026-03-28T15:48:32.611Z</time></trkpt><trkpt lat="39.3168871" lon="16.9841617"><ele>332.0</ele><time>2026-03-28T15:48:33.611Z</time></trkpt><trkpt lat="39.3169449" lon="16.9843335"><ele>329.5</ele><time>2026-03-28T15:48:34.6Z</time></trkpt><trkpt lat="39.3170086" lon="16.984527"><ele>327.0</ele><time>2026-03-28T15:48:35.607Z</time></trkpt><trkpt lat="39.3170601" lon="16.9847085"><ele>324.5</ele><time>2026-03-28T15:48:36.622Z</time></trkpt><trkpt lat="39.3171206" lon="16.9848492"><ele>322.0</ele><time>2026-03-28T15:48:37.625Z</time></trkpt><trkpt lat="39.3172007" lon="16.9849515"><ele>322.40000000000003</ele><time>2026-03-28T15:48:38.602Z</time></trkpt><trkpt lat="39.3172974" lon="16.9850193"><ele>322.8</ele><time>2026-03-28T15:48:39.61Z</time></trkpt><trkpt lat="39.3174037" lon="16.9850491"><ele>323.2</ele><time>2026-03-28T15:48:40.6Z</time></trkpt><trkpt lat="39.3175219" lon="16.9850554"><ele>323.6</ele><time>2026-03-28T15:48:41.609Z</time></trkpt><trkpt lat="39.3176293" lon="16.9850711"><ele>324.0</ele><time>2026-03-28T15:48:42.613Z</time></trkpt><trkpt lat="39.3177262" lon="16.985115"><ele>324.0</ele><time>2026-03-28T15:48:43.612Z</time></trkpt><trkpt lat="39.3178207" lon="16.9851719"><ele>324.0</ele><time>2026-03-28T15:48:44.611Z</time></trkpt><trkpt lat="39.3179169" lon="16.9852285"><ele>324.0</ele><time>2026-03-28T15:48:45.608Z</time></trkpt><trkpt lat="39.3180188" lon="16.9852795"><ele>324.0</ele><time>2026-03-28T15:48:46.612Z</time></trkpt><trkpt lat="39.3181435" lon="16.9853333"><ele>324.5</ele><time>2026-03-28T15:48:47.611Z</time></trkpt><trkpt lat="39.3182742" lon="16.9853881"><ele>325.0</ele><time>2026-03-28T15:48:48.605Z</time></trkpt><trkpt lat="39.3183922" lon="16.9854407"><ele>325.5</ele><time>2026-03-28T15:48:49.605Z</time></trkpt><trkpt lat="39.318495" lon="16.9854915"><ele>326.0</ele><time>2026-03-28T15:48:50.611Z</time></trkpt><trkpt lat="39.3185888" lon="16.9855434"><ele>326.0</ele><time>2026-03-28T15:48:51.61Z</time></trkpt><trkpt lat="39.3186867" lon="16.9856053"><ele>326.0</ele><time>2026-03-28T15:48:52.606Z</time></trkpt><trkpt lat="39.3187705" lon="16.9856862"><ele>326.0</ele><time>2026-03-28T15:48:53.612Z</time></trkpt><trkpt lat="39.3188381" lon="16.9857886"><ele>326.0</ele><time>2026-03-28T15:48:54.61Z</time></trkpt><trkpt lat="39.3188871" lon="16.9859097"><ele>326.0</ele><time>2026-03-28T15:48:55.602Z</time></trkpt><trkpt lat="39.3189299" lon="16.9860382"><ele>322.5</ele><time>2026-03-28T15:48:56.604Z</time></trkpt><trkpt lat="39.3189809" lon="16.9861619"><ele>319.0</ele><time>2026-03-28T15:48:57.619Z</time></trkpt><trkpt lat="39.3190531" lon="16.9862926"><ele>315.5</ele><time>2026-03-28T15:48:58.612Z</time></trkpt><trkpt lat="39.319131" lon="16.9864192"><ele>312.0</ele><time>2026-03-28T15:48:59.607Z</time></trkpt><trkpt lat="39.3192041" lon="16.986547"><ele>309.5</ele><time>2026-03-28T15:49:00.613Z</time></trkpt><trkpt lat="39.3192753" lon="16.986679"><ele>307.0</ele><time>2026-03-28T15:49:01.615Z</time></trkpt><trkpt lat="39.3193475" lon="16.9868155"><ele>304.5</ele><time>2026-03-28T15:49:02.615Z</time></trkpt><trkpt lat="39.3194163" lon="16.9869582"><ele>302.0</ele><time>2026-03-28T15:49:03.61Z</time></trkpt><trkpt lat="39.319479" lon="16.987109"><ele>302.0</ele><time>2026-03-28T15:49:04.613Z</time></trkpt><trkpt lat="39.3195387" lon="16.987269"><ele>302.0</ele><time>2026-03-28T15:49:05.62Z</time></trkpt><trkpt lat="39.3195974" lon="16.9874372"><ele>302.0</ele><time>2026-03-28T15:49:06.615Z</time></trkpt><trkpt lat="39.319646" lon="16.9876049"><ele>302.0</ele><time>2026-03-28T15:49:07.614Z</time></trkpt><trkpt lat="39.3196872" lon="16.9877721"><ele>300.25</ele><time>2026-03-28T15:49:08.608Z</time></trkpt><trkpt lat="39.3197298" lon="16.9879369"><ele>298.5</ele><time>2026-03-28T15:49:09.624Z</time></trkpt><trkpt lat="39.3197831" lon="16.9880962"><ele>296.75</ele><time>2026-03-28T15:49:10.618Z</time></trkpt><trkpt lat="39.3198517" lon="16.988247"><ele>295.0</ele><time>2026-03-28T15:49:11.608Z</time></trkpt><trkpt lat="39.3199341" lon="16.9884113"><ele>291.0</ele><time>2026-03-28T15:49:12.615Z</time></trkpt><trkpt lat="39.3200154" lon="16.9885827"><ele>287.0</ele><time>2026-03-28T15:49:13.623Z</time></trkpt><trkpt lat="39.32009" lon="16.9887583"><ele>283.0</ele><time>2026-03-28T15:49:14.616Z</time></trkpt><trkpt lat="39.3201633" lon="16.988933"><ele>283.0</ele><time>2026-03-28T15:49:15.606Z</time></trkpt><trkpt lat="39.320234" lon="16.9891012"><ele>283.0</ele><time>2026-03-28T15:49:16.611Z</time></trkpt><trkpt lat="39.3202964" lon="16.9892699"><ele>283.0</ele><time>2026-03-28T15:49:17.615Z</time></trkpt><trkpt lat="39.3203477" lon="16.9894406"><ele>283.0</ele><time>2026-03-28T15:49:18.606Z</time></trkpt><trkpt lat="39.3203832" lon="16.9896105"><ele>280.6</ele><time>2026-03-28T15:49:19.618Z</time></trkpt><trkpt lat="39.3203906" lon="16.9897677"><ele>278.20000000000005</ele><time>2026-03-28T15:49:20.607Z</time></trkpt><trkpt lat="39.3203812" lon="16.9899004"><ele>275.8</ele><time>2026-03-28T15:49:21.611Z</time></trkpt><trkpt lat="39.3203817" lon="16.9900072"><ele>273.40000000000003</ele><time>2026-03-28T15:49:22.608Z</time></trkpt><trkpt lat="39.3204354" lon="16.9901476"><ele>271.0</ele><time>2026-03-28T15:49:24.609Z</time></trkpt><trkpt lat="39.3205031" lon="16.9902176"><ele>269.5</ele><time>2026-03-28T15:49:25.612Z</time></trkpt><trkpt lat="39.3205881" lon="16.9903082"><ele>268.0</ele><time>2026-03-28T15:49:26.606Z</time></trkpt><trkpt lat="39.3206828" lon="16.9904183"><ele>266.5</ele><time>2026-03-28T15:49:27.613Z</time></trkpt><trkpt lat="39.3207666" lon="16.9905203"><ele>265.0</ele><time>2026-03-28T15:49:28.61Z</time></trkpt><trkpt lat="39.3208402" lon="16.9906261"><ele>265.0</ele><time>2026-03-28T15:49:29.612Z</time></trkpt><trkpt lat="39.320897" lon="16.9907399"><ele>265.0</ele><time>2026-03-28T15:49:30.622Z</time></trkpt><trkpt lat="39.3209263" lon="16.9908566"><ele>265.0</ele><time>2026-03-28T15:49:31.62Z</time></trkpt><trkpt lat="39.3209376" lon="16.9909788"><ele>265.0</ele><time>2026-03-28T15:49:32.6Z</time></trkpt><trkpt lat="39.320956" lon="16.9910999"><ele>265.0</ele><time>2026-03-28T15:49:33.618Z</time></trkpt><trkpt lat="39.3209955" lon="16.9912118"><ele>261.8</ele><time>2026-03-28T15:49:34.615Z</time></trkpt><trkpt lat="39.3210527" lon="16.9912986"><ele>258.6</ele><time>2026-03-28T15:49:35.597Z</time></trkpt><trkpt lat="39.3211138" lon="16.9913744"><ele>255.39999999999998</ele><time>2026-03-28T15:49:36.602Z</time></trkpt><trkpt lat="39.3211852" lon="16.9914186"><ele>252.2</ele><time>2026-03-28T15:49:37.616Z</time></trkpt><trkpt lat="39.3212446" lon="16.9914683"><ele>249.0</ele><time>2026-03-28T15:49:38.607Z</time></trkpt><trkpt lat="39.3213298" lon="16.9916042"><ele>249.33333333333334</ele><time>2026-03-28T15:49:40.613Z</time></trkpt><trkpt lat="39.3213617" lon="16.9917038"><ele>249.66666666666669</ele><time>2026-03-28T15:49:41.617Z</time></trkpt><trkpt lat="39.3213845" lon="16.9918097"><ele>250.0</ele><time>2026-03-28T15:49:42.612Z</time></trkpt><trkpt lat="39.3213988" lon="16.9919136"><ele>250.33333333333334</ele><time>2026-03-28T15:49:43.614Z</time></trkpt><trkpt lat="39.3213995" lon="16.9920123"><ele>250.66666666666669</ele><time>2026-03-28T15:49:44.603Z</time></trkpt><trkpt lat="39.3213868" lon="16.9921105"><ele>251.0</ele><time>2026-03-28T15:49:45.602Z</time></trkpt><trkpt lat="39.3213875" lon="16.9922099"><ele>251.00000000000003</ele><time>2026-03-28T15:49:46.603Z</time></trkpt><trkpt lat="39.3214185" lon="16.9922952"><ele>251.0</ele><time>2026-03-28T15:49:47.616Z</time></trkpt><trkpt lat="39.3214805" lon="16.9923667"><ele>251.0</ele><time>2026-03-28T15:49:48.608Z</time></trkpt><trkpt lat="39.3215573" lon="16.9924593"><ele>251.0</ele><time>2026-03-28T15:49:49.603Z</time></trkpt><trkpt lat="39.3216182" lon="16.992557"><ele>251.00000000000003</ele><time>2026-03-28T15:49:50.607Z</time></trkpt><trkpt lat="39.3216564" lon="16.9926524"><ele>251.0</ele><time>2026-03-28T15:49:51.619Z</time></trkpt><trkpt lat="39.3216776" lon="16.9927429"><ele>249.33333333333334</ele><time>2026-03-28T15:49:52.607Z</time></trkpt><trkpt lat="39.321702" lon="16.9928311"><ele>247.66666666666669</ele><time>2026-03-28T15:49:53.603Z</time></trkpt><trkpt lat="39.3217426" lon="16.9929204"><ele>246.0</ele><time>2026-03-28T15:49:54.606Z</time></trkpt><trkpt lat="39.3217968" lon="16.9929942"><ele>244.33333333333331</ele><time>2026-03-28T15:49:55.619Z</time></trkpt><trkpt lat="39.3218471" lon="16.9930576"><ele>242.66666666666666</ele><time>2026-03-28T15:49:56.608Z</time></trkpt><trkpt lat="39.3219127" lon="16.9931621"><ele>241.0</ele><time>2026-03-28T15:49:58.609Z</time></trkpt><trkpt lat="39.3219686" lon="16.9932876"><ele>238.14285714285717</ele><time>2026-03-28T15:50:00.613Z</time></trkpt><trkpt lat="39.3220014" lon="16.9933618"><ele>235.2857142857143</ele><time>2026-03-28T15:50:01.606Z</time></trkpt><trkpt lat="39.322031" lon="16.9934349"><ele>232.42857142857144</ele><time>2026-03-28T15:50:02.611Z</time></trkpt><trkpt lat="39.3220644" lon="16.9935045"><ele>229.57142857142858</ele><time>2026-03-28T15:50:03.61Z</time></trkpt><trkpt lat="39.3221058" lon="16.993568"><ele>226.71428571428572</ele><time>2026-03-28T15:50:04.603Z</time></trkpt><trkpt lat="39.3221636" lon="16.9936222"><ele>223.8571428571429</ele><time>2026-03-28T15:50:05.601Z</time></trkpt><trkpt lat="39.322244" lon="16.9936552"><ele>221.0</ele><time>2026-03-28T15:50:06.604Z</time></trkpt><trkpt lat="39.3223231" lon="16.9936723"><ele>221.00000000000003</ele><time>2026-03-28T15:50:07.613Z</time></trkpt><trkpt lat="39.3224067" lon="16.9936372"><ele>221.0</ele><time>2026-03-28T15:50:08.61Z</time></trkpt><trkpt lat="39.3224757" lon="16.9935909"><ele>221.0</ele><time>2026-03-28T15:50:09.6Z</time></trkpt><trkpt lat="39.3225395" lon="16.9935411"><ele>221.0</ele><time>2026-03-28T15:50:10.612Z</time></trkpt><trkpt lat="39.3226005" lon="16.9934914"><ele>221.00000000000003</ele><time>2026-03-28T15:50:11.621Z</time></trkpt><trkpt lat="39.3226673" lon="16.9934316"><ele>221.0</ele><time>2026-03-28T15:50:12.602Z</time></trkpt><trkpt lat="39.3227534" lon="16.9933719"><ele>223.14285714285717</ele><time>2026-03-28T15:50:13.607Z</time></trkpt><trkpt lat="39.3228331" lon="16.9933296"><ele>225.28571428571428</ele><time>2026-03-28T15:50:14.613Z</time></trkpt><trkpt lat="39.3229081" lon="16.9933046"><ele>227.42857142857144</ele><time>2026-03-28T15:50:15.609Z</time></trkpt><trkpt lat="39.3229809" lon="16.9933095"><ele>229.57142857142858</ele><time>2026-03-28T15:50:16.601Z</time></trkpt><trkpt lat="39.3230487" lon="16.9933304"><ele>231.71428571428572</ele><time>2026-03-28T15:50:17.61Z</time></trkpt><trkpt lat="39.3231051" lon="16.9933817"><ele>233.85714285714286</ele><time>2026-03-28T15:50:18.614Z</time></trkpt><trkpt lat="39.3231385" lon="16.9934632"><ele>236.0</ele><time>2026-03-28T15:50:19.615Z</time></trkpt><trkpt lat="39.3231647" lon="16.9936037"><ele>228.5</ele><time>2026-03-28T15:50:20.61Z</time></trkpt><trkpt lat="39.3231881" lon="16.9937822"><ele>221.0</ele><time>2026-03-28T15:50:21.605Z</time></trkpt><trkpt lat="39.3232028" lon="16.9939425"><ele>213.5</ele><time>2026-03-28T15:50:22.612Z</time></trkpt><trkpt lat="39.3232213" lon="16.9940983"><ele>206.0</ele><time>2026-03-28T15:50:23.615Z</time></trkpt><trkpt lat="39.3232334" lon="16.9942497"><ele>204.66666666666669</ele><time>2026-03-28T15:50:24.606Z</time></trkpt><trkpt lat="39.323242" lon="16.9943929"><ele>203.33333333333334</ele><time>2026-03-28T15:50:25.614Z</time></trkpt><trkpt lat="39.3232474" lon="16.9945261"><ele>202.0</ele><time>2026-03-28T15:50:26.603Z</time></trkpt><trkpt lat="39.3232552" lon="16.9946395"><ele>200.66666666666669</ele><time>2026-03-28T15:50:27.605Z</time></trkpt><trkpt lat="39.3232621" lon="16.9947326"><ele>199.33333333333334</ele><time>2026-03-28T15:50:28.607Z</time></trkpt><trkpt lat="39.3232701" lon="16.9948192"><ele>198.0</ele><time>2026-03-28T15:50:29.62Z</time></trkpt><trkpt lat="39.3232903" lon="16.9949007"><ele>198.0</ele><time>2026-03-28T15:50:30.605Z</time></trkpt><trkpt lat="39.3233298" lon="16.9949772"><ele>198.0</ele><time>2026-03-28T15:50:31.604Z</time></trkpt><trkpt lat="39.3233864" lon="16.9950453"><ele>198.0</ele><time>2026-03-28T15:50:32.609Z</time></trkpt><trkpt lat="39.3234511" lon="16.9951046"><ele>198.0</ele><time>2026-03-28T15:50:33.618Z</time></trkpt><trkpt lat="39.3235398" lon="16.9951278"><ele>198.0</ele><time>2026-03-28T15:50:34.612Z</time></trkpt><trkpt lat="39.3236401" lon="16.9951272"><ele>198.0</ele><time>2026-03-28T15:50:35.604Z</time></trkpt><trkpt lat="39.3237493" lon="16.9951204"><ele>195.0</ele><time>2026-03-28T15:50:36.607Z</time></trkpt><trkpt lat="39.3238553" lon="16.9951124"><ele>192.0</ele><time>2026-03-28T15:50:37.612Z</time></trkpt><trkpt lat="39.3239656" lon="16.9951062"><ele>189.0</ele><time>2026-03-28T15:50:38.606Z</time></trkpt><trkpt lat="39.3240749" lon="16.9950986"><ele>186.0</ele><time>2026-03-28T15:50:39.604Z</time></trkpt><trkpt lat="39.3241803" lon="16.9950796"><ele>183.0</ele><time>2026-03-28T15:50:40.604Z</time></trkpt><trkpt lat="39.3242789" lon="16.9950448"><ele>183.5</ele><time>2026-03-28T15:50:41.609Z</time></trkpt><trkpt lat="39.3243618" lon="16.9949921"><ele>184.0</ele><time>2026-03-28T15:50:42.615Z</time></trkpt><trkpt lat="39.3244279" lon="16.9949241"><ele>184.5</ele><time>2026-03-28T15:50:43.604Z</time></trkpt><trkpt lat="39.3244857" lon="16.9948454"><ele>185.0</ele><time>2026-03-28T15:50:44.605Z</time></trkpt><trkpt lat="39.3245449" lon="16.9947678"><ele>185.5</ele><time>2026-03-28T15:50:45.615Z</time></trkpt><trkpt lat="39.324597" lon="16.9947026"><ele>186.0</ele><time>2026-03-28T15:50:46.603Z</time></trkpt><trkpt lat="39.3246425" lon="16.994562"><ele>186.0</ele><time>2026-03-28T15:50:48.608Z</time></trkpt><trkpt lat="39.3246299" lon="16.9943833"><ele>186.0</ele><time>2026-03-28T15:50:50.604Z</time></trkpt><trkpt lat="39.324615" lon="16.9942578"><ele>186.0</ele><time>2026-03-28T15:50:51.606Z</time></trkpt><trkpt lat="39.3245954" lon="16.9941339"><ele>186.0</ele><time>2026-03-28T15:50:52.605Z</time></trkpt><trkpt lat="39.3245678" lon="16.9940314"><ele>186.0</ele><time>2026-03-28T15:50:53.61Z</time></trkpt><trkpt lat="39.3245472" lon="16.9938888"><ele>186.16666666666666</ele><time>2026-03-28T15:50:55.603Z</time></trkpt><trkpt lat="39.3245733" lon="16.993801"><ele>186.33333333333334</ele><time>2026-03-28T15:50:58.611Z</time></trkpt><trkpt lat="39.3246479" lon="16.9938147"><ele>186.5</ele><time>2026-03-28T15:51:00.607Z</time></trkpt><trkpt lat="39.3246976" lon="16.9938733"><ele>186.66666666666669</ele><time>2026-03-28T15:51:01.606Z</time></trkpt><trkpt lat="39.3247465" lon="16.9939384"><ele>186.83333333333334</ele><time>2026-03-28T15:51:02.605Z</time></trkpt><trkpt lat="39.3248108" lon="16.994007"><ele>187.0</ele><time>2026-03-28T15:51:03.605Z</time></trkpt><trkpt lat="39.3248985" lon="16.9940724"><ele>184.6</ele><time>2026-03-28T15:51:04.608Z</time></trkpt><trkpt lat="39.3250015" lon="16.9941531"><ele>182.2</ele><time>2026-03-28T15:51:05.613Z</time></trkpt><trkpt lat="39.3250919" lon="16.9942333"><ele>179.8</ele><time>2026-03-28T15:51:06.611Z</time></trkpt><trkpt lat="39.3251715" lon="16.994296"><ele>177.4</ele><time>2026-03-28T15:51:07.604Z</time></trkpt><trkpt lat="39.3252613" lon="16.9943299"><ele>175.0</ele><time>2026-03-28T15:51:08.605Z</time></trkpt><trkpt lat="39.3253705" lon="16.9943512"><ele>174.75</ele><time>2026-03-28T15:51:09.609Z</time></trkpt><trkpt lat="39.3254931" lon="16.9943642"><ele>174.5</ele><time>2026-03-28T15:51:10.605Z</time></trkpt><trkpt lat="39.3256161" lon="16.9943679"><ele>174.25</ele><time>2026-03-28T15:51:11.602Z</time></trkpt><trkpt lat="39.325739" lon="16.9943572"><ele>174.0</ele><time>2026-03-28T15:51:12.603Z</time></trkpt><trkpt lat="39.3258559" lon="16.9943377"><ele>174.0</ele><time>2026-03-28T15:51:13.608Z</time></trkpt><trkpt lat="39.3259537" lon="16.9942931"><ele>174.0</ele><time>2026-03-28T15:51:14.6Z</time></trkpt><trkpt lat="39.3260564" lon="16.9942222"><ele>174.0</ele><time>2026-03-28T15:51:15.61Z</time></trkpt><trkpt lat="39.3261577" lon="16.994151"><ele>174.0</ele><time>2026-03-28T15:51:16.604Z</time></trkpt><trkpt lat="39.3262474" lon="16.9940913"><ele>174.0</ele><time>2026-03-28T15:51:17.617Z</time></trkpt><trkpt lat="39.3263202" lon="16.9940177"><ele>175.6</ele><time>2026-03-28T15:51:18.608Z</time></trkpt><trkpt lat="39.326394" lon="16.9939347"><ele>177.2</ele><time>2026-03-28T15:51:19.623Z</time></trkpt><trkpt lat="39.3264477" lon="16.993826"><ele>178.79999999999998</ele><time>2026-03-28T15:51:20.601Z</time></trkpt><trkpt lat="39.326513" lon="16.9937462"><ele>180.39999999999998</ele><time>2026-03-28T15:51:21.618Z</time></trkpt><trkpt lat="39.3265835" lon="16.9936859"><ele>182.0</ele><time>2026-03-28T15:51:22.608Z</time></trkpt><trkpt lat="39.3266613" lon="16.9936233"><ele>182.6</ele><time>2026-03-28T15:51:23.61Z</time></trkpt><trkpt lat="39.326751" lon="16.9935613"><ele>183.2</ele><time>2026-03-28T15:51:24.607Z</time></trkpt><trkpt lat="39.3268405" lon="16.9935001"><ele>183.8</ele><time>2026-03-28T15:51:25.613Z</time></trkpt><trkpt lat="39.3269195" lon="16.993428"><ele>184.4</ele><time>2026-03-28T15:51:26.606Z</time></trkpt><trkpt lat="39.3269719" lon="16.9933306"><ele>185.0</ele><time>2026-03-28T15:51:27.613Z</time></trkpt><trkpt lat="39.3270006" lon="16.9932546"><ele>184.99999999999997</ele><time>2026-03-28T15:51:28.611Z</time></trkpt><trkpt lat="39.3270573" lon="16.9931961"><ele>185.0</ele><time>2026-03-28T15:51:31.612Z</time></trkpt><trkpt lat="39.327105" lon="16.9932662"><ele>185.0</ele><time>2026-03-28T15:51:36.603Z</time></trkpt><trkpt lat="39.3271524" lon="16.9933242"><ele>185.0</ele><time>2026-03-28T15:51:42.607Z</time></trkpt><trkpt lat="39.3272143" lon="16.9933776"><ele>185.0</ele><time>2026-03-28T15:52:04.611Z</time></trkpt><trkpt lat="39.3272985" lon="16.9934059"><ele>184.99999999999997</ele><time>2026-03-28T15:52:13.605Z</time></trkpt><trkpt lat="39.3273701" lon="16.9934151"><ele>185.0</ele><time>2026-03-28T15:52:17.616Z</time></trkpt><trkpt lat="39.3274396" lon="16.9934412"><ele>186.2</ele><time>2026-03-28T15:52:20.611Z</time></trkpt><trkpt lat="39.3274697" lon="16.9935266"><ele>187.4</ele><time>2026-03-28T15:52:22.609Z</time></trkpt><trkpt lat="39.3274859" lon="16.9936198"><ele>188.60000000000002</ele><time>2026-03-28T15:52:23.617Z</time></trkpt><trkpt lat="39.3275016" lon="16.9937525"><ele>189.8</ele><time>2026-03-28T15:52:24.608Z</time></trkpt><trkpt lat="39.3275209" lon="16.9938997"><ele>191.0</ele><time>2026-03-28T15:52:25.604Z</time></trkpt><trkpt lat="39.3275473" lon="16.9940349"><ele>191.0</ele><time>2026-03-28T15:52:26.61Z</time></trkpt><trkpt lat="39.327587" lon="16.9941608"><ele>191.0</ele><time>2026-03-28T15:52:27.62Z</time></trkpt><trkpt lat="39.3276374" lon="16.9943036"><ele>191.0</ele><time>2026-03-28T15:52:28.609Z</time></trkpt><trkpt lat="39.3276889" lon="16.9944487"><ele>191.0</ele><time>2026-03-28T15:52:29.605Z</time></trkpt><trkpt lat="39.3277391" lon="16.9945878"><ele>191.0</ele><time>2026-03-28T15:52:30.614Z</time></trkpt><trkpt lat="39.3277813" lon="16.9947111"><ele>191.0</ele><time>2026-03-28T15:52:31.611Z</time></trkpt><trkpt lat="39.3278135" lon="16.9948419"><ele>191.0</ele><time>2026-03-28T15:52:32.605Z</time></trkpt><trkpt lat="39.3278318" lon="16.9949856"><ele>191.0</ele><time>2026-03-28T15:52:33.621Z</time></trkpt><trkpt lat="39.3278286" lon="16.9951519"><ele>189.75</ele><time>2026-03-28T15:52:34.62Z</time></trkpt><trkpt lat="39.3278151" lon="16.9953138"><ele>188.5</ele><time>2026-03-28T15:52:35.599Z</time></trkpt><trkpt lat="39.3277956" lon="16.995467"><ele>187.25</ele><time>2026-03-28T15:52:36.616Z</time></trkpt><trkpt lat="39.3277731" lon="16.9956145"><ele>186.0</ele><time>2026-03-28T15:52:37.606Z</time></trkpt><trkpt lat="39.3277509" lon="16.9957517"><ele>184.4</ele><time>2026-03-28T15:52:38.605Z</time></trkpt><trkpt lat="39.3277317" lon="16.9958779"><ele>182.8</ele><time>2026-03-28T15:52:39.609Z</time></trkpt><trkpt lat="39.3277075" lon="16.9959926"><ele>181.20000000000002</ele><time>2026-03-28T15:52:40.61Z</time></trkpt><trkpt lat="39.3276732" lon="16.9961006"><ele>179.60000000000002</ele><time>2026-03-28T15:52:41.601Z</time></trkpt><trkpt lat="39.3276266" lon="16.9961933"><ele>178.0</ele><time>2026-03-28T15:52:42.611Z</time></trkpt><trkpt lat="39.3275542" lon="16.996259"><ele>178.0</ele><time>2026-03-28T15:52:43.609Z</time></trkpt><trkpt lat="39.3274654" lon="16.9963006"><ele>178.0</ele><time>2026-03-28T15:52:44.606Z</time></trkpt><trkpt lat="39.3273717" lon="16.9963316"><ele>178.0</ele><time>2026-03-28T15:52:45.601Z</time></trkpt><trkpt lat="39.3272812" lon="16.9963629"><ele>178.0</ele><time>2026-03-28T15:52:46.608Z</time></trkpt><trkpt lat="39.3271847" lon="16.9963938"><ele>178.0</ele><time>2026-03-28T15:52:47.617Z</time></trkpt><trkpt lat="39.3270843" lon="16.9964229"><ele>176.8</ele><time>2026-03-28T15:52:48.608Z</time></trkpt><trkpt lat="39.3269816" lon="16.9964533"><ele>175.60000000000002</ele><time>2026-03-28T15:52:49.603Z</time></trkpt><trkpt lat="39.326872" lon="16.9964909"><ele>174.39999999999998</ele><time>2026-03-28T15:52:50.611Z</time></trkpt><trkpt lat="39.3267655" lon="16.9965337"><ele>173.2</ele><time>2026-03-28T15:52:51.605Z</time></trkpt><trkpt lat="39.3266627" lon="16.9965818"><ele>172.0</ele><time>2026-03-28T15:52:52.604Z</time></trkpt><trkpt lat="39.3265593" lon="16.9966373"><ele>169.2</ele><time>2026-03-28T15:52:53.61Z</time></trkpt><trkpt lat="39.3264595" lon="16.9966895"><ele>166.39999999999998</ele><time>2026-03-28T15:52:54.611Z</time></trkpt><trkpt lat="39.3263769" lon="16.9967496"><ele>163.60000000000002</ele><time>2026-03-28T15:52:55.613Z</time></trkpt><trkpt lat="39.3263014" lon="16.9968063"><ele>160.8</ele><time>2026-03-28T15:52:56.606Z</time></trkpt><trkpt lat="39.3262554" lon="16.9969152"><ele>158.0</ele><time>2026-03-28T15:52:57.606Z</time></trkpt><trkpt lat="39.3262169" lon="16.9970315"><ele>158.0</ele><time>2026-03-28T15:52:58.613Z</time></trkpt><trkpt lat="39.3261727" lon="16.997141"><ele>158.0</ele><time>2026-03-28T15:52:59.608Z</time></trkpt><trkpt lat="39.3261308" lon="16.9972475"><ele>158.0</ele><time>2026-03-28T15:53:00.601Z</time></trkpt><trkpt lat="39.3260893" lon="16.9973572"><ele>158.0</ele><time>2026-03-28T15:53:01.612Z</time></trkpt><trkpt lat="39.326045" lon="16.997463"><ele>158.0</ele><time>2026-03-28T15:53:02.605Z</time></trkpt><trkpt lat="39.3260037" lon="16.9975582"><ele>157.0</ele><time>2026-03-28T15:53:03.61Z</time></trkpt><trkpt lat="39.3259694" lon="16.9976394"><ele>156.0</ele><time>2026-03-28T15:53:04.604Z</time></trkpt><trkpt lat="39.3259063" lon="16.9977547"><ele>155.0</ele><time>2026-03-28T15:53:06.608Z</time></trkpt><trkpt lat="39.325865" lon="16.9978308"><ele>154.0</ele><time>2026-03-28T15:53:09.605Z</time></trkpt><trkpt lat="39.3258321" lon="16.9979092"><ele>153.0</ele><time>2026-03-28T15:53:28.608Z</time></trkpt><trkpt lat="39.3258113" lon="16.9979978"><ele>152.0</ele><time>2026-03-28T15:58:16.606Z</time></trkpt><trkpt lat="39.3257743" lon="16.9981091"><ele>152.0</ele><time>2026-03-28T15:58:18.605Z</time></trkpt><trkpt lat="39.3257489" lon="16.9981873"><ele>152.0</ele><time>2026-03-28T15:58:19.614Z</time></trkpt><trkpt lat="39.3257195" lon="16.9982758"><ele>152.0</ele><time>2026-03-28T15:58:20.607Z</time></trkpt><trkpt lat="39.3256915" lon="16.9983663"><ele>152.0</ele><time>2026-03-28T15:58:21.61Z</time></trkpt><trkpt lat="39.3256652" lon="16.998459"><ele>152.0</ele><time>2026-03-28T15:58:22.606Z</time></trkpt><trkpt lat="39.3256472" lon="16.9985477"><ele>152.0</ele><time>2026-03-28T15:58:23.614Z</time></trkpt><trkpt lat="39.3256444" lon="16.9986369"><ele>152.0</ele><time>2026-03-28T15:58:24.605Z</time></trkpt><trkpt lat="39.3256644" lon="16.9987251"><ele>148.83333333333331</ele><time>2026-03-28T15:58:25.613Z</time></trkpt><trkpt lat="39.3257119" lon="16.9987895"><ele>145.66666666666666</ele><time>2026-03-28T15:58:26.605Z</time></trkpt><trkpt lat="39.3257747" lon="16.9988203"><ele>142.5</ele><time>2026-03-28T15:58:27.606Z</time></trkpt><trkpt lat="39.3258393" lon="16.998848"><ele>139.33333333333334</ele><time>2026-03-28T15:58:28.617Z</time></trkpt><trkpt lat="39.325925" lon="16.9988285"><ele>136.16666666666669</ele><time>2026-03-28T15:58:29.611Z</time></trkpt><trkpt lat="39.3260141" lon="16.998798"><ele>133.0</ele><time>2026-03-28T15:58:30.6Z</time></trkpt><trkpt lat="39.3260995" lon="16.9987654"><ele>133.0</ele><time>2026-03-28T15:58:31.608Z</time></trkpt><trkpt lat="39.3261619" lon="16.9986966"><ele>133.0</ele><time>2026-03-28T15:58:32.617Z</time></trkpt><trkpt lat="39.3262142" lon="16.9986123"><ele>133.0</ele><time>2026-03-28T15:58:33.623Z</time></trkpt><trkpt lat="39.3262599" lon="16.998523"><ele>133.0</ele><time>2026-03-28T15:58:34.612Z</time></trkpt><trkpt lat="39.3263025" lon="16.998441"><ele>133.0</ele><time>2026-03-28T15:58:35.605Z</time></trkpt><trkpt lat="39.3263769" lon="16.9983457"><ele>133.0</ele><time>2026-03-28T15:58:37.608Z</time></trkpt><trkpt lat="39.3264299" lon="16.9984525"><ele>133.0</ele><time>2026-03-28T15:58:40.61Z</time></trkpt><trkpt lat="39.3264099" lon="16.9985565"><ele>133.0</ele><time>2026-03-28T15:58:41.623Z</time></trkpt><trkpt lat="39.3263763" lon="16.9986837"><ele>133.0</ele><time>2026-03-28T15:58:42.605Z</time></trkpt><trkpt lat="39.3263411" lon="16.9988062"><ele>133.0</ele><time>2026-03-28T15:58:43.606Z</time></trkpt><trkpt lat="39.326299" lon="16.9989202"><ele>133.0</ele><time>2026-03-28T15:58:44.601Z</time></trkpt><trkpt lat="39.326248" lon="16.999023"><ele>133.0</ele><time>2026-03-28T15:58:45.612Z</time></trkpt><trkpt lat="39.3261853" lon="16.9991211"><ele>133.0</ele><time>2026-03-28T15:58:46.599Z</time></trkpt><trkpt lat="39.3261096" lon="16.9992217"><ele>133.0</ele><time>2026-03-28T15:58:47.607Z</time></trkpt><trkpt lat="39.3260298" lon="16.9993098"><ele>133.0</ele><time>2026-03-28T15:58:48.611Z</time></trkpt><trkpt lat="39.3259526" lon="16.9993932"><ele>133.0</ele><time>2026-03-28T15:58:49.601Z</time></trkpt><trkpt lat="39.3258747" lon="16.9994635"><ele>128.6</ele><time>2026-03-28T15:58:50.605Z</time></trkpt><trkpt lat="39.3257973" lon="16.9995165"><ele>124.20000000000002</ele><time>2026-03-28T15:58:51.608Z</time></trkpt><trkpt lat="39.3257267" lon="16.999547"><ele>119.8</ele><time>2026-03-28T15:58:52.604Z</time></trkpt><trkpt lat="39.325665" lon="16.9995755"><ele>115.4</ele><time>2026-03-28T15:58:53.611Z</time></trkpt><trkpt lat="39.3256312" lon="16.9996929"><ele>111.0</ele><time>2026-03-28T15:58:55.601Z</time></trkpt><trkpt lat="39.3257132" lon="16.999826"><ele>111.0</ele><time>2026-03-28T15:58:57.612Z</time></trkpt><trkpt lat="39.3257889" lon="16.9999096"><ele>111.0</ele><time>2026-03-28T15:58:58.603Z</time></trkpt><trkpt lat="39.3258522" lon="17.0000248"><ele>111.0</ele><time>2026-03-28T15:58:59.601Z</time></trkpt><trkpt lat="39.3258874" lon="17.0001655"><ele>111.0</ele><time>2026-03-28T15:59:00.608Z</time></trkpt><trkpt lat="39.3259049" lon="17.0003397"><ele>111.0</ele><time>2026-03-28T15:59:01.605Z</time></trkpt><trkpt lat="39.3258956" lon="17.0005065"><ele>111.0</ele><time>2026-03-28T15:59:02.609Z</time></trkpt><trkpt lat="39.3258714" lon="17.0006455"><ele>111.0</ele><time>2026-03-28T15:59:03.598Z</time></trkpt><trkpt lat="39.3258292" lon="17.0007545"><ele>111.0</ele><time>2026-03-28T15:59:04.606Z</time></trkpt><trkpt lat="39.3257726" lon="17.0008319"><ele>111.0</ele><time>2026-03-28T15:59:05.603Z</time></trkpt><trkpt lat="39.3256953" lon="17.0009165"><ele>111.4</ele><time>2026-03-28T15:59:06.61Z</time></trkpt><trkpt lat="39.3256087" lon="17.0010085"><ele>111.8</ele><time>2026-03-28T15:59:07.603Z</time></trkpt><trkpt lat="39.3255582" lon="17.0011102"><ele>112.20000000000002</ele><time>2026-03-28T15:59:08.602Z</time></trkpt><trkpt lat="39.3255364" lon="17.0012355"><ele>112.60000000000001</ele><time>2026-03-28T15:59:09.616Z</time></trkpt><trkpt lat="39.3255127" lon="17.0013684"><ele>113.0</ele><time>2026-03-28T15:59:10.608Z</time></trkpt><trkpt lat="39.3254943" lon="17.0015142"><ele>113.0</ele><time>2026-03-28T15:59:11.608Z</time></trkpt><trkpt lat="39.3254823" lon="17.0016515"><ele>113.00000000000001</ele><time>2026-03-28T15:59:12.608Z</time></trkpt><trkpt lat="39.3254923" lon="17.0017778"><ele>113.00000000000001</ele><time>2026-03-28T15:59:13.607Z</time></trkpt><trkpt lat="39.3255099" lon="17.0019077"><ele>113.0</ele><time>2026-03-28T15:59:14.61Z</time></trkpt><trkpt lat="39.3255332" lon="17.0020397"><ele>113.0</ele><time>2026-03-28T15:59:15.618Z</time></trkpt><trkpt lat="39.3255544" lon="17.0021868"><ele>111.99999999999999</ele><time>2026-03-28T15:59:16.61Z</time></trkpt><trkpt lat="39.3255689" lon="17.0023275"><ele>111.0</ele><time>2026-03-28T15:59:17.604Z</time></trkpt><trkpt lat="39.3255793" lon="17.0024544"><ele>110.0</ele><time>2026-03-28T15:59:18.607Z</time></trkpt><trkpt lat="39.3255833" lon="17.0025665"><ele>109.0</ele><time>2026-03-28T15:59:19.613Z</time></trkpt><trkpt lat="39.3255806" lon="17.0026676"><ele>107.99999999999999</ele><time>2026-03-28T15:59:20.614Z</time></trkpt><trkpt lat="39.3255789" lon="17.0027573"><ele>107.0</ele><time>2026-03-28T15:59:21.604Z</time></trkpt><trkpt lat="39.3255763" lon="17.0028439"><ele>107.83333333333333</ele><time>2026-03-28T15:59:22.606Z</time></trkpt><trkpt lat="39.3255571" lon="17.0029329"><ele>108.66666666666666</ele><time>2026-03-28T15:59:23.608Z</time></trkpt><trkpt lat="39.325504" lon="17.0030664"><ele>109.5</ele><time>2026-03-28T15:59:25.602Z</time></trkpt><trkpt lat="39.3254734" lon="17.003144"><ele>110.33333333333334</ele><time>2026-03-28T15:59:27.614Z</time></trkpt><trkpt lat="39.3254387" lon="17.003227"><ele>111.16666666666667</ele><time>2026-03-28T15:59:43.609Z</time></trkpt><trkpt lat="39.3254003" lon="17.0033128"><ele>112.0</ele><time>2026-03-28T15:59:54.623Z</time></trkpt><trkpt lat="39.3253706" lon="17.0033931"><ele>112.0</ele><time>2026-03-28T16:00:00.603Z</time></trkpt><trkpt lat="39.325349" lon="17.0034868"><ele>112.0</ele><time>2026-03-28T16:00:09.613Z</time></trkpt><trkpt lat="39.3253276" lon="17.0035926"><ele>112.0</ele><time>2026-03-28T16:00:18.609Z</time></trkpt><trkpt lat="39.3252609" lon="17.0036191"><ele>112.0</ele><time>2026-03-28T16:00:23.62Z</time></trkpt><trkpt lat="39.3252237" lon="17.0036882"><ele>112.0</ele><time>2026-03-28T16:00:25.612Z</time></trkpt><trkpt lat="39.3251814" lon="17.0037772"><ele>112.0</ele><time>2026-03-28T16:00:27.616Z</time></trkpt><trkpt lat="39.3251585" lon="17.0038609"><ele>112.0</ele><time>2026-03-28T16:00:29.618Z</time></trkpt><trkpt lat="39.325142" lon="17.0039513"><ele>112.0</ele><time>2026-03-28T16:00:32.607Z</time></trkpt><trkpt lat="39.3251445" lon="17.0040638"><ele>111.99999999999999</ele><time>2026-03-28T16:00:35.616Z</time></trkpt><trkpt lat="39.3251417" lon="17.0041979"><ele>111.99999999999999</ele><time>2026-03-28T16:00:37.606Z</time></trkpt><trkpt lat="39.325159" lon="17.0043325"><ele>112.0</ele><time>2026-03-28T16:00:39.608Z</time></trkpt><trkpt lat="39.3251661" lon="17.0044537"><ele>112.0</ele><time>2026-03-28T16:00:41.621Z</time></trkpt><trkpt lat="39.3251588" lon="17.0045876"><ele>111.16666666666667</ele><time>2026-03-28T16:00:43.614Z</time></trkpt><trkpt lat="39.3251567" lon="17.0047428"><ele>110.33333333333334</ele><time>2026-03-28T16:00:45.605Z</time></trkpt><trkpt lat="39.3251581" lon="17.0048319"><ele>109.5</ele><time>2026-03-28T16:00:46.61Z</time></trkpt><trkpt lat="39.3251538" lon="17.0049234"><ele>108.66666666666666</ele><time>2026-03-28T16:00:47.617Z</time></trkpt><trkpt lat="39.3251518" lon="17.0050119"><ele>107.83333333333333</ele><time>2026-03-28T16:00:48.603Z</time></trkpt><trkpt lat="39.3251484" lon="17.0051001"><ele>107.0</ele><time>2026-03-28T16:00:49.612Z</time></trkpt><trkpt lat="39.3251386" lon="17.0051832"><ele>106.83333333333333</ele><time>2026-03-28T16:00:50.605Z</time></trkpt><trkpt lat="39.3251417" lon="17.0053082"><ele>106.66666666666666</ele><time>2026-03-28T16:00:52.609Z</time></trkpt><trkpt lat="39.3251589" lon="17.0054183"><ele>106.5</ele><time>2026-03-28T16:00:54.61Z</time></trkpt><trkpt lat="39.3251696" lon="17.0055611"><ele>106.33333333333334</ele><time>2026-03-28T16:00:56.602Z</time></trkpt><trkpt lat="39.3251575" lon="17.0056494"><ele>106.16666666666667</ele><time>2026-03-28T16:00:57.604Z</time></trkpt><trkpt lat="39.3251556" lon="17.0057415"><ele>106.0</ele><time>2026-03-28T16:00:58.607Z</time></trkpt><trkpt lat="39.3251579" lon="17.0058368"><ele>105.50000000000001</ele><time>2026-03-28T16:00:59.609Z</time></trkpt><trkpt lat="39.3251564" lon="17.0059251"><ele>105.0</ele><time>2026-03-28T16:01:00.605Z</time></trkpt><trkpt lat="39.3251543" lon="17.0060094"><ele>104.5</ele><time>2026-03-28T16:01:01.605Z</time></trkpt><trkpt lat="39.3251291" lon="17.0061409"><ele>104.0</ele><time>2026-03-28T16:01:03.616Z</time></trkpt><trkpt lat="39.3250995" lon="17.0062482"><ele>103.50000000000001</ele><time>2026-03-28T16:01:05.599Z</time></trkpt><trkpt lat="39.3250937" lon="17.0063834"><ele>103.0</ele><time>2026-03-28T16:01:07.609Z</time></trkpt><trkpt lat="39.3250937" lon="17.0065228"><ele>103.00000000000001</ele><time>2026-03-28T16:01:09.615Z</time></trkpt><trkpt lat="39.3250909" lon="17.006636"><ele>103.0</ele><time>2026-03-28T16:01:11.599Z</time></trkpt><trkpt lat="39.3251142" lon="17.0067247"><ele>103.0</ele><time>2026-03-28T16:01:13.61Z</time></trkpt><trkpt lat="39.3251431" lon="17.0068226"><ele>103.0</ele><time>2026-03-28T16:01:15.611Z</time></trkpt><trkpt lat="39.3251654" lon="17.0069245"><ele>103.00000000000001</ele><time>2026-03-28T16:01:17.603Z</time></trkpt><trkpt lat="39.3252133" lon="17.0070063"><ele>103.0</ele><time>2026-03-28T16:01:19.602Z</time></trkpt><trkpt lat="39.3252719" lon="17.0071111"><ele>103.4</ele><time>2026-03-28T16:01:21.638Z</time></trkpt><trkpt lat="39.3253519" lon="17.0071731"><ele>103.80000000000001</ele><time>2026-03-28T16:01:23.602Z</time></trkpt><trkpt lat="39.3254521" lon="17.0071663"><ele>104.2</ele><time>2026-03-28T16:01:25.617Z</time></trkpt><trkpt lat="39.3255572" lon="17.007136"><ele>104.6</ele><time>2026-03-28T16:01:27.594Z</time></trkpt><trkpt lat="39.3256658" lon="17.0071218"><ele>105.0</ele><time>2026-03-28T16:01:29.626Z</time></trkpt><trkpt lat="39.3257599" lon="17.0071149"><ele>103.4</ele><time>2026-03-28T16:01:31.605Z</time></trkpt><trkpt lat="39.3258573" lon="17.0070994"><ele>101.8</ele><time>2026-03-28T16:01:33.619Z</time></trkpt><trkpt lat="39.3259555" lon="17.0071218"><ele>100.19999999999999</ele><time>2026-03-28T16:01:35.615Z</time></trkpt><trkpt lat="39.3260608" lon="17.0071518"><ele>98.6</ele><time>2026-03-28T16:01:37.613Z</time></trkpt><trkpt lat="39.326164" lon="17.0072037"><ele>97.0</ele><time>2026-03-28T16:01:39.604Z</time></trkpt><trkpt lat="39.3262677" lon="17.0072636"><ele>97.0</ele><time>2026-03-28T16:01:41.615Z</time></trkpt><trkpt lat="39.326362" lon="17.0073621"><ele>97.0</ele><time>2026-03-28T16:01:43.612Z</time></trkpt><trkpt lat="39.3264549" lon="17.0074585"><ele>97.0</ele><time>2026-03-28T16:01:45.61Z</time></trkpt><trkpt lat="39.3265025" lon="17.007587"><ele>97.0</ele><time>2026-03-28T16:01:47.609Z</time></trkpt><trkpt lat="39.326549" lon="17.0077077"><ele>96.66666666666667</ele><time>2026-03-28T16:01:49.613Z</time></trkpt><trkpt lat="39.3265753" lon="17.0077829"><ele>96.33333333333334</ele><time>2026-03-28T16:01:50.605Z</time></trkpt><trkpt lat="39.3266016" lon="17.0078671"><ele>96.0</ele><time>2026-03-28T16:01:51.612Z</time></trkpt><trkpt lat="39.326627" lon="17.0079731"><ele>95.66666666666667</ele><time>2026-03-28T16:01:52.607Z</time></trkpt><trkpt lat="39.3266355" lon="17.0080709"><ele>95.33333333333334</ele><time>2026-03-28T16:01:53.614Z</time></trkpt><trkpt lat="39.3266254" lon="17.0081515"><ele>95.0</ele><time>2026-03-28T16:01:54.602Z</time></trkpt><trkpt lat="39.3265651" lon="17.0082829"><ele>94.6</ele><time>2026-03-28T16:01:56.606Z</time></trkpt><trkpt lat="39.3265032" lon="17.0084019"><ele>94.2</ele><time>2026-03-28T16:01:58.608Z</time></trkpt><trkpt lat="39.3264538" lon="17.0085125"><ele>93.80000000000001</ele><time>2026-03-28T16:02:00.606Z</time></trkpt><trkpt lat="39.326425" lon="17.0086218"><ele>93.4</ele><time>2026-03-28T16:02:02.613Z</time></trkpt><trkpt lat="39.3264216" lon="17.008747"><ele>93.0</ele><time>2026-03-28T16:02:04.609Z</time></trkpt><trkpt lat="39.3264431" lon="17.008904"><ele>93.0</ele><time>2026-03-28T16:02:06.608Z</time></trkpt><trkpt lat="39.3264758" lon="17.0089834"><ele>93.0</ele><time>2026-03-28T16:02:07.617Z</time></trkpt><trkpt lat="39.3265218" lon="17.0090559"><ele>93.0</ele><time>2026-03-28T16:02:08.607Z</time></trkpt><trkpt lat="39.3265669" lon="17.0091232"><ele>93.0</ele><time>2026-03-28T16:02:09.602Z</time></trkpt><trkpt lat="39.3266198" lon="17.0091693"><ele>93.0</ele><time>2026-03-28T16:02:10.62Z</time></trkpt><trkpt lat="39.3267317" lon="17.0092515"><ele>93.0</ele><time>2026-03-28T16:02:12.608Z</time></trkpt><trkpt lat="39.3267947" lon="17.0092697"><ele>93.16666666666667</ele><time>2026-03-28T16:02:13.605Z</time></trkpt><trkpt lat="39.3268845" lon="17.0092824"><ele>93.33333333333333</ele><time>2026-03-28T16:02:15.617Z</time></trkpt><trkpt lat="39.3269634" lon="17.0092965"><ele>93.5</ele><time>2026-03-28T16:02:19.613Z</time></trkpt><trkpt lat="39.3270288" lon="17.0093183"><ele>93.66666666666666</ele><time>2026-03-28T16:02:22.609Z</time></trkpt><trkpt lat="39.3270938" lon="17.0093729"><ele>93.83333333333333</ele><time>2026-03-28T16:02:26.608Z</time></trkpt><trkpt lat="39.327173" lon="17.0094613"><ele>94.0</ele><time>2026-03-28T16:02:29.615Z</time></trkpt><trkpt lat="39.3272672" lon="17.00954"><ele>94.0</ele><time>2026-03-28T16:02:31.609Z</time></trkpt><trkpt lat="39.3273832" lon="17.0095738"><ele>94.0</ele><time>2026-03-28T16:02:33.608Z</time></trkpt><trkpt lat="39.3274832" lon="17.0096203"><ele>94.0</ele><time>2026-03-28T16:02:35.607Z</time></trkpt><trkpt lat="39.3275502" lon="17.0096992"><ele>94.0</ele><time>2026-03-28T16:02:37.605Z</time></trkpt><trkpt lat="39.3275661" lon="17.0098245"><ele>94.0</ele><time>2026-03-28T16:02:39.611Z</time></trkpt><trkpt lat="39.3275251" lon="17.0099663"><ele>93.16666666666666</ele><time>2026-03-28T16:02:41.599Z</time></trkpt><trkpt lat="39.3274913" lon="17.0100894"><ele>92.33333333333333</ele><time>2026-03-28T16:02:43.607Z</time></trkpt><trkpt lat="39.3274758" lon="17.0101787"><ele>91.5</ele><time>2026-03-28T16:02:45.599Z</time></trkpt><trkpt lat="39.3274485" lon="17.0102661"><ele>90.66666666666667</ele><time>2026-03-28T16:02:48.603Z</time></trkpt><trkpt lat="39.32741" lon="17.0103346"><ele>89.83333333333334</ele><time>2026-03-28T16:02:50.604Z</time></trkpt><trkpt lat="39.3273592" lon="17.0104416"><ele>89.0</ele><time>2026-03-28T16:02:53.619Z</time></trkpt><trkpt lat="39.3273135" lon="17.0105219"><ele>88.99999999999999</ele><time>2026-03-28T16:02:55.612Z</time></trkpt><trkpt lat="39.3272866" lon="17.0106091"><ele>89.0</ele><time>2026-03-28T16:02:57.612Z</time></trkpt><trkpt lat="39.3272799" lon="17.0107001"><ele>89.0</ele><time>2026-03-28T16:02:59.611Z</time></trkpt><trkpt lat="39.3272991" lon="17.010798"><ele>89.0</ele><time>2026-03-28T16:03:01.621Z</time></trkpt><trkpt lat="39.3273645" lon="17.0108647"><ele>89.0</ele><time>2026-03-28T16:03:04.605Z</time></trkpt><trkpt lat="39.3274233" lon="17.0108949"><ele>88.99999999999999</ele><time>2026-03-28T16:03:06.601Z</time></trkpt><trkpt lat="39.327494" lon="17.0109402"><ele>89.0</ele><time>2026-03-28T16:03:08.609Z</time></trkpt><trkpt lat="39.3275643" lon="17.0110043"><ele>89.2</ele><time>2026-03-28T16:03:10.614Z</time></trkpt><trkpt lat="39.3276491" lon="17.0110692"><ele>89.4</ele><time>2026-03-28T16:03:12.606Z</time></trkpt><trkpt lat="39.3277649" lon="17.0111583"><ele>89.6</ele><time>2026-03-28T16:03:14.602Z</time></trkpt><trkpt lat="39.3278286" lon="17.0112033"><ele>89.8</ele><time>2026-03-28T16:03:15.608Z</time></trkpt><trkpt lat="39.3278902" lon="17.0112477"><ele>90.0</ele><time>2026-03-28T16:03:16.61Z</time></trkpt><trkpt lat="39.3279836" lon="17.011336"><ele>90.0</ele><time>2026-03-28T16:03:18.609Z</time></trkpt><trkpt lat="39.3280542" lon="17.0114233"><ele>90.0</ele><time>2026-03-28T16:03:20.608Z</time></trkpt><trkpt lat="39.3280948" lon="17.0115062"><ele>90.0</ele><time>2026-03-28T16:03:22.619Z</time></trkpt><trkpt lat="39.3281028" lon="17.0115899"><ele>90.0</ele><time>2026-03-28T16:03:24.611Z</time></trkpt><trkpt lat="39.3280471" lon="17.0116608"><ele>90.0</ele><time>2026-03-28T16:03:27.613Z</time></trkpt><trkpt lat="39.3279826" lon="17.0117036"><ele>90.0</ele><time>2026-03-28T16:03:29.614Z</time></trkpt><trkpt lat="39.3279189" lon="17.0117414"><ele>91.0</ele><time>2026-03-28T16:03:31.617Z</time></trkpt><trkpt lat="39.3278396" lon="17.0118003"><ele>92.0</ele><time>2026-03-28T16:03:33.605Z</time></trkpt><trkpt lat="39.3277593" lon="17.0118857"><ele>93.0</ele><time>2026-03-28T16:03:35.612Z</time></trkpt><trkpt lat="39.3277281" lon="17.0119647"><ele>94.0</ele><time>2026-03-28T16:03:37.621Z</time></trkpt><trkpt lat="39.3277154" lon="17.0120634"><ele>95.0</ele><time>2026-03-28T16:03:39.608Z</time></trkpt><trkpt lat="39.3277017" lon="17.0121774"><ele>96.0</ele><time>2026-03-28T16:03:41.604Z</time></trkpt><trkpt lat="39.3276925" lon="17.0123048"><ele>96.0</ele><time>2026-03-28T16:03:43.618Z</time></trkpt><trkpt lat="39.3277051" lon="17.0124334"><ele>96.0</ele><time>2026-03-28T16:03:45.6Z</time></trkpt><trkpt lat="39.3277255" lon="17.012541"><ele>96.0</ele><time>2026-03-28T16:03:47.608Z</time></trkpt><trkpt lat="39.3277673" lon="17.0126565"><ele>96.0</ele><time>2026-03-28T16:03:49.6Z</time></trkpt><trkpt lat="39.3278143" lon="17.0127338"><ele>96.0</ele><time>2026-03-28T16:03:51.618Z</time></trkpt><trkpt lat="39.3278843" lon="17.0128069"><ele>95.6</ele><time>2026-03-28T16:03:54.609Z</time></trkpt><trkpt lat="39.327946" lon="17.0128274"><ele>95.19999999999999</ele><time>2026-03-28T16:03:56.605Z</time></trkpt><trkpt lat="39.3280415" lon="17.0128137"><ele>94.80000000000001</ele><time>2026-03-28T16:03:58.602Z</time></trkpt><trkpt lat="39.3281546" lon="17.0127619"><ele>94.4</ele><time>2026-03-28T16:04:00.596Z</time></trkpt><trkpt lat="39.3282644" lon="17.0127198"><ele>94.0</ele><time>2026-03-28T16:04:02.605Z</time></trkpt><trkpt lat="39.3283657" lon="17.0127086"><ele>93.0</ele><time>2026-03-28T16:04:04.611Z</time></trkpt><trkpt lat="39.3284322" lon="17.0126906"><ele>92.0</ele><time>2026-03-28T16:04:07.607Z</time></trkpt><trkpt lat="39.3285083" lon="17.0126877"><ele>91.0</ele><time>2026-03-28T16:04:10.606Z</time></trkpt><trkpt lat="39.3285956" lon="17.0126942"><ele>90.0</ele><time>2026-03-28T16:04:12.606Z</time></trkpt><trkpt lat="39.3286931" lon="17.0127013"><ele>89.0</ele><time>2026-03-28T16:04:14.623Z</time></trkpt><trkpt lat="39.3288053" lon="17.0127224"><ele>88.0</ele><time>2026-03-28T16:04:16.601Z</time></trkpt><trkpt lat="39.3288679" lon="17.0127414"><ele>88.42857142857143</ele><time>2026-03-28T16:04:17.614Z</time></trkpt><trkpt lat="39.3289315" lon="17.0127682"><ele>88.85714285714286</ele><time>2026-03-28T16:04:18.606Z</time></trkpt><trkpt lat="39.3289971" lon="17.0127945"><ele>89.28571428571428</ele><time>2026-03-28T16:04:19.605Z</time></trkpt><trkpt lat="39.3290568" lon="17.0128302"><ele>89.71428571428572</ele><time>2026-03-28T16:04:20.601Z</time></trkpt><trkpt lat="39.3291222" lon="17.012905"><ele>90.14285714285714</ele><time>2026-03-28T16:04:22.61Z</time></trkpt><trkpt lat="39.3291218" lon="17.0129874"><ele>90.57142857142857</ele><time>2026-03-28T16:04:24.602Z</time></trkpt><trkpt lat="39.3290892" lon="17.0130791"><ele>91.0</ele><time>2026-03-28T16:04:27.605Z</time></trkpt><trkpt lat="39.3290277" lon="17.0131815"><ele>91.0</ele><time>2026-03-28T16:04:29.622Z</time></trkpt><trkpt lat="39.3289665" lon="17.0133149"><ele>91.0</ele><time>2026-03-28T16:04:31.603Z</time></trkpt><trkpt lat="39.3289256" lon="17.0134625"><ele>91.0</ele><time>2026-03-28T16:04:33.607Z</time></trkpt><trkpt lat="39.3289274" lon="17.0135883"><ele>91.0</ele><time>2026-03-28T16:04:35.611Z</time></trkpt><trkpt lat="39.3289388" lon="17.0136972"><ele>91.0</ele><time>2026-03-28T16:04:37.612Z</time></trkpt><trkpt lat="39.3289574" lon="17.0138162"><ele>90.5</ele><time>2026-03-28T16:04:39.612Z</time></trkpt><trkpt lat="39.3289796" lon="17.0139329"><ele>90.0</ele><time>2026-03-28T16:04:41.598Z</time></trkpt><trkpt lat="39.3289961" lon="17.014027"><ele>89.5</ele><time>2026-03-28T16:04:43.621Z</time></trkpt><trkpt lat="39.3290088" lon="17.0141254"><ele>89.0</ele><time>2026-03-28T16:04:45.603Z</time></trkpt><trkpt lat="39.3290328" lon="17.0142322"><ele>88.5</ele><time>2026-03-28T16:04:47.614Z</time></trkpt><trkpt lat="39.3290588" lon="17.0143463"><ele>88.0</ele><time>2026-03-28T16:04:49.623Z</time></trkpt><trkpt lat="39.3290645" lon="17.014456"><ele>88.0</ele><time>2026-03-28T16:04:51.607Z</time></trkpt><trkpt lat="39.3290741" lon="17.0145658"><ele>88.0</ele><time>2026-03-28T16:04:53.613Z</time></trkpt><trkpt lat="39.3290826" lon="17.0146973"><ele>88.0</ele><time>2026-03-28T16:04:55.61Z</time></trkpt><trkpt lat="39.3290947" lon="17.0148252"><ele>88.0</ele><time>2026-03-28T16:04:57.607Z</time></trkpt><trkpt lat="39.3290995" lon="17.0149424"><ele>88.0</ele><time>2026-03-28T16:04:59.603Z</time></trkpt><trkpt lat="39.3291068" lon="17.0150546"><ele>86.80000000000001</ele><time>2026-03-28T16:05:01.609Z</time></trkpt><trkpt lat="39.3291169" lon="17.0151675"><ele>85.6</ele><time>2026-03-28T16:05:03.603Z</time></trkpt><trkpt lat="39.3291254" lon="17.0152911"><ele>84.4</ele><time>2026-03-28T16:05:05.606Z</time></trkpt><trkpt lat="39.3291363" lon="17.015423"><ele>83.19999999999999</ele><time>2026-03-28T16:05:07.608Z</time></trkpt><trkpt lat="39.3291462" lon="17.0155569"><ele>82.0</ele><time>2026-03-28T16:05:09.602Z</time></trkpt><trkpt lat="39.3291578" lon="17.0156812"><ele>82.0</ele><time>2026-03-28T16:05:11.611Z</time></trkpt><trkpt lat="39.3291749" lon="17.0158172"><ele>82.0</ele><time>2026-03-28T16:05:13.609Z</time></trkpt><trkpt lat="39.3291996" lon="17.0159531"><ele>82.0</ele><time>2026-03-28T16:05:15.622Z</time></trkpt><trkpt lat="39.329238" lon="17.0160802"><ele>82.0</ele><time>2026-03-28T16:05:17.602Z</time></trkpt><trkpt lat="39.3292622" lon="17.0162026"><ele>82.0</ele><time>2026-03-28T16:05:19.611Z</time></trkpt><trkpt lat="39.3292949" lon="17.0163342"><ele>81.83333333333333</ele><time>2026-03-28T16:05:21.607Z</time></trkpt><trkpt lat="39.3293176" lon="17.0164132"><ele>81.66666666666666</ele><time>2026-03-28T16:05:22.611Z</time></trkpt><trkpt lat="39.3293466" lon="17.0165027"><ele>81.5</ele><time>2026-03-28T16:05:23.611Z</time></trkpt><trkpt lat="39.3293869" lon="17.0165935"><ele>81.33333333333333</ele><time>2026-03-28T16:05:24.61Z</time></trkpt><trkpt lat="39.3294369" lon="17.0166906"><ele>81.16666666666667</ele><time>2026-03-28T16:05:25.604Z</time></trkpt><trkpt lat="39.3294904" lon="17.0167917"><ele>81.0</ele><time>2026-03-28T16:05:26.615Z</time></trkpt><trkpt lat="39.3295561" lon="17.0168853"><ele>81.33333333333333</ele><time>2026-03-28T16:05:27.617Z</time></trkpt><trkpt lat="39.3296167" lon="17.0169694"><ele>81.66666666666667</ele><time>2026-03-28T16:05:28.609Z</time></trkpt><trkpt lat="39.329671" lon="17.0170386"><ele>82.0</ele><time>2026-03-28T16:05:29.612Z</time></trkpt><trkpt lat="39.3297215" lon="17.0171005"><ele>82.33333333333334</ele><time>2026-03-28T16:05:30.622Z</time></trkpt><trkpt lat="39.3297714" lon="17.0171556"><ele>82.66666666666667</ele><time>2026-03-28T16:05:31.607Z</time></trkpt><trkpt lat="39.329861" lon="17.0172433"><ele>83.0</ele><time>2026-03-28T16:05:33.608Z</time></trkpt><trkpt lat="39.3299513" lon="17.0173383"><ele>82.33333333333334</ele><time>2026-03-28T16:05:35.615Z</time></trkpt><trkpt lat="39.3299974" lon="17.0173999"><ele>81.66666666666667</ele><time>2026-03-28T16:05:36.611Z</time></trkpt><trkpt lat="39.3300424" lon="17.017469"><ele>81.0</ele><time>2026-03-28T16:05:37.602Z</time></trkpt><trkpt lat="39.330084" lon="17.0175384"><ele>80.33333333333333</ele><time>2026-03-28T16:05:38.609Z</time></trkpt><trkpt lat="39.3301524" lon="17.01767"><ele>79.66666666666666</ele><time>2026-03-28T16:05:40.605Z</time></trkpt><trkpt lat="39.3302007" lon="17.0178031"><ele>79.0</ele><time>2026-03-28T16:05:42.604Z</time></trkpt><trkpt lat="39.330218" lon="17.017923"><ele>79.0</ele><time>2026-03-28T16:05:44.601Z</time></trkpt><trkpt lat="39.3302626" lon="17.0180528"><ele>79.0</ele><time>2026-03-28T16:05:46.605Z</time></trkpt><trkpt lat="39.3302965" lon="17.018193"><ele>79.0</ele><time>2026-03-28T16:05:48.602Z</time></trkpt><trkpt lat="39.3303076" lon="17.0183024"><ele>79.0</ele><time>2026-03-28T16:05:50.603Z</time></trkpt><trkpt lat="39.3303092" lon="17.0184365"><ele>79.0</ele><time>2026-03-28T16:05:52.601Z</time></trkpt><trkpt lat="39.330296" lon="17.0186045"><ele>78.83333333333333</ele><time>2026-03-28T16:05:54.611Z</time></trkpt><trkpt lat="39.330284" lon="17.0186922"><ele>78.66666666666666</ele><time>2026-03-28T16:05:55.608Z</time></trkpt><trkpt lat="39.3302661" lon="17.0187826"><ele>78.5</ele><time>2026-03-28T16:05:56.609Z</time></trkpt><trkpt lat="39.3302308" lon="17.01891"><ele>78.33333333333333</ele><time>2026-03-28T16:05:58.6Z</time></trkpt><trkpt lat="39.3302017" lon="17.0190213"><ele>78.16666666666667</ele><time>2026-03-28T16:06:00.603Z</time></trkpt><trkpt lat="39.3301448" lon="17.019144"><ele>78.0</ele><time>2026-03-28T16:06:02.601Z</time></trkpt><trkpt lat="39.3301025" lon="17.0192043"><ele>77.0</ele><time>2026-03-28T16:06:03.613Z</time></trkpt><trkpt lat="39.3300566" lon="17.0192708"><ele>76.0</ele><time>2026-03-28T16:06:04.608Z</time></trkpt><trkpt lat="39.3300141" lon="17.0193368"><ele>75.0</ele><time>2026-03-28T16:06:05.606Z</time></trkpt><trkpt lat="39.329948" lon="17.0194619"><ele>74.0</ele><time>2026-03-28T16:06:07.614Z</time></trkpt><trkpt lat="39.3298838" lon="17.0196112"><ele>73.0</ele><time>2026-03-28T16:06:09.612Z</time></trkpt><trkpt lat="39.3298495" lon="17.0196995"><ele>73.0</ele><time>2026-03-28T16:06:10.606Z</time></trkpt><trkpt lat="39.3298124" lon="17.0197901"><ele>73.0</ele><time>2026-03-28T16:06:11.6Z</time></trkpt><trkpt lat="39.3297719" lon="17.0198878"><ele>73.0</ele><time>2026-03-28T16:06:12.613Z</time></trkpt><trkpt lat="39.3297313" lon="17.0199907"><ele>73.0</ele><time>2026-03-28T16:06:13.608Z</time></trkpt><trkpt lat="39.3297014" lon="17.0200883"><ele>73.0</ele><time>2026-03-28T16:06:14.609Z</time></trkpt><trkpt lat="39.3296812" lon="17.02017"><ele>73.0</ele><time>2026-03-28T16:06:15.602Z</time></trkpt><trkpt lat="39.3296456" lon="17.0203003"><ele>72.6</ele><time>2026-03-28T16:06:17.612Z</time></trkpt><trkpt lat="39.3296109" lon="17.0204489"><ele>72.19999999999999</ele><time>2026-03-28T16:06:19.603Z</time></trkpt><trkpt lat="39.3296192" lon="17.0205326"><ele>71.8</ele><time>2026-03-28T16:06:20.612Z</time></trkpt><trkpt lat="39.3296501" lon="17.0206099"><ele>71.39999999999999</ele><time>2026-03-28T16:06:21.614Z</time></trkpt><trkpt lat="39.3297267" lon="17.0207432"><ele>71.0</ele><time>2026-03-28T16:06:23.604Z</time></trkpt><trkpt lat="39.3297699" lon="17.0208141"><ele>71.2</ele><time>2026-03-28T16:06:24.606Z</time></trkpt><trkpt lat="39.3298253" lon="17.0208789"><ele>71.39999999999999</ele><time>2026-03-28T16:06:25.612Z</time></trkpt><trkpt lat="39.3298775" lon="17.0209299"><ele>71.6</ele><time>2026-03-28T16:06:26.608Z</time></trkpt><trkpt lat="39.3299364" lon="17.021054"><ele>71.8</ele><time>2026-03-28T16:06:28.604Z</time></trkpt><trkpt lat="39.3299509" lon="17.0212226"><ele>72.0</ele><time>2026-03-28T16:06:30.602Z</time></trkpt><trkpt lat="39.3299447" lon="17.0213183"><ele>72.0</ele><time>2026-03-28T16:06:31.615Z</time></trkpt><trkpt lat="39.3299335" lon="17.0214843"><ele>72.0</ele><time>2026-03-28T16:06:33.61Z</time></trkpt><trkpt lat="39.3299325" lon="17.0215747"><ele>72.0</ele><time>2026-03-28T16:06:34.609Z</time></trkpt><trkpt lat="39.3299282" lon="17.0217107"><ele>72.0</ele><time>2026-03-28T16:06:36.606Z</time></trkpt><trkpt lat="39.3299138" lon="17.0218903"><ele>72.0</ele><time>2026-03-28T16:06:38.61Z</time></trkpt><trkpt lat="39.3299075" lon="17.0219865"><ele>71.66666666666667</ele><time>2026-03-28T16:06:39.607Z</time></trkpt><trkpt lat="39.3299143" lon="17.0220738"><ele>71.33333333333333</ele><time>2026-03-28T16:06:40.609Z</time></trkpt><trkpt lat="39.3299321" lon="17.0221539"><ele>71.0</ele><time>2026-03-28T16:06:41.616Z</time></trkpt><trkpt lat="39.3299847" lon="17.0222749"><ele>70.66666666666666</ele><time>2026-03-28T16:06:43.603Z</time></trkpt><trkpt lat="39.3300346" lon="17.0223831"><ele>70.33333333333333</ele><time>2026-03-28T16:06:45.619Z</time></trkpt><trkpt lat="39.3301182" lon="17.0224789"><ele>70.0</ele><time>2026-03-28T16:06:47.607Z</time></trkpt><trkpt lat="39.3302251" lon="17.0225684"><ele>70.16666666666666</ele><time>2026-03-28T16:06:49.615Z</time></trkpt><trkpt lat="39.3302859" lon="17.0226071"><ele>70.33333333333333</ele><time>2026-03-28T16:06:50.605Z</time></trkpt><trkpt lat="39.3303467" lon="17.0226573"><ele>70.5</ele><time>2026-03-28T16:06:51.604Z</time></trkpt><trkpt lat="39.3304115" lon="17.0227147"><ele>70.66666666666667</ele><time>2026-03-28T16:06:52.602Z</time></trkpt><trkpt lat="39.3304839" lon="17.022768"><ele>70.83333333333334</ele><time>2026-03-28T16:06:53.611Z</time></trkpt><trkpt lat="39.3305559" lon="17.0228076"><ele>71.0</ele><time>2026-03-28T16:06:54.603Z</time></trkpt><trkpt lat="39.3306257" lon="17.0228556"><ele>71.0</ele><time>2026-03-28T16:06:55.601Z</time></trkpt><trkpt lat="39.3306911" lon="17.0229181"><ele>71.0</ele><time>2026-03-28T16:06:56.609Z</time></trkpt><trkpt lat="39.3307599" lon="17.0229914"><ele>71.0</ele><time>2026-03-28T16:06:57.606Z</time></trkpt><trkpt lat="39.3308412" lon="17.0230737"><ele>71.0</ele><time>2026-03-28T16:06:58.602Z</time></trkpt><trkpt lat="39.3309274" lon="17.0231702"><ele>71.0</ele><time>2026-03-28T16:06:59.613Z</time></trkpt><trkpt lat="39.3310078" lon="17.0232562"><ele>70.2</ele><time>2026-03-28T16:07:00.616Z</time></trkpt><trkpt lat="39.3310955" lon="17.0233263"><ele>69.39999999999999</ele><time>2026-03-28T16:07:01.612Z</time></trkpt><trkpt lat="39.331189" lon="17.023394"><ele>68.6</ele><time>2026-03-28T16:07:02.602Z</time></trkpt><trkpt lat="39.331283" lon="17.0234558"><ele>67.8</ele><time>2026-03-28T16:07:03.601Z</time></trkpt><trkpt lat="39.3313748" lon="17.0235148"><ele>67.0</ele><time>2026-03-28T16:07:04.612Z</time></trkpt><trkpt lat="39.3314631" lon="17.0235711"><ele>68.83333333333333</ele><time>2026-03-28T16:07:05.611Z</time></trkpt><trkpt lat="39.3315499" lon="17.0236227"><ele>70.66666666666666</ele><time>2026-03-28T16:07:06.605Z</time></trkpt><trkpt lat="39.3316256" lon="17.0236705"><ele>72.5</ele><time>2026-03-28T16:07:07.61Z</time></trkpt><trkpt lat="39.331692" lon="17.0237177"><ele>74.33333333333333</ele><time>2026-03-28T16:07:08.6Z</time></trkpt><trkpt lat="39.3317537" lon="17.0237664"><ele>76.16666666666667</ele><time>2026-03-28T16:07:09.608Z</time></trkpt><trkpt lat="39.3318119" lon="17.0238112"><ele>78.0</ele><time>2026-03-28T16:07:10.615Z</time></trkpt><trkpt lat="39.3318672" lon="17.0238579"><ele>78.0</ele><time>2026-03-28T16:07:11.61Z</time></trkpt><trkpt lat="39.3319092" lon="17.0239212"><ele>78.0</ele><time>2026-03-28T16:07:12.609Z</time></trkpt><trkpt lat="39.3319389" lon="17.0239957"><ele>78.0</ele><time>2026-03-28T16:07:13.613Z</time></trkpt><trkpt lat="39.3319562" lon="17.0241555"><ele>78.0</ele><time>2026-03-28T16:07:15.598Z</time></trkpt><trkpt lat="39.3319344" lon="17.0243113"><ele>78.0</ele><time>2026-03-28T16:07:17.608Z</time></trkpt><trkpt lat="39.3318608" lon="17.0244375"><ele>76.66666666666667</ele><time>2026-03-28T16:07:19.602Z</time></trkpt><trkpt lat="39.3318053" lon="17.0244926"><ele>75.33333333333333</ele><time>2026-03-28T16:07:20.602Z</time></trkpt><trkpt lat="39.3317367" lon="17.0245425"><ele>74.0</ele><time>2026-03-28T16:07:21.61Z</time></trkpt><trkpt lat="39.3316637" lon="17.0245849"><ele>72.66666666666666</ele><time>2026-03-28T16:07:22.601Z</time></trkpt><trkpt lat="39.3315882" lon="17.0246278"><ele>71.33333333333333</ele><time>2026-03-28T16:07:23.602Z</time></trkpt><trkpt lat="39.3315097" lon="17.024671"><ele>70.0</ele><time>2026-03-28T16:07:24.605Z</time></trkpt><trkpt lat="39.3314258" lon="17.0247"><ele>69.16666666666666</ele><time>2026-03-28T16:07:25.607Z</time></trkpt><trkpt lat="39.3313436" lon="17.0247172"><ele>68.33333333333333</ele><time>2026-03-28T16:07:26.612Z</time></trkpt><trkpt lat="39.3312663" lon="17.0247388"><ele>67.5</ele><time>2026-03-28T16:07:27.614Z</time></trkpt><trkpt lat="39.3311982" lon="17.0247792"><ele>66.66666666666667</ele><time>2026-03-28T16:07:28.602Z</time></trkpt><trkpt lat="39.3311391" lon="17.0248406"><ele>65.83333333333334</ele><time>2026-03-28T16:07:29.604Z</time></trkpt><trkpt lat="39.3310851" lon="17.0248978"><ele>65.0</ele><time>2026-03-28T16:07:30.605Z</time></trkpt><trkpt lat="39.3310041" lon="17.0249586"><ele>64.83333333333334</ele><time>2026-03-28T16:07:32.6Z</time></trkpt><trkpt lat="39.3309527" lon="17.025012"><ele>64.66666666666667</ele><time>2026-03-28T16:07:34.608Z</time></trkpt><trkpt lat="39.3309114" lon="17.0250886"><ele>64.5</ele><time>2026-03-28T16:07:38.6Z</time></trkpt><trkpt lat="39.330899" lon="17.0251821"><ele>64.33333333333333</ele><time>2026-03-28T16:08:09.615Z</time></trkpt><trkpt lat="39.3308718" lon="17.0252724"><ele>64.16666666666666</ele><time>2026-03-28T16:08:12.603Z</time></trkpt><trkpt lat="39.3308698" lon="17.0253899"><ele>64.0</ele><time>2026-03-28T16:08:14.609Z</time></trkpt><trkpt lat="39.3308967" lon="17.0255226"><ele>64.0</ele><time>2026-03-28T16:08:16.605Z</time></trkpt><trkpt lat="39.3309403" lon="17.0256271"><ele>64.0</ele><time>2026-03-28T16:08:18.607Z</time></trkpt><trkpt lat="39.3310315" lon="17.0256946"><ele>64.0</ele><time>2026-03-28T16:08:20.606Z</time></trkpt><trkpt lat="39.3311275" lon="17.0257557"><ele>64.0</ele><time>2026-03-28T16:08:22.611Z</time></trkpt><trkpt lat="39.331183" lon="17.025839"><ele>64.0</ele><time>2026-03-28T16:08:24.607Z</time></trkpt><trkpt lat="39.3312167" lon="17.0259675"><ele>63.400000000000006</ele><time>2026-03-28T16:08:26.604Z</time></trkpt><trkpt lat="39.3312378" lon="17.0261077"><ele>62.800000000000004</ele><time>2026-03-28T16:08:28.61Z</time></trkpt><trkpt lat="39.3312365" lon="17.0262568"><ele>62.199999999999996</ele><time>2026-03-28T16:08:30.605Z</time></trkpt><trkpt lat="39.3312383" lon="17.0263481"><ele>61.599999999999994</ele><time>2026-03-28T16:08:31.614Z</time></trkpt><trkpt lat="39.3312363" lon="17.0264462"><ele>61.0</ele><time>2026-03-28T16:08:32.607Z</time></trkpt><trkpt lat="39.3312327" lon="17.026549"><ele>60.666666666666664</ele><time>2026-03-28T16:08:33.614Z</time></trkpt><trkpt lat="39.3312217" lon="17.0266582"><ele>60.33333333333333</ele><time>2026-03-28T16:08:34.601Z</time></trkpt><trkpt lat="39.3312113" lon="17.0267625"><ele>60.0</ele><time>2026-03-28T16:08:35.613Z</time></trkpt><trkpt lat="39.3311979" lon="17.0268632"><ele>59.66666666666667</ele><time>2026-03-28T16:08:36.616Z</time></trkpt><trkpt lat="39.3311815" lon="17.0269621"><ele>59.333333333333336</ele><time>2026-03-28T16:08:37.601Z</time></trkpt><trkpt lat="39.3311625" lon="17.0270703"><ele>59.0</ele><time>2026-03-28T16:08:38.606Z</time></trkpt><trkpt lat="39.3311478" lon="17.0272066"><ele>59.0</ele><time>2026-03-28T16:08:39.604Z</time></trkpt><trkpt lat="39.33116" lon="17.0273368"><ele>59.00000000000001</ele><time>2026-03-28T16:08:40.604Z</time></trkpt><trkpt lat="39.3311827" lon="17.0274562"><ele>59.00000000000001</ele><time>2026-03-28T16:08:41.601Z</time></trkpt><trkpt lat="39.3312205" lon="17.0275846"><ele>59.0</ele><time>2026-03-28T16:08:42.613Z</time></trkpt><trkpt lat="39.3312723" lon="17.0277034"><ele>59.0</ele><time>2026-03-28T16:08:43.612Z</time></trkpt><trkpt lat="39.3313502" lon="17.0277945"><ele>59.400000000000006</ele><time>2026-03-28T16:08:44.599Z</time></trkpt><trkpt lat="39.3314583" lon="17.027867"><ele>59.800000000000004</ele><time>2026-03-28T16:08:45.608Z</time></trkpt><trkpt lat="39.3315755" lon="17.0279212"><ele>60.199999999999996</ele><time>2026-03-28T16:08:46.611Z</time></trkpt><trkpt lat="39.3316707" lon="17.0279734"><ele>60.599999999999994</ele><time>2026-03-28T16:08:47.599Z</time></trkpt><trkpt lat="39.3317508" lon="17.0280179"><ele>61.0</ele><time>2026-03-28T16:08:48.6Z</time></trkpt><trkpt lat="39.3318224" lon="17.028059"><ele>61.0</ele><time>2026-03-28T16:08:49.62Z</time></trkpt><trkpt lat="39.331899" lon="17.0280982"><ele>60.99999999999999</ele><time>2026-03-28T16:08:51.615Z</time></trkpt><trkpt lat="39.3319562" lon="17.0281687"><ele>60.99999999999999</ele><time>2026-03-28T16:08:54.607Z</time></trkpt><trkpt lat="39.3320091" lon="17.0282643"><ele>61.0</ele><time>2026-03-28T16:08:57.61Z</time></trkpt><trkpt lat="39.3320865" lon="17.0283563"><ele>61.0</ele><time>2026-03-28T16:08:59.611Z</time></trkpt><trkpt lat="39.3321701" lon="17.0284688"><ele>60.57142857142856</ele><time>2026-03-28T16:09:01.616Z</time></trkpt><trkpt lat="39.3322112" lon="17.0285326"><ele>60.14285714285714</ele><time>2026-03-28T16:09:02.609Z</time></trkpt><trkpt lat="39.3322475" lon="17.0286082"><ele>59.714285714285715</ele><time>2026-03-28T16:09:03.604Z</time></trkpt><trkpt lat="39.332268" lon="17.0286903"><ele>59.285714285714285</ele><time>2026-03-28T16:09:04.608Z</time></trkpt><trkpt lat="39.3322629" lon="17.0287755"><ele>58.85714285714286</ele><time>2026-03-28T16:09:05.607Z</time></trkpt><trkpt lat="39.3322475" lon="17.0288601"><ele>58.42857142857144</ele><time>2026-03-28T16:09:06.608Z</time></trkpt><trkpt lat="39.3322433" lon="17.0289498"><ele>58.00000000000001</ele><time>2026-03-28T16:09:07.614Z</time></trkpt><trkpt lat="39.3322623" lon="17.0290393"><ele>58.8</ele><time>2026-03-28T16:09:08.613Z</time></trkpt><trkpt lat="39.3323003" lon="17.0291363"><ele>59.599999999999994</ele><time>2026-03-28T16:09:09.607Z</time></trkpt><trkpt lat="39.332341" lon="17.0292649"><ele>60.400000000000006</ele><time>2026-03-28T16:09:10.602Z</time></trkpt><trkpt lat="39.3323729" lon="17.0294094"><ele>61.2</ele><time>2026-03-28T16:09:11.607Z</time></trkpt><trkpt lat="39.3324042" lon="17.0295314"><ele>62.0</ele><time>2026-03-28T16:09:12.608Z</time></trkpt><trkpt lat="39.3324297" lon="17.0296281"><ele>62.00000000000001</ele><time>2026-03-28T16:09:13.606Z</time></trkpt><trkpt lat="39.3324671" lon="17.029765"><ele>62.0</ele><time>2026-03-28T16:09:15.614Z</time></trkpt><trkpt lat="39.332494" lon="17.0298615"><ele>62.0</ele><time>2026-03-28T16:09:17.6Z</time></trkpt><trkpt lat="39.332538" lon="17.0299242"><ele>62.0</ele><time>2026-03-28T16:09:19.612Z</time></trkpt><trkpt lat="39.3326216" lon="17.0299698"><ele>62.00000000000001</ele><time>2026-03-28T16:09:22.61Z</time></trkpt><trkpt lat="39.3327115" lon="17.0299715"><ele>62.0</ele><time>2026-03-28T16:09:25.606Z</time></trkpt><trkpt lat="39.3327715" lon="17.0299416"><ele>61.00000000000001</ele><time>2026-03-28T16:09:27.617Z</time></trkpt><trkpt lat="39.3328105" lon="17.030016"><ele>60.0</ele><time>2026-03-28T16:09:28.606Z</time></trkpt><trkpt lat="39.3328464" lon="17.0301081"><ele>59.0</ele><time>2026-03-28T16:09:29.604Z</time></trkpt><trkpt lat="39.3328806" lon="17.0301861"><ele>58.0</ele><time>2026-03-28T16:09:30.606Z</time></trkpt><trkpt lat="39.3329216" lon="17.0302629"><ele>57.00000000000001</ele><time>2026-03-28T16:09:31.61Z</time></trkpt><trkpt lat="39.3329873" lon="17.0303783"><ele>56.0</ele><time>2026-03-28T16:09:33.621Z</time></trkpt><trkpt lat="39.3330389" lon="17.0304629"><ele>55.833333333333336</ele><time>2026-03-28T16:09:35.6Z</time></trkpt><trkpt lat="39.3330919" lon="17.0305338"><ele>55.66666666666667</ele><time>2026-03-28T16:09:38.605Z</time></trkpt><trkpt lat="39.3331514" lon="17.0305919"><ele>55.5</ele><time>2026-03-28T16:09:42.607Z</time></trkpt><trkpt lat="39.3332194" lon="17.03065"><ele>55.33333333333333</ele><time>2026-03-28T16:09:46.606Z</time></trkpt><trkpt lat="39.3332843" lon="17.030703"><ele>55.166666666666664</ele><time>2026-03-28T16:09:49.603Z</time></trkpt><trkpt lat="39.3333511" lon="17.0307456"><ele>55.0</ele><time>2026-03-28T16:09:51.621Z</time></trkpt><trkpt lat="39.3334361" lon="17.0307953"><ele>54.2</ele><time>2026-03-28T16:09:53.604Z</time></trkpt><trkpt lat="39.3335429" lon="17.0308625"><ele>53.4</ele><time>2026-03-28T16:09:55.61Z</time></trkpt><trkpt lat="39.333616" lon="17.0309056"><ele>52.599999999999994</ele><time>2026-03-28T16:09:56.601Z</time></trkpt><trkpt lat="39.3336973" lon="17.0309484"><ele>51.8</ele><time>2026-03-28T16:09:57.609Z</time></trkpt><trkpt lat="39.3337772" lon="17.0309941"><ele>51.0</ele><time>2026-03-28T16:09:58.612Z</time></trkpt><trkpt lat="39.333866" lon="17.0310432"><ele>51.333333333333336</ele><time>2026-03-28T16:09:59.606Z</time></trkpt><trkpt lat="39.3339493" lon="17.0310873"><ele>51.66666666666667</ele><time>2026-03-28T16:10:00.612Z</time></trkpt><trkpt lat="39.3340353" lon="17.0311307"><ele>52.0</ele><time>2026-03-28T16:10:01.615Z</time></trkpt><trkpt lat="39.3341149" lon="17.0311796"><ele>52.333333333333336</ele><time>2026-03-28T16:10:02.609Z</time></trkpt><trkpt lat="39.3341777" lon="17.0312371"><ele>52.66666666666667</ele><time>2026-03-28T16:10:03.615Z</time></trkpt><trkpt lat="39.3342256" lon="17.0312994"><ele>53.0</ele><time>2026-03-28T16:10:04.604Z</time></trkpt><trkpt lat="39.3343192" lon="17.0314104"><ele>53.00000000000001</ele><time>2026-03-28T16:10:06.61Z</time></trkpt><trkpt lat="39.3343731" lon="17.0314708"><ele>53.0</ele><time>2026-03-28T16:10:07.615Z</time></trkpt><trkpt lat="39.3344272" lon="17.0315176"><ele>53.0</ele><time>2026-03-28T16:10:08.606Z</time></trkpt><trkpt lat="39.3344963" lon="17.0316026"><ele>53.0</ele><time>2026-03-28T16:10:10.611Z</time></trkpt><trkpt lat="39.334549" lon="17.0316928"><ele>53.00000000000001</ele><time>2026-03-28T16:10:12.605Z</time></trkpt><trkpt lat="39.3346014" lon="17.0317934"><ele>53.0</ele><time>2026-03-28T16:10:14.61Z</time></trkpt><trkpt lat="39.3346724" lon="17.0319097"><ele>52.66666666666667</ele><time>2026-03-28T16:10:16.608Z</time></trkpt><trkpt lat="39.3347143" lon="17.0319769"><ele>52.333333333333336</ele><time>2026-03-28T16:10:17.609Z</time></trkpt><trkpt lat="39.3347477" lon="17.0320459"><ele>52.0</ele><time>2026-03-28T16:10:18.613Z</time></trkpt><trkpt lat="39.3347991" lon="17.032157"><ele>51.66666666666667</ele><time>2026-03-28T16:10:20.618Z</time></trkpt><trkpt lat="39.3348529" lon="17.0322833"><ele>51.333333333333336</ele><time>2026-03-28T16:10:22.608Z</time></trkpt><trkpt lat="39.3348871" lon="17.0323523"><ele>51.0</ele><time>2026-03-28T16:10:23.618Z</time></trkpt><trkpt lat="39.3349295" lon="17.0324141"><ele>51.0</ele><time>2026-03-28T16:10:24.61Z</time></trkpt><trkpt lat="39.3349979" lon="17.0324823"><ele>51.0</ele><time>2026-03-28T16:10:25.619Z</time></trkpt><trkpt lat="39.3350749" lon="17.0325379"><ele>51.0</ele><time>2026-03-28T16:10:26.619Z</time></trkpt><trkpt lat="39.3351621" lon="17.0325761"><ele>51.0</ele><time>2026-03-28T16:10:27.612Z</time></trkpt><trkpt lat="39.3352491" lon="17.0326064"><ele>51.0</ele><time>2026-03-28T16:10:28.609Z</time></trkpt><trkpt lat="39.3353348" lon="17.0326588"><ele>51.0</ele><time>2026-03-28T16:10:29.615Z</time></trkpt><trkpt lat="39.3354186" lon="17.0327133"><ele>51.0</ele><time>2026-03-28T16:10:30.612Z</time></trkpt><trkpt lat="39.3354982" lon="17.0327677"><ele>51.0</ele><time>2026-03-28T16:10:31.621Z</time></trkpt><trkpt lat="39.3355641" lon="17.0328209"><ele>51.0</ele><time>2026-03-28T16:10:32.609Z</time></trkpt><trkpt lat="39.3356219" lon="17.0328646"><ele>51.0</ele><time>2026-03-28T16:10:33.609Z</time></trkpt><trkpt lat="39.3357331" lon="17.0329316"><ele>51.0</ele><time>2026-03-28T16:10:35.62Z</time></trkpt><trkpt lat="39.3357933" lon="17.032967"><ele>51.0</ele><time>2026-03-28T16:10:36.609Z</time></trkpt><trkpt lat="39.3358552" lon="17.0330043"><ele>51.0</ele><time>2026-03-28T16:10:37.608Z</time></trkpt><trkpt lat="39.3358932" lon="17.0330701"><ele>51.0</ele><time>2026-03-28T16:10:38.607Z</time></trkpt><trkpt lat="39.3359461" lon="17.0331987"><ele>51.0</ele><time>2026-03-28T16:10:40.608Z</time></trkpt><trkpt lat="39.3359654" lon="17.0332779"><ele>51.0</ele><time>2026-03-28T16:10:41.606Z</time></trkpt><trkpt lat="39.335965" lon="17.0333733"><ele>51.0</ele><time>2026-03-28T16:10:42.61Z</time></trkpt><trkpt lat="39.335968" lon="17.0334951"><ele>50.666666666666664</ele><time>2026-03-28T16:10:44.609Z</time></trkpt><trkpt lat="39.3359822" lon="17.0335997"><ele>50.33333333333333</ele><time>2026-03-28T16:10:47.617Z</time></trkpt><trkpt lat="39.3359867" lon="17.0336929"><ele>50.0</ele><time>2026-03-28T16:10:50.608Z</time></trkpt><trkpt lat="39.3359846" lon="17.0338026"><ele>49.666666666666664</ele><time>2026-03-28T16:10:53.621Z</time></trkpt><trkpt lat="39.335988" lon="17.0338869"><ele>49.33333333333333</ele><time>2026-03-28T16:10:55.612Z</time></trkpt><trkpt lat="39.3359687" lon="17.0339826"><ele>49.0</ele><time>2026-03-28T16:10:58.606Z</time></trkpt><trkpt lat="39.3359369" lon="17.0340674"><ele>48.800000000000004</ele><time>2026-03-28T16:11:00.606Z</time></trkpt><trkpt lat="39.3358933" lon="17.0341632"><ele>48.6</ele><time>2026-03-28T16:11:02.61Z</time></trkpt><trkpt lat="39.335846" lon="17.0342595"><ele>48.4</ele><time>2026-03-28T16:11:04.609Z</time></trkpt><trkpt lat="39.3358061" lon="17.0343607"><ele>48.2</ele><time>2026-03-28T16:11:06.612Z</time></trkpt><trkpt lat="39.3357915" lon="17.0345039"><ele>48.0</ele><time>2026-03-28T16:11:08.616Z</time></trkpt><trkpt lat="39.3358066" lon="17.0346149"><ele>48.0</ele><time>2026-03-28T16:11:09.607Z</time></trkpt><trkpt lat="39.3358394" lon="17.0347199"><ele>48.0</ele><time>2026-03-28T16:11:10.607Z</time></trkpt><trkpt lat="39.3358593" lon="17.0348328"><ele>48.0</ele><time>2026-03-28T16:11:11.617Z</time></trkpt><trkpt lat="39.335864" lon="17.0349379"><ele>48.0</ele><time>2026-03-28T16:11:12.604Z</time></trkpt><trkpt lat="39.3358708" lon="17.0350404"><ele>48.0</ele><time>2026-03-28T16:11:13.614Z</time></trkpt><trkpt lat="39.3358758" lon="17.0351632"><ele>48.0</ele><time>2026-03-28T16:11:14.61Z</time></trkpt><trkpt lat="39.3358725" lon="17.0352958"><ele>48.333333333333336</ele><time>2026-03-28T16:11:15.613Z</time></trkpt><trkpt lat="39.3358694" lon="17.0353989"><ele>48.66666666666667</ele><time>2026-03-28T16:11:16.606Z</time></trkpt><trkpt lat="39.3358678" lon="17.035485"><ele>49.0</ele><time>2026-03-28T16:11:17.617Z</time></trkpt><trkpt lat="39.3358651" lon="17.035609"><ele>49.333333333333336</ele><time>2026-03-28T16:11:19.621Z</time></trkpt><trkpt lat="39.3358661" lon="17.0357195"><ele>49.66666666666667</ele><time>2026-03-28T16:11:21.611Z</time></trkpt><trkpt lat="39.3358663" lon="17.035808"><ele>50.0</ele><time>2026-03-28T16:11:23.606Z</time></trkpt><trkpt lat="39.3358657" lon="17.0359106"><ele>50.00000000000001</ele><time>2026-03-28T16:11:27.618Z</time></trkpt><trkpt lat="39.3358558" lon="17.0360139"><ele>50.0</ele><time>2026-03-28T16:11:30.611Z</time></trkpt><trkpt lat="39.3358369" lon="17.0361171"><ele>50.0</ele><time>2026-03-28T16:11:33.616Z</time></trkpt><trkpt lat="39.3358222" lon="17.0362092"><ele>50.0</ele><time>2026-03-28T16:11:35.606Z</time></trkpt><trkpt lat="39.335802" lon="17.0363505"><ele>50.00000000000001</ele><time>2026-03-28T16:11:37.612Z</time></trkpt><trkpt lat="39.3357941" lon="17.0364392"><ele>50.0</ele><time>2026-03-28T16:11:38.612Z</time></trkpt><trkpt lat="39.3357887" lon="17.0365327"><ele>50.00000000000001</ele><time>2026-03-28T16:11:39.602Z</time></trkpt><trkpt lat="39.3357806" lon="17.0366269"><ele>50.0</ele><time>2026-03-28T16:11:40.61Z</time></trkpt><trkpt lat="39.335767" lon="17.0367219"><ele>50.0</ele><time>2026-03-28T16:11:41.62Z</time></trkpt><trkpt lat="39.3357529" lon="17.0368223"><ele>50.0</ele><time>2026-03-28T16:11:42.61Z</time></trkpt><trkpt lat="39.3357506" lon="17.0369421"><ele>50.00000000000001</ele><time>2026-03-28T16:11:43.604Z</time></trkpt><trkpt lat="39.3357625" lon="17.0370844"><ele>50.0</ele><time>2026-03-28T16:11:44.603Z</time></trkpt><trkpt lat="39.3357743" lon="17.0372093"><ele>49.6</ele><time>2026-03-28T16:11:45.612Z</time></trkpt><trkpt lat="39.3357826" lon="17.0373082"><ele>49.2</ele><time>2026-03-28T16:11:46.607Z</time></trkpt><trkpt lat="39.3357901" lon="17.0374589"><ele>48.8</ele><time>2026-03-28T16:11:48.602Z</time></trkpt><trkpt lat="39.3357882" lon="17.0376356"><ele>48.4</ele><time>2026-03-28T16:11:50.604Z</time></trkpt><trkpt lat="39.335791" lon="17.0377313"><ele>48.0</ele><time>2026-03-28T16:11:51.622Z</time></trkpt><trkpt lat="39.3357978" lon="17.0378215"><ele>47.833333333333336</ele><time>2026-03-28T16:11:52.605Z</time></trkpt><trkpt lat="39.335809" lon="17.0379194"><ele>47.666666666666664</ele><time>2026-03-28T16:11:53.613Z</time></trkpt><trkpt lat="39.3358249" lon="17.0380253"><ele>47.5</ele><time>2026-03-28T16:11:54.607Z</time></trkpt><trkpt lat="39.3358406" lon="17.0381313"><ele>47.33333333333333</ele><time>2026-03-28T16:11:55.608Z</time></trkpt><trkpt lat="39.3358575" lon="17.0382344"><ele>47.166666666666664</ele><time>2026-03-28T16:11:56.608Z</time></trkpt><trkpt lat="39.3358716" lon="17.0383322"><ele>47.0</ele><time>2026-03-28T16:11:57.623Z</time></trkpt><trkpt lat="39.3358846" lon="17.0384271"><ele>46.666666666666664</ele><time>2026-03-28T16:11:58.602Z</time></trkpt><trkpt lat="39.3358927" lon="17.0385089"><ele>46.33333333333333</ele><time>2026-03-28T16:11:59.621Z</time></trkpt><trkpt lat="39.3358936" lon="17.0386167"><ele>46.0</ele><time>2026-03-28T16:12:00.606Z</time></trkpt><trkpt lat="39.3358807" lon="17.038743"><ele>45.666666666666664</ele><time>2026-03-28T16:12:01.615Z</time></trkpt><trkpt lat="39.3358651" lon="17.0388564"><ele>45.333333333333336</ele><time>2026-03-28T16:12:02.607Z</time></trkpt><trkpt lat="39.33585" lon="17.0389611"><ele>45.0</ele><time>2026-03-28T16:12:03.62Z</time></trkpt><trkpt lat="39.3358359" lon="17.0390626"><ele>45.2</ele><time>2026-03-28T16:12:04.609Z</time></trkpt><trkpt lat="39.335824" lon="17.0391669"><ele>45.4</ele><time>2026-03-28T16:12:05.609Z</time></trkpt><trkpt lat="39.3358096" lon="17.0392871"><ele>45.599999999999994</ele><time>2026-03-28T16:12:06.608Z</time></trkpt><trkpt lat="39.335787" lon="17.0394462"><ele>45.8</ele><time>2026-03-28T16:12:07.615Z</time></trkpt><trkpt lat="39.3357638" lon="17.0396288"><ele>46.0</ele><time>2026-03-28T16:12:08.61Z</time></trkpt><trkpt lat="39.3357435" lon="17.0397978"><ele>46.0</ele><time>2026-03-28T16:12:09.603Z</time></trkpt><trkpt lat="39.3357288" lon="17.0399496"><ele>46.0</ele><time>2026-03-28T16:12:10.611Z</time></trkpt><trkpt lat="39.3357181" lon="17.0400798"><ele>46.0</ele><time>2026-03-28T16:12:11.617Z</time></trkpt><trkpt lat="39.3357203" lon="17.0401901"><ele>46.0</ele><time>2026-03-28T16:12:12.612Z</time></trkpt><trkpt lat="39.3357231" lon="17.0402939"><ele>46.0</ele><time>2026-03-28T16:12:13.604Z</time></trkpt><trkpt lat="39.3357108" lon="17.0403853"><ele>45.8</ele><time>2026-03-28T16:12:14.606Z</time></trkpt><trkpt lat="39.3356658" lon="17.0405111"><ele>45.599999999999994</ele><time>2026-03-28T16:12:15.612Z</time></trkpt><trkpt lat="39.3356074" lon="17.0406331"><ele>45.4</ele><time>2026-03-28T16:12:16.603Z</time></trkpt><trkpt lat="39.3355644" lon="17.0407535"><ele>45.2</ele><time>2026-03-28T16:12:17.603Z</time></trkpt><trkpt lat="39.335527" lon="17.0408651"><ele>45.0</ele><time>2026-03-28T16:12:18.623Z</time></trkpt><trkpt lat="39.3354983" lon="17.0409746"><ele>45.5</ele><time>2026-03-28T16:12:19.621Z</time></trkpt><trkpt lat="39.3354929" lon="17.0410723"><ele>46.0</ele><time>2026-03-28T16:12:20.612Z</time></trkpt><trkpt lat="39.3355191" lon="17.0411604"><ele>46.5</ele><time>2026-03-28T16:12:21.616Z</time></trkpt><trkpt lat="39.3355494" lon="17.0412514"><ele>47.0</ele><time>2026-03-28T16:12:22.625Z</time></trkpt><trkpt lat="39.3356308" lon="17.0413255"><ele>47.5</ele><time>2026-03-28T16:12:23.624Z</time></trkpt><trkpt lat="39.3357322" lon="17.0413764"><ele>48.0</ele><time>2026-03-28T16:12:24.609Z</time></trkpt><trkpt lat="39.3358403" lon="17.0414248"><ele>46.8</ele><time>2026-03-28T16:12:25.613Z</time></trkpt><trkpt lat="39.3359604" lon="17.0414383"><ele>45.599999999999994</ele><time>2026-03-28T16:12:26.608Z</time></trkpt><trkpt lat="39.3360811" lon="17.041459"><ele>44.400000000000006</ele><time>2026-03-28T16:12:27.617Z</time></trkpt><trkpt lat="39.3361899" lon="17.0414716"><ele>43.2</ele><time>2026-03-28T16:12:28.605Z</time></trkpt><trkpt lat="39.3362833" lon="17.0414725"><ele>42.0</ele><time>2026-03-28T16:12:29.605Z</time></trkpt><trkpt lat="39.3363721" lon="17.0414716"><ele>42.0</ele><time>2026-03-28T16:12:30.606Z</time></trkpt><trkpt lat="39.3364384" lon="17.0414585"><ele>42.0</ele><time>2026-03-28T16:12:31.61Z</time></trkpt><trkpt lat="39.33652" lon="17.0414464"><ele>42.0</ele><time>2026-03-28T16:12:33.604Z</time></trkpt><trkpt lat="39.3365866" lon="17.0414596"><ele>42.0</ele><time>2026-03-28T16:12:36.61Z</time></trkpt><trkpt lat="39.3366582" lon="17.0414954"><ele>42.0</ele><time>2026-03-28T16:12:39.609Z</time></trkpt><trkpt lat="39.3366915" lon="17.041578"><ele>42.0</ele><time>2026-03-28T16:12:42.607Z</time></trkpt><trkpt lat="39.3367213" lon="17.0416519"><ele>42.0</ele><time>2026-03-28T16:12:45.616Z</time></trkpt><trkpt lat="39.3367498" lon="17.0417414"><ele>42.0</ele><time>2026-03-28T16:12:48.606Z</time></trkpt><trkpt lat="39.336781" lon="17.0418611"><ele>42.0</ele><time>2026-03-28T16:12:51.604Z</time></trkpt><trkpt lat="39.3367974" lon="17.0419446"><ele>42.0</ele><time>2026-03-28T16:12:53.612Z</time></trkpt><trkpt lat="39.3368264" lon="17.0420505"><ele>42.0</ele><time>2026-03-28T16:12:55.613Z</time></trkpt><trkpt lat="39.336864" lon="17.0421755"><ele>42.0</ele><time>2026-03-28T16:12:57.608Z</time></trkpt><trkpt lat="39.3368625" lon="17.0423364"><ele>42.0</ele><time>2026-03-28T16:12:59.612Z</time></trkpt><trkpt lat="39.336859" lon="17.0424276"><ele>42.0</ele><time>2026-03-28T16:13:00.612Z</time></trkpt><trkpt lat="39.3368571" lon="17.0425188"><ele>42.0</ele><time>2026-03-28T16:13:01.619Z</time></trkpt><trkpt lat="39.3368567" lon="17.0426072"><ele>42.0</ele><time>2026-03-28T16:13:02.609Z</time></trkpt><trkpt lat="39.3368607" lon="17.042691"><ele>42.0</ele><time>2026-03-28T16:13:03.602Z</time></trkpt><trkpt lat="39.3368718" lon="17.0427716"><ele>42.0</ele><time>2026-03-28T16:13:04.605Z</time></trkpt><trkpt lat="39.3368874" lon="17.0428512"><ele>42.0</ele><time>2026-03-28T16:13:05.612Z</time></trkpt><trkpt lat="39.336904" lon="17.0429325"><ele>42.0</ele><time>2026-03-28T16:13:06.608Z</time></trkpt><trkpt lat="39.3369257" lon="17.043015"><ele>42.0</ele><time>2026-03-28T16:13:07.608Z</time></trkpt><trkpt lat="39.3369512" lon="17.0431071"><ele>42.0</ele><time>2026-03-28T16:13:08.618Z</time></trkpt><trkpt lat="39.3369753" lon="17.043191"><ele>42.0</ele><time>2026-03-28T16:13:09.62Z</time></trkpt><trkpt lat="39.3369956" lon="17.0432769"><ele>42.0</ele><time>2026-03-28T16:13:10.616Z</time></trkpt><trkpt lat="39.3370016" lon="17.0433641"><ele>42.0</ele><time>2026-03-28T16:13:11.6Z</time></trkpt><trkpt lat="39.3369972" lon="17.0434482"><ele>42.0</ele><time>2026-03-28T16:13:12.602Z</time></trkpt><trkpt lat="39.3369656" lon="17.0435982"><ele>42.0</ele><time>2026-03-28T16:13:14.61Z</time></trkpt><trkpt lat="39.3369357" lon="17.0437217"><ele>42.0</ele><time>2026-03-28T16:13:16.606Z</time></trkpt><trkpt lat="39.3369111" lon="17.0438448"><ele>42.0</ele><time>2026-03-28T16:13:18.609Z</time></trkpt><trkpt lat="39.3368916" lon="17.0439772"><ele>42.0</ele><time>2026-03-28T16:13:20.609Z</time></trkpt><trkpt lat="39.3368896" lon="17.0441015"><ele>42.0</ele><time>2026-03-28T16:13:22.612Z</time></trkpt><trkpt lat="39.3369042" lon="17.0442349"><ele>42.0</ele><time>2026-03-28T16:13:24.607Z</time></trkpt><trkpt lat="39.3369267" lon="17.0443875"><ele>42.0</ele><time>2026-03-28T16:13:26.611Z</time></trkpt><trkpt lat="39.3369443" lon="17.0444863"><ele>42.0</ele><time>2026-03-28T16:13:27.61Z</time></trkpt><trkpt lat="39.33697" lon="17.0445957"><ele>42.0</ele><time>2026-03-28T16:13:28.607Z</time></trkpt><trkpt lat="39.3369993" lon="17.044712"><ele>42.0</ele><time>2026-03-28T16:13:29.606Z</time></trkpt><trkpt lat="39.3370221" lon="17.0448183"><ele>42.0</ele><time>2026-03-28T16:13:30.607Z</time></trkpt><trkpt lat="39.33704" lon="17.0449283"><ele>42.0</ele><time>2026-03-28T16:13:31.614Z</time></trkpt><trkpt lat="39.3370614" lon="17.0450367"><ele>42.0</ele><time>2026-03-28T16:13:32.61Z</time></trkpt><trkpt lat="39.3370736" lon="17.0451278"><ele>42.0</ele><time>2026-03-28T16:13:33.612Z</time></trkpt><trkpt lat="39.3370759" lon="17.0452574"><ele>42.0</ele><time>2026-03-28T16:13:35.619Z</time></trkpt><trkpt lat="39.3370709" lon="17.0453669"><ele>42.0</ele><time>2026-03-28T16:13:38.604Z</time></trkpt><trkpt lat="39.3370701" lon="17.0454508"><ele>42.0</ele><time>2026-03-28T16:13:40.606Z</time></trkpt><trkpt lat="39.3370694" lon="17.0455801"><ele>42.0</ele><time>2026-03-28T16:13:42.605Z</time></trkpt><trkpt lat="39.3370789" lon="17.0456682"><ele>42.0</ele><time>2026-03-28T16:13:43.61Z</time></trkpt><trkpt lat="39.3370902" lon="17.0457648"><ele>42.0</ele><time>2026-03-28T16:13:44.607Z</time></trkpt><trkpt lat="39.3371027" lon="17.0458678"><ele>42.0</ele><time>2026-03-28T16:13:45.61Z</time></trkpt><trkpt lat="39.337118" lon="17.0459734"><ele>42.0</ele><time>2026-03-28T16:13:46.61Z</time></trkpt><trkpt lat="39.3371372" lon="17.0460759"><ele>42.2</ele><time>2026-03-28T16:13:47.603Z</time></trkpt><trkpt lat="39.3371591" lon="17.0461903"><ele>42.400000000000006</ele><time>2026-03-28T16:13:48.608Z</time></trkpt><trkpt lat="39.3371711" lon="17.0463186"><ele>42.599999999999994</ele><time>2026-03-28T16:13:49.614Z</time></trkpt><trkpt lat="39.3371767" lon="17.0464576"><ele>42.8</ele><time>2026-03-28T16:13:50.603Z</time></trkpt><trkpt lat="39.3371837" lon="17.0465993"><ele>43.0</ele><time>2026-03-28T16:13:51.603Z</time></trkpt><trkpt lat="39.3371925" lon="17.0467607"><ele>43.0</ele><time>2026-03-28T16:13:52.618Z</time></trkpt><trkpt lat="39.3371911" lon="17.0469401"><ele>43.0</ele><time>2026-03-28T16:13:53.603Z</time></trkpt><trkpt lat="39.3371754" lon="17.0471033"><ele>43.0</ele><time>2026-03-28T16:13:54.606Z</time></trkpt><trkpt lat="39.3371606" lon="17.047249"><ele>43.0</ele><time>2026-03-28T16:13:55.623Z</time></trkpt><trkpt lat="39.3371463" lon="17.0473516"><ele>43.0</ele><time>2026-03-28T16:13:56.618Z</time></trkpt><trkpt lat="39.337047" lon="17.0474212"><ele>43.0</ele><time>2026-03-28T16:13:58.614Z</time></trkpt><trkpt lat="39.3369694" lon="17.0474595"><ele>43.0</ele><time>2026-03-28T16:14:00.605Z</time></trkpt><trkpt lat="39.3369166" lon="17.0475515"><ele>43.0</ele><time>2026-03-28T16:14:02.61Z</time></trkpt><trkpt lat="39.3368743" lon="17.0476538"><ele>43.0</ele><time>2026-03-28T16:14:04.615Z</time></trkpt><trkpt lat="39.3368566" lon="17.0477539"><ele>42.8</ele><time>2026-03-28T16:14:06.608Z</time></trkpt><trkpt lat="39.3368473" lon="17.0478686"><ele>42.599999999999994</ele><time>2026-03-28T16:14:08.611Z</time></trkpt><trkpt lat="39.3368423" lon="17.0479933"><ele>42.400000000000006</ele><time>2026-03-28T16:14:10.603Z</time></trkpt><trkpt lat="39.3368276" lon="17.0481098"><ele>42.2</ele><time>2026-03-28T16:14:12.606Z</time></trkpt><trkpt lat="39.336804" lon="17.0482361"><ele>42.0</ele><time>2026-03-28T16:14:14.607Z</time></trkpt><trkpt lat="39.3368025" lon="17.0483637"><ele>42.0</ele><time>2026-03-28T16:14:16.61Z</time></trkpt><trkpt lat="39.336817" lon="17.0485124"><ele>42.0</ele><time>2026-03-28T16:14:18.607Z</time></trkpt><trkpt lat="39.3368353" lon="17.0486726"><ele>42.0</ele><time>2026-03-28T16:14:20.606Z</time></trkpt><trkpt lat="39.336847" lon="17.0487536"><ele>42.0</ele><time>2026-03-28T16:14:21.611Z</time></trkpt><trkpt lat="39.3368581" lon="17.0488348"><ele>42.0</ele><time>2026-03-28T16:14:22.607Z</time></trkpt><trkpt lat="39.3368705" lon="17.0489316"><ele>42.0</ele><time>2026-03-28T16:14:23.606Z</time></trkpt><trkpt lat="39.3368835" lon="17.0490315"><ele>41.8</ele><time>2026-03-28T16:14:24.611Z</time></trkpt><trkpt lat="39.3368996" lon="17.0491449"><ele>41.6</ele><time>2026-03-28T16:14:25.62Z</time></trkpt><trkpt lat="39.3369125" lon="17.0492642"><ele>41.4</ele><time>2026-03-28T16:14:26.608Z</time></trkpt><trkpt lat="39.3369216" lon="17.0493839"><ele>41.199999999999996</ele><time>2026-03-28T16:14:27.6Z</time></trkpt><trkpt lat="39.3369405" lon="17.0495025"><ele>41.0</ele><time>2026-03-28T16:14:28.618Z</time></trkpt><trkpt lat="39.336963" lon="17.0496323"><ele>41.0</ele><time>2026-03-28T16:14:29.612Z</time></trkpt><trkpt lat="39.3369868" lon="17.0497984"><ele>41.0</ele><time>2026-03-28T16:14:30.61Z</time></trkpt><trkpt lat="39.3370087" lon="17.0499584"><ele>41.0</ele><time>2026-03-28T16:14:31.619Z</time></trkpt><trkpt lat="39.3370285" lon="17.050102"><ele>41.0</ele><time>2026-03-28T16:14:32.609Z</time></trkpt><trkpt lat="39.337046" lon="17.0502248"><ele>40.8</ele><time>2026-03-28T16:14:33.603Z</time></trkpt><trkpt lat="39.3370611" lon="17.0503401"><ele>40.599999999999994</ele><time>2026-03-28T16:14:34.604Z</time></trkpt><trkpt lat="39.3370754" lon="17.050453"><ele>40.4</ele><time>2026-03-28T16:14:35.614Z</time></trkpt><trkpt lat="39.3370918" lon="17.0505751"><ele>40.2</ele><time>2026-03-28T16:14:36.608Z</time></trkpt><trkpt lat="39.337109" lon="17.0506966"><ele>40.0</ele><time>2026-03-28T16:14:37.603Z</time></trkpt><trkpt lat="39.3371301" lon="17.0508267"><ele>40.0</ele><time>2026-03-28T16:14:38.617Z</time></trkpt><trkpt lat="39.3371388" lon="17.0509485"><ele>40.0</ele><time>2026-03-28T16:14:39.633Z</time></trkpt><trkpt lat="39.3371378" lon="17.0510779"><ele>40.0</ele><time>2026-03-28T16:14:40.617Z</time></trkpt><trkpt lat="39.337149" lon="17.0511882"><ele>40.0</ele><time>2026-03-28T16:14:41.612Z</time></trkpt><trkpt lat="39.3371551" lon="17.0512995"><ele>40.0</ele><time>2026-03-28T16:14:42.616Z</time></trkpt><trkpt lat="39.3371567" lon="17.0514078"><ele>40.0</ele><time>2026-03-28T16:14:43.61Z</time></trkpt><trkpt lat="39.3371572" lon="17.0515155"><ele>40.0</ele><time>2026-03-28T16:14:44.61Z</time></trkpt><trkpt lat="39.3371681" lon="17.0516538"><ele>40.0</ele><time>2026-03-28T16:14:46.604Z</time></trkpt><trkpt lat="39.337166" lon="17.0517738"><ele>40.0</ele><time>2026-03-28T16:14:48.618Z</time></trkpt><trkpt lat="39.3371484" lon="17.0519292"><ele>40.0</ele><time>2026-03-28T16:14:50.609Z</time></trkpt><trkpt lat="39.3371355" lon="17.0520167"><ele>39.833333333333336</ele><time>2026-03-28T16:14:51.601Z</time></trkpt><trkpt lat="39.3371237" lon="17.0521186"><ele>39.66666666666667</ele><time>2026-03-28T16:14:52.61Z</time></trkpt><trkpt lat="39.3371106" lon="17.0522425"><ele>39.5</ele><time>2026-03-28T16:14:53.615Z</time></trkpt><trkpt lat="39.3370985" lon="17.0523586"><ele>39.333333333333336</ele><time>2026-03-28T16:14:54.606Z</time></trkpt><trkpt lat="39.3370864" lon="17.0524661"><ele>39.166666666666664</ele><time>2026-03-28T16:14:55.602Z</time></trkpt><trkpt lat="39.3370696" lon="17.052578"><ele>39.0</ele><time>2026-03-28T16:14:56.606Z</time></trkpt><trkpt lat="39.3370458" lon="17.0527086"><ele>38.833333333333336</ele><time>2026-03-28T16:14:57.606Z</time></trkpt><trkpt lat="39.3370089" lon="17.0528207"><ele>38.666666666666664</ele><time>2026-03-28T16:14:58.619Z</time></trkpt><trkpt lat="39.3369729" lon="17.0529141"><ele>38.5</ele><time>2026-03-28T16:14:59.604Z</time></trkpt><trkpt lat="39.3369437" lon="17.0529885"><ele>38.33333333333333</ele><time>2026-03-28T16:15:00.602Z</time></trkpt><trkpt lat="39.3369597" lon="17.0530984"><ele>38.166666666666664</ele><time>2026-03-28T16:15:02.606Z</time></trkpt><trkpt lat="39.3370223" lon="17.0531089"><ele>38.0</ele><time>2026-03-28T16:15:03.618Z</time></trkpt><trkpt lat="39.3370977" lon="17.053094"><ele>38.0</ele><time>2026-03-28T16:15:04.606Z</time></trkpt><trkpt lat="39.3371722" lon="17.0530709"><ele>38.0</ele><time>2026-03-28T16:15:05.604Z</time></trkpt><trkpt lat="39.3372322" lon="17.0530213"><ele>38.0</ele><time>2026-03-28T16:15:06.601Z</time></trkpt><trkpt lat="39.3373019" lon="17.0530174"><ele>38.0</ele><time>2026-03-28T16:15:07.604Z</time></trkpt><trkpt lat="39.3373635" lon="17.0530408"><ele>38.0</ele><time>2026-03-28T16:15:08.609Z</time></trkpt><trkpt lat="39.3374849" lon="17.0530876"><ele>38.0</ele><time>2026-03-28T16:15:10.61Z</time></trkpt><trkpt lat="39.3375616" lon="17.0531429"><ele>37.83333333333333</ele><time>2026-03-28T16:15:12.611Z</time></trkpt><trkpt lat="39.3376204" lon="17.053229"><ele>37.666666666666664</ele><time>2026-03-28T16:15:15.617Z</time></trkpt><trkpt lat="39.3376648" lon="17.053317"><ele>37.5</ele><time>2026-03-28T16:15:18.608Z</time></trkpt><trkpt lat="39.337707" lon="17.0533962"><ele>37.333333333333336</ele><time>2026-03-28T16:15:20.602Z</time></trkpt><trkpt lat="39.3377812" lon="17.0535037"><ele>37.16666666666667</ele><time>2026-03-28T16:15:22.618Z</time></trkpt><trkpt lat="39.3378393" lon="17.0535927"><ele>37.0</ele><time>2026-03-28T16:15:24.605Z</time></trkpt><trkpt lat="39.3378861" lon="17.0536584"><ele>37.285714285714285</ele><time>2026-03-28T16:15:28.619Z</time></trkpt><trkpt lat="39.3379469" lon="17.0537166"><ele>37.57142857142857</ele><time>2026-03-28T16:15:31.614Z</time></trkpt><trkpt lat="39.3380156" lon="17.0537312"><ele>37.85714285714286</ele><time>2026-03-28T16:15:34.612Z</time></trkpt><trkpt lat="39.337989" lon="17.0538069"><ele>38.14285714285714</ele><time>2026-03-28T16:15:40.612Z</time></trkpt><trkpt lat="39.3379209" lon="17.0537351"><ele>38.42857142857142</ele><time>2026-03-28T16:15:43.618Z</time></trkpt><trkpt lat="39.3378806" lon="17.0536646"><ele>38.714285714285715</ele><time>2026-03-28T16:15:50.622Z</time></trkpt><trkpt lat="39.3378408" lon="17.0535902"><ele>39.0</ele><time>2026-03-28T16:15:52.615Z</time></trkpt><trkpt lat="39.3377897" lon="17.0535142"><ele>39.0</ele><time>2026-03-28T16:15:55.608Z</time></trkpt><trkpt lat="39.3377169" lon="17.0534604"><ele>39.0</ele><time>2026-03-28T16:16:00.609Z</time></trkpt><trkpt lat="39.3376901" lon="17.0533854"><ele>39.0</ele><time>2026-03-28T16:16:03.605Z</time></trkpt><trkpt lat="39.3376635" lon="17.0533026"><ele>39.0</ele><time>2026-03-28T16:16:07.609Z</time></trkpt><trkpt lat="39.3377376" lon="17.0532455"><ele>39.0</ele><time>2026-03-28T16:16:12.627Z</time></trkpt><trkpt lat="39.3378196" lon="17.0531959"><ele>39.0</ele><time>2026-03-28T16:16:15.618Z</time></trkpt><trkpt lat="39.3378793" lon="17.0531452"><ele>38.714285714285715</ele><time>2026-03-28T16:16:18.611Z</time></trkpt><trkpt lat="39.3379232" lon="17.0530682"><ele>38.42857142857142</ele><time>2026-03-28T16:16:21.617Z</time></trkpt><trkpt lat="39.33792" lon="17.0529738"><ele>38.14285714285714</ele><time>2026-03-28T16:16:24.607Z</time></trkpt><trkpt lat="39.3378652" lon="17.0529263"><ele>37.85714285714286</ele><time>2026-03-28T16:16:27.617Z</time></trkpt><trkpt lat="39.3377808" lon="17.0529398"><ele>37.57142857142857</ele><time>2026-03-28T16:16:30.609Z</time></trkpt><trkpt lat="39.3377275" lon="17.0529901"><ele>37.285714285714285</ele><time>2026-03-28T16:16:34.609Z</time></trkpt><trkpt lat="39.3376813" lon="17.0530664"><ele>37.0</ele><time>2026-03-28T16:16:39.627Z</time></trkpt><trkpt lat="39.337625" lon="17.0531346"><ele>37.0</ele><time>2026-03-28T16:16:42.612Z</time></trkpt><trkpt lat="39.3375957" lon="17.0532112"><ele>37.0</ele><time>2026-03-28T16:16:45.607Z</time></trkpt><trkpt lat="39.3376453" lon="17.053268"><ele>37.0</ele><time>2026-03-28T16:16:49.607Z</time></trkpt><trkpt lat="39.33773" lon="17.0532388"><ele>37.0</ele><time>2026-03-28T16:16:53.616Z</time></trkpt><trkpt lat="39.3377933" lon="17.0531882"><ele>37.0</ele><time>2026-03-28T16:16:56.617Z</time></trkpt><trkpt lat="39.3378021" lon="17.0530918"><ele>37.0</ele><time>2026-03-28T16:16:59.603Z</time></trkpt><trkpt lat="39.3377949" lon="17.0529792"><ele>37.0</ele><time>2026-03-28T16:17:03.614Z</time></trkpt><trkpt lat="39.3377043" lon="17.0530031"><ele>37.0</ele><time>2026-03-28T16:17:06.612Z</time></trkpt><trkpt lat="39.3376592" lon="17.0530974"><ele>37.0</ele><time>2026-03-28T16:17:21.611Z</time></trkpt><trkpt lat="39.3375706" lon="17.0531425"><ele>37.0</ele><time>2026-03-28T16:17:24.609Z</time></trkpt><trkpt lat="39.3374696" lon="17.0532171"><ele>37.0</ele><time>2026-03-28T16:17:26.613Z</time></trkpt><trkpt lat="39.3374429" lon="17.0532929"><ele>37.0</ele><time>2026-03-28T16:17:28.613Z</time></trkpt><trkpt lat="39.3375277" lon="17.0533079"><ele>37.0</ele><time>2026-03-28T16:17:32.625Z</time></trkpt><trkpt lat="39.3375986" lon="17.0532377"><ele>37.0</ele><time>2026-03-28T16:17:35.658Z</time></trkpt><trkpt lat="39.3376086" lon="17.0531183"><ele>37.0</ele><time>2026-03-28T16:17:37.626Z</time></trkpt><trkpt lat="39.3376828" lon="17.0531063"><ele>37.0</ele><time>2026-03-28T16:17:41.641Z</time></trkpt><trkpt lat="39.3377024" lon="17.0531994"><ele>37.0</ele><time>2026-03-28T16:17:49.611Z</time></trkpt><trkpt lat="39.337783" lon="17.0531886"><ele>37.0</ele><time>2026-03-28T16:17:53.607Z</time></trkpt><trkpt lat="39.337815" lon="17.0531146"><ele>37.0</ele><time>2026-03-28T16:17:56.616Z</time></trkpt><trkpt lat="39.3378236" lon="17.0530173"><ele>37.0</ele><time>2026-03-28T16:17:58.611Z</time></trkpt><trkpt lat="39.3377891" lon="17.0529031"><ele>37.0</ele><time>2026-03-28T16:18:00.614Z</time></trkpt><trkpt lat="39.337705" lon="17.0529335"><ele>37.0</ele><time>2026-03-28T16:18:02.619Z</time></trkpt><trkpt lat="39.3376532" lon="17.0530186"><ele>37.0</ele><time>2026-03-28T16:18:04.619Z</time></trkpt><trkpt lat="39.3376006" lon="17.0530878"><ele>37.0</ele><time>2026-03-28T16:18:10.62Z</time></trkpt><trkpt lat="39.3375264" lon="17.0531705"><ele>37.0</ele><time>2026-03-28T16:18:12.606Z</time></trkpt><trkpt lat="39.3374683" lon="17.0532241"><ele>37.0</ele><time>2026-03-28T16:18:13.617Z</time></trkpt><trkpt lat="39.3373929" lon="17.0532627"><ele>37.0</ele><time>2026-03-28T16:18:15.625Z</time></trkpt><trkpt lat="39.3374547" lon="17.0532166"><ele>37.0</ele><time>2026-03-28T16:18:19.619Z</time></trkpt><trkpt lat="39.3375213" lon="17.0531826"><ele>37.0</ele><time>2026-03-28T16:18:22.616Z</time></trkpt><trkpt lat="39.3375869" lon="17.0532101"><ele>37.0</ele><time>2026-03-28T16:18:25.601Z</time></trkpt><trkpt lat="39.337633" lon="17.0532659"><ele>37.0</ele><time>2026-03-28T16:18:30.607Z</time></trkpt><trkpt lat="39.3376699" lon="17.0533611"><ele>37.0</ele><time>2026-03-28T16:18:34.613Z</time></trkpt><trkpt lat="39.3376861" lon="17.0534681"><ele>37.0</ele><time>2026-03-28T16:18:37.603Z</time></trkpt><trkpt lat="39.3377064" lon="17.0533732"><ele>37.0</ele><time>2026-03-28T16:19:41.611Z</time></trkpt><trkpt lat="39.3377304" lon="17.0532776"><ele>37.0</ele><time>2026-03-28T16:19:44.609Z</time></trkpt><trkpt lat="39.3377738" lon="17.0531871"><ele>37.0</ele><time>2026-03-28T16:19:48.605Z</time></trkpt><trkpt lat="39.3378304" lon="17.0531405"><ele>37.0</ele><time>2026-03-28T16:19:51.605Z</time></trkpt><trkpt lat="39.3378451" lon="17.0530505"><ele>37.0</ele><time>2026-03-28T16:19:54.617Z</time></trkpt><trkpt lat="39.3378329" lon="17.0529509"><ele>37.0</ele><time>2026-03-28T16:20:00.618Z</time></trkpt><trkpt lat="39.3377767" lon="17.0529041"><ele>37.0</ele><time>2026-03-28T16:20:06.607Z</time></trkpt><trkpt lat="39.3377303" lon="17.0529813"><ele>37.0</ele><time>2026-03-28T16:20:08.609Z</time></trkpt><trkpt lat="39.3376375" lon="17.053028"><ele>37.0</ele><time>2026-03-28T16:20:10.61Z</time></trkpt><trkpt lat="39.3375298" lon="17.0530792"><ele>37.0</ele><time>2026-03-28T16:20:12.614Z</time></trkpt><trkpt lat="39.3374966" lon="17.0531793"><ele>37.0</ele><time>2026-03-28T16:20:14.612Z</time></trkpt><trkpt lat="39.3375727" lon="17.0531889"><ele>37.0</ele><time>2026-03-28T16:20:18.61Z</time></trkpt><trkpt lat="39.3376324" lon="17.0532417"><ele>37.0</ele><time>2026-03-28T16:20:29.616Z</time></trkpt><trkpt lat="39.3376645" lon="17.0533204"><ele>37.0</ele><time>2026-03-28T16:20:34.605Z</time></trkpt><trkpt lat="39.3376844" lon="17.0533986"><ele>37.0</ele><time>2026-03-28T16:20:38.606Z</time></trkpt><trkpt lat="39.3377167" lon="17.0533263"><ele>37.0</ele><time>2026-03-28T16:22:25.608Z</time></trkpt><trkpt lat="39.3377303" lon="17.0532215"><ele>37.0</ele><time>2026-03-28T16:22:34.606Z</time></trkpt><trkpt lat="39.3377186" lon="17.0531318"><ele>37.0</ele><time>2026-03-28T16:22:41.614Z</time></trkpt><trkpt lat="39.3376773" lon="17.0529994"><ele>37.0</ele><time>2026-03-28T16:23:00.613Z</time></trkpt><trkpt lat="39.3375842" lon="17.0530424"><ele>37.0</ele><time>2026-03-28T16:23:02.607Z</time></trkpt><trkpt lat="39.3375404" lon="17.0531122"><ele>37.0</ele><time>2026-03-28T16:23:03.611Z</time></trkpt><trkpt lat="39.3375438" lon="17.0532185"><ele>37.0</ele><time>2026-03-28T16:23:05.61Z</time></trkpt><trkpt lat="39.3376039" lon="17.0532907"><ele>37.0</ele><time>2026-03-28T16:23:09.619Z</time></trkpt><trkpt lat="39.3376723" lon="17.0532915"><ele>37.0</ele><time>2026-03-28T16:23:15.608Z</time></trkpt><trkpt lat="39.3377434" lon="17.0532256"><ele>37.0</ele><time>2026-03-28T16:23:18.612Z</time></trkpt><trkpt lat="39.3378051" lon="17.0531463"><ele>37.0</ele><time>2026-03-28T16:23:21.621Z</time></trkpt><trkpt lat="39.3378491" lon="17.0530858"><ele>37.0</ele><time>2026-03-28T16:23:23.607Z</time></trkpt><trkpt lat="39.3378393" lon="17.0529626"><ele>37.0</ele><time>2026-03-28T16:23:26.692Z</time></trkpt><trkpt lat="39.3378002" lon="17.0528984"><ele>37.0</ele><time>2026-03-28T16:23:30.687Z</time></trkpt><trkpt lat="39.3378494" lon="17.0529579"><ele>37.0</ele><time>2026-03-28T16:28:10.588Z</time></trkpt><trkpt lat="39.3377689" lon="17.0529621"><ele>37.0</ele><time>2026-03-28T16:28:12.61Z</time></trkpt><trkpt lat="39.3376745" lon="17.0530645"><ele>37.0</ele><time>2026-03-28T16:28:14.617Z</time></trkpt><trkpt lat="39.3376245" lon="17.0531498"><ele>37.0</ele><time>2026-03-28T16:28:16.608Z</time></trkpt><trkpt lat="39.3376593" lon="17.0532326"><ele>37.0</ele><time>2026-03-28T16:28:19.605Z</time></trkpt><trkpt lat="39.3376895" lon="17.0533274"><ele>37.0</ele><time>2026-03-28T16:28:23.607Z</time></trkpt><trkpt lat="39.3377279" lon="17.0534065"><ele>37.0</ele><time>2026-03-28T16:28:26.607Z</time></trkpt><trkpt lat="39.3377746" lon="17.0534655"><ele>37.0</ele><time>2026-03-28T16:28:28.616Z</time></trkpt><trkpt lat="39.3378271" lon="17.0535554"><ele>37.0</ele><time>2026-03-28T16:28:30.609Z</time></trkpt><trkpt lat="39.3378883" lon="17.0536588"><ele>37.333333333333336</ele><time>2026-03-28T16:28:32.608Z</time></trkpt><trkpt lat="39.3379391" lon="17.0537454"><ele>37.66666666666667</ele><time>2026-03-28T16:28:34.612Z</time></trkpt><trkpt lat="39.3379923" lon="17.0538132"><ele>38.0</ele><time>2026-03-28T16:28:37.614Z</time></trkpt><trkpt lat="39.3380321" lon="17.0538862"><ele>38.333333333333336</ele><time>2026-03-28T16:29:06.616Z</time></trkpt><trkpt lat="39.338083" lon="17.0539371"><ele>38.666666666666664</ele><time>2026-03-28T16:29:08.604Z</time></trkpt><trkpt lat="39.338167" lon="17.0540046"><ele>39.0</ele><time>2026-03-28T16:29:10.614Z</time></trkpt><trkpt lat="39.338254" lon="17.0540643"><ele>39.0</ele><time>2026-03-28T16:29:12.614Z</time></trkpt><trkpt lat="39.3383556" lon="17.0541517"><ele>39.0</ele><time>2026-03-28T16:29:14.609Z</time></trkpt><trkpt lat="39.338401" lon="17.0542258"><ele>39.0</ele><time>2026-03-28T16:29:15.607Z</time></trkpt><trkpt lat="39.3384397" lon="17.0543239"><ele>39.0</ele><time>2026-03-28T16:29:16.606Z</time></trkpt><trkpt lat="39.3384687" lon="17.0544055"><ele>39.0</ele><time>2026-03-28T16:29:17.617Z</time></trkpt><trkpt lat="39.3384956" lon="17.0544832"><ele>39.0</ele><time>2026-03-28T16:29:18.612Z</time></trkpt><trkpt lat="39.3384967" lon="17.0545811"><ele>39.0</ele><time>2026-03-28T16:29:19.606Z</time></trkpt><trkpt lat="39.3384991" lon="17.0547003"><ele>39.0</ele><time>2026-03-28T16:29:20.612Z</time></trkpt><trkpt lat="39.338512" lon="17.0548127"><ele>39.0</ele><time>2026-03-28T16:29:21.611Z</time></trkpt><trkpt lat="39.338531" lon="17.0549188"><ele>39.0</ele><time>2026-03-28T16:29:22.613Z</time></trkpt><trkpt lat="39.3385541" lon="17.0550194"><ele>39.0</ele><time>2026-03-28T16:29:23.606Z</time></trkpt><trkpt lat="39.3385789" lon="17.0551127"><ele>39.0</ele><time>2026-03-28T16:29:24.613Z</time></trkpt><trkpt lat="39.3386051" lon="17.0552058"><ele>39.166666666666664</ele><time>2026-03-28T16:29:25.615Z</time></trkpt><trkpt lat="39.3386352" lon="17.0553125"><ele>39.333333333333336</ele><time>2026-03-28T16:29:26.609Z</time></trkpt><trkpt lat="39.3386609" lon="17.0554068"><ele>39.5</ele><time>2026-03-28T16:29:27.607Z</time></trkpt><trkpt lat="39.3386841" lon="17.0554894"><ele>39.66666666666667</ele><time>2026-03-28T16:29:28.61Z</time></trkpt><trkpt lat="39.3387226" lon="17.0556262"><ele>39.833333333333336</ele><time>2026-03-28T16:29:30.609Z</time></trkpt><trkpt lat="39.338757" lon="17.0557485"><ele>40.0</ele><time>2026-03-28T16:29:32.61Z</time></trkpt><trkpt lat="39.3387901" lon="17.0558745"><ele>39.6</ele><time>2026-03-28T16:29:34.605Z</time></trkpt><trkpt lat="39.3388265" lon="17.0560101"><ele>39.2</ele><time>2026-03-28T16:29:36.609Z</time></trkpt><trkpt lat="39.3388531" lon="17.0561032"><ele>38.8</ele><time>2026-03-28T16:29:37.609Z</time></trkpt><trkpt lat="39.3388819" lon="17.0562122"><ele>38.4</ele><time>2026-03-28T16:29:38.604Z</time></trkpt><trkpt lat="39.3389162" lon="17.0563309"><ele>38.0</ele><time>2026-03-28T16:29:39.621Z</time></trkpt><trkpt lat="39.3389538" lon="17.0564544"><ele>38.8</ele><time>2026-03-28T16:29:40.611Z</time></trkpt><trkpt lat="39.33899" lon="17.0565773"><ele>39.599999999999994</ele><time>2026-03-28T16:29:41.619Z</time></trkpt><trkpt lat="39.3390201" lon="17.0566898"><ele>40.400000000000006</ele><time>2026-03-28T16:29:42.612Z</time></trkpt><trkpt lat="39.3390417" lon="17.0568057"><ele>41.2</ele><time>2026-03-28T16:29:43.617Z</time></trkpt><trkpt lat="39.3390545" lon="17.0569389"><ele>42.0</ele><time>2026-03-28T16:29:44.62Z</time></trkpt><trkpt lat="39.3390504" lon="17.0570765"><ele>42.0</ele><time>2026-03-28T16:29:45.62Z</time></trkpt><trkpt lat="39.339041" lon="17.0572013"><ele>42.0</ele><time>2026-03-28T16:29:46.606Z</time></trkpt><trkpt lat="39.339032" lon="17.0573096"><ele>42.0</ele><time>2026-03-28T16:29:47.599Z</time></trkpt><trkpt lat="39.3390227" lon="17.0574113"><ele>42.0</ele><time>2026-03-28T16:29:48.621Z</time></trkpt><trkpt lat="39.3390135" lon="17.0575068"><ele>42.0</ele><time>2026-03-28T16:29:49.616Z</time></trkpt><trkpt lat="39.3390041" lon="17.057595"><ele>42.0</ele><time>2026-03-28T16:29:50.605Z</time></trkpt><trkpt lat="39.3389944" lon="17.0577557"><ele>42.0</ele><time>2026-03-28T16:29:52.614Z</time></trkpt><trkpt lat="39.3389904" lon="17.0578529"><ele>42.0</ele><time>2026-03-28T16:29:53.611Z</time></trkpt><trkpt lat="39.3389911" lon="17.05795"><ele>42.0</ele><time>2026-03-28T16:29:54.617Z</time></trkpt><trkpt lat="39.3390043" lon="17.058094"><ele>42.0</ele><time>2026-03-28T16:29:56.606Z</time></trkpt><trkpt lat="39.3390281" lon="17.0582122"><ele>42.0</ele><time>2026-03-28T16:29:58.615Z</time></trkpt><trkpt lat="39.3390785" lon="17.0583926"><ele>42.0</ele><time>2026-03-28T16:30:00.609Z</time></trkpt><trkpt lat="39.3391113" lon="17.0585027"><ele>42.0</ele><time>2026-03-28T16:30:01.612Z</time></trkpt><trkpt lat="39.3391478" lon="17.0586227"><ele>42.0</ele><time>2026-03-28T16:30:02.616Z</time></trkpt><trkpt lat="39.3391831" lon="17.0587362"><ele>42.0</ele><time>2026-03-28T16:30:03.614Z</time></trkpt><trkpt lat="39.3392176" lon="17.058849"><ele>42.0</ele><time>2026-03-28T16:30:04.607Z</time></trkpt><trkpt lat="39.3392489" lon="17.0589484"><ele>42.0</ele><time>2026-03-28T16:30:05.624Z</time></trkpt><trkpt lat="39.3392782" lon="17.0590388"><ele>42.0</ele><time>2026-03-28T16:30:06.606Z</time></trkpt><trkpt lat="39.3393081" lon="17.059154"><ele>42.0</ele><time>2026-03-28T16:30:07.607Z</time></trkpt><trkpt lat="39.3393366" lon="17.0592661"><ele>42.0</ele><time>2026-03-28T16:30:08.607Z</time></trkpt><trkpt lat="39.3393647" lon="17.0593516"><ele>42.0</ele><time>2026-03-28T16:30:09.62Z</time></trkpt><trkpt lat="39.3393919" lon="17.0594346"><ele>42.0</ele><time>2026-03-28T16:30:10.611Z</time></trkpt><trkpt lat="39.3394191" lon="17.0595174"><ele>41.833333333333336</ele><time>2026-03-28T16:30:11.613Z</time></trkpt><trkpt lat="39.3394435" lon="17.0595942"><ele>41.666666666666664</ele><time>2026-03-28T16:30:12.606Z</time></trkpt><trkpt lat="39.339493" lon="17.0597446"><ele>41.5</ele><time>2026-03-28T16:30:14.608Z</time></trkpt><trkpt lat="39.3395189" lon="17.0598308"><ele>41.33333333333333</ele><time>2026-03-28T16:30:15.612Z</time></trkpt><trkpt lat="39.3395428" lon="17.0599145"><ele>41.166666666666664</ele><time>2026-03-28T16:30:16.605Z</time></trkpt><trkpt lat="39.3395636" lon="17.0599959"><ele>41.0</ele><time>2026-03-28T16:30:17.619Z</time></trkpt><trkpt lat="39.3395823" lon="17.0600789"><ele>40.33333333333333</ele><time>2026-03-28T16:30:18.612Z</time></trkpt><trkpt lat="39.3396029" lon="17.0601654"><ele>39.666666666666664</ele><time>2026-03-28T16:30:19.626Z</time></trkpt><trkpt lat="39.3396252" lon="17.0602537"><ele>39.0</ele><time>2026-03-28T16:30:20.604Z</time></trkpt><trkpt lat="39.3396463" lon="17.0603418"><ele>38.333333333333336</ele><time>2026-03-28T16:30:21.617Z</time></trkpt><trkpt lat="39.3396672" lon="17.0604303"><ele>37.66666666666667</ele><time>2026-03-28T16:30:22.609Z</time></trkpt><trkpt lat="39.3396873" lon="17.0605303"><ele>37.0</ele><time>2026-03-28T16:30:23.611Z</time></trkpt><trkpt lat="39.3397057" lon="17.0606529"><ele>37.0</ele><time>2026-03-28T16:30:24.613Z</time></trkpt><trkpt lat="39.3397149" lon="17.0607669"><ele>37.0</ele><time>2026-03-28T16:30:25.612Z</time></trkpt><trkpt lat="39.3397216" lon="17.0608861"><ele>37.0</ele><time>2026-03-28T16:30:26.605Z</time></trkpt><trkpt lat="39.3397292" lon="17.0610051"><ele>37.0</ele><time>2026-03-28T16:30:27.61Z</time></trkpt><trkpt lat="39.3397364" lon="17.0611296"><ele>37.0</ele><time>2026-03-28T16:30:28.615Z</time></trkpt><trkpt lat="39.339743" lon="17.0612482"><ele>38.66666666666667</ele><time>2026-03-28T16:30:29.617Z</time></trkpt><trkpt lat="39.3397495" lon="17.0613745"><ele>40.333333333333336</ele><time>2026-03-28T16:30:30.609Z</time></trkpt><trkpt lat="39.3397565" lon="17.0615032"><ele>42.0</ele><time>2026-03-28T16:30:31.604Z</time></trkpt><trkpt lat="39.3397625" lon="17.0616178"><ele>43.666666666666664</ele><time>2026-03-28T16:30:32.614Z</time></trkpt><trkpt lat="39.339768" lon="17.0617168"><ele>45.33333333333333</ele><time>2026-03-28T16:30:33.616Z</time></trkpt><trkpt lat="39.3397739" lon="17.0618104"><ele>47.0</ele><time>2026-03-28T16:30:34.609Z</time></trkpt><trkpt lat="39.3397785" lon="17.0619055"><ele>47.33333333333333</ele><time>2026-03-28T16:30:35.608Z</time></trkpt><trkpt lat="39.3397826" lon="17.0620027"><ele>47.666666666666664</ele><time>2026-03-28T16:30:36.612Z</time></trkpt><trkpt lat="39.3397869" lon="17.0621014"><ele>48.0</ele><time>2026-03-28T16:30:37.609Z</time></trkpt><trkpt lat="39.3397929" lon="17.0622036"><ele>48.33333333333333</ele><time>2026-03-28T16:30:38.603Z</time></trkpt><trkpt lat="39.3398019" lon="17.0623054"><ele>48.666666666666664</ele><time>2026-03-28T16:30:39.607Z</time></trkpt><trkpt lat="39.339816" lon="17.0624018"><ele>49.0</ele><time>2026-03-28T16:30:40.611Z</time></trkpt><trkpt lat="39.3398359" lon="17.0625007"><ele>48.33333333333333</ele><time>2026-03-28T16:30:41.602Z</time></trkpt><trkpt lat="39.3398589" lon="17.062599"><ele>47.666666666666664</ele><time>2026-03-28T16:30:42.608Z</time></trkpt><trkpt lat="39.3398844" lon="17.0626985"><ele>47.0</ele><time>2026-03-28T16:30:43.613Z</time></trkpt><trkpt lat="39.3399119" lon="17.0627968"><ele>46.33333333333333</ele><time>2026-03-28T16:30:44.605Z</time></trkpt><trkpt lat="39.3399402" lon="17.0628912"><ele>45.666666666666664</ele><time>2026-03-28T16:30:45.603Z</time></trkpt><trkpt lat="39.3399689" lon="17.0629858"><ele>45.0</ele><time>2026-03-28T16:30:46.609Z</time></trkpt><trkpt lat="39.3400012" lon="17.0630982"><ele>45.0</ele><time>2026-03-28T16:30:47.616Z</time></trkpt><trkpt lat="39.3400328" lon="17.0632146"><ele>45.0</ele><time>2026-03-28T16:30:48.609Z</time></trkpt><trkpt lat="39.3400657" lon="17.063329"><ele>45.0</ele><time>2026-03-28T16:30:49.613Z</time></trkpt><trkpt lat="39.3400988" lon="17.0634435"><ele>45.0</ele><time>2026-03-28T16:30:50.607Z</time></trkpt><trkpt lat="39.3401338" lon="17.0635607"><ele>45.0</ele><time>2026-03-28T16:30:51.616Z</time></trkpt><trkpt lat="39.3401678" lon="17.0636669"><ele>43.8</ele><time>2026-03-28T16:30:52.606Z</time></trkpt><trkpt lat="39.3402056" lon="17.0637704"><ele>42.6</ele><time>2026-03-28T16:30:53.623Z</time></trkpt><trkpt lat="39.3402486" lon="17.0638773"><ele>41.4</ele><time>2026-03-28T16:30:54.61Z</time></trkpt><trkpt lat="39.3402966" lon="17.0639848"><ele>40.2</ele><time>2026-03-28T16:30:55.619Z</time></trkpt><trkpt lat="39.3403493" lon="17.0640892"><ele>39.0</ele><time>2026-03-28T16:30:56.61Z</time></trkpt><trkpt lat="39.340405" lon="17.06419"><ele>38.666666666666664</ele><time>2026-03-28T16:30:57.62Z</time></trkpt><trkpt lat="39.3404632" lon="17.0642891"><ele>38.333333333333336</ele><time>2026-03-28T16:30:58.609Z</time></trkpt><trkpt lat="39.3405227" lon="17.0643876"><ele>38.0</ele><time>2026-03-28T16:30:59.617Z</time></trkpt><trkpt lat="39.3405804" lon="17.0644807"><ele>37.66666666666667</ele><time>2026-03-28T16:31:00.61Z</time></trkpt><trkpt lat="39.3406321" lon="17.0645626"><ele>37.333333333333336</ele><time>2026-03-28T16:31:01.611Z</time></trkpt><trkpt lat="39.3406809" lon="17.0646464"><ele>37.0</ele><time>2026-03-28T16:31:02.613Z</time></trkpt><trkpt lat="39.3407235" lon="17.064732"><ele>38.833333333333336</ele><time>2026-03-28T16:31:03.612Z</time></trkpt><trkpt lat="39.340763" lon="17.0648235"><ele>40.66666666666667</ele><time>2026-03-28T16:31:04.615Z</time></trkpt><trkpt lat="39.340799" lon="17.0649202"><ele>42.5</ele><time>2026-03-28T16:31:05.616Z</time></trkpt><trkpt lat="39.3408311" lon="17.0650289"><ele>44.333333333333336</ele><time>2026-03-28T16:31:06.606Z</time></trkpt><trkpt lat="39.3408535" lon="17.0651506"><ele>46.166666666666664</ele><time>2026-03-28T16:31:07.612Z</time></trkpt><trkpt lat="39.3408651" lon="17.0652744"><ele>48.0</ele><time>2026-03-28T16:31:08.608Z</time></trkpt><trkpt lat="39.3408722" lon="17.0653883"><ele>48.0</ele><time>2026-03-28T16:31:09.617Z</time></trkpt><trkpt lat="39.3408772" lon="17.0654951"><ele>48.0</ele><time>2026-03-28T16:31:10.607Z</time></trkpt><trkpt lat="39.3408795" lon="17.0655952"><ele>48.0</ele><time>2026-03-28T16:31:11.617Z</time></trkpt><trkpt lat="39.3408774" lon="17.0657022"><ele>48.0</ele><time>2026-03-28T16:31:12.606Z</time></trkpt><trkpt lat="39.3408672" lon="17.0658135"><ele>48.0</ele><time>2026-03-28T16:31:13.613Z</time></trkpt><trkpt lat="39.3408531" lon="17.0659263"><ele>48.0</ele><time>2026-03-28T16:31:14.612Z</time></trkpt><trkpt lat="39.3408377" lon="17.0660384"><ele>47.333333333333336</ele><time>2026-03-28T16:31:15.612Z</time></trkpt><trkpt lat="39.3408222" lon="17.0661479"><ele>46.666666666666664</ele><time>2026-03-28T16:31:16.606Z</time></trkpt><trkpt lat="39.3408092" lon="17.0662559"><ele>46.0</ele><time>2026-03-28T16:31:17.616Z</time></trkpt><trkpt lat="39.3408022" lon="17.0663651"><ele>45.33333333333333</ele><time>2026-03-28T16:31:18.615Z</time></trkpt><trkpt lat="39.340805" lon="17.0664758"><ele>44.666666666666664</ele><time>2026-03-28T16:31:19.607Z</time></trkpt><trkpt lat="39.340816" lon="17.0665852"><ele>44.0</ele><time>2026-03-28T16:31:20.611Z</time></trkpt><trkpt lat="39.3408325" lon="17.0666951"><ele>43.2</ele><time>2026-03-28T16:31:21.611Z</time></trkpt><trkpt lat="39.3408572" lon="17.0668183"><ele>42.400000000000006</ele><time>2026-03-28T16:31:22.605Z</time></trkpt><trkpt lat="39.3408867" lon="17.0669427"><ele>41.6</ele><time>2026-03-28T16:31:23.614Z</time></trkpt><trkpt lat="39.3409151" lon="17.0670579"><ele>40.8</ele><time>2026-03-28T16:31:24.61Z</time></trkpt><trkpt lat="39.3409413" lon="17.0671682"><ele>40.0</ele><time>2026-03-28T16:31:25.61Z</time></trkpt><trkpt lat="39.3409657" lon="17.067271"><ele>40.0</ele><time>2026-03-28T16:31:26.607Z</time></trkpt><trkpt lat="39.3409891" lon="17.0673702"><ele>40.0</ele><time>2026-03-28T16:31:27.6Z</time></trkpt><trkpt lat="39.3410129" lon="17.0674698"><ele>40.0</ele><time>2026-03-28T16:31:28.607Z</time></trkpt><trkpt lat="39.341039" lon="17.0675676"><ele>40.0</ele><time>2026-03-28T16:31:29.618Z</time></trkpt><trkpt lat="39.3410647" lon="17.0676582"><ele>40.0</ele><time>2026-03-28T16:31:30.606Z</time></trkpt><trkpt lat="39.3410883" lon="17.0677373"><ele>40.0</ele><time>2026-03-28T16:31:31.604Z</time></trkpt><trkpt lat="39.3411379" lon="17.0678872"><ele>39.857142857142854</ele><time>2026-03-28T16:31:33.611Z</time></trkpt><trkpt lat="39.3411669" lon="17.0679649"><ele>39.714285714285715</ele><time>2026-03-28T16:31:34.612Z</time></trkpt><trkpt lat="39.3412059" lon="17.0680452"><ele>39.57142857142857</ele><time>2026-03-28T16:31:35.606Z</time></trkpt><trkpt lat="39.3412541" lon="17.0681129"><ele>39.42857142857143</ele><time>2026-03-28T16:31:36.615Z</time></trkpt><trkpt lat="39.3413185" lon="17.0681695"><ele>39.285714285714285</ele><time>2026-03-28T16:31:37.615Z</time></trkpt><trkpt lat="39.3413912" lon="17.068211"><ele>39.142857142857146</ele><time>2026-03-28T16:31:38.611Z</time></trkpt><trkpt lat="39.341462" lon="17.0682367"><ele>39.0</ele><time>2026-03-28T16:31:39.61Z</time></trkpt><trkpt lat="39.3415319" lon="17.0682522"><ele>38.833333333333336</ele><time>2026-03-28T16:31:40.604Z</time></trkpt><trkpt lat="39.3416008" lon="17.0682605"><ele>38.666666666666664</ele><time>2026-03-28T16:31:41.618Z</time></trkpt><trkpt lat="39.3416696" lon="17.068266"><ele>38.5</ele><time>2026-03-28T16:31:42.614Z</time></trkpt><trkpt lat="39.3417375" lon="17.0682705"><ele>38.33333333333333</ele><time>2026-03-28T16:31:43.625Z</time></trkpt><trkpt lat="39.3418029" lon="17.0682744"><ele>38.166666666666664</ele><time>2026-03-28T16:31:44.605Z</time></trkpt><trkpt lat="39.3418665" lon="17.0682805"><ele>38.0</ele><time>2026-03-28T16:31:45.604Z</time></trkpt><trkpt lat="39.3419892" lon="17.0683026"><ele>38.0</ele><time>2026-03-28T16:31:47.612Z</time></trkpt><trkpt lat="39.3421048" lon="17.0683449"><ele>38.0</ele><time>2026-03-28T16:31:49.613Z</time></trkpt><trkpt lat="39.3421639" lon="17.0683782"><ele>38.0</ele><time>2026-03-28T16:31:50.615Z</time></trkpt><trkpt lat="39.3422276" lon="17.0684272"><ele>38.0</ele><time>2026-03-28T16:31:51.611Z</time></trkpt><trkpt lat="39.3422972" lon="17.0684892"><ele>38.0</ele><time>2026-03-28T16:31:52.609Z</time></trkpt><trkpt lat="39.3423714" lon="17.0685593"><ele>38.0</ele><time>2026-03-28T16:31:53.609Z</time></trkpt><trkpt lat="39.3424601" lon="17.0686455"><ele>39.75</ele><time>2026-03-28T16:31:54.603Z</time></trkpt><trkpt lat="39.342549" lon="17.0687341"><ele>41.5</ele><time>2026-03-28T16:31:55.623Z</time></trkpt><trkpt lat="39.3426403" lon="17.0688307"><ele>43.25</ele><time>2026-03-28T16:31:56.623Z</time></trkpt><trkpt lat="39.3427253" lon="17.0689323"><ele>45.0</ele><time>2026-03-28T16:31:57.613Z</time></trkpt><trkpt lat="39.3428136" lon="17.0690543"><ele>44.75</ele><time>2026-03-28T16:31:58.624Z</time></trkpt><trkpt lat="39.3429133" lon="17.0692037"><ele>44.5</ele><time>2026-03-28T16:31:59.611Z</time></trkpt><trkpt lat="39.3430079" lon="17.0693467"><ele>44.25</ele><time>2026-03-28T16:32:00.612Z</time></trkpt><trkpt lat="39.3430936" lon="17.0694671"><ele>44.0</ele><time>2026-03-28T16:32:01.617Z</time></trkpt><trkpt lat="39.3431745" lon="17.0695688"><ele>44.0</ele><time>2026-03-28T16:32:02.606Z</time></trkpt><trkpt lat="39.3432527" lon="17.0696617"><ele>44.0</ele><time>2026-03-28T16:32:03.605Z</time></trkpt><trkpt lat="39.3433326" lon="17.0697536"><ele>44.0</ele><time>2026-03-28T16:32:04.607Z</time></trkpt><trkpt lat="39.3434114" lon="17.0698397"><ele>44.0</ele><time>2026-03-28T16:32:05.614Z</time></trkpt><trkpt lat="39.3434896" lon="17.0699205"><ele>44.0</ele><time>2026-03-28T16:32:06.61Z</time></trkpt><trkpt lat="39.3435721" lon="17.0700043"><ele>44.0</ele><time>2026-03-28T16:32:07.615Z</time></trkpt><trkpt lat="39.3436623" lon="17.0700974"><ele>44.0</ele><time>2026-03-28T16:32:08.607Z</time></trkpt><trkpt lat="39.3437584" lon="17.0701961"><ele>44.0</ele><time>2026-03-28T16:32:09.608Z</time></trkpt><trkpt lat="39.343855" lon="17.0702939"><ele>44.0</ele><time>2026-03-28T16:32:10.616Z</time></trkpt><trkpt lat="39.3439447" lon="17.0703888"><ele>44.0</ele><time>2026-03-28T16:32:11.617Z</time></trkpt><trkpt lat="39.3440253" lon="17.0704735"><ele>44.0</ele><time>2026-03-28T16:32:12.609Z</time></trkpt><trkpt lat="39.3441034" lon="17.0705562"><ele>44.0</ele><time>2026-03-28T16:32:13.604Z</time></trkpt><trkpt lat="39.3441782" lon="17.0706354"><ele>44.0</ele><time>2026-03-28T16:32:14.609Z</time></trkpt><trkpt lat="39.3442575" lon="17.0707137"><ele>44.0</ele><time>2026-03-28T16:32:15.613Z</time></trkpt><trkpt lat="39.3443499" lon="17.0707882"><ele>42.6</ele><time>2026-03-28T16:32:16.606Z</time></trkpt><trkpt lat="39.344455" lon="17.0708522"><ele>41.2</ele><time>2026-03-28T16:32:17.602Z</time></trkpt><trkpt lat="39.3445576" lon="17.0709012"><ele>39.800000000000004</ele><time>2026-03-28T16:32:18.606Z</time></trkpt><trkpt lat="39.3446487" lon="17.0709327"><ele>38.400000000000006</ele><time>2026-03-28T16:32:19.606Z</time></trkpt><trkpt lat="39.3447244" lon="17.0709444"><ele>37.0</ele><time>2026-03-28T16:32:20.608Z</time></trkpt><trkpt lat="39.3447946" lon="17.0709555"><ele>37.0</ele><time>2026-03-28T16:32:21.617Z</time></trkpt><trkpt lat="39.3448632" lon="17.0709664"><ele>37.0</ele><time>2026-03-28T16:32:22.612Z</time></trkpt><trkpt lat="39.3449362" lon="17.0709784"><ele>37.0</ele><time>2026-03-28T16:32:23.604Z</time></trkpt><trkpt lat="39.3450133" lon="17.0709913"><ele>37.0</ele><time>2026-03-28T16:32:24.607Z</time></trkpt><trkpt lat="39.3450907" lon="17.0710048"><ele>37.0</ele><time>2026-03-28T16:32:25.612Z</time></trkpt><trkpt lat="39.345166" lon="17.0710186"><ele>37.0</ele><time>2026-03-28T16:32:26.607Z</time></trkpt><trkpt lat="39.3452381" lon="17.0710361"><ele>37.0</ele><time>2026-03-28T16:32:27.611Z</time></trkpt><trkpt lat="39.3453067" lon="17.071066"><ele>37.0</ele><time>2026-03-28T16:32:28.611Z</time></trkpt><trkpt lat="39.3453731" lon="17.0711144"><ele>37.0</ele><time>2026-03-28T16:32:29.621Z</time></trkpt><trkpt lat="39.3454406" lon="17.0711644"><ele>37.0</ele><time>2026-03-28T16:32:30.609Z</time></trkpt><trkpt lat="39.3454904" lon="17.0712598"><ele>37.0</ele><time>2026-03-28T16:32:31.636Z</time></trkpt><trkpt lat="39.3455233" lon="17.0713847"><ele>37.0</ele><time>2026-03-28T16:32:32.61Z</time></trkpt><trkpt lat="39.3455481" lon="17.0715366"><ele>35.6</ele><time>2026-03-28T16:32:33.616Z</time></trkpt><trkpt lat="39.3455679" lon="17.0716783"><ele>34.2</ele><time>2026-03-28T16:32:34.612Z</time></trkpt><trkpt lat="39.3455859" lon="17.0717971"><ele>32.8</ele><time>2026-03-28T16:32:35.633Z</time></trkpt><trkpt lat="39.3456006" lon="17.0719043"><ele>31.4</ele><time>2026-03-28T16:32:36.614Z</time></trkpt><trkpt lat="39.3456139" lon="17.0720068"><ele>30.0</ele><time>2026-03-28T16:32:37.629Z</time></trkpt><trkpt lat="39.3456269" lon="17.0721098"><ele>30.0</ele><time>2026-03-28T16:32:38.615Z</time></trkpt><trkpt lat="39.3456401" lon="17.0722118"><ele>30.0</ele><time>2026-03-28T16:32:39.632Z</time></trkpt><trkpt lat="39.3456522" lon="17.0722988"><ele>30.0</ele><time>2026-03-28T16:32:40.608Z</time></trkpt><trkpt lat="39.3456701" lon="17.0724249"><ele>30.0</ele><time>2026-03-28T16:32:42.603Z</time></trkpt><trkpt lat="39.3456882" lon="17.0725487"><ele>30.0</ele><time>2026-03-28T16:32:44.603Z</time></trkpt><trkpt lat="39.3457081" lon="17.072694"><ele>29.8</ele><time>2026-03-28T16:32:46.604Z</time></trkpt><trkpt lat="39.3457312" lon="17.0728381"><ele>29.6</ele><time>2026-03-28T16:32:48.609Z</time></trkpt><trkpt lat="39.3457501" lon="17.0729579"><ele>29.4</ele><time>2026-03-28T16:32:50.614Z</time></trkpt><trkpt lat="39.3457652" lon="17.0730653"><ele>29.2</ele><time>2026-03-28T16:32:52.614Z</time></trkpt><trkpt lat="39.3457854" lon="17.0732014"><ele>29.0</ele><time>2026-03-28T16:32:54.611Z</time></trkpt><trkpt lat="39.3457984" lon="17.0732922"><ele>28.666666666666664</ele><time>2026-03-28T16:32:55.612Z</time></trkpt><trkpt lat="39.3458119" lon="17.0733801"><ele>28.333333333333332</ele><time>2026-03-28T16:32:56.611Z</time></trkpt><trkpt lat="39.3458248" lon="17.0734688"><ele>28.0</ele><time>2026-03-28T16:32:57.61Z</time></trkpt><trkpt lat="39.3458385" lon="17.0735622"><ele>27.666666666666664</ele><time>2026-03-28T16:32:58.601Z</time></trkpt><trkpt lat="39.3458548" lon="17.0736624"><ele>27.333333333333332</ele><time>2026-03-28T16:32:59.612Z</time></trkpt><trkpt lat="39.3458738" lon="17.0737772"><ele>27.0</ele><time>2026-03-28T16:33:00.602Z</time></trkpt><trkpt lat="39.3458941" lon="17.0738999"><ele>27.0</ele><time>2026-03-28T16:33:01.619Z</time></trkpt><trkpt lat="39.3459116" lon="17.074014"><ele>27.000000000000004</ele><time>2026-03-28T16:33:02.607Z</time></trkpt><trkpt lat="39.3459275" lon="17.0741293"><ele>27.000000000000004</ele><time>2026-03-28T16:33:03.609Z</time></trkpt><trkpt lat="39.3459444" lon="17.0742501"><ele>27.0</ele><time>2026-03-28T16:33:04.612Z</time></trkpt><trkpt lat="39.3459632" lon="17.0743718"><ele>27.0</ele><time>2026-03-28T16:33:05.615Z</time></trkpt><trkpt lat="39.3459837" lon="17.0744918"><ele>27.0</ele><time>2026-03-28T16:33:06.612Z</time></trkpt><trkpt lat="39.3460038" lon="17.0746059"><ele>27.0</ele><time>2026-03-28T16:33:07.614Z</time></trkpt><trkpt lat="39.3460231" lon="17.0747133"><ele>27.0</ele><time>2026-03-28T16:33:08.609Z</time></trkpt><trkpt lat="39.3460416" lon="17.0748124"><ele>27.0</ele><time>2026-03-28T16:33:09.612Z</time></trkpt><trkpt lat="39.3460588" lon="17.0749169"><ele>27.0</ele><time>2026-03-28T16:33:10.604Z</time></trkpt><trkpt lat="39.3460753" lon="17.0750315"><ele>27.0</ele><time>2026-03-28T16:33:11.61Z</time></trkpt><trkpt lat="39.3460914" lon="17.0751435"><ele>27.0</ele><time>2026-03-28T16:33:12.606Z</time></trkpt><trkpt lat="39.3461075" lon="17.075252"><ele>27.0</ele><time>2026-03-28T16:33:13.618Z</time></trkpt><trkpt lat="39.3461232" lon="17.0753588"><ele>27.0</ele><time>2026-03-28T16:33:14.606Z</time></trkpt><trkpt lat="39.3461411" lon="17.0754652"><ele>27.0</ele><time>2026-03-28T16:33:15.61Z</time></trkpt><trkpt lat="39.3461624" lon="17.0755708"><ele>27.0</ele><time>2026-03-28T16:33:16.609Z</time></trkpt><trkpt lat="39.3461867" lon="17.0756768"><ele>27.0</ele><time>2026-03-28T16:33:17.622Z</time></trkpt><trkpt lat="39.3462159" lon="17.0757799"><ele>26.833333333333332</ele><time>2026-03-28T16:33:18.609Z</time></trkpt><trkpt lat="39.346248" lon="17.07588"><ele>26.666666666666664</ele><time>2026-03-28T16:33:19.611Z</time></trkpt><trkpt lat="39.346284" lon="17.0759779"><ele>26.5</ele><time>2026-03-28T16:33:20.608Z</time></trkpt><trkpt lat="39.3463206" lon="17.0760752"><ele>26.333333333333332</ele><time>2026-03-28T16:33:21.621Z</time></trkpt><trkpt lat="39.3463576" lon="17.0761713"><ele>26.166666666666664</ele><time>2026-03-28T16:33:22.617Z</time></trkpt><trkpt lat="39.346395" lon="17.0762625"><ele>26.0</ele><time>2026-03-28T16:33:23.622Z</time></trkpt><trkpt lat="39.3464328" lon="17.0763491"><ele>25.999999999999996</ele><time>2026-03-28T16:33:24.61Z</time></trkpt><trkpt lat="39.3464717" lon="17.0764335"><ele>26.0</ele><time>2026-03-28T16:33:25.61Z</time></trkpt><trkpt lat="39.3465135" lon="17.0765197"><ele>26.0</ele><time>2026-03-28T16:33:26.606Z</time></trkpt><trkpt lat="39.3465533" lon="17.0765988"><ele>26.0</ele><time>2026-03-28T16:33:27.609Z</time></trkpt><trkpt lat="39.3465948" lon="17.0766782"><ele>25.999999999999996</ele><time>2026-03-28T16:33:28.607Z</time></trkpt><trkpt lat="39.3466409" lon="17.0767635"><ele>26.0</ele><time>2026-03-28T16:33:29.619Z</time></trkpt><trkpt lat="39.3466909" lon="17.0768507"><ele>26.4</ele><time>2026-03-28T16:33:30.613Z</time></trkpt><trkpt lat="39.3467462" lon="17.0769468"><ele>26.8</ele><time>2026-03-28T16:33:31.614Z</time></trkpt><trkpt lat="39.3468063" lon="17.0770596"><ele>27.199999999999996</ele><time>2026-03-28T16:33:32.613Z</time></trkpt><trkpt lat="39.3468664" lon="17.0771726"><ele>27.599999999999998</ele><time>2026-03-28T16:33:33.614Z</time></trkpt><trkpt lat="39.3469259" lon="17.0772867"><ele>28.0</ele><time>2026-03-28T16:33:34.61Z</time></trkpt><trkpt lat="39.3469736" lon="17.0774036"><ele>28.0</ele><time>2026-03-28T16:33:35.618Z</time></trkpt><trkpt lat="39.3470089" lon="17.0775349"><ele>27.999999999999996</ele><time>2026-03-28T16:33:36.615Z</time></trkpt><trkpt lat="39.3470253" lon="17.0776717"><ele>27.999999999999996</ele><time>2026-03-28T16:33:37.611Z</time></trkpt><trkpt lat="39.3470215" lon="17.0778123"><ele>28.0</ele><time>2026-03-28T16:33:38.605Z</time></trkpt><trkpt lat="39.3470172" lon="17.0779642"><ele>28.0</ele><time>2026-03-28T16:33:39.614Z</time></trkpt><trkpt lat="39.3469931" lon="17.0781187"><ele>28.0</ele><time>2026-03-28T16:33:40.62Z</time></trkpt><trkpt lat="39.3469829" lon="17.0782681"><ele>27.999999999999996</ele><time>2026-03-28T16:33:41.619Z</time></trkpt><trkpt lat="39.346984" lon="17.078412"><ele>27.999999999999996</ele><time>2026-03-28T16:33:42.608Z</time></trkpt><trkpt lat="39.3469887" lon="17.0785497"><ele>28.0</ele><time>2026-03-28T16:33:43.609Z</time></trkpt><trkpt lat="39.3469859" lon="17.0786882"><ele>28.0</ele><time>2026-03-28T16:33:44.612Z</time></trkpt><trkpt lat="39.3469782" lon="17.0788203"><ele>28.0</ele><time>2026-03-28T16:33:45.606Z</time></trkpt><trkpt lat="39.3469671" lon="17.0789514"><ele>27.999999999999996</ele><time>2026-03-28T16:33:46.607Z</time></trkpt><trkpt lat="39.3469537" lon="17.0790808"><ele>27.999999999999996</ele><time>2026-03-28T16:33:47.609Z</time></trkpt><trkpt lat="39.3469392" lon="17.0792106"><ele>28.0</ele><time>2026-03-28T16:33:48.613Z</time></trkpt><trkpt lat="39.3469205" lon="17.0793471"><ele>28.0</ele><time>2026-03-28T16:33:49.616Z</time></trkpt><trkpt lat="39.3469024" lon="17.0794862"><ele>27.799999999999997</ele><time>2026-03-28T16:33:50.61Z</time></trkpt><trkpt lat="39.3468891" lon="17.0796142"><ele>27.599999999999998</ele><time>2026-03-28T16:33:51.601Z</time></trkpt><trkpt lat="39.3468749" lon="17.0797429"><ele>27.400000000000002</ele><time>2026-03-28T16:33:52.611Z</time></trkpt><trkpt lat="39.3468588" lon="17.0798724"><ele>27.200000000000003</ele><time>2026-03-28T16:33:53.615Z</time></trkpt><trkpt lat="39.3468433" lon="17.0800041"><ele>27.0</ele><time>2026-03-28T16:33:54.606Z</time></trkpt><trkpt lat="39.3468299" lon="17.0801318"><ele>27.0</ele><time>2026-03-28T16:33:55.609Z</time></trkpt><trkpt lat="39.3468219" lon="17.0802623"><ele>27.000000000000004</ele><time>2026-03-28T16:33:56.608Z</time></trkpt><trkpt lat="39.3468244" lon="17.0803994"><ele>27.000000000000004</ele><time>2026-03-28T16:33:57.618Z</time></trkpt><trkpt lat="39.3468386" lon="17.0805417"><ele>27.0</ele><time>2026-03-28T16:33:58.611Z</time></trkpt><trkpt lat="39.3468695" lon="17.0806867"><ele>27.0</ele><time>2026-03-28T16:33:59.599Z</time></trkpt><trkpt lat="39.3469172" lon="17.0808215"><ele>26.400000000000002</ele><time>2026-03-28T16:34:00.611Z</time></trkpt><trkpt lat="39.3469736" lon="17.0809432"><ele>25.800000000000004</ele><time>2026-03-28T16:34:01.615Z</time></trkpt><trkpt lat="39.3470337" lon="17.0810518"><ele>25.2</ele><time>2026-03-28T16:34:02.611Z</time></trkpt><trkpt lat="39.3470914" lon="17.0811489"><ele>24.6</ele><time>2026-03-28T16:34:03.607Z</time></trkpt><trkpt lat="39.3471542" lon="17.0812498"><ele>24.0</ele><time>2026-03-28T16:34:04.608Z</time></trkpt><trkpt lat="39.3472149" lon="17.0813457"><ele>24.6</ele><time>2026-03-28T16:34:05.624Z</time></trkpt><trkpt lat="39.3472806" lon="17.0814483"><ele>25.2</ele><time>2026-03-28T16:34:06.605Z</time></trkpt><trkpt lat="39.3473443" lon="17.0815476"><ele>25.800000000000004</ele><time>2026-03-28T16:34:07.611Z</time></trkpt><trkpt lat="39.3474045" lon="17.0816479"><ele>26.400000000000002</ele><time>2026-03-28T16:34:08.606Z</time></trkpt><trkpt lat="39.3474686" lon="17.0817519"><ele>27.0</ele><time>2026-03-28T16:34:09.625Z</time></trkpt><trkpt lat="39.3475376" lon="17.0818636"><ele>27.0</ele><time>2026-03-28T16:34:10.605Z</time></trkpt><trkpt lat="39.3476108" lon="17.0819814"><ele>27.0</ele><time>2026-03-28T16:34:11.616Z</time></trkpt><trkpt lat="39.3476874" lon="17.0821026"><ele>27.0</ele><time>2026-03-28T16:34:12.604Z</time></trkpt><trkpt lat="39.3477624" lon="17.0822218"><ele>27.0</ele><time>2026-03-28T16:34:13.61Z</time></trkpt><trkpt lat="39.347836" lon="17.0823397"><ele>26.25</ele><time>2026-03-28T16:34:14.607Z</time></trkpt><trkpt lat="39.3479129" lon="17.0824582"><ele>25.5</ele><time>2026-03-28T16:34:15.612Z</time></trkpt><trkpt lat="39.3479854" lon="17.0825713"><ele>24.75</ele><time>2026-03-28T16:34:16.609Z</time></trkpt><trkpt lat="39.3480575" lon="17.0826881"><ele>24.0</ele><time>2026-03-28T16:34:17.603Z</time></trkpt><trkpt lat="39.3481333" lon="17.0828117"><ele>24.0</ele><time>2026-03-28T16:34:18.608Z</time></trkpt><trkpt lat="39.3482249" lon="17.0829574"><ele>24.0</ele><time>2026-03-28T16:34:19.605Z</time></trkpt><trkpt lat="39.3483253" lon="17.0831183"><ele>24.0</ele><time>2026-03-28T16:34:20.604Z</time></trkpt><trkpt lat="39.3484234" lon="17.0832739"><ele>23.0</ele><time>2026-03-28T16:34:21.599Z</time></trkpt><trkpt lat="39.3485166" lon="17.0834185"><ele>22.0</ele><time>2026-03-28T16:34:22.607Z</time></trkpt><trkpt lat="39.3486118" lon="17.0835558"><ele>21.0</ele><time>2026-03-28T16:34:23.613Z</time></trkpt><trkpt lat="39.3487069" lon="17.0836887"><ele>20.0</ele><time>2026-03-28T16:34:24.61Z</time></trkpt><trkpt lat="39.3487991" lon="17.0838352"><ele>20.666666666666668</ele><time>2026-03-28T16:34:25.602Z</time></trkpt><trkpt lat="39.3489061" lon="17.0840119"><ele>21.333333333333332</ele><time>2026-03-28T16:34:26.614Z</time></trkpt><trkpt lat="39.3490275" lon="17.084215"><ele>22.0</ele><time>2026-03-28T16:34:27.621Z</time></trkpt><trkpt lat="39.3491543" lon="17.0844208"><ele>22.0</ele><time>2026-03-28T16:34:28.606Z</time></trkpt><trkpt lat="39.349265" lon="17.0846022"><ele>22.0</ele><time>2026-03-28T16:34:29.608Z</time></trkpt><trkpt lat="39.3493595" lon="17.0847633"><ele>22.0</ele><time>2026-03-28T16:34:30.604Z</time></trkpt><trkpt lat="39.3494422" lon="17.0849111"><ele>21.0</ele><time>2026-03-28T16:34:31.612Z</time></trkpt><trkpt lat="39.3495144" lon="17.0850507"><ele>20.0</ele><time>2026-03-28T16:34:32.607Z</time></trkpt><trkpt lat="39.3495809" lon="17.0852"><ele>19.0</ele><time>2026-03-28T16:34:33.6Z</time></trkpt><trkpt lat="39.3496436" lon="17.085371"><ele>18.0</ele><time>2026-03-28T16:34:34.604Z</time></trkpt><trkpt lat="39.3496942" lon="17.0855369"><ele>18.0</ele><time>2026-03-28T16:34:35.613Z</time></trkpt><trkpt lat="39.3497397" lon="17.0857094"><ele>18.0</ele><time>2026-03-28T16:34:36.606Z</time></trkpt><trkpt lat="39.3497815" lon="17.0858763"><ele>18.0</ele><time>2026-03-28T16:34:37.612Z</time></trkpt><trkpt lat="39.3498209" lon="17.086035"><ele>18.0</ele><time>2026-03-28T16:34:38.605Z</time></trkpt><trkpt lat="39.3498585" lon="17.0861887"><ele>18.25</ele><time>2026-03-28T16:34:39.613Z</time></trkpt><trkpt lat="39.3498973" lon="17.0863415"><ele>18.5</ele><time>2026-03-28T16:34:40.612Z</time></trkpt><trkpt lat="39.3499384" lon="17.0864984"><ele>18.75</ele><time>2026-03-28T16:34:41.611Z</time></trkpt><trkpt lat="39.3499812" lon="17.0866614"><ele>19.0</ele><time>2026-03-28T16:34:42.602Z</time></trkpt><trkpt lat="39.3500269" lon="17.0868167"><ele>19.0</ele><time>2026-03-28T16:34:43.606Z</time></trkpt><trkpt lat="39.3500789" lon="17.086966"><ele>19.0</ele><time>2026-03-28T16:34:44.609Z</time></trkpt><trkpt lat="39.3501367" lon="17.0871173"><ele>19.0</ele><time>2026-03-28T16:34:45.612Z</time></trkpt><trkpt lat="39.3501963" lon="17.087274"><ele>19.0</ele><time>2026-03-28T16:34:46.605Z</time></trkpt><trkpt lat="39.3502598" lon="17.0874352"><ele>19.0</ele><time>2026-03-28T16:34:47.619Z</time></trkpt><trkpt lat="39.3503254" lon="17.0876029"><ele>19.0</ele><time>2026-03-28T16:34:48.61Z</time></trkpt><trkpt lat="39.3503934" lon="17.0877771"><ele>19.0</ele><time>2026-03-28T16:34:49.624Z</time></trkpt><trkpt lat="39.3504637" lon="17.0879578"><ele>19.0</ele><time>2026-03-28T16:34:50.611Z</time></trkpt><trkpt lat="39.3505373" lon="17.0881427"><ele>19.0</ele><time>2026-03-28T16:34:51.622Z</time></trkpt><trkpt lat="39.3506135" lon="17.0883311"><ele>19.0</ele><time>2026-03-28T16:34:52.607Z</time></trkpt><trkpt lat="39.3506869" lon="17.0885168"><ele>18.75</ele><time>2026-03-28T16:34:53.618Z</time></trkpt><trkpt lat="39.3507547" lon="17.0886919"><ele>18.5</ele><time>2026-03-28T16:34:54.609Z</time></trkpt><trkpt lat="39.3508204" lon="17.0888621"><ele>18.25</ele><time>2026-03-28T16:34:55.606Z</time></trkpt><trkpt lat="39.350885" lon="17.0890288"><ele>18.0</ele><time>2026-03-28T16:34:56.606Z</time></trkpt><trkpt lat="39.3509525" lon="17.0892029"><ele>17.666666666666668</ele><time>2026-03-28T16:34:57.611Z</time></trkpt><trkpt lat="39.351027" lon="17.0893984"><ele>17.333333333333336</ele><time>2026-03-28T16:34:58.604Z</time></trkpt><trkpt lat="39.3511129" lon="17.0896185"><ele>17.0</ele><time>2026-03-28T16:34:59.616Z</time></trkpt><trkpt lat="39.3511983" lon="17.0898351"><ele>17.333333333333336</ele><time>2026-03-28T16:35:00.61Z</time></trkpt><trkpt lat="39.3512805" lon="17.0900418"><ele>17.666666666666668</ele><time>2026-03-28T16:35:01.614Z</time></trkpt><trkpt lat="39.3513667" lon="17.0902596"><ele>18.0</ele><time>2026-03-28T16:35:02.606Z</time></trkpt><trkpt lat="39.3514566" lon="17.0904793"><ele>18.333333333333332</ele><time>2026-03-28T16:35:03.608Z</time></trkpt><trkpt lat="39.3515502" lon="17.0907109"><ele>18.666666666666664</ele><time>2026-03-28T16:35:04.608Z</time></trkpt><trkpt lat="39.3516524" lon="17.0909608"><ele>19.0</ele><time>2026-03-28T16:35:05.632Z</time></trkpt><trkpt lat="39.3517532" lon="17.0912036"><ele>19.0</ele><time>2026-03-28T16:35:06.615Z</time></trkpt><trkpt lat="39.3518551" lon="17.0914411"><ele>19.0</ele><time>2026-03-28T16:35:07.616Z</time></trkpt><trkpt lat="39.3519552" lon="17.0916817"><ele>19.0</ele><time>2026-03-28T16:35:08.61Z</time></trkpt><trkpt lat="39.3520545" lon="17.0919225"><ele>19.333333333333332</ele><time>2026-03-28T16:35:09.618Z</time></trkpt><trkpt lat="39.3521571" lon="17.0921648"><ele>19.666666666666668</ele><time>2026-03-28T16:35:10.611Z</time></trkpt><trkpt lat="39.3522705" lon="17.0924164"><ele>20.0</ele><time>2026-03-28T16:35:11.612Z</time></trkpt><trkpt lat="39.3523823" lon="17.0926868"><ele>18.5</ele><time>2026-03-28T16:35:12.611Z</time></trkpt><trkpt lat="39.3525057" lon="17.0929802"><ele>17.0</ele><time>2026-03-28T16:35:13.615Z</time></trkpt><trkpt lat="39.3526299" lon="17.0932727"><ele>16.0</ele><time>2026-03-28T16:35:14.605Z</time></trkpt><trkpt lat="39.3527435" lon="17.0935578"><ele>15.0</ele><time>2026-03-28T16:35:15.604Z</time></trkpt><trkpt lat="39.3528564" lon="17.0938224"><ele>15.0</ele><time>2026-03-28T16:35:16.611Z</time></trkpt><trkpt lat="39.3529514" lon="17.0940601"><ele>15.0</ele><time>2026-03-28T16:35:17.618Z</time></trkpt><trkpt lat="39.353042" lon="17.0942799"><ele>15.0</ele><time>2026-03-28T16:35:18.616Z</time></trkpt><trkpt lat="39.3531253" lon="17.0944875"><ele>15.0</ele><time>2026-03-28T16:35:19.607Z</time></trkpt><trkpt lat="39.3532143" lon="17.0946842"><ele>15.0</ele><time>2026-03-28T16:35:20.61Z</time></trkpt><trkpt lat="39.3533198" lon="17.0948654"><ele>15.0</ele><time>2026-03-28T16:35:21.61Z</time></trkpt><trkpt lat="39.3534406" lon="17.0950245"><ele>15.0</ele><time>2026-03-28T16:35:22.609Z</time></trkpt><trkpt lat="39.3535836" lon="17.095164"><ele>15.0</ele><time>2026-03-28T16:35:23.607Z</time></trkpt><trkpt lat="39.3537541" lon="17.0953021"><ele>15.0</ele><time>2026-03-28T16:35:24.608Z</time></trkpt><trkpt lat="39.353944" lon="17.0954458"><ele>15.0</ele><time>2026-03-28T16:35:25.615Z</time></trkpt><trkpt lat="39.3541478" lon="17.0955974"><ele>15.0</ele><time>2026-03-28T16:35:26.617Z</time></trkpt><trkpt lat="39.3543406" lon="17.09574"><ele>15.0</ele><time>2026-03-28T16:35:27.614Z</time></trkpt><trkpt lat="39.3545114" lon="17.0958693"><ele>15.0</ele><time>2026-03-28T16:35:28.603Z</time></trkpt><trkpt lat="39.3546649" lon="17.0959824"><ele>15.0</ele><time>2026-03-28T16:35:29.619Z</time></trkpt><trkpt lat="39.3548077" lon="17.0960843"><ele>16.333333333333332</ele><time>2026-03-28T16:35:30.61Z</time></trkpt><trkpt lat="39.3549439" lon="17.0961847"><ele>17.666666666666664</ele><time>2026-03-28T16:35:31.605Z</time></trkpt><trkpt lat="39.3550851" lon="17.0962873"><ele>19.0</ele><time>2026-03-28T16:35:32.607Z</time></trkpt><trkpt lat="39.3552404" lon="17.096406"><ele>19.0</ele><time>2026-03-28T16:35:33.613Z</time></trkpt><trkpt lat="39.3553985" lon="17.0965235"><ele>19.0</ele><time>2026-03-28T16:35:34.607Z</time></trkpt><trkpt lat="39.3555398" lon="17.0966361"><ele>19.0</ele><time>2026-03-28T16:35:35.604Z</time></trkpt><trkpt lat="39.35567" lon="17.0967389"><ele>20.333333333333332</ele><time>2026-03-28T16:35:36.606Z</time></trkpt><trkpt lat="39.3557963" lon="17.096844"><ele>21.666666666666668</ele><time>2026-03-28T16:35:37.616Z</time></trkpt><trkpt lat="39.3559221" lon="17.0969583"><ele>23.0</ele><time>2026-03-28T16:35:38.608Z</time></trkpt><trkpt lat="39.356039" lon="17.0970838"><ele>23.0</ele><time>2026-03-28T16:35:39.619Z</time></trkpt><trkpt lat="39.3561559" lon="17.0972165"><ele>23.0</ele><time>2026-03-28T16:35:40.606Z</time></trkpt><trkpt lat="39.3562671" lon="17.0973474"><ele>23.0</ele><time>2026-03-28T16:35:41.61Z</time></trkpt><trkpt lat="39.3563786" lon="17.0974786"><ele>23.5</ele><time>2026-03-28T16:35:42.616Z</time></trkpt><trkpt lat="39.3564841" lon="17.0976074"><ele>24.0</ele><time>2026-03-28T16:35:43.614Z</time></trkpt><trkpt lat="39.3565826" lon="17.0977281"><ele>24.5</ele><time>2026-03-28T16:35:44.607Z</time></trkpt><trkpt lat="39.3566736" lon="17.0978373"><ele>25.0</ele><time>2026-03-28T16:35:45.627Z</time></trkpt><trkpt lat="39.3567623" lon="17.0979446"><ele>25.0</ele><time>2026-03-28T16:35:46.617Z</time></trkpt><trkpt lat="39.3568558" lon="17.0980528"><ele>25.0</ele><time>2026-03-28T16:35:47.612Z</time></trkpt><trkpt lat="39.3569497" lon="17.0981635"><ele>25.0</ele><time>2026-03-28T16:35:48.613Z</time></trkpt><trkpt lat="39.357036" lon="17.0982697"><ele>25.0</ele><time>2026-03-28T16:35:49.609Z</time></trkpt><trkpt lat="39.3571095" lon="17.098381"><ele>24.5</ele><time>2026-03-28T16:35:50.612Z</time></trkpt><trkpt lat="39.3571714" lon="17.0985015"><ele>24.0</ele><time>2026-03-28T16:35:51.606Z</time></trkpt><trkpt lat="39.3572194" lon="17.0986317"><ele>23.5</ele><time>2026-03-28T16:35:52.607Z</time></trkpt><trkpt lat="39.3572501" lon="17.0987717"><ele>23.0</ele><time>2026-03-28T16:35:53.621Z</time></trkpt><trkpt lat="39.3572682" lon="17.0989416"><ele>24.666666666666668</ele><time>2026-03-28T16:35:54.607Z</time></trkpt><trkpt lat="39.3572843" lon="17.0991539"><ele>26.333333333333336</ele><time>2026-03-28T16:35:55.607Z</time></trkpt><trkpt lat="39.3573012" lon="17.0993672"><ele>28.0</ele><time>2026-03-28T16:35:56.618Z</time></trkpt><trkpt lat="39.3573243" lon="17.0995792"><ele>28.0</ele><time>2026-03-28T16:35:57.616Z</time></trkpt><trkpt lat="39.3573512" lon="17.0997793"><ele>28.0</ele><time>2026-03-28T16:35:58.606Z</time></trkpt><trkpt lat="39.3573823" lon="17.0999664"><ele>28.0</ele><time>2026-03-28T16:35:59.61Z</time></trkpt><trkpt lat="39.3574233" lon="17.1001558"><ele>26.666666666666668</ele><time>2026-03-28T16:36:00.606Z</time></trkpt><trkpt lat="39.3574675" lon="17.1003439"><ele>25.333333333333336</ele><time>2026-03-28T16:36:01.611Z</time></trkpt><trkpt lat="39.3575115" lon="17.1005372"><ele>24.0</ele><time>2026-03-28T16:36:02.611Z</time></trkpt><trkpt lat="39.3575503" lon="17.1007209"><ele>23.25</ele><time>2026-03-28T16:36:03.614Z</time></trkpt><trkpt lat="39.3575854" lon="17.1009079"><ele>22.5</ele><time>2026-03-28T16:36:04.608Z</time></trkpt><trkpt lat="39.3576157" lon="17.1010925"><ele>21.75</ele><time>2026-03-28T16:36:05.611Z</time></trkpt><trkpt lat="39.3576451" lon="17.1012756"><ele>21.0</ele><time>2026-03-28T16:36:06.611Z</time></trkpt><trkpt lat="39.3576767" lon="17.1014723"><ele>21.333333333333332</ele><time>2026-03-28T16:36:07.61Z</time></trkpt><trkpt lat="39.357703" lon="17.1016682"><ele>21.666666666666664</ele><time>2026-03-28T16:36:08.614Z</time></trkpt><trkpt lat="39.3577283" lon="17.1018558"><ele>22.0</ele><time>2026-03-28T16:36:09.619Z</time></trkpt><trkpt lat="39.3577563" lon="17.1020521"><ele>22.0</ele><time>2026-03-28T16:36:10.612Z</time></trkpt><trkpt lat="39.3577833" lon="17.1022466"><ele>22.0</ele><time>2026-03-28T16:36:11.606Z</time></trkpt><trkpt lat="39.3578089" lon="17.1024305"><ele>22.0</ele><time>2026-03-28T16:36:12.614Z</time></trkpt><trkpt lat="39.3578324" lon="17.1026104"><ele>22.0</ele><time>2026-03-28T16:36:13.626Z</time></trkpt><trkpt lat="39.3578544" lon="17.1027916"><ele>21.666666666666664</ele><time>2026-03-28T16:36:14.604Z</time></trkpt><trkpt lat="39.3578795" lon="17.1029767"><ele>21.333333333333332</ele><time>2026-03-28T16:36:15.607Z</time></trkpt><trkpt lat="39.3579082" lon="17.1031863"><ele>21.0</ele><time>2026-03-28T16:36:16.609Z</time></trkpt><trkpt lat="39.357934" lon="17.1034139"><ele>21.666666666666668</ele><time>2026-03-28T16:36:17.613Z</time></trkpt><trkpt lat="39.357954" lon="17.103629"><ele>22.333333333333336</ele><time>2026-03-28T16:36:18.607Z</time></trkpt><trkpt lat="39.3579652" lon="17.1038308"><ele>23.0</ele><time>2026-03-28T16:36:19.605Z</time></trkpt><trkpt lat="39.3579739" lon="17.104024"><ele>22.75</ele><time>2026-03-28T16:36:20.61Z</time></trkpt><trkpt lat="39.3579822" lon="17.1042126"><ele>22.5</ele><time>2026-03-28T16:36:21.627Z</time></trkpt><trkpt lat="39.357991" lon="17.1043969"><ele>22.25</ele><time>2026-03-28T16:36:22.611Z</time></trkpt><trkpt lat="39.3580047" lon="17.1045792"><ele>22.0</ele><time>2026-03-28T16:36:23.61Z</time></trkpt><trkpt lat="39.3580209" lon="17.1047617"><ele>22.5</ele><time>2026-03-28T16:36:24.61Z</time></trkpt><trkpt lat="39.3580366" lon="17.1049382"><ele>23.0</ele><time>2026-03-28T16:36:25.612Z</time></trkpt><trkpt lat="39.3580532" lon="17.1051074"><ele>23.5</ele><time>2026-03-28T16:36:26.607Z</time></trkpt><trkpt lat="39.3580687" lon="17.1052717"><ele>24.0</ele><time>2026-03-28T16:36:27.619Z</time></trkpt><trkpt lat="39.3580831" lon="17.1054345"><ele>24.0</ele><time>2026-03-28T16:36:28.613Z</time></trkpt><trkpt lat="39.3580982" lon="17.1056004"><ele>24.0</ele><time>2026-03-28T16:36:29.608Z</time></trkpt><trkpt lat="39.3581145" lon="17.1057703"><ele>24.0</ele><time>2026-03-28T16:36:30.604Z</time></trkpt><trkpt lat="39.3581346" lon="17.1059388"><ele>24.0</ele><time>2026-03-28T16:36:31.611Z</time></trkpt><trkpt lat="39.3581615" lon="17.1061048"><ele>23.75</ele><time>2026-03-28T16:36:32.611Z</time></trkpt><trkpt lat="39.3581968" lon="17.1062732"><ele>23.5</ele><time>2026-03-28T16:36:33.614Z</time></trkpt><trkpt lat="39.3582421" lon="17.1064375"><ele>23.25</ele><time>2026-03-28T16:36:34.606Z</time></trkpt><trkpt lat="39.3582989" lon="17.1065861"><ele>23.0</ele><time>2026-03-28T16:36:35.62Z</time></trkpt><trkpt lat="39.3583598" lon="17.106735"><ele>23.0</ele><time>2026-03-28T16:36:36.609Z</time></trkpt><trkpt lat="39.3584162" lon="17.1068762"><ele>23.0</ele><time>2026-03-28T16:36:37.616Z</time></trkpt><trkpt lat="39.3584663" lon="17.107013"><ele>23.0</ele><time>2026-03-28T16:36:38.619Z</time></trkpt><trkpt lat="39.3585138" lon="17.1071538"><ele>23.0</ele><time>2026-03-28T16:36:39.618Z</time></trkpt><trkpt lat="39.3585581" lon="17.1072942"><ele>22.0</ele><time>2026-03-28T16:36:40.613Z</time></trkpt><trkpt lat="39.3586017" lon="17.1074393"><ele>21.0</ele><time>2026-03-28T16:36:41.621Z</time></trkpt><trkpt lat="39.3586435" lon="17.107588"><ele>20.0</ele><time>2026-03-28T16:36:42.607Z</time></trkpt><trkpt lat="39.3586819" lon="17.1077343"><ele>19.0</ele><time>2026-03-28T16:36:43.619Z</time></trkpt><trkpt lat="39.3587225" lon="17.1078782"><ele>19.0</ele><time>2026-03-28T16:36:44.613Z</time></trkpt><trkpt lat="39.3587732" lon="17.1080337"><ele>19.0</ele><time>2026-03-28T16:36:45.612Z</time></trkpt><trkpt lat="39.3588247" lon="17.1081831"><ele>19.0</ele><time>2026-03-28T16:36:46.608Z</time></trkpt><trkpt lat="39.3588742" lon="17.1083224"><ele>19.0</ele><time>2026-03-28T16:36:47.612Z</time></trkpt><trkpt lat="39.3589237" lon="17.1084545"><ele>20.0</ele><time>2026-03-28T16:36:48.606Z</time></trkpt><trkpt lat="39.3589715" lon="17.1085826"><ele>21.0</ele><time>2026-03-28T16:36:49.605Z</time></trkpt><trkpt lat="39.3590165" lon="17.1087078"><ele>22.0</ele><time>2026-03-28T16:36:50.611Z</time></trkpt><trkpt lat="39.3590556" lon="17.1088233"><ele>23.0</ele><time>2026-03-28T16:36:51.605Z</time></trkpt><trkpt lat="39.3590875" lon="17.1089176"><ele>24.0</ele><time>2026-03-28T16:36:52.61Z</time></trkpt><trkpt lat="39.3591136" lon="17.1089985"><ele>23.4</ele><time>2026-03-28T16:36:53.607Z</time></trkpt><trkpt lat="39.3591499" lon="17.1091245"><ele>22.799999999999997</ele><time>2026-03-28T16:36:55.612Z</time></trkpt><trkpt lat="39.3591782" lon="17.1092351"><ele>22.200000000000003</ele><time>2026-03-28T16:36:57.61Z</time></trkpt><trkpt lat="39.3591943" lon="17.1093372"><ele>21.6</ele><time>2026-03-28T16:36:59.62Z</time></trkpt><trkpt lat="39.359202" lon="17.1094417"><ele>21.0</ele><time>2026-03-28T16:37:01.609Z</time></trkpt><trkpt lat="39.3592111" lon="17.1095847"><ele>21.0</ele><time>2026-03-28T16:37:05.618Z</time></trkpt><trkpt lat="39.3592354" lon="17.1097219"><ele>21.0</ele><time>2026-03-28T16:37:07.614Z</time></trkpt><trkpt lat="39.3592706" lon="17.1098297"><ele>21.0</ele><time>2026-03-28T16:37:08.61Z</time></trkpt><trkpt lat="39.3593135" lon="17.109973"><ele>21.0</ele><time>2026-03-28T16:37:09.621Z</time></trkpt><trkpt lat="39.3593483" lon="17.1101019"><ele>21.0</ele><time>2026-03-28T16:37:10.607Z</time></trkpt><trkpt lat="39.3593746" lon="17.110219"><ele>21.0</ele><time>2026-03-28T16:37:11.619Z</time></trkpt><trkpt lat="39.3593952" lon="17.1103422"><ele>21.0</ele><time>2026-03-28T16:37:12.604Z</time></trkpt><trkpt lat="39.3594086" lon="17.1104621"><ele>21.0</ele><time>2026-03-28T16:37:13.612Z</time></trkpt><trkpt lat="39.3594132" lon="17.11056"><ele>21.0</ele><time>2026-03-28T16:37:14.606Z</time></trkpt><trkpt lat="39.3594155" lon="17.110683"><ele>21.0</ele><time>2026-03-28T16:37:16.603Z</time></trkpt><trkpt lat="39.3594252" lon="17.1109037"><ele>21.0</ele><time>2026-03-28T16:37:41.613Z</time></trkpt><trkpt lat="39.3594996" lon="17.1110068"><ele>21.0</ele><time>2026-03-28T16:37:43.611Z</time></trkpt><trkpt lat="39.3596026" lon="17.111098"><ele>21.0</ele><time>2026-03-28T16:37:45.622Z</time></trkpt><trkpt lat="39.3596466" lon="17.1111605"><ele>21.0</ele><time>2026-03-28T16:37:46.612Z</time></trkpt><trkpt lat="39.3597032" lon="17.1112731"><ele>21.0</ele><time>2026-03-28T16:37:48.612Z</time></trkpt><trkpt lat="39.3597015" lon="17.1114102"><ele>21.0</ele><time>2026-03-28T16:37:50.618Z</time></trkpt><trkpt lat="39.3596675" lon="17.1115026"><ele>21.0</ele><time>2026-03-28T16:37:51.608Z</time></trkpt><trkpt lat="39.3596353" lon="17.1115905"><ele>21.0</ele><time>2026-03-28T16:37:52.613Z</time></trkpt><trkpt lat="39.3596125" lon="17.1116767"><ele>21.0</ele><time>2026-03-28T16:37:53.613Z</time></trkpt><trkpt lat="39.3595976" lon="17.1117867"><ele>21.0</ele><time>2026-03-28T16:37:55.626Z</time></trkpt><trkpt lat="39.359592" lon="17.111873"><ele>21.0</ele><time>2026-03-28T16:37:57.619Z</time></trkpt><trkpt lat="39.359648" lon="17.1119276"><ele>21.0</ele><time>2026-03-28T16:37:58.611Z</time></trkpt><trkpt lat="39.3597598" lon="17.1119803"><ele>20.25</ele><time>2026-03-28T16:37:59.623Z</time></trkpt><trkpt lat="39.3598964" lon="17.1120393"><ele>19.5</ele><time>2026-03-28T16:38:00.612Z</time></trkpt><trkpt lat="39.3600327" lon="17.1120897"><ele>18.75</ele><time>2026-03-28T16:38:01.618Z</time></trkpt><trkpt lat="39.3601756" lon="17.1121353"><ele>18.0</ele><time>2026-03-28T16:38:02.615Z</time></trkpt><trkpt lat="39.3603209" lon="17.112185"><ele>18.0</ele><time>2026-03-28T16:38:03.611Z</time></trkpt><trkpt lat="39.3604543" lon="17.1122397"><ele>18.0</ele><time>2026-03-28T16:38:04.613Z</time></trkpt><trkpt lat="39.3605828" lon="17.1122833"><ele>18.0</ele><time>2026-03-28T16:38:05.618Z</time></trkpt><trkpt lat="39.360701" lon="17.1123229"><ele>18.0</ele><time>2026-03-28T16:38:06.609Z</time></trkpt><trkpt lat="39.3608155" lon="17.1123614"><ele>18.5</ele><time>2026-03-28T16:38:07.608Z</time></trkpt><trkpt lat="39.3609205" lon="17.1123963"><ele>19.0</ele><time>2026-03-28T16:38:08.611Z</time></trkpt><trkpt lat="39.3610445" lon="17.1124354"><ele>19.5</ele><time>2026-03-28T16:38:09.623Z</time></trkpt><trkpt lat="39.3611978" lon="17.1124856"><ele>20.0</ele><time>2026-03-28T16:38:10.607Z</time></trkpt><trkpt lat="39.3613534" lon="17.1125371"><ele>19.75</ele><time>2026-03-28T16:38:11.605Z</time></trkpt><trkpt lat="39.3614968" lon="17.1125799"><ele>19.5</ele><time>2026-03-28T16:38:12.623Z</time></trkpt><trkpt lat="39.3616187" lon="17.1126203"><ele>19.25</ele><time>2026-03-28T16:38:13.618Z</time></trkpt><trkpt lat="39.3617343" lon="17.1126582"><ele>19.0</ele><time>2026-03-28T16:38:14.615Z</time></trkpt><trkpt lat="39.3618467" lon="17.1126934"><ele>19.0</ele><time>2026-03-28T16:38:15.612Z</time></trkpt><trkpt lat="39.3619516" lon="17.1127257"><ele>19.0</ele><time>2026-03-28T16:38:16.607Z</time></trkpt><trkpt lat="39.3620534" lon="17.1127599"><ele>19.0</ele><time>2026-03-28T16:38:17.61Z</time></trkpt><trkpt lat="39.3621474" lon="17.1127921"><ele>19.0</ele><time>2026-03-28T16:38:18.623Z</time></trkpt><trkpt lat="39.3622319" lon="17.1128215"><ele>19.0</ele><time>2026-03-28T16:38:19.625Z</time></trkpt><trkpt lat="39.3623164" lon="17.11285"><ele>19.333333333333332</ele><time>2026-03-28T16:38:20.618Z</time></trkpt><trkpt lat="39.3624034" lon="17.1128791"><ele>19.666666666666664</ele><time>2026-03-28T16:38:21.609Z</time></trkpt><trkpt lat="39.3624799" lon="17.1128851"><ele>20.0</ele><time>2026-03-28T16:38:22.613Z</time></trkpt><trkpt lat="39.3625701" lon="17.1129218"><ele>20.333333333333332</ele><time>2026-03-28T16:38:23.619Z</time></trkpt><trkpt lat="39.3626498" lon="17.1129532"><ele>20.666666666666668</ele><time>2026-03-28T16:38:24.609Z</time></trkpt><trkpt lat="39.3627285" lon="17.1129804"><ele>21.0</ele><time>2026-03-28T16:38:25.608Z</time></trkpt><trkpt lat="39.3627988" lon="17.113009"><ele>21.0</ele><time>2026-03-28T16:38:26.608Z</time></trkpt><trkpt lat="39.362863" lon="17.1130321"><ele>21.0</ele><time>2026-03-28T16:38:27.614Z</time></trkpt><trkpt lat="39.3629815" lon="17.1130709"><ele>21.0</ele><time>2026-03-28T16:38:29.612Z</time></trkpt><trkpt lat="39.3631059" lon="17.1130851"><ele>21.0</ele><time>2026-03-28T16:38:31.604Z</time></trkpt><trkpt lat="39.3631857" lon="17.1130931"><ele>21.0</ele><time>2026-03-28T16:38:32.611Z</time></trkpt><trkpt lat="39.3632774" lon="17.1131375"><ele>20.6</ele><time>2026-03-28T16:38:33.609Z</time></trkpt><trkpt lat="39.3633792" lon="17.1131854"><ele>20.200000000000003</ele><time>2026-03-28T16:38:34.607Z</time></trkpt><trkpt lat="39.363478" lon="17.1132324"><ele>19.799999999999997</ele><time>2026-03-28T16:38:35.615Z</time></trkpt><trkpt lat="39.3635617" lon="17.1132664"><ele>19.4</ele><time>2026-03-28T16:38:36.61Z</time></trkpt><trkpt lat="39.3636404" lon="17.113293"><ele>19.0</ele><time>2026-03-28T16:38:37.604Z</time></trkpt><trkpt lat="39.363713" lon="17.1133169"><ele>19.0</ele><time>2026-03-28T16:38:38.604Z</time></trkpt><trkpt lat="39.3637906" lon="17.113342"><ele>19.0</ele><time>2026-03-28T16:38:39.619Z</time></trkpt><trkpt lat="39.3638729" lon="17.1133695"><ele>19.0</ele><time>2026-03-28T16:38:40.602Z</time></trkpt><trkpt lat="39.3639565" lon="17.113393"><ele>19.0</ele><time>2026-03-28T16:38:41.61Z</time></trkpt><trkpt lat="39.3640472" lon="17.1134227"><ele>19.0</ele><time>2026-03-28T16:38:42.605Z</time></trkpt><trkpt lat="39.3641351" lon="17.1134505"><ele>19.0</ele><time>2026-03-28T16:38:43.62Z</time></trkpt><trkpt lat="39.3642301" lon="17.1134802"><ele>20.0</ele><time>2026-03-28T16:38:44.604Z</time></trkpt><trkpt lat="39.3643283" lon="17.1135102"><ele>21.0</ele><time>2026-03-28T16:38:45.626Z</time></trkpt><trkpt lat="39.3644356" lon="17.1135421"><ele>22.0</ele><time>2026-03-28T16:38:46.611Z</time></trkpt><trkpt lat="39.3645439" lon="17.1135773"><ele>23.0</ele><time>2026-03-28T16:38:47.614Z</time></trkpt><trkpt lat="39.3646652" lon="17.113638"><ele>24.0</ele><time>2026-03-28T16:38:48.616Z</time></trkpt><trkpt lat="39.3648073" lon="17.1137149"><ele>25.0</ele><time>2026-03-28T16:38:49.621Z</time></trkpt><trkpt lat="39.3649433" lon="17.1137864"><ele>26.0</ele><time>2026-03-28T16:38:50.606Z</time></trkpt><trkpt lat="39.3650697" lon="17.1138538"><ele>27.0</ele><time>2026-03-28T16:38:51.612Z</time></trkpt><trkpt lat="39.3651891" lon="17.1139193"><ele>27.0</ele><time>2026-03-28T16:38:52.606Z</time></trkpt><trkpt lat="39.3653077" lon="17.1139818"><ele>27.0</ele><time>2026-03-28T16:38:53.619Z</time></trkpt><trkpt lat="39.3654206" lon="17.1140456"><ele>27.0</ele><time>2026-03-28T16:38:54.613Z</time></trkpt><trkpt lat="39.3655301" lon="17.1141067"><ele>27.0</ele><time>2026-03-28T16:38:55.618Z</time></trkpt><trkpt lat="39.3656382" lon="17.1141625"><ele>26.200000000000003</ele><time>2026-03-28T16:38:56.607Z</time></trkpt><trkpt lat="39.3657435" lon="17.1142165"><ele>25.400000000000002</ele><time>2026-03-28T16:38:57.618Z</time></trkpt><trkpt lat="39.3658455" lon="17.1142681"><ele>24.6</ele><time>2026-03-28T16:38:58.614Z</time></trkpt><trkpt lat="39.3659445" lon="17.1143157"><ele>23.799999999999997</ele><time>2026-03-28T16:38:59.615Z</time></trkpt><trkpt lat="39.3660425" lon="17.1143601"><ele>23.0</ele><time>2026-03-28T16:39:00.607Z</time></trkpt><trkpt lat="39.3661434" lon="17.1144066"><ele>23.0</ele><time>2026-03-28T16:39:01.62Z</time></trkpt><trkpt lat="39.366248" lon="17.1144554"><ele>23.0</ele><time>2026-03-28T16:39:02.609Z</time></trkpt><trkpt lat="39.3663488" lon="17.1145027"><ele>23.0</ele><time>2026-03-28T16:39:03.618Z</time></trkpt><trkpt lat="39.3664516" lon="17.1145495"><ele>23.0</ele><time>2026-03-28T16:39:04.608Z</time></trkpt><trkpt lat="39.366549" lon="17.1145935"><ele>23.0</ele><time>2026-03-28T16:39:05.609Z</time></trkpt><trkpt lat="39.3666424" lon="17.1146337"><ele>22.833333333333336</ele><time>2026-03-28T16:39:06.607Z</time></trkpt><trkpt lat="39.3667209" lon="17.1146688"><ele>22.666666666666668</ele><time>2026-03-28T16:39:07.615Z</time></trkpt><trkpt lat="39.3667852" lon="17.1147033"><ele>22.5</ele><time>2026-03-28T16:39:08.608Z</time></trkpt><trkpt lat="39.3668779" lon="17.1147516"><ele>22.333333333333332</ele><time>2026-03-28T16:39:10.609Z</time></trkpt><trkpt lat="39.3669402" lon="17.1147724"><ele>22.166666666666664</ele><time>2026-03-28T16:39:12.606Z</time></trkpt><trkpt lat="39.3670291" lon="17.1148019"><ele>22.0</ele><time>2026-03-28T16:39:15.615Z</time></trkpt><trkpt lat="39.3671029" lon="17.1148325"><ele>22.0</ele><time>2026-03-28T16:39:18.61Z</time></trkpt><trkpt lat="39.3671927" lon="17.1149056"><ele>22.0</ele><time>2026-03-28T16:39:29.627Z</time></trkpt><trkpt lat="39.3673361" lon="17.1149578"><ele>22.0</ele><time>2026-03-28T16:39:57.614Z</time></trkpt><trkpt lat="39.3674077" lon="17.1150076"><ele>22.0</ele><time>2026-03-28T16:40:00.608Z</time></trkpt><trkpt lat="39.3674556" lon="17.115074"><ele>22.0</ele><time>2026-03-28T16:40:02.611Z</time></trkpt><trkpt lat="39.3674321" lon="17.1151747"><ele>22.0</ele><time>2026-03-28T16:40:05.616Z</time></trkpt><trkpt lat="39.3673637" lon="17.1152373"><ele>22.0</ele><time>2026-03-28T16:40:06.613Z</time></trkpt><trkpt lat="39.3673035" lon="17.1152942"><ele>22.0</ele><time>2026-03-28T16:40:07.624Z</time></trkpt><trkpt lat="39.3672537" lon="17.1153548"><ele>22.0</ele><time>2026-03-28T16:40:08.599Z</time></trkpt><trkpt lat="39.3672089" lon="17.1154153"><ele>22.0</ele><time>2026-03-28T16:40:09.614Z</time></trkpt><trkpt lat="39.3671325" lon="17.1155134"><ele>22.0</ele><time>2026-03-28T16:40:11.609Z</time></trkpt><trkpt lat="39.3670577" lon="17.1156101"><ele>21.666666666666664</ele><time>2026-03-28T16:40:13.619Z</time></trkpt><trkpt lat="39.3669714" lon="17.115716"><ele>21.333333333333332</ele><time>2026-03-28T16:40:15.609Z</time></trkpt><trkpt lat="39.3669248" lon="17.1157716"><ele>21.0</ele><time>2026-03-28T16:40:16.614Z</time></trkpt><trkpt lat="39.3668482" lon="17.1158855"><ele>20.666666666666668</ele><time>2026-03-28T16:40:18.607Z</time></trkpt><trkpt lat="39.366809" lon="17.11595"><ele>20.333333333333336</ele><time>2026-03-28T16:40:19.619Z</time></trkpt><trkpt lat="39.366773" lon="17.1160196"><ele>20.0</ele><time>2026-03-28T16:40:20.62Z</time></trkpt><trkpt lat="39.3667395" lon="17.1160955"><ele>19.333333333333336</ele><time>2026-03-28T16:40:21.62Z</time></trkpt><trkpt lat="39.3667057" lon="17.1161776"><ele>18.666666666666668</ele><time>2026-03-28T16:40:22.613Z</time></trkpt><trkpt lat="39.3666741" lon="17.1162675"><ele>18.0</ele><time>2026-03-28T16:40:23.613Z</time></trkpt><trkpt lat="39.3666542" lon="17.1163638"><ele>17.333333333333332</ele><time>2026-03-28T16:40:24.611Z</time></trkpt><trkpt lat="39.3666493" lon="17.1164627"><ele>16.666666666666664</ele><time>2026-03-28T16:40:25.611Z</time></trkpt><trkpt lat="39.3666596" lon="17.116554"><ele>16.0</ele><time>2026-03-28T16:40:26.613Z</time></trkpt><trkpt lat="39.3666978" lon="17.1167"><ele>15.600000000000001</ele><time>2026-03-28T16:40:28.607Z</time></trkpt><trkpt lat="39.3667338" lon="17.1168161"><ele>15.200000000000001</ele><time>2026-03-28T16:40:30.606Z</time></trkpt><trkpt lat="39.3667823" lon="17.1169584"><ele>14.799999999999999</ele><time>2026-03-28T16:40:32.612Z</time></trkpt><trkpt lat="39.3668127" lon="17.1170472"><ele>14.399999999999999</ele><time>2026-03-28T16:40:33.614Z</time></trkpt><trkpt lat="39.3668416" lon="17.1171374"><ele>14.0</ele><time>2026-03-28T16:40:34.612Z</time></trkpt><trkpt lat="39.3668851" lon="17.117284"><ele>14.0</ele><time>2026-03-28T16:40:36.615Z</time></trkpt><trkpt lat="39.3669082" lon="17.1173809"><ele>13.999999999999998</ele><time>2026-03-28T16:40:37.612Z</time></trkpt><trkpt lat="39.3669356" lon="17.1175084"><ele>13.999999999999998</ele><time>2026-03-28T16:40:38.61Z</time></trkpt><trkpt lat="39.3669536" lon="17.1176304"><ele>14.0</ele><time>2026-03-28T16:40:39.625Z</time></trkpt><trkpt lat="39.366973" lon="17.1177522"><ele>14.0</ele><time>2026-03-28T16:40:40.61Z</time></trkpt><trkpt lat="39.3669898" lon="17.11785"><ele>13.857142857142858</ele><time>2026-03-28T16:40:41.604Z</time></trkpt><trkpt lat="39.3670069" lon="17.1179438"><ele>13.714285714285715</ele><time>2026-03-28T16:40:42.609Z</time></trkpt><trkpt lat="39.3670205" lon="17.1180334"><ele>13.571428571428571</ele><time>2026-03-28T16:40:43.617Z</time></trkpt><trkpt lat="39.3670317" lon="17.1181157"><ele>13.428571428571429</ele><time>2026-03-28T16:40:44.611Z</time></trkpt><trkpt lat="39.3670435" lon="17.1182002"><ele>13.285714285714286</ele><time>2026-03-28T16:40:45.609Z</time></trkpt><trkpt lat="39.3670512" lon="17.1183001"><ele>13.142857142857142</ele><time>2026-03-28T16:40:46.61Z</time></trkpt><trkpt lat="39.3670564" lon="17.1183919"><ele>13.0</ele><time>2026-03-28T16:40:47.62Z</time></trkpt><trkpt lat="39.3670701" lon="17.1184783"><ele>12.333333333333332</ele><time>2026-03-28T16:40:48.609Z</time></trkpt><trkpt lat="39.3670896" lon="17.1186289"><ele>11.666666666666666</ele><time>2026-03-28T16:40:50.615Z</time></trkpt><trkpt lat="39.3671004" lon="17.1187229"><ele>11.0</ele><time>2026-03-28T16:40:51.617Z</time></trkpt><trkpt lat="39.3671118" lon="17.1188117"><ele>10.333333333333332</ele><time>2026-03-28T16:40:52.619Z</time></trkpt><trkpt lat="39.3671271" lon="17.118894"><ele>9.666666666666666</ele><time>2026-03-28T16:40:53.615Z</time></trkpt><trkpt lat="39.3671453" lon="17.1189948"><ele>9.0</ele><time>2026-03-28T16:40:54.611Z</time></trkpt><trkpt lat="39.3671614" lon="17.1190891"><ele>8.8</ele><time>2026-03-28T16:40:55.61Z</time></trkpt><trkpt lat="39.3671826" lon="17.119221"><ele>8.600000000000001</ele><time>2026-03-28T16:40:57.633Z</time></trkpt><trkpt lat="39.3671997" lon="17.1193342"><ele>8.4</ele><time>2026-03-28T16:40:59.627Z</time></trkpt><trkpt lat="39.3672185" lon="17.1194718"><ele>8.200000000000001</ele><time>2026-03-28T16:41:01.621Z</time></trkpt><trkpt lat="39.3672432" lon="17.1196175"><ele>8.0</ele><time>2026-03-28T16:41:03.615Z</time></trkpt><trkpt lat="39.3672643" lon="17.1197696"><ele>8.4</ele><time>2026-03-28T16:41:05.617Z</time></trkpt><trkpt lat="39.3672838" lon="17.1199138"><ele>8.8</ele><time>2026-03-28T16:41:07.614Z</time></trkpt><trkpt lat="39.3673064" lon="17.1200856"><ele>9.2</ele><time>2026-03-28T16:41:09.604Z</time></trkpt><trkpt lat="39.3673186" lon="17.1201771"><ele>9.6</ele><time>2026-03-28T16:41:10.606Z</time></trkpt><trkpt lat="39.3673329" lon="17.1202752"><ele>10.0</ele><time>2026-03-28T16:41:11.613Z</time></trkpt><trkpt lat="39.3673538" lon="17.1204108"><ele>10.0</ele><time>2026-03-28T16:41:12.608Z</time></trkpt><trkpt lat="39.3673741" lon="17.1205499"><ele>10.0</ele><time>2026-03-28T16:41:13.609Z</time></trkpt><trkpt lat="39.3673895" lon="17.1206632"><ele>10.0</ele><time>2026-03-28T16:41:14.608Z</time></trkpt><trkpt lat="39.3674022" lon="17.1207537"><ele>10.0</ele><time>2026-03-28T16:41:15.614Z</time></trkpt><trkpt lat="39.3674235" lon="17.1208998"><ele>10.0</ele><time>2026-03-28T16:41:17.612Z</time></trkpt><trkpt lat="39.3674443" lon="17.1210368"><ele>9.8</ele><time>2026-03-28T16:41:19.614Z</time></trkpt><trkpt lat="39.3674649" lon="17.1211799"><ele>9.6</ele><time>2026-03-28T16:41:21.615Z</time></trkpt><trkpt lat="39.3674843" lon="17.1213288"><ele>9.4</ele><time>2026-03-28T16:41:23.624Z</time></trkpt><trkpt lat="39.3675027" lon="17.1214725"><ele>9.2</ele><time>2026-03-28T16:41:25.616Z</time></trkpt><trkpt lat="39.3675209" lon="17.1215847"><ele>9.0</ele><time>2026-03-28T16:41:27.616Z</time></trkpt><trkpt lat="39.3675349" lon="17.1216747"><ele>9.000000000000002</ele><time>2026-03-28T16:41:29.611Z</time></trkpt><trkpt lat="39.3675528" lon="17.1217644"><ele>9.0</ele><time>2026-03-28T16:41:32.605Z</time></trkpt><trkpt lat="39.3675699" lon="17.1218544"><ele>9.0</ele><time>2026-03-28T16:41:34.613Z</time></trkpt><trkpt lat="39.3675834" lon="17.1219388"><ele>9.0</ele><time>2026-03-28T16:41:36.612Z</time></trkpt><trkpt lat="39.3675961" lon="17.1220205"><ele>9.0</ele><time>2026-03-28T16:41:38.614Z</time></trkpt><trkpt lat="39.3676102" lon="17.1221142"><ele>9.000000000000002</ele><time>2026-03-28T16:41:40.605Z</time></trkpt><trkpt lat="39.3676228" lon="17.1222201"><ele>9.0</ele><time>2026-03-28T16:41:43.612Z</time></trkpt><trkpt lat="39.3676412" lon="17.122347"><ele>9.666666666666666</ele><time>2026-03-28T16:41:45.626Z</time></trkpt><trkpt lat="39.3676533" lon="17.1224339"><ele>10.333333333333332</ele><time>2026-03-28T16:41:47.62Z</time></trkpt><trkpt lat="39.3676698" lon="17.1225426"><ele>11.0</ele><time>2026-03-28T16:41:51.619Z</time></trkpt><trkpt lat="39.3676862" lon="17.1226829"><ele>11.666666666666666</ele><time>2026-03-28T16:41:54.625Z</time></trkpt><trkpt lat="39.3677002" lon="17.1227756"><ele>12.333333333333332</ele><time>2026-03-28T16:41:56.612Z</time></trkpt><trkpt lat="39.3677121" lon="17.122857"><ele>13.0</ele><time>2026-03-28T16:41:58.615Z</time></trkpt><trkpt lat="39.3677229" lon="17.1229471"><ele>12.999999999999998</ele><time>2026-03-28T16:42:00.608Z</time></trkpt><trkpt lat="39.3677339" lon="17.1230476"><ele>13.0</ele><time>2026-03-28T16:42:03.617Z</time></trkpt><trkpt lat="39.3677493" lon="17.1231653"><ele>13.0</ele><time>2026-03-28T16:42:06.608Z</time></trkpt><trkpt lat="39.3677609" lon="17.1232532"><ele>13.0</ele><time>2026-03-28T16:42:08.613Z</time></trkpt><trkpt lat="39.3677751" lon="17.1233476"><ele>12.999999999999998</ele><time>2026-03-28T16:42:10.614Z</time></trkpt><trkpt lat="39.3677862" lon="17.1234358"><ele>13.0</ele><time>2026-03-28T16:42:12.609Z</time></trkpt><trkpt lat="39.367796" lon="17.1235409"><ele>12.499999999999998</ele><time>2026-03-28T16:42:16.611Z</time></trkpt><trkpt lat="39.3678068" lon="17.1236514"><ele>12.0</ele><time>2026-03-28T16:42:19.615Z</time></trkpt><trkpt lat="39.367817" lon="17.1237547"><ele>11.5</ele><time>2026-03-28T16:42:21.62Z</time></trkpt><trkpt lat="39.3678228" lon="17.123851"><ele>11.0</ele><time>2026-03-28T16:42:22.61Z</time></trkpt><trkpt lat="39.3678328" lon="17.1239444"><ele>10.5</ele><time>2026-03-28T16:42:23.617Z</time></trkpt><trkpt lat="39.3678486" lon="17.1240401"><ele>10.0</ele><time>2026-03-28T16:42:24.605Z</time></trkpt><trkpt lat="39.3678666" lon="17.1241457"><ele>9.666666666666668</ele><time>2026-03-28T16:42:25.62Z</time></trkpt><trkpt lat="39.3678997" lon="17.1242455"><ele>9.333333333333334</ele><time>2026-03-28T16:42:26.614Z</time></trkpt><trkpt lat="39.367911" lon="17.1243401"><ele>9.0</ele><time>2026-03-28T16:42:28.618Z</time></trkpt><trkpt lat="39.3679303" lon="17.1244557"><ele>8.666666666666666</ele><time>2026-03-28T16:42:31.619Z</time></trkpt><trkpt lat="39.3679453" lon="17.1245567"><ele>8.333333333333332</ele><time>2026-03-28T16:42:34.61Z</time></trkpt><trkpt lat="39.3679544" lon="17.1246571"><ele>8.0</ele><time>2026-03-28T16:42:38.605Z</time></trkpt><trkpt lat="39.3679731" lon="17.1247371"><ele>8.0</ele><time>2026-03-28T16:42:58.604Z</time></trkpt><trkpt lat="39.367986" lon="17.1248296"><ele>8.0</ele><time>2026-03-28T16:42:59.611Z</time></trkpt><trkpt lat="39.3680046" lon="17.1249653"><ele>8.0</ele><time>2026-03-28T16:43:01.612Z</time></trkpt><trkpt lat="39.3680308" lon="17.1251433"><ele>8.0</ele><time>2026-03-28T16:43:03.61Z</time></trkpt><trkpt lat="39.3680446" lon="17.1252451"><ele>8.0</ele><time>2026-03-28T16:43:04.612Z</time></trkpt><trkpt lat="39.3680583" lon="17.1253438"><ele>8.4</ele><time>2026-03-28T16:43:05.61Z</time></trkpt><trkpt lat="39.3680726" lon="17.125447"><ele>8.8</ele><time>2026-03-28T16:43:06.612Z</time></trkpt><trkpt lat="39.3680882" lon="17.1255664"><ele>9.2</ele><time>2026-03-28T16:43:07.619Z</time></trkpt><trkpt lat="39.3681081" lon="17.1257062"><ele>9.6</ele><time>2026-03-28T16:43:08.612Z</time></trkpt><trkpt lat="39.3681296" lon="17.1258551"><ele>10.0</ele><time>2026-03-28T16:43:09.617Z</time></trkpt><trkpt lat="39.3681498" lon="17.125998"><ele>10.0</ele><time>2026-03-28T16:43:10.611Z</time></trkpt><trkpt lat="39.3681648" lon="17.1261022"><ele>10.0</ele><time>2026-03-28T16:43:11.619Z</time></trkpt><trkpt lat="39.3681764" lon="17.1261977"><ele>10.0</ele><time>2026-03-28T16:43:13.609Z</time></trkpt><trkpt lat="39.3681876" lon="17.1262943"><ele>10.0</ele><time>2026-03-28T16:43:16.61Z</time></trkpt><trkpt lat="39.3681996" lon="17.1263858"><ele>10.0</ele><time>2026-03-28T16:43:19.615Z</time></trkpt><trkpt lat="39.3682185" lon="17.1265022"><ele>10.0</ele><time>2026-03-28T16:43:22.612Z</time></trkpt><trkpt lat="39.368236" lon="17.1266042"><ele>9.833333333333334</ele><time>2026-03-28T16:43:25.619Z</time></trkpt><trkpt lat="39.3682538" lon="17.1267036"><ele>9.666666666666668</ele><time>2026-03-28T16:43:28.607Z</time></trkpt><trkpt lat="39.3682717" lon="17.1268095"><ele>9.5</ele><time>2026-03-28T16:43:31.619Z</time></trkpt><trkpt lat="39.3682904" lon="17.1269209"><ele>9.333333333333334</ele><time>2026-03-28T16:43:34.623Z</time></trkpt><trkpt lat="39.3683026" lon="17.1270012"><ele>9.166666666666666</ele><time>2026-03-28T16:43:36.605Z</time></trkpt><trkpt lat="39.368317" lon="17.1270918"><ele>9.0</ele><time>2026-03-28T16:43:38.614Z</time></trkpt><trkpt lat="39.3683305" lon="17.1271927"><ele>9.0</ele><time>2026-03-28T16:43:40.611Z</time></trkpt><trkpt lat="39.368348" lon="17.1273293"><ele>9.0</ele><time>2026-03-28T16:43:42.607Z</time></trkpt><trkpt lat="39.3683698" lon="17.1274698"><ele>9.0</ele><time>2026-03-28T16:43:44.606Z</time></trkpt><trkpt lat="39.3683834" lon="17.1275751"><ele>9.0</ele><time>2026-03-28T16:43:46.612Z</time></trkpt><trkpt lat="39.3683997" lon="17.1276915"><ele>9.0</ele><time>2026-03-28T16:43:49.611Z</time></trkpt><trkpt lat="39.368412" lon="17.1277768"><ele>9.0</ele><time>2026-03-28T16:43:51.604Z</time></trkpt><trkpt lat="39.3684304" lon="17.1279088"><ele>9.0</ele><time>2026-03-28T16:43:54.61Z</time></trkpt><trkpt lat="39.3684476" lon="17.1280275"><ele>9.0</ele><time>2026-03-28T16:43:56.611Z</time></trkpt><trkpt lat="39.368469" lon="17.1281726"><ele>9.0</ele><time>2026-03-28T16:43:58.6Z</time></trkpt><trkpt lat="39.3684864" lon="17.1283003"><ele>9.0</ele><time>2026-03-28T16:44:00.61Z</time></trkpt><trkpt lat="39.3685062" lon="17.1284452"><ele>8.833333333333334</ele><time>2026-03-28T16:44:02.608Z</time></trkpt><trkpt lat="39.3685235" lon="17.1285667"><ele>8.666666666666666</ele><time>2026-03-28T16:44:04.603Z</time></trkpt><trkpt lat="39.3685386" lon="17.1286714"><ele>8.5</ele><time>2026-03-28T16:44:06.615Z</time></trkpt><trkpt lat="39.3685504" lon="17.1287533"><ele>8.333333333333332</ele><time>2026-03-28T16:44:08.615Z</time></trkpt><trkpt lat="39.368562" lon="17.1288514"><ele>8.166666666666666</ele><time>2026-03-28T16:44:10.62Z</time></trkpt><trkpt lat="39.3685739" lon="17.1289471"><ele>8.0</ele><time>2026-03-28T16:44:12.613Z</time></trkpt><trkpt lat="39.3685911" lon="17.129079"><ele>8.0</ele><time>2026-03-28T16:44:14.617Z</time></trkpt><trkpt lat="39.3686073" lon="17.1291908"><ele>8.0</ele><time>2026-03-28T16:44:16.607Z</time></trkpt><trkpt lat="39.3686252" lon="17.1293214"><ele>8.0</ele><time>2026-03-28T16:44:19.622Z</time></trkpt><trkpt lat="39.3686393" lon="17.1294391"><ele>8.0</ele><time>2026-03-28T16:44:20.625Z</time></trkpt><trkpt lat="39.3686591" lon="17.1295871"><ele>8.0</ele><time>2026-03-28T16:44:21.621Z</time></trkpt><trkpt lat="39.3686803" lon="17.1297417"><ele>7.999999999999999</ele><time>2026-03-28T16:44:22.61Z</time></trkpt><trkpt lat="39.3687012" lon="17.1298899"><ele>8.0</ele><time>2026-03-28T16:44:23.615Z</time></trkpt><trkpt lat="39.3687205" lon="17.1300191"><ele>8.0</ele><time>2026-03-28T16:44:24.612Z</time></trkpt><trkpt lat="39.3687357" lon="17.1301247"><ele>8.0</ele><time>2026-03-28T16:44:25.608Z</time></trkpt><trkpt lat="39.3687486" lon="17.1302194"><ele>7.999999999999999</ele><time>2026-03-28T16:44:26.614Z</time></trkpt><trkpt lat="39.3687597" lon="17.1303019"><ele>8.0</ele><time>2026-03-28T16:44:27.615Z</time></trkpt><trkpt lat="39.3687779" lon="17.1304252"><ele>7.666666666666666</ele><time>2026-03-28T16:44:29.619Z</time></trkpt><trkpt lat="39.3687941" lon="17.1305402"><ele>7.333333333333333</ele><time>2026-03-28T16:44:32.615Z</time></trkpt><trkpt lat="39.3688019" lon="17.1306402"><ele>7.0</ele><time>2026-03-28T16:44:35.612Z</time></trkpt><trkpt lat="39.3688094" lon="17.1307451"><ele>6.666666666666666</ele><time>2026-03-28T16:44:44.619Z</time></trkpt><trkpt lat="39.3688272" lon="17.1308375"><ele>6.333333333333333</ele><time>2026-03-28T16:44:45.622Z</time></trkpt><trkpt lat="39.3688434" lon="17.1309393"><ele>6.0</ele><time>2026-03-28T16:44:46.618Z</time></trkpt><trkpt lat="39.3688579" lon="17.1310451"><ele>6.0</ele><time>2026-03-28T16:44:47.604Z</time></trkpt><trkpt lat="39.3688769" lon="17.1311726"><ele>6.0</ele><time>2026-03-28T16:44:48.61Z</time></trkpt><trkpt lat="39.368896" lon="17.1312931"><ele>6.0</ele><time>2026-03-28T16:44:49.614Z</time></trkpt><trkpt lat="39.3689101" lon="17.131392"><ele>6.0</ele><time>2026-03-28T16:44:50.611Z</time></trkpt><trkpt lat="39.3689229" lon="17.1314765"><ele>6.0</ele><time>2026-03-28T16:44:51.609Z</time></trkpt><trkpt lat="39.3689475" lon="17.1316253"><ele>6.0</ele><time>2026-03-28T16:44:53.618Z</time></trkpt><trkpt lat="39.3689667" lon="17.1317423"><ele>6.0</ele><time>2026-03-28T16:44:55.608Z</time></trkpt><trkpt lat="39.3689829" lon="17.1318372"><ele>6.0</ele><time>2026-03-28T16:44:57.606Z</time></trkpt><trkpt lat="39.3689951" lon="17.1319256"><ele>6.0</ele><time>2026-03-28T16:44:59.608Z</time></trkpt><trkpt lat="39.3690097" lon="17.1320379"><ele>6.0</ele><time>2026-03-28T16:45:01.615Z</time></trkpt><trkpt lat="39.3690202" lon="17.1321447"><ele>6.0</ele><time>2026-03-28T16:45:03.613Z</time></trkpt><trkpt lat="39.3690278" lon="17.1322405"><ele>5.999999999999999</ele><time>2026-03-28T16:45:06.611Z</time></trkpt><trkpt lat="39.3690198" lon="17.1323236"><ele>6.0</ele><time>2026-03-28T16:45:20.622Z</time></trkpt><trkpt lat="39.3690238" lon="17.132414"><ele>6.0</ele><time>2026-03-28T16:45:25.622Z</time></trkpt><trkpt lat="39.3690261" lon="17.1324956"><ele>6.0</ele><time>2026-03-28T16:45:28.617Z</time></trkpt><trkpt lat="39.3690549" lon="17.1325916"><ele>6.0</ele><time>2026-03-28T16:45:31.618Z</time></trkpt><trkpt lat="39.3691088" lon="17.1326436"><ele>5.999999999999999</ele><time>2026-03-28T16:45:33.618Z</time></trkpt><trkpt lat="39.3691905" lon="17.1326772"><ele>6.0</ele><time>2026-03-28T16:45:35.612Z</time></trkpt><trkpt lat="39.3692696" lon="17.1327037"><ele>6.285714285714285</ele><time>2026-03-28T16:45:37.622Z</time></trkpt><trkpt lat="39.369327" lon="17.1327474"><ele>6.571428571428571</ele><time>2026-03-28T16:45:39.614Z</time></trkpt><trkpt lat="39.3693428" lon="17.1328328"><ele>6.857142857142857</ele><time>2026-03-28T16:45:41.615Z</time></trkpt><trkpt lat="39.3693268" lon="17.1329188"><ele>7.142857142857142</ele><time>2026-03-28T16:45:44.614Z</time></trkpt><trkpt lat="39.3693237" lon="17.1330173"><ele>7.428571428571428</ele><time>2026-03-28T16:45:48.614Z</time></trkpt><trkpt lat="39.3693144" lon="17.1331032"><ele>7.7142857142857135</ele><time>2026-03-28T16:45:51.636Z</time></trkpt><trkpt lat="39.3692584" lon="17.1331955"><ele>8.0</ele><time>2026-03-28T16:45:53.63Z</time></trkpt><trkpt lat="39.3691485" lon="17.133209"><ele>8.0</ele><time>2026-03-28T16:45:55.619Z</time></trkpt><trkpt lat="39.3690685" lon="17.1331877"><ele>8.0</ele><time>2026-03-28T16:45:56.623Z</time></trkpt><trkpt lat="39.3689885" lon="17.1331673"><ele>8.0</ele><time>2026-03-28T16:45:57.616Z</time></trkpt><trkpt lat="39.3688849" lon="17.1331516"><ele>8.0</ele><time>2026-03-28T16:45:58.62Z</time></trkpt><trkpt lat="39.3687605" lon="17.1331273"><ele>8.0</ele><time>2026-03-28T16:45:59.612Z</time></trkpt><trkpt lat="39.3686724" lon="17.1331147"><ele>7.999999999999999</ele><time>2026-03-28T16:46:00.619Z</time></trkpt><trkpt lat="39.3685977" lon="17.1331048"><ele>8.0</ele><time>2026-03-28T16:46:01.616Z</time></trkpt><trkpt lat="39.3685236" lon="17.1330949"><ele>8.0</ele><time>2026-03-28T16:46:02.617Z</time></trkpt><trkpt lat="39.3684496" lon="17.1330859"><ele>8.0</ele><time>2026-03-28T16:46:03.606Z</time></trkpt><trkpt lat="39.3683722" lon="17.1330762"><ele>7.999999999999999</ele><time>2026-03-28T16:46:04.614Z</time></trkpt><trkpt lat="39.3683057" lon="17.1330716"><ele>8.0</ele><time>2026-03-28T16:46:05.611Z</time></trkpt><trkpt lat="39.3682034" lon="17.1330605"><ele>8.0</ele><time>2026-03-28T16:46:07.623Z</time></trkpt><trkpt lat="39.368109" lon="17.133056"><ele>8.0</ele><time>2026-03-28T16:46:09.608Z</time></trkpt><trkpt lat="39.3680326" lon="17.1330495"><ele>8.0</ele><time>2026-03-28T16:46:11.628Z</time></trkpt><trkpt lat="39.3679418" lon="17.1330439"><ele>8.0</ele><time>2026-03-28T16:46:13.613Z</time></trkpt><trkpt lat="39.3678286" lon="17.1330407"><ele>8.0</ele><time>2026-03-28T16:46:15.62Z</time></trkpt><trkpt lat="39.3677468" lon="17.1330397"><ele>8.0</ele><time>2026-03-28T16:46:16.611Z</time></trkpt><trkpt lat="39.3676722" lon="17.1330367"><ele>7.999999999999999</ele><time>2026-03-28T16:46:17.607Z</time></trkpt><trkpt lat="39.367602" lon="17.1330332"><ele>8.0</ele><time>2026-03-28T16:46:18.612Z</time></trkpt><trkpt lat="39.3675307" lon="17.1330313"><ele>8.0</ele><time>2026-03-28T16:46:19.616Z</time></trkpt><trkpt lat="39.3674621" lon="17.1330268"><ele>7.999999999999999</ele><time>2026-03-28T16:46:20.608Z</time></trkpt><trkpt lat="39.3673902" lon="17.1330251"><ele>8.0</ele><time>2026-03-28T16:46:21.609Z</time></trkpt><trkpt lat="39.3673193" lon="17.1330242"><ele>8.0</ele><time>2026-03-28T16:46:22.616Z</time></trkpt><trkpt lat="39.3672447" lon="17.1330209"><ele>7.999999999999999</ele><time>2026-03-28T16:46:23.618Z</time></trkpt><trkpt lat="39.3671676" lon="17.1330151"><ele>8.0</ele><time>2026-03-28T16:46:24.622Z</time></trkpt><trkpt lat="39.367097" lon="17.1330109"><ele>8.0</ele><time>2026-03-28T16:46:25.611Z</time></trkpt><trkpt lat="39.3670305" lon="17.133008"><ele>8.0</ele><time>2026-03-28T16:46:26.614Z</time></trkpt><trkpt lat="39.3669626" lon="17.1330021"><ele>7.999999999999999</ele><time>2026-03-28T16:46:27.616Z</time></trkpt><trkpt lat="39.3668602" lon="17.1329908"><ele>8.0</ele><time>2026-03-28T16:46:29.608Z</time></trkpt><trkpt lat="39.366783" lon="17.1329857"><ele>7.999999999999999</ele><time>2026-03-28T16:46:31.617Z</time></trkpt><trkpt lat="39.3667179" lon="17.1329819"><ele>8.0</ele><time>2026-03-28T16:46:33.624Z</time></trkpt><trkpt lat="39.3666466" lon="17.1329821"><ele>8.0</ele><time>2026-03-28T16:46:35.617Z</time></trkpt><trkpt lat="39.3665533" lon="17.1329854"><ele>8.0</ele><time>2026-03-28T16:46:37.624Z</time></trkpt><trkpt lat="39.3664393" lon="17.1329909"><ele>7.999999999999999</ele><time>2026-03-28T16:46:39.611Z</time></trkpt><trkpt lat="39.3663731" lon="17.1329964"><ele>8.0</ele><time>2026-03-28T16:46:40.615Z</time></trkpt><trkpt lat="39.3663063" lon="17.1329964"><ele>7.25</ele><time>2026-03-28T16:46:41.611Z</time></trkpt><trkpt lat="39.3661865" lon="17.1329923"><ele>6.5</ele><time>2026-03-28T16:46:43.626Z</time></trkpt><trkpt lat="39.3660704" lon="17.1329815"><ele>5.75</ele><time>2026-03-28T16:46:45.633Z</time></trkpt><trkpt lat="39.3659612" lon="17.1329651"><ele>5.0</ele><time>2026-03-28T16:46:47.617Z</time></trkpt><trkpt lat="39.3658518" lon="17.1329573"><ele>5.0</ele><time>2026-03-28T16:46:49.62Z</time></trkpt><trkpt lat="39.365777" lon="17.1329507"><ele>5.0</ele><time>2026-03-28T16:46:50.608Z</time></trkpt><trkpt lat="39.3657013" lon="17.1329443"><ele>5.0</ele><time>2026-03-28T16:46:51.618Z</time></trkpt><trkpt lat="39.3656214" lon="17.1329383"><ele>5.0</ele><time>2026-03-28T16:46:52.615Z</time></trkpt><trkpt lat="39.3655352" lon="17.1329297"><ele>5.0</ele><time>2026-03-28T16:46:53.63Z</time></trkpt><trkpt lat="39.3654502" lon="17.1329218"><ele>5.0</ele><time>2026-03-28T16:46:54.613Z</time></trkpt><trkpt lat="39.3653684" lon="17.1329136"><ele>5.0</ele><time>2026-03-28T16:46:55.618Z</time></trkpt><trkpt lat="39.3652772" lon="17.1329125"><ele>5.0</ele><time>2026-03-28T16:46:56.615Z</time></trkpt><trkpt lat="39.3651855" lon="17.1329114"><ele>5.0</ele><time>2026-03-28T16:46:57.627Z</time></trkpt><trkpt lat="39.3650856" lon="17.1329052"><ele>5.0</ele><time>2026-03-28T16:46:58.615Z</time></trkpt><trkpt lat="39.3649923" lon="17.1329001"><ele>5.0</ele><time>2026-03-28T16:46:59.611Z</time></trkpt><trkpt lat="39.3649006" lon="17.1328932"><ele>5.0</ele><time>2026-03-28T16:47:00.624Z</time></trkpt><trkpt lat="39.3648103" lon="17.1328821"><ele>5.0</ele><time>2026-03-28T16:47:01.635Z</time></trkpt><trkpt lat="39.3647204" lon="17.1328686"><ele>5.0</ele><time>2026-03-28T16:47:02.617Z</time></trkpt><trkpt lat="39.3646347" lon="17.132855"><ele>5.0</ele><time>2026-03-28T16:47:03.614Z</time></trkpt><trkpt lat="39.3645541" lon="17.1328417"><ele>5.0</ele><time>2026-03-28T16:47:04.61Z</time></trkpt><trkpt lat="39.3644699" lon="17.1328284"><ele>5.0</ele><time>2026-03-28T16:47:05.629Z</time></trkpt><trkpt lat="39.3643863" lon="17.1328167"><ele>4.833333333333334</ele><time>2026-03-28T16:47:06.612Z</time></trkpt><trkpt lat="39.3643098" lon="17.1328092"><ele>4.666666666666667</ele><time>2026-03-28T16:47:07.625Z</time></trkpt><trkpt lat="39.364236" lon="17.1328013"><ele>4.5</ele><time>2026-03-28T16:47:08.62Z</time></trkpt><trkpt lat="39.3641652" lon="17.1327934"><ele>4.333333333333333</ele><time>2026-03-28T16:47:09.617Z</time></trkpt><trkpt lat="39.364055" lon="17.1327777"><ele>4.166666666666666</ele><time>2026-03-28T16:47:11.621Z</time></trkpt><trkpt lat="39.3639702" lon="17.1327532"><ele>4.0</ele><time>2026-03-28T16:47:13.61Z</time></trkpt><trkpt lat="39.3638935" lon="17.1326767"><ele>3.9999999999999996</ele><time>2026-03-28T16:47:15.622Z</time></trkpt><trkpt lat="39.363854" lon="17.1325729"><ele>4.0</ele><time>2026-03-28T16:47:17.613Z</time></trkpt><trkpt lat="39.3638299" lon="17.1324827"><ele>4.0</ele><time>2026-03-28T16:47:19.623Z</time></trkpt><trkpt lat="39.3638078" lon="17.1323858"><ele>4.0</ele><time>2026-03-28T16:47:21.625Z</time></trkpt><trkpt lat="39.3637692" lon="17.132271"><ele>3.9999999999999996</ele><time>2026-03-28T16:47:23.63Z</time></trkpt><trkpt lat="39.3637246" lon="17.1321743"><ele>4.0</ele><time>2026-03-28T16:47:25.627Z</time></trkpt><trkpt lat="39.3637001" lon="17.1320953"><ele>4.4</ele><time>2026-03-28T16:47:27.624Z</time></trkpt><trkpt lat="39.3636719" lon="17.1319911"><ele>4.800000000000001</ele><time>2026-03-28T16:47:29.626Z</time></trkpt><trkpt lat="39.3636031" lon="17.1318899"><ele>5.199999999999999</ele><time>2026-03-28T16:47:31.628Z</time></trkpt><trkpt lat="39.3634827" lon="17.1318585"><ele>5.6</ele><time>2026-03-28T16:47:33.627Z</time></trkpt><trkpt lat="39.3633772" lon="17.1318741"><ele>6.0</ele><time>2026-03-28T16:47:34.614Z</time></trkpt><trkpt lat="39.3632546" lon="17.1319013"><ele>6.0</ele><time>2026-03-28T16:47:35.617Z</time></trkpt><trkpt lat="39.3631337" lon="17.131917"><ele>6.0</ele><time>2026-03-28T16:47:36.615Z</time></trkpt><trkpt lat="39.3630332" lon="17.1319191"><ele>6.0</ele><time>2026-03-28T16:47:37.612Z</time></trkpt><trkpt lat="39.3629439" lon="17.1319161"><ele>6.0</ele><time>2026-03-28T16:47:38.615Z</time></trkpt><trkpt lat="39.3628457" lon="17.1319129"><ele>6.0</ele><time>2026-03-28T16:47:39.619Z</time></trkpt><trkpt lat="39.3627305" lon="17.1319"><ele>5.6</ele><time>2026-03-28T16:47:40.612Z</time></trkpt><trkpt lat="39.3626234" lon="17.1318847"><ele>5.199999999999999</ele><time>2026-03-28T16:47:41.61Z</time></trkpt><trkpt lat="39.3625403" lon="17.1318714"><ele>4.800000000000001</ele><time>2026-03-28T16:47:42.618Z</time></trkpt><trkpt lat="39.3624715" lon="17.1318586"><ele>4.4</ele><time>2026-03-28T16:47:43.617Z</time></trkpt><trkpt lat="39.3623575" lon="17.1318359"><ele>4.0</ele><time>2026-03-28T16:47:45.623Z</time></trkpt><trkpt lat="39.3622561" lon="17.1318137"><ele>4.333333333333333</ele><time>2026-03-28T16:47:47.637Z</time></trkpt><trkpt lat="39.3621464" lon="17.1317914"><ele>4.666666666666666</ele><time>2026-03-28T16:47:49.619Z</time></trkpt><trkpt lat="39.3620709" lon="17.1317801"><ele>5.0</ele><time>2026-03-28T16:47:50.622Z</time></trkpt><trkpt lat="39.3619981" lon="17.1317679"><ele>5.333333333333333</ele><time>2026-03-28T16:47:51.632Z</time></trkpt><trkpt lat="39.3619228" lon="17.1317519"><ele>5.666666666666667</ele><time>2026-03-28T16:47:52.614Z</time></trkpt><trkpt lat="39.3618535" lon="17.1317363"><ele>6.0</ele><time>2026-03-28T16:47:53.608Z</time></trkpt><trkpt lat="39.3617885" lon="17.1317243"><ele>6.0</ele><time>2026-03-28T16:47:54.612Z</time></trkpt><trkpt lat="39.3617186" lon="17.131714"><ele>6.0</ele><time>2026-03-28T16:47:55.623Z</time></trkpt><trkpt lat="39.3616501" lon="17.131699"><ele>6.0</ele><time>2026-03-28T16:47:56.62Z</time></trkpt><trkpt lat="39.3615848" lon="17.1316844"><ele>6.0</ele><time>2026-03-28T16:47:57.61Z</time></trkpt><trkpt lat="39.3614808" lon="17.1316623"><ele>6.0</ele><time>2026-03-28T16:47:59.614Z</time></trkpt><trkpt lat="39.3613707" lon="17.1316416"><ele>6.0</ele><time>2026-03-28T16:48:01.614Z</time></trkpt><trkpt lat="39.3613082" lon="17.1316312"><ele>5.833333333333333</ele><time>2026-03-28T16:48:02.61Z</time></trkpt><trkpt lat="39.361228" lon="17.131618"><ele>5.666666666666667</ele><time>2026-03-28T16:48:03.62Z</time></trkpt><trkpt lat="39.3611415" lon="17.131604"><ele>5.5</ele><time>2026-03-28T16:48:04.61Z</time></trkpt><trkpt lat="39.3610437" lon="17.1315707"><ele>5.333333333333334</ele><time>2026-03-28T16:48:05.613Z</time></trkpt><trkpt lat="39.3609529" lon="17.1315468"><ele>5.166666666666667</ele><time>2026-03-28T16:48:06.623Z</time></trkpt><trkpt lat="39.3608743" lon="17.1315334"><ele>5.0</ele><time>2026-03-28T16:48:07.614Z</time></trkpt><trkpt lat="39.3607726" lon="17.1315243"><ele>5.0</ele><time>2026-03-28T16:48:09.623Z</time></trkpt><trkpt lat="39.3606908" lon="17.1315182"><ele>5.0</ele><time>2026-03-28T16:48:11.62Z</time></trkpt><trkpt lat="39.3606078" lon="17.1315348"><ele>5.0</ele><time>2026-03-28T16:48:13.625Z</time></trkpt><trkpt lat="39.3605592" lon="17.1316368"><ele>5.0</ele><time>2026-03-28T16:48:15.615Z</time></trkpt><trkpt lat="39.3606186" lon="17.1317535"><ele>5.0</ele><time>2026-03-28T16:48:17.613Z</time></trkpt><trkpt lat="39.3606849" lon="17.1317794"><ele>5.0</ele><time>2026-03-28T16:48:18.616Z</time></trkpt><trkpt lat="39.3607878" lon="17.1317939"><ele>4.8</ele><time>2026-03-28T16:48:19.617Z</time></trkpt><trkpt lat="39.3608868" lon="17.1318074"><ele>4.6</ele><time>2026-03-28T16:48:20.612Z</time></trkpt><trkpt lat="39.3609907" lon="17.1318197"><ele>4.4</ele><time>2026-03-28T16:48:21.621Z</time></trkpt><trkpt lat="39.3611081" lon="17.131834"><ele>4.2</ele><time>2026-03-28T16:48:22.618Z</time></trkpt><trkpt lat="39.3612089" lon="17.1318464"><ele>4.0</ele><time>2026-03-28T16:48:23.628Z</time></trkpt><trkpt lat="39.3612955" lon="17.1318607"><ele>4.333333333333333</ele><time>2026-03-28T16:48:24.614Z</time></trkpt><trkpt lat="39.3613852" lon="17.1318756"><ele>4.666666666666666</ele><time>2026-03-28T16:48:25.621Z</time></trkpt><trkpt lat="39.3614818" lon="17.1318925"><ele>5.0</ele><time>2026-03-28T16:48:26.615Z</time></trkpt><trkpt lat="39.3615665" lon="17.1319083"><ele>5.333333333333333</ele><time>2026-03-28T16:48:27.621Z</time></trkpt><trkpt lat="39.361643" lon="17.1319241"><ele>5.666666666666667</ele><time>2026-03-28T16:48:28.613Z</time></trkpt><trkpt lat="39.361719" lon="17.1319415"><ele>6.0</ele><time>2026-03-28T16:48:29.619Z</time></trkpt><trkpt lat="39.3617983" lon="17.13196"><ele>6.0</ele><time>2026-03-28T16:48:30.621Z</time></trkpt><trkpt lat="39.3618724" lon="17.1319776"><ele>6.0</ele><time>2026-03-28T16:48:31.61Z</time></trkpt><trkpt lat="39.361939" lon="17.1319951"><ele>6.0</ele><time>2026-03-28T16:48:32.615Z</time></trkpt><trkpt lat="39.3620586" lon="17.1320249"><ele>6.0</ele><time>2026-03-28T16:48:34.612Z</time></trkpt><trkpt lat="39.3621223" lon="17.1320409"><ele>6.0</ele><time>2026-03-28T16:48:35.609Z</time></trkpt><trkpt lat="39.3621925" lon="17.1320589"><ele>6.0</ele><time>2026-03-28T16:48:36.613Z</time></trkpt><trkpt lat="39.3622577" lon="17.1320764"><ele>5.666666666666667</ele><time>2026-03-28T16:48:37.624Z</time></trkpt><trkpt lat="39.3623351" lon="17.1320933"><ele>5.333333333333333</ele><time>2026-03-28T16:48:38.622Z</time></trkpt><trkpt lat="39.3624081" lon="17.13211"><ele>5.0</ele><time>2026-03-28T16:48:39.618Z</time></trkpt><trkpt lat="39.3624747" lon="17.1321259"><ele>4.666666666666666</ele><time>2026-03-28T16:48:40.61Z</time></trkpt><trkpt lat="39.36258" lon="17.132149"><ele>4.333333333333333</ele><time>2026-03-28T16:48:42.62Z</time></trkpt><trkpt lat="39.3626856" lon="17.1321733"><ele>4.0</ele><time>2026-03-28T16:48:44.618Z</time></trkpt><trkpt lat="39.3627827" lon="17.1321965"><ele>4.0</ele><time>2026-03-28T16:48:46.609Z</time></trkpt><trkpt lat="39.3629178" lon="17.1322281"><ele>4.0</ele><time>2026-03-28T16:48:48.612Z</time></trkpt><trkpt lat="39.3630028" lon="17.1322486"><ele>4.0</ele><time>2026-03-28T16:48:49.613Z</time></trkpt><trkpt lat="39.3630748" lon="17.132266"><ele>4.0</ele><time>2026-03-28T16:48:50.616Z</time></trkpt><trkpt lat="39.3631763" lon="17.1322894"><ele>4.0</ele><time>2026-03-28T16:48:52.611Z</time></trkpt><trkpt lat="39.3632666" lon="17.1323054"><ele>3.9999999999999996</ele><time>2026-03-28T16:48:54.627Z</time></trkpt><trkpt lat="39.3633459" lon="17.1323191"><ele>4.0</ele><time>2026-03-28T16:48:56.621Z</time></trkpt><trkpt lat="39.3634307" lon="17.1323393"><ele>4.0</ele><time>2026-03-28T16:48:59.62Z</time></trkpt><trkpt lat="39.3635022" lon="17.1323562"><ele>4.0</ele><time>2026-03-28T16:49:02.62Z</time></trkpt><trkpt lat="39.3635671" lon="17.132388"><ele>3.9999999999999996</ele><time>2026-03-28T16:49:05.62Z</time></trkpt><trkpt lat="39.3636386" lon="17.1324628"><ele>4.0</ele><time>2026-03-28T16:49:09.622Z</time></trkpt><trkpt lat="39.3636866" lon="17.132536"><ele>4.0</ele><time>2026-03-28T16:49:11.617Z</time></trkpt><trkpt lat="39.3637243" lon="17.1326366"><ele>4.0</ele><time>2026-03-28T16:49:13.623Z</time></trkpt><trkpt lat="39.3637516" lon="17.1327497"><ele>4.0</ele><time>2026-03-28T16:49:15.632Z</time></trkpt><trkpt lat="39.363799" lon="17.1328749"><ele>4.0</ele><time>2026-03-28T16:49:17.618Z</time></trkpt><trkpt lat="39.3638766" lon="17.1329647"><ele>4.0</ele><time>2026-03-28T16:49:19.623Z</time></trkpt><trkpt lat="39.3640208" lon="17.1330076"><ele>4.0</ele><time>2026-03-28T16:49:21.615Z</time></trkpt><trkpt lat="39.3641242" lon="17.1330221"><ele>4.0</ele><time>2026-03-28T16:49:22.611Z</time></trkpt><trkpt lat="39.3642319" lon="17.1330383"><ele>4.0</ele><time>2026-03-28T16:49:23.618Z</time></trkpt><trkpt lat="39.3643344" lon="17.1330506"><ele>4.0</ele><time>2026-03-28T16:49:24.623Z</time></trkpt><trkpt lat="39.3644203" lon="17.1330591"><ele>4.0</ele><time>2026-03-28T16:49:25.632Z</time></trkpt><trkpt lat="39.3644943" lon="17.1330666"><ele>3.9999999999999996</ele><time>2026-03-28T16:49:26.615Z</time></trkpt><trkpt lat="39.3645718" lon="17.1330735"><ele>4.0</ele><time>2026-03-28T16:49:27.614Z</time></trkpt><trkpt lat="39.3646536" lon="17.1330827"><ele>4.0</ele><time>2026-03-28T16:49:28.622Z</time></trkpt><trkpt lat="39.3647407" lon="17.1330968"><ele>4.0</ele><time>2026-03-28T16:49:29.637Z</time></trkpt><trkpt lat="39.364836" lon="17.1331073"><ele>3.9999999999999996</ele><time>2026-03-28T16:49:30.616Z</time></trkpt><trkpt lat="39.3649209" lon="17.133117"><ele>4.0</ele><time>2026-03-28T16:49:31.613Z</time></trkpt><trkpt lat="39.364998" lon="17.1331263"><ele>4.142857142857142</ele><time>2026-03-28T16:49:32.618Z</time></trkpt><trkpt lat="39.3650649" lon="17.1331371"><ele>4.285714285714286</ele><time>2026-03-28T16:49:33.631Z</time></trkpt><trkpt lat="39.3651402" lon="17.1331453"><ele>4.428571428571429</ele><time>2026-03-28T16:49:34.625Z</time></trkpt><trkpt lat="39.3652115" lon="17.1331512"><ele>4.571428571428571</ele><time>2026-03-28T16:49:35.612Z</time></trkpt><trkpt lat="39.3652804" lon="17.1331577"><ele>4.714285714285714</ele><time>2026-03-28T16:49:36.624Z</time></trkpt><trkpt lat="39.3653506" lon="17.133165"><ele>4.857142857142857</ele><time>2026-03-28T16:49:37.625Z</time></trkpt><trkpt lat="39.3654262" lon="17.1331715"><ele>5.0</ele><time>2026-03-28T16:49:38.62Z</time></trkpt><trkpt lat="39.3655001" lon="17.1331773"><ele>5.0</ele><time>2026-03-28T16:49:39.625Z</time></trkpt><trkpt lat="39.365576" lon="17.1331823"><ele>5.0</ele><time>2026-03-28T16:49:40.622Z</time></trkpt><trkpt lat="39.3656502" lon="17.1331883"><ele>5.0</ele><time>2026-03-28T16:49:41.612Z</time></trkpt><trkpt lat="39.3657145" lon="17.1331928"><ele>5.0</ele><time>2026-03-28T16:49:42.62Z</time></trkpt><trkpt lat="39.3658233" lon="17.1332027"><ele>5.0</ele><time>2026-03-28T16:49:44.61Z</time></trkpt><trkpt lat="39.3659257" lon="17.133216"><ele>5.0</ele><time>2026-03-28T16:49:46.616Z</time></trkpt><trkpt lat="39.3660106" lon="17.1332258"><ele>4.2</ele><time>2026-03-28T16:49:48.62Z</time></trkpt><trkpt lat="39.3661129" lon="17.1332456"><ele>3.4</ele><time>2026-03-28T16:49:50.613Z</time></trkpt><trkpt lat="39.3662177" lon="17.1332725"><ele>2.6</ele><time>2026-03-28T16:49:52.626Z</time></trkpt><trkpt lat="39.3663222" lon="17.1332917"><ele>1.8</ele><time>2026-03-28T16:49:54.619Z</time></trkpt><trkpt lat="39.3663972" lon="17.1332919"><ele>1.0</ele><time>2026-03-28T16:49:56.61Z</time></trkpt><trkpt lat="39.3664715" lon="17.1332258"><ele>2.1666666666666665</ele><time>2026-03-28T16:49:58.615Z</time></trkpt><trkpt lat="39.3665112" lon="17.1331553"><ele>3.333333333333333</ele><time>2026-03-28T16:50:00.614Z</time></trkpt><trkpt lat="39.3665723" lon="17.1330735"><ele>4.5</ele><time>2026-03-28T16:50:02.614Z</time></trkpt><trkpt lat="39.3666494" lon="17.1330519"><ele>5.666666666666666</ele><time>2026-03-28T16:50:03.615Z</time></trkpt><trkpt lat="39.3667307" lon="17.1330436"><ele>6.833333333333333</ele><time>2026-03-28T16:50:04.612Z</time></trkpt><trkpt lat="39.3668427" lon="17.1330443"><ele>8.0</ele><time>2026-03-28T16:50:06.614Z</time></trkpt><trkpt lat="39.3669152" lon="17.133053"><ele>8.0</ele><time>2026-03-28T16:50:08.615Z</time></trkpt><trkpt lat="39.3670092" lon="17.133053"><ele>8.0</ele><time>2026-03-28T16:50:10.617Z</time></trkpt><trkpt lat="39.3671069" lon="17.133051"><ele>8.0</ele><time>2026-03-28T16:50:12.628Z</time></trkpt><trkpt lat="39.3672001" lon="17.1330479"><ele>8.0</ele><time>2026-03-28T16:50:14.611Z</time></trkpt><trkpt lat="39.3673001" lon="17.133048"><ele>8.0</ele><time>2026-03-28T16:50:16.616Z</time></trkpt><trkpt lat="39.3673881" lon="17.13305"><ele>8.0</ele><time>2026-03-28T16:50:18.616Z</time></trkpt><trkpt lat="39.36747" lon="17.1330502"><ele>8.0</ele><time>2026-03-28T16:50:21.625Z</time></trkpt><trkpt lat="39.3675598" lon="17.1330521"><ele>8.0</ele><time>2026-03-28T16:50:24.613Z</time></trkpt><trkpt lat="39.3676675" lon="17.1330525"><ele>8.0</ele><time>2026-03-28T16:50:27.61Z</time></trkpt><trkpt lat="39.3677407" lon="17.1330538"><ele>8.0</ele><time>2026-03-28T16:50:29.618Z</time></trkpt><trkpt lat="39.3678502" lon="17.1330617"><ele>7.999999999999999</ele><time>2026-03-28T16:50:31.612Z</time></trkpt><trkpt lat="39.3679152" lon="17.1330665"><ele>8.0</ele><time>2026-03-28T16:50:32.615Z</time></trkpt><trkpt lat="39.368005" lon="17.1330722"><ele>8.0</ele><time>2026-03-28T16:50:34.623Z</time></trkpt><trkpt lat="39.3680975" lon="17.1330811"><ele>8.0</ele><time>2026-03-28T16:50:36.609Z</time></trkpt><trkpt lat="39.3681635" lon="17.1330849"><ele>7.999999999999999</ele><time>2026-03-28T16:50:37.618Z</time></trkpt><trkpt lat="39.3682622" lon="17.1330925"><ele>8.0</ele><time>2026-03-28T16:50:39.621Z</time></trkpt><trkpt lat="39.3683493" lon="17.1330974"><ele>8.0</ele><time>2026-03-28T16:50:41.619Z</time></trkpt><trkpt lat="39.3684525" lon="17.1331018"><ele>8.0</ele><time>2026-03-28T16:50:43.616Z</time></trkpt><trkpt lat="39.3685619" lon="17.1331159"><ele>8.0</ele><time>2026-03-28T16:50:45.619Z</time></trkpt><trkpt lat="39.3686714" lon="17.1331335"><ele>8.0</ele><time>2026-03-28T16:50:47.609Z</time></trkpt><trkpt lat="39.3687517" lon="17.1331453"><ele>8.0</ele><time>2026-03-28T16:50:49.634Z</time></trkpt><trkpt lat="39.3688275" lon="17.133155"><ele>7.999999999999999</ele><time>2026-03-28T16:50:51.614Z</time></trkpt><trkpt lat="39.3688907" lon="17.1331675"><ele>8.0</ele><time>2026-03-28T16:50:53.625Z</time></trkpt><trkpt lat="39.3689705" lon="17.1331864"><ele>8.0</ele><time>2026-03-28T16:50:56.62Z</time></trkpt><trkpt lat="39.3690394" lon="17.1331979"><ele>8.0</ele><time>2026-03-28T16:50:58.623Z</time></trkpt><trkpt lat="39.3691478" lon="17.1332225"><ele>7.999999999999999</ele><time>2026-03-28T16:51:00.608Z</time></trkpt><trkpt lat="39.3692367" lon="17.1332565"><ele>8.0</ele><time>2026-03-28T16:51:02.629Z</time></trkpt><trkpt lat="39.3693337" lon="17.1333023"><ele>7.999999999999999</ele><time>2026-03-28T16:51:04.615Z</time></trkpt><trkpt lat="39.3693991" lon="17.1333245"><ele>8.0</ele><time>2026-03-28T16:51:05.62Z</time></trkpt><trkpt lat="39.3694739" lon="17.1333472"><ele>8.0</ele><time>2026-03-28T16:51:06.619Z</time></trkpt><trkpt lat="39.3695366" lon="17.1333675"><ele>8.0</ele><time>2026-03-28T16:51:07.623Z</time></trkpt><trkpt lat="39.3696341" lon="17.1334157"><ele>7.999999999999999</ele><time>2026-03-28T16:51:09.624Z</time></trkpt><trkpt lat="39.3697153" lon="17.1334626"><ele>8.0</ele><time>2026-03-28T16:51:11.611Z</time></trkpt><trkpt lat="39.3698144" lon="17.133511"><ele>7.999999999999999</ele><time>2026-03-28T16:51:13.628Z</time></trkpt><trkpt lat="39.3698931" lon="17.1335483"><ele>8.0</ele><time>2026-03-28T16:51:14.623Z</time></trkpt><trkpt lat="39.3699613" lon="17.1335802"><ele>8.0</ele><time>2026-03-28T16:51:15.612Z</time></trkpt><trkpt lat="39.3700324" lon="17.1336035"><ele>8.0</ele><time>2026-03-28T16:51:16.617Z</time></trkpt><trkpt lat="39.3701088" lon="17.1336271"><ele>7.999999999999999</ele><time>2026-03-28T16:51:17.624Z</time></trkpt><trkpt lat="39.3701852" lon="17.1336453"><ele>8.0</ele><time>2026-03-28T16:51:18.608Z</time></trkpt><trkpt lat="39.3702493" lon="17.1336552"><ele>7.999999999999999</ele><time>2026-03-28T16:51:19.641Z</time></trkpt><trkpt lat="39.3703197" lon="17.1336648"><ele>8.0</ele><time>2026-03-28T16:51:20.612Z</time></trkpt><trkpt lat="39.3703894" lon="17.1336756"><ele>8.0</ele><time>2026-03-28T16:51:21.62Z</time></trkpt><trkpt lat="39.3704877" lon="17.1336967"><ele>8.0</ele><time>2026-03-28T16:51:23.616Z</time></trkpt><trkpt lat="39.3705883" lon="17.1337163"><ele>7.999999999999999</ele><time>2026-03-28T16:51:25.627Z</time></trkpt><trkpt lat="39.3706805" lon="17.1337347"><ele>8.0</ele><time>2026-03-28T16:51:27.626Z</time></trkpt><trkpt lat="39.3707523" lon="17.133755"><ele>8.0</ele><time>2026-03-28T16:51:29.625Z</time></trkpt></trkseg></trk></gpx>